<?xml version="1.0" encoding="UTF-8"?>
<gpx creator="Wikiloc - https://www.wikiloc.com" version="1.1" xmlns="http://www.topografix.com/GPX/1/1" xmlns:xsi="http://www.w3.org/2001/XMLSchema-instance" xsi:schemaLocation="http://www.topografix.com/GPX/1/1 http://www.topografix.com/GPX/1/1/gpx.xsd">
  <metadata>
    <name>Wikiloc - Genêts - le Mont-Saint-Michel</name>
    <author>
      <name>scalpa98</name>
      <link href="https://www.wikiloc.com/wikiloc/user.do?id=3464583">
        <text>scalpa98 on Wikiloc</text>
      </link>
    </author>
    <link href="https://www.wikiloc.com/hiking-trails/genets-le-mont-saint-michel-281252374">
      <text>Genêts - le Mont-Saint-Michel on Wikiloc</text>
    </link>
    <time>2026-08-21T20:47:55Z</time>
  </metadata>
  <trk>
    <name>Genêts - le Mont-Saint-Michel - Wikiloc</name>
    <cmt>Attention DANGER : itinéraire qui nécessite un guide. Le trajet varie d'une saison à l'autre.</cmt>
    <desc>Attention DANGER : itinéraire qui nécessite un guide. Le trajet varie d'une saison à l'autre.</desc>
    <trkseg>
      <trkpt lat="48.687224" lon="-1.497950">
        <ele>8.169</ele>
        <time>2026-08-21T15:09:21.999Z</time>
      </trkpt>
      <trkpt lat="48.687219" lon="-1.497961">
        <ele>8.104</ele>
        <time>2026-08-21T15:09:22.999Z</time>
      </trkpt>
      <trkpt lat="48.687213" lon="-1.497978">
        <ele>8.124</ele>
        <time>2026-08-21T15:09:23.999Z</time>
      </trkpt>
      <trkpt lat="48.687206" lon="-1.497992">
        <ele>8.109</ele>
        <time>2026-08-21T15:09:24.999Z</time>
      </trkpt>
      <trkpt lat="48.687199" lon="-1.498004">
        <ele>8.278</ele>
        <time>2026-08-21T15:09:25.999Z</time>
      </trkpt>
      <trkpt lat="48.687192" lon="-1.498019">
        <ele>8.234</ele>
        <time>2026-08-21T15:09:26.999Z</time>
      </trkpt>
      <trkpt lat="48.687184" lon="-1.498035">
        <ele>8.267</ele>
        <time>2026-08-21T15:09:27.999Z</time>
      </trkpt>
      <trkpt lat="48.687176" lon="-1.498050">
        <ele>8.358</ele>
        <time>2026-08-21T15:09:28.999Z</time>
      </trkpt>
      <trkpt lat="48.687169" lon="-1.498064">
        <ele>8.511</ele>
        <time>2026-08-21T15:09:29.999Z</time>
      </trkpt>
      <trkpt lat="48.687161" lon="-1.498078">
        <ele>8.568</ele>
        <time>2026-08-21T15:09:30.999Z</time>
      </trkpt>
      <trkpt lat="48.687152" lon="-1.498095">
        <ele>8.639</ele>
        <time>2026-08-21T15:09:31.999Z</time>
      </trkpt>
      <trkpt lat="48.687146" lon="-1.498112">
        <ele>8.783</ele>
        <time>2026-08-21T15:09:32.999Z</time>
      </trkpt>
      <trkpt lat="48.687139" lon="-1.498124">
        <ele>8.790</ele>
        <time>2026-08-21T15:09:33.999Z</time>
      </trkpt>
      <trkpt lat="48.687130" lon="-1.498132">
        <ele>8.873</ele>
        <time>2026-08-21T15:09:34.999Z</time>
      </trkpt>
      <trkpt lat="48.687121" lon="-1.498144">
        <ele>8.985</ele>
        <time>2026-08-21T15:09:35.999Z</time>
      </trkpt>
      <trkpt lat="48.687110" lon="-1.498155">
        <ele>8.913</ele>
        <time>2026-08-21T15:09:36.999Z</time>
      </trkpt>
      <trkpt lat="48.687102" lon="-1.498171">
        <ele>8.909</ele>
        <time>2026-08-21T15:09:37.999Z</time>
      </trkpt>
      <trkpt lat="48.687096" lon="-1.498184">
        <ele>8.949</ele>
        <time>2026-08-21T15:09:38.999Z</time>
      </trkpt>
      <trkpt lat="48.687096" lon="-1.498204">
        <ele>8.935</ele>
        <time>2026-08-21T15:09:39.999Z</time>
      </trkpt>
      <trkpt lat="48.687089" lon="-1.498221">
        <ele>8.918</ele>
        <time>2026-08-21T15:09:40.999Z</time>
      </trkpt>
      <trkpt lat="48.687076" lon="-1.498232">
        <ele>8.969</ele>
        <time>2026-08-21T15:09:41.999Z</time>
      </trkpt>
      <trkpt lat="48.687069" lon="-1.498247">
        <ele>8.912</ele>
        <time>2026-08-21T15:09:42.999Z</time>
      </trkpt>
      <trkpt lat="48.687064" lon="-1.498265">
        <ele>9.029</ele>
        <time>2026-08-21T15:09:43.999Z</time>
      </trkpt>
      <trkpt lat="48.687056" lon="-1.498280">
        <ele>9.050</ele>
        <time>2026-08-21T15:09:44.999Z</time>
      </trkpt>
      <trkpt lat="48.687049" lon="-1.498296">
        <ele>9.044</ele>
        <time>2026-08-21T15:09:45.999Z</time>
      </trkpt>
      <trkpt lat="48.687040" lon="-1.498318">
        <ele>9.021</ele>
        <time>2026-08-21T15:09:46.999Z</time>
      </trkpt>
      <trkpt lat="48.687032" lon="-1.498344">
        <ele>9.084</ele>
        <time>2026-08-21T15:09:47.999Z</time>
      </trkpt>
      <trkpt lat="48.687025" lon="-1.498353">
        <ele>9.107</ele>
        <time>2026-08-21T15:09:48.999Z</time>
      </trkpt>
      <trkpt lat="48.687012" lon="-1.498373">
        <ele>9.117</ele>
        <time>2026-08-21T15:09:50.999Z</time>
      </trkpt>
      <trkpt lat="48.687004" lon="-1.498388">
        <ele>9.109</ele>
        <time>2026-08-21T15:09:51.999Z</time>
      </trkpt>
      <trkpt lat="48.686997" lon="-1.498407">
        <ele>9.180</ele>
        <time>2026-08-21T15:09:52.999Z</time>
      </trkpt>
      <trkpt lat="48.686990" lon="-1.498424">
        <ele>9.276</ele>
        <time>2026-08-21T15:09:53.999Z</time>
      </trkpt>
      <trkpt lat="48.686983" lon="-1.498437">
        <ele>9.259</ele>
        <time>2026-08-21T15:09:54.999Z</time>
      </trkpt>
      <trkpt lat="48.686981" lon="-1.498453">
        <ele>9.280</ele>
        <time>2026-08-21T15:09:55.999Z</time>
      </trkpt>
      <trkpt lat="48.686968" lon="-1.498478">
        <ele>9.213</ele>
        <time>2026-08-21T15:09:57.999Z</time>
      </trkpt>
      <trkpt lat="48.686960" lon="-1.498495">
        <ele>9.340</ele>
        <time>2026-08-21T15:09:58.999Z</time>
      </trkpt>
      <trkpt lat="48.686949" lon="-1.498510">
        <ele>9.421</ele>
        <time>2026-08-21T15:09:59.999Z</time>
      </trkpt>
      <trkpt lat="48.686941" lon="-1.498522">
        <ele>9.525</ele>
        <time>2026-08-21T15:10:00.999Z</time>
      </trkpt>
      <trkpt lat="48.686934" lon="-1.498540">
        <ele>9.582</ele>
        <time>2026-08-21T15:10:01.999Z</time>
      </trkpt>
      <trkpt lat="48.686932" lon="-1.498566">
        <ele>9.843</ele>
        <time>2026-08-21T15:10:03.999Z</time>
      </trkpt>
      <trkpt lat="48.686922" lon="-1.498582">
        <ele>10.064</ele>
        <time>2026-08-21T15:10:04.999Z</time>
      </trkpt>
      <trkpt lat="48.686910" lon="-1.498598">
        <ele>10.210</ele>
        <time>2026-08-21T15:10:05.999Z</time>
      </trkpt>
      <trkpt lat="48.686899" lon="-1.498614">
        <ele>10.309</ele>
        <time>2026-08-21T15:10:06.999Z</time>
      </trkpt>
      <trkpt lat="48.686892" lon="-1.498632">
        <ele>10.396</ele>
        <time>2026-08-21T15:10:07.999Z</time>
      </trkpt>
      <trkpt lat="48.686885" lon="-1.498658">
        <ele>10.312</ele>
        <time>2026-08-21T15:10:09.999Z</time>
      </trkpt>
      <trkpt lat="48.686882" lon="-1.498672">
        <ele>10.335</ele>
        <time>2026-08-21T15:10:10.999Z</time>
      </trkpt>
      <trkpt lat="48.686876" lon="-1.498685">
        <ele>10.316</ele>
        <time>2026-08-21T15:10:11.999Z</time>
      </trkpt>
      <trkpt lat="48.686871" lon="-1.498703">
        <ele>10.369</ele>
        <time>2026-08-21T15:10:12.999Z</time>
      </trkpt>
      <trkpt lat="48.686868" lon="-1.498720">
        <ele>10.336</ele>
        <time>2026-08-21T15:10:13.999Z</time>
      </trkpt>
      <trkpt lat="48.686863" lon="-1.498733">
        <ele>10.397</ele>
        <time>2026-08-21T15:10:14.999Z</time>
      </trkpt>
      <trkpt lat="48.686852" lon="-1.498738">
        <ele>10.371</ele>
        <time>2026-08-21T15:10:15.999Z</time>
      </trkpt>
      <trkpt lat="48.686847" lon="-1.498752">
        <ele>10.358</ele>
        <time>2026-08-21T15:10:16.999Z</time>
      </trkpt>
      <trkpt lat="48.686840" lon="-1.498764">
        <ele>10.364</ele>
        <time>2026-08-21T15:10:17.999Z</time>
      </trkpt>
      <trkpt lat="48.686833" lon="-1.498782">
        <ele>10.306</ele>
        <time>2026-08-21T15:10:18.999Z</time>
      </trkpt>
      <trkpt lat="48.686824" lon="-1.498801">
        <ele>10.316</ele>
        <time>2026-08-21T15:10:19.999Z</time>
      </trkpt>
      <trkpt lat="48.686817" lon="-1.498815">
        <ele>10.309</ele>
        <time>2026-08-21T15:10:20.999Z</time>
      </trkpt>
      <trkpt lat="48.686808" lon="-1.498825">
        <ele>10.378</ele>
        <time>2026-08-21T15:10:21.999Z</time>
      </trkpt>
      <trkpt lat="48.686801" lon="-1.498839">
        <ele>10.364</ele>
        <time>2026-08-21T15:10:22.999Z</time>
      </trkpt>
      <trkpt lat="48.686802" lon="-1.498855">
        <ele>10.347</ele>
        <time>2026-08-21T15:10:23.999Z</time>
      </trkpt>
      <trkpt lat="48.686801" lon="-1.498874">
        <ele>10.268</ele>
        <time>2026-08-21T15:10:24.999Z</time>
      </trkpt>
      <trkpt lat="48.686802" lon="-1.498898">
        <ele>10.141</ele>
        <time>2026-08-21T15:10:25.999Z</time>
      </trkpt>
      <trkpt lat="48.686795" lon="-1.498908">
        <ele>10.158</ele>
        <time>2026-08-21T15:10:26.999Z</time>
      </trkpt>
      <trkpt lat="48.686788" lon="-1.498921">
        <ele>10.119</ele>
        <time>2026-08-21T15:10:27.999Z</time>
      </trkpt>
      <trkpt lat="48.686778" lon="-1.498937">
        <ele>10.063</ele>
        <time>2026-08-21T15:10:28.999Z</time>
      </trkpt>
      <trkpt lat="48.686770" lon="-1.498949">
        <ele>10.030</ele>
        <time>2026-08-21T15:10:29.999Z</time>
      </trkpt>
      <trkpt lat="48.686756" lon="-1.498964">
        <ele>9.842</ele>
        <time>2026-08-21T15:10:30.999Z</time>
      </trkpt>
      <trkpt lat="48.686744" lon="-1.498983">
        <ele>9.722</ele>
        <time>2026-08-21T15:10:31.999Z</time>
      </trkpt>
      <trkpt lat="48.686736" lon="-1.498998">
        <ele>9.714</ele>
        <time>2026-08-21T15:10:32.999Z</time>
      </trkpt>
      <trkpt lat="48.686728" lon="-1.499012">
        <ele>9.609</ele>
        <time>2026-08-21T15:10:33.999Z</time>
      </trkpt>
      <trkpt lat="48.686720" lon="-1.499027">
        <ele>9.666</ele>
        <time>2026-08-21T15:10:34.999Z</time>
      </trkpt>
      <trkpt lat="48.686714" lon="-1.499039">
        <ele>9.662</ele>
        <time>2026-08-21T15:10:35.999Z</time>
      </trkpt>
      <trkpt lat="48.686703" lon="-1.499067">
        <ele>9.555</ele>
        <time>2026-08-21T15:10:37.999Z</time>
      </trkpt>
      <trkpt lat="48.686699" lon="-1.499082">
        <ele>9.426</ele>
        <time>2026-08-21T15:10:38.999Z</time>
      </trkpt>
      <trkpt lat="48.686694" lon="-1.499097">
        <ele>9.379</ele>
        <time>2026-08-21T15:10:39.999Z</time>
      </trkpt>
      <trkpt lat="48.686688" lon="-1.499111">
        <ele>9.346</ele>
        <time>2026-08-21T15:10:40.999Z</time>
      </trkpt>
      <trkpt lat="48.686682" lon="-1.499126">
        <ele>9.227</ele>
        <time>2026-08-21T15:10:41.999Z</time>
      </trkpt>
      <trkpt lat="48.686669" lon="-1.499153">
        <ele>9.171</ele>
        <time>2026-08-21T15:10:43.999Z</time>
      </trkpt>
      <trkpt lat="48.686661" lon="-1.499172">
        <ele>9.178</ele>
        <time>2026-08-21T15:10:44.999Z</time>
      </trkpt>
      <trkpt lat="48.686655" lon="-1.499189">
        <ele>9.028</ele>
        <time>2026-08-21T15:10:45.999Z</time>
      </trkpt>
      <trkpt lat="48.686648" lon="-1.499204">
        <ele>9.089</ele>
        <time>2026-08-21T15:10:46.999Z</time>
      </trkpt>
      <trkpt lat="48.686641" lon="-1.499214">
        <ele>8.917</ele>
        <time>2026-08-21T15:10:47.999Z</time>
      </trkpt>
      <trkpt lat="48.686635" lon="-1.499230">
        <ele>8.709</ele>
        <time>2026-08-21T15:10:48.999Z</time>
      </trkpt>
      <trkpt lat="48.686628" lon="-1.499244">
        <ele>8.764</ele>
        <time>2026-08-21T15:10:49.999Z</time>
      </trkpt>
      <trkpt lat="48.686620" lon="-1.499259">
        <ele>8.530</ele>
        <time>2026-08-21T15:10:50.999Z</time>
      </trkpt>
      <trkpt lat="48.686615" lon="-1.499277">
        <ele>8.153</ele>
        <time>2026-08-21T15:10:51.999Z</time>
      </trkpt>
      <trkpt lat="48.686609" lon="-1.499291">
        <ele>7.864</ele>
        <time>2026-08-21T15:10:52.999Z</time>
      </trkpt>
      <trkpt lat="48.686602" lon="-1.499303">
        <ele>7.667</ele>
        <time>2026-08-21T15:10:53.999Z</time>
      </trkpt>
      <trkpt lat="48.686589" lon="-1.499327">
        <ele>7.624</ele>
        <time>2026-08-21T15:10:55.999Z</time>
      </trkpt>
      <trkpt lat="48.686579" lon="-1.499345">
        <ele>7.665</ele>
        <time>2026-08-21T15:10:56.999Z</time>
      </trkpt>
      <trkpt lat="48.686572" lon="-1.499365">
        <ele>7.669</ele>
        <time>2026-08-21T15:10:57.999Z</time>
      </trkpt>
      <trkpt lat="48.686566" lon="-1.499384">
        <ele>7.586</ele>
        <time>2026-08-21T15:10:58.999Z</time>
      </trkpt>
      <trkpt lat="48.686558" lon="-1.499398">
        <ele>7.572</ele>
        <time>2026-08-21T15:10:59.999Z</time>
      </trkpt>
      <trkpt lat="48.686550" lon="-1.499412">
        <ele>7.513</ele>
        <time>2026-08-21T15:11:00.999Z</time>
      </trkpt>
      <trkpt lat="48.686543" lon="-1.499422">
        <ele>7.514</ele>
        <time>2026-08-21T15:11:01.999Z</time>
      </trkpt>
      <trkpt lat="48.686538" lon="-1.499436">
        <ele>7.409</ele>
        <time>2026-08-21T15:11:02.999Z</time>
      </trkpt>
      <trkpt lat="48.686532" lon="-1.499456">
        <ele>7.439</ele>
        <time>2026-08-21T15:11:03.999Z</time>
      </trkpt>
      <trkpt lat="48.686526" lon="-1.499472">
        <ele>7.455</ele>
        <time>2026-08-21T15:11:04.999Z</time>
      </trkpt>
      <trkpt lat="48.686519" lon="-1.499490">
        <ele>7.388</ele>
        <time>2026-08-21T15:11:06.999Z</time>
      </trkpt>
      <trkpt lat="48.686512" lon="-1.499506">
        <ele>7.329</ele>
        <time>2026-08-21T15:11:07.999Z</time>
      </trkpt>
      <trkpt lat="48.686505" lon="-1.499523">
        <ele>7.392</ele>
        <time>2026-08-21T15:11:08.999Z</time>
      </trkpt>
      <trkpt lat="48.686497" lon="-1.499539">
        <ele>7.359</ele>
        <time>2026-08-21T15:11:09.999Z</time>
      </trkpt>
      <trkpt lat="48.686489" lon="-1.499555">
        <ele>7.390</ele>
        <time>2026-08-21T15:11:10.999Z</time>
      </trkpt>
      <trkpt lat="48.686482" lon="-1.499569">
        <ele>7.314</ele>
        <time>2026-08-21T15:11:11.999Z</time>
      </trkpt>
      <trkpt lat="48.686479" lon="-1.499584">
        <ele>7.391</ele>
        <time>2026-08-21T15:11:12.999Z</time>
      </trkpt>
      <trkpt lat="48.686466" lon="-1.499607">
        <ele>7.336</ele>
        <time>2026-08-21T15:11:14.999Z</time>
      </trkpt>
      <trkpt lat="48.686459" lon="-1.499620">
        <ele>7.317</ele>
        <time>2026-08-21T15:11:15.999Z</time>
      </trkpt>
      <trkpt lat="48.686456" lon="-1.499635">
        <ele>7.418</ele>
        <time>2026-08-21T15:11:16.999Z</time>
      </trkpt>
      <trkpt lat="48.686444" lon="-1.499658">
        <ele>7.409</ele>
        <time>2026-08-21T15:11:18.999Z</time>
      </trkpt>
      <trkpt lat="48.686439" lon="-1.499670">
        <ele>7.425</ele>
        <time>2026-08-21T15:11:19.999Z</time>
      </trkpt>
      <trkpt lat="48.686432" lon="-1.499682">
        <ele>7.591</ele>
        <time>2026-08-21T15:11:20.999Z</time>
      </trkpt>
      <trkpt lat="48.686425" lon="-1.499697">
        <ele>7.544</ele>
        <time>2026-08-21T15:11:21.999Z</time>
      </trkpt>
      <trkpt lat="48.686417" lon="-1.499711">
        <ele>7.545</ele>
        <time>2026-08-21T15:11:22.999Z</time>
      </trkpt>
      <trkpt lat="48.686409" lon="-1.499725">
        <ele>7.548</ele>
        <time>2026-08-21T15:11:23.999Z</time>
      </trkpt>
      <trkpt lat="48.686397" lon="-1.499745">
        <ele>7.565</ele>
        <time>2026-08-21T15:11:25.999Z</time>
      </trkpt>
      <trkpt lat="48.686389" lon="-1.499760">
        <ele>7.536</ele>
        <time>2026-08-21T15:11:26.999Z</time>
      </trkpt>
      <trkpt lat="48.686384" lon="-1.499777">
        <ele>7.510</ele>
        <time>2026-08-21T15:11:27.999Z</time>
      </trkpt>
      <trkpt lat="48.686375" lon="-1.499794">
        <ele>7.547</ele>
        <time>2026-08-21T15:11:28.999Z</time>
      </trkpt>
      <trkpt lat="48.686372" lon="-1.499819">
        <ele>7.525</ele>
        <time>2026-08-21T15:11:30.999Z</time>
      </trkpt>
      <trkpt lat="48.686371" lon="-1.499833">
        <ele>7.526</ele>
        <time>2026-08-21T15:11:31.999Z</time>
      </trkpt>
      <trkpt lat="48.686370" lon="-1.499850">
        <ele>7.508</ele>
        <time>2026-08-21T15:11:32.999Z</time>
      </trkpt>
      <trkpt lat="48.686365" lon="-1.499864">
        <ele>7.509</ele>
        <time>2026-08-21T15:11:33.999Z</time>
      </trkpt>
      <trkpt lat="48.686359" lon="-1.499875">
        <ele>7.664</ele>
        <time>2026-08-21T15:11:34.999Z</time>
      </trkpt>
      <trkpt lat="48.686354" lon="-1.499863">
        <ele>7.670</ele>
        <time>2026-08-21T15:11:37.999Z</time>
      </trkpt>
      <trkpt lat="48.686361" lon="-1.499850">
        <ele>7.643</ele>
        <time>2026-08-21T15:11:41.999Z</time>
      </trkpt>
      <trkpt lat="48.686348" lon="-1.499861">
        <ele>7.614</ele>
        <time>2026-08-21T15:11:44.999Z</time>
      </trkpt>
      <trkpt lat="48.686336" lon="-1.499869">
        <ele>7.697</ele>
        <time>2026-08-21T15:11:45.999Z</time>
      </trkpt>
      <trkpt lat="48.686329" lon="-1.499882">
        <ele>7.614</ele>
        <time>2026-08-21T15:11:46.999Z</time>
      </trkpt>
      <trkpt lat="48.686320" lon="-1.499896">
        <ele>7.625</ele>
        <time>2026-08-21T15:11:48.999Z</time>
      </trkpt>
      <trkpt lat="48.686309" lon="-1.499895">
        <ele>7.639</ele>
        <time>2026-08-21T15:11:49.999Z</time>
      </trkpt>
      <trkpt lat="48.686298" lon="-1.499892">
        <ele>7.616</ele>
        <time>2026-08-21T15:11:50.999Z</time>
      </trkpt>
      <trkpt lat="48.686285" lon="-1.499887">
        <ele>7.649</ele>
        <time>2026-08-21T15:11:51.999Z</time>
      </trkpt>
      <trkpt lat="48.686275" lon="-1.499892">
        <ele>7.502</ele>
        <time>2026-08-21T15:12:00.999Z</time>
      </trkpt>
      <trkpt lat="48.686275" lon="-1.499878">
        <ele>7.522</ele>
        <time>2026-08-21T15:12:05.999Z</time>
      </trkpt>
      <trkpt lat="48.686280" lon="-1.499867">
        <ele>7.509</ele>
        <time>2026-08-21T15:12:09.999Z</time>
      </trkpt>
      <trkpt lat="48.686296" lon="-1.499866">
        <ele>7.476</ele>
        <time>2026-08-21T15:12:16.999Z</time>
      </trkpt>
      <trkpt lat="48.686313" lon="-1.499867">
        <ele>7.462</ele>
        <time>2026-08-21T15:12:18.999Z</time>
      </trkpt>
      <trkpt lat="48.686330" lon="-1.499857">
        <ele>7.385</ele>
        <time>2026-08-21T15:12:20.999Z</time>
      </trkpt>
      <trkpt lat="48.686338" lon="-1.499850">
        <ele>7.236</ele>
        <time>2026-08-21T15:12:21.999Z</time>
      </trkpt>
      <trkpt lat="48.686354" lon="-1.499831">
        <ele>7.199</ele>
        <time>2026-08-21T15:12:23.999Z</time>
      </trkpt>
      <trkpt lat="48.686362" lon="-1.499820">
        <ele>7.156</ele>
        <time>2026-08-21T15:12:24.999Z</time>
      </trkpt>
      <trkpt lat="48.686372" lon="-1.499806">
        <ele>7.077</ele>
        <time>2026-08-21T15:12:25.999Z</time>
      </trkpt>
      <trkpt lat="48.686383" lon="-1.499792">
        <ele>7.061</ele>
        <time>2026-08-21T15:12:26.999Z</time>
      </trkpt>
      <trkpt lat="48.686393" lon="-1.499779">
        <ele>6.958</ele>
        <time>2026-08-21T15:12:27.999Z</time>
      </trkpt>
      <trkpt lat="48.686401" lon="-1.499764">
        <ele>6.959</ele>
        <time>2026-08-21T15:12:28.999Z</time>
      </trkpt>
      <trkpt lat="48.686407" lon="-1.499748">
        <ele>6.903</ele>
        <time>2026-08-21T15:12:29.999Z</time>
      </trkpt>
      <trkpt lat="48.686411" lon="-1.499733">
        <ele>6.923</ele>
        <time>2026-08-21T15:12:30.999Z</time>
      </trkpt>
      <trkpt lat="48.686418" lon="-1.499714">
        <ele>6.909</ele>
        <time>2026-08-21T15:12:31.999Z</time>
      </trkpt>
      <trkpt lat="48.686425" lon="-1.499697">
        <ele>6.997</ele>
        <time>2026-08-21T15:12:32.999Z</time>
      </trkpt>
      <trkpt lat="48.686432" lon="-1.499684">
        <ele>6.973</ele>
        <time>2026-08-21T15:12:33.999Z</time>
      </trkpt>
      <trkpt lat="48.686437" lon="-1.499673">
        <ele>6.936</ele>
        <time>2026-08-21T15:12:34.999Z</time>
      </trkpt>
      <trkpt lat="48.686440" lon="-1.499659">
        <ele>6.957</ele>
        <time>2026-08-21T15:12:35.999Z</time>
      </trkpt>
      <trkpt lat="48.686446" lon="-1.499646">
        <ele>6.940</ele>
        <time>2026-08-21T15:12:36.999Z</time>
      </trkpt>
      <trkpt lat="48.686451" lon="-1.499630">
        <ele>6.967</ele>
        <time>2026-08-21T15:12:37.999Z</time>
      </trkpt>
      <trkpt lat="48.686459" lon="-1.499618">
        <ele>6.918</ele>
        <time>2026-08-21T15:12:38.999Z</time>
      </trkpt>
      <trkpt lat="48.686466" lon="-1.499608">
        <ele>6.952</ele>
        <time>2026-08-21T15:12:39.999Z</time>
      </trkpt>
      <trkpt lat="48.686470" lon="-1.499592">
        <ele>6.959</ele>
        <time>2026-08-21T15:12:40.999Z</time>
      </trkpt>
      <trkpt lat="48.686477" lon="-1.499578">
        <ele>6.965</ele>
        <time>2026-08-21T15:12:41.999Z</time>
      </trkpt>
      <trkpt lat="48.686488" lon="-1.499562">
        <ele>7.068</ele>
        <time>2026-08-21T15:12:42.999Z</time>
      </trkpt>
      <trkpt lat="48.686492" lon="-1.499546">
        <ele>7.114</ele>
        <time>2026-08-21T15:12:43.999Z</time>
      </trkpt>
      <trkpt lat="48.686499" lon="-1.499533">
        <ele>7.109</ele>
        <time>2026-08-21T15:12:44.999Z</time>
      </trkpt>
      <trkpt lat="48.686506" lon="-1.499522">
        <ele>7.188</ele>
        <time>2026-08-21T15:12:45.999Z</time>
      </trkpt>
      <trkpt lat="48.686511" lon="-1.499506">
        <ele>7.184</ele>
        <time>2026-08-21T15:12:46.999Z</time>
      </trkpt>
      <trkpt lat="48.686519" lon="-1.499491">
        <ele>7.247</ele>
        <time>2026-08-21T15:12:47.999Z</time>
      </trkpt>
      <trkpt lat="48.686527" lon="-1.499474">
        <ele>7.248</ele>
        <time>2026-08-21T15:12:48.999Z</time>
      </trkpt>
      <trkpt lat="48.686535" lon="-1.499462">
        <ele>7.211</ele>
        <time>2026-08-21T15:12:49.999Z</time>
      </trkpt>
      <trkpt lat="48.686540" lon="-1.499449">
        <ele>7.298</ele>
        <time>2026-08-21T15:12:50.999Z</time>
      </trkpt>
      <trkpt lat="48.686549" lon="-1.499430">
        <ele>7.379</ele>
        <time>2026-08-21T15:12:51.999Z</time>
      </trkpt>
      <trkpt lat="48.686560" lon="-1.499413">
        <ele>7.483</ele>
        <time>2026-08-21T15:12:52.999Z</time>
      </trkpt>
      <trkpt lat="48.686570" lon="-1.499400">
        <ele>7.510</ele>
        <time>2026-08-21T15:12:53.999Z</time>
      </trkpt>
      <trkpt lat="48.686576" lon="-1.499386">
        <ele>7.636</ele>
        <time>2026-08-21T15:12:54.999Z</time>
      </trkpt>
      <trkpt lat="48.686576" lon="-1.499369">
        <ele>7.617</ele>
        <time>2026-08-21T15:12:55.999Z</time>
      </trkpt>
      <trkpt lat="48.686578" lon="-1.499351">
        <ele>7.718</ele>
        <time>2026-08-21T15:12:56.999Z</time>
      </trkpt>
      <trkpt lat="48.686582" lon="-1.499336">
        <ele>7.709</ele>
        <time>2026-08-21T15:12:57.999Z</time>
      </trkpt>
      <trkpt lat="48.686589" lon="-1.499327">
        <ele>7.755</ele>
        <time>2026-08-21T15:12:58.999Z</time>
      </trkpt>
      <trkpt lat="48.686596" lon="-1.499319">
        <ele>7.731</ele>
        <time>2026-08-21T15:12:59.999Z</time>
      </trkpt>
      <trkpt lat="48.686607" lon="-1.499303">
        <ele>7.814</ele>
        <time>2026-08-21T15:13:00.999Z</time>
      </trkpt>
      <trkpt lat="48.686619" lon="-1.499291">
        <ele>7.815</ele>
        <time>2026-08-21T15:13:01.999Z</time>
      </trkpt>
      <trkpt lat="48.686626" lon="-1.499272">
        <ele>7.828</ele>
        <time>2026-08-21T15:13:02.999Z</time>
      </trkpt>
      <trkpt lat="48.686634" lon="-1.499261">
        <ele>7.975</ele>
        <time>2026-08-21T15:13:03.999Z</time>
      </trkpt>
      <trkpt lat="48.686642" lon="-1.499246">
        <ele>7.946</ele>
        <time>2026-08-21T15:13:04.999Z</time>
      </trkpt>
      <trkpt lat="48.686648" lon="-1.499231">
        <ele>8.010</ele>
        <time>2026-08-21T15:13:05.999Z</time>
      </trkpt>
      <trkpt lat="48.686652" lon="-1.499217">
        <ele>8.157</ele>
        <time>2026-08-21T15:13:06.999Z</time>
      </trkpt>
      <trkpt lat="48.686662" lon="-1.499195">
        <ele>8.291</ele>
        <time>2026-08-21T15:13:08.999Z</time>
      </trkpt>
      <trkpt lat="48.686670" lon="-1.499179">
        <ele>8.281</ele>
        <time>2026-08-21T15:13:09.999Z</time>
      </trkpt>
      <trkpt lat="48.686679" lon="-1.499163">
        <ele>8.219</ele>
        <time>2026-08-21T15:13:10.999Z</time>
      </trkpt>
      <trkpt lat="48.686685" lon="-1.499147">
        <ele>8.209</ele>
        <time>2026-08-21T15:13:11.999Z</time>
      </trkpt>
      <trkpt lat="48.686695" lon="-1.499137">
        <ele>8.321</ele>
        <time>2026-08-21T15:13:12.999Z</time>
      </trkpt>
      <trkpt lat="48.686707" lon="-1.499111">
        <ele>8.477</ele>
        <time>2026-08-21T15:13:14.999Z</time>
      </trkpt>
      <trkpt lat="48.686711" lon="-1.499098">
        <ele>8.450</ele>
        <time>2026-08-21T15:13:15.999Z</time>
      </trkpt>
      <trkpt lat="48.686715" lon="-1.499084">
        <ele>8.521</ele>
        <time>2026-08-21T15:13:16.999Z</time>
      </trkpt>
      <trkpt lat="48.686723" lon="-1.499075">
        <ele>8.584</ele>
        <time>2026-08-21T15:13:17.999Z</time>
      </trkpt>
      <trkpt lat="48.686732" lon="-1.499063">
        <ele>8.641</ele>
        <time>2026-08-21T15:13:18.999Z</time>
      </trkpt>
      <trkpt lat="48.686739" lon="-1.499054">
        <ele>8.872</ele>
        <time>2026-08-21T15:13:19.999Z</time>
      </trkpt>
      <trkpt lat="48.686743" lon="-1.499041">
        <ele>8.896</ele>
        <time>2026-08-21T15:13:20.999Z</time>
      </trkpt>
      <trkpt lat="48.686752" lon="-1.499021">
        <ele>9.233</ele>
        <time>2026-08-21T15:13:22.999Z</time>
      </trkpt>
      <trkpt lat="48.686761" lon="-1.499005">
        <ele>9.686</ele>
        <time>2026-08-21T15:13:24.999Z</time>
      </trkpt>
      <trkpt lat="48.686771" lon="-1.498990">
        <ele>9.660</ele>
        <time>2026-08-21T15:13:25.999Z</time>
      </trkpt>
      <trkpt lat="48.686784" lon="-1.498967">
        <ele>9.726</ele>
        <time>2026-08-21T15:13:26.999Z</time>
      </trkpt>
      <trkpt lat="48.686793" lon="-1.498941">
        <ele>9.709</ele>
        <time>2026-08-21T15:13:27.999Z</time>
      </trkpt>
      <trkpt lat="48.686794" lon="-1.498920">
        <ele>9.710</ele>
        <time>2026-08-21T15:13:28.999Z</time>
      </trkpt>
      <trkpt lat="48.686801" lon="-1.498908">
        <ele>9.846</ele>
        <time>2026-08-21T15:13:29.999Z</time>
      </trkpt>
      <trkpt lat="48.686806" lon="-1.498889">
        <ele>9.969</ele>
        <time>2026-08-21T15:13:30.999Z</time>
      </trkpt>
      <trkpt lat="48.686814" lon="-1.498869">
        <ele>10.130</ele>
        <time>2026-08-21T15:13:31.999Z</time>
      </trkpt>
      <trkpt lat="48.686821" lon="-1.498853">
        <ele>10.113</ele>
        <time>2026-08-21T15:13:32.999Z</time>
      </trkpt>
      <trkpt lat="48.686820" lon="-1.498828">
        <ele>10.240</ele>
        <time>2026-08-21T15:13:33.999Z</time>
      </trkpt>
      <trkpt lat="48.686832" lon="-1.498805">
        <ele>10.341</ele>
        <time>2026-08-21T15:13:35.999Z</time>
      </trkpt>
      <trkpt lat="48.686838" lon="-1.498795">
        <ele>10.355</ele>
        <time>2026-08-21T15:13:36.999Z</time>
      </trkpt>
      <trkpt lat="48.686850" lon="-1.498772">
        <ele>10.392</ele>
        <time>2026-08-21T15:13:38.999Z</time>
      </trkpt>
      <trkpt lat="48.686858" lon="-1.498753">
        <ele>10.321</ele>
        <time>2026-08-21T15:13:39.999Z</time>
      </trkpt>
      <trkpt lat="48.686867" lon="-1.498734">
        <ele>10.441</ele>
        <time>2026-08-21T15:13:40.999Z</time>
      </trkpt>
      <trkpt lat="48.686881" lon="-1.498720">
        <ele>10.405</ele>
        <time>2026-08-21T15:13:41.999Z</time>
      </trkpt>
      <trkpt lat="48.686890" lon="-1.498706">
        <ele>10.409</ele>
        <time>2026-08-21T15:13:42.999Z</time>
      </trkpt>
      <trkpt lat="48.686895" lon="-1.498688">
        <ele>10.544</ele>
        <time>2026-08-21T15:13:43.999Z</time>
      </trkpt>
      <trkpt lat="48.686901" lon="-1.498670">
        <ele>10.660</ele>
        <time>2026-08-21T15:13:44.999Z</time>
      </trkpt>
      <trkpt lat="48.686905" lon="-1.498653">
        <ele>10.773</ele>
        <time>2026-08-21T15:13:45.999Z</time>
      </trkpt>
      <trkpt lat="48.686908" lon="-1.498634">
        <ele>10.814</ele>
        <time>2026-08-21T15:13:46.999Z</time>
      </trkpt>
      <trkpt lat="48.686908" lon="-1.498614">
        <ele>10.937</ele>
        <time>2026-08-21T15:13:47.999Z</time>
      </trkpt>
      <trkpt lat="48.686915" lon="-1.498597">
        <ele>11.064</ele>
        <time>2026-08-21T15:13:48.999Z</time>
      </trkpt>
      <trkpt lat="48.686926" lon="-1.498586">
        <ele>11.125</ele>
        <time>2026-08-21T15:13:49.999Z</time>
      </trkpt>
      <trkpt lat="48.686934" lon="-1.498574">
        <ele>11.279</ele>
        <time>2026-08-21T15:13:52.999Z</time>
      </trkpt>
      <trkpt lat="48.686943" lon="-1.498562">
        <ele>11.286</ele>
        <time>2026-08-21T15:13:54.999Z</time>
      </trkpt>
      <trkpt lat="48.686949" lon="-1.498545">
        <ele>11.335</ele>
        <time>2026-08-21T15:13:55.999Z</time>
      </trkpt>
      <trkpt lat="48.686953" lon="-1.498531">
        <ele>11.486</ele>
        <time>2026-08-21T15:13:56.999Z</time>
      </trkpt>
      <trkpt lat="48.686944" lon="-1.498527">
        <ele>11.414</ele>
        <time>2026-08-21T15:13:59.999Z</time>
      </trkpt>
      <trkpt lat="48.686935" lon="-1.498537">
        <ele>11.409</ele>
        <time>2026-08-21T15:14:05.999Z</time>
      </trkpt>
      <trkpt lat="48.686924" lon="-1.498562">
        <ele>11.455</ele>
        <time>2026-08-21T15:14:06.999Z</time>
      </trkpt>
      <trkpt lat="48.686915" lon="-1.498582">
        <ele>11.471</ele>
        <time>2026-08-21T15:14:07.999Z</time>
      </trkpt>
      <trkpt lat="48.686906" lon="-1.498599">
        <ele>11.484</ele>
        <time>2026-08-21T15:14:08.999Z</time>
      </trkpt>
      <trkpt lat="48.686898" lon="-1.498614">
        <ele>11.485</ele>
        <time>2026-08-21T15:14:09.999Z</time>
      </trkpt>
      <trkpt lat="48.686890" lon="-1.498625">
        <ele>11.498</ele>
        <time>2026-08-21T15:14:10.999Z</time>
      </trkpt>
      <trkpt lat="48.686881" lon="-1.498641">
        <ele>11.435</ele>
        <time>2026-08-21T15:14:11.999Z</time>
      </trkpt>
      <trkpt lat="48.686875" lon="-1.498653">
        <ele>11.226</ele>
        <time>2026-08-21T15:14:12.999Z</time>
      </trkpt>
      <trkpt lat="48.686869" lon="-1.498672">
        <ele>11.220</ele>
        <time>2026-08-21T15:14:13.999Z</time>
      </trkpt>
      <trkpt lat="48.686858" lon="-1.498697">
        <ele>11.217</ele>
        <time>2026-08-21T15:14:15.999Z</time>
      </trkpt>
      <trkpt lat="48.686849" lon="-1.498707">
        <ele>11.271</ele>
        <time>2026-08-21T15:14:16.999Z</time>
      </trkpt>
      <trkpt lat="48.686844" lon="-1.498722">
        <ele>11.241</ele>
        <time>2026-08-21T15:14:17.999Z</time>
      </trkpt>
      <trkpt lat="48.686838" lon="-1.498737">
        <ele>11.015</ele>
        <time>2026-08-21T15:14:18.999Z</time>
      </trkpt>
      <trkpt lat="48.686834" lon="-1.498750">
        <ele>11.009</ele>
        <time>2026-08-21T15:14:19.999Z</time>
      </trkpt>
      <trkpt lat="48.686828" lon="-1.498760">
        <ele>10.949</ele>
        <time>2026-08-21T15:14:20.999Z</time>
      </trkpt>
      <trkpt lat="48.686825" lon="-1.498775">
        <ele>10.655</ele>
        <time>2026-08-21T15:14:21.999Z</time>
      </trkpt>
      <trkpt lat="48.686817" lon="-1.498793">
        <ele>10.598</ele>
        <time>2026-08-21T15:14:22.999Z</time>
      </trkpt>
      <trkpt lat="48.686808" lon="-1.498807">
        <ele>10.529</ele>
        <time>2026-08-21T15:14:23.999Z</time>
      </trkpt>
      <trkpt lat="48.686799" lon="-1.498822">
        <ele>10.452</ele>
        <time>2026-08-21T15:14:25.999Z</time>
      </trkpt>
      <trkpt lat="48.686791" lon="-1.498835">
        <ele>10.449</ele>
        <time>2026-08-21T15:14:26.999Z</time>
      </trkpt>
      <trkpt lat="48.686783" lon="-1.498850">
        <ele>10.340</ele>
        <time>2026-08-21T15:14:27.999Z</time>
      </trkpt>
      <trkpt lat="48.686777" lon="-1.498861">
        <ele>10.314</ele>
        <time>2026-08-21T15:14:28.999Z</time>
      </trkpt>
      <trkpt lat="48.686770" lon="-1.498871">
        <ele>10.241</ele>
        <time>2026-08-21T15:14:29.999Z</time>
      </trkpt>
      <trkpt lat="48.686762" lon="-1.498893">
        <ele>10.212</ele>
        <time>2026-08-21T15:14:31.999Z</time>
      </trkpt>
      <trkpt lat="48.686755" lon="-1.498911">
        <ele>10.232</ele>
        <time>2026-08-21T15:14:32.999Z</time>
      </trkpt>
      <trkpt lat="48.686752" lon="-1.498933">
        <ele>10.105</ele>
        <time>2026-08-21T15:14:33.999Z</time>
      </trkpt>
      <trkpt lat="48.686745" lon="-1.498948">
        <ele>10.109</ele>
        <time>2026-08-21T15:14:34.999Z</time>
      </trkpt>
      <trkpt lat="48.686737" lon="-1.498972">
        <ele>10.163</ele>
        <time>2026-08-21T15:14:36.999Z</time>
      </trkpt>
      <trkpt lat="48.686731" lon="-1.498988">
        <ele>10.049</ele>
        <time>2026-08-21T15:14:37.999Z</time>
      </trkpt>
      <trkpt lat="48.686725" lon="-1.499007">
        <ele>10.062</ele>
        <time>2026-08-21T15:14:38.999Z</time>
      </trkpt>
      <trkpt lat="48.686719" lon="-1.499027">
        <ele>10.063</ele>
        <time>2026-08-21T15:14:39.999Z</time>
      </trkpt>
      <trkpt lat="48.686712" lon="-1.499045">
        <ele>10.086</ele>
        <time>2026-08-21T15:14:40.999Z</time>
      </trkpt>
      <trkpt lat="48.686704" lon="-1.499062">
        <ele>9.983</ele>
        <time>2026-08-21T15:14:41.999Z</time>
      </trkpt>
      <trkpt lat="48.686697" lon="-1.499077">
        <ele>9.714</ele>
        <time>2026-08-21T15:14:42.999Z</time>
      </trkpt>
      <trkpt lat="48.686686" lon="-1.499090">
        <ele>9.658</ele>
        <time>2026-08-21T15:14:43.999Z</time>
      </trkpt>
      <trkpt lat="48.686680" lon="-1.499105">
        <ele>9.695</ele>
        <time>2026-08-21T15:14:44.999Z</time>
      </trkpt>
      <trkpt lat="48.686670" lon="-1.499116">
        <ele>9.618</ele>
        <time>2026-08-21T15:14:45.999Z</time>
      </trkpt>
      <trkpt lat="48.686663" lon="-1.499139">
        <ele>9.598</ele>
        <time>2026-08-21T15:14:46.999Z</time>
      </trkpt>
      <trkpt lat="48.686657" lon="-1.499158">
        <ele>9.517</ele>
        <time>2026-08-21T15:14:47.999Z</time>
      </trkpt>
      <trkpt lat="48.686652" lon="-1.499175">
        <ele>9.409</ele>
        <time>2026-08-21T15:14:48.999Z</time>
      </trkpt>
      <trkpt lat="48.686646" lon="-1.499194">
        <ele>9.463</ele>
        <time>2026-08-21T15:14:49.999Z</time>
      </trkpt>
      <trkpt lat="48.686639" lon="-1.499208">
        <ele>9.359</ele>
        <time>2026-08-21T15:14:50.999Z</time>
      </trkpt>
      <trkpt lat="48.686630" lon="-1.499220">
        <ele>9.362</ele>
        <time>2026-08-21T15:14:51.999Z</time>
      </trkpt>
      <trkpt lat="48.686626" lon="-1.499234">
        <ele>9.243</ele>
        <time>2026-08-21T15:14:52.999Z</time>
      </trkpt>
      <trkpt lat="48.686619" lon="-1.499249">
        <ele>9.136</ele>
        <time>2026-08-21T15:14:53.999Z</time>
      </trkpt>
      <trkpt lat="48.686617" lon="-1.499267">
        <ele>9.153</ele>
        <time>2026-08-21T15:14:54.999Z</time>
      </trkpt>
      <trkpt lat="48.686613" lon="-1.499287">
        <ele>9.064</ele>
        <time>2026-08-21T15:14:55.999Z</time>
      </trkpt>
      <trkpt lat="48.686607" lon="-1.499297">
        <ele>9.058</ele>
        <time>2026-08-21T15:14:56.999Z</time>
      </trkpt>
      <trkpt lat="48.686599" lon="-1.499325">
        <ele>8.985</ele>
        <time>2026-08-21T15:14:58.999Z</time>
      </trkpt>
      <trkpt lat="48.686594" lon="-1.499340">
        <ele>8.716</ele>
        <time>2026-08-21T15:14:59.999Z</time>
      </trkpt>
      <trkpt lat="48.686585" lon="-1.499358">
        <ele>8.776</ele>
        <time>2026-08-21T15:15:00.999Z</time>
      </trkpt>
      <trkpt lat="48.686576" lon="-1.499378">
        <ele>8.713</ele>
        <time>2026-08-21T15:15:01.999Z</time>
      </trkpt>
      <trkpt lat="48.686567" lon="-1.499392">
        <ele>8.709</ele>
        <time>2026-08-21T15:15:02.999Z</time>
      </trkpt>
      <trkpt lat="48.686556" lon="-1.499409">
        <ele>8.653</ele>
        <time>2026-08-21T15:15:04.999Z</time>
      </trkpt>
      <trkpt lat="48.686541" lon="-1.499430">
        <ele>8.679</ele>
        <time>2026-08-21T15:15:06.999Z</time>
      </trkpt>
      <trkpt lat="48.686534" lon="-1.499452">
        <ele>8.662</ele>
        <time>2026-08-21T15:15:07.999Z</time>
      </trkpt>
      <trkpt lat="48.686528" lon="-1.499468">
        <ele>8.583</ele>
        <time>2026-08-21T15:15:08.999Z</time>
      </trkpt>
      <trkpt lat="48.686518" lon="-1.499478">
        <ele>8.596</ele>
        <time>2026-08-21T15:15:09.999Z</time>
      </trkpt>
      <trkpt lat="48.686508" lon="-1.499494">
        <ele>8.543</ele>
        <time>2026-08-21T15:15:10.999Z</time>
      </trkpt>
      <trkpt lat="48.686501" lon="-1.499504">
        <ele>8.544</ele>
        <time>2026-08-21T15:15:11.999Z</time>
      </trkpt>
      <trkpt lat="48.686490" lon="-1.499521">
        <ele>8.468</ele>
        <time>2026-08-21T15:15:12.999Z</time>
      </trkpt>
      <trkpt lat="48.686484" lon="-1.499539">
        <ele>8.375</ele>
        <time>2026-08-21T15:15:13.999Z</time>
      </trkpt>
      <trkpt lat="48.686481" lon="-1.499559">
        <ele>8.364</ele>
        <time>2026-08-21T15:15:14.999Z</time>
      </trkpt>
      <trkpt lat="48.686478" lon="-1.499573">
        <ele>8.306</ele>
        <time>2026-08-21T15:15:15.999Z</time>
      </trkpt>
      <trkpt lat="48.686475" lon="-1.499591">
        <ele>8.316</ele>
        <time>2026-08-21T15:15:17.999Z</time>
      </trkpt>
      <trkpt lat="48.686460" lon="-1.499616">
        <ele>8.309</ele>
        <time>2026-08-21T15:15:19.999Z</time>
      </trkpt>
      <trkpt lat="48.686448" lon="-1.499635">
        <ele>8.338</ele>
        <time>2026-08-21T15:15:20.999Z</time>
      </trkpt>
      <trkpt lat="48.686441" lon="-1.499655">
        <ele>8.354</ele>
        <time>2026-08-21T15:15:21.999Z</time>
      </trkpt>
      <trkpt lat="48.686431" lon="-1.499671">
        <ele>8.387</ele>
        <time>2026-08-21T15:15:22.999Z</time>
      </trkpt>
      <trkpt lat="48.686423" lon="-1.499681">
        <ele>8.368</ele>
        <time>2026-08-21T15:15:23.999Z</time>
      </trkpt>
      <trkpt lat="48.686418" lon="-1.499696">
        <ele>8.491</ele>
        <time>2026-08-21T15:15:24.999Z</time>
      </trkpt>
      <trkpt lat="48.686409" lon="-1.499709">
        <ele>8.498</ele>
        <time>2026-08-21T15:15:25.999Z</time>
      </trkpt>
      <trkpt lat="48.686398" lon="-1.499727">
        <ele>8.479</ele>
        <time>2026-08-21T15:15:26.999Z</time>
      </trkpt>
      <trkpt lat="48.686389" lon="-1.499744">
        <ele>8.483</ele>
        <time>2026-08-21T15:15:27.999Z</time>
      </trkpt>
      <trkpt lat="48.686382" lon="-1.499759">
        <ele>8.450</ele>
        <time>2026-08-21T15:15:28.999Z</time>
      </trkpt>
      <trkpt lat="48.686377" lon="-1.499773">
        <ele>8.442</ele>
        <time>2026-08-21T15:15:29.999Z</time>
      </trkpt>
      <trkpt lat="48.686364" lon="-1.499794">
        <ele>8.422</ele>
        <time>2026-08-21T15:15:31.999Z</time>
      </trkpt>
      <trkpt lat="48.686356" lon="-1.499805">
        <ele>8.414</ele>
        <time>2026-08-21T15:15:32.999Z</time>
      </trkpt>
      <trkpt lat="48.686349" lon="-1.499815">
        <ele>8.409</ele>
        <time>2026-08-21T15:15:33.999Z</time>
      </trkpt>
      <trkpt lat="48.686336" lon="-1.499816">
        <ele>8.326</ele>
        <time>2026-08-21T15:15:35.999Z</time>
      </trkpt>
      <trkpt lat="48.686320" lon="-1.499818">
        <ele>8.332</ele>
        <time>2026-08-21T15:15:37.999Z</time>
      </trkpt>
      <trkpt lat="48.686310" lon="-1.499832">
        <ele>8.315</ele>
        <time>2026-08-21T15:15:39.999Z</time>
      </trkpt>
      <trkpt lat="48.686319" lon="-1.499828">
        <ele>8.356</ele>
        <time>2026-08-21T15:16:01.999Z</time>
      </trkpt>
      <trkpt lat="48.686310" lon="-1.499823">
        <ele>6.259</ele>
        <time>2026-08-21T15:16:49.999Z</time>
      </trkpt>
      <trkpt lat="48.686320" lon="-1.499828">
        <ele>6.296</ele>
        <time>2026-08-21T15:16:55.999Z</time>
      </trkpt>
      <trkpt lat="48.686322" lon="-1.499844">
        <ele>6.237</ele>
        <time>2026-08-21T15:17:15.999Z</time>
      </trkpt>
      <trkpt lat="48.686317" lon="-1.499856">
        <ele>7.351</ele>
        <time>2026-08-21T15:17:49Z</time>
      </trkpt>
      <trkpt lat="48.686312" lon="-1.499878">
        <ele>5.928</ele>
        <time>2026-08-21T15:18:27Z</time>
      </trkpt>
      <trkpt lat="48.686305" lon="-1.499889">
        <ele>5.924</ele>
        <time>2026-08-21T15:18:28Z</time>
      </trkpt>
      <trkpt lat="48.686300" lon="-1.499904">
        <ele>5.904</ele>
        <time>2026-08-21T15:18:29Z</time>
      </trkpt>
      <trkpt lat="48.686296" lon="-1.499917">
        <ele>6.014</ele>
        <time>2026-08-21T15:18:30Z</time>
      </trkpt>
      <trkpt lat="48.686291" lon="-1.499930">
        <ele>6.109</ele>
        <time>2026-08-21T15:18:31Z</time>
      </trkpt>
      <trkpt lat="48.686287" lon="-1.499947">
        <ele>6.164</ele>
        <time>2026-08-21T15:18:32Z</time>
      </trkpt>
      <trkpt lat="48.686282" lon="-1.499966">
        <ele>6.290</ele>
        <time>2026-08-21T15:18:33Z</time>
      </trkpt>
      <trkpt lat="48.686280" lon="-1.499982">
        <ele>6.233</ele>
        <time>2026-08-21T15:18:34Z</time>
      </trkpt>
      <trkpt lat="48.686274" lon="-1.500000">
        <ele>6.294</ele>
        <time>2026-08-21T15:18:35Z</time>
      </trkpt>
      <trkpt lat="48.686267" lon="-1.500024">
        <ele>6.367</ele>
        <time>2026-08-21T15:18:37Z</time>
      </trkpt>
      <trkpt lat="48.686262" lon="-1.500039">
        <ele>6.314</ele>
        <time>2026-08-21T15:18:38Z</time>
      </trkpt>
      <trkpt lat="48.686255" lon="-1.500054">
        <ele>6.375</ele>
        <time>2026-08-21T15:18:39Z</time>
      </trkpt>
      <trkpt lat="48.686248" lon="-1.500068">
        <ele>6.289</ele>
        <time>2026-08-21T15:18:40Z</time>
      </trkpt>
      <trkpt lat="48.686241" lon="-1.500081">
        <ele>6.386</ele>
        <time>2026-08-21T15:18:41Z</time>
      </trkpt>
      <trkpt lat="48.686237" lon="-1.500095">
        <ele>6.326</ele>
        <time>2026-08-21T15:18:42Z</time>
      </trkpt>
      <trkpt lat="48.686230" lon="-1.500108">
        <ele>6.347</ele>
        <time>2026-08-21T15:18:43Z</time>
      </trkpt>
      <trkpt lat="48.686225" lon="-1.500130">
        <ele>6.311</ele>
        <time>2026-08-21T15:18:45Z</time>
      </trkpt>
      <trkpt lat="48.686221" lon="-1.500149">
        <ele>6.309</ele>
        <time>2026-08-21T15:18:46Z</time>
      </trkpt>
      <trkpt lat="48.686220" lon="-1.500165">
        <ele>6.324</ele>
        <time>2026-08-21T15:18:47Z</time>
      </trkpt>
      <trkpt lat="48.686218" lon="-1.500178">
        <ele>6.320</ele>
        <time>2026-08-21T15:18:48Z</time>
      </trkpt>
      <trkpt lat="48.686213" lon="-1.500190">
        <ele>6.363</ele>
        <time>2026-08-21T15:18:49Z</time>
      </trkpt>
      <trkpt lat="48.686209" lon="-1.500214">
        <ele>6.374</ele>
        <time>2026-08-21T15:18:51Z</time>
      </trkpt>
      <trkpt lat="48.686203" lon="-1.500232">
        <ele>6.447</ele>
        <time>2026-08-21T15:18:52Z</time>
      </trkpt>
      <trkpt lat="48.686197" lon="-1.500247">
        <ele>6.414</ele>
        <time>2026-08-21T15:18:53Z</time>
      </trkpt>
      <trkpt lat="48.686187" lon="-1.500271">
        <ele>6.485</ele>
        <time>2026-08-21T15:18:55Z</time>
      </trkpt>
      <trkpt lat="48.686181" lon="-1.500289">
        <ele>6.459</ele>
        <time>2026-08-21T15:18:56Z</time>
      </trkpt>
      <trkpt lat="48.686175" lon="-1.500301">
        <ele>6.446</ele>
        <time>2026-08-21T15:18:57Z</time>
      </trkpt>
      <trkpt lat="48.686162" lon="-1.500318">
        <ele>6.476</ele>
        <time>2026-08-21T15:18:59Z</time>
      </trkpt>
      <trkpt lat="48.686159" lon="-1.500333">
        <ele>6.590</ele>
        <time>2026-08-21T15:19:00Z</time>
      </trkpt>
      <trkpt lat="48.686154" lon="-1.500350">
        <ele>6.519</ele>
        <time>2026-08-21T15:19:01Z</time>
      </trkpt>
      <trkpt lat="48.686150" lon="-1.500363">
        <ele>6.809</ele>
        <time>2026-08-21T15:19:02Z</time>
      </trkpt>
      <trkpt lat="48.686145" lon="-1.500375">
        <ele>6.959</ele>
        <time>2026-08-21T15:19:03Z</time>
      </trkpt>
      <trkpt lat="48.686142" lon="-1.500389">
        <ele>7.035</ele>
        <time>2026-08-21T15:19:04Z</time>
      </trkpt>
      <trkpt lat="48.686137" lon="-1.500403">
        <ele>7.138</ele>
        <time>2026-08-21T15:19:05Z</time>
      </trkpt>
      <trkpt lat="48.686132" lon="-1.500425">
        <ele>7.299</ele>
        <time>2026-08-21T15:19:06Z</time>
      </trkpt>
      <trkpt lat="48.686125" lon="-1.500443">
        <ele>7.222</ele>
        <time>2026-08-21T15:19:08Z</time>
      </trkpt>
      <trkpt lat="48.686117" lon="-1.500459">
        <ele>7.239</ele>
        <time>2026-08-21T15:19:09Z</time>
      </trkpt>
      <trkpt lat="48.686111" lon="-1.500475">
        <ele>7.310</ele>
        <time>2026-08-21T15:19:10Z</time>
      </trkpt>
      <trkpt lat="48.686107" lon="-1.500487">
        <ele>7.334</ele>
        <time>2026-08-21T15:19:11Z</time>
      </trkpt>
      <trkpt lat="48.686095" lon="-1.500510">
        <ele>7.371</ele>
        <time>2026-08-21T15:19:13Z</time>
      </trkpt>
      <trkpt lat="48.686087" lon="-1.500525">
        <ele>7.336</ele>
        <time>2026-08-21T15:19:14Z</time>
      </trkpt>
      <trkpt lat="48.686081" lon="-1.500540">
        <ele>7.317</ele>
        <time>2026-08-21T15:19:15Z</time>
      </trkpt>
      <trkpt lat="48.686077" lon="-1.500555">
        <ele>7.418</ele>
        <time>2026-08-21T15:19:16Z</time>
      </trkpt>
      <trkpt lat="48.686079" lon="-1.500582">
        <ele>7.409</ele>
        <time>2026-08-21T15:19:18Z</time>
      </trkpt>
      <trkpt lat="48.686076" lon="-1.500596">
        <ele>7.425</ele>
        <time>2026-08-21T15:19:19Z</time>
      </trkpt>
      <trkpt lat="48.686070" lon="-1.500606">
        <ele>7.441</ele>
        <time>2026-08-21T15:19:20Z</time>
      </trkpt>
      <trkpt lat="48.686062" lon="-1.500617">
        <ele>7.464</ele>
        <time>2026-08-21T15:19:21Z</time>
      </trkpt>
      <trkpt lat="48.686053" lon="-1.500624">
        <ele>7.455</ele>
        <time>2026-08-21T15:19:22Z</time>
      </trkpt>
      <trkpt lat="48.686044" lon="-1.500636">
        <ele>7.488</ele>
        <time>2026-08-21T15:19:24Z</time>
      </trkpt>
      <trkpt lat="48.686034" lon="-1.500648">
        <ele>7.535</ele>
        <time>2026-08-21T15:19:29Z</time>
      </trkpt>
      <trkpt lat="48.686030" lon="-1.500665">
        <ele>7.546</ele>
        <time>2026-08-21T15:19:30Z</time>
      </trkpt>
      <trkpt lat="48.686022" lon="-1.500684">
        <ele>7.550</ele>
        <time>2026-08-21T15:19:31Z</time>
      </trkpt>
      <trkpt lat="48.686014" lon="-1.500693">
        <ele>7.547</ele>
        <time>2026-08-21T15:19:32Z</time>
      </trkpt>
      <trkpt lat="48.686007" lon="-1.500709">
        <ele>7.656</ele>
        <time>2026-08-21T15:19:33Z</time>
      </trkpt>
      <trkpt lat="48.685997" lon="-1.500722">
        <ele>7.659</ele>
        <time>2026-08-21T15:19:34Z</time>
      </trkpt>
      <trkpt lat="48.685990" lon="-1.500736">
        <ele>7.614</ele>
        <time>2026-08-21T15:19:35Z</time>
      </trkpt>
      <trkpt lat="48.685986" lon="-1.500749">
        <ele>7.709</ele>
        <time>2026-08-21T15:19:36Z</time>
      </trkpt>
      <trkpt lat="48.685982" lon="-1.500763">
        <ele>7.797</ele>
        <time>2026-08-21T15:19:38Z</time>
      </trkpt>
      <trkpt lat="48.685977" lon="-1.500785">
        <ele>7.873</ele>
        <time>2026-08-21T15:19:40Z</time>
      </trkpt>
      <trkpt lat="48.685972" lon="-1.500797">
        <ele>7.816</ele>
        <time>2026-08-21T15:19:42Z</time>
      </trkpt>
      <trkpt lat="48.685964" lon="-1.500805">
        <ele>7.837</ele>
        <time>2026-08-21T15:20:02Z</time>
      </trkpt>
      <trkpt lat="48.685957" lon="-1.500823">
        <ele>7.970</ele>
        <time>2026-08-21T15:20:24Z</time>
      </trkpt>
      <trkpt lat="48.685950" lon="-1.500838">
        <ele>7.977</ele>
        <time>2026-08-21T15:20:25Z</time>
      </trkpt>
      <trkpt lat="48.685942" lon="-1.500851">
        <ele>8.218</ele>
        <time>2026-08-21T15:20:26Z</time>
      </trkpt>
      <trkpt lat="48.685934" lon="-1.500869">
        <ele>8.532</ele>
        <time>2026-08-21T15:20:27Z</time>
      </trkpt>
      <trkpt lat="48.685926" lon="-1.500879">
        <ele>8.589</ele>
        <time>2026-08-21T15:20:28Z</time>
      </trkpt>
      <trkpt lat="48.685917" lon="-1.500892">
        <ele>8.515</ele>
        <time>2026-08-21T15:20:29Z</time>
      </trkpt>
      <trkpt lat="48.685910" lon="-1.500904">
        <ele>8.565</ele>
        <time>2026-08-21T15:20:30Z</time>
      </trkpt>
      <trkpt lat="48.685900" lon="-1.500924">
        <ele>8.511</ele>
        <time>2026-08-21T15:20:32Z</time>
      </trkpt>
      <trkpt lat="48.685893" lon="-1.500936">
        <ele>8.509</ele>
        <time>2026-08-21T15:20:33Z</time>
      </trkpt>
      <trkpt lat="48.685877" lon="-1.500945">
        <ele>8.553</ele>
        <time>2026-08-21T15:20:35Z</time>
      </trkpt>
      <trkpt lat="48.685869" lon="-1.500951">
        <ele>8.519</ele>
        <time>2026-08-21T15:20:36Z</time>
      </trkpt>
      <trkpt lat="48.685858" lon="-1.500956">
        <ele>8.522</ele>
        <time>2026-08-21T15:20:37Z</time>
      </trkpt>
      <trkpt lat="48.685850" lon="-1.500966">
        <ele>8.593</ele>
        <time>2026-08-21T15:20:38Z</time>
      </trkpt>
      <trkpt lat="48.685836" lon="-1.500980">
        <ele>8.656</ele>
        <time>2026-08-21T15:20:40Z</time>
      </trkpt>
      <trkpt lat="48.685828" lon="-1.500992">
        <ele>8.623</ele>
        <time>2026-08-21T15:20:41Z</time>
      </trkpt>
      <trkpt lat="48.685810" lon="-1.501004">
        <ele>8.634</ele>
        <time>2026-08-21T15:20:43Z</time>
      </trkpt>
      <trkpt lat="48.685800" lon="-1.501016">
        <ele>8.638</ele>
        <time>2026-08-21T15:20:44Z</time>
      </trkpt>
      <trkpt lat="48.685782" lon="-1.501022">
        <ele>8.685</ele>
        <time>2026-08-21T15:20:46Z</time>
      </trkpt>
      <trkpt lat="48.685770" lon="-1.501027">
        <ele>8.793</ele>
        <time>2026-08-21T15:20:47Z</time>
      </trkpt>
      <trkpt lat="48.685758" lon="-1.501030">
        <ele>8.765</ele>
        <time>2026-08-21T15:20:48Z</time>
      </trkpt>
      <trkpt lat="48.685745" lon="-1.501032">
        <ele>8.721</ele>
        <time>2026-08-21T15:20:49Z</time>
      </trkpt>
      <trkpt lat="48.685735" lon="-1.501036">
        <ele>8.609</ele>
        <time>2026-08-21T15:20:50Z</time>
      </trkpt>
      <trkpt lat="48.685723" lon="-1.501053">
        <ele>8.611</ele>
        <time>2026-08-21T15:20:52Z</time>
      </trkpt>
      <trkpt lat="48.685708" lon="-1.501067">
        <ele>8.527</ele>
        <time>2026-08-21T15:20:54Z</time>
      </trkpt>
      <trkpt lat="48.685697" lon="-1.501072">
        <ele>8.530</ele>
        <time>2026-08-21T15:20:55Z</time>
      </trkpt>
      <trkpt lat="48.685683" lon="-1.501084">
        <ele>8.571</ele>
        <time>2026-08-21T15:20:57Z</time>
      </trkpt>
      <trkpt lat="48.685665" lon="-1.501090">
        <ele>8.584</ele>
        <time>2026-08-21T15:20:59Z</time>
      </trkpt>
      <trkpt lat="48.685651" lon="-1.501103">
        <ele>8.471</ele>
        <time>2026-08-21T15:21:00Z</time>
      </trkpt>
      <trkpt lat="48.685639" lon="-1.501113">
        <ele>8.432</ele>
        <time>2026-08-21T15:21:01Z</time>
      </trkpt>
      <trkpt lat="48.685623" lon="-1.501122">
        <ele>8.376</ele>
        <time>2026-08-21T15:21:03Z</time>
      </trkpt>
      <trkpt lat="48.685605" lon="-1.501135">
        <ele>8.313</ele>
        <time>2026-08-21T15:21:05Z</time>
      </trkpt>
      <trkpt lat="48.685595" lon="-1.501146">
        <ele>8.334</ele>
        <time>2026-08-21T15:21:06Z</time>
      </trkpt>
      <trkpt lat="48.685583" lon="-1.501154">
        <ele>8.355</ele>
        <time>2026-08-21T15:21:07Z</time>
      </trkpt>
      <trkpt lat="48.685574" lon="-1.501158">
        <ele>8.310</ele>
        <time>2026-08-21T15:21:08Z</time>
      </trkpt>
      <trkpt lat="48.685564" lon="-1.501159">
        <ele>8.209</ele>
        <time>2026-08-21T15:21:09Z</time>
      </trkpt>
      <trkpt lat="48.685555" lon="-1.501163">
        <ele>8.115</ele>
        <time>2026-08-21T15:21:10Z</time>
      </trkpt>
      <trkpt lat="48.685545" lon="-1.501167">
        <ele>8.151</ele>
        <time>2026-08-21T15:21:11Z</time>
      </trkpt>
      <trkpt lat="48.685532" lon="-1.501173">
        <ele>8.194</ele>
        <time>2026-08-21T15:21:12Z</time>
      </trkpt>
      <trkpt lat="48.685522" lon="-1.501182">
        <ele>8.125</ele>
        <time>2026-08-21T15:21:13Z</time>
      </trkpt>
      <trkpt lat="48.685508" lon="-1.501190">
        <ele>8.198</ele>
        <time>2026-08-21T15:21:15Z</time>
      </trkpt>
      <trkpt lat="48.685491" lon="-1.501201">
        <ele>8.115</ele>
        <time>2026-08-21T15:21:17Z</time>
      </trkpt>
      <trkpt lat="48.685481" lon="-1.501212">
        <ele>8.146</ele>
        <time>2026-08-21T15:21:18Z</time>
      </trkpt>
      <trkpt lat="48.685470" lon="-1.501222">
        <ele>8.030</ele>
        <time>2026-08-21T15:21:19Z</time>
      </trkpt>
      <trkpt lat="48.685459" lon="-1.501229">
        <ele>7.997</ele>
        <time>2026-08-21T15:21:20Z</time>
      </trkpt>
      <trkpt lat="48.685449" lon="-1.501234">
        <ele>7.979</ele>
        <time>2026-08-21T15:21:21Z</time>
      </trkpt>
      <trkpt lat="48.685437" lon="-1.501238">
        <ele>7.905</ele>
        <time>2026-08-21T15:21:22Z</time>
      </trkpt>
      <trkpt lat="48.685428" lon="-1.501246">
        <ele>7.825</ele>
        <time>2026-08-21T15:21:23Z</time>
      </trkpt>
      <trkpt lat="48.685417" lon="-1.501255">
        <ele>7.809</ele>
        <time>2026-08-21T15:21:24Z</time>
      </trkpt>
      <trkpt lat="48.685406" lon="-1.501261">
        <ele>7.789</ele>
        <time>2026-08-21T15:21:25Z</time>
      </trkpt>
      <trkpt lat="48.685396" lon="-1.501267">
        <ele>7.575</ele>
        <time>2026-08-21T15:21:26Z</time>
      </trkpt>
      <trkpt lat="48.685379" lon="-1.501272">
        <ele>7.328</ele>
        <time>2026-08-21T15:21:28Z</time>
      </trkpt>
      <trkpt lat="48.685369" lon="-1.501277">
        <ele>7.189</ele>
        <time>2026-08-21T15:21:29Z</time>
      </trkpt>
      <trkpt lat="48.685357" lon="-1.501283">
        <ele>7.132</ele>
        <time>2026-08-21T15:21:30Z</time>
      </trkpt>
      <trkpt lat="48.685346" lon="-1.501290">
        <ele>7.029</ele>
        <time>2026-08-21T15:21:31Z</time>
      </trkpt>
      <trkpt lat="48.685334" lon="-1.501297">
        <ele>7.080</ele>
        <time>2026-08-21T15:21:32Z</time>
      </trkpt>
      <trkpt lat="48.685325" lon="-1.501302">
        <ele>7.024</ele>
        <time>2026-08-21T15:21:33Z</time>
      </trkpt>
      <trkpt lat="48.685309" lon="-1.501313">
        <ele>7.091</ele>
        <time>2026-08-21T15:21:35Z</time>
      </trkpt>
      <trkpt lat="48.685300" lon="-1.501320">
        <ele>7.052</ele>
        <time>2026-08-21T15:21:36Z</time>
      </trkpt>
      <trkpt lat="48.685288" lon="-1.501329">
        <ele>6.953</ele>
        <time>2026-08-21T15:21:37Z</time>
      </trkpt>
      <trkpt lat="48.685277" lon="-1.501336">
        <ele>6.908</ele>
        <time>2026-08-21T15:21:38Z</time>
      </trkpt>
      <trkpt lat="48.685265" lon="-1.501342">
        <ele>6.909</ele>
        <time>2026-08-21T15:21:40Z</time>
      </trkpt>
      <trkpt lat="48.685249" lon="-1.501357">
        <ele>6.947</ele>
        <time>2026-08-21T15:21:42Z</time>
      </trkpt>
      <trkpt lat="48.685234" lon="-1.501367">
        <ele>6.933</ele>
        <time>2026-08-21T15:21:43Z</time>
      </trkpt>
      <trkpt lat="48.685222" lon="-1.501371">
        <ele>6.836</ele>
        <time>2026-08-21T15:21:44Z</time>
      </trkpt>
      <trkpt lat="48.685210" lon="-1.501379">
        <ele>6.877</ele>
        <time>2026-08-21T15:21:45Z</time>
      </trkpt>
      <trkpt lat="48.685200" lon="-1.501385">
        <ele>6.890</ele>
        <time>2026-08-21T15:21:46Z</time>
      </trkpt>
      <trkpt lat="48.685179" lon="-1.501390">
        <ele>6.877</ele>
        <time>2026-08-21T15:21:48Z</time>
      </trkpt>
      <trkpt lat="48.685168" lon="-1.501398">
        <ele>6.858</ele>
        <time>2026-08-21T15:21:49Z</time>
      </trkpt>
      <trkpt lat="48.685159" lon="-1.501404">
        <ele>6.822</ele>
        <time>2026-08-21T15:21:50Z</time>
      </trkpt>
      <trkpt lat="48.685149" lon="-1.501412">
        <ele>6.889</ele>
        <time>2026-08-21T15:21:51Z</time>
      </trkpt>
      <trkpt lat="48.685138" lon="-1.501416">
        <ele>6.851</ele>
        <time>2026-08-21T15:21:52Z</time>
      </trkpt>
      <trkpt lat="48.685129" lon="-1.501420">
        <ele>6.901</ele>
        <time>2026-08-21T15:21:53Z</time>
      </trkpt>
      <trkpt lat="48.685120" lon="-1.501422">
        <ele>6.911</ele>
        <time>2026-08-21T15:21:54Z</time>
      </trkpt>
      <trkpt lat="48.685110" lon="-1.501429">
        <ele>6.909</ele>
        <time>2026-08-21T15:21:55Z</time>
      </trkpt>
      <trkpt lat="48.685096" lon="-1.501439">
        <ele>6.917</ele>
        <time>2026-08-21T15:21:56Z</time>
      </trkpt>
      <trkpt lat="48.685082" lon="-1.501446">
        <ele>6.943</ele>
        <time>2026-08-21T15:21:57Z</time>
      </trkpt>
      <trkpt lat="48.685071" lon="-1.501451">
        <ele>6.946</ele>
        <time>2026-08-21T15:21:58Z</time>
      </trkpt>
      <trkpt lat="48.685051" lon="-1.501454">
        <ele>6.997</ele>
        <time>2026-08-21T15:22:00Z</time>
      </trkpt>
      <trkpt lat="48.685040" lon="-1.501462">
        <ele>6.940</ele>
        <time>2026-08-21T15:22:01Z</time>
      </trkpt>
      <trkpt lat="48.685029" lon="-1.501470">
        <ele>6.997</ele>
        <time>2026-08-21T15:22:02Z</time>
      </trkpt>
      <trkpt lat="48.685019" lon="-1.501477">
        <ele>6.958</ele>
        <time>2026-08-21T15:22:03Z</time>
      </trkpt>
      <trkpt lat="48.685003" lon="-1.501481">
        <ele>6.862</ele>
        <time>2026-08-21T15:22:05Z</time>
      </trkpt>
      <trkpt lat="48.684992" lon="-1.501484">
        <ele>6.829</ele>
        <time>2026-08-21T15:22:06Z</time>
      </trkpt>
      <trkpt lat="48.684981" lon="-1.501491">
        <ele>6.834</ele>
        <time>2026-08-21T15:22:07Z</time>
      </trkpt>
      <trkpt lat="48.684970" lon="-1.501498">
        <ele>6.855</ele>
        <time>2026-08-21T15:22:08Z</time>
      </trkpt>
      <trkpt lat="48.684960" lon="-1.501504">
        <ele>6.810</ele>
        <time>2026-08-21T15:22:09Z</time>
      </trkpt>
      <trkpt lat="48.684942" lon="-1.501504">
        <ele>6.909</ele>
        <time>2026-08-21T15:22:11Z</time>
      </trkpt>
      <trkpt lat="48.684930" lon="-1.501505">
        <ele>6.995</ele>
        <time>2026-08-21T15:22:12Z</time>
      </trkpt>
      <trkpt lat="48.684918" lon="-1.501510">
        <ele>6.911</ele>
        <time>2026-08-21T15:22:13Z</time>
      </trkpt>
      <trkpt lat="48.684902" lon="-1.501512">
        <ele>6.934</ele>
        <time>2026-08-21T15:22:14Z</time>
      </trkpt>
      <trkpt lat="48.684893" lon="-1.501513">
        <ele>6.955</ele>
        <time>2026-08-21T15:22:15Z</time>
      </trkpt>
      <trkpt lat="48.684884" lon="-1.501514">
        <ele>6.978</ele>
        <time>2026-08-21T15:22:16Z</time>
      </trkpt>
      <trkpt lat="48.684873" lon="-1.501517">
        <ele>6.975</ele>
        <time>2026-08-21T15:22:17Z</time>
      </trkpt>
      <trkpt lat="48.684861" lon="-1.501524">
        <ele>6.986</ele>
        <time>2026-08-21T15:22:18Z</time>
      </trkpt>
      <trkpt lat="48.684847" lon="-1.501528">
        <ele>6.930</ele>
        <time>2026-08-21T15:22:19Z</time>
      </trkpt>
      <trkpt lat="48.684835" lon="-1.501529">
        <ele>6.967</ele>
        <time>2026-08-21T15:22:20Z</time>
      </trkpt>
      <trkpt lat="48.684826" lon="-1.501534">
        <ele>6.933</ele>
        <time>2026-08-21T15:22:21Z</time>
      </trkpt>
      <trkpt lat="48.684814" lon="-1.501539">
        <ele>6.923</ele>
        <time>2026-08-21T15:22:23Z</time>
      </trkpt>
      <trkpt lat="48.684801" lon="-1.501539">
        <ele>6.915</ele>
        <time>2026-08-21T15:22:24Z</time>
      </trkpt>
      <trkpt lat="48.684788" lon="-1.501542">
        <ele>6.909</ele>
        <time>2026-08-21T15:22:25Z</time>
      </trkpt>
      <trkpt lat="48.684777" lon="-1.501547">
        <ele>6.935</ele>
        <time>2026-08-21T15:22:26Z</time>
      </trkpt>
      <trkpt lat="48.684761" lon="-1.501555">
        <ele>6.971</ele>
        <time>2026-08-21T15:22:28Z</time>
      </trkpt>
      <trkpt lat="48.684752" lon="-1.501556">
        <ele>6.894</ele>
        <time>2026-08-21T15:22:29Z</time>
      </trkpt>
      <trkpt lat="48.684742" lon="-1.501561">
        <ele>6.875</ele>
        <time>2026-08-21T15:22:30Z</time>
      </trkpt>
      <trkpt lat="48.684726" lon="-1.501568">
        <ele>6.878</ele>
        <time>2026-08-21T15:22:32Z</time>
      </trkpt>
      <trkpt lat="48.684717" lon="-1.501575">
        <ele>6.885</ele>
        <time>2026-08-21T15:22:33Z</time>
      </trkpt>
      <trkpt lat="48.684707" lon="-1.501587">
        <ele>6.876</ele>
        <time>2026-08-21T15:22:34Z</time>
      </trkpt>
      <trkpt lat="48.684699" lon="-1.501598">
        <ele>6.890</ele>
        <time>2026-08-21T15:22:35Z</time>
      </trkpt>
      <trkpt lat="48.684684" lon="-1.501608">
        <ele>6.827</ele>
        <time>2026-08-21T15:22:37Z</time>
      </trkpt>
      <trkpt lat="48.684673" lon="-1.501614">
        <ele>6.893</ele>
        <time>2026-08-21T15:22:38Z</time>
      </trkpt>
      <trkpt lat="48.684660" lon="-1.501617">
        <ele>6.865</ele>
        <time>2026-08-21T15:22:39Z</time>
      </trkpt>
      <trkpt lat="48.684648" lon="-1.501621">
        <ele>6.821</ele>
        <time>2026-08-21T15:22:40Z</time>
      </trkpt>
      <trkpt lat="48.684640" lon="-1.501627">
        <ele>6.809</ele>
        <time>2026-08-21T15:22:41Z</time>
      </trkpt>
      <trkpt lat="48.684632" lon="-1.501632">
        <ele>6.811</ele>
        <time>2026-08-21T15:22:42Z</time>
      </trkpt>
      <trkpt lat="48.684623" lon="-1.501638">
        <ele>6.887</ele>
        <time>2026-08-21T15:22:43Z</time>
      </trkpt>
      <trkpt lat="48.684612" lon="-1.501647">
        <ele>6.760</ele>
        <time>2026-08-21T15:22:44Z</time>
      </trkpt>
      <trkpt lat="48.684603" lon="-1.501655">
        <ele>6.721</ele>
        <time>2026-08-21T15:22:45Z</time>
      </trkpt>
      <trkpt lat="48.684589" lon="-1.501654">
        <ele>6.794</ele>
        <time>2026-08-21T15:22:47Z</time>
      </trkpt>
      <trkpt lat="48.684572" lon="-1.501660">
        <ele>6.731</ele>
        <time>2026-08-21T15:22:49Z</time>
      </trkpt>
      <trkpt lat="48.684561" lon="-1.501667">
        <ele>6.732</ele>
        <time>2026-08-21T15:22:50Z</time>
      </trkpt>
      <trkpt lat="48.684551" lon="-1.501673">
        <ele>6.636</ele>
        <time>2026-08-21T15:22:51Z</time>
      </trkpt>
      <trkpt lat="48.684543" lon="-1.501680">
        <ele>6.673</ele>
        <time>2026-08-21T15:22:52Z</time>
      </trkpt>
      <trkpt lat="48.684525" lon="-1.501692">
        <ele>6.694</ele>
        <time>2026-08-21T15:22:54Z</time>
      </trkpt>
      <trkpt lat="48.684517" lon="-1.501698">
        <ele>6.657</ele>
        <time>2026-08-21T15:22:55Z</time>
      </trkpt>
      <trkpt lat="48.684502" lon="-1.501706">
        <ele>6.622</ele>
        <time>2026-08-21T15:22:57Z</time>
      </trkpt>
      <trkpt lat="48.684493" lon="-1.501713">
        <ele>6.609</ele>
        <time>2026-08-21T15:22:58Z</time>
      </trkpt>
      <trkpt lat="48.684483" lon="-1.501718">
        <ele>6.641</ele>
        <time>2026-08-21T15:22:59Z</time>
      </trkpt>
      <trkpt lat="48.684466" lon="-1.501721">
        <ele>6.687</ele>
        <time>2026-08-21T15:23:01Z</time>
      </trkpt>
      <trkpt lat="48.684457" lon="-1.501725">
        <ele>6.680</ele>
        <time>2026-08-21T15:23:02Z</time>
      </trkpt>
      <trkpt lat="48.684446" lon="-1.501735">
        <ele>6.631</ele>
        <time>2026-08-21T15:23:03Z</time>
      </trkpt>
      <trkpt lat="48.684435" lon="-1.501746">
        <ele>6.514</ele>
        <time>2026-08-21T15:23:04Z</time>
      </trkpt>
      <trkpt lat="48.684422" lon="-1.501751">
        <ele>6.571</ele>
        <time>2026-08-21T15:23:06Z</time>
      </trkpt>
      <trkpt lat="48.684401" lon="-1.501748">
        <ele>6.562</ele>
        <time>2026-08-21T15:23:08Z</time>
      </trkpt>
      <trkpt lat="48.684388" lon="-1.501747">
        <ele>6.566</ele>
        <time>2026-08-21T15:23:09Z</time>
      </trkpt>
      <trkpt lat="48.684375" lon="-1.501755">
        <ele>6.493</ele>
        <time>2026-08-21T15:23:10Z</time>
      </trkpt>
      <trkpt lat="48.684364" lon="-1.501760">
        <ele>6.496</ele>
        <time>2026-08-21T15:23:11Z</time>
      </trkpt>
      <trkpt lat="48.684349" lon="-1.501772">
        <ele>6.431</ele>
        <time>2026-08-21T15:23:13Z</time>
      </trkpt>
      <trkpt lat="48.684337" lon="-1.501774">
        <ele>6.424</ele>
        <time>2026-08-21T15:23:14Z</time>
      </trkpt>
      <trkpt lat="48.684322" lon="-1.501777">
        <ele>6.309</ele>
        <time>2026-08-21T15:23:15Z</time>
      </trkpt>
      <trkpt lat="48.684308" lon="-1.501780">
        <ele>6.341</ele>
        <time>2026-08-21T15:23:16Z</time>
      </trkpt>
      <trkpt lat="48.684296" lon="-1.501782">
        <ele>6.347</ele>
        <time>2026-08-21T15:23:17Z</time>
      </trkpt>
      <trkpt lat="48.684287" lon="-1.501786">
        <ele>6.230</ele>
        <time>2026-08-21T15:23:18Z</time>
      </trkpt>
      <trkpt lat="48.684277" lon="-1.501786">
        <ele>6.171</ele>
        <time>2026-08-21T15:23:19Z</time>
      </trkpt>
      <trkpt lat="48.684268" lon="-1.501786">
        <ele>6.114</ele>
        <time>2026-08-21T15:23:20Z</time>
      </trkpt>
      <trkpt lat="48.684255" lon="-1.501790">
        <ele>6.171</ele>
        <time>2026-08-21T15:23:21Z</time>
      </trkpt>
      <trkpt lat="48.684241" lon="-1.501788">
        <ele>6.112</ele>
        <time>2026-08-21T15:23:22Z</time>
      </trkpt>
      <trkpt lat="48.684228" lon="-1.501793">
        <ele>6.196</ele>
        <time>2026-08-21T15:23:23Z</time>
      </trkpt>
      <trkpt lat="48.684216" lon="-1.501793">
        <ele>6.083</ele>
        <time>2026-08-21T15:23:24Z</time>
      </trkpt>
      <trkpt lat="48.684205" lon="-1.501797">
        <ele>6.062</ele>
        <time>2026-08-21T15:23:26Z</time>
      </trkpt>
      <trkpt lat="48.684211" lon="-1.501786">
        <ele>6.083</ele>
        <time>2026-08-21T15:23:36Z</time>
      </trkpt>
      <trkpt lat="48.684195" lon="-1.501793">
        <ele>5.911</ele>
        <time>2026-08-21T15:23:41Z</time>
      </trkpt>
      <trkpt lat="48.684186" lon="-1.501789">
        <ele>5.909</ele>
        <time>2026-08-21T15:23:42Z</time>
      </trkpt>
      <trkpt lat="48.684177" lon="-1.501782">
        <ele>5.918</ele>
        <time>2026-08-21T15:23:43Z</time>
      </trkpt>
      <trkpt lat="48.684168" lon="-1.501779">
        <ele>5.984</ele>
        <time>2026-08-21T15:23:44Z</time>
      </trkpt>
      <trkpt lat="48.684157" lon="-1.501784">
        <ele>5.957</ele>
        <time>2026-08-21T15:23:45Z</time>
      </trkpt>
      <trkpt lat="48.684142" lon="-1.501790">
        <ele>5.938</ele>
        <time>2026-08-21T15:23:46Z</time>
      </trkpt>
      <trkpt lat="48.684130" lon="-1.501788">
        <ele>5.841</ele>
        <time>2026-08-21T15:23:47Z</time>
      </trkpt>
      <trkpt lat="48.684117" lon="-1.501788">
        <ele>5.868</ele>
        <time>2026-08-21T15:23:48Z</time>
      </trkpt>
      <trkpt lat="48.684106" lon="-1.501792">
        <ele>5.899</ele>
        <time>2026-08-21T15:23:49Z</time>
      </trkpt>
      <trkpt lat="48.684095" lon="-1.501788">
        <ele>5.863</ele>
        <time>2026-08-21T15:23:50Z</time>
      </trkpt>
      <trkpt lat="48.684079" lon="-1.501784">
        <ele>5.840</ele>
        <time>2026-08-21T15:23:51Z</time>
      </trkpt>
      <trkpt lat="48.684067" lon="-1.501789">
        <ele>5.836</ele>
        <time>2026-08-21T15:23:52Z</time>
      </trkpt>
      <trkpt lat="48.684057" lon="-1.501792">
        <ele>5.617</ele>
        <time>2026-08-21T15:23:53Z</time>
      </trkpt>
      <trkpt lat="48.684043" lon="-1.501791">
        <ele>5.418</ele>
        <time>2026-08-21T15:23:54Z</time>
      </trkpt>
      <trkpt lat="48.684031" lon="-1.501791">
        <ele>5.409</ele>
        <time>2026-08-21T15:23:55Z</time>
      </trkpt>
      <trkpt lat="48.684018" lon="-1.501792">
        <ele>5.485</ele>
        <time>2026-08-21T15:23:56Z</time>
      </trkpt>
      <trkpt lat="48.684007" lon="-1.501792">
        <ele>5.491</ele>
        <time>2026-08-21T15:23:57Z</time>
      </trkpt>
      <trkpt lat="48.683992" lon="-1.501792">
        <ele>5.454</ele>
        <time>2026-08-21T15:23:58Z</time>
      </trkpt>
      <trkpt lat="48.683978" lon="-1.501792">
        <ele>5.495</ele>
        <time>2026-08-21T15:23:59Z</time>
      </trkpt>
      <trkpt lat="48.683967" lon="-1.501791">
        <ele>5.478</ele>
        <time>2026-08-21T15:24:00Z</time>
      </trkpt>
      <trkpt lat="48.683954" lon="-1.501792">
        <ele>5.455</ele>
        <time>2026-08-21T15:24:01Z</time>
      </trkpt>
      <trkpt lat="48.683944" lon="-1.501795">
        <ele>5.436</ele>
        <time>2026-08-21T15:24:02Z</time>
      </trkpt>
      <trkpt lat="48.683934" lon="-1.501795">
        <ele>5.490</ele>
        <time>2026-08-21T15:24:03Z</time>
      </trkpt>
      <trkpt lat="48.683922" lon="-1.501797">
        <ele>5.437</ele>
        <time>2026-08-21T15:24:04Z</time>
      </trkpt>
      <trkpt lat="48.683912" lon="-1.501795">
        <ele>5.415</ele>
        <time>2026-08-21T15:24:05Z</time>
      </trkpt>
      <trkpt lat="48.683901" lon="-1.501793">
        <ele>5.465</ele>
        <time>2026-08-21T15:24:06Z</time>
      </trkpt>
      <trkpt lat="48.683891" lon="-1.501795">
        <ele>5.411</ele>
        <time>2026-08-21T15:24:07Z</time>
      </trkpt>
      <trkpt lat="48.683877" lon="-1.501792">
        <ele>5.409</ele>
        <time>2026-08-21T15:24:08Z</time>
      </trkpt>
      <trkpt lat="48.683863" lon="-1.501789">
        <ele>5.433</ele>
        <time>2026-08-21T15:24:09Z</time>
      </trkpt>
      <trkpt lat="48.683851" lon="-1.501786">
        <ele>5.489</ele>
        <time>2026-08-21T15:24:10Z</time>
      </trkpt>
      <trkpt lat="48.683838" lon="-1.501785">
        <ele>5.442</ele>
        <time>2026-08-21T15:24:11Z</time>
      </trkpt>
      <trkpt lat="48.683823" lon="-1.501786">
        <ele>5.443</ele>
        <time>2026-08-21T15:24:12Z</time>
      </trkpt>
      <trkpt lat="48.683810" lon="-1.501790">
        <ele>5.466</ele>
        <time>2026-08-21T15:24:13Z</time>
      </trkpt>
      <trkpt lat="48.683799" lon="-1.501792">
        <ele>5.493</ele>
        <time>2026-08-21T15:24:14Z</time>
      </trkpt>
      <trkpt lat="48.683790" lon="-1.501791">
        <ele>5.454</ele>
        <time>2026-08-21T15:24:15Z</time>
      </trkpt>
      <trkpt lat="48.683779" lon="-1.501786">
        <ele>5.438</ele>
        <time>2026-08-21T15:24:16Z</time>
      </trkpt>
      <trkpt lat="48.683765" lon="-1.501784">
        <ele>5.425</ele>
        <time>2026-08-21T15:24:17Z</time>
      </trkpt>
      <trkpt lat="48.683754" lon="-1.501782">
        <ele>5.437</ele>
        <time>2026-08-21T15:24:18Z</time>
      </trkpt>
      <trkpt lat="48.683743" lon="-1.501780">
        <ele>5.449</ele>
        <time>2026-08-21T15:24:19Z</time>
      </trkpt>
      <trkpt lat="48.683729" lon="-1.501772">
        <ele>5.313</ele>
        <time>2026-08-21T15:24:20Z</time>
      </trkpt>
      <trkpt lat="48.683718" lon="-1.501769">
        <ele>5.309</ele>
        <time>2026-08-21T15:24:21Z</time>
      </trkpt>
      <trkpt lat="48.683705" lon="-1.501774">
        <ele>5.345</ele>
        <time>2026-08-21T15:24:22Z</time>
      </trkpt>
      <trkpt lat="48.683692" lon="-1.501777">
        <ele>5.321</ele>
        <time>2026-08-21T15:24:23Z</time>
      </trkpt>
      <trkpt lat="48.683679" lon="-1.501781">
        <ele>5.334</ele>
        <time>2026-08-21T15:24:24Z</time>
      </trkpt>
      <trkpt lat="48.683662" lon="-1.501781">
        <ele>5.335</ele>
        <time>2026-08-21T15:24:25Z</time>
      </trkpt>
      <trkpt lat="48.683648" lon="-1.501778">
        <ele>5.158</ele>
        <time>2026-08-21T15:24:26Z</time>
      </trkpt>
      <trkpt lat="48.683636" lon="-1.501772">
        <ele>4.995</ele>
        <time>2026-08-21T15:24:27Z</time>
      </trkpt>
      <trkpt lat="48.683627" lon="-1.501768">
        <ele>4.866</ele>
        <time>2026-08-21T15:24:28Z</time>
      </trkpt>
      <trkpt lat="48.683618" lon="-1.501763">
        <ele>4.710</ele>
        <time>2026-08-21T15:24:29Z</time>
      </trkpt>
      <trkpt lat="48.683608" lon="-1.501760">
        <ele>4.797</ele>
        <time>2026-08-21T15:24:30Z</time>
      </trkpt>
      <trkpt lat="48.683594" lon="-1.501760">
        <ele>4.768</ele>
        <time>2026-08-21T15:24:31Z</time>
      </trkpt>
      <trkpt lat="48.683577" lon="-1.501761">
        <ele>4.642</ele>
        <time>2026-08-21T15:24:32Z</time>
      </trkpt>
      <trkpt lat="48.683562" lon="-1.501763">
        <ele>4.626</ele>
        <time>2026-08-21T15:24:33Z</time>
      </trkpt>
      <trkpt lat="48.683549" lon="-1.501764">
        <ele>4.609</ele>
        <time>2026-08-21T15:24:34Z</time>
      </trkpt>
      <trkpt lat="48.683539" lon="-1.501765">
        <ele>4.538</ele>
        <time>2026-08-21T15:24:35Z</time>
      </trkpt>
      <trkpt lat="48.683529" lon="-1.501763">
        <ele>4.574</ele>
        <time>2026-08-21T15:24:36Z</time>
      </trkpt>
      <trkpt lat="48.683520" lon="-1.501760">
        <ele>4.567</ele>
        <time>2026-08-21T15:24:37Z</time>
      </trkpt>
      <trkpt lat="48.683508" lon="-1.501763">
        <ele>4.428</ele>
        <time>2026-08-21T15:24:38Z</time>
      </trkpt>
      <trkpt lat="48.683494" lon="-1.501759">
        <ele>4.431</ele>
        <time>2026-08-21T15:24:39Z</time>
      </trkpt>
      <trkpt lat="48.683476" lon="-1.501759">
        <ele>4.458</ele>
        <time>2026-08-21T15:24:40Z</time>
      </trkpt>
      <trkpt lat="48.683461" lon="-1.501756">
        <ele>4.429</ele>
        <time>2026-08-21T15:24:41Z</time>
      </trkpt>
      <trkpt lat="48.683445" lon="-1.501759">
        <ele>4.473</ele>
        <time>2026-08-21T15:24:42Z</time>
      </trkpt>
      <trkpt lat="48.683433" lon="-1.501759">
        <ele>4.480</ele>
        <time>2026-08-21T15:24:43Z</time>
      </trkpt>
      <trkpt lat="48.683423" lon="-1.501762">
        <ele>4.441</ele>
        <time>2026-08-21T15:24:44Z</time>
      </trkpt>
      <trkpt lat="48.683404" lon="-1.501758">
        <ele>4.481</ele>
        <time>2026-08-21T15:24:46Z</time>
      </trkpt>
      <trkpt lat="48.683389" lon="-1.501754">
        <ele>4.409</ele>
        <time>2026-08-21T15:24:47Z</time>
      </trkpt>
      <trkpt lat="48.683376" lon="-1.501751">
        <ele>4.409</ele>
        <time>2026-08-21T15:24:48Z</time>
      </trkpt>
      <trkpt lat="48.683359" lon="-1.501756">
        <ele>4.426</ele>
        <time>2026-08-21T15:24:49Z</time>
      </trkpt>
      <trkpt lat="48.683347" lon="-1.501760">
        <ele>4.492</ele>
        <time>2026-08-21T15:24:50Z</time>
      </trkpt>
      <trkpt lat="48.683337" lon="-1.501761">
        <ele>4.485</ele>
        <time>2026-08-21T15:24:51Z</time>
      </trkpt>
      <trkpt lat="48.683327" lon="-1.501759">
        <ele>4.466</ele>
        <time>2026-08-21T15:24:52Z</time>
      </trkpt>
      <trkpt lat="48.683316" lon="-1.501750">
        <ele>4.459</ele>
        <time>2026-08-21T15:24:53Z</time>
      </trkpt>
      <trkpt lat="48.683305" lon="-1.501744">
        <ele>4.446</ele>
        <time>2026-08-21T15:24:54Z</time>
      </trkpt>
      <trkpt lat="48.683290" lon="-1.501739">
        <ele>4.497</ele>
        <time>2026-08-21T15:24:55Z</time>
      </trkpt>
      <trkpt lat="48.683275" lon="-1.501742">
        <ele>4.451</ele>
        <time>2026-08-21T15:24:56Z</time>
      </trkpt>
      <trkpt lat="48.683262" lon="-1.501744">
        <ele>4.438</ele>
        <time>2026-08-21T15:24:57Z</time>
      </trkpt>
      <trkpt lat="48.683250" lon="-1.501746">
        <ele>4.356</ele>
        <time>2026-08-21T15:24:58Z</time>
      </trkpt>
      <trkpt lat="48.683241" lon="-1.501747">
        <ele>4.359</ele>
        <time>2026-08-21T15:24:59Z</time>
      </trkpt>
      <trkpt lat="48.683222" lon="-1.501744">
        <ele>4.314</ele>
        <time>2026-08-21T15:25:01Z</time>
      </trkpt>
      <trkpt lat="48.683210" lon="-1.501740">
        <ele>4.309</ele>
        <time>2026-08-21T15:25:02Z</time>
      </trkpt>
      <trkpt lat="48.683197" lon="-1.501739">
        <ele>4.337</ele>
        <time>2026-08-21T15:25:03Z</time>
      </trkpt>
      <trkpt lat="48.683181" lon="-1.501740">
        <ele>4.333</ele>
        <time>2026-08-21T15:25:04Z</time>
      </trkpt>
      <trkpt lat="48.683166" lon="-1.501741">
        <ele>4.316</ele>
        <time>2026-08-21T15:25:05Z</time>
      </trkpt>
      <trkpt lat="48.683150" lon="-1.501746">
        <ele>4.397</ele>
        <time>2026-08-21T15:25:06Z</time>
      </trkpt>
      <trkpt lat="48.683138" lon="-1.501751">
        <ele>4.350</ele>
        <time>2026-08-21T15:25:07Z</time>
      </trkpt>
      <trkpt lat="48.683128" lon="-1.501755">
        <ele>4.377</ele>
        <time>2026-08-21T15:25:08Z</time>
      </trkpt>
      <trkpt lat="48.683118" lon="-1.501756">
        <ele>4.368</ele>
        <time>2026-08-21T15:25:09Z</time>
      </trkpt>
      <trkpt lat="48.683109" lon="-1.501757">
        <ele>4.322</ele>
        <time>2026-08-21T15:25:10Z</time>
      </trkpt>
      <trkpt lat="48.683098" lon="-1.501761">
        <ele>4.379</ele>
        <time>2026-08-21T15:25:11Z</time>
      </trkpt>
      <trkpt lat="48.683077" lon="-1.501770">
        <ele>4.475</ele>
        <time>2026-08-21T15:25:13Z</time>
      </trkpt>
      <trkpt lat="48.683065" lon="-1.501779">
        <ele>4.428</ele>
        <time>2026-08-21T15:25:14Z</time>
      </trkpt>
      <trkpt lat="48.683048" lon="-1.501783">
        <ele>4.420</ele>
        <time>2026-08-21T15:25:16Z</time>
      </trkpt>
      <trkpt lat="48.683037" lon="-1.501779">
        <ele>4.409</ele>
        <time>2026-08-21T15:25:17Z</time>
      </trkpt>
      <trkpt lat="48.683027" lon="-1.501784">
        <ele>4.479</ele>
        <time>2026-08-21T15:25:18Z</time>
      </trkpt>
      <trkpt lat="48.683012" lon="-1.501793">
        <ele>4.445</ele>
        <time>2026-08-21T15:25:19Z</time>
      </trkpt>
      <trkpt lat="48.682998" lon="-1.501805">
        <ele>4.428</ele>
        <time>2026-08-21T15:25:20Z</time>
      </trkpt>
      <trkpt lat="48.682987" lon="-1.501812">
        <ele>4.489</ele>
        <time>2026-08-21T15:25:21Z</time>
      </trkpt>
      <trkpt lat="48.682976" lon="-1.501816">
        <ele>4.492</ele>
        <time>2026-08-21T15:25:22Z</time>
      </trkpt>
      <trkpt lat="48.682962" lon="-1.501825">
        <ele>4.449</ele>
        <time>2026-08-21T15:25:23Z</time>
      </trkpt>
      <trkpt lat="48.682951" lon="-1.501832">
        <ele>4.410</ele>
        <time>2026-08-21T15:25:24Z</time>
      </trkpt>
      <trkpt lat="48.682941" lon="-1.501838">
        <ele>4.584</ele>
        <time>2026-08-21T15:25:25Z</time>
      </trkpt>
      <trkpt lat="48.682931" lon="-1.501844">
        <ele>4.571</ele>
        <time>2026-08-21T15:25:26Z</time>
      </trkpt>
      <trkpt lat="48.682919" lon="-1.501852">
        <ele>4.544</ele>
        <time>2026-08-21T15:25:27Z</time>
      </trkpt>
      <trkpt lat="48.682908" lon="-1.501859">
        <ele>4.505</ele>
        <time>2026-08-21T15:25:28Z</time>
      </trkpt>
      <trkpt lat="48.682895" lon="-1.501865">
        <ele>4.515</ele>
        <time>2026-08-21T15:25:29Z</time>
      </trkpt>
      <trkpt lat="48.682883" lon="-1.501869">
        <ele>4.509</ele>
        <time>2026-08-21T15:25:30Z</time>
      </trkpt>
      <trkpt lat="48.682871" lon="-1.501873">
        <ele>4.536</ele>
        <time>2026-08-21T15:25:31Z</time>
      </trkpt>
      <trkpt lat="48.682859" lon="-1.501879">
        <ele>4.632</ele>
        <time>2026-08-21T15:25:32Z</time>
      </trkpt>
      <trkpt lat="48.682847" lon="-1.501891">
        <ele>4.645</ele>
        <time>2026-08-21T15:25:33Z</time>
      </trkpt>
      <trkpt lat="48.682839" lon="-1.501902">
        <ele>4.726</ele>
        <time>2026-08-21T15:25:34Z</time>
      </trkpt>
      <trkpt lat="48.682828" lon="-1.501910">
        <ele>4.739</ele>
        <time>2026-08-21T15:25:35Z</time>
      </trkpt>
      <trkpt lat="48.682816" lon="-1.501915">
        <ele>4.786</ele>
        <time>2026-08-21T15:25:36Z</time>
      </trkpt>
      <trkpt lat="48.682806" lon="-1.501921">
        <ele>4.877</ele>
        <time>2026-08-21T15:25:37Z</time>
      </trkpt>
      <trkpt lat="48.682796" lon="-1.501931">
        <ele>4.881</ele>
        <time>2026-08-21T15:25:38Z</time>
      </trkpt>
      <trkpt lat="48.682785" lon="-1.501939">
        <ele>4.938</ele>
        <time>2026-08-21T15:25:39Z</time>
      </trkpt>
      <trkpt lat="48.682773" lon="-1.501944">
        <ele>4.941</ele>
        <time>2026-08-21T15:25:40Z</time>
      </trkpt>
      <trkpt lat="48.682762" lon="-1.501951">
        <ele>4.981</ele>
        <time>2026-08-21T15:25:41Z</time>
      </trkpt>
      <trkpt lat="48.682752" lon="-1.501959">
        <ele>4.909</ele>
        <time>2026-08-21T15:25:42Z</time>
      </trkpt>
      <trkpt lat="48.682742" lon="-1.501970">
        <ele>4.909</ele>
        <time>2026-08-21T15:25:43Z</time>
      </trkpt>
      <trkpt lat="48.682732" lon="-1.501979">
        <ele>4.976</ele>
        <time>2026-08-21T15:25:44Z</time>
      </trkpt>
      <trkpt lat="48.682723" lon="-1.501991">
        <ele>4.922</ele>
        <time>2026-08-21T15:25:45Z</time>
      </trkpt>
      <trkpt lat="48.682713" lon="-1.501999">
        <ele>4.975</ele>
        <time>2026-08-21T15:25:46Z</time>
      </trkpt>
      <trkpt lat="48.682708" lon="-1.502013">
        <ele>4.996</ele>
        <time>2026-08-21T15:25:47Z</time>
      </trkpt>
      <trkpt lat="48.682701" lon="-1.502022">
        <ele>4.999</ele>
        <time>2026-08-21T15:25:48Z</time>
      </trkpt>
      <trkpt lat="48.682693" lon="-1.502030">
        <ele>4.986</ele>
        <time>2026-08-21T15:25:49Z</time>
      </trkpt>
      <trkpt lat="48.682683" lon="-1.502038">
        <ele>4.947</ele>
        <time>2026-08-21T15:25:50Z</time>
      </trkpt>
      <trkpt lat="48.682671" lon="-1.502047">
        <ele>4.981</ele>
        <time>2026-08-21T15:25:51Z</time>
      </trkpt>
      <trkpt lat="48.682658" lon="-1.502054">
        <ele>4.958</ele>
        <time>2026-08-21T15:25:52Z</time>
      </trkpt>
      <trkpt lat="48.682643" lon="-1.502059">
        <ele>4.976</ele>
        <time>2026-08-21T15:25:53Z</time>
      </trkpt>
      <trkpt lat="48.682630" lon="-1.502069">
        <ele>4.990</ele>
        <time>2026-08-21T15:25:54Z</time>
      </trkpt>
      <trkpt lat="48.682619" lon="-1.502077">
        <ele>4.819</ele>
        <time>2026-08-21T15:25:55Z</time>
      </trkpt>
      <trkpt lat="48.682608" lon="-1.502083">
        <ele>4.809</ele>
        <time>2026-08-21T15:25:56Z</time>
      </trkpt>
      <trkpt lat="48.682599" lon="-1.502091">
        <ele>4.879</ele>
        <time>2026-08-21T15:25:57Z</time>
      </trkpt>
      <trkpt lat="48.682589" lon="-1.502102">
        <ele>4.825</ele>
        <time>2026-08-21T15:25:58Z</time>
      </trkpt>
      <trkpt lat="48.682581" lon="-1.502115">
        <ele>4.838</ele>
        <time>2026-08-21T15:25:59Z</time>
      </trkpt>
      <trkpt lat="48.682573" lon="-1.502127">
        <ele>4.889</ele>
        <time>2026-08-21T15:26:00Z</time>
      </trkpt>
      <trkpt lat="48.682563" lon="-1.502134">
        <ele>4.812</ele>
        <time>2026-08-21T15:26:01Z</time>
      </trkpt>
      <trkpt lat="48.682552" lon="-1.502147">
        <ele>4.719</ele>
        <time>2026-08-21T15:26:02Z</time>
      </trkpt>
      <trkpt lat="48.682539" lon="-1.502159">
        <ele>4.720</ele>
        <time>2026-08-21T15:26:03Z</time>
      </trkpt>
      <trkpt lat="48.682528" lon="-1.502166">
        <ele>4.794</ele>
        <time>2026-08-21T15:26:04Z</time>
      </trkpt>
      <trkpt lat="48.682527" lon="-1.502181">
        <ele>4.751</ele>
        <time>2026-08-21T15:26:09Z</time>
      </trkpt>
      <trkpt lat="48.682518" lon="-1.502192">
        <ele>4.719</ele>
        <time>2026-08-21T15:26:10Z</time>
      </trkpt>
      <trkpt lat="48.682509" lon="-1.502204">
        <ele>4.709</ele>
        <time>2026-08-21T15:26:11Z</time>
      </trkpt>
      <trkpt lat="48.682497" lon="-1.502219">
        <ele>4.719</ele>
        <time>2026-08-21T15:26:12Z</time>
      </trkpt>
      <trkpt lat="48.682491" lon="-1.502232">
        <ele>4.709</ele>
        <time>2026-08-21T15:26:13Z</time>
      </trkpt>
      <trkpt lat="48.682485" lon="-1.502244">
        <ele>4.793</ele>
        <time>2026-08-21T15:26:14Z</time>
      </trkpt>
      <trkpt lat="48.682474" lon="-1.502257">
        <ele>4.739</ele>
        <time>2026-08-21T15:26:15Z</time>
      </trkpt>
      <trkpt lat="48.682464" lon="-1.502267">
        <ele>4.722</ele>
        <time>2026-08-21T15:26:16Z</time>
      </trkpt>
      <trkpt lat="48.682455" lon="-1.502277">
        <ele>4.753</ele>
        <time>2026-08-21T15:26:17Z</time>
      </trkpt>
      <trkpt lat="48.682446" lon="-1.502287">
        <ele>4.716</ele>
        <time>2026-08-21T15:26:18Z</time>
      </trkpt>
      <trkpt lat="48.682435" lon="-1.502297">
        <ele>4.753</ele>
        <time>2026-08-21T15:26:19Z</time>
      </trkpt>
      <trkpt lat="48.682423" lon="-1.502309">
        <ele>4.784</ele>
        <time>2026-08-21T15:26:20Z</time>
      </trkpt>
      <trkpt lat="48.682413" lon="-1.502322">
        <ele>4.718</ele>
        <time>2026-08-21T15:26:21Z</time>
      </trkpt>
      <trkpt lat="48.682402" lon="-1.502333">
        <ele>4.775</ele>
        <time>2026-08-21T15:26:22Z</time>
      </trkpt>
      <trkpt lat="48.682391" lon="-1.502342">
        <ele>4.784</ele>
        <time>2026-08-21T15:26:23Z</time>
      </trkpt>
      <trkpt lat="48.682381" lon="-1.502350">
        <ele>4.707</ele>
        <time>2026-08-21T15:26:24Z</time>
      </trkpt>
      <trkpt lat="48.682368" lon="-1.502356">
        <ele>4.717</ele>
        <time>2026-08-21T15:26:25Z</time>
      </trkpt>
      <trkpt lat="48.682358" lon="-1.502382">
        <ele>4.709</ele>
        <time>2026-08-21T15:26:27Z</time>
      </trkpt>
      <trkpt lat="48.682347" lon="-1.502393">
        <ele>4.720</ele>
        <time>2026-08-21T15:26:28Z</time>
      </trkpt>
      <trkpt lat="48.682335" lon="-1.502399">
        <ele>4.746</ele>
        <time>2026-08-21T15:26:29Z</time>
      </trkpt>
      <trkpt lat="48.682324" lon="-1.502407">
        <ele>4.729</ele>
        <time>2026-08-21T15:26:30Z</time>
      </trkpt>
      <trkpt lat="48.682315" lon="-1.502421">
        <ele>4.780</ele>
        <time>2026-08-21T15:26:31Z</time>
      </trkpt>
      <trkpt lat="48.682305" lon="-1.502432">
        <ele>4.773</ele>
        <time>2026-08-21T15:26:32Z</time>
      </trkpt>
      <trkpt lat="48.682293" lon="-1.502443">
        <ele>4.740</ele>
        <time>2026-08-21T15:26:33Z</time>
      </trkpt>
      <trkpt lat="48.682282" lon="-1.502453">
        <ele>4.771</ele>
        <time>2026-08-21T15:26:34Z</time>
      </trkpt>
      <trkpt lat="48.682270" lon="-1.502460">
        <ele>4.785</ele>
        <time>2026-08-21T15:26:35Z</time>
      </trkpt>
      <trkpt lat="48.682258" lon="-1.502466">
        <ele>4.732</ele>
        <time>2026-08-21T15:26:36Z</time>
      </trkpt>
      <trkpt lat="48.682244" lon="-1.502474">
        <ele>4.722</ele>
        <time>2026-08-21T15:26:37Z</time>
      </trkpt>
      <trkpt lat="48.682233" lon="-1.502484">
        <ele>4.762</ele>
        <time>2026-08-21T15:26:38Z</time>
      </trkpt>
      <trkpt lat="48.682222" lon="-1.502496">
        <ele>4.708</ele>
        <time>2026-08-21T15:26:39Z</time>
      </trkpt>
      <trkpt lat="48.682210" lon="-1.502506">
        <ele>4.709</ele>
        <time>2026-08-21T15:26:40Z</time>
      </trkpt>
      <trkpt lat="48.682198" lon="-1.502517">
        <ele>4.674</ele>
        <time>2026-08-21T15:26:41Z</time>
      </trkpt>
      <trkpt lat="48.682187" lon="-1.502524">
        <ele>4.680</ele>
        <time>2026-08-21T15:26:42Z</time>
      </trkpt>
      <trkpt lat="48.682175" lon="-1.502532">
        <ele>4.563</ele>
        <time>2026-08-21T15:26:43Z</time>
      </trkpt>
      <trkpt lat="48.682165" lon="-1.502538">
        <ele>4.584</ele>
        <time>2026-08-21T15:26:44Z</time>
      </trkpt>
      <trkpt lat="48.682155" lon="-1.502546">
        <ele>4.577</ele>
        <time>2026-08-21T15:26:45Z</time>
      </trkpt>
      <trkpt lat="48.682146" lon="-1.502551">
        <ele>4.544</ele>
        <time>2026-08-21T15:26:46Z</time>
      </trkpt>
      <trkpt lat="48.682136" lon="-1.502563">
        <ele>4.495</ele>
        <time>2026-08-21T15:26:47Z</time>
      </trkpt>
      <trkpt lat="48.682125" lon="-1.502572">
        <ele>4.469</ele>
        <time>2026-08-21T15:26:48Z</time>
      </trkpt>
      <trkpt lat="48.682116" lon="-1.502579">
        <ele>4.336</ele>
        <time>2026-08-21T15:26:49Z</time>
      </trkpt>
      <trkpt lat="48.682106" lon="-1.502585">
        <ele>4.326</ele>
        <time>2026-08-21T15:26:50Z</time>
      </trkpt>
      <trkpt lat="48.682093" lon="-1.502589">
        <ele>4.347</ele>
        <time>2026-08-21T15:26:51Z</time>
      </trkpt>
      <trkpt lat="48.682081" lon="-1.502599">
        <ele>4.211</ele>
        <time>2026-08-21T15:26:52Z</time>
      </trkpt>
      <trkpt lat="48.682069" lon="-1.502607">
        <ele>4.209</ele>
        <time>2026-08-21T15:26:53Z</time>
      </trkpt>
      <trkpt lat="48.682058" lon="-1.502620">
        <ele>4.244</ele>
        <time>2026-08-21T15:26:54Z</time>
      </trkpt>
      <trkpt lat="48.682049" lon="-1.502639">
        <ele>4.240</ele>
        <time>2026-08-21T15:26:55Z</time>
      </trkpt>
      <trkpt lat="48.682035" lon="-1.502653">
        <ele>4.283</ele>
        <time>2026-08-21T15:26:56Z</time>
      </trkpt>
      <trkpt lat="48.682028" lon="-1.502670">
        <ele>4.224</ele>
        <time>2026-08-21T15:26:57Z</time>
      </trkpt>
      <trkpt lat="48.682012" lon="-1.502688">
        <ele>4.187</ele>
        <time>2026-08-21T15:26:59Z</time>
      </trkpt>
      <trkpt lat="48.682004" lon="-1.502708">
        <ele>4.194</ele>
        <time>2026-08-21T15:27:01Z</time>
      </trkpt>
      <trkpt lat="48.681993" lon="-1.502722">
        <ele>4.115</ele>
        <time>2026-08-21T15:27:02Z</time>
      </trkpt>
      <trkpt lat="48.681976" lon="-1.502731">
        <ele>4.129</ele>
        <time>2026-08-21T15:27:04Z</time>
      </trkpt>
      <trkpt lat="48.681965" lon="-1.502739">
        <ele>4.126</ele>
        <time>2026-08-21T15:27:05Z</time>
      </trkpt>
      <trkpt lat="48.681956" lon="-1.502747">
        <ele>4.197</ele>
        <time>2026-08-21T15:27:07Z</time>
      </trkpt>
      <trkpt lat="48.681946" lon="-1.502758">
        <ele>4.123</ele>
        <time>2026-08-21T15:27:36Z</time>
      </trkpt>
      <trkpt lat="48.681939" lon="-1.502773">
        <ele>4.125</ele>
        <time>2026-08-21T15:27:37Z</time>
      </trkpt>
      <trkpt lat="48.681933" lon="-1.502788">
        <ele>4.109</ele>
        <time>2026-08-21T15:27:38Z</time>
      </trkpt>
      <trkpt lat="48.681925" lon="-1.502799">
        <ele>4.111</ele>
        <time>2026-08-21T15:27:39Z</time>
      </trkpt>
      <trkpt lat="48.681923" lon="-1.502815">
        <ele>4.197</ele>
        <time>2026-08-21T15:27:40Z</time>
      </trkpt>
      <trkpt lat="48.681916" lon="-1.502826">
        <ele>4.150</ele>
        <time>2026-08-21T15:27:41Z</time>
      </trkpt>
      <trkpt lat="48.681909" lon="-1.502837">
        <ele>4.141</ele>
        <time>2026-08-21T15:27:42Z</time>
      </trkpt>
      <trkpt lat="48.681902" lon="-1.502847">
        <ele>4.134</ele>
        <time>2026-08-21T15:27:43Z</time>
      </trkpt>
      <trkpt lat="48.681898" lon="-1.502860">
        <ele>4.191</ele>
        <time>2026-08-21T15:27:44Z</time>
      </trkpt>
      <trkpt lat="48.681895" lon="-1.502873">
        <ele>4.142</ele>
        <time>2026-08-21T15:27:45Z</time>
      </trkpt>
      <trkpt lat="48.681889" lon="-1.502885">
        <ele>4.116</ele>
        <time>2026-08-21T15:27:46Z</time>
      </trkpt>
      <trkpt lat="48.681883" lon="-1.502899">
        <ele>4.193</ele>
        <time>2026-08-21T15:27:47Z</time>
      </trkpt>
      <trkpt lat="48.681876" lon="-1.502912">
        <ele>4.189</ele>
        <time>2026-08-21T15:27:48Z</time>
      </trkpt>
      <trkpt lat="48.681868" lon="-1.502925">
        <ele>4.106</ele>
        <time>2026-08-21T15:27:49Z</time>
      </trkpt>
      <trkpt lat="48.681861" lon="-1.502937">
        <ele>4.126</ele>
        <time>2026-08-21T15:27:50Z</time>
      </trkpt>
      <trkpt lat="48.681854" lon="-1.502957">
        <ele>4.109</ele>
        <time>2026-08-21T15:27:52Z</time>
      </trkpt>
      <trkpt lat="48.681846" lon="-1.502984">
        <ele>4.160</ele>
        <time>2026-08-21T15:27:54Z</time>
      </trkpt>
      <trkpt lat="48.681835" lon="-1.503005">
        <ele>4.136</ele>
        <time>2026-08-21T15:27:56Z</time>
      </trkpt>
      <trkpt lat="48.681829" lon="-1.503022">
        <ele>4.099</ele>
        <time>2026-08-21T15:27:57Z</time>
      </trkpt>
      <trkpt lat="48.681823" lon="-1.503033">
        <ele>3.980</ele>
        <time>2026-08-21T15:27:58Z</time>
      </trkpt>
      <trkpt lat="48.681815" lon="-1.503044">
        <ele>4.093</ele>
        <time>2026-08-21T15:27:59Z</time>
      </trkpt>
      <trkpt lat="48.681802" lon="-1.503060">
        <ele>4.040</ele>
        <time>2026-08-21T15:28:01Z</time>
      </trkpt>
      <trkpt lat="48.681795" lon="-1.503075">
        <ele>4.071</ele>
        <time>2026-08-21T15:28:02Z</time>
      </trkpt>
      <trkpt lat="48.681789" lon="-1.503092">
        <ele>4.035</ele>
        <time>2026-08-21T15:28:03Z</time>
      </trkpt>
      <trkpt lat="48.681780" lon="-1.503111">
        <ele>4.082</ele>
        <time>2026-08-21T15:28:05Z</time>
      </trkpt>
      <trkpt lat="48.681768" lon="-1.503128">
        <ele>4.073</ele>
        <time>2026-08-21T15:28:07Z</time>
      </trkpt>
      <trkpt lat="48.681760" lon="-1.503137">
        <ele>4.085</ele>
        <time>2026-08-21T15:28:08Z</time>
      </trkpt>
      <trkpt lat="48.681752" lon="-1.503144">
        <ele>4.013</ele>
        <time>2026-08-21T15:28:10Z</time>
      </trkpt>
      <trkpt lat="48.681744" lon="-1.503159">
        <ele>4.009</ele>
        <time>2026-08-21T15:28:14Z</time>
      </trkpt>
      <trkpt lat="48.681739" lon="-1.503148">
        <ele>4.129</ele>
        <time>2026-08-21T15:28:30Z</time>
      </trkpt>
      <trkpt lat="48.681725" lon="-1.503158">
        <ele>3.275</ele>
        <time>2026-08-21T15:29:34Z</time>
      </trkpt>
      <trkpt lat="48.681716" lon="-1.503166">
        <ele>3.248</ele>
        <time>2026-08-21T15:29:35Z</time>
      </trkpt>
      <trkpt lat="48.681707" lon="-1.503183">
        <ele>3.269</ele>
        <time>2026-08-21T15:29:37Z</time>
      </trkpt>
      <trkpt lat="48.681693" lon="-1.503194">
        <ele>3.282</ele>
        <time>2026-08-21T15:29:39Z</time>
      </trkpt>
      <trkpt lat="48.681681" lon="-1.503202">
        <ele>3.249</ele>
        <time>2026-08-21T15:29:41Z</time>
      </trkpt>
      <trkpt lat="48.681677" lon="-1.503215">
        <ele>3.240</ele>
        <time>2026-08-21T15:29:42Z</time>
      </trkpt>
      <trkpt lat="48.681672" lon="-1.503236">
        <ele>3.284</ele>
        <time>2026-08-21T15:29:44Z</time>
      </trkpt>
      <trkpt lat="48.681661" lon="-1.503243">
        <ele>3.351</ele>
        <time>2026-08-21T15:29:46Z</time>
      </trkpt>
      <trkpt lat="48.681649" lon="-1.503259">
        <ele>3.482</ele>
        <time>2026-08-21T15:29:48Z</time>
      </trkpt>
      <trkpt lat="48.681639" lon="-1.503273">
        <ele>3.443</ele>
        <time>2026-08-21T15:29:50Z</time>
      </trkpt>
      <trkpt lat="48.681626" lon="-1.503278">
        <ele>3.417</ele>
        <time>2026-08-21T15:29:52Z</time>
      </trkpt>
      <trkpt lat="48.681613" lon="-1.503289">
        <ele>3.309</ele>
        <time>2026-08-21T15:29:54Z</time>
      </trkpt>
      <trkpt lat="48.681606" lon="-1.503305">
        <ele>3.250</ele>
        <time>2026-08-21T15:29:56Z</time>
      </trkpt>
      <trkpt lat="48.681593" lon="-1.503324">
        <ele>3.256</ele>
        <time>2026-08-21T15:29:58Z</time>
      </trkpt>
      <trkpt lat="48.681581" lon="-1.503340">
        <ele>3.279</ele>
        <time>2026-08-21T15:30:00Z</time>
      </trkpt>
      <trkpt lat="48.681568" lon="-1.503356">
        <ele>3.250</ele>
        <time>2026-08-21T15:30:02Z</time>
      </trkpt>
      <trkpt lat="48.681561" lon="-1.503366">
        <ele>3.293</ele>
        <time>2026-08-21T15:30:03Z</time>
      </trkpt>
      <trkpt lat="48.681554" lon="-1.503387">
        <ele>3.240</ele>
        <time>2026-08-21T15:30:05Z</time>
      </trkpt>
      <trkpt lat="48.681544" lon="-1.503413">
        <ele>3.241</ele>
        <time>2026-08-21T15:30:07Z</time>
      </trkpt>
      <trkpt lat="48.681538" lon="-1.503427">
        <ele>3.215</ele>
        <time>2026-08-21T15:30:08Z</time>
      </trkpt>
      <trkpt lat="48.681527" lon="-1.503452">
        <ele>3.222</ele>
        <time>2026-08-21T15:30:10Z</time>
      </trkpt>
      <trkpt lat="48.681520" lon="-1.503463">
        <ele>3.264</ele>
        <time>2026-08-21T15:30:11Z</time>
      </trkpt>
      <trkpt lat="48.681510" lon="-1.503480">
        <ele>3.206</ele>
        <time>2026-08-21T15:30:13Z</time>
      </trkpt>
      <trkpt lat="48.681505" lon="-1.503492">
        <ele>3.216</ele>
        <time>2026-08-21T15:30:14Z</time>
      </trkpt>
      <trkpt lat="48.681494" lon="-1.503516">
        <ele>3.209</ele>
        <time>2026-08-21T15:30:16Z</time>
      </trkpt>
      <trkpt lat="48.681489" lon="-1.503528">
        <ele>3.328</ele>
        <time>2026-08-21T15:30:17Z</time>
      </trkpt>
      <trkpt lat="48.681486" lon="-1.503541">
        <ele>3.374</ele>
        <time>2026-08-21T15:30:18Z</time>
      </trkpt>
      <trkpt lat="48.681478" lon="-1.503557">
        <ele>3.357</ele>
        <time>2026-08-21T15:30:20Z</time>
      </trkpt>
      <trkpt lat="48.681471" lon="-1.503568">
        <ele>3.228</ele>
        <time>2026-08-21T15:30:21Z</time>
      </trkpt>
      <trkpt lat="48.681465" lon="-1.503579">
        <ele>3.361</ele>
        <time>2026-08-21T15:30:22Z</time>
      </trkpt>
      <trkpt lat="48.681452" lon="-1.503600">
        <ele>3.398</ele>
        <time>2026-08-21T15:30:24Z</time>
      </trkpt>
      <trkpt lat="48.681441" lon="-1.503621">
        <ele>3.439</ele>
        <time>2026-08-21T15:30:26Z</time>
      </trkpt>
      <trkpt lat="48.681437" lon="-1.503633">
        <ele>3.483</ele>
        <time>2026-08-21T15:30:27Z</time>
      </trkpt>
      <trkpt lat="48.681430" lon="-1.503649">
        <ele>3.410</ele>
        <time>2026-08-21T15:30:28Z</time>
      </trkpt>
      <trkpt lat="48.681424" lon="-1.503662">
        <ele>3.491</ele>
        <time>2026-08-21T15:30:29Z</time>
      </trkpt>
      <trkpt lat="48.681418" lon="-1.503675">
        <ele>3.481</ele>
        <time>2026-08-21T15:30:30Z</time>
      </trkpt>
      <trkpt lat="48.681413" lon="-1.503694">
        <ele>3.419</ele>
        <time>2026-08-21T15:30:32Z</time>
      </trkpt>
      <trkpt lat="48.681405" lon="-1.503721">
        <ele>3.409</ele>
        <time>2026-08-21T15:30:34Z</time>
      </trkpt>
      <trkpt lat="48.681399" lon="-1.503737">
        <ele>3.341</ele>
        <time>2026-08-21T15:30:35Z</time>
      </trkpt>
      <trkpt lat="48.681394" lon="-1.503748">
        <ele>3.387</ele>
        <time>2026-08-21T15:30:36Z</time>
      </trkpt>
      <trkpt lat="48.681390" lon="-1.503767">
        <ele>3.390</ele>
        <time>2026-08-21T15:30:38Z</time>
      </trkpt>
      <trkpt lat="48.681388" lon="-1.503782">
        <ele>3.311</ele>
        <time>2026-08-21T15:30:39Z</time>
      </trkpt>
      <trkpt lat="48.681384" lon="-1.503796">
        <ele>3.374</ele>
        <time>2026-08-21T15:30:40Z</time>
      </trkpt>
      <trkpt lat="48.681382" lon="-1.503816">
        <ele>3.331</ele>
        <time>2026-08-21T15:30:42Z</time>
      </trkpt>
      <trkpt lat="48.681374" lon="-1.503842">
        <ele>3.362</ele>
        <time>2026-08-21T15:30:44Z</time>
      </trkpt>
      <trkpt lat="48.681367" lon="-1.503851">
        <ele>3.386</ele>
        <time>2026-08-21T15:31:06Z</time>
      </trkpt>
      <trkpt lat="48.681377" lon="-1.503867">
        <ele>3.393</ele>
        <time>2026-08-21T15:31:14Z</time>
      </trkpt>
      <trkpt lat="48.681386" lon="-1.503871">
        <ele>3.318</ele>
        <time>2026-08-21T15:31:15Z</time>
      </trkpt>
      <trkpt lat="48.681398" lon="-1.503873">
        <ele>3.398</ele>
        <time>2026-08-21T15:31:16Z</time>
      </trkpt>
      <trkpt lat="48.681409" lon="-1.503878">
        <ele>3.317</ele>
        <time>2026-08-21T15:31:17Z</time>
      </trkpt>
      <trkpt lat="48.681419" lon="-1.503880">
        <ele>3.309</ele>
        <time>2026-08-21T15:31:18Z</time>
      </trkpt>
      <trkpt lat="48.681433" lon="-1.503882">
        <ele>3.383</ele>
        <time>2026-08-21T15:31:20Z</time>
      </trkpt>
      <trkpt lat="48.681446" lon="-1.503884">
        <ele>3.369</ele>
        <time>2026-08-21T15:31:21Z</time>
      </trkpt>
      <trkpt lat="48.681455" lon="-1.503885">
        <ele>3.322</ele>
        <time>2026-08-21T15:31:22Z</time>
      </trkpt>
      <trkpt lat="48.681470" lon="-1.503888">
        <ele>3.343</ele>
        <time>2026-08-21T15:31:24Z</time>
      </trkpt>
      <trkpt lat="48.681479" lon="-1.503885">
        <ele>3.376</ele>
        <time>2026-08-21T15:31:25Z</time>
      </trkpt>
      <trkpt lat="48.681492" lon="-1.503892">
        <ele>3.353</ele>
        <time>2026-08-21T15:31:27Z</time>
      </trkpt>
      <trkpt lat="48.681505" lon="-1.503891">
        <ele>3.314</ele>
        <time>2026-08-21T15:31:29Z</time>
      </trkpt>
      <trkpt lat="48.681514" lon="-1.503889">
        <ele>3.398</ele>
        <time>2026-08-21T15:31:30Z</time>
      </trkpt>
      <trkpt lat="48.681527" lon="-1.503895">
        <ele>3.395</ele>
        <time>2026-08-21T15:31:32Z</time>
      </trkpt>
      <trkpt lat="48.681536" lon="-1.503904">
        <ele>3.368</ele>
        <time>2026-08-21T15:31:34Z</time>
      </trkpt>
      <trkpt lat="48.681544" lon="-1.503916">
        <ele>3.342</ele>
        <time>2026-08-21T15:31:36Z</time>
      </trkpt>
      <trkpt lat="48.681551" lon="-1.503927">
        <ele>3.326</ele>
        <time>2026-08-21T15:31:38Z</time>
      </trkpt>
      <trkpt lat="48.681559" lon="-1.503945">
        <ele>3.309</ele>
        <time>2026-08-21T15:31:40Z</time>
      </trkpt>
      <trkpt lat="48.681563" lon="-1.503958">
        <ele>3.368</ele>
        <time>2026-08-21T15:31:42Z</time>
      </trkpt>
      <trkpt lat="48.681562" lon="-1.503981">
        <ele>3.394</ele>
        <time>2026-08-21T15:31:49Z</time>
      </trkpt>
      <trkpt lat="48.681559" lon="-1.503997">
        <ele>3.387</ele>
        <time>2026-08-21T15:31:51Z</time>
      </trkpt>
      <trkpt lat="48.681552" lon="-1.504017">
        <ele>3.278</ele>
        <time>2026-08-21T15:31:53Z</time>
      </trkpt>
      <trkpt lat="48.681545" lon="-1.504032">
        <ele>3.251</ele>
        <time>2026-08-21T15:31:55Z</time>
      </trkpt>
      <trkpt lat="48.681545" lon="-1.504055">
        <ele>3.258</ele>
        <time>2026-08-21T15:31:57Z</time>
      </trkpt>
      <trkpt lat="48.681540" lon="-1.504078">
        <ele>3.229</ele>
        <time>2026-08-21T15:31:59Z</time>
      </trkpt>
      <trkpt lat="48.681534" lon="-1.504091">
        <ele>3.293</ele>
        <time>2026-08-21T15:32:01Z</time>
      </trkpt>
      <trkpt lat="48.681530" lon="-1.504107">
        <ele>3.240</ele>
        <time>2026-08-21T15:32:04Z</time>
      </trkpt>
      <trkpt lat="48.681525" lon="-1.504123">
        <ele>3.243</ele>
        <time>2026-08-21T15:32:06Z</time>
      </trkpt>
      <trkpt lat="48.681523" lon="-1.504138">
        <ele>3.264</ele>
        <time>2026-08-21T15:32:07Z</time>
      </trkpt>
      <trkpt lat="48.681509" lon="-1.504147">
        <ele>3.210</ele>
        <time>2026-08-21T15:32:10Z</time>
      </trkpt>
      <trkpt lat="48.681493" lon="-1.504142">
        <ele>3.209</ele>
        <time>2026-08-21T15:32:12Z</time>
      </trkpt>
      <trkpt lat="48.681482" lon="-1.504147">
        <ele>3.286</ele>
        <time>2026-08-21T15:32:14Z</time>
      </trkpt>
      <trkpt lat="48.681472" lon="-1.504149">
        <ele>3.212</ele>
        <time>2026-08-21T15:32:17Z</time>
      </trkpt>
      <trkpt lat="48.681462" lon="-1.504153">
        <ele>3.325</ele>
        <time>2026-08-21T15:32:19Z</time>
      </trkpt>
      <trkpt lat="48.681460" lon="-1.504170">
        <ele>3.356</ele>
        <time>2026-08-21T15:32:35Z</time>
      </trkpt>
      <trkpt lat="48.681459" lon="-1.504185">
        <ele>3.319</ele>
        <time>2026-08-21T15:32:36Z</time>
      </trkpt>
      <trkpt lat="48.681450" lon="-1.504192">
        <ele>3.316</ele>
        <time>2026-08-21T15:32:38Z</time>
      </trkpt>
      <trkpt lat="48.681430" lon="-1.504198">
        <ele>3.267</ele>
        <time>2026-08-21T15:32:40Z</time>
      </trkpt>
      <trkpt lat="48.681416" lon="-1.504206">
        <ele>3.091</ele>
        <time>2026-08-21T15:32:41Z</time>
      </trkpt>
      <trkpt lat="48.681410" lon="-1.504221">
        <ele>3.088</ele>
        <time>2026-08-21T15:32:43Z</time>
      </trkpt>
      <trkpt lat="48.681397" lon="-1.504239">
        <ele>2.932</ele>
        <time>2026-08-21T15:32:45Z</time>
      </trkpt>
      <trkpt lat="48.681389" lon="-1.504247">
        <ele>2.992</ele>
        <time>2026-08-21T15:32:46Z</time>
      </trkpt>
      <trkpt lat="48.681377" lon="-1.504260">
        <ele>2.911</ele>
        <time>2026-08-21T15:32:48Z</time>
      </trkpt>
      <trkpt lat="48.681367" lon="-1.504262">
        <ele>2.909</ele>
        <time>2026-08-21T15:32:49Z</time>
      </trkpt>
      <trkpt lat="48.681358" lon="-1.504262">
        <ele>2.825</ele>
        <time>2026-08-21T15:32:50Z</time>
      </trkpt>
      <trkpt lat="48.681342" lon="-1.504272">
        <ele>2.851</ele>
        <time>2026-08-21T15:32:52Z</time>
      </trkpt>
      <trkpt lat="48.681333" lon="-1.504278">
        <ele>2.824</ele>
        <time>2026-08-21T15:32:53Z</time>
      </trkpt>
      <trkpt lat="48.681324" lon="-1.504295">
        <ele>2.845</ele>
        <time>2026-08-21T15:32:55Z</time>
      </trkpt>
      <trkpt lat="48.681316" lon="-1.504305">
        <ele>2.888</ele>
        <time>2026-08-21T15:32:56Z</time>
      </trkpt>
      <trkpt lat="48.681302" lon="-1.504320">
        <ele>2.885</ele>
        <time>2026-08-21T15:32:58Z</time>
      </trkpt>
      <trkpt lat="48.681285" lon="-1.504332">
        <ele>2.856</ele>
        <time>2026-08-21T15:33:00Z</time>
      </trkpt>
      <trkpt lat="48.681277" lon="-1.504339">
        <ele>2.850</ele>
        <time>2026-08-21T15:33:01Z</time>
      </trkpt>
      <trkpt lat="48.681267" lon="-1.504342">
        <ele>2.847</ele>
        <time>2026-08-21T15:33:02Z</time>
      </trkpt>
      <trkpt lat="48.681249" lon="-1.504354">
        <ele>2.836</ele>
        <time>2026-08-21T15:33:04Z</time>
      </trkpt>
      <trkpt lat="48.681236" lon="-1.504361">
        <ele>2.817</ele>
        <time>2026-08-21T15:33:05Z</time>
      </trkpt>
      <trkpt lat="48.681226" lon="-1.504367">
        <ele>2.818</ele>
        <time>2026-08-21T15:33:06Z</time>
      </trkpt>
      <trkpt lat="48.681215" lon="-1.504381">
        <ele>2.809</ele>
        <time>2026-08-21T15:33:08Z</time>
      </trkpt>
      <trkpt lat="48.681207" lon="-1.504388">
        <ele>2.845</ele>
        <time>2026-08-21T15:33:09Z</time>
      </trkpt>
      <trkpt lat="48.681196" lon="-1.504404">
        <ele>2.891</ele>
        <time>2026-08-21T15:33:11Z</time>
      </trkpt>
      <trkpt lat="48.681194" lon="-1.504418">
        <ele>2.824</ele>
        <time>2026-08-21T15:33:12Z</time>
      </trkpt>
      <trkpt lat="48.681188" lon="-1.504432">
        <ele>2.855</ele>
        <time>2026-08-21T15:33:13Z</time>
      </trkpt>
      <trkpt lat="48.681181" lon="-1.504446">
        <ele>2.868</ele>
        <time>2026-08-21T15:33:14Z</time>
      </trkpt>
      <trkpt lat="48.681173" lon="-1.504457">
        <ele>2.885</ele>
        <time>2026-08-21T15:33:15Z</time>
      </trkpt>
      <trkpt lat="48.681165" lon="-1.504476">
        <ele>2.826</ele>
        <time>2026-08-21T15:33:17Z</time>
      </trkpt>
      <trkpt lat="48.681161" lon="-1.504490">
        <ele>2.830</ele>
        <time>2026-08-21T15:33:18Z</time>
      </trkpt>
      <trkpt lat="48.681155" lon="-1.504510">
        <ele>2.897</ele>
        <time>2026-08-21T15:33:19Z</time>
      </trkpt>
      <trkpt lat="48.681149" lon="-1.504526">
        <ele>2.831</ele>
        <time>2026-08-21T15:33:20Z</time>
      </trkpt>
      <trkpt lat="48.681143" lon="-1.504550">
        <ele>2.761</ele>
        <time>2026-08-21T15:33:22Z</time>
      </trkpt>
      <trkpt lat="48.681138" lon="-1.504580">
        <ele>2.707</ele>
        <time>2026-08-21T15:33:24Z</time>
      </trkpt>
      <trkpt lat="48.681134" lon="-1.504601">
        <ele>2.809</ele>
        <time>2026-08-21T15:33:25Z</time>
      </trkpt>
      <trkpt lat="48.681129" lon="-1.504614">
        <ele>2.865</ele>
        <time>2026-08-21T15:33:26Z</time>
      </trkpt>
      <trkpt lat="48.681120" lon="-1.504631">
        <ele>2.821</ele>
        <time>2026-08-21T15:33:28Z</time>
      </trkpt>
      <trkpt lat="48.681113" lon="-1.504641">
        <ele>2.854</ele>
        <time>2026-08-21T15:33:29Z</time>
      </trkpt>
      <trkpt lat="48.681107" lon="-1.504656">
        <ele>2.855</ele>
        <time>2026-08-21T15:33:30Z</time>
      </trkpt>
      <trkpt lat="48.681101" lon="-1.504670">
        <ele>2.898</ele>
        <time>2026-08-21T15:33:31Z</time>
      </trkpt>
      <trkpt lat="48.681097" lon="-1.504682">
        <ele>2.855</ele>
        <time>2026-08-21T15:33:32Z</time>
      </trkpt>
      <trkpt lat="48.681092" lon="-1.504694">
        <ele>2.826</ele>
        <time>2026-08-21T15:33:33Z</time>
      </trkpt>
      <trkpt lat="48.681086" lon="-1.504708">
        <ele>2.840</ele>
        <time>2026-08-21T15:33:34Z</time>
      </trkpt>
      <trkpt lat="48.681080" lon="-1.504720">
        <ele>2.887</ele>
        <time>2026-08-21T15:33:35Z</time>
      </trkpt>
      <trkpt lat="48.681078" lon="-1.504734">
        <ele>2.877</ele>
        <time>2026-08-21T15:33:36Z</time>
      </trkpt>
      <trkpt lat="48.681074" lon="-1.504753">
        <ele>2.761</ele>
        <time>2026-08-21T15:33:38Z</time>
      </trkpt>
      <trkpt lat="48.681068" lon="-1.504768">
        <ele>2.827</ele>
        <time>2026-08-21T15:33:39Z</time>
      </trkpt>
      <trkpt lat="48.681062" lon="-1.504786">
        <ele>2.809</ele>
        <time>2026-08-21T15:33:40Z</time>
      </trkpt>
      <trkpt lat="48.681058" lon="-1.504800">
        <ele>2.889</ele>
        <time>2026-08-21T15:33:41Z</time>
      </trkpt>
      <trkpt lat="48.681055" lon="-1.504825">
        <ele>2.965</ele>
        <time>2026-08-21T15:33:43Z</time>
      </trkpt>
      <trkpt lat="48.681047" lon="-1.504858">
        <ele>2.948</ele>
        <time>2026-08-21T15:33:45Z</time>
      </trkpt>
      <trkpt lat="48.681042" lon="-1.504871">
        <ele>2.939</ele>
        <time>2026-08-21T15:33:46Z</time>
      </trkpt>
      <trkpt lat="48.681038" lon="-1.504885">
        <ele>2.922</ele>
        <time>2026-08-21T15:33:47Z</time>
      </trkpt>
      <trkpt lat="48.681032" lon="-1.504896">
        <ele>3.039</ele>
        <time>2026-08-21T15:33:48Z</time>
      </trkpt>
      <trkpt lat="48.681029" lon="-1.504909">
        <ele>3.020</ele>
        <time>2026-08-21T15:33:49Z</time>
      </trkpt>
      <trkpt lat="48.681023" lon="-1.504925">
        <ele>3.064</ele>
        <time>2026-08-21T15:33:50Z</time>
      </trkpt>
      <trkpt lat="48.681017" lon="-1.504940">
        <ele>3.061</ele>
        <time>2026-08-21T15:33:51Z</time>
      </trkpt>
      <trkpt lat="48.681011" lon="-1.504952">
        <ele>3.026</ele>
        <time>2026-08-21T15:33:52Z</time>
      </trkpt>
      <trkpt lat="48.681006" lon="-1.504967">
        <ele>3.147</ele>
        <time>2026-08-21T15:33:53Z</time>
      </trkpt>
      <trkpt lat="48.680998" lon="-1.504991">
        <ele>3.111</ele>
        <time>2026-08-21T15:33:55Z</time>
      </trkpt>
      <trkpt lat="48.680993" lon="-1.505006">
        <ele>3.109</ele>
        <time>2026-08-21T15:33:56Z</time>
      </trkpt>
      <trkpt lat="48.680991" lon="-1.505021">
        <ele>3.164</ele>
        <time>2026-08-21T15:33:57Z</time>
      </trkpt>
      <trkpt lat="48.680982" lon="-1.505034">
        <ele>3.110</ele>
        <time>2026-08-21T15:33:59Z</time>
      </trkpt>
      <trkpt lat="48.680971" lon="-1.505060">
        <ele>3.133</ele>
        <time>2026-08-21T15:34:01Z</time>
      </trkpt>
      <trkpt lat="48.680967" lon="-1.505076">
        <ele>3.154</ele>
        <time>2026-08-21T15:34:02Z</time>
      </trkpt>
      <trkpt lat="48.680963" lon="-1.505093">
        <ele>3.127</ele>
        <time>2026-08-21T15:34:03Z</time>
      </trkpt>
      <trkpt lat="48.680956" lon="-1.505114">
        <ele>3.294</ele>
        <time>2026-08-21T15:34:05Z</time>
      </trkpt>
      <trkpt lat="48.680947" lon="-1.505133">
        <ele>3.225</ele>
        <time>2026-08-21T15:34:07Z</time>
      </trkpt>
      <trkpt lat="48.680942" lon="-1.505149">
        <ele>3.229</ele>
        <time>2026-08-21T15:34:08Z</time>
      </trkpt>
      <trkpt lat="48.680936" lon="-1.505169">
        <ele>3.266</ele>
        <time>2026-08-21T15:34:10Z</time>
      </trkpt>
      <trkpt lat="48.680927" lon="-1.505186">
        <ele>3.243</ele>
        <time>2026-08-21T15:34:12Z</time>
      </trkpt>
      <trkpt lat="48.680923" lon="-1.505200">
        <ele>3.364</ele>
        <time>2026-08-21T15:34:13Z</time>
      </trkpt>
      <trkpt lat="48.680918" lon="-1.505214">
        <ele>3.310</ele>
        <time>2026-08-21T15:34:14Z</time>
      </trkpt>
      <trkpt lat="48.680906" lon="-1.505233">
        <ele>3.309</ele>
        <time>2026-08-21T15:34:16Z</time>
      </trkpt>
      <trkpt lat="48.680898" lon="-1.505258">
        <ele>3.346</ele>
        <time>2026-08-21T15:34:18Z</time>
      </trkpt>
      <trkpt lat="48.680892" lon="-1.505279">
        <ele>3.322</ele>
        <time>2026-08-21T15:34:20Z</time>
      </trkpt>
      <trkpt lat="48.680885" lon="-1.505290">
        <ele>3.435</ele>
        <time>2026-08-21T15:34:22Z</time>
      </trkpt>
      <trkpt lat="48.680877" lon="-1.505310">
        <ele>3.426</ele>
        <time>2026-08-21T15:34:24Z</time>
      </trkpt>
      <trkpt lat="48.680874" lon="-1.505330">
        <ele>3.419</ele>
        <time>2026-08-21T15:34:26Z</time>
      </trkpt>
      <trkpt lat="48.680868" lon="-1.505343">
        <ele>3.486</ele>
        <time>2026-08-21T15:34:28Z</time>
      </trkpt>
      <trkpt lat="48.680860" lon="-1.505359">
        <ele>3.427</ele>
        <time>2026-08-21T15:34:30Z</time>
      </trkpt>
      <trkpt lat="48.680853" lon="-1.505373">
        <ele>3.491</ele>
        <time>2026-08-21T15:34:32Z</time>
      </trkpt>
      <trkpt lat="48.680845" lon="-1.505387">
        <ele>3.488</ele>
        <time>2026-08-21T15:34:34Z</time>
      </trkpt>
      <trkpt lat="48.680837" lon="-1.505414">
        <ele>3.467</ele>
        <time>2026-08-21T15:34:36Z</time>
      </trkpt>
      <trkpt lat="48.680826" lon="-1.505426">
        <ele>3.481</ele>
        <time>2026-08-21T15:34:38Z</time>
      </trkpt>
      <trkpt lat="48.680821" lon="-1.505437">
        <ele>3.419</ele>
        <time>2026-08-21T15:34:40Z</time>
      </trkpt>
      <trkpt lat="48.680813" lon="-1.505459">
        <ele>3.409</ele>
        <time>2026-08-21T15:34:42Z</time>
      </trkpt>
      <trkpt lat="48.680809" lon="-1.505478">
        <ele>3.448</ele>
        <time>2026-08-21T15:34:44Z</time>
      </trkpt>
      <trkpt lat="48.680805" lon="-1.505493">
        <ele>3.494</ele>
        <time>2026-08-21T15:34:46Z</time>
      </trkpt>
      <trkpt lat="48.680799" lon="-1.505510">
        <ele>3.477</ele>
        <time>2026-08-21T15:34:48Z</time>
      </trkpt>
      <trkpt lat="48.680792" lon="-1.505525">
        <ele>3.488</ele>
        <time>2026-08-21T15:34:51Z</time>
      </trkpt>
      <trkpt lat="48.680786" lon="-1.505549">
        <ele>3.421</ele>
        <time>2026-08-21T15:34:53Z</time>
      </trkpt>
      <trkpt lat="48.680784" lon="-1.505564">
        <ele>3.468</ele>
        <time>2026-08-21T15:34:55Z</time>
      </trkpt>
      <trkpt lat="48.680783" lon="-1.505581">
        <ele>3.439</ele>
        <time>2026-08-21T15:34:57Z</time>
      </trkpt>
      <trkpt lat="48.680782" lon="-1.505602">
        <ele>3.413</ele>
        <time>2026-08-21T15:34:59Z</time>
      </trkpt>
      <trkpt lat="48.680777" lon="-1.505620">
        <ele>3.490</ele>
        <time>2026-08-21T15:35:01Z</time>
      </trkpt>
      <trkpt lat="48.680770" lon="-1.505640">
        <ele>3.447</ele>
        <time>2026-08-21T15:35:03Z</time>
      </trkpt>
      <trkpt lat="48.680767" lon="-1.505660">
        <ele>3.429</ele>
        <time>2026-08-21T15:35:05Z</time>
      </trkpt>
      <trkpt lat="48.680765" lon="-1.505677">
        <ele>3.421</ele>
        <time>2026-08-21T15:35:06Z</time>
      </trkpt>
      <trkpt lat="48.680760" lon="-1.505698">
        <ele>3.409</ele>
        <time>2026-08-21T15:35:08Z</time>
      </trkpt>
      <trkpt lat="48.680753" lon="-1.505715">
        <ele>3.466</ele>
        <time>2026-08-21T15:35:10Z</time>
      </trkpt>
      <trkpt lat="48.680742" lon="-1.505733">
        <ele>3.482</ele>
        <time>2026-08-21T15:35:12Z</time>
      </trkpt>
      <trkpt lat="48.680734" lon="-1.505757">
        <ele>3.325</ele>
        <time>2026-08-21T15:35:14Z</time>
      </trkpt>
      <trkpt lat="48.680731" lon="-1.505770">
        <ele>3.326</ele>
        <time>2026-08-21T15:35:15Z</time>
      </trkpt>
      <trkpt lat="48.680722" lon="-1.505787">
        <ele>3.229</ele>
        <time>2026-08-21T15:35:17Z</time>
      </trkpt>
      <trkpt lat="48.680713" lon="-1.505807">
        <ele>3.296</ele>
        <time>2026-08-21T15:35:19Z</time>
      </trkpt>
      <trkpt lat="48.680707" lon="-1.505819">
        <ele>3.247</ele>
        <time>2026-08-21T15:35:20Z</time>
      </trkpt>
      <trkpt lat="48.680700" lon="-1.505837">
        <ele>3.261</ele>
        <time>2026-08-21T15:35:22Z</time>
      </trkpt>
      <trkpt lat="48.680694" lon="-1.505848">
        <ele>3.298</ele>
        <time>2026-08-21T15:35:23Z</time>
      </trkpt>
      <trkpt lat="48.680688" lon="-1.505861">
        <ele>3.221</ele>
        <time>2026-08-21T15:35:24Z</time>
      </trkpt>
      <trkpt lat="48.680682" lon="-1.505872">
        <ele>3.241</ele>
        <time>2026-08-21T15:35:25Z</time>
      </trkpt>
      <trkpt lat="48.680673" lon="-1.505892">
        <ele>3.205</ele>
        <time>2026-08-21T15:35:27Z</time>
      </trkpt>
      <trkpt lat="48.680665" lon="-1.505918">
        <ele>3.209</ele>
        <time>2026-08-21T15:35:29Z</time>
      </trkpt>
      <trkpt lat="48.680657" lon="-1.505936">
        <ele>3.274</ele>
        <time>2026-08-21T15:35:31Z</time>
      </trkpt>
      <trkpt lat="48.680648" lon="-1.505961">
        <ele>3.170</ele>
        <time>2026-08-21T15:35:33Z</time>
      </trkpt>
      <trkpt lat="48.680641" lon="-1.505974">
        <ele>3.153</ele>
        <time>2026-08-21T15:35:34Z</time>
      </trkpt>
      <trkpt lat="48.680634" lon="-1.505987">
        <ele>3.114</ele>
        <time>2026-08-21T15:35:35Z</time>
      </trkpt>
      <trkpt lat="48.680627" lon="-1.506010">
        <ele>3.197</ele>
        <time>2026-08-21T15:35:37Z</time>
      </trkpt>
      <trkpt lat="48.680622" lon="-1.506027">
        <ele>3.124</ele>
        <time>2026-08-21T15:35:38Z</time>
      </trkpt>
      <trkpt lat="48.680616" lon="-1.506041">
        <ele>3.165</ele>
        <time>2026-08-21T15:35:39Z</time>
      </trkpt>
      <trkpt lat="48.680607" lon="-1.506062">
        <ele>3.069</ele>
        <time>2026-08-21T15:35:41Z</time>
      </trkpt>
      <trkpt lat="48.680601" lon="-1.506073">
        <ele>3.036</ele>
        <time>2026-08-21T15:35:42Z</time>
      </trkpt>
      <trkpt lat="48.680593" lon="-1.506087">
        <ele>3.051</ele>
        <time>2026-08-21T15:35:43Z</time>
      </trkpt>
      <trkpt lat="48.680587" lon="-1.506103">
        <ele>3.001</ele>
        <time>2026-08-21T15:35:44Z</time>
      </trkpt>
      <trkpt lat="48.680582" lon="-1.506117">
        <ele>3.111</ele>
        <time>2026-08-21T15:35:45Z</time>
      </trkpt>
      <trkpt lat="48.680575" lon="-1.506128">
        <ele>3.109</ele>
        <time>2026-08-21T15:35:46Z</time>
      </trkpt>
      <trkpt lat="48.680564" lon="-1.506153">
        <ele>3.187</ele>
        <time>2026-08-21T15:35:48Z</time>
      </trkpt>
      <trkpt lat="48.680556" lon="-1.506167">
        <ele>3.183</ele>
        <time>2026-08-21T15:35:49Z</time>
      </trkpt>
      <trkpt lat="48.680549" lon="-1.506181">
        <ele>3.216</ele>
        <time>2026-08-21T15:35:50Z</time>
      </trkpt>
      <trkpt lat="48.680541" lon="-1.506203">
        <ele>3.327</ele>
        <time>2026-08-21T15:35:52Z</time>
      </trkpt>
      <trkpt lat="48.680531" lon="-1.506229">
        <ele>3.360</ele>
        <time>2026-08-21T15:35:54Z</time>
      </trkpt>
      <trkpt lat="48.680522" lon="-1.506241">
        <ele>3.357</ele>
        <time>2026-08-21T15:35:55Z</time>
      </trkpt>
      <trkpt lat="48.680515" lon="-1.506252">
        <ele>3.458</ele>
        <time>2026-08-21T15:35:56Z</time>
      </trkpt>
      <trkpt lat="48.680506" lon="-1.506277">
        <ele>3.492</ele>
        <time>2026-08-21T15:35:58Z</time>
      </trkpt>
      <trkpt lat="48.680500" lon="-1.506290">
        <ele>3.499</ele>
        <time>2026-08-21T15:35:59Z</time>
      </trkpt>
      <trkpt lat="48.680494" lon="-1.506306">
        <ele>3.481</ele>
        <time>2026-08-21T15:36:00Z</time>
      </trkpt>
      <trkpt lat="48.680486" lon="-1.506325">
        <ele>3.461</ele>
        <time>2026-08-21T15:36:01Z</time>
      </trkpt>
      <trkpt lat="48.680479" lon="-1.506340">
        <ele>3.417</ele>
        <time>2026-08-21T15:36:02Z</time>
      </trkpt>
      <trkpt lat="48.680469" lon="-1.506357">
        <ele>3.409</ele>
        <time>2026-08-21T15:36:04Z</time>
      </trkpt>
      <trkpt lat="48.680462" lon="-1.506370">
        <ele>3.420</ele>
        <time>2026-08-21T15:36:05Z</time>
      </trkpt>
      <trkpt lat="48.680452" lon="-1.506381">
        <ele>3.426</ele>
        <time>2026-08-21T15:36:06Z</time>
      </trkpt>
      <trkpt lat="48.680443" lon="-1.506391">
        <ele>3.439</ele>
        <time>2026-08-21T15:36:07Z</time>
      </trkpt>
      <trkpt lat="48.680433" lon="-1.506411">
        <ele>3.420</ele>
        <time>2026-08-21T15:36:09Z</time>
      </trkpt>
      <trkpt lat="48.680428" lon="-1.506425">
        <ele>3.553</ele>
        <time>2026-08-21T15:36:10Z</time>
      </trkpt>
      <trkpt lat="48.680423" lon="-1.506446">
        <ele>3.640</ele>
        <time>2026-08-21T15:36:11Z</time>
      </trkpt>
      <trkpt lat="48.680415" lon="-1.506466">
        <ele>3.661</ele>
        <time>2026-08-21T15:36:12Z</time>
      </trkpt>
      <trkpt lat="48.680407" lon="-1.506486">
        <ele>3.645</ele>
        <time>2026-08-21T15:36:13Z</time>
      </trkpt>
      <trkpt lat="48.680399" lon="-1.506502">
        <ele>3.622</ele>
        <time>2026-08-21T15:36:14Z</time>
      </trkpt>
      <trkpt lat="48.680392" lon="-1.506516">
        <ele>3.682</ele>
        <time>2026-08-21T15:36:15Z</time>
      </trkpt>
      <trkpt lat="48.680386" lon="-1.506528">
        <ele>3.643</ele>
        <time>2026-08-21T15:36:16Z</time>
      </trkpt>
      <trkpt lat="48.680373" lon="-1.506549">
        <ele>3.617</ele>
        <time>2026-08-21T15:36:18Z</time>
      </trkpt>
      <trkpt lat="48.680365" lon="-1.506564">
        <ele>3.609</ele>
        <time>2026-08-21T15:36:19Z</time>
      </trkpt>
      <trkpt lat="48.680355" lon="-1.506584">
        <ele>3.610</ele>
        <time>2026-08-21T15:36:20Z</time>
      </trkpt>
      <trkpt lat="48.680348" lon="-1.506597">
        <ele>3.676</ele>
        <time>2026-08-21T15:36:21Z</time>
      </trkpt>
      <trkpt lat="48.680336" lon="-1.506613">
        <ele>3.669</ele>
        <time>2026-08-21T15:36:23Z</time>
      </trkpt>
      <trkpt lat="48.680331" lon="-1.506627">
        <ele>3.660</ele>
        <time>2026-08-21T15:36:24Z</time>
      </trkpt>
      <trkpt lat="48.680323" lon="-1.506643">
        <ele>3.623</ele>
        <time>2026-08-21T15:36:25Z</time>
      </trkpt>
      <trkpt lat="48.680315" lon="-1.506659">
        <ele>3.640</ele>
        <time>2026-08-21T15:36:26Z</time>
      </trkpt>
      <trkpt lat="48.680307" lon="-1.506673">
        <ele>3.671</ele>
        <time>2026-08-21T15:36:27Z</time>
      </trkpt>
      <trkpt lat="48.680301" lon="-1.506685">
        <ele>3.565</ele>
        <time>2026-08-21T15:36:28Z</time>
      </trkpt>
      <trkpt lat="48.680298" lon="-1.506698">
        <ele>3.472</ele>
        <time>2026-08-21T15:36:29Z</time>
      </trkpt>
      <trkpt lat="48.680295" lon="-1.506713">
        <ele>3.476</ele>
        <time>2026-08-21T15:36:30Z</time>
      </trkpt>
      <trkpt lat="48.680289" lon="-1.506731">
        <ele>3.390</ele>
        <time>2026-08-21T15:36:31Z</time>
      </trkpt>
      <trkpt lat="48.680283" lon="-1.506749">
        <ele>3.319</ele>
        <time>2026-08-21T15:36:32Z</time>
      </trkpt>
      <trkpt lat="48.680274" lon="-1.506766">
        <ele>3.209</ele>
        <time>2026-08-21T15:36:33Z</time>
      </trkpt>
      <trkpt lat="48.680267" lon="-1.506782">
        <ele>3.239</ele>
        <time>2026-08-21T15:36:34Z</time>
      </trkpt>
      <trkpt lat="48.680263" lon="-1.506794">
        <ele>3.265</ele>
        <time>2026-08-21T15:36:35Z</time>
      </trkpt>
      <trkpt lat="48.680255" lon="-1.506820">
        <ele>3.218</ele>
        <time>2026-08-21T15:36:37Z</time>
      </trkpt>
      <trkpt lat="48.680248" lon="-1.506837">
        <ele>3.219</ele>
        <time>2026-08-21T15:36:38Z</time>
      </trkpt>
      <trkpt lat="48.680241" lon="-1.506852">
        <ele>3.232</ele>
        <time>2026-08-21T15:36:39Z</time>
      </trkpt>
      <trkpt lat="48.680235" lon="-1.506867">
        <ele>3.249</ele>
        <time>2026-08-21T15:36:40Z</time>
      </trkpt>
      <trkpt lat="48.680228" lon="-1.506877">
        <ele>3.210</ele>
        <time>2026-08-21T15:36:41Z</time>
      </trkpt>
      <trkpt lat="48.680222" lon="-1.506890">
        <ele>3.294</ele>
        <time>2026-08-21T15:36:42Z</time>
      </trkpt>
      <trkpt lat="48.680217" lon="-1.506904">
        <ele>3.241</ele>
        <time>2026-08-21T15:36:43Z</time>
      </trkpt>
      <trkpt lat="48.680212" lon="-1.506920">
        <ele>3.263</ele>
        <time>2026-08-21T15:36:44Z</time>
      </trkpt>
      <trkpt lat="48.680209" lon="-1.506937">
        <ele>3.244</ele>
        <time>2026-08-21T15:36:45Z</time>
      </trkpt>
      <trkpt lat="48.680203" lon="-1.506949">
        <ele>3.218</ele>
        <time>2026-08-21T15:36:46Z</time>
      </trkpt>
      <trkpt lat="48.680200" lon="-1.506963">
        <ele>3.309</ele>
        <time>2026-08-21T15:36:48Z</time>
      </trkpt>
      <trkpt lat="48.680192" lon="-1.506986">
        <ele>3.338</ele>
        <time>2026-08-21T15:36:50Z</time>
      </trkpt>
      <trkpt lat="48.680185" lon="-1.507002">
        <ele>3.454</ele>
        <time>2026-08-21T15:36:52Z</time>
      </trkpt>
      <trkpt lat="48.680176" lon="-1.507018">
        <ele>3.457</ele>
        <time>2026-08-21T15:36:54Z</time>
      </trkpt>
      <trkpt lat="48.680170" lon="-1.507032">
        <ele>3.478</ele>
        <time>2026-08-21T15:36:55Z</time>
      </trkpt>
      <trkpt lat="48.680163" lon="-1.507049">
        <ele>3.461</ele>
        <time>2026-08-21T15:36:56Z</time>
      </trkpt>
      <trkpt lat="48.680158" lon="-1.507062">
        <ele>3.368</ele>
        <time>2026-08-21T15:36:57Z</time>
      </trkpt>
      <trkpt lat="48.680148" lon="-1.507083">
        <ele>3.389</ele>
        <time>2026-08-21T15:36:59Z</time>
      </trkpt>
      <trkpt lat="48.680145" lon="-1.507099">
        <ele>3.313</ele>
        <time>2026-08-21T15:37:00Z</time>
      </trkpt>
      <trkpt lat="48.680141" lon="-1.507116">
        <ele>3.350</ele>
        <time>2026-08-21T15:37:01Z</time>
      </trkpt>
      <trkpt lat="48.680136" lon="-1.507130">
        <ele>3.343</ele>
        <time>2026-08-21T15:37:02Z</time>
      </trkpt>
      <trkpt lat="48.680131" lon="-1.507142">
        <ele>3.364</ele>
        <time>2026-08-21T15:37:03Z</time>
      </trkpt>
      <trkpt lat="48.680124" lon="-1.507157">
        <ele>3.310</ele>
        <time>2026-08-21T15:37:04Z</time>
      </trkpt>
      <trkpt lat="48.680119" lon="-1.507177">
        <ele>3.309</ele>
        <time>2026-08-21T15:37:05Z</time>
      </trkpt>
      <trkpt lat="48.680114" lon="-1.507195">
        <ele>3.396</ele>
        <time>2026-08-21T15:37:06Z</time>
      </trkpt>
      <trkpt lat="48.680109" lon="-1.507214">
        <ele>3.382</ele>
        <time>2026-08-21T15:37:08Z</time>
      </trkpt>
      <trkpt lat="48.680098" lon="-1.507229">
        <ele>3.395</ele>
        <time>2026-08-21T15:37:10Z</time>
      </trkpt>
      <trkpt lat="48.680090" lon="-1.507248">
        <ele>3.396</ele>
        <time>2026-08-21T15:37:12Z</time>
      </trkpt>
      <trkpt lat="48.680080" lon="-1.507265">
        <ele>3.279</ele>
        <time>2026-08-21T15:37:14Z</time>
      </trkpt>
      <trkpt lat="48.680073" lon="-1.507280">
        <ele>3.226</ele>
        <time>2026-08-21T15:37:16Z</time>
      </trkpt>
      <trkpt lat="48.680068" lon="-1.507298">
        <ele>3.277</ele>
        <time>2026-08-21T15:37:18Z</time>
      </trkpt>
      <trkpt lat="48.680059" lon="-1.507319">
        <ele>3.271</ele>
        <time>2026-08-21T15:37:20Z</time>
      </trkpt>
      <trkpt lat="48.680052" lon="-1.507333">
        <ele>3.118</ele>
        <time>2026-08-21T15:37:21Z</time>
      </trkpt>
      <trkpt lat="48.680044" lon="-1.507350">
        <ele>3.162</ele>
        <time>2026-08-21T15:37:23Z</time>
      </trkpt>
      <trkpt lat="48.680036" lon="-1.507369">
        <ele>3.083</ele>
        <time>2026-08-21T15:37:25Z</time>
      </trkpt>
      <trkpt lat="48.680031" lon="-1.507382">
        <ele>3.011</ele>
        <time>2026-08-21T15:37:26Z</time>
      </trkpt>
      <trkpt lat="48.680021" lon="-1.507401">
        <ele>2.909</ele>
        <time>2026-08-21T15:37:28Z</time>
      </trkpt>
      <trkpt lat="48.680015" lon="-1.507415">
        <ele>2.998</ele>
        <time>2026-08-21T15:37:29Z</time>
      </trkpt>
      <trkpt lat="48.680009" lon="-1.507428">
        <ele>2.894</ele>
        <time>2026-08-21T15:37:30Z</time>
      </trkpt>
      <trkpt lat="48.680005" lon="-1.507442">
        <ele>2.867</ele>
        <time>2026-08-21T15:37:31Z</time>
      </trkpt>
      <trkpt lat="48.679999" lon="-1.507457">
        <ele>2.718</ele>
        <time>2026-08-21T15:37:33Z</time>
      </trkpt>
      <trkpt lat="48.679991" lon="-1.507480">
        <ele>2.791</ele>
        <time>2026-08-21T15:37:35Z</time>
      </trkpt>
      <trkpt lat="48.679985" lon="-1.507494">
        <ele>2.748</ele>
        <time>2026-08-21T15:37:37Z</time>
      </trkpt>
      <trkpt lat="48.679980" lon="-1.507511">
        <ele>2.759</ele>
        <time>2026-08-21T15:37:39Z</time>
      </trkpt>
      <trkpt lat="48.679975" lon="-1.507528">
        <ele>2.613</ele>
        <time>2026-08-21T15:37:41Z</time>
      </trkpt>
      <trkpt lat="48.679971" lon="-1.507545">
        <ele>2.650</ele>
        <time>2026-08-21T15:37:42Z</time>
      </trkpt>
      <trkpt lat="48.679963" lon="-1.507564">
        <ele>2.672</ele>
        <time>2026-08-21T15:37:44Z</time>
      </trkpt>
      <trkpt lat="48.679955" lon="-1.507575">
        <ele>2.613</ele>
        <time>2026-08-21T15:37:45Z</time>
      </trkpt>
      <trkpt lat="48.679949" lon="-1.507594">
        <ele>2.614</ele>
        <time>2026-08-21T15:37:47Z</time>
      </trkpt>
      <trkpt lat="48.679944" lon="-1.507606">
        <ele>2.609</ele>
        <time>2026-08-21T15:37:48Z</time>
      </trkpt>
      <trkpt lat="48.679939" lon="-1.507622">
        <ele>2.689</ele>
        <time>2026-08-21T15:37:49Z</time>
      </trkpt>
      <trkpt lat="48.679936" lon="-1.507636">
        <ele>2.665</ele>
        <time>2026-08-21T15:37:50Z</time>
      </trkpt>
      <trkpt lat="48.679930" lon="-1.507654">
        <ele>2.658</ele>
        <time>2026-08-21T15:37:52Z</time>
      </trkpt>
      <trkpt lat="48.679924" lon="-1.507667">
        <ele>2.629</ele>
        <time>2026-08-21T15:37:53Z</time>
      </trkpt>
      <trkpt lat="48.679918" lon="-1.507685">
        <ele>2.642</ele>
        <time>2026-08-21T15:37:54Z</time>
      </trkpt>
      <trkpt lat="48.679912" lon="-1.507698">
        <ele>2.629</ele>
        <time>2026-08-21T15:37:55Z</time>
      </trkpt>
      <trkpt lat="48.679906" lon="-1.507710">
        <ele>2.540</ele>
        <time>2026-08-21T15:37:56Z</time>
      </trkpt>
      <trkpt lat="48.679900" lon="-1.507737">
        <ele>2.544</ele>
        <time>2026-08-21T15:37:58Z</time>
      </trkpt>
      <trkpt lat="48.679895" lon="-1.507754">
        <ele>2.521</ele>
        <time>2026-08-21T15:37:59Z</time>
      </trkpt>
      <trkpt lat="48.679892" lon="-1.507770">
        <ele>2.584</ele>
        <time>2026-08-21T15:38:00Z</time>
      </trkpt>
      <trkpt lat="48.679887" lon="-1.507785">
        <ele>2.507</ele>
        <time>2026-08-21T15:38:02Z</time>
      </trkpt>
      <trkpt lat="48.679882" lon="-1.507798">
        <ele>2.517</ele>
        <time>2026-08-21T15:38:03Z</time>
      </trkpt>
      <trkpt lat="48.679877" lon="-1.507815">
        <ele>2.509</ele>
        <time>2026-08-21T15:38:04Z</time>
      </trkpt>
      <trkpt lat="48.679870" lon="-1.507837">
        <ele>2.570</ele>
        <time>2026-08-21T15:38:05Z</time>
      </trkpt>
      <trkpt lat="48.679863" lon="-1.507856">
        <ele>2.536</ele>
        <time>2026-08-21T15:38:06Z</time>
      </trkpt>
      <trkpt lat="48.679859" lon="-1.507869">
        <ele>2.589</ele>
        <time>2026-08-21T15:38:07Z</time>
      </trkpt>
      <trkpt lat="48.679850" lon="-1.507893">
        <ele>2.520</ele>
        <time>2026-08-21T15:38:09Z</time>
      </trkpt>
      <trkpt lat="48.679844" lon="-1.507910">
        <ele>2.563</ele>
        <time>2026-08-21T15:38:10Z</time>
      </trkpt>
      <trkpt lat="48.679836" lon="-1.507931">
        <ele>2.510</ele>
        <time>2026-08-21T15:38:11Z</time>
      </trkpt>
      <trkpt lat="48.679829" lon="-1.507954">
        <ele>2.531</ele>
        <time>2026-08-21T15:38:12Z</time>
      </trkpt>
      <trkpt lat="48.679823" lon="-1.507973">
        <ele>2.575</ele>
        <time>2026-08-21T15:38:13Z</time>
      </trkpt>
      <trkpt lat="48.679812" lon="-1.507993">
        <ele>2.522</ele>
        <time>2026-08-21T15:38:15Z</time>
      </trkpt>
      <trkpt lat="48.679806" lon="-1.508007">
        <ele>2.516</ele>
        <time>2026-08-21T15:38:16Z</time>
      </trkpt>
      <trkpt lat="48.679802" lon="-1.508025">
        <ele>2.576</ele>
        <time>2026-08-21T15:38:17Z</time>
      </trkpt>
      <trkpt lat="48.679797" lon="-1.508046">
        <ele>2.513</ele>
        <time>2026-08-21T15:38:18Z</time>
      </trkpt>
      <trkpt lat="48.679794" lon="-1.508063">
        <ele>2.509</ele>
        <time>2026-08-21T15:38:19Z</time>
      </trkpt>
      <trkpt lat="48.679782" lon="-1.508085">
        <ele>2.593</ele>
        <time>2026-08-21T15:38:21Z</time>
      </trkpt>
      <trkpt lat="48.679776" lon="-1.508098">
        <ele>2.679</ele>
        <time>2026-08-21T15:38:22Z</time>
      </trkpt>
      <trkpt lat="48.679769" lon="-1.508117">
        <ele>2.652</ele>
        <time>2026-08-21T15:38:23Z</time>
      </trkpt>
      <trkpt lat="48.679763" lon="-1.508139">
        <ele>2.653</ele>
        <time>2026-08-21T15:38:24Z</time>
      </trkpt>
      <trkpt lat="48.679757" lon="-1.508160">
        <ele>2.776</ele>
        <time>2026-08-21T15:38:25Z</time>
      </trkpt>
      <trkpt lat="48.679752" lon="-1.508176">
        <ele>2.973</ele>
        <time>2026-08-21T15:38:26Z</time>
      </trkpt>
      <trkpt lat="48.679748" lon="-1.508188">
        <ele>3.054</ele>
        <time>2026-08-21T15:38:27Z</time>
      </trkpt>
      <trkpt lat="48.679737" lon="-1.508213">
        <ele>3.028</ele>
        <time>2026-08-21T15:38:29Z</time>
      </trkpt>
      <trkpt lat="48.679731" lon="-1.508232">
        <ele>3.025</ele>
        <time>2026-08-21T15:38:30Z</time>
      </trkpt>
      <trkpt lat="48.679723" lon="-1.508254">
        <ele>3.082</ele>
        <time>2026-08-21T15:38:31Z</time>
      </trkpt>
      <trkpt lat="48.679716" lon="-1.508279">
        <ele>3.043</ele>
        <time>2026-08-21T15:38:32Z</time>
      </trkpt>
      <trkpt lat="48.679709" lon="-1.508298">
        <ele>3.117</ele>
        <time>2026-08-21T15:38:33Z</time>
      </trkpt>
      <trkpt lat="48.679701" lon="-1.508310">
        <ele>3.109</ele>
        <time>2026-08-21T15:38:34Z</time>
      </trkpt>
      <trkpt lat="48.679692" lon="-1.508322">
        <ele>3.160</ele>
        <time>2026-08-21T15:38:35Z</time>
      </trkpt>
      <trkpt lat="48.679689" lon="-1.508336">
        <ele>3.166</ele>
        <time>2026-08-21T15:38:36Z</time>
      </trkpt>
      <trkpt lat="48.679686" lon="-1.508352">
        <ele>3.139</ele>
        <time>2026-08-21T15:38:37Z</time>
      </trkpt>
      <trkpt lat="48.679680" lon="-1.508370">
        <ele>3.260</ele>
        <time>2026-08-21T15:38:38Z</time>
      </trkpt>
      <trkpt lat="48.679673" lon="-1.508389">
        <ele>3.253</ele>
        <time>2026-08-21T15:38:39Z</time>
      </trkpt>
      <trkpt lat="48.679664" lon="-1.508407">
        <ele>3.230</ele>
        <time>2026-08-21T15:38:40Z</time>
      </trkpt>
      <trkpt lat="48.679658" lon="-1.508423">
        <ele>3.251</ele>
        <time>2026-08-21T15:38:41Z</time>
      </trkpt>
      <trkpt lat="48.679651" lon="-1.508437">
        <ele>3.225</ele>
        <time>2026-08-21T15:38:42Z</time>
      </trkpt>
      <trkpt lat="48.679641" lon="-1.508463">
        <ele>3.312</ele>
        <time>2026-08-21T15:38:44Z</time>
      </trkpt>
      <trkpt lat="48.679634" lon="-1.508481">
        <ele>3.375</ele>
        <time>2026-08-21T15:38:45Z</time>
      </trkpt>
      <trkpt lat="48.679626" lon="-1.508501">
        <ele>3.428</ele>
        <time>2026-08-21T15:38:46Z</time>
      </trkpt>
      <trkpt lat="48.679622" lon="-1.508522">
        <ele>3.420</ele>
        <time>2026-08-21T15:38:47Z</time>
      </trkpt>
      <trkpt lat="48.679618" lon="-1.508541">
        <ele>3.409</ele>
        <time>2026-08-21T15:38:48Z</time>
      </trkpt>
      <trkpt lat="48.679612" lon="-1.508556">
        <ele>3.439</ele>
        <time>2026-08-21T15:38:49Z</time>
      </trkpt>
      <trkpt lat="48.679605" lon="-1.508567">
        <ele>3.465</ele>
        <time>2026-08-21T15:38:50Z</time>
      </trkpt>
      <trkpt lat="48.679601" lon="-1.508581">
        <ele>3.538</ele>
        <time>2026-08-21T15:38:51Z</time>
      </trkpt>
      <trkpt lat="48.679594" lon="-1.508593">
        <ele>3.529</ele>
        <time>2026-08-21T15:38:52Z</time>
      </trkpt>
      <trkpt lat="48.679585" lon="-1.508609">
        <ele>3.582</ele>
        <time>2026-08-21T15:38:53Z</time>
      </trkpt>
      <trkpt lat="48.679577" lon="-1.508630">
        <ele>3.519</ele>
        <time>2026-08-21T15:38:54Z</time>
      </trkpt>
      <trkpt lat="48.679570" lon="-1.508649">
        <ele>3.550</ele>
        <time>2026-08-21T15:38:55Z</time>
      </trkpt>
      <trkpt lat="48.679561" lon="-1.508665">
        <ele>3.524</ele>
        <time>2026-08-21T15:38:56Z</time>
      </trkpt>
      <trkpt lat="48.679553" lon="-1.508679">
        <ele>3.511</ele>
        <time>2026-08-21T15:38:57Z</time>
      </trkpt>
      <trkpt lat="48.679544" lon="-1.508687">
        <ele>3.562</ele>
        <time>2026-08-21T15:38:58Z</time>
      </trkpt>
      <trkpt lat="48.679536" lon="-1.508696">
        <ele>3.583</ele>
        <time>2026-08-21T15:38:59Z</time>
      </trkpt>
      <trkpt lat="48.679530" lon="-1.508711">
        <ele>3.511</ele>
        <time>2026-08-21T15:39:00Z</time>
      </trkpt>
      <trkpt lat="48.679521" lon="-1.508730">
        <ele>3.509</ele>
        <time>2026-08-21T15:39:01Z</time>
      </trkpt>
      <trkpt lat="48.679515" lon="-1.508753">
        <ele>3.568</ele>
        <time>2026-08-21T15:39:02Z</time>
      </trkpt>
      <trkpt lat="48.679511" lon="-1.508775">
        <ele>3.544</ele>
        <time>2026-08-21T15:39:03Z</time>
      </trkpt>
      <trkpt lat="48.679505" lon="-1.508792">
        <ele>3.577</ele>
        <time>2026-08-21T15:39:04Z</time>
      </trkpt>
      <trkpt lat="48.679502" lon="-1.508805">
        <ele>3.428</ele>
        <time>2026-08-21T15:39:05Z</time>
      </trkpt>
      <trkpt lat="48.679496" lon="-1.508819">
        <ele>3.481</ele>
        <time>2026-08-21T15:39:06Z</time>
      </trkpt>
      <trkpt lat="48.679490" lon="-1.508830">
        <ele>3.418</ele>
        <time>2026-08-21T15:39:07Z</time>
      </trkpt>
      <trkpt lat="48.679483" lon="-1.508841">
        <ele>3.429</ele>
        <time>2026-08-21T15:39:08Z</time>
      </trkpt>
      <trkpt lat="48.679474" lon="-1.508852">
        <ele>3.363</ele>
        <time>2026-08-21T15:39:09Z</time>
      </trkpt>
      <trkpt lat="48.679466" lon="-1.508866">
        <ele>3.380</ele>
        <time>2026-08-21T15:39:10Z</time>
      </trkpt>
      <trkpt lat="48.679458" lon="-1.508884">
        <ele>3.373</ele>
        <time>2026-08-21T15:39:11Z</time>
      </trkpt>
      <trkpt lat="48.679451" lon="-1.508899">
        <ele>3.285</ele>
        <time>2026-08-21T15:39:12Z</time>
      </trkpt>
      <trkpt lat="48.679445" lon="-1.508914">
        <ele>3.113</ele>
        <time>2026-08-21T15:39:13Z</time>
      </trkpt>
      <trkpt lat="48.679437" lon="-1.508923">
        <ele>2.909</ele>
        <time>2026-08-21T15:39:14Z</time>
      </trkpt>
      <trkpt lat="48.679422" lon="-1.508934">
        <ele>2.869</ele>
        <time>2026-08-21T15:39:16Z</time>
      </trkpt>
      <trkpt lat="48.679412" lon="-1.508948">
        <ele>2.735</ele>
        <time>2026-08-21T15:39:17Z</time>
      </trkpt>
      <trkpt lat="48.679403" lon="-1.508964">
        <ele>2.528</ele>
        <time>2026-08-21T15:39:18Z</time>
      </trkpt>
      <trkpt lat="48.679394" lon="-1.508979">
        <ele>2.419</ele>
        <time>2026-08-21T15:39:19Z</time>
      </trkpt>
      <trkpt lat="48.679389" lon="-1.508991">
        <ele>2.452</ele>
        <time>2026-08-21T15:39:20Z</time>
      </trkpt>
      <trkpt lat="48.679379" lon="-1.509015">
        <ele>2.449</ele>
        <time>2026-08-21T15:39:22Z</time>
      </trkpt>
      <trkpt lat="48.679371" lon="-1.509031">
        <ele>2.490</ele>
        <time>2026-08-21T15:39:23Z</time>
      </trkpt>
      <trkpt lat="48.679364" lon="-1.509050">
        <ele>2.424</ele>
        <time>2026-08-21T15:39:24Z</time>
      </trkpt>
      <trkpt lat="48.679355" lon="-1.509068">
        <ele>2.491</ele>
        <time>2026-08-21T15:39:25Z</time>
      </trkpt>
      <trkpt lat="48.679346" lon="-1.509081">
        <ele>2.475</ele>
        <time>2026-08-21T15:39:26Z</time>
      </trkpt>
      <trkpt lat="48.679334" lon="-1.509101">
        <ele>2.428</ele>
        <time>2026-08-21T15:39:28Z</time>
      </trkpt>
      <trkpt lat="48.679329" lon="-1.509115">
        <ele>2.420</ele>
        <time>2026-08-21T15:39:29Z</time>
      </trkpt>
      <trkpt lat="48.679321" lon="-1.509134">
        <ele>2.409</ele>
        <time>2026-08-21T15:39:30Z</time>
      </trkpt>
      <trkpt lat="48.679313" lon="-1.509152">
        <ele>2.459</ele>
        <time>2026-08-21T15:39:31Z</time>
      </trkpt>
      <trkpt lat="48.679303" lon="-1.509162">
        <ele>2.435</ele>
        <time>2026-08-21T15:39:32Z</time>
      </trkpt>
      <trkpt lat="48.679294" lon="-1.509168">
        <ele>2.468</ele>
        <time>2026-08-21T15:39:33Z</time>
      </trkpt>
      <trkpt lat="48.679280" lon="-1.509187">
        <ele>2.489</ele>
        <time>2026-08-21T15:39:35Z</time>
      </trkpt>
      <trkpt lat="48.679273" lon="-1.509203">
        <ele>2.432</ele>
        <time>2026-08-21T15:39:36Z</time>
      </trkpt>
      <trkpt lat="48.679268" lon="-1.509221">
        <ele>2.419</ele>
        <time>2026-08-21T15:39:37Z</time>
      </trkpt>
      <trkpt lat="48.679260" lon="-1.509239">
        <ele>2.410</ele>
        <time>2026-08-21T15:39:38Z</time>
      </trkpt>
      <trkpt lat="48.679253" lon="-1.509255">
        <ele>2.474</ele>
        <time>2026-08-21T15:39:39Z</time>
      </trkpt>
      <trkpt lat="48.679248" lon="-1.509268">
        <ele>2.421</ele>
        <time>2026-08-21T15:39:40Z</time>
      </trkpt>
      <trkpt lat="48.679242" lon="-1.509278">
        <ele>2.474</ele>
        <time>2026-08-21T15:39:41Z</time>
      </trkpt>
      <trkpt lat="48.679236" lon="-1.509290">
        <ele>2.556</ele>
        <time>2026-08-21T15:39:42Z</time>
      </trkpt>
      <trkpt lat="48.679227" lon="-1.509306">
        <ele>2.621</ele>
        <time>2026-08-21T15:39:43Z</time>
      </trkpt>
      <trkpt lat="48.679217" lon="-1.509322">
        <ele>2.609</ele>
        <time>2026-08-21T15:39:44Z</time>
      </trkpt>
      <trkpt lat="48.679207" lon="-1.509340">
        <ele>2.689</ele>
        <time>2026-08-21T15:39:45Z</time>
      </trkpt>
      <trkpt lat="48.679199" lon="-1.509354">
        <ele>2.685</ele>
        <time>2026-08-21T15:39:46Z</time>
      </trkpt>
      <trkpt lat="48.679193" lon="-1.509367">
        <ele>2.728</ele>
        <time>2026-08-21T15:39:47Z</time>
      </trkpt>
      <trkpt lat="48.679187" lon="-1.509379">
        <ele>2.779</ele>
        <time>2026-08-21T15:39:48Z</time>
      </trkpt>
      <trkpt lat="48.679180" lon="-1.509390">
        <ele>2.822</ele>
        <time>2026-08-21T15:39:49Z</time>
      </trkpt>
      <trkpt lat="48.679172" lon="-1.509407">
        <ele>2.859</ele>
        <time>2026-08-21T15:39:50Z</time>
      </trkpt>
      <trkpt lat="48.679165" lon="-1.509425">
        <ele>2.960</ele>
        <time>2026-08-21T15:39:51Z</time>
      </trkpt>
      <trkpt lat="48.679158" lon="-1.509443">
        <ele>2.934</ele>
        <time>2026-08-21T15:39:52Z</time>
      </trkpt>
      <trkpt lat="48.679151" lon="-1.509459">
        <ele>3.021</ele>
        <time>2026-08-21T15:39:53Z</time>
      </trkpt>
      <trkpt lat="48.679143" lon="-1.509472">
        <ele>3.188</ele>
        <time>2026-08-21T15:39:54Z</time>
      </trkpt>
      <trkpt lat="48.679137" lon="-1.509483">
        <ele>3.224</ele>
        <time>2026-08-21T15:39:55Z</time>
      </trkpt>
      <trkpt lat="48.679131" lon="-1.509495">
        <ele>3.226</ele>
        <time>2026-08-21T15:39:56Z</time>
      </trkpt>
      <trkpt lat="48.679124" lon="-1.509510">
        <ele>3.209</ele>
        <time>2026-08-21T15:39:57Z</time>
      </trkpt>
      <trkpt lat="48.679116" lon="-1.509529">
        <ele>3.250</ele>
        <time>2026-08-21T15:39:58Z</time>
      </trkpt>
      <trkpt lat="48.679109" lon="-1.509547">
        <ele>3.276</ele>
        <time>2026-08-21T15:39:59Z</time>
      </trkpt>
      <trkpt lat="48.679102" lon="-1.509568">
        <ele>3.219</ele>
        <time>2026-08-21T15:40:00Z</time>
      </trkpt>
      <trkpt lat="48.679097" lon="-1.509583">
        <ele>3.270</ele>
        <time>2026-08-21T15:40:01Z</time>
      </trkpt>
      <trkpt lat="48.679087" lon="-1.509606">
        <ele>3.243</ele>
        <time>2026-08-21T15:40:03Z</time>
      </trkpt>
      <trkpt lat="48.679081" lon="-1.509618">
        <ele>3.280</ele>
        <time>2026-08-21T15:40:04Z</time>
      </trkpt>
      <trkpt lat="48.679073" lon="-1.509633">
        <ele>3.251</ele>
        <time>2026-08-21T15:40:05Z</time>
      </trkpt>
      <trkpt lat="48.679066" lon="-1.509654">
        <ele>3.275</ele>
        <time>2026-08-21T15:40:06Z</time>
      </trkpt>
      <trkpt lat="48.679058" lon="-1.509673">
        <ele>3.242</ele>
        <time>2026-08-21T15:40:07Z</time>
      </trkpt>
      <trkpt lat="48.679052" lon="-1.509688">
        <ele>3.285</ele>
        <time>2026-08-21T15:40:08Z</time>
      </trkpt>
      <trkpt lat="48.679045" lon="-1.509699">
        <ele>3.289</ele>
        <time>2026-08-21T15:40:09Z</time>
      </trkpt>
      <trkpt lat="48.679039" lon="-1.509709">
        <ele>3.217</ele>
        <time>2026-08-21T15:40:10Z</time>
      </trkpt>
      <trkpt lat="48.679033" lon="-1.509723">
        <ele>3.109</ele>
        <time>2026-08-21T15:40:11Z</time>
      </trkpt>
      <trkpt lat="48.679025" lon="-1.509743">
        <ele>3.130</ele>
        <time>2026-08-21T15:40:12Z</time>
      </trkpt>
      <trkpt lat="48.679019" lon="-1.509763">
        <ele>3.136</ele>
        <time>2026-08-21T15:40:13Z</time>
      </trkpt>
      <trkpt lat="48.679010" lon="-1.509779">
        <ele>3.169</ele>
        <time>2026-08-21T15:40:14Z</time>
      </trkpt>
      <trkpt lat="48.679001" lon="-1.509791">
        <ele>3.070</ele>
        <time>2026-08-21T15:40:15Z</time>
      </trkpt>
      <trkpt lat="48.678994" lon="-1.509804">
        <ele>3.073</ele>
        <time>2026-08-21T15:40:16Z</time>
      </trkpt>
      <trkpt lat="48.678987" lon="-1.509829">
        <ele>3.060</ele>
        <time>2026-08-21T15:40:18Z</time>
      </trkpt>
      <trkpt lat="48.678981" lon="-1.509846">
        <ele>3.021</ele>
        <time>2026-08-21T15:40:19Z</time>
      </trkpt>
      <trkpt lat="48.678973" lon="-1.509866">
        <ele>3.045</ele>
        <time>2026-08-21T15:40:20Z</time>
      </trkpt>
      <trkpt lat="48.678965" lon="-1.509884">
        <ele>3.082</ele>
        <time>2026-08-21T15:40:21Z</time>
      </trkpt>
      <trkpt lat="48.678957" lon="-1.509899">
        <ele>3.097</ele>
        <time>2026-08-21T15:40:22Z</time>
      </trkpt>
      <trkpt lat="48.678948" lon="-1.509909">
        <ele>3.023</ele>
        <time>2026-08-21T15:40:23Z</time>
      </trkpt>
      <trkpt lat="48.678941" lon="-1.509921">
        <ele>3.025</ele>
        <time>2026-08-21T15:40:24Z</time>
      </trkpt>
      <trkpt lat="48.678937" lon="-1.509934">
        <ele>3.009</ele>
        <time>2026-08-21T15:40:25Z</time>
      </trkpt>
      <trkpt lat="48.678929" lon="-1.509950">
        <ele>3.081</ele>
        <time>2026-08-21T15:40:26Z</time>
      </trkpt>
      <trkpt lat="48.678923" lon="-1.509967">
        <ele>3.087</ele>
        <time>2026-08-21T15:40:27Z</time>
      </trkpt>
      <trkpt lat="48.678916" lon="-1.509983">
        <ele>3.010</ele>
        <time>2026-08-21T15:40:28Z</time>
      </trkpt>
      <trkpt lat="48.678910" lon="-1.509995">
        <ele>3.081</ele>
        <time>2026-08-21T15:40:29Z</time>
      </trkpt>
      <trkpt lat="48.678897" lon="-1.510003">
        <ele>3.064</ele>
        <time>2026-08-21T15:40:31Z</time>
      </trkpt>
      <trkpt lat="48.678889" lon="-1.510014">
        <ele>3.051</ele>
        <time>2026-08-21T15:40:32Z</time>
      </trkpt>
      <trkpt lat="48.678881" lon="-1.510026">
        <ele>3.132</ele>
        <time>2026-08-21T15:40:33Z</time>
      </trkpt>
      <trkpt lat="48.678875" lon="-1.510043">
        <ele>3.136</ele>
        <time>2026-08-21T15:40:34Z</time>
      </trkpt>
      <trkpt lat="48.678872" lon="-1.510061">
        <ele>3.113</ele>
        <time>2026-08-21T15:40:35Z</time>
      </trkpt>
      <trkpt lat="48.678866" lon="-1.510080">
        <ele>3.185</ele>
        <time>2026-08-21T15:40:36Z</time>
      </trkpt>
      <trkpt lat="48.678859" lon="-1.510094">
        <ele>3.189</ele>
        <time>2026-08-21T15:40:37Z</time>
      </trkpt>
      <trkpt lat="48.678849" lon="-1.510104">
        <ele>3.117</ele>
        <time>2026-08-21T15:40:38Z</time>
      </trkpt>
      <trkpt lat="48.678840" lon="-1.510113">
        <ele>3.109</ele>
        <time>2026-08-21T15:40:39Z</time>
      </trkpt>
      <trkpt lat="48.678832" lon="-1.510123">
        <ele>3.180</ele>
        <time>2026-08-21T15:40:40Z</time>
      </trkpt>
      <trkpt lat="48.678824" lon="-1.510138">
        <ele>3.126</ele>
        <time>2026-08-21T15:40:41Z</time>
      </trkpt>
      <trkpt lat="48.678817" lon="-1.510156">
        <ele>3.179</ele>
        <time>2026-08-21T15:40:42Z</time>
      </trkpt>
      <trkpt lat="48.678810" lon="-1.510176">
        <ele>3.190</ele>
        <time>2026-08-21T15:40:43Z</time>
      </trkpt>
      <trkpt lat="48.678802" lon="-1.510194">
        <ele>3.163</ele>
        <time>2026-08-21T15:40:44Z</time>
      </trkpt>
      <trkpt lat="48.678795" lon="-1.510209">
        <ele>3.130</ele>
        <time>2026-08-21T15:40:45Z</time>
      </trkpt>
      <trkpt lat="48.678789" lon="-1.510221">
        <ele>3.191</ele>
        <time>2026-08-21T15:40:46Z</time>
      </trkpt>
      <trkpt lat="48.678780" lon="-1.510229">
        <ele>3.195</ele>
        <time>2026-08-21T15:40:47Z</time>
      </trkpt>
      <trkpt lat="48.678767" lon="-1.510251">
        <ele>3.192</ele>
        <time>2026-08-21T15:40:49Z</time>
      </trkpt>
      <trkpt lat="48.678759" lon="-1.510272">
        <ele>3.196</ele>
        <time>2026-08-21T15:40:50Z</time>
      </trkpt>
      <trkpt lat="48.678751" lon="-1.510294">
        <ele>3.031</ele>
        <time>2026-08-21T15:40:51Z</time>
      </trkpt>
      <trkpt lat="48.678744" lon="-1.510315">
        <ele>3.124</ele>
        <time>2026-08-21T15:40:52Z</time>
      </trkpt>
      <trkpt lat="48.678735" lon="-1.510329">
        <ele>3.109</ele>
        <time>2026-08-21T15:40:53Z</time>
      </trkpt>
      <trkpt lat="48.678725" lon="-1.510349">
        <ele>3.151</ele>
        <time>2026-08-21T15:40:55Z</time>
      </trkpt>
      <trkpt lat="48.678716" lon="-1.510355">
        <ele>3.057</ele>
        <time>2026-08-21T15:40:56Z</time>
      </trkpt>
      <trkpt lat="48.678708" lon="-1.510369">
        <ele>3.070</ele>
        <time>2026-08-21T15:40:57Z</time>
      </trkpt>
      <trkpt lat="48.678700" lon="-1.510384">
        <ele>3.051</ele>
        <time>2026-08-21T15:40:58Z</time>
      </trkpt>
      <trkpt lat="48.678690" lon="-1.510403">
        <ele>2.924</ele>
        <time>2026-08-21T15:40:59Z</time>
      </trkpt>
      <trkpt lat="48.678682" lon="-1.510421">
        <ele>2.971</ele>
        <time>2026-08-21T15:41:00Z</time>
      </trkpt>
      <trkpt lat="48.678673" lon="-1.510439">
        <ele>2.962</ele>
        <time>2026-08-21T15:41:01Z</time>
      </trkpt>
      <trkpt lat="48.678664" lon="-1.510452">
        <ele>2.816</ele>
        <time>2026-08-21T15:41:02Z</time>
      </trkpt>
      <trkpt lat="48.678656" lon="-1.510462">
        <ele>2.843</ele>
        <time>2026-08-21T15:41:03Z</time>
      </trkpt>
      <trkpt lat="48.678648" lon="-1.510472">
        <ele>2.851</ele>
        <time>2026-08-21T15:41:04Z</time>
      </trkpt>
      <trkpt lat="48.678644" lon="-1.510484">
        <ele>2.801</ele>
        <time>2026-08-21T15:41:05Z</time>
      </trkpt>
      <trkpt lat="48.678637" lon="-1.510497">
        <ele>2.811</ele>
        <time>2026-08-21T15:41:06Z</time>
      </trkpt>
      <trkpt lat="48.678630" lon="-1.510513">
        <ele>2.809</ele>
        <time>2026-08-21T15:41:07Z</time>
      </trkpt>
      <trkpt lat="48.678623" lon="-1.510530">
        <ele>2.827</ele>
        <time>2026-08-21T15:41:08Z</time>
      </trkpt>
      <trkpt lat="48.678614" lon="-1.510540">
        <ele>2.873</ele>
        <time>2026-08-21T15:41:09Z</time>
      </trkpt>
      <trkpt lat="48.678605" lon="-1.510552">
        <ele>2.976</ele>
        <time>2026-08-21T15:41:10Z</time>
      </trkpt>
      <trkpt lat="48.678597" lon="-1.510560">
        <ele>2.937</ele>
        <time>2026-08-21T15:41:11Z</time>
      </trkpt>
      <trkpt lat="48.678592" lon="-1.510571">
        <ele>2.930</ele>
        <time>2026-08-21T15:41:12Z</time>
      </trkpt>
      <trkpt lat="48.678585" lon="-1.510590">
        <ele>2.817</ele>
        <time>2026-08-21T15:41:13Z</time>
      </trkpt>
      <trkpt lat="48.678576" lon="-1.510607">
        <ele>2.888</ele>
        <time>2026-08-21T15:41:14Z</time>
      </trkpt>
      <trkpt lat="48.678567" lon="-1.510623">
        <ele>2.852</ele>
        <time>2026-08-21T15:41:15Z</time>
      </trkpt>
      <trkpt lat="48.678557" lon="-1.510634">
        <ele>2.889</ele>
        <time>2026-08-21T15:41:16Z</time>
      </trkpt>
      <trkpt lat="48.678548" lon="-1.510643">
        <ele>2.869</ele>
        <time>2026-08-21T15:41:17Z</time>
      </trkpt>
      <trkpt lat="48.678536" lon="-1.510665">
        <ele>2.804</ele>
        <time>2026-08-21T15:41:19Z</time>
      </trkpt>
      <trkpt lat="48.678529" lon="-1.510680">
        <ele>2.824</ele>
        <time>2026-08-21T15:41:20Z</time>
      </trkpt>
      <trkpt lat="48.678521" lon="-1.510697">
        <ele>2.809</ele>
        <time>2026-08-21T15:41:21Z</time>
      </trkpt>
      <trkpt lat="48.678514" lon="-1.510711">
        <ele>2.828</ele>
        <time>2026-08-21T15:41:22Z</time>
      </trkpt>
      <trkpt lat="48.678506" lon="-1.510725">
        <ele>2.824</ele>
        <time>2026-08-21T15:41:23Z</time>
      </trkpt>
      <trkpt lat="48.678499" lon="-1.510736">
        <ele>2.737</ele>
        <time>2026-08-21T15:41:24Z</time>
      </trkpt>
      <trkpt lat="48.678490" lon="-1.510763">
        <ele>2.738</ele>
        <time>2026-08-21T15:41:26Z</time>
      </trkpt>
      <trkpt lat="48.678485" lon="-1.510783">
        <ele>2.731</ele>
        <time>2026-08-21T15:41:27Z</time>
      </trkpt>
      <trkpt lat="48.678479" lon="-1.510801">
        <ele>2.798</ele>
        <time>2026-08-21T15:41:28Z</time>
      </trkpt>
      <trkpt lat="48.678471" lon="-1.510814">
        <ele>2.739</ele>
        <time>2026-08-21T15:41:29Z</time>
      </trkpt>
      <trkpt lat="48.678462" lon="-1.510824">
        <ele>2.723</ele>
        <time>2026-08-21T15:41:30Z</time>
      </trkpt>
      <trkpt lat="48.678455" lon="-1.510833">
        <ele>2.730</ele>
        <time>2026-08-21T15:41:31Z</time>
      </trkpt>
      <trkpt lat="48.678449" lon="-1.510846">
        <ele>2.767</ele>
        <time>2026-08-21T15:41:32Z</time>
      </trkpt>
      <trkpt lat="48.678443" lon="-1.510862">
        <ele>2.781</ele>
        <time>2026-08-21T15:41:33Z</time>
      </trkpt>
      <trkpt lat="48.678438" lon="-1.510876">
        <ele>2.719</ele>
        <time>2026-08-21T15:41:34Z</time>
      </trkpt>
      <trkpt lat="48.678432" lon="-1.510891">
        <ele>2.709</ele>
        <time>2026-08-21T15:41:35Z</time>
      </trkpt>
      <trkpt lat="48.678423" lon="-1.510911">
        <ele>2.788</ele>
        <time>2026-08-21T15:41:37Z</time>
      </trkpt>
      <trkpt lat="48.678420" lon="-1.510926">
        <ele>2.724</ele>
        <time>2026-08-21T15:41:38Z</time>
      </trkpt>
      <trkpt lat="48.678413" lon="-1.510943">
        <ele>2.767</ele>
        <time>2026-08-21T15:41:39Z</time>
      </trkpt>
      <trkpt lat="48.678407" lon="-1.510956">
        <ele>2.778</ele>
        <time>2026-08-21T15:41:40Z</time>
      </trkpt>
      <trkpt lat="48.678399" lon="-1.510979">
        <ele>2.781</ele>
        <time>2026-08-21T15:41:42Z</time>
      </trkpt>
      <trkpt lat="48.678397" lon="-1.510993">
        <ele>2.768</ele>
        <time>2026-08-21T15:41:43Z</time>
      </trkpt>
      <trkpt lat="48.678393" lon="-1.511010">
        <ele>2.749</ele>
        <time>2026-08-21T15:41:44Z</time>
      </trkpt>
      <trkpt lat="48.678387" lon="-1.511030">
        <ele>2.783</ele>
        <time>2026-08-21T15:41:46Z</time>
      </trkpt>
      <trkpt lat="48.678382" lon="-1.511053">
        <ele>2.780</ele>
        <time>2026-08-21T15:41:48Z</time>
      </trkpt>
      <trkpt lat="48.678381" lon="-1.511069">
        <ele>2.796</ele>
        <time>2026-08-21T15:41:49Z</time>
      </trkpt>
      <trkpt lat="48.678378" lon="-1.511085">
        <ele>2.631</ele>
        <time>2026-08-21T15:41:50Z</time>
      </trkpt>
      <trkpt lat="48.678374" lon="-1.511100">
        <ele>2.624</ele>
        <time>2026-08-21T15:41:51Z</time>
      </trkpt>
      <trkpt lat="48.678367" lon="-1.511121">
        <ele>2.609</ele>
        <time>2026-08-21T15:41:53Z</time>
      </trkpt>
      <trkpt lat="48.678365" lon="-1.511135">
        <ele>2.651</ele>
        <time>2026-08-21T15:41:54Z</time>
      </trkpt>
      <trkpt lat="48.678362" lon="-1.511151">
        <ele>2.627</ele>
        <time>2026-08-21T15:41:55Z</time>
      </trkpt>
      <trkpt lat="48.678355" lon="-1.511166">
        <ele>2.630</ele>
        <time>2026-08-21T15:41:57Z</time>
      </trkpt>
      <trkpt lat="48.678348" lon="-1.511183">
        <ele>2.591</ele>
        <time>2026-08-21T15:41:59Z</time>
      </trkpt>
      <trkpt lat="48.678342" lon="-1.511194">
        <ele>2.584</ele>
        <time>2026-08-21T15:42:00Z</time>
      </trkpt>
      <trkpt lat="48.678337" lon="-1.511207">
        <ele>2.431</ele>
        <time>2026-08-21T15:42:01Z</time>
      </trkpt>
      <trkpt lat="48.678335" lon="-1.511222">
        <ele>2.342</ele>
        <time>2026-08-21T15:42:02Z</time>
      </trkpt>
      <trkpt lat="48.678334" lon="-1.511239">
        <ele>2.356</ele>
        <time>2026-08-21T15:42:03Z</time>
      </trkpt>
      <trkpt lat="48.678333" lon="-1.511256">
        <ele>2.293</ele>
        <time>2026-08-21T15:42:04Z</time>
      </trkpt>
      <trkpt lat="48.678326" lon="-1.511273">
        <ele>2.241</ele>
        <time>2026-08-21T15:42:06Z</time>
      </trkpt>
      <trkpt lat="48.678320" lon="-1.511284">
        <ele>2.281</ele>
        <time>2026-08-21T15:42:08Z</time>
      </trkpt>
      <trkpt lat="48.678312" lon="-1.511306">
        <ele>2.209</ele>
        <time>2026-08-21T15:42:10Z</time>
      </trkpt>
      <trkpt lat="48.678303" lon="-1.511319">
        <ele>2.109</ele>
        <time>2026-08-21T15:42:12Z</time>
      </trkpt>
      <trkpt lat="48.678296" lon="-1.511340">
        <ele>2.156</ele>
        <time>2026-08-21T15:42:14Z</time>
      </trkpt>
      <trkpt lat="48.678291" lon="-1.511352">
        <ele>2.142</ele>
        <time>2026-08-21T15:42:15Z</time>
      </trkpt>
      <trkpt lat="48.678286" lon="-1.511365">
        <ele>2.125</ele>
        <time>2026-08-21T15:42:16Z</time>
      </trkpt>
      <trkpt lat="48.678274" lon="-1.511382">
        <ele>2.086</ele>
        <time>2026-08-21T15:42:18Z</time>
      </trkpt>
      <trkpt lat="48.678265" lon="-1.511403">
        <ele>1.879</ele>
        <time>2026-08-21T15:42:20Z</time>
      </trkpt>
      <trkpt lat="48.678257" lon="-1.511418">
        <ele>1.836</ele>
        <time>2026-08-21T15:42:21Z</time>
      </trkpt>
      <trkpt lat="48.678251" lon="-1.511434">
        <ele>1.897</ele>
        <time>2026-08-21T15:42:22Z</time>
      </trkpt>
      <trkpt lat="48.678244" lon="-1.511450">
        <ele>1.831</ele>
        <time>2026-08-21T15:42:23Z</time>
      </trkpt>
      <trkpt lat="48.678238" lon="-1.511465">
        <ele>1.728</ele>
        <time>2026-08-21T15:42:24Z</time>
      </trkpt>
      <trkpt lat="48.678227" lon="-1.511486">
        <ele>1.765</ele>
        <time>2026-08-21T15:42:26Z</time>
      </trkpt>
      <trkpt lat="48.678221" lon="-1.511511">
        <ele>1.768</ele>
        <time>2026-08-21T15:42:28Z</time>
      </trkpt>
      <trkpt lat="48.678217" lon="-1.511530">
        <ele>1.614</ele>
        <time>2026-08-21T15:42:29Z</time>
      </trkpt>
      <trkpt lat="48.678213" lon="-1.511549">
        <ele>1.609</ele>
        <time>2026-08-21T15:42:30Z</time>
      </trkpt>
      <trkpt lat="48.678208" lon="-1.511566">
        <ele>1.698</ele>
        <time>2026-08-21T15:42:31Z</time>
      </trkpt>
      <trkpt lat="48.678201" lon="-1.511586">
        <ele>1.554</ele>
        <time>2026-08-21T15:42:33Z</time>
      </trkpt>
      <trkpt lat="48.678191" lon="-1.511611">
        <ele>1.567</ele>
        <time>2026-08-21T15:42:35Z</time>
      </trkpt>
      <trkpt lat="48.678184" lon="-1.511629">
        <ele>1.538</ele>
        <time>2026-08-21T15:42:36Z</time>
      </trkpt>
      <trkpt lat="48.678175" lon="-1.511649">
        <ele>1.541</ele>
        <time>2026-08-21T15:42:37Z</time>
      </trkpt>
      <trkpt lat="48.678170" lon="-1.511663">
        <ele>1.558</ele>
        <time>2026-08-21T15:42:38Z</time>
      </trkpt>
      <trkpt lat="48.678159" lon="-1.511680">
        <ele>1.529</ele>
        <time>2026-08-21T15:42:40Z</time>
      </trkpt>
      <trkpt lat="48.678156" lon="-1.511694">
        <ele>1.533</ele>
        <time>2026-08-21T15:42:41Z</time>
      </trkpt>
      <trkpt lat="48.678154" lon="-1.511710">
        <ele>1.690</ele>
        <time>2026-08-21T15:42:42Z</time>
      </trkpt>
      <trkpt lat="48.678152" lon="-1.511728">
        <ele>1.655</ele>
        <time>2026-08-21T15:42:43Z</time>
      </trkpt>
      <trkpt lat="48.678145" lon="-1.511750">
        <ele>1.607</ele>
        <time>2026-08-21T15:42:45Z</time>
      </trkpt>
      <trkpt lat="48.678140" lon="-1.511763">
        <ele>1.617</ele>
        <time>2026-08-21T15:42:46Z</time>
      </trkpt>
      <trkpt lat="48.678134" lon="-1.511774">
        <ele>1.709</ele>
        <time>2026-08-21T15:42:47Z</time>
      </trkpt>
      <trkpt lat="48.678127" lon="-1.511792">
        <ele>1.787</ele>
        <time>2026-08-21T15:42:48Z</time>
      </trkpt>
      <trkpt lat="48.678118" lon="-1.511811">
        <ele>1.753</ele>
        <time>2026-08-21T15:42:49Z</time>
      </trkpt>
      <trkpt lat="48.678110" lon="-1.511830">
        <ele>1.766</ele>
        <time>2026-08-21T15:42:50Z</time>
      </trkpt>
      <trkpt lat="48.678104" lon="-1.511843">
        <ele>1.817</ele>
        <time>2026-08-21T15:42:51Z</time>
      </trkpt>
      <trkpt lat="48.678092" lon="-1.511861">
        <ele>1.850</ele>
        <time>2026-08-21T15:42:53Z</time>
      </trkpt>
      <trkpt lat="48.678090" lon="-1.511876">
        <ele>1.857</ele>
        <time>2026-08-21T15:42:54Z</time>
      </trkpt>
      <trkpt lat="48.678089" lon="-1.511890">
        <ele>1.928</ele>
        <time>2026-08-21T15:42:55Z</time>
      </trkpt>
      <trkpt lat="48.678085" lon="-1.511907">
        <ele>1.962</ele>
        <time>2026-08-21T15:42:56Z</time>
      </trkpt>
      <trkpt lat="48.678081" lon="-1.511924">
        <ele>1.929</ele>
        <time>2026-08-21T15:42:57Z</time>
      </trkpt>
      <trkpt lat="48.678077" lon="-1.511938">
        <ele>1.916</ele>
        <time>2026-08-21T15:42:58Z</time>
      </trkpt>
      <trkpt lat="48.678070" lon="-1.511947">
        <ele>2.076</ele>
        <time>2026-08-21T15:42:59Z</time>
      </trkpt>
      <trkpt lat="48.678059" lon="-1.511967">
        <ele>2.013</ele>
        <time>2026-08-21T15:43:01Z</time>
      </trkpt>
      <trkpt lat="48.678051" lon="-1.511980">
        <ele>2.009</ele>
        <time>2026-08-21T15:43:02Z</time>
      </trkpt>
      <trkpt lat="48.678044" lon="-1.511998">
        <ele>2.013</ele>
        <time>2026-08-21T15:43:03Z</time>
      </trkpt>
      <trkpt lat="48.678037" lon="-1.512015">
        <ele>2.039</ele>
        <time>2026-08-21T15:43:04Z</time>
      </trkpt>
      <trkpt lat="48.678030" lon="-1.512033">
        <ele>2.042</ele>
        <time>2026-08-21T15:43:05Z</time>
      </trkpt>
      <trkpt lat="48.678022" lon="-1.512045">
        <ele>2.183</ele>
        <time>2026-08-21T15:43:06Z</time>
      </trkpt>
      <trkpt lat="48.678014" lon="-1.512055">
        <ele>2.146</ele>
        <time>2026-08-21T15:43:07Z</time>
      </trkpt>
      <trkpt lat="48.678002" lon="-1.512079">
        <ele>2.193</ele>
        <time>2026-08-21T15:43:09Z</time>
      </trkpt>
      <trkpt lat="48.677993" lon="-1.512093">
        <ele>2.144</ele>
        <time>2026-08-21T15:43:10Z</time>
      </trkpt>
      <trkpt lat="48.677984" lon="-1.512110">
        <ele>2.188</ele>
        <time>2026-08-21T15:43:11Z</time>
      </trkpt>
      <trkpt lat="48.677974" lon="-1.512125">
        <ele>2.195</ele>
        <time>2026-08-21T15:43:12Z</time>
      </trkpt>
      <trkpt lat="48.677967" lon="-1.512137">
        <ele>2.151</ele>
        <time>2026-08-21T15:43:13Z</time>
      </trkpt>
      <trkpt lat="48.677958" lon="-1.512158">
        <ele>2.101</ele>
        <time>2026-08-21T15:43:15Z</time>
      </trkpt>
      <trkpt lat="48.677954" lon="-1.512171">
        <ele>2.111</ele>
        <time>2026-08-21T15:43:16Z</time>
      </trkpt>
      <trkpt lat="48.677948" lon="-1.512188">
        <ele>2.109</ele>
        <time>2026-08-21T15:43:17Z</time>
      </trkpt>
      <trkpt lat="48.677941" lon="-1.512206">
        <ele>2.197</ele>
        <time>2026-08-21T15:43:18Z</time>
      </trkpt>
      <trkpt lat="48.677935" lon="-1.512217">
        <ele>2.113</ele>
        <time>2026-08-21T15:43:19Z</time>
      </trkpt>
      <trkpt lat="48.677926" lon="-1.512227">
        <ele>2.056</ele>
        <time>2026-08-21T15:43:20Z</time>
      </trkpt>
      <trkpt lat="48.677922" lon="-1.512241">
        <ele>2.077</ele>
        <time>2026-08-21T15:43:21Z</time>
      </trkpt>
      <trkpt lat="48.677914" lon="-1.512256">
        <ele>2.030</ele>
        <time>2026-08-21T15:43:22Z</time>
      </trkpt>
      <trkpt lat="48.677907" lon="-1.512274">
        <ele>1.997</ele>
        <time>2026-08-21T15:43:23Z</time>
      </trkpt>
      <trkpt lat="48.677899" lon="-1.512291">
        <ele>1.948</ele>
        <time>2026-08-21T15:43:24Z</time>
      </trkpt>
      <trkpt lat="48.677891" lon="-1.512302">
        <ele>1.962</ele>
        <time>2026-08-21T15:43:25Z</time>
      </trkpt>
      <trkpt lat="48.677885" lon="-1.512313">
        <ele>1.989</ele>
        <time>2026-08-21T15:43:26Z</time>
      </trkpt>
      <trkpt lat="48.677877" lon="-1.512334">
        <ele>1.931</ele>
        <time>2026-08-21T15:43:28Z</time>
      </trkpt>
      <trkpt lat="48.677869" lon="-1.512352">
        <ele>1.961</ele>
        <time>2026-08-21T15:43:29Z</time>
      </trkpt>
      <trkpt lat="48.677862" lon="-1.512369">
        <ele>2.007</ele>
        <time>2026-08-21T15:43:30Z</time>
      </trkpt>
      <trkpt lat="48.677853" lon="-1.512382">
        <ele>2.009</ele>
        <time>2026-08-21T15:43:31Z</time>
      </trkpt>
      <trkpt lat="48.677845" lon="-1.512392">
        <ele>2.045</ele>
        <time>2026-08-21T15:43:32Z</time>
      </trkpt>
      <trkpt lat="48.677840" lon="-1.512406">
        <ele>2.061</ele>
        <time>2026-08-21T15:43:33Z</time>
      </trkpt>
      <trkpt lat="48.677833" lon="-1.512421">
        <ele>2.044</ele>
        <time>2026-08-21T15:43:34Z</time>
      </trkpt>
      <trkpt lat="48.677826" lon="-1.512439">
        <ele>2.085</ele>
        <time>2026-08-21T15:43:35Z</time>
      </trkpt>
      <trkpt lat="48.677818" lon="-1.512457">
        <ele>2.048</ele>
        <time>2026-08-21T15:43:36Z</time>
      </trkpt>
      <trkpt lat="48.677809" lon="-1.512468">
        <ele>2.045</ele>
        <time>2026-08-21T15:43:37Z</time>
      </trkpt>
      <trkpt lat="48.677801" lon="-1.512477">
        <ele>2.096</ele>
        <time>2026-08-21T15:43:38Z</time>
      </trkpt>
      <trkpt lat="48.677789" lon="-1.512498">
        <ele>2.060</ele>
        <time>2026-08-21T15:43:40Z</time>
      </trkpt>
      <trkpt lat="48.677781" lon="-1.512515">
        <ele>2.077</ele>
        <time>2026-08-21T15:43:41Z</time>
      </trkpt>
      <trkpt lat="48.677774" lon="-1.512536">
        <ele>2.067</ele>
        <time>2026-08-21T15:43:42Z</time>
      </trkpt>
      <trkpt lat="48.677766" lon="-1.512549">
        <ele>2.081</ele>
        <time>2026-08-21T15:43:43Z</time>
      </trkpt>
      <trkpt lat="48.677759" lon="-1.512560">
        <ele>2.019</ele>
        <time>2026-08-21T15:43:44Z</time>
      </trkpt>
      <trkpt lat="48.677747" lon="-1.512583">
        <ele>2.009</ele>
        <time>2026-08-21T15:43:46Z</time>
      </trkpt>
      <trkpt lat="48.677740" lon="-1.512597">
        <ele>2.088</ele>
        <time>2026-08-21T15:43:47Z</time>
      </trkpt>
      <trkpt lat="48.677734" lon="-1.512614">
        <ele>2.044</ele>
        <time>2026-08-21T15:43:48Z</time>
      </trkpt>
      <trkpt lat="48.677726" lon="-1.512627">
        <ele>2.037</ele>
        <time>2026-08-21T15:43:49Z</time>
      </trkpt>
      <trkpt lat="48.677721" lon="-1.512638">
        <ele>2.088</ele>
        <time>2026-08-21T15:43:50Z</time>
      </trkpt>
      <trkpt lat="48.677713" lon="-1.512647">
        <ele>2.041</ele>
        <time>2026-08-21T15:43:51Z</time>
      </trkpt>
      <trkpt lat="48.677706" lon="-1.512662">
        <ele>2.078</ele>
        <time>2026-08-21T15:43:52Z</time>
      </trkpt>
      <trkpt lat="48.677698" lon="-1.512680">
        <ele>2.089</ele>
        <time>2026-08-21T15:43:53Z</time>
      </trkpt>
      <trkpt lat="48.677689" lon="-1.512698">
        <ele>2.093</ele>
        <time>2026-08-21T15:43:54Z</time>
      </trkpt>
      <trkpt lat="48.677679" lon="-1.512714">
        <ele>2.060</ele>
        <time>2026-08-21T15:43:55Z</time>
      </trkpt>
      <trkpt lat="48.677670" lon="-1.512726">
        <ele>2.082</ele>
        <time>2026-08-21T15:43:56Z</time>
      </trkpt>
      <trkpt lat="48.677658" lon="-1.512744">
        <ele>1.943</ele>
        <time>2026-08-21T15:43:58Z</time>
      </trkpt>
      <trkpt lat="48.677651" lon="-1.512757">
        <ele>1.917</ele>
        <time>2026-08-21T15:43:59Z</time>
      </trkpt>
      <trkpt lat="48.677643" lon="-1.512776">
        <ele>1.909</ele>
        <time>2026-08-21T15:44:00Z</time>
      </trkpt>
      <trkpt lat="48.677635" lon="-1.512797">
        <ele>1.920</ele>
        <time>2026-08-21T15:44:01Z</time>
      </trkpt>
      <trkpt lat="48.677626" lon="-1.512813">
        <ele>1.916</ele>
        <time>2026-08-21T15:44:02Z</time>
      </trkpt>
      <trkpt lat="48.677620" lon="-1.512825">
        <ele>1.969</ele>
        <time>2026-08-21T15:44:03Z</time>
      </trkpt>
      <trkpt lat="48.677608" lon="-1.512845">
        <ele>1.960</ele>
        <time>2026-08-21T15:44:05Z</time>
      </trkpt>
      <trkpt lat="48.677599" lon="-1.512862">
        <ele>1.943</ele>
        <time>2026-08-21T15:44:06Z</time>
      </trkpt>
      <trkpt lat="48.677590" lon="-1.512878">
        <ele>1.920</ele>
        <time>2026-08-21T15:44:07Z</time>
      </trkpt>
      <trkpt lat="48.677582" lon="-1.512895">
        <ele>1.951</ele>
        <time>2026-08-21T15:44:08Z</time>
      </trkpt>
      <trkpt lat="48.677575" lon="-1.512906">
        <ele>1.965</ele>
        <time>2026-08-21T15:44:09Z</time>
      </trkpt>
      <trkpt lat="48.677563" lon="-1.512930">
        <ele>1.922</ele>
        <time>2026-08-21T15:44:11Z</time>
      </trkpt>
      <trkpt lat="48.677555" lon="-1.512946">
        <ele>1.966</ele>
        <time>2026-08-21T15:44:12Z</time>
      </trkpt>
      <trkpt lat="48.677548" lon="-1.512966">
        <ele>1.929</ele>
        <time>2026-08-21T15:44:13Z</time>
      </trkpt>
      <trkpt lat="48.677540" lon="-1.512984">
        <ele>1.921</ele>
        <time>2026-08-21T15:44:14Z</time>
      </trkpt>
      <trkpt lat="48.677532" lon="-1.512996">
        <ele>1.909</ele>
        <time>2026-08-21T15:44:15Z</time>
      </trkpt>
      <trkpt lat="48.677524" lon="-1.513005">
        <ele>1.928</ele>
        <time>2026-08-21T15:44:16Z</time>
      </trkpt>
      <trkpt lat="48.677518" lon="-1.513016">
        <ele>1.924</ele>
        <time>2026-08-21T15:44:17Z</time>
      </trkpt>
      <trkpt lat="48.677513" lon="-1.513031">
        <ele>1.937</ele>
        <time>2026-08-21T15:44:18Z</time>
      </trkpt>
      <trkpt lat="48.677504" lon="-1.513049">
        <ele>1.998</ele>
        <time>2026-08-21T15:44:19Z</time>
      </trkpt>
      <trkpt lat="48.677495" lon="-1.513067">
        <ele>1.911</ele>
        <time>2026-08-21T15:44:20Z</time>
      </trkpt>
      <trkpt lat="48.677485" lon="-1.513082">
        <ele>1.928</ele>
        <time>2026-08-21T15:44:21Z</time>
      </trkpt>
      <trkpt lat="48.677477" lon="-1.513095">
        <ele>1.929</ele>
        <time>2026-08-21T15:44:22Z</time>
      </trkpt>
      <trkpt lat="48.677471" lon="-1.513105">
        <ele>2.063</ele>
        <time>2026-08-21T15:44:23Z</time>
      </trkpt>
      <trkpt lat="48.677461" lon="-1.513128">
        <ele>2.010</ele>
        <time>2026-08-21T15:44:25Z</time>
      </trkpt>
      <trkpt lat="48.677454" lon="-1.513145">
        <ele>2.189</ele>
        <time>2026-08-21T15:44:26Z</time>
      </trkpt>
      <trkpt lat="48.677447" lon="-1.513163">
        <ele>2.106</ele>
        <time>2026-08-21T15:44:27Z</time>
      </trkpt>
      <trkpt lat="48.677440" lon="-1.513179">
        <ele>2.126</ele>
        <time>2026-08-21T15:44:28Z</time>
      </trkpt>
      <trkpt lat="48.677433" lon="-1.513189">
        <ele>2.109</ele>
        <time>2026-08-21T15:44:29Z</time>
      </trkpt>
      <trkpt lat="48.677426" lon="-1.513200">
        <ele>2.180</ele>
        <time>2026-08-21T15:44:30Z</time>
      </trkpt>
      <trkpt lat="48.677420" lon="-1.513214">
        <ele>2.196</ele>
        <time>2026-08-21T15:44:31Z</time>
      </trkpt>
      <trkpt lat="48.677412" lon="-1.513232">
        <ele>2.219</ele>
        <time>2026-08-21T15:44:32Z</time>
      </trkpt>
      <trkpt lat="48.677405" lon="-1.513250">
        <ele>2.240</ele>
        <time>2026-08-21T15:44:33Z</time>
      </trkpt>
      <trkpt lat="48.677397" lon="-1.513262">
        <ele>2.313</ele>
        <time>2026-08-21T15:44:34Z</time>
      </trkpt>
      <trkpt lat="48.677390" lon="-1.513271">
        <ele>2.390</ele>
        <time>2026-08-21T15:44:35Z</time>
      </trkpt>
      <trkpt lat="48.677379" lon="-1.513294">
        <ele>2.341</ele>
        <time>2026-08-21T15:44:37Z</time>
      </trkpt>
      <trkpt lat="48.677372" lon="-1.513311">
        <ele>2.495</ele>
        <time>2026-08-21T15:44:38Z</time>
      </trkpt>
      <trkpt lat="48.677368" lon="-1.513331">
        <ele>2.412</ele>
        <time>2026-08-21T15:44:39Z</time>
      </trkpt>
      <trkpt lat="48.677362" lon="-1.513346">
        <ele>2.494</ele>
        <time>2026-08-21T15:44:40Z</time>
      </trkpt>
      <trkpt lat="48.677356" lon="-1.513357">
        <ele>2.557</ele>
        <time>2026-08-21T15:44:41Z</time>
      </trkpt>
      <trkpt lat="48.677342" lon="-1.513381">
        <ele>2.622</ele>
        <time>2026-08-21T15:44:43Z</time>
      </trkpt>
      <trkpt lat="48.677334" lon="-1.513396">
        <ele>2.709</ele>
        <time>2026-08-21T15:44:44Z</time>
      </trkpt>
      <trkpt lat="48.677325" lon="-1.513407">
        <ele>2.741</ele>
        <time>2026-08-21T15:44:45Z</time>
      </trkpt>
      <trkpt lat="48.677317" lon="-1.513419">
        <ele>2.757</ele>
        <time>2026-08-21T15:44:46Z</time>
      </trkpt>
      <trkpt lat="48.677307" lon="-1.513436">
        <ele>2.710</ele>
        <time>2026-08-21T15:44:48Z</time>
      </trkpt>
      <trkpt lat="48.677300" lon="-1.513450">
        <ele>2.771</ele>
        <time>2026-08-21T15:44:49Z</time>
      </trkpt>
      <trkpt lat="48.677293" lon="-1.513468">
        <ele>2.744</ele>
        <time>2026-08-21T15:44:50Z</time>
      </trkpt>
      <trkpt lat="48.677285" lon="-1.513482">
        <ele>2.711</ele>
        <time>2026-08-21T15:44:51Z</time>
      </trkpt>
      <trkpt lat="48.677283" lon="-1.513496">
        <ele>2.782</ele>
        <time>2026-08-21T15:44:52Z</time>
      </trkpt>
      <trkpt lat="48.677270" lon="-1.513519">
        <ele>2.766</ele>
        <time>2026-08-21T15:44:54Z</time>
      </trkpt>
      <trkpt lat="48.677261" lon="-1.513533">
        <ele>2.713</ele>
        <time>2026-08-21T15:44:55Z</time>
      </trkpt>
      <trkpt lat="48.677253" lon="-1.513548">
        <ele>2.746</ele>
        <time>2026-08-21T15:44:56Z</time>
      </trkpt>
      <trkpt lat="48.677245" lon="-1.513562">
        <ele>2.788</ele>
        <time>2026-08-21T15:44:57Z</time>
      </trkpt>
      <trkpt lat="48.677236" lon="-1.513576">
        <ele>2.716</ele>
        <time>2026-08-21T15:44:58Z</time>
      </trkpt>
      <trkpt lat="48.677230" lon="-1.513588">
        <ele>2.709</ele>
        <time>2026-08-21T15:44:59Z</time>
      </trkpt>
      <trkpt lat="48.677222" lon="-1.513602">
        <ele>2.766</ele>
        <time>2026-08-21T15:45:00Z</time>
      </trkpt>
      <trkpt lat="48.677215" lon="-1.513618">
        <ele>2.762</ele>
        <time>2026-08-21T15:45:01Z</time>
      </trkpt>
      <trkpt lat="48.677206" lon="-1.513633">
        <ele>2.725</ele>
        <time>2026-08-21T15:45:02Z</time>
      </trkpt>
      <trkpt lat="48.677197" lon="-1.513648">
        <ele>2.546</ele>
        <time>2026-08-21T15:45:03Z</time>
      </trkpt>
      <trkpt lat="48.677189" lon="-1.513658">
        <ele>2.489</ele>
        <time>2026-08-21T15:45:04Z</time>
      </trkpt>
      <trkpt lat="48.677182" lon="-1.513668">
        <ele>2.456</ele>
        <time>2026-08-21T15:45:05Z</time>
      </trkpt>
      <trkpt lat="48.677176" lon="-1.513685">
        <ele>2.497</ele>
        <time>2026-08-21T15:45:06Z</time>
      </trkpt>
      <trkpt lat="48.677167" lon="-1.513702">
        <ele>2.481</ele>
        <time>2026-08-21T15:45:07Z</time>
      </trkpt>
      <trkpt lat="48.677159" lon="-1.513716">
        <ele>2.468</ele>
        <time>2026-08-21T15:45:08Z</time>
      </trkpt>
      <trkpt lat="48.677150" lon="-1.513726">
        <ele>2.419</ele>
        <time>2026-08-21T15:45:09Z</time>
      </trkpt>
      <trkpt lat="48.677143" lon="-1.513736">
        <ele>2.409</ele>
        <time>2026-08-21T15:45:10Z</time>
      </trkpt>
      <trkpt lat="48.677137" lon="-1.513749">
        <ele>2.419</ele>
        <time>2026-08-21T15:45:11Z</time>
      </trkpt>
      <trkpt lat="48.677124" lon="-1.513775">
        <ele>2.409</ele>
        <time>2026-08-21T15:45:13Z</time>
      </trkpt>
      <trkpt lat="48.677115" lon="-1.513792">
        <ele>2.493</ele>
        <time>2026-08-21T15:45:14Z</time>
      </trkpt>
      <trkpt lat="48.677107" lon="-1.513811">
        <ele>2.419</ele>
        <time>2026-08-21T15:45:15Z</time>
      </trkpt>
      <trkpt lat="48.677100" lon="-1.513821">
        <ele>2.392</ele>
        <time>2026-08-21T15:45:16Z</time>
      </trkpt>
      <trkpt lat="48.677087" lon="-1.513835">
        <ele>2.323</ele>
        <time>2026-08-21T15:45:18Z</time>
      </trkpt>
      <trkpt lat="48.677076" lon="-1.513838">
        <ele>2.336</ele>
        <time>2026-08-21T15:45:19Z</time>
      </trkpt>
      <trkpt lat="48.677065" lon="-1.513845">
        <ele>2.393</ele>
        <time>2026-08-21T15:45:20Z</time>
      </trkpt>
      <trkpt lat="48.677055" lon="-1.513854">
        <ele>2.384</ele>
        <time>2026-08-21T15:45:21Z</time>
      </trkpt>
      <trkpt lat="48.677044" lon="-1.513860">
        <ele>2.448</ele>
        <time>2026-08-21T15:45:22Z</time>
      </trkpt>
      <trkpt lat="48.677032" lon="-1.513864">
        <ele>2.485</ele>
        <time>2026-08-21T15:45:23Z</time>
      </trkpt>
      <trkpt lat="48.677018" lon="-1.513868">
        <ele>2.442</ele>
        <time>2026-08-21T15:45:25Z</time>
      </trkpt>
      <trkpt lat="48.677012" lon="-1.513884">
        <ele>2.422</ele>
        <time>2026-08-21T15:45:34Z</time>
      </trkpt>
      <trkpt lat="48.677005" lon="-1.513895">
        <ele>2.414</ele>
        <time>2026-08-21T15:45:35Z</time>
      </trkpt>
      <trkpt lat="48.676997" lon="-1.513912">
        <ele>2.409</ele>
        <time>2026-08-21T15:45:37Z</time>
      </trkpt>
      <trkpt lat="48.676988" lon="-1.513931">
        <ele>2.436</ele>
        <time>2026-08-21T15:45:38Z</time>
      </trkpt>
      <trkpt lat="48.676976" lon="-1.513950">
        <ele>2.492</ele>
        <time>2026-08-21T15:45:39Z</time>
      </trkpt>
      <trkpt lat="48.676965" lon="-1.513967">
        <ele>2.415</ele>
        <time>2026-08-21T15:45:40Z</time>
      </trkpt>
      <trkpt lat="48.676954" lon="-1.513980">
        <ele>2.416</ele>
        <time>2026-08-21T15:45:42Z</time>
      </trkpt>
      <trkpt lat="48.676952" lon="-1.513994">
        <ele>2.419</ele>
        <time>2026-08-21T15:45:46Z</time>
      </trkpt>
      <trkpt lat="48.676939" lon="-1.514008">
        <ele>1.646</ele>
        <time>2026-08-21T15:46:54Z</time>
      </trkpt>
      <trkpt lat="48.676927" lon="-1.514024">
        <ele>1.537</ele>
        <time>2026-08-21T15:46:56Z</time>
      </trkpt>
      <trkpt lat="48.676918" lon="-1.514034">
        <ele>1.451</ele>
        <time>2026-08-21T15:46:57Z</time>
      </trkpt>
      <trkpt lat="48.676910" lon="-1.514049">
        <ele>1.468</ele>
        <time>2026-08-21T15:46:58Z</time>
      </trkpt>
      <trkpt lat="48.676903" lon="-1.514064">
        <ele>1.524</ele>
        <time>2026-08-21T15:46:59Z</time>
      </trkpt>
      <trkpt lat="48.676897" lon="-1.514089">
        <ele>1.504</ele>
        <time>2026-08-21T15:47:01Z</time>
      </trkpt>
      <trkpt lat="48.676890" lon="-1.514110">
        <ele>1.614</ele>
        <time>2026-08-21T15:47:02Z</time>
      </trkpt>
      <trkpt lat="48.676881" lon="-1.514124">
        <ele>1.709</ele>
        <time>2026-08-21T15:47:03Z</time>
      </trkpt>
      <trkpt lat="48.676872" lon="-1.514137">
        <ele>1.784</ele>
        <time>2026-08-21T15:47:04Z</time>
      </trkpt>
      <trkpt lat="48.676864" lon="-1.514149">
        <ele>1.930</ele>
        <time>2026-08-21T15:47:05Z</time>
      </trkpt>
      <trkpt lat="48.676855" lon="-1.514160">
        <ele>2.123</ele>
        <time>2026-08-21T15:47:06Z</time>
      </trkpt>
      <trkpt lat="48.676848" lon="-1.514174">
        <ele>2.284</ele>
        <time>2026-08-21T15:47:07Z</time>
      </trkpt>
      <trkpt lat="48.676842" lon="-1.514187">
        <ele>2.337</ele>
        <time>2026-08-21T15:47:08Z</time>
      </trkpt>
      <trkpt lat="48.676837" lon="-1.514201">
        <ele>2.374</ele>
        <time>2026-08-21T15:47:09Z</time>
      </trkpt>
      <trkpt lat="48.676829" lon="-1.514225">
        <ele>2.455</ele>
        <time>2026-08-21T15:47:11Z</time>
      </trkpt>
      <trkpt lat="48.676823" lon="-1.514235">
        <ele>2.479</ele>
        <time>2026-08-21T15:47:12Z</time>
      </trkpt>
      <trkpt lat="48.676817" lon="-1.514247">
        <ele>2.496</ele>
        <time>2026-08-21T15:47:13Z</time>
      </trkpt>
      <trkpt lat="48.676811" lon="-1.514258">
        <ele>2.598</ele>
        <time>2026-08-21T15:47:14Z</time>
      </trkpt>
      <trkpt lat="48.676807" lon="-1.514272">
        <ele>2.515</ele>
        <time>2026-08-21T15:47:15Z</time>
      </trkpt>
      <trkpt lat="48.676802" lon="-1.514290">
        <ele>2.526</ele>
        <time>2026-08-21T15:47:16Z</time>
      </trkpt>
      <trkpt lat="48.676796" lon="-1.514304">
        <ele>2.509</ele>
        <time>2026-08-21T15:47:17Z</time>
      </trkpt>
      <trkpt lat="48.676789" lon="-1.514320">
        <ele>2.591</ele>
        <time>2026-08-21T15:47:19Z</time>
      </trkpt>
      <trkpt lat="48.676786" lon="-1.514334">
        <ele>2.517</ele>
        <time>2026-08-21T15:47:20Z</time>
      </trkpt>
      <trkpt lat="48.676779" lon="-1.514350">
        <ele>2.530</ele>
        <time>2026-08-21T15:47:21Z</time>
      </trkpt>
      <trkpt lat="48.676772" lon="-1.514361">
        <ele>2.491</ele>
        <time>2026-08-21T15:47:22Z</time>
      </trkpt>
      <trkpt lat="48.676766" lon="-1.514376">
        <ele>2.464</ele>
        <time>2026-08-21T15:47:23Z</time>
      </trkpt>
      <trkpt lat="48.676760" lon="-1.514393">
        <ele>2.421</ele>
        <time>2026-08-21T15:47:24Z</time>
      </trkpt>
      <trkpt lat="48.676753" lon="-1.514414">
        <ele>2.462</ele>
        <time>2026-08-21T15:47:25Z</time>
      </trkpt>
      <trkpt lat="48.676745" lon="-1.514428">
        <ele>2.376</ele>
        <time>2026-08-21T15:47:26Z</time>
      </trkpt>
      <trkpt lat="48.676733" lon="-1.514449">
        <ele>2.393</ele>
        <time>2026-08-21T15:47:28Z</time>
      </trkpt>
      <trkpt lat="48.676725" lon="-1.514464">
        <ele>2.329</ele>
        <time>2026-08-21T15:47:29Z</time>
      </trkpt>
      <trkpt lat="48.676718" lon="-1.514482">
        <ele>2.300</ele>
        <time>2026-08-21T15:47:30Z</time>
      </trkpt>
      <trkpt lat="48.676712" lon="-1.514496">
        <ele>2.420</ele>
        <time>2026-08-21T15:47:31Z</time>
      </trkpt>
      <trkpt lat="48.676704" lon="-1.514504">
        <ele>2.409</ele>
        <time>2026-08-21T15:47:32Z</time>
      </trkpt>
      <trkpt lat="48.676691" lon="-1.514525">
        <ele>2.554</ele>
        <time>2026-08-21T15:47:34Z</time>
      </trkpt>
      <trkpt lat="48.676680" lon="-1.514540">
        <ele>2.550</ele>
        <time>2026-08-21T15:47:35Z</time>
      </trkpt>
      <trkpt lat="48.676671" lon="-1.514551">
        <ele>2.593</ele>
        <time>2026-08-21T15:47:36Z</time>
      </trkpt>
      <trkpt lat="48.676659" lon="-1.514571">
        <ele>2.524</ele>
        <time>2026-08-21T15:47:38Z</time>
      </trkpt>
      <trkpt lat="48.676653" lon="-1.514582">
        <ele>2.547</ele>
        <time>2026-08-21T15:47:39Z</time>
      </trkpt>
      <trkpt lat="48.676642" lon="-1.514591">
        <ele>2.534</ele>
        <time>2026-08-21T15:47:40Z</time>
      </trkpt>
      <trkpt lat="48.676635" lon="-1.514603">
        <ele>2.555</ele>
        <time>2026-08-21T15:47:41Z</time>
      </trkpt>
      <trkpt lat="48.676626" lon="-1.514611">
        <ele>2.559</ele>
        <time>2026-08-21T15:47:42Z</time>
      </trkpt>
      <trkpt lat="48.676616" lon="-1.514621">
        <ele>2.526</ele>
        <time>2026-08-21T15:47:43Z</time>
      </trkpt>
      <trkpt lat="48.676606" lon="-1.514631">
        <ele>2.523</ele>
        <time>2026-08-21T15:47:44Z</time>
      </trkpt>
      <trkpt lat="48.676597" lon="-1.514646">
        <ele>2.583</ele>
        <time>2026-08-21T15:47:45Z</time>
      </trkpt>
      <trkpt lat="48.676586" lon="-1.514665">
        <ele>2.411</ele>
        <time>2026-08-21T15:47:46Z</time>
      </trkpt>
      <trkpt lat="48.676580" lon="-1.514677">
        <ele>2.409</ele>
        <time>2026-08-21T15:47:47Z</time>
      </trkpt>
      <trkpt lat="48.676573" lon="-1.514689">
        <ele>2.494</ele>
        <time>2026-08-21T15:47:48Z</time>
      </trkpt>
      <trkpt lat="48.676565" lon="-1.514701">
        <ele>2.440</ele>
        <time>2026-08-21T15:47:49Z</time>
      </trkpt>
      <trkpt lat="48.676556" lon="-1.514714">
        <ele>2.453</ele>
        <time>2026-08-21T15:47:50Z</time>
      </trkpt>
      <trkpt lat="48.676549" lon="-1.514730">
        <ele>2.474</ele>
        <time>2026-08-21T15:47:51Z</time>
      </trkpt>
      <trkpt lat="48.676543" lon="-1.514746">
        <ele>2.557</ele>
        <time>2026-08-21T15:47:52Z</time>
      </trkpt>
      <trkpt lat="48.676536" lon="-1.514757">
        <ele>2.554</ele>
        <time>2026-08-21T15:47:53Z</time>
      </trkpt>
      <trkpt lat="48.676530" lon="-1.514768">
        <ele>2.565</ele>
        <time>2026-08-21T15:47:54Z</time>
      </trkpt>
      <trkpt lat="48.676515" lon="-1.514793">
        <ele>2.599</ele>
        <time>2026-08-21T15:47:56Z</time>
      </trkpt>
      <trkpt lat="48.676507" lon="-1.514810">
        <ele>2.556</ele>
        <time>2026-08-21T15:47:57Z</time>
      </trkpt>
      <trkpt lat="48.676500" lon="-1.514823">
        <ele>2.517</ele>
        <time>2026-08-21T15:47:58Z</time>
      </trkpt>
      <trkpt lat="48.676486" lon="-1.514838">
        <ele>2.587</ele>
        <time>2026-08-21T15:48:00Z</time>
      </trkpt>
      <trkpt lat="48.676477" lon="-1.514849">
        <ele>2.515</ele>
        <time>2026-08-21T15:48:01Z</time>
      </trkpt>
      <trkpt lat="48.676468" lon="-1.514866">
        <ele>2.509</ele>
        <time>2026-08-21T15:48:02Z</time>
      </trkpt>
      <trkpt lat="48.676463" lon="-1.514877">
        <ele>2.543</ele>
        <time>2026-08-21T15:48:03Z</time>
      </trkpt>
      <trkpt lat="48.676455" lon="-1.514891">
        <ele>2.589</ele>
        <time>2026-08-21T15:48:04Z</time>
      </trkpt>
      <trkpt lat="48.676449" lon="-1.514901">
        <ele>2.592</ele>
        <time>2026-08-21T15:48:05Z</time>
      </trkpt>
      <trkpt lat="48.676441" lon="-1.514913">
        <ele>2.523</ele>
        <time>2026-08-21T15:48:06Z</time>
      </trkpt>
      <trkpt lat="48.676430" lon="-1.514925">
        <ele>2.426</ele>
        <time>2026-08-21T15:48:07Z</time>
      </trkpt>
      <trkpt lat="48.676420" lon="-1.514939">
        <ele>2.463</ele>
        <time>2026-08-21T15:48:08Z</time>
      </trkpt>
      <trkpt lat="48.676411" lon="-1.514947">
        <ele>2.434</ele>
        <time>2026-08-21T15:48:09Z</time>
      </trkpt>
      <trkpt lat="48.676396" lon="-1.514966">
        <ele>2.438</ele>
        <time>2026-08-21T15:48:11Z</time>
      </trkpt>
      <trkpt lat="48.676388" lon="-1.514982">
        <ele>2.445</ele>
        <time>2026-08-21T15:48:12Z</time>
      </trkpt>
      <trkpt lat="48.676378" lon="-1.515000">
        <ele>2.323</ele>
        <time>2026-08-21T15:48:13Z</time>
      </trkpt>
      <trkpt lat="48.676370" lon="-1.515012">
        <ele>2.383</ele>
        <time>2026-08-21T15:48:14Z</time>
      </trkpt>
      <trkpt lat="48.676363" lon="-1.515022">
        <ele>2.311</ele>
        <time>2026-08-21T15:48:15Z</time>
      </trkpt>
      <trkpt lat="48.676355" lon="-1.515031">
        <ele>2.309</ele>
        <time>2026-08-21T15:48:16Z</time>
      </trkpt>
      <trkpt lat="48.676345" lon="-1.515041">
        <ele>2.314</ele>
        <time>2026-08-21T15:48:17Z</time>
      </trkpt>
      <trkpt lat="48.676334" lon="-1.515053">
        <ele>2.390</ele>
        <time>2026-08-21T15:48:18Z</time>
      </trkpt>
      <trkpt lat="48.676324" lon="-1.515065">
        <ele>2.333</ele>
        <time>2026-08-21T15:48:19Z</time>
      </trkpt>
      <trkpt lat="48.676313" lon="-1.515071">
        <ele>2.344</ele>
        <time>2026-08-21T15:48:20Z</time>
      </trkpt>
      <trkpt lat="48.676306" lon="-1.515082">
        <ele>2.337</ele>
        <time>2026-08-21T15:48:21Z</time>
      </trkpt>
      <trkpt lat="48.676291" lon="-1.515107">
        <ele>2.374</ele>
        <time>2026-08-21T15:48:23Z</time>
      </trkpt>
      <trkpt lat="48.676280" lon="-1.515120">
        <ele>2.365</ele>
        <time>2026-08-21T15:48:24Z</time>
      </trkpt>
      <trkpt lat="48.676270" lon="-1.515131">
        <ele>2.349</ele>
        <time>2026-08-21T15:48:25Z</time>
      </trkpt>
      <trkpt lat="48.676256" lon="-1.515142">
        <ele>2.336</ele>
        <time>2026-08-21T15:48:27Z</time>
      </trkpt>
      <trkpt lat="48.676248" lon="-1.515149">
        <ele>2.359</ele>
        <time>2026-08-21T15:48:28Z</time>
      </trkpt>
      <trkpt lat="48.676234" lon="-1.515162">
        <ele>2.303</ele>
        <time>2026-08-21T15:48:29Z</time>
      </trkpt>
      <trkpt lat="48.676223" lon="-1.515175">
        <ele>2.223</ele>
        <time>2026-08-21T15:48:30Z</time>
      </trkpt>
      <trkpt lat="48.676216" lon="-1.515186">
        <ele>2.209</ele>
        <time>2026-08-21T15:48:31Z</time>
      </trkpt>
      <trkpt lat="48.676209" lon="-1.515197">
        <ele>2.377</ele>
        <time>2026-08-21T15:48:32Z</time>
      </trkpt>
      <trkpt lat="48.676202" lon="-1.515207">
        <ele>2.343</ele>
        <time>2026-08-21T15:48:33Z</time>
      </trkpt>
      <trkpt lat="48.676192" lon="-1.515219">
        <ele>2.326</ele>
        <time>2026-08-21T15:48:34Z</time>
      </trkpt>
      <trkpt lat="48.676182" lon="-1.515233">
        <ele>2.387</ele>
        <time>2026-08-21T15:48:35Z</time>
      </trkpt>
      <trkpt lat="48.676172" lon="-1.515242">
        <ele>2.470</ele>
        <time>2026-08-21T15:48:36Z</time>
      </trkpt>
      <trkpt lat="48.676156" lon="-1.515261">
        <ele>2.457</ele>
        <time>2026-08-21T15:48:38Z</time>
      </trkpt>
      <trkpt lat="48.676146" lon="-1.515270">
        <ele>2.488</ele>
        <time>2026-08-21T15:48:39Z</time>
      </trkpt>
      <trkpt lat="48.676135" lon="-1.515283">
        <ele>2.492</ele>
        <time>2026-08-21T15:48:40Z</time>
      </trkpt>
      <trkpt lat="48.676124" lon="-1.515293">
        <ele>2.429</ele>
        <time>2026-08-21T15:48:41Z</time>
      </trkpt>
      <trkpt lat="48.676115" lon="-1.515303">
        <ele>2.445</ele>
        <time>2026-08-21T15:48:42Z</time>
      </trkpt>
      <trkpt lat="48.676105" lon="-1.515311">
        <ele>2.447</ele>
        <time>2026-08-21T15:48:43Z</time>
      </trkpt>
      <trkpt lat="48.676095" lon="-1.515318">
        <ele>2.411</ele>
        <time>2026-08-21T15:48:44Z</time>
      </trkpt>
      <trkpt lat="48.676087" lon="-1.515328">
        <ele>2.409</ele>
        <time>2026-08-21T15:48:45Z</time>
      </trkpt>
      <trkpt lat="48.676077" lon="-1.515341">
        <ele>2.496</ele>
        <time>2026-08-21T15:48:46Z</time>
      </trkpt>
      <trkpt lat="48.676067" lon="-1.515356">
        <ele>2.482</ele>
        <time>2026-08-21T15:48:47Z</time>
      </trkpt>
      <trkpt lat="48.676059" lon="-1.515366">
        <ele>2.425</ele>
        <time>2026-08-21T15:48:48Z</time>
      </trkpt>
      <trkpt lat="48.676051" lon="-1.515376">
        <ele>2.476</ele>
        <time>2026-08-21T15:48:49Z</time>
      </trkpt>
      <trkpt lat="48.676042" lon="-1.515382">
        <ele>2.469</ele>
        <time>2026-08-21T15:48:50Z</time>
      </trkpt>
      <trkpt lat="48.676032" lon="-1.515391">
        <ele>2.466</ele>
        <time>2026-08-21T15:48:51Z</time>
      </trkpt>
      <trkpt lat="48.676021" lon="-1.515404">
        <ele>2.487</ele>
        <time>2026-08-21T15:48:52Z</time>
      </trkpt>
      <trkpt lat="48.676012" lon="-1.515417">
        <ele>2.451</ele>
        <time>2026-08-21T15:48:53Z</time>
      </trkpt>
      <trkpt lat="48.676003" lon="-1.515430">
        <ele>2.368</ele>
        <time>2026-08-21T15:48:54Z</time>
      </trkpt>
      <trkpt lat="48.675995" lon="-1.515438">
        <ele>2.326</ele>
        <time>2026-08-21T15:48:55Z</time>
      </trkpt>
      <trkpt lat="48.675986" lon="-1.515442">
        <ele>2.347</ele>
        <time>2026-08-21T15:48:56Z</time>
      </trkpt>
      <trkpt lat="48.675977" lon="-1.515450">
        <ele>2.311</ele>
        <time>2026-08-21T15:48:57Z</time>
      </trkpt>
      <trkpt lat="48.675966" lon="-1.515459">
        <ele>2.309</ele>
        <time>2026-08-21T15:48:58Z</time>
      </trkpt>
      <trkpt lat="48.675956" lon="-1.515470">
        <ele>2.324</ele>
        <time>2026-08-21T15:48:59Z</time>
      </trkpt>
      <trkpt lat="48.675946" lon="-1.515479">
        <ele>2.230</ele>
        <time>2026-08-21T15:49:00Z</time>
      </trkpt>
      <trkpt lat="48.675936" lon="-1.515485">
        <ele>2.273</ele>
        <time>2026-08-21T15:49:01Z</time>
      </trkpt>
      <trkpt lat="48.675927" lon="-1.515490">
        <ele>2.294</ele>
        <time>2026-08-21T15:49:02Z</time>
      </trkpt>
      <trkpt lat="48.675919" lon="-1.515500">
        <ele>2.287</ele>
        <time>2026-08-21T15:49:03Z</time>
      </trkpt>
      <trkpt lat="48.675908" lon="-1.515512">
        <ele>2.254</ele>
        <time>2026-08-21T15:49:04Z</time>
      </trkpt>
      <trkpt lat="48.675898" lon="-1.515525">
        <ele>2.115</ele>
        <time>2026-08-21T15:49:05Z</time>
      </trkpt>
      <trkpt lat="48.675889" lon="-1.515536">
        <ele>2.199</ele>
        <time>2026-08-21T15:49:06Z</time>
      </trkpt>
      <trkpt lat="48.675874" lon="-1.515552">
        <ele>2.136</ele>
        <time>2026-08-21T15:49:08Z</time>
      </trkpt>
      <trkpt lat="48.675861" lon="-1.515561">
        <ele>2.138</ele>
        <time>2026-08-21T15:49:09Z</time>
      </trkpt>
      <trkpt lat="48.675847" lon="-1.515573">
        <ele>2.170</ele>
        <time>2026-08-21T15:49:10Z</time>
      </trkpt>
      <trkpt lat="48.675836" lon="-1.515584">
        <ele>2.017</ele>
        <time>2026-08-21T15:49:11Z</time>
      </trkpt>
      <trkpt lat="48.675832" lon="-1.515597">
        <ele>2.009</ele>
        <time>2026-08-21T15:49:12Z</time>
      </trkpt>
      <trkpt lat="48.675824" lon="-1.515606">
        <ele>2.065</ele>
        <time>2026-08-21T15:49:13Z</time>
      </trkpt>
      <trkpt lat="48.675816" lon="-1.515614">
        <ele>2.091</ele>
        <time>2026-08-21T15:49:14Z</time>
      </trkpt>
      <trkpt lat="48.675805" lon="-1.515622">
        <ele>2.084</ele>
        <time>2026-08-21T15:49:15Z</time>
      </trkpt>
      <trkpt lat="48.675794" lon="-1.515632">
        <ele>2.015</ele>
        <time>2026-08-21T15:49:16Z</time>
      </trkpt>
      <trkpt lat="48.675785" lon="-1.515645">
        <ele>2.048</ele>
        <time>2026-08-21T15:49:17Z</time>
      </trkpt>
      <trkpt lat="48.675776" lon="-1.515651">
        <ele>2.095</ele>
        <time>2026-08-21T15:49:18Z</time>
      </trkpt>
      <trkpt lat="48.675761" lon="-1.515665">
        <ele>2.046</ele>
        <time>2026-08-21T15:49:20Z</time>
      </trkpt>
      <trkpt lat="48.675751" lon="-1.515677">
        <ele>2.070</ele>
        <time>2026-08-21T15:49:21Z</time>
      </trkpt>
      <trkpt lat="48.675742" lon="-1.515692">
        <ele>1.967</ele>
        <time>2026-08-21T15:49:22Z</time>
      </trkpt>
      <trkpt lat="48.675733" lon="-1.515703">
        <ele>1.918</ele>
        <time>2026-08-21T15:49:23Z</time>
      </trkpt>
      <trkpt lat="48.675723" lon="-1.515712">
        <ele>1.998</ele>
        <time>2026-08-21T15:49:24Z</time>
      </trkpt>
      <trkpt lat="48.675713" lon="-1.515722">
        <ele>1.917</ele>
        <time>2026-08-21T15:49:25Z</time>
      </trkpt>
      <trkpt lat="48.675705" lon="-1.515734">
        <ele>1.909</ele>
        <time>2026-08-21T15:49:26Z</time>
      </trkpt>
      <trkpt lat="48.675697" lon="-1.515746">
        <ele>1.873</ele>
        <time>2026-08-21T15:49:27Z</time>
      </trkpt>
      <trkpt lat="48.675689" lon="-1.515758">
        <ele>1.899</ele>
        <time>2026-08-21T15:49:28Z</time>
      </trkpt>
      <trkpt lat="48.675678" lon="-1.515768">
        <ele>1.872</ele>
        <time>2026-08-21T15:49:29Z</time>
      </trkpt>
      <trkpt lat="48.675664" lon="-1.515776">
        <ele>1.843</ele>
        <time>2026-08-21T15:49:30Z</time>
      </trkpt>
      <trkpt lat="48.675654" lon="-1.515785">
        <ele>1.876</ele>
        <time>2026-08-21T15:49:31Z</time>
      </trkpt>
      <trkpt lat="48.675643" lon="-1.515799">
        <ele>1.833</ele>
        <time>2026-08-21T15:49:32Z</time>
      </trkpt>
      <trkpt lat="48.675636" lon="-1.515816">
        <ele>1.874</ele>
        <time>2026-08-21T15:49:33Z</time>
      </trkpt>
      <trkpt lat="48.675630" lon="-1.515833">
        <ele>1.798</ele>
        <time>2026-08-21T15:49:34Z</time>
      </trkpt>
      <trkpt lat="48.675624" lon="-1.515845">
        <ele>1.785</ele>
        <time>2026-08-21T15:49:35Z</time>
      </trkpt>
      <trkpt lat="48.675615" lon="-1.515850">
        <ele>1.751</ele>
        <time>2026-08-21T15:49:36Z</time>
      </trkpt>
      <trkpt lat="48.675604" lon="-1.515856">
        <ele>1.701</ele>
        <time>2026-08-21T15:49:37Z</time>
      </trkpt>
      <trkpt lat="48.675594" lon="-1.515870">
        <ele>1.711</ele>
        <time>2026-08-21T15:49:38Z</time>
      </trkpt>
      <trkpt lat="48.675586" lon="-1.515886">
        <ele>1.709</ele>
        <time>2026-08-21T15:49:39Z</time>
      </trkpt>
      <trkpt lat="48.675579" lon="-1.515900">
        <ele>1.717</ele>
        <time>2026-08-21T15:49:40Z</time>
      </trkpt>
      <trkpt lat="48.675569" lon="-1.515911">
        <ele>1.783</ele>
        <time>2026-08-21T15:49:41Z</time>
      </trkpt>
      <trkpt lat="48.675559" lon="-1.515919">
        <ele>1.766</ele>
        <time>2026-08-21T15:49:42Z</time>
      </trkpt>
      <trkpt lat="48.675553" lon="-1.515929">
        <ele>1.737</ele>
        <time>2026-08-21T15:49:43Z</time>
      </trkpt>
      <trkpt lat="48.675544" lon="-1.515943">
        <ele>1.710</ele>
        <time>2026-08-21T15:49:44Z</time>
      </trkpt>
      <trkpt lat="48.675536" lon="-1.515958">
        <ele>1.777</ele>
        <time>2026-08-21T15:49:45Z</time>
      </trkpt>
      <trkpt lat="48.675528" lon="-1.515967">
        <ele>1.798</ele>
        <time>2026-08-21T15:49:46Z</time>
      </trkpt>
      <trkpt lat="48.675518" lon="-1.515974">
        <ele>1.722</ele>
        <time>2026-08-21T15:49:47Z</time>
      </trkpt>
      <trkpt lat="48.675509" lon="-1.515983">
        <ele>1.729</ele>
        <time>2026-08-21T15:49:48Z</time>
      </trkpt>
      <trkpt lat="48.675500" lon="-1.516000">
        <ele>1.712</ele>
        <time>2026-08-21T15:49:49Z</time>
      </trkpt>
      <trkpt lat="48.675491" lon="-1.516015">
        <ele>1.732</ele>
        <time>2026-08-21T15:49:50Z</time>
      </trkpt>
      <trkpt lat="48.675482" lon="-1.516027">
        <ele>1.705</ele>
        <time>2026-08-21T15:49:51Z</time>
      </trkpt>
      <trkpt lat="48.675474" lon="-1.516038">
        <ele>1.809</ele>
        <time>2026-08-21T15:49:52Z</time>
      </trkpt>
      <trkpt lat="48.675466" lon="-1.516048">
        <ele>2.093</ele>
        <time>2026-08-21T15:49:53Z</time>
      </trkpt>
      <trkpt lat="48.675459" lon="-1.516058">
        <ele>2.249</ele>
        <time>2026-08-21T15:49:54Z</time>
      </trkpt>
      <trkpt lat="48.675452" lon="-1.516074">
        <ele>2.352</ele>
        <time>2026-08-21T15:49:55Z</time>
      </trkpt>
      <trkpt lat="48.675444" lon="-1.516082">
        <ele>2.383</ele>
        <time>2026-08-21T15:49:56Z</time>
      </trkpt>
      <trkpt lat="48.675435" lon="-1.516092">
        <ele>2.376</ele>
        <time>2026-08-21T15:49:57Z</time>
      </trkpt>
      <trkpt lat="48.675426" lon="-1.516099">
        <ele>2.463</ele>
        <time>2026-08-21T15:49:58Z</time>
      </trkpt>
      <trkpt lat="48.675419" lon="-1.516111">
        <ele>2.464</ele>
        <time>2026-08-21T15:49:59Z</time>
      </trkpt>
      <trkpt lat="48.675414" lon="-1.516123">
        <ele>2.518</ele>
        <time>2026-08-21T15:50:00Z</time>
      </trkpt>
      <trkpt lat="48.675410" lon="-1.516140">
        <ele>2.555</ele>
        <time>2026-08-21T15:50:01Z</time>
      </trkpt>
      <trkpt lat="48.675403" lon="-1.516155">
        <ele>2.537</ele>
        <time>2026-08-21T15:50:02Z</time>
      </trkpt>
      <trkpt lat="48.675396" lon="-1.516174">
        <ele>2.549</ele>
        <time>2026-08-21T15:50:03Z</time>
      </trkpt>
      <trkpt lat="48.675389" lon="-1.516193">
        <ele>2.513</ele>
        <time>2026-08-21T15:50:04Z</time>
      </trkpt>
      <trkpt lat="48.675381" lon="-1.516203">
        <ele>2.509</ele>
        <time>2026-08-21T15:50:05Z</time>
      </trkpt>
      <trkpt lat="48.675372" lon="-1.516215">
        <ele>2.535</ele>
        <time>2026-08-21T15:50:06Z</time>
      </trkpt>
      <trkpt lat="48.675365" lon="-1.516229">
        <ele>2.591</ele>
        <time>2026-08-21T15:50:07Z</time>
      </trkpt>
      <trkpt lat="48.675359" lon="-1.516248">
        <ele>2.594</ele>
        <time>2026-08-21T15:50:08Z</time>
      </trkpt>
      <trkpt lat="48.675353" lon="-1.516265">
        <ele>2.515</ele>
        <time>2026-08-21T15:50:09Z</time>
      </trkpt>
      <trkpt lat="48.675347" lon="-1.516279">
        <ele>2.498</ele>
        <time>2026-08-21T15:50:10Z</time>
      </trkpt>
      <trkpt lat="48.675341" lon="-1.516292">
        <ele>2.475</ele>
        <time>2026-08-21T15:50:11Z</time>
      </trkpt>
      <trkpt lat="48.675335" lon="-1.516305">
        <ele>2.446</ele>
        <time>2026-08-21T15:50:12Z</time>
      </trkpt>
      <trkpt lat="48.675331" lon="-1.516321">
        <ele>2.350</ele>
        <time>2026-08-21T15:50:13Z</time>
      </trkpt>
      <trkpt lat="48.675326" lon="-1.516341">
        <ele>2.367</ele>
        <time>2026-08-21T15:50:14Z</time>
      </trkpt>
      <trkpt lat="48.675321" lon="-1.516363">
        <ele>2.343</ele>
        <time>2026-08-21T15:50:15Z</time>
      </trkpt>
      <trkpt lat="48.675318" lon="-1.516381">
        <ele>2.264</ele>
        <time>2026-08-21T15:50:16Z</time>
      </trkpt>
      <trkpt lat="48.675314" lon="-1.516396">
        <ele>2.210</ele>
        <time>2026-08-21T15:50:17Z</time>
      </trkpt>
      <trkpt lat="48.675304" lon="-1.516424">
        <ele>2.209</ele>
        <time>2026-08-21T15:50:19Z</time>
      </trkpt>
      <trkpt lat="48.675297" lon="-1.516443">
        <ele>2.266</ele>
        <time>2026-08-21T15:50:20Z</time>
      </trkpt>
      <trkpt lat="48.675293" lon="-1.516463">
        <ele>2.172</ele>
        <time>2026-08-21T15:50:21Z</time>
      </trkpt>
      <trkpt lat="48.675289" lon="-1.516481">
        <ele>2.165</ele>
        <time>2026-08-21T15:50:22Z</time>
      </trkpt>
      <trkpt lat="48.675287" lon="-1.516495">
        <ele>2.096</ele>
        <time>2026-08-21T15:50:23Z</time>
      </trkpt>
      <trkpt lat="48.675283" lon="-1.516509">
        <ele>2.019</ele>
        <time>2026-08-21T15:50:24Z</time>
      </trkpt>
      <trkpt lat="48.675280" lon="-1.516525">
        <ele>2.086</ele>
        <time>2026-08-21T15:50:25Z</time>
      </trkpt>
      <trkpt lat="48.675276" lon="-1.516540">
        <ele>2.087</ele>
        <time>2026-08-21T15:50:26Z</time>
      </trkpt>
      <trkpt lat="48.675271" lon="-1.516560">
        <ele>2.051</ele>
        <time>2026-08-21T15:50:27Z</time>
      </trkpt>
      <trkpt lat="48.675266" lon="-1.516576">
        <ele>2.078</ele>
        <time>2026-08-21T15:50:28Z</time>
      </trkpt>
      <trkpt lat="48.675261" lon="-1.516591">
        <ele>2.092</ele>
        <time>2026-08-21T15:50:29Z</time>
      </trkpt>
      <trkpt lat="48.675253" lon="-1.516618">
        <ele>2.073</ele>
        <time>2026-08-21T15:50:31Z</time>
      </trkpt>
      <trkpt lat="48.675246" lon="-1.516635">
        <ele>2.020</ele>
        <time>2026-08-21T15:50:32Z</time>
      </trkpt>
      <trkpt lat="48.675239" lon="-1.516649">
        <ele>2.009</ele>
        <time>2026-08-21T15:50:33Z</time>
      </trkpt>
      <trkpt lat="48.675235" lon="-1.516663">
        <ele>2.041</ele>
        <time>2026-08-21T15:50:34Z</time>
      </trkpt>
      <trkpt lat="48.675228" lon="-1.516673">
        <ele>2.047</ele>
        <time>2026-08-21T15:50:35Z</time>
      </trkpt>
      <trkpt lat="48.675225" lon="-1.516688">
        <ele>1.950</ele>
        <time>2026-08-21T15:50:36Z</time>
      </trkpt>
      <trkpt lat="48.675221" lon="-1.516702">
        <ele>1.981</ele>
        <time>2026-08-21T15:50:37Z</time>
      </trkpt>
      <trkpt lat="48.675216" lon="-1.516722">
        <ele>1.914</ele>
        <time>2026-08-21T15:50:38Z</time>
      </trkpt>
      <trkpt lat="48.675211" lon="-1.516739">
        <ele>2.061</ele>
        <time>2026-08-21T15:50:39Z</time>
      </trkpt>
      <trkpt lat="48.675206" lon="-1.516752">
        <ele>2.022</ele>
        <time>2026-08-21T15:50:40Z</time>
      </trkpt>
      <trkpt lat="48.675202" lon="-1.516765">
        <ele>2.016</ele>
        <time>2026-08-21T15:50:41Z</time>
      </trkpt>
      <trkpt lat="48.675200" lon="-1.516780">
        <ele>2.053</ele>
        <time>2026-08-21T15:50:42Z</time>
      </trkpt>
      <trkpt lat="48.675197" lon="-1.516793">
        <ele>2.033</ele>
        <time>2026-08-21T15:50:43Z</time>
      </trkpt>
      <trkpt lat="48.675194" lon="-1.516809">
        <ele>2.023</ele>
        <time>2026-08-21T15:50:44Z</time>
      </trkpt>
      <trkpt lat="48.675191" lon="-1.516826">
        <ele>2.015</ele>
        <time>2026-08-21T15:50:45Z</time>
      </trkpt>
      <trkpt lat="48.675186" lon="-1.516840">
        <ele>2.009</ele>
        <time>2026-08-21T15:50:46Z</time>
      </trkpt>
      <trkpt lat="48.675182" lon="-1.516852">
        <ele>2.055</ele>
        <time>2026-08-21T15:50:47Z</time>
      </trkpt>
      <trkpt lat="48.675177" lon="-1.516869">
        <ele>2.071</ele>
        <time>2026-08-21T15:50:49Z</time>
      </trkpt>
      <trkpt lat="48.675168" lon="-1.516889">
        <ele>2.014</ele>
        <time>2026-08-21T15:50:51Z</time>
      </trkpt>
      <trkpt lat="48.675157" lon="-1.516909">
        <ele>1.955</ele>
        <time>2026-08-21T15:50:53Z</time>
      </trkpt>
      <trkpt lat="48.675151" lon="-1.516919">
        <ele>1.918</ele>
        <time>2026-08-21T15:50:54Z</time>
      </trkpt>
      <trkpt lat="48.675149" lon="-1.516933">
        <ele>1.975</ele>
        <time>2026-08-21T15:50:55Z</time>
      </trkpt>
      <trkpt lat="48.675143" lon="-1.516951">
        <ele>1.976</ele>
        <time>2026-08-21T15:50:57Z</time>
      </trkpt>
      <trkpt lat="48.675134" lon="-1.516974">
        <ele>1.910</ele>
        <time>2026-08-21T15:50:59Z</time>
      </trkpt>
      <trkpt lat="48.675126" lon="-1.516994">
        <ele>1.867</ele>
        <time>2026-08-21T15:51:01Z</time>
      </trkpt>
      <trkpt lat="48.675119" lon="-1.517007">
        <ele>1.851</ele>
        <time>2026-08-21T15:51:03Z</time>
      </trkpt>
      <trkpt lat="48.675110" lon="-1.517032">
        <ele>1.701</ele>
        <time>2026-08-21T15:51:05Z</time>
      </trkpt>
      <trkpt lat="48.675106" lon="-1.517051">
        <ele>1.711</ele>
        <time>2026-08-21T15:51:07Z</time>
      </trkpt>
      <trkpt lat="48.675097" lon="-1.517067">
        <ele>1.609</ele>
        <time>2026-08-21T15:51:09Z</time>
      </trkpt>
      <trkpt lat="48.675094" lon="-1.517080">
        <ele>1.657</ele>
        <time>2026-08-21T15:51:10Z</time>
      </trkpt>
      <trkpt lat="48.675088" lon="-1.517090">
        <ele>1.333</ele>
        <time>2026-08-21T15:51:12Z</time>
      </trkpt>
      <trkpt lat="48.675080" lon="-1.517104">
        <ele>1.256</ele>
        <time>2026-08-21T15:51:14Z</time>
      </trkpt>
      <trkpt lat="48.675074" lon="-1.517116">
        <ele>1.157</ele>
        <time>2026-08-21T15:51:15Z</time>
      </trkpt>
      <trkpt lat="48.675067" lon="-1.517129">
        <ele>1.020</ele>
        <time>2026-08-21T15:51:16Z</time>
      </trkpt>
      <trkpt lat="48.675058" lon="-1.517144">
        <ele>1.037</ele>
        <time>2026-08-21T15:51:18Z</time>
      </trkpt>
      <trkpt lat="48.675046" lon="-1.517161">
        <ele>0.918</ele>
        <time>2026-08-21T15:51:20Z</time>
      </trkpt>
      <trkpt lat="48.675037" lon="-1.517178">
        <ele>0.982</ele>
        <time>2026-08-21T15:51:22Z</time>
      </trkpt>
      <trkpt lat="48.675024" lon="-1.517196">
        <ele>0.859</ele>
        <time>2026-08-21T15:51:24Z</time>
      </trkpt>
      <trkpt lat="48.675014" lon="-1.517213">
        <ele>0.746</ele>
        <time>2026-08-21T15:51:26Z</time>
      </trkpt>
      <trkpt lat="48.675004" lon="-1.517227">
        <ele>0.788</ele>
        <time>2026-08-21T15:51:28Z</time>
      </trkpt>
      <trkpt lat="48.674993" lon="-1.517247">
        <ele>0.716</ele>
        <time>2026-08-21T15:51:30Z</time>
      </trkpt>
      <trkpt lat="48.674979" lon="-1.517256">
        <ele>0.709</ele>
        <time>2026-08-21T15:51:32Z</time>
      </trkpt>
      <trkpt lat="48.674970" lon="-1.517264">
        <ele>0.716</ele>
        <time>2026-08-21T15:51:33Z</time>
      </trkpt>
      <trkpt lat="48.674963" lon="-1.517275">
        <ele>0.742</ele>
        <time>2026-08-21T15:51:34Z</time>
      </trkpt>
      <trkpt lat="48.674956" lon="-1.517282">
        <ele>0.735</ele>
        <time>2026-08-21T15:51:35Z</time>
      </trkpt>
      <trkpt lat="48.674945" lon="-1.517289">
        <ele>0.656</ele>
        <time>2026-08-21T15:51:37Z</time>
      </trkpt>
      <trkpt lat="48.674937" lon="-1.517296">
        <ele>0.619</ele>
        <time>2026-08-21T15:51:38Z</time>
      </trkpt>
      <trkpt lat="48.674927" lon="-1.517316">
        <ele>0.636</ele>
        <time>2026-08-21T15:51:40Z</time>
      </trkpt>
      <trkpt lat="48.674917" lon="-1.517330">
        <ele>0.677</ele>
        <time>2026-08-21T15:51:42Z</time>
      </trkpt>
      <trkpt lat="48.674908" lon="-1.517337">
        <ele>0.621</ele>
        <time>2026-08-21T15:51:43Z</time>
      </trkpt>
      <trkpt lat="48.674895" lon="-1.517359">
        <ele>0.638</ele>
        <time>2026-08-21T15:51:45Z</time>
      </trkpt>
      <trkpt lat="48.674888" lon="-1.517371">
        <ele>0.667</ele>
        <time>2026-08-21T15:51:46Z</time>
      </trkpt>
      <trkpt lat="48.674874" lon="-1.517381">
        <ele>0.781</ele>
        <time>2026-08-21T15:51:48Z</time>
      </trkpt>
      <trkpt lat="48.674859" lon="-1.517396">
        <ele>0.719</ele>
        <time>2026-08-21T15:51:50Z</time>
      </trkpt>
      <trkpt lat="48.674850" lon="-1.517409">
        <ele>0.709</ele>
        <time>2026-08-21T15:51:52Z</time>
      </trkpt>
      <trkpt lat="48.674835" lon="-1.517421">
        <ele>0.718</ele>
        <time>2026-08-21T15:51:54Z</time>
      </trkpt>
      <trkpt lat="48.674826" lon="-1.517430">
        <ele>0.774</ele>
        <time>2026-08-21T15:51:55Z</time>
      </trkpt>
      <trkpt lat="48.674814" lon="-1.517444">
        <ele>0.617</ele>
        <time>2026-08-21T15:51:57Z</time>
      </trkpt>
      <trkpt lat="48.674799" lon="-1.517458">
        <ele>0.688</ele>
        <time>2026-08-21T15:51:59Z</time>
      </trkpt>
      <trkpt lat="48.674793" lon="-1.517469">
        <ele>0.611</ele>
        <time>2026-08-21T15:52:00Z</time>
      </trkpt>
      <trkpt lat="48.674781" lon="-1.517483">
        <ele>0.658</ele>
        <time>2026-08-21T15:52:02Z</time>
      </trkpt>
      <trkpt lat="48.674766" lon="-1.517493">
        <ele>0.659</ele>
        <time>2026-08-21T15:52:04Z</time>
      </trkpt>
      <trkpt lat="48.674758" lon="-1.517504">
        <ele>0.743</ele>
        <time>2026-08-21T15:52:05Z</time>
      </trkpt>
      <trkpt lat="48.674744" lon="-1.517514">
        <ele>0.750</ele>
        <time>2026-08-21T15:52:07Z</time>
      </trkpt>
      <trkpt lat="48.674735" lon="-1.517519">
        <ele>0.744</ele>
        <time>2026-08-21T15:52:08Z</time>
      </trkpt>
      <trkpt lat="48.674727" lon="-1.517529">
        <ele>0.705</ele>
        <time>2026-08-21T15:52:09Z</time>
      </trkpt>
      <trkpt lat="48.674719" lon="-1.517540">
        <ele>0.715</ele>
        <time>2026-08-21T15:52:10Z</time>
      </trkpt>
      <trkpt lat="48.674710" lon="-1.517550">
        <ele>0.709</ele>
        <time>2026-08-21T15:52:12Z</time>
      </trkpt>
      <trkpt lat="48.674702" lon="-1.517558">
        <ele>0.726</ele>
        <time>2026-08-21T15:52:13Z</time>
      </trkpt>
      <trkpt lat="48.674692" lon="-1.517567">
        <ele>0.742</ele>
        <time>2026-08-21T15:52:14Z</time>
      </trkpt>
      <trkpt lat="48.674684" lon="-1.517575">
        <ele>0.785</ele>
        <time>2026-08-21T15:52:15Z</time>
      </trkpt>
      <trkpt lat="48.674675" lon="-1.517583">
        <ele>0.776</ele>
        <time>2026-08-21T15:52:16Z</time>
      </trkpt>
      <trkpt lat="48.674664" lon="-1.517596">
        <ele>0.699</ele>
        <time>2026-08-21T15:52:18Z</time>
      </trkpt>
      <trkpt lat="48.674658" lon="-1.517606">
        <ele>0.616</ele>
        <time>2026-08-21T15:52:19Z</time>
      </trkpt>
      <trkpt lat="48.674649" lon="-1.517617">
        <ele>0.527</ele>
        <time>2026-08-21T15:52:20Z</time>
      </trkpt>
      <trkpt lat="48.674642" lon="-1.517627">
        <ele>0.521</ele>
        <time>2026-08-21T15:52:21Z</time>
      </trkpt>
      <trkpt lat="48.674630" lon="-1.517640">
        <ele>0.528</ele>
        <time>2026-08-21T15:52:23Z</time>
      </trkpt>
      <trkpt lat="48.674622" lon="-1.517647">
        <ele>0.593</ele>
        <time>2026-08-21T15:52:26Z</time>
      </trkpt>
      <trkpt lat="48.674612" lon="-1.517655">
        <ele>0.565</ele>
        <time>2026-08-21T15:52:28Z</time>
      </trkpt>
      <trkpt lat="48.674603" lon="-1.517660">
        <ele>0.521</ele>
        <time>2026-08-21T15:52:32Z</time>
      </trkpt>
      <trkpt lat="48.674590" lon="-1.517662">
        <ele>0.509</ele>
        <time>2026-08-21T15:52:34Z</time>
      </trkpt>
      <trkpt lat="48.674579" lon="-1.517672">
        <ele>0.581</ele>
        <time>2026-08-21T15:52:37Z</time>
      </trkpt>
      <trkpt lat="48.674572" lon="-1.517682">
        <ele>0.527</ele>
        <time>2026-08-21T15:52:39Z</time>
      </trkpt>
      <trkpt lat="48.674561" lon="-1.517682">
        <ele>0.610</ele>
        <time>2026-08-21T15:53:36Z</time>
      </trkpt>
      <trkpt lat="48.674548" lon="-1.517681">
        <ele>0.531</ele>
        <time>2026-08-21T15:53:39Z</time>
      </trkpt>
      <trkpt lat="48.674538" lon="-1.517686">
        <ele>0.444</ele>
        <time>2026-08-21T15:53:41Z</time>
      </trkpt>
      <trkpt lat="48.674526" lon="-1.517695">
        <ele>0.441</ele>
        <time>2026-08-21T15:53:44Z</time>
      </trkpt>
      <trkpt lat="48.674514" lon="-1.517698">
        <ele>0.432</ele>
        <time>2026-08-21T15:53:46Z</time>
      </trkpt>
      <trkpt lat="48.674499" lon="-1.517696">
        <ele>0.576</ele>
        <time>2026-08-21T15:53:48Z</time>
      </trkpt>
      <trkpt lat="48.674486" lon="-1.517694">
        <ele>0.683</ele>
        <time>2026-08-21T15:53:50Z</time>
      </trkpt>
      <trkpt lat="48.674472" lon="-1.517692">
        <ele>0.655</ele>
        <time>2026-08-21T15:53:52Z</time>
      </trkpt>
      <trkpt lat="48.674459" lon="-1.517689">
        <ele>0.607</ele>
        <time>2026-08-21T15:53:54Z</time>
      </trkpt>
      <trkpt lat="48.674450" lon="-1.517683">
        <ele>0.617</ele>
        <time>2026-08-21T15:53:56Z</time>
      </trkpt>
      <trkpt lat="48.674434" lon="-1.517681">
        <ele>0.609</ele>
        <time>2026-08-21T15:53:58Z</time>
      </trkpt>
      <trkpt lat="48.674420" lon="-1.517674">
        <ele>0.647</ele>
        <time>2026-08-21T15:54:00Z</time>
      </trkpt>
      <trkpt lat="48.674406" lon="-1.517672">
        <ele>0.783</ele>
        <time>2026-08-21T15:54:02Z</time>
      </trkpt>
      <trkpt lat="48.674393" lon="-1.517664">
        <ele>0.786</ele>
        <time>2026-08-21T15:54:04Z</time>
      </trkpt>
      <trkpt lat="48.674384" lon="-1.517654">
        <ele>0.737</ele>
        <time>2026-08-21T15:54:05Z</time>
      </trkpt>
      <trkpt lat="48.674376" lon="-1.517651">
        <ele>0.740</ele>
        <time>2026-08-21T15:54:06Z</time>
      </trkpt>
      <trkpt lat="48.674367" lon="-1.517646">
        <ele>0.767</ele>
        <time>2026-08-21T15:54:07Z</time>
      </trkpt>
      <trkpt lat="48.674356" lon="-1.517650">
        <ele>0.758</ele>
        <time>2026-08-21T15:54:09Z</time>
      </trkpt>
      <trkpt lat="48.674339" lon="-1.517648">
        <ele>0.742</ele>
        <time>2026-08-21T15:54:11Z</time>
      </trkpt>
      <trkpt lat="48.674325" lon="-1.517643">
        <ele>0.869</ele>
        <time>2026-08-21T15:54:13Z</time>
      </trkpt>
      <trkpt lat="48.674312" lon="-1.517642">
        <ele>0.877</ele>
        <time>2026-08-21T15:54:15Z</time>
      </trkpt>
      <trkpt lat="48.674297" lon="-1.517637">
        <ele>0.861</ele>
        <time>2026-08-21T15:54:17Z</time>
      </trkpt>
      <trkpt lat="48.674283" lon="-1.517632">
        <ele>0.827</ele>
        <time>2026-08-21T15:54:19Z</time>
      </trkpt>
      <trkpt lat="48.674275" lon="-1.517627">
        <ele>1.009</ele>
        <time>2026-08-21T15:54:20Z</time>
      </trkpt>
      <trkpt lat="48.674264" lon="-1.517614">
        <ele>1.119</ele>
        <time>2026-08-21T15:54:21Z</time>
      </trkpt>
      <trkpt lat="48.674256" lon="-1.517600">
        <ele>1.185</ele>
        <time>2026-08-21T15:54:22Z</time>
      </trkpt>
      <trkpt lat="48.674243" lon="-1.517581">
        <ele>1.198</ele>
        <time>2026-08-21T15:54:24Z</time>
      </trkpt>
      <trkpt lat="48.674234" lon="-1.517561">
        <ele>1.039</ele>
        <time>2026-08-21T15:54:26Z</time>
      </trkpt>
      <trkpt lat="48.674228" lon="-1.517550">
        <ele>0.912</ele>
        <time>2026-08-21T15:54:27Z</time>
      </trkpt>
      <trkpt lat="48.674210" lon="-1.517538">
        <ele>1.019</ele>
        <time>2026-08-21T15:54:29Z</time>
      </trkpt>
      <trkpt lat="48.674202" lon="-1.517533">
        <ele>1.140</ele>
        <time>2026-08-21T15:54:30Z</time>
      </trkpt>
      <trkpt lat="48.674188" lon="-1.517516">
        <ele>1.134</ele>
        <time>2026-08-21T15:54:32Z</time>
      </trkpt>
      <trkpt lat="48.674181" lon="-1.517507">
        <ele>1.111</ele>
        <time>2026-08-21T15:54:33Z</time>
      </trkpt>
      <trkpt lat="48.674172" lon="-1.517496">
        <ele>1.194</ele>
        <time>2026-08-21T15:54:34Z</time>
      </trkpt>
      <trkpt lat="48.674163" lon="-1.517491">
        <ele>1.157</ele>
        <time>2026-08-21T15:54:35Z</time>
      </trkpt>
      <trkpt lat="48.674153" lon="-1.517480">
        <ele>1.122</ele>
        <time>2026-08-21T15:54:37Z</time>
      </trkpt>
      <trkpt lat="48.674139" lon="-1.517465">
        <ele>1.109</ele>
        <time>2026-08-21T15:54:39Z</time>
      </trkpt>
      <trkpt lat="48.674130" lon="-1.517450">
        <ele>1.131</ele>
        <time>2026-08-21T15:54:41Z</time>
      </trkpt>
      <trkpt lat="48.674115" lon="-1.517436">
        <ele>1.157</ele>
        <time>2026-08-21T15:54:43Z</time>
      </trkpt>
      <trkpt lat="48.674102" lon="-1.517432">
        <ele>1.110</ele>
        <time>2026-08-21T15:54:45Z</time>
      </trkpt>
      <trkpt lat="48.674090" lon="-1.517426">
        <ele>1.191</ele>
        <time>2026-08-21T15:54:48Z</time>
      </trkpt>
      <trkpt lat="48.674081" lon="-1.517419">
        <ele>1.144</ele>
        <time>2026-08-21T15:54:49Z</time>
      </trkpt>
      <trkpt lat="48.674069" lon="-1.517404">
        <ele>1.161</ele>
        <time>2026-08-21T15:54:51Z</time>
      </trkpt>
      <trkpt lat="48.674063" lon="-1.517388">
        <ele>1.132</ele>
        <time>2026-08-21T15:54:53Z</time>
      </trkpt>
      <trkpt lat="48.674054" lon="-1.517380">
        <ele>1.186</ele>
        <time>2026-08-21T15:54:54Z</time>
      </trkpt>
      <trkpt lat="48.674044" lon="-1.517374">
        <ele>1.053</ele>
        <time>2026-08-21T15:54:55Z</time>
      </trkpt>
      <trkpt lat="48.674037" lon="-1.517366">
        <ele>1.048</ele>
        <time>2026-08-21T15:54:56Z</time>
      </trkpt>
      <trkpt lat="48.674022" lon="-1.517358">
        <ele>0.961</ele>
        <time>2026-08-21T15:54:58Z</time>
      </trkpt>
      <trkpt lat="48.674012" lon="-1.517353">
        <ele>0.917</ele>
        <time>2026-08-21T15:54:59Z</time>
      </trkpt>
      <trkpt lat="48.674003" lon="-1.517346">
        <ele>0.809</ele>
        <time>2026-08-21T15:55:00Z</time>
      </trkpt>
      <trkpt lat="48.673987" lon="-1.517338">
        <ele>0.766</ele>
        <time>2026-08-21T15:55:02Z</time>
      </trkpt>
      <trkpt lat="48.673977" lon="-1.517335">
        <ele>0.652</ele>
        <time>2026-08-21T15:55:03Z</time>
      </trkpt>
      <trkpt lat="48.673961" lon="-1.517326">
        <ele>0.615</ele>
        <time>2026-08-21T15:55:05Z</time>
      </trkpt>
      <trkpt lat="48.673952" lon="-1.517317">
        <ele>0.416</ele>
        <time>2026-08-21T15:55:06Z</time>
      </trkpt>
      <trkpt lat="48.673940" lon="-1.517311">
        <ele>0.059</ele>
        <time>2026-08-21T15:55:07Z</time>
      </trkpt>
      <trkpt lat="48.673930" lon="-1.517311">
        <ele>-0.186</ele>
        <time>2026-08-21T15:55:08Z</time>
      </trkpt>
      <trkpt lat="48.673914" lon="-1.517305">
        <ele>-0.187</ele>
        <time>2026-08-21T15:55:10Z</time>
      </trkpt>
      <trkpt lat="48.673900" lon="-1.517293">
        <ele>-0.161</ele>
        <time>2026-08-21T15:55:12Z</time>
      </trkpt>
      <trkpt lat="48.673889" lon="-1.517291">
        <ele>-0.198</ele>
        <time>2026-08-21T15:55:13Z</time>
      </trkpt>
      <trkpt lat="48.673877" lon="-1.517286">
        <ele>-0.178</ele>
        <time>2026-08-21T15:55:14Z</time>
      </trkpt>
      <trkpt lat="48.673868" lon="-1.517285">
        <ele>-0.133</ele>
        <time>2026-08-21T15:55:15Z</time>
      </trkpt>
      <trkpt lat="48.673852" lon="-1.517278">
        <ele>-0.126</ele>
        <time>2026-08-21T15:55:17Z</time>
      </trkpt>
      <trkpt lat="48.673843" lon="-1.517273">
        <ele>-0.109</ele>
        <time>2026-08-21T15:55:18Z</time>
      </trkpt>
      <trkpt lat="48.673833" lon="-1.517267">
        <ele>-0.149</ele>
        <time>2026-08-21T15:55:19Z</time>
      </trkpt>
      <trkpt lat="48.673822" lon="-1.517259">
        <ele>-0.125</ele>
        <time>2026-08-21T15:55:20Z</time>
      </trkpt>
      <trkpt lat="48.673814" lon="-1.517252">
        <ele>-0.198</ele>
        <time>2026-08-21T15:55:21Z</time>
      </trkpt>
      <trkpt lat="48.673796" lon="-1.517239">
        <ele>-0.169</ele>
        <time>2026-08-21T15:55:23Z</time>
      </trkpt>
      <trkpt lat="48.673783" lon="-1.517234">
        <ele>-0.142</ele>
        <time>2026-08-21T15:55:24Z</time>
      </trkpt>
      <trkpt lat="48.673771" lon="-1.517226">
        <ele>-0.119</ele>
        <time>2026-08-21T15:55:25Z</time>
      </trkpt>
      <trkpt lat="48.673762" lon="-1.517219">
        <ele>-0.140</ele>
        <time>2026-08-21T15:55:26Z</time>
      </trkpt>
      <trkpt lat="48.673749" lon="-1.517211">
        <ele>-0.134</ele>
        <time>2026-08-21T15:55:28Z</time>
      </trkpt>
      <trkpt lat="48.673741" lon="-1.517202">
        <ele>-0.131</ele>
        <time>2026-08-21T15:55:29Z</time>
      </trkpt>
      <trkpt lat="48.673729" lon="-1.517194">
        <ele>-0.156</ele>
        <time>2026-08-21T15:55:30Z</time>
      </trkpt>
      <trkpt lat="48.673716" lon="-1.517186">
        <ele>0.059</ele>
        <time>2026-08-21T15:55:31Z</time>
      </trkpt>
      <trkpt lat="48.673706" lon="-1.517177">
        <ele>0.014</ele>
        <time>2026-08-21T15:55:32Z</time>
      </trkpt>
      <trkpt lat="48.673699" lon="-1.517169">
        <ele>0.009</ele>
        <time>2026-08-21T15:55:33Z</time>
      </trkpt>
      <trkpt lat="48.673689" lon="-1.517163">
        <ele>0.047</ele>
        <time>2026-08-21T15:55:34Z</time>
      </trkpt>
      <trkpt lat="48.673679" lon="-1.517158">
        <ele>0.063</ele>
        <time>2026-08-21T15:55:35Z</time>
      </trkpt>
      <trkpt lat="48.673670" lon="-1.517150">
        <ele>0.026</ele>
        <time>2026-08-21T15:55:36Z</time>
      </trkpt>
      <trkpt lat="48.673657" lon="-1.517138">
        <ele>0.057</ele>
        <time>2026-08-21T15:55:38Z</time>
      </trkpt>
      <trkpt lat="48.673649" lon="-1.517129">
        <ele>0.020</ele>
        <time>2026-08-21T15:55:39Z</time>
      </trkpt>
      <trkpt lat="48.673639" lon="-1.517124">
        <ele>0.087</ele>
        <time>2026-08-21T15:55:40Z</time>
      </trkpt>
      <trkpt lat="48.673630" lon="-1.517118">
        <ele>0.048</ele>
        <time>2026-08-21T15:55:41Z</time>
      </trkpt>
      <trkpt lat="48.673614" lon="-1.517104">
        <ele>0.022</ele>
        <time>2026-08-21T15:55:43Z</time>
      </trkpt>
      <trkpt lat="48.673602" lon="-1.517099">
        <ele>0.089</ele>
        <time>2026-08-21T15:55:44Z</time>
      </trkpt>
      <trkpt lat="48.673592" lon="-1.517096">
        <ele>0.073</ele>
        <time>2026-08-21T15:55:45Z</time>
      </trkpt>
      <trkpt lat="48.673577" lon="-1.517093">
        <ele>0.085</ele>
        <time>2026-08-21T15:55:47Z</time>
      </trkpt>
      <trkpt lat="48.673567" lon="-1.517093">
        <ele>0.013</ele>
        <time>2026-08-21T15:55:48Z</time>
      </trkpt>
      <trkpt lat="48.673556" lon="-1.517089">
        <ele>0.009</ele>
        <time>2026-08-21T15:55:49Z</time>
      </trkpt>
      <trkpt lat="48.673547" lon="-1.517083">
        <ele>0.029</ele>
        <time>2026-08-21T15:55:50Z</time>
      </trkpt>
      <trkpt lat="48.673527" lon="-1.517074">
        <ele>0.095</ele>
        <time>2026-08-21T15:55:52Z</time>
      </trkpt>
      <trkpt lat="48.673516" lon="-1.517069">
        <ele>0.028</ele>
        <time>2026-08-21T15:55:53Z</time>
      </trkpt>
      <trkpt lat="48.673506" lon="-1.517064">
        <ele>0.099</ele>
        <time>2026-08-21T15:55:54Z</time>
      </trkpt>
      <trkpt lat="48.673497" lon="-1.517055">
        <ele>0.062</ele>
        <time>2026-08-21T15:55:55Z</time>
      </trkpt>
      <trkpt lat="48.673487" lon="-1.517049">
        <ele>0.069</ele>
        <time>2026-08-21T15:55:56Z</time>
      </trkpt>
      <trkpt lat="48.673476" lon="-1.517044">
        <ele>0.010</ele>
        <time>2026-08-21T15:55:57Z</time>
      </trkpt>
      <trkpt lat="48.673458" lon="-1.517040">
        <ele>0.064</ele>
        <time>2026-08-21T15:55:59Z</time>
      </trkpt>
      <trkpt lat="48.673449" lon="-1.517036">
        <ele>0.011</ele>
        <time>2026-08-21T15:56:00Z</time>
      </trkpt>
      <trkpt lat="48.673440" lon="-1.517032">
        <ele>0.156</ele>
        <time>2026-08-21T15:56:01Z</time>
      </trkpt>
      <trkpt lat="48.673430" lon="-1.517027">
        <ele>0.159</ele>
        <time>2026-08-21T15:56:02Z</time>
      </trkpt>
      <trkpt lat="48.673418" lon="-1.517020">
        <ele>0.114</ele>
        <time>2026-08-21T15:56:03Z</time>
      </trkpt>
      <trkpt lat="48.673408" lon="-1.517012">
        <ele>0.109</ele>
        <time>2026-08-21T15:56:04Z</time>
      </trkpt>
      <trkpt lat="48.673399" lon="-1.517005">
        <ele>0.177</ele>
        <time>2026-08-21T15:56:05Z</time>
      </trkpt>
      <trkpt lat="48.673391" lon="-1.516998">
        <ele>0.173</ele>
        <time>2026-08-21T15:56:06Z</time>
      </trkpt>
      <trkpt lat="48.673380" lon="-1.516991">
        <ele>0.176</ele>
        <time>2026-08-21T15:56:07Z</time>
      </trkpt>
      <trkpt lat="48.673365" lon="-1.516979">
        <ele>0.197</ele>
        <time>2026-08-21T15:56:08Z</time>
      </trkpt>
      <trkpt lat="48.673356" lon="-1.516974">
        <ele>0.170</ele>
        <time>2026-08-21T15:56:09Z</time>
      </trkpt>
      <trkpt lat="48.673344" lon="-1.516965">
        <ele>0.277</ele>
        <time>2026-08-21T15:56:11Z</time>
      </trkpt>
      <trkpt lat="48.673333" lon="-1.516957">
        <ele>0.278</ele>
        <time>2026-08-21T15:56:12Z</time>
      </trkpt>
      <trkpt lat="48.673321" lon="-1.516950">
        <ele>0.212</ele>
        <time>2026-08-21T15:56:13Z</time>
      </trkpt>
      <trkpt lat="48.673312" lon="-1.516945">
        <ele>0.339</ele>
        <time>2026-08-21T15:56:14Z</time>
      </trkpt>
      <trkpt lat="48.673301" lon="-1.516935">
        <ele>0.328</ele>
        <time>2026-08-21T15:56:15Z</time>
      </trkpt>
      <trkpt lat="48.673284" lon="-1.516926">
        <ele>0.489</ele>
        <time>2026-08-21T15:56:17Z</time>
      </trkpt>
      <trkpt lat="48.673272" lon="-1.516920">
        <ele>0.417</ele>
        <time>2026-08-21T15:56:18Z</time>
      </trkpt>
      <trkpt lat="48.673258" lon="-1.516913">
        <ele>0.409</ele>
        <time>2026-08-21T15:56:19Z</time>
      </trkpt>
      <trkpt lat="48.673247" lon="-1.516908">
        <ele>0.424</ele>
        <time>2026-08-21T15:56:20Z</time>
      </trkpt>
      <trkpt lat="48.673237" lon="-1.516899">
        <ele>0.490</ele>
        <time>2026-08-21T15:56:21Z</time>
      </trkpt>
      <trkpt lat="48.673230" lon="-1.516891">
        <ele>0.433</ele>
        <time>2026-08-21T15:56:22Z</time>
      </trkpt>
      <trkpt lat="48.673218" lon="-1.516883">
        <ele>0.474</ele>
        <time>2026-08-21T15:56:23Z</time>
      </trkpt>
      <trkpt lat="48.673204" lon="-1.516879">
        <ele>0.497</ele>
        <time>2026-08-21T15:56:24Z</time>
      </trkpt>
      <trkpt lat="48.673191" lon="-1.516875">
        <ele>0.464</ele>
        <time>2026-08-21T15:56:25Z</time>
      </trkpt>
      <trkpt lat="48.673181" lon="-1.516870">
        <ele>0.435</ele>
        <time>2026-08-21T15:56:26Z</time>
      </trkpt>
      <trkpt lat="48.673163" lon="-1.516866">
        <ele>0.419</ele>
        <time>2026-08-21T15:56:28Z</time>
      </trkpt>
      <trkpt lat="48.673151" lon="-1.516863">
        <ele>0.466</ele>
        <time>2026-08-21T15:56:29Z</time>
      </trkpt>
      <trkpt lat="48.673140" lon="-1.516861">
        <ele>0.539</ele>
        <time>2026-08-21T15:56:30Z</time>
      </trkpt>
      <trkpt lat="48.673127" lon="-1.516851">
        <ele>0.501</ele>
        <time>2026-08-21T15:56:32Z</time>
      </trkpt>
      <trkpt lat="48.673119" lon="-1.516843">
        <ele>0.521</ele>
        <time>2026-08-21T15:56:33Z</time>
      </trkpt>
      <trkpt lat="48.673106" lon="-1.516834">
        <ele>0.509</ele>
        <time>2026-08-21T15:56:34Z</time>
      </trkpt>
      <trkpt lat="48.673092" lon="-1.516830">
        <ele>0.535</ele>
        <time>2026-08-21T15:56:35Z</time>
      </trkpt>
      <trkpt lat="48.673083" lon="-1.516825">
        <ele>0.591</ele>
        <time>2026-08-21T15:56:36Z</time>
      </trkpt>
      <trkpt lat="48.673074" lon="-1.516818">
        <ele>0.534</ele>
        <time>2026-08-21T15:56:37Z</time>
      </trkpt>
      <trkpt lat="48.673059" lon="-1.516817">
        <ele>0.535</ele>
        <time>2026-08-21T15:56:39Z</time>
      </trkpt>
      <trkpt lat="48.673047" lon="-1.516805">
        <ele>0.558</ele>
        <time>2026-08-21T15:56:40Z</time>
      </trkpt>
      <trkpt lat="48.673037" lon="-1.516798">
        <ele>0.635</ele>
        <time>2026-08-21T15:56:41Z</time>
      </trkpt>
      <trkpt lat="48.673022" lon="-1.516783">
        <ele>0.686</ele>
        <time>2026-08-21T15:56:43Z</time>
      </trkpt>
      <trkpt lat="48.673013" lon="-1.516775">
        <ele>0.670</ele>
        <time>2026-08-21T15:56:44Z</time>
      </trkpt>
      <trkpt lat="48.673004" lon="-1.516768">
        <ele>0.657</ele>
        <time>2026-08-21T15:56:45Z</time>
      </trkpt>
      <trkpt lat="48.672990" lon="-1.516765">
        <ele>0.649</ele>
        <time>2026-08-21T15:56:47Z</time>
      </trkpt>
      <trkpt lat="48.672976" lon="-1.516757">
        <ele>0.602</ele>
        <time>2026-08-21T15:56:48Z</time>
      </trkpt>
      <trkpt lat="48.672963" lon="-1.516750">
        <ele>0.522</ele>
        <time>2026-08-21T15:56:49Z</time>
      </trkpt>
      <trkpt lat="48.672951" lon="-1.516744">
        <ele>0.509</ele>
        <time>2026-08-21T15:56:50Z</time>
      </trkpt>
      <trkpt lat="48.672941" lon="-1.516739">
        <ele>0.526</ele>
        <time>2026-08-21T15:56:51Z</time>
      </trkpt>
      <trkpt lat="48.672933" lon="-1.516731">
        <ele>0.542</ele>
        <time>2026-08-21T15:56:52Z</time>
      </trkpt>
      <trkpt lat="48.672920" lon="-1.516725">
        <ele>0.615</ele>
        <time>2026-08-21T15:56:54Z</time>
      </trkpt>
      <trkpt lat="48.672909" lon="-1.516727">
        <ele>0.646</ele>
        <time>2026-08-21T15:56:55Z</time>
      </trkpt>
      <trkpt lat="48.672898" lon="-1.516725">
        <ele>0.689</ele>
        <time>2026-08-21T15:56:56Z</time>
      </trkpt>
      <trkpt lat="48.672885" lon="-1.516721">
        <ele>0.786</ele>
        <time>2026-08-21T15:56:57Z</time>
      </trkpt>
      <trkpt lat="48.672874" lon="-1.516711">
        <ele>0.737</ele>
        <time>2026-08-21T15:56:58Z</time>
      </trkpt>
      <trkpt lat="48.672858" lon="-1.516700">
        <ele>0.771</ele>
        <time>2026-08-21T15:57:00Z</time>
      </trkpt>
      <trkpt lat="48.672847" lon="-1.516697">
        <ele>0.788</ele>
        <time>2026-08-21T15:57:01Z</time>
      </trkpt>
      <trkpt lat="48.672832" lon="-1.516695">
        <ele>0.745</ele>
        <time>2026-08-21T15:57:02Z</time>
      </trkpt>
      <trkpt lat="48.672818" lon="-1.516693">
        <ele>0.747</ele>
        <time>2026-08-21T15:57:03Z</time>
      </trkpt>
      <trkpt lat="48.672807" lon="-1.516690">
        <ele>0.711</ele>
        <time>2026-08-21T15:57:04Z</time>
      </trkpt>
      <trkpt lat="48.672798" lon="-1.516685">
        <ele>0.809</ele>
        <time>2026-08-21T15:57:05Z</time>
      </trkpt>
      <trkpt lat="48.672789" lon="-1.516681">
        <ele>0.836</ele>
        <time>2026-08-21T15:57:06Z</time>
      </trkpt>
      <trkpt lat="48.672779" lon="-1.516678">
        <ele>0.872</ele>
        <time>2026-08-21T15:57:07Z</time>
      </trkpt>
      <trkpt lat="48.672767" lon="-1.516674">
        <ele>0.875</ele>
        <time>2026-08-21T15:57:08Z</time>
      </trkpt>
      <trkpt lat="48.672756" lon="-1.516671">
        <ele>0.866</ele>
        <time>2026-08-21T15:57:09Z</time>
      </trkpt>
      <trkpt lat="48.672744" lon="-1.516666">
        <ele>0.849</ele>
        <time>2026-08-21T15:57:10Z</time>
      </trkpt>
      <trkpt lat="48.672735" lon="-1.516662">
        <ele>0.816</ele>
        <time>2026-08-21T15:57:11Z</time>
      </trkpt>
      <trkpt lat="48.672716" lon="-1.516656">
        <ele>0.837</ele>
        <time>2026-08-21T15:57:13Z</time>
      </trkpt>
      <trkpt lat="48.672704" lon="-1.516654">
        <ele>0.821</ele>
        <time>2026-08-21T15:57:14Z</time>
      </trkpt>
      <trkpt lat="48.672689" lon="-1.516649">
        <ele>0.858</ele>
        <time>2026-08-21T15:57:15Z</time>
      </trkpt>
      <trkpt lat="48.672678" lon="-1.516643">
        <ele>0.853</ele>
        <time>2026-08-21T15:57:16Z</time>
      </trkpt>
      <trkpt lat="48.672667" lon="-1.516637">
        <ele>0.804</ele>
        <time>2026-08-21T15:57:17Z</time>
      </trkpt>
      <trkpt lat="48.672659" lon="-1.516632">
        <ele>0.814</ele>
        <time>2026-08-21T15:57:18Z</time>
      </trkpt>
      <trkpt lat="48.672649" lon="-1.516629">
        <ele>0.809</ele>
        <time>2026-08-21T15:57:19Z</time>
      </trkpt>
      <trkpt lat="48.672636" lon="-1.516628">
        <ele>0.897</ele>
        <time>2026-08-21T15:57:20Z</time>
      </trkpt>
      <trkpt lat="48.672621" lon="-1.516623">
        <ele>0.873</ele>
        <time>2026-08-21T15:57:21Z</time>
      </trkpt>
      <trkpt lat="48.672610" lon="-1.516619">
        <ele>0.896</ele>
        <time>2026-08-21T15:57:22Z</time>
      </trkpt>
      <trkpt lat="48.672600" lon="-1.516614">
        <ele>0.957</ele>
        <time>2026-08-21T15:57:23Z</time>
      </trkpt>
      <trkpt lat="48.672581" lon="-1.516606">
        <ele>0.970</ele>
        <time>2026-08-21T15:57:25Z</time>
      </trkpt>
      <trkpt lat="48.672569" lon="-1.516597">
        <ele>0.967</ele>
        <time>2026-08-21T15:57:26Z</time>
      </trkpt>
      <trkpt lat="48.672555" lon="-1.516591">
        <ele>0.928</ele>
        <time>2026-08-21T15:57:27Z</time>
      </trkpt>
      <trkpt lat="48.672544" lon="-1.516582">
        <ele>1.052</ele>
        <time>2026-08-21T15:57:28Z</time>
      </trkpt>
      <trkpt lat="48.672535" lon="-1.516574">
        <ele>1.089</ele>
        <time>2026-08-21T15:57:29Z</time>
      </trkpt>
      <trkpt lat="48.672525" lon="-1.516572">
        <ele>1.137</ele>
        <time>2026-08-21T15:57:30Z</time>
      </trkpt>
      <trkpt lat="48.672514" lon="-1.516576">
        <ele>1.249</ele>
        <time>2026-08-21T15:57:31Z</time>
      </trkpt>
      <trkpt lat="48.672503" lon="-1.516580">
        <ele>1.313</ele>
        <time>2026-08-21T15:57:32Z</time>
      </trkpt>
      <trkpt lat="48.672491" lon="-1.516578">
        <ele>1.309</ele>
        <time>2026-08-21T15:57:33Z</time>
      </trkpt>
      <trkpt lat="48.672479" lon="-1.516568">
        <ele>1.415</ele>
        <time>2026-08-21T15:57:34Z</time>
      </trkpt>
      <trkpt lat="48.672467" lon="-1.516563">
        <ele>1.541</ele>
        <time>2026-08-21T15:57:35Z</time>
      </trkpt>
      <trkpt lat="48.672456" lon="-1.516561">
        <ele>1.634</ele>
        <time>2026-08-21T15:57:36Z</time>
      </trkpt>
      <trkpt lat="48.672447" lon="-1.516555">
        <ele>1.625</ele>
        <time>2026-08-21T15:57:37Z</time>
      </trkpt>
      <trkpt lat="48.672434" lon="-1.516543">
        <ele>1.698</ele>
        <time>2026-08-21T15:57:38Z</time>
      </trkpt>
      <trkpt lat="48.672419" lon="-1.516539">
        <ele>1.625</ele>
        <time>2026-08-21T15:57:39Z</time>
      </trkpt>
      <trkpt lat="48.672405" lon="-1.516535">
        <ele>1.776</ele>
        <time>2026-08-21T15:57:40Z</time>
      </trkpt>
      <trkpt lat="48.672395" lon="-1.516531">
        <ele>1.730</ele>
        <time>2026-08-21T15:57:41Z</time>
      </trkpt>
      <trkpt lat="48.672385" lon="-1.516527">
        <ele>1.717</ele>
        <time>2026-08-21T15:57:42Z</time>
      </trkpt>
      <trkpt lat="48.672375" lon="-1.516522">
        <ele>1.793</ele>
        <time>2026-08-21T15:57:43Z</time>
      </trkpt>
      <trkpt lat="48.672363" lon="-1.516520">
        <ele>1.765</ele>
        <time>2026-08-21T15:57:44Z</time>
      </trkpt>
      <trkpt lat="48.672350" lon="-1.516516">
        <ele>1.821</ele>
        <time>2026-08-21T15:57:45Z</time>
      </trkpt>
      <trkpt lat="48.672340" lon="-1.516510">
        <ele>1.809</ele>
        <time>2026-08-21T15:57:46Z</time>
      </trkpt>
      <trkpt lat="48.672331" lon="-1.516503">
        <ele>1.821</ele>
        <time>2026-08-21T15:57:47Z</time>
      </trkpt>
      <trkpt lat="48.672322" lon="-1.516498">
        <ele>1.827</ele>
        <time>2026-08-21T15:57:48Z</time>
      </trkpt>
      <trkpt lat="48.672312" lon="-1.516494">
        <ele>1.830</ele>
        <time>2026-08-21T15:57:49Z</time>
      </trkpt>
      <trkpt lat="48.672298" lon="-1.516492">
        <ele>1.871</ele>
        <time>2026-08-21T15:57:50Z</time>
      </trkpt>
      <trkpt lat="48.672283" lon="-1.516488">
        <ele>1.884</ele>
        <time>2026-08-21T15:57:51Z</time>
      </trkpt>
      <trkpt lat="48.672266" lon="-1.516484">
        <ele>1.891</ele>
        <time>2026-08-21T15:57:52Z</time>
      </trkpt>
      <trkpt lat="48.672251" lon="-1.516480">
        <ele>1.822</ele>
        <time>2026-08-21T15:57:53Z</time>
      </trkpt>
      <trkpt lat="48.672240" lon="-1.516477">
        <ele>1.986</ele>
        <time>2026-08-21T15:57:54Z</time>
      </trkpt>
      <trkpt lat="48.672232" lon="-1.516472">
        <ele>1.983</ele>
        <time>2026-08-21T15:57:55Z</time>
      </trkpt>
      <trkpt lat="48.672213" lon="-1.516462">
        <ele>1.994</ele>
        <time>2026-08-21T15:57:57Z</time>
      </trkpt>
      <trkpt lat="48.672200" lon="-1.516460">
        <ele>1.957</ele>
        <time>2026-08-21T15:57:58Z</time>
      </trkpt>
      <trkpt lat="48.672187" lon="-1.516458">
        <ele>1.922</ele>
        <time>2026-08-21T15:57:59Z</time>
      </trkpt>
      <trkpt lat="48.672176" lon="-1.516456">
        <ele>1.909</ele>
        <time>2026-08-21T15:58:00Z</time>
      </trkpt>
      <trkpt lat="48.672165" lon="-1.516450">
        <ele>1.911</ele>
        <time>2026-08-21T15:58:01Z</time>
      </trkpt>
      <trkpt lat="48.672153" lon="-1.516439">
        <ele>1.977</ele>
        <time>2026-08-21T15:58:02Z</time>
      </trkpt>
      <trkpt lat="48.672142" lon="-1.516430">
        <ele>1.980</ele>
        <time>2026-08-21T15:58:03Z</time>
      </trkpt>
      <trkpt lat="48.672128" lon="-1.516424">
        <ele>2.061</ele>
        <time>2026-08-21T15:58:04Z</time>
      </trkpt>
      <trkpt lat="48.672114" lon="-1.516417">
        <ele>2.024</ele>
        <time>2026-08-21T15:58:05Z</time>
      </trkpt>
      <trkpt lat="48.672097" lon="-1.516415">
        <ele>2.041</ele>
        <time>2026-08-21T15:58:06Z</time>
      </trkpt>
      <trkpt lat="48.672084" lon="-1.516411">
        <ele>2.112</ele>
        <time>2026-08-21T15:58:07Z</time>
      </trkpt>
      <trkpt lat="48.672071" lon="-1.516413">
        <ele>2.146</ele>
        <time>2026-08-21T15:58:08Z</time>
      </trkpt>
      <trkpt lat="48.672060" lon="-1.516416">
        <ele>2.373</ele>
        <time>2026-08-21T15:58:09Z</time>
      </trkpt>
      <trkpt lat="48.672048" lon="-1.516415">
        <ele>2.533</ele>
        <time>2026-08-21T15:58:11Z</time>
      </trkpt>
      <trkpt lat="48.672039" lon="-1.516407">
        <ele>2.523</ele>
        <time>2026-08-21T15:58:12Z</time>
      </trkpt>
      <trkpt lat="48.672027" lon="-1.516398">
        <ele>2.515</ele>
        <time>2026-08-21T15:58:13Z</time>
      </trkpt>
      <trkpt lat="48.672012" lon="-1.516392">
        <ele>2.609</ele>
        <time>2026-08-21T15:58:14Z</time>
      </trkpt>
      <trkpt lat="48.671998" lon="-1.516386">
        <ele>2.665</ele>
        <time>2026-08-21T15:58:15Z</time>
      </trkpt>
      <trkpt lat="48.671988" lon="-1.516381">
        <ele>2.771</ele>
        <time>2026-08-21T15:58:16Z</time>
      </trkpt>
      <trkpt lat="48.671978" lon="-1.516376">
        <ele>2.864</ele>
        <time>2026-08-21T15:58:17Z</time>
      </trkpt>
      <trkpt lat="48.671968" lon="-1.516376">
        <ele>2.955</ele>
        <time>2026-08-21T15:58:18Z</time>
      </trkpt>
      <trkpt lat="48.671957" lon="-1.516373">
        <ele>2.978</ele>
        <time>2026-08-21T15:58:19Z</time>
      </trkpt>
      <trkpt lat="48.671942" lon="-1.516363">
        <ele>2.975</ele>
        <time>2026-08-21T15:58:20Z</time>
      </trkpt>
      <trkpt lat="48.671929" lon="-1.516359">
        <ele>2.986</ele>
        <time>2026-08-21T15:58:21Z</time>
      </trkpt>
      <trkpt lat="48.671915" lon="-1.516353">
        <ele>2.980</ele>
        <time>2026-08-21T15:58:22Z</time>
      </trkpt>
      <trkpt lat="48.671903" lon="-1.516348">
        <ele>2.977</ele>
        <time>2026-08-21T15:58:23Z</time>
      </trkpt>
      <trkpt lat="48.671893" lon="-1.516340">
        <ele>2.955</ele>
        <time>2026-08-21T15:58:24Z</time>
      </trkpt>
      <trkpt lat="48.671873" lon="-1.516325">
        <ele>2.907</ele>
        <time>2026-08-21T15:58:26Z</time>
      </trkpt>
      <trkpt lat="48.671860" lon="-1.516322">
        <ele>2.917</ele>
        <time>2026-08-21T15:58:27Z</time>
      </trkpt>
      <trkpt lat="48.671845" lon="-1.516322">
        <ele>2.909</ele>
        <time>2026-08-21T15:58:28Z</time>
      </trkpt>
      <trkpt lat="48.671831" lon="-1.516324">
        <ele>2.997</ele>
        <time>2026-08-21T15:58:29Z</time>
      </trkpt>
      <trkpt lat="48.671817" lon="-1.516321">
        <ele>2.983</ele>
        <time>2026-08-21T15:58:30Z</time>
      </trkpt>
      <trkpt lat="48.671805" lon="-1.516318">
        <ele>2.936</ele>
        <time>2026-08-21T15:58:31Z</time>
      </trkpt>
      <trkpt lat="48.671793" lon="-1.516313">
        <ele>2.957</ele>
        <time>2026-08-21T15:58:32Z</time>
      </trkpt>
      <trkpt lat="48.671784" lon="-1.516309">
        <ele>2.990</ele>
        <time>2026-08-21T15:58:33Z</time>
      </trkpt>
      <trkpt lat="48.671772" lon="-1.516306">
        <ele>2.967</ele>
        <time>2026-08-21T15:58:34Z</time>
      </trkpt>
      <trkpt lat="48.671759" lon="-1.516304">
        <ele>2.928</ele>
        <time>2026-08-21T15:58:35Z</time>
      </trkpt>
      <trkpt lat="48.671744" lon="-1.516298">
        <ele>2.972</ele>
        <time>2026-08-21T15:58:36Z</time>
      </trkpt>
      <trkpt lat="48.671729" lon="-1.516294">
        <ele>2.999</ele>
        <time>2026-08-21T15:58:37Z</time>
      </trkpt>
      <trkpt lat="48.671716" lon="-1.516297">
        <ele>2.743</ele>
        <time>2026-08-21T15:58:38Z</time>
      </trkpt>
      <trkpt lat="48.671704" lon="-1.516296">
        <ele>2.664</ele>
        <time>2026-08-21T15:58:39Z</time>
      </trkpt>
      <trkpt lat="48.671691" lon="-1.516291">
        <ele>2.610</ele>
        <time>2026-08-21T15:58:41Z</time>
      </trkpt>
      <trkpt lat="48.671670" lon="-1.516285">
        <ele>2.609</ele>
        <time>2026-08-21T15:58:43Z</time>
      </trkpt>
      <trkpt lat="48.671657" lon="-1.516284">
        <ele>2.626</ele>
        <time>2026-08-21T15:58:44Z</time>
      </trkpt>
      <trkpt lat="48.671642" lon="-1.516283">
        <ele>2.662</ele>
        <time>2026-08-21T15:58:45Z</time>
      </trkpt>
      <trkpt lat="48.671629" lon="-1.516281">
        <ele>2.675</ele>
        <time>2026-08-21T15:58:46Z</time>
      </trkpt>
      <trkpt lat="48.671616" lon="-1.516279">
        <ele>2.636</ele>
        <time>2026-08-21T15:58:47Z</time>
      </trkpt>
      <trkpt lat="48.671605" lon="-1.516275">
        <ele>2.699</ele>
        <time>2026-08-21T15:58:48Z</time>
      </trkpt>
      <trkpt lat="48.671589" lon="-1.516265">
        <ele>2.616</ele>
        <time>2026-08-21T15:58:50Z</time>
      </trkpt>
      <trkpt lat="48.671578" lon="-1.516263">
        <ele>2.647</ele>
        <time>2026-08-21T15:58:51Z</time>
      </trkpt>
      <trkpt lat="48.671565" lon="-1.516260">
        <ele>2.581</ele>
        <time>2026-08-21T15:58:52Z</time>
      </trkpt>
      <trkpt lat="48.671550" lon="-1.516259">
        <ele>2.518</ele>
        <time>2026-08-21T15:58:53Z</time>
      </trkpt>
      <trkpt lat="48.671536" lon="-1.516257">
        <ele>2.551</ele>
        <time>2026-08-21T15:58:54Z</time>
      </trkpt>
      <trkpt lat="48.671522" lon="-1.516248">
        <ele>2.501</ele>
        <time>2026-08-21T15:58:55Z</time>
      </trkpt>
      <trkpt lat="48.671510" lon="-1.516247">
        <ele>2.511</ele>
        <time>2026-08-21T15:58:56Z</time>
      </trkpt>
      <trkpt lat="48.671499" lon="-1.516243">
        <ele>2.509</ele>
        <time>2026-08-21T15:58:57Z</time>
      </trkpt>
      <trkpt lat="48.671489" lon="-1.516239">
        <ele>2.527</ele>
        <time>2026-08-21T15:58:58Z</time>
      </trkpt>
      <trkpt lat="48.671476" lon="-1.516238">
        <ele>2.523</ele>
        <time>2026-08-21T15:58:59Z</time>
      </trkpt>
      <trkpt lat="48.671462" lon="-1.516236">
        <ele>2.556</ele>
        <time>2026-08-21T15:59:00Z</time>
      </trkpt>
      <trkpt lat="48.671452" lon="-1.516239">
        <ele>2.597</ele>
        <time>2026-08-21T15:59:01Z</time>
      </trkpt>
      <trkpt lat="48.671440" lon="-1.516237">
        <ele>2.510</ele>
        <time>2026-08-21T15:59:02Z</time>
      </trkpt>
      <trkpt lat="48.671429" lon="-1.516237">
        <ele>2.687</ele>
        <time>2026-08-21T15:59:03Z</time>
      </trkpt>
      <trkpt lat="48.671416" lon="-1.516228">
        <ele>2.638</ele>
        <time>2026-08-21T15:59:04Z</time>
      </trkpt>
      <trkpt lat="48.671406" lon="-1.516220">
        <ele>2.692</ele>
        <time>2026-08-21T15:59:05Z</time>
      </trkpt>
      <trkpt lat="48.671398" lon="-1.516209">
        <ele>2.669</ele>
        <time>2026-08-21T15:59:06Z</time>
      </trkpt>
      <trkpt lat="48.671384" lon="-1.516201">
        <ele>2.631</ele>
        <time>2026-08-21T15:59:07Z</time>
      </trkpt>
      <trkpt lat="48.671370" lon="-1.516197">
        <ele>2.661</ele>
        <time>2026-08-21T15:59:08Z</time>
      </trkpt>
      <trkpt lat="48.671354" lon="-1.516196">
        <ele>2.707</ele>
        <time>2026-08-21T15:59:09Z</time>
      </trkpt>
      <trkpt lat="48.671336" lon="-1.516191">
        <ele>2.709</ele>
        <time>2026-08-21T15:59:10Z</time>
      </trkpt>
      <trkpt lat="48.671323" lon="-1.516188">
        <ele>2.785</ele>
        <time>2026-08-21T15:59:11Z</time>
      </trkpt>
      <trkpt lat="48.671312" lon="-1.516187">
        <ele>2.781</ele>
        <time>2026-08-21T15:59:12Z</time>
      </trkpt>
      <trkpt lat="48.671304" lon="-1.516181">
        <ele>2.724</ele>
        <time>2026-08-21T15:59:13Z</time>
      </trkpt>
      <trkpt lat="48.671284" lon="-1.516172">
        <ele>2.865</ele>
        <time>2026-08-21T15:59:15Z</time>
      </trkpt>
      <trkpt lat="48.671269" lon="-1.516163">
        <ele>2.878</ele>
        <time>2026-08-21T15:59:16Z</time>
      </trkpt>
      <trkpt lat="48.671254" lon="-1.516165">
        <ele>2.835</ele>
        <time>2026-08-21T15:59:17Z</time>
      </trkpt>
      <trkpt lat="48.671239" lon="-1.516167">
        <ele>2.976</ele>
        <time>2026-08-21T15:59:18Z</time>
      </trkpt>
      <trkpt lat="48.671222" lon="-1.516163">
        <ele>2.980</ele>
        <time>2026-08-21T15:59:20Z</time>
      </trkpt>
      <trkpt lat="48.671215" lon="-1.516156">
        <ele>2.937</ele>
        <time>2026-08-21T15:59:21Z</time>
      </trkpt>
      <trkpt lat="48.671202" lon="-1.516163">
        <ele>2.953</ele>
        <time>2026-08-21T15:59:22Z</time>
      </trkpt>
      <trkpt lat="48.671191" lon="-1.516166">
        <ele>2.904</ele>
        <time>2026-08-21T15:59:23Z</time>
      </trkpt>
      <trkpt lat="48.671178" lon="-1.516167">
        <ele>2.914</ele>
        <time>2026-08-21T15:59:24Z</time>
      </trkpt>
      <trkpt lat="48.671166" lon="-1.516163">
        <ele>2.909</ele>
        <time>2026-08-21T15:59:25Z</time>
      </trkpt>
      <trkpt lat="48.671152" lon="-1.516158">
        <ele>2.937</ele>
        <time>2026-08-21T15:59:26Z</time>
      </trkpt>
      <trkpt lat="48.671136" lon="-1.516152">
        <ele>2.993</ele>
        <time>2026-08-21T15:59:27Z</time>
      </trkpt>
      <trkpt lat="48.671126" lon="-1.516146">
        <ele>2.976</ele>
        <time>2026-08-21T15:59:28Z</time>
      </trkpt>
      <trkpt lat="48.671118" lon="-1.516137">
        <ele>2.927</ele>
        <time>2026-08-21T15:59:29Z</time>
      </trkpt>
      <trkpt lat="48.671109" lon="-1.516130">
        <ele>2.990</ele>
        <time>2026-08-21T15:59:30Z</time>
      </trkpt>
      <trkpt lat="48.671096" lon="-1.516124">
        <ele>2.977</ele>
        <time>2026-08-21T15:59:31Z</time>
      </trkpt>
      <trkpt lat="48.671082" lon="-1.516121">
        <ele>2.868</ele>
        <time>2026-08-21T15:59:32Z</time>
      </trkpt>
      <trkpt lat="48.671067" lon="-1.516116">
        <ele>2.822</ele>
        <time>2026-08-21T15:59:33Z</time>
      </trkpt>
      <trkpt lat="48.671055" lon="-1.516112">
        <ele>2.729</ele>
        <time>2026-08-21T15:59:34Z</time>
      </trkpt>
      <trkpt lat="48.671038" lon="-1.516109">
        <ele>2.541</ele>
        <time>2026-08-21T15:59:35Z</time>
      </trkpt>
      <trkpt lat="48.671026" lon="-1.516105">
        <ele>2.481</ele>
        <time>2026-08-21T15:59:36Z</time>
      </trkpt>
      <trkpt lat="48.671012" lon="-1.516100">
        <ele>2.309</ele>
        <time>2026-08-21T15:59:38Z</time>
      </trkpt>
      <trkpt lat="48.670994" lon="-1.516099">
        <ele>2.209</ele>
        <time>2026-08-21T15:59:40Z</time>
      </trkpt>
      <trkpt lat="48.670979" lon="-1.516100">
        <ele>2.236</ele>
        <time>2026-08-21T15:59:41Z</time>
      </trkpt>
      <trkpt lat="48.670965" lon="-1.516100">
        <ele>2.282</ele>
        <time>2026-08-21T15:59:42Z</time>
      </trkpt>
      <trkpt lat="48.670951" lon="-1.516096">
        <ele>2.265</ele>
        <time>2026-08-21T15:59:43Z</time>
      </trkpt>
      <trkpt lat="48.670941" lon="-1.516091">
        <ele>2.296</ele>
        <time>2026-08-21T15:59:44Z</time>
      </trkpt>
      <trkpt lat="48.670934" lon="-1.516084">
        <ele>2.299</ele>
        <time>2026-08-21T15:59:45Z</time>
      </trkpt>
      <trkpt lat="48.670913" lon="-1.516076">
        <ele>2.256</ele>
        <time>2026-08-21T15:59:47Z</time>
      </trkpt>
      <trkpt lat="48.670900" lon="-1.516073">
        <ele>2.237</ele>
        <time>2026-08-21T15:59:48Z</time>
      </trkpt>
      <trkpt lat="48.670885" lon="-1.516072">
        <ele>2.231</ele>
        <time>2026-08-21T15:59:49Z</time>
      </trkpt>
      <trkpt lat="48.670873" lon="-1.516069">
        <ele>2.278</ele>
        <time>2026-08-21T15:59:50Z</time>
      </trkpt>
      <trkpt lat="48.670863" lon="-1.516063">
        <ele>2.221</ele>
        <time>2026-08-21T15:59:51Z</time>
      </trkpt>
      <trkpt lat="48.670852" lon="-1.516060">
        <ele>2.241</ele>
        <time>2026-08-21T15:59:52Z</time>
      </trkpt>
      <trkpt lat="48.670842" lon="-1.516055">
        <ele>2.205</ele>
        <time>2026-08-21T15:59:53Z</time>
      </trkpt>
      <trkpt lat="48.670829" lon="-1.516053">
        <ele>2.209</ele>
        <time>2026-08-21T15:59:54Z</time>
      </trkpt>
      <trkpt lat="48.670815" lon="-1.516051">
        <ele>2.254</ele>
        <time>2026-08-21T15:59:55Z</time>
      </trkpt>
      <trkpt lat="48.670801" lon="-1.516047">
        <ele>2.250</ele>
        <time>2026-08-21T15:59:56Z</time>
      </trkpt>
      <trkpt lat="48.670788" lon="-1.516043">
        <ele>2.233</ele>
        <time>2026-08-21T15:59:57Z</time>
      </trkpt>
      <trkpt lat="48.670777" lon="-1.516043">
        <ele>2.294</ele>
        <time>2026-08-21T15:59:58Z</time>
      </trkpt>
      <trkpt lat="48.670767" lon="-1.516040">
        <ele>2.247</ele>
        <time>2026-08-21T15:59:59Z</time>
      </trkpt>
      <trkpt lat="48.670757" lon="-1.516036">
        <ele>2.374</ele>
        <time>2026-08-21T16:00:00Z</time>
      </trkpt>
      <trkpt lat="48.670747" lon="-1.516028">
        <ele>2.395</ele>
        <time>2026-08-21T16:00:01Z</time>
      </trkpt>
      <trkpt lat="48.670736" lon="-1.516022">
        <ele>2.479</ele>
        <time>2026-08-21T16:00:02Z</time>
      </trkpt>
      <trkpt lat="48.670723" lon="-1.516018">
        <ele>2.676</ele>
        <time>2026-08-21T16:00:03Z</time>
      </trkpt>
      <trkpt lat="48.670708" lon="-1.516015">
        <ele>2.632</ele>
        <time>2026-08-21T16:00:04Z</time>
      </trkpt>
      <trkpt lat="48.670691" lon="-1.516009">
        <ele>2.792</ele>
        <time>2026-08-21T16:00:05Z</time>
      </trkpt>
      <trkpt lat="48.670678" lon="-1.516007">
        <ele>2.711</ele>
        <time>2026-08-21T16:00:06Z</time>
      </trkpt>
      <trkpt lat="48.670667" lon="-1.516000">
        <ele>2.709</ele>
        <time>2026-08-21T16:00:07Z</time>
      </trkpt>
      <trkpt lat="48.670657" lon="-1.515991">
        <ele>2.815</ele>
        <time>2026-08-21T16:00:08Z</time>
      </trkpt>
      <trkpt lat="48.670647" lon="-1.515983">
        <ele>2.871</ele>
        <time>2026-08-21T16:00:09Z</time>
      </trkpt>
      <trkpt lat="48.670635" lon="-1.515979">
        <ele>2.854</ele>
        <time>2026-08-21T16:00:10Z</time>
      </trkpt>
      <trkpt lat="48.670623" lon="-1.515975">
        <ele>2.885</ele>
        <time>2026-08-21T16:00:11Z</time>
      </trkpt>
      <trkpt lat="48.670611" lon="-1.515970">
        <ele>2.838</ele>
        <time>2026-08-21T16:00:12Z</time>
      </trkpt>
      <trkpt lat="48.670600" lon="-1.515964">
        <ele>2.835</ele>
        <time>2026-08-21T16:00:13Z</time>
      </trkpt>
      <trkpt lat="48.670586" lon="-1.515958">
        <ele>2.846</ele>
        <time>2026-08-21T16:00:14Z</time>
      </trkpt>
      <trkpt lat="48.670577" lon="-1.515954">
        <ele>2.880</ele>
        <time>2026-08-21T16:00:15Z</time>
      </trkpt>
      <trkpt lat="48.670567" lon="-1.515952">
        <ele>2.887</ele>
        <time>2026-08-21T16:00:16Z</time>
      </trkpt>
      <trkpt lat="48.670557" lon="-1.515949">
        <ele>2.873</ele>
        <time>2026-08-21T16:00:17Z</time>
      </trkpt>
      <trkpt lat="48.670545" lon="-1.515946">
        <ele>2.885</ele>
        <time>2026-08-21T16:00:18Z</time>
      </trkpt>
      <trkpt lat="48.670532" lon="-1.515946">
        <ele>2.813</ele>
        <time>2026-08-21T16:00:19Z</time>
      </trkpt>
      <trkpt lat="48.670518" lon="-1.515944">
        <ele>2.809</ele>
        <time>2026-08-21T16:00:20Z</time>
      </trkpt>
      <trkpt lat="48.670506" lon="-1.515943">
        <ele>2.819</ele>
        <time>2026-08-21T16:00:21Z</time>
      </trkpt>
      <trkpt lat="48.670496" lon="-1.515941">
        <ele>2.815</ele>
        <time>2026-08-21T16:00:22Z</time>
      </trkpt>
      <trkpt lat="48.670487" lon="-1.515939">
        <ele>2.888</ele>
        <time>2026-08-21T16:00:23Z</time>
      </trkpt>
      <trkpt lat="48.670467" lon="-1.515931">
        <ele>2.869</ele>
        <time>2026-08-21T16:00:25Z</time>
      </trkpt>
      <trkpt lat="48.670452" lon="-1.515925">
        <ele>2.862</ele>
        <time>2026-08-21T16:00:26Z</time>
      </trkpt>
      <trkpt lat="48.670443" lon="-1.515923">
        <ele>2.879</ele>
        <time>2026-08-21T16:00:27Z</time>
      </trkpt>
      <trkpt lat="48.670430" lon="-1.515918">
        <ele>2.820</ele>
        <time>2026-08-21T16:00:28Z</time>
      </trkpt>
      <trkpt lat="48.670416" lon="-1.515912">
        <ele>2.894</ele>
        <time>2026-08-21T16:00:29Z</time>
      </trkpt>
      <trkpt lat="48.670404" lon="-1.515905">
        <ele>2.831</ele>
        <time>2026-08-21T16:00:30Z</time>
      </trkpt>
      <trkpt lat="48.670381" lon="-1.515891">
        <ele>2.885</ele>
        <time>2026-08-21T16:00:32Z</time>
      </trkpt>
      <trkpt lat="48.670371" lon="-1.515891">
        <ele>2.889</ele>
        <time>2026-08-21T16:00:33Z</time>
      </trkpt>
      <trkpt lat="48.670359" lon="-1.515892">
        <ele>2.817</ele>
        <time>2026-08-21T16:00:34Z</time>
      </trkpt>
      <trkpt lat="48.670344" lon="-1.515889">
        <ele>2.709</ele>
        <time>2026-08-21T16:00:35Z</time>
      </trkpt>
      <trkpt lat="48.670333" lon="-1.515887">
        <ele>2.710</ele>
        <time>2026-08-21T16:00:36Z</time>
      </trkpt>
      <trkpt lat="48.670322" lon="-1.515884">
        <ele>2.746</ele>
        <time>2026-08-21T16:00:37Z</time>
      </trkpt>
      <trkpt lat="48.670310" lon="-1.515883">
        <ele>2.759</ele>
        <time>2026-08-21T16:00:38Z</time>
      </trkpt>
      <trkpt lat="48.670301" lon="-1.515879">
        <ele>2.760</ele>
        <time>2026-08-21T16:00:39Z</time>
      </trkpt>
      <trkpt lat="48.670280" lon="-1.515871">
        <ele>2.793</ele>
        <time>2026-08-21T16:00:41Z</time>
      </trkpt>
      <trkpt lat="48.670264" lon="-1.515867">
        <ele>2.710</ele>
        <time>2026-08-21T16:00:42Z</time>
      </trkpt>
      <trkpt lat="48.670249" lon="-1.515862">
        <ele>2.761</ele>
        <time>2026-08-21T16:00:43Z</time>
      </trkpt>
      <trkpt lat="48.670235" lon="-1.515854">
        <ele>2.795</ele>
        <time>2026-08-21T16:00:44Z</time>
      </trkpt>
      <trkpt lat="48.670226" lon="-1.515851">
        <ele>2.782</ele>
        <time>2026-08-21T16:00:45Z</time>
      </trkpt>
      <trkpt lat="48.670217" lon="-1.515840">
        <ele>2.615</ele>
        <time>2026-08-21T16:00:46Z</time>
      </trkpt>
      <trkpt lat="48.670206" lon="-1.515837">
        <ele>2.665</ele>
        <time>2026-08-21T16:00:47Z</time>
      </trkpt>
      <trkpt lat="48.670193" lon="-1.515831">
        <ele>2.611</ele>
        <time>2026-08-21T16:00:48Z</time>
      </trkpt>
      <trkpt lat="48.670180" lon="-1.515828">
        <ele>2.609</ele>
        <time>2026-08-21T16:00:49Z</time>
      </trkpt>
      <trkpt lat="48.670168" lon="-1.515824">
        <ele>2.673</ele>
        <time>2026-08-21T16:00:50Z</time>
      </trkpt>
      <trkpt lat="48.670156" lon="-1.515818">
        <ele>2.649</ele>
        <time>2026-08-21T16:00:51Z</time>
      </trkpt>
      <trkpt lat="48.670141" lon="-1.515814">
        <ele>2.682</ele>
        <time>2026-08-21T16:00:52Z</time>
      </trkpt>
      <trkpt lat="48.670125" lon="-1.515806">
        <ele>2.613</ele>
        <time>2026-08-21T16:00:53Z</time>
      </trkpt>
      <trkpt lat="48.670113" lon="-1.515799">
        <ele>2.616</ele>
        <time>2026-08-21T16:00:54Z</time>
      </trkpt>
      <trkpt lat="48.670104" lon="-1.515793">
        <ele>2.613</ele>
        <time>2026-08-21T16:00:55Z</time>
      </trkpt>
      <trkpt lat="48.670095" lon="-1.515792">
        <ele>2.664</ele>
        <time>2026-08-21T16:00:56Z</time>
      </trkpt>
      <trkpt lat="48.670084" lon="-1.515789">
        <ele>2.678</ele>
        <time>2026-08-21T16:00:57Z</time>
      </trkpt>
      <trkpt lat="48.670070" lon="-1.515787">
        <ele>2.665</ele>
        <time>2026-08-21T16:00:58Z</time>
      </trkpt>
      <trkpt lat="48.670058" lon="-1.515783">
        <ele>2.766</ele>
        <time>2026-08-21T16:00:59Z</time>
      </trkpt>
      <trkpt lat="48.670043" lon="-1.515780">
        <ele>2.729</ele>
        <time>2026-08-21T16:01:00Z</time>
      </trkpt>
      <trkpt lat="48.670030" lon="-1.515776">
        <ele>2.721</ele>
        <time>2026-08-21T16:01:01Z</time>
      </trkpt>
      <trkpt lat="48.670019" lon="-1.515772">
        <ele>2.709</ele>
        <time>2026-08-21T16:01:02Z</time>
      </trkpt>
      <trkpt lat="48.670009" lon="-1.515768">
        <ele>2.718</ele>
        <time>2026-08-21T16:01:03Z</time>
      </trkpt>
      <trkpt lat="48.669999" lon="-1.515761">
        <ele>2.734</ele>
        <time>2026-08-21T16:01:04Z</time>
      </trkpt>
      <trkpt lat="48.669988" lon="-1.515759">
        <ele>2.757</ele>
        <time>2026-08-21T16:01:05Z</time>
      </trkpt>
      <trkpt lat="48.669977" lon="-1.515754">
        <ele>2.738</ele>
        <time>2026-08-21T16:01:06Z</time>
      </trkpt>
      <trkpt lat="48.669964" lon="-1.515752">
        <ele>2.761</ele>
        <time>2026-08-21T16:01:07Z</time>
      </trkpt>
      <trkpt lat="48.669951" lon="-1.515749">
        <ele>2.828</ele>
        <time>2026-08-21T16:01:08Z</time>
      </trkpt>
      <trkpt lat="48.669940" lon="-1.515745">
        <ele>2.829</ele>
        <time>2026-08-21T16:01:09Z</time>
      </trkpt>
      <trkpt lat="48.669929" lon="-1.515741">
        <ele>2.993</ele>
        <time>2026-08-21T16:01:10Z</time>
      </trkpt>
      <trkpt lat="48.669920" lon="-1.515732">
        <ele>2.940</ele>
        <time>2026-08-21T16:01:11Z</time>
      </trkpt>
      <trkpt lat="48.669910" lon="-1.515722">
        <ele>2.942</ele>
        <time>2026-08-21T16:01:12Z</time>
      </trkpt>
      <trkpt lat="48.669897" lon="-1.515714">
        <ele>2.922</ele>
        <time>2026-08-21T16:01:13Z</time>
      </trkpt>
      <trkpt lat="48.669885" lon="-1.515703">
        <ele>3.014</ele>
        <time>2026-08-21T16:01:14Z</time>
      </trkpt>
      <trkpt lat="48.669871" lon="-1.515696">
        <ele>3.009</ele>
        <time>2026-08-21T16:01:15Z</time>
      </trkpt>
      <trkpt lat="48.669857" lon="-1.515691">
        <ele>3.056</ele>
        <time>2026-08-21T16:01:16Z</time>
      </trkpt>
      <trkpt lat="48.669842" lon="-1.515684">
        <ele>3.082</ele>
        <time>2026-08-21T16:01:17Z</time>
      </trkpt>
      <trkpt lat="48.669830" lon="-1.515680">
        <ele>3.035</ele>
        <time>2026-08-21T16:01:18Z</time>
      </trkpt>
      <trkpt lat="48.669820" lon="-1.515675">
        <ele>3.086</ele>
        <time>2026-08-21T16:01:19Z</time>
      </trkpt>
      <trkpt lat="48.669812" lon="-1.515666">
        <ele>3.079</ele>
        <time>2026-08-21T16:01:20Z</time>
      </trkpt>
      <trkpt lat="48.669801" lon="-1.515665">
        <ele>2.936</ele>
        <time>2026-08-21T16:01:21Z</time>
      </trkpt>
      <trkpt lat="48.669791" lon="-1.515659">
        <ele>2.997</ele>
        <time>2026-08-21T16:01:22Z</time>
      </trkpt>
      <trkpt lat="48.669778" lon="-1.515652">
        <ele>2.981</ele>
        <time>2026-08-21T16:01:23Z</time>
      </trkpt>
      <trkpt lat="48.669761" lon="-1.515643">
        <ele>3.018</ele>
        <time>2026-08-21T16:01:24Z</time>
      </trkpt>
      <trkpt lat="48.669748" lon="-1.515636">
        <ele>3.032</ele>
        <time>2026-08-21T16:01:25Z</time>
      </trkpt>
      <trkpt lat="48.669738" lon="-1.515630">
        <ele>3.092</ele>
        <time>2026-08-21T16:01:26Z</time>
      </trkpt>
      <trkpt lat="48.669725" lon="-1.515626">
        <ele>3.011</ele>
        <time>2026-08-21T16:01:27Z</time>
      </trkpt>
      <trkpt lat="48.669715" lon="-1.515624">
        <ele>3.009</ele>
        <time>2026-08-21T16:01:28Z</time>
      </trkpt>
      <trkpt lat="48.669706" lon="-1.515616">
        <ele>3.085</ele>
        <time>2026-08-21T16:01:29Z</time>
      </trkpt>
      <trkpt lat="48.669696" lon="-1.515609">
        <ele>3.081</ele>
        <time>2026-08-21T16:01:30Z</time>
      </trkpt>
      <trkpt lat="48.669683" lon="-1.515602">
        <ele>3.014</ele>
        <time>2026-08-21T16:01:31Z</time>
      </trkpt>
      <trkpt lat="48.669670" lon="-1.515596">
        <ele>3.085</ele>
        <time>2026-08-21T16:01:32Z</time>
      </trkpt>
      <trkpt lat="48.669655" lon="-1.515588">
        <ele>3.088</ele>
        <time>2026-08-21T16:01:33Z</time>
      </trkpt>
      <trkpt lat="48.669642" lon="-1.515580">
        <ele>3.045</ele>
        <time>2026-08-21T16:01:34Z</time>
      </trkpt>
      <trkpt lat="48.669633" lon="-1.515575">
        <ele>3.026</ele>
        <time>2026-08-21T16:01:35Z</time>
      </trkpt>
      <trkpt lat="48.669625" lon="-1.515570">
        <ele>3.040</ele>
        <time>2026-08-21T16:01:36Z</time>
      </trkpt>
      <trkpt lat="48.669605" lon="-1.515566">
        <ele>3.067</ele>
        <time>2026-08-21T16:01:38Z</time>
      </trkpt>
      <trkpt lat="48.669590" lon="-1.515560">
        <ele>3.093</ele>
        <time>2026-08-21T16:01:39Z</time>
      </trkpt>
      <trkpt lat="48.669578" lon="-1.515549">
        <ele>3.065</ele>
        <time>2026-08-21T16:01:40Z</time>
      </trkpt>
      <trkpt lat="48.669566" lon="-1.515539">
        <ele>2.921</ele>
        <time>2026-08-21T16:01:41Z</time>
      </trkpt>
      <trkpt lat="48.669556" lon="-1.515536">
        <ele>2.809</ele>
        <time>2026-08-21T16:01:42Z</time>
      </trkpt>
      <trkpt lat="48.669546" lon="-1.515532">
        <ele>2.831</ele>
        <time>2026-08-21T16:01:43Z</time>
      </trkpt>
      <trkpt lat="48.669537" lon="-1.515532">
        <ele>2.837</ele>
        <time>2026-08-21T16:01:44Z</time>
      </trkpt>
      <trkpt lat="48.669522" lon="-1.515524">
        <ele>2.790</ele>
        <time>2026-08-21T16:01:45Z</time>
      </trkpt>
      <trkpt lat="48.669508" lon="-1.515517">
        <ele>2.781</ele>
        <time>2026-08-21T16:01:46Z</time>
      </trkpt>
      <trkpt lat="48.669494" lon="-1.515513">
        <ele>2.744</ele>
        <time>2026-08-21T16:01:47Z</time>
      </trkpt>
      <trkpt lat="48.669482" lon="-1.515506">
        <ele>2.751</ele>
        <time>2026-08-21T16:01:48Z</time>
      </trkpt>
      <trkpt lat="48.669472" lon="-1.515498">
        <ele>2.652</ele>
        <time>2026-08-21T16:01:49Z</time>
      </trkpt>
      <trkpt lat="48.669463" lon="-1.515491">
        <ele>2.476</ele>
        <time>2026-08-21T16:01:50Z</time>
      </trkpt>
      <trkpt lat="48.669455" lon="-1.515483">
        <ele>2.393</ele>
        <time>2026-08-21T16:01:51Z</time>
      </trkpt>
      <trkpt lat="48.669445" lon="-1.515481">
        <ele>2.241</ele>
        <time>2026-08-21T16:01:52Z</time>
      </trkpt>
      <trkpt lat="48.669433" lon="-1.515478">
        <ele>2.281</ele>
        <time>2026-08-21T16:01:53Z</time>
      </trkpt>
      <trkpt lat="48.669420" lon="-1.515473">
        <ele>2.109</ele>
        <time>2026-08-21T16:01:54Z</time>
      </trkpt>
      <trkpt lat="48.669405" lon="-1.515467">
        <ele>2.009</ele>
        <time>2026-08-21T16:01:55Z</time>
      </trkpt>
      <trkpt lat="48.669390" lon="-1.515462">
        <ele>1.956</ele>
        <time>2026-08-21T16:01:56Z</time>
      </trkpt>
      <trkpt lat="48.669375" lon="-1.515457">
        <ele>1.852</ele>
        <time>2026-08-21T16:01:57Z</time>
      </trkpt>
      <trkpt lat="48.669364" lon="-1.515454">
        <ele>1.845</ele>
        <time>2026-08-21T16:01:58Z</time>
      </trkpt>
      <trkpt lat="48.669355" lon="-1.515447">
        <ele>1.866</ele>
        <time>2026-08-21T16:01:59Z</time>
      </trkpt>
      <trkpt lat="48.669345" lon="-1.515439">
        <ele>1.899</ele>
        <time>2026-08-21T16:02:00Z</time>
      </trkpt>
      <trkpt lat="48.669334" lon="-1.515436">
        <ele>1.716</ele>
        <time>2026-08-21T16:02:01Z</time>
      </trkpt>
      <trkpt lat="48.669322" lon="-1.515432">
        <ele>1.767</ele>
        <time>2026-08-21T16:02:02Z</time>
      </trkpt>
      <trkpt lat="48.669310" lon="-1.515424">
        <ele>1.771</ele>
        <time>2026-08-21T16:02:03Z</time>
      </trkpt>
      <trkpt lat="48.669296" lon="-1.515419">
        <ele>1.748</ele>
        <time>2026-08-21T16:02:04Z</time>
      </trkpt>
      <trkpt lat="48.669282" lon="-1.515410">
        <ele>1.689</ele>
        <time>2026-08-21T16:02:05Z</time>
      </trkpt>
      <trkpt lat="48.669272" lon="-1.515402">
        <ele>1.606</ele>
        <time>2026-08-21T16:02:06Z</time>
      </trkpt>
      <trkpt lat="48.669254" lon="-1.515395">
        <ele>1.626</ele>
        <time>2026-08-21T16:02:08Z</time>
      </trkpt>
      <trkpt lat="48.669243" lon="-1.515393">
        <ele>1.609</ele>
        <time>2026-08-21T16:02:09Z</time>
      </trkpt>
      <trkpt lat="48.669230" lon="-1.515391">
        <ele>1.640</ele>
        <time>2026-08-21T16:02:10Z</time>
      </trkpt>
      <trkpt lat="48.669220" lon="-1.515393">
        <ele>1.676</ele>
        <time>2026-08-21T16:02:11Z</time>
      </trkpt>
      <trkpt lat="48.669206" lon="-1.515382">
        <ele>1.659</ele>
        <time>2026-08-21T16:02:12Z</time>
      </trkpt>
      <trkpt lat="48.669191" lon="-1.515373">
        <ele>1.640</ele>
        <time>2026-08-21T16:02:13Z</time>
      </trkpt>
      <trkpt lat="48.669182" lon="-1.515362">
        <ele>1.643</ele>
        <time>2026-08-21T16:02:14Z</time>
      </trkpt>
      <trkpt lat="48.669172" lon="-1.515361">
        <ele>1.620</ele>
        <time>2026-08-21T16:02:15Z</time>
      </trkpt>
      <trkpt lat="48.669162" lon="-1.515357">
        <ele>1.691</ele>
        <time>2026-08-21T16:02:16Z</time>
      </trkpt>
      <trkpt lat="48.669151" lon="-1.515356">
        <ele>1.615</ele>
        <time>2026-08-21T16:02:17Z</time>
      </trkpt>
      <trkpt lat="48.669137" lon="-1.515353">
        <ele>1.642</ele>
        <time>2026-08-21T16:02:18Z</time>
      </trkpt>
      <trkpt lat="48.669123" lon="-1.515349">
        <ele>1.626</ele>
        <time>2026-08-21T16:02:19Z</time>
      </trkpt>
      <trkpt lat="48.669110" lon="-1.515348">
        <ele>1.647</ele>
        <time>2026-08-21T16:02:20Z</time>
      </trkpt>
      <trkpt lat="48.669096" lon="-1.515343">
        <ele>1.611</ele>
        <time>2026-08-21T16:02:21Z</time>
      </trkpt>
      <trkpt lat="48.669087" lon="-1.515340">
        <ele>1.609</ele>
        <time>2026-08-21T16:02:22Z</time>
      </trkpt>
      <trkpt lat="48.669074" lon="-1.515332">
        <ele>1.734</ele>
        <time>2026-08-21T16:02:23Z</time>
      </trkpt>
      <trkpt lat="48.669066" lon="-1.515324">
        <ele>1.710</ele>
        <time>2026-08-21T16:02:24Z</time>
      </trkpt>
      <trkpt lat="48.669055" lon="-1.515319">
        <ele>1.783</ele>
        <time>2026-08-21T16:02:25Z</time>
      </trkpt>
      <trkpt lat="48.669044" lon="-1.515316">
        <ele>1.794</ele>
        <time>2026-08-21T16:02:26Z</time>
      </trkpt>
      <trkpt lat="48.669032" lon="-1.515315">
        <ele>1.747</ele>
        <time>2026-08-21T16:02:27Z</time>
      </trkpt>
      <trkpt lat="48.669019" lon="-1.515311">
        <ele>1.774</ele>
        <time>2026-08-21T16:02:28Z</time>
      </trkpt>
      <trkpt lat="48.669006" lon="-1.515308">
        <ele>1.755</ele>
        <time>2026-08-21T16:02:29Z</time>
      </trkpt>
      <trkpt lat="48.668992" lon="-1.515305">
        <ele>1.759</ele>
        <time>2026-08-21T16:02:31Z</time>
      </trkpt>
      <trkpt lat="48.668984" lon="-1.515297">
        <ele>1.736</ele>
        <time>2026-08-21T16:02:32Z</time>
      </trkpt>
      <trkpt lat="48.668971" lon="-1.515294">
        <ele>1.736</ele>
        <time>2026-08-21T16:02:33Z</time>
      </trkpt>
      <trkpt lat="48.668955" lon="-1.515285">
        <ele>1.717</ele>
        <time>2026-08-21T16:02:34Z</time>
      </trkpt>
      <trkpt lat="48.668941" lon="-1.515281">
        <ele>1.818</ele>
        <time>2026-08-21T16:02:35Z</time>
      </trkpt>
      <trkpt lat="48.668930" lon="-1.515275">
        <ele>1.809</ele>
        <time>2026-08-21T16:02:36Z</time>
      </trkpt>
      <trkpt lat="48.668921" lon="-1.515265">
        <ele>1.875</ele>
        <time>2026-08-21T16:02:37Z</time>
      </trkpt>
      <trkpt lat="48.668911" lon="-1.515262">
        <ele>1.881</ele>
        <time>2026-08-21T16:02:38Z</time>
      </trkpt>
      <trkpt lat="48.668898" lon="-1.515257">
        <ele>1.984</ele>
        <time>2026-08-21T16:02:39Z</time>
      </trkpt>
      <trkpt lat="48.668885" lon="-1.515252">
        <ele>1.925</ele>
        <time>2026-08-21T16:02:40Z</time>
      </trkpt>
      <trkpt lat="48.668870" lon="-1.515246">
        <ele>1.988</ele>
        <time>2026-08-21T16:02:41Z</time>
      </trkpt>
      <trkpt lat="48.668859" lon="-1.515243">
        <ele>2.045</ele>
        <time>2026-08-21T16:02:42Z</time>
      </trkpt>
      <trkpt lat="48.668848" lon="-1.515236">
        <ele>2.046</ele>
        <time>2026-08-21T16:02:43Z</time>
      </trkpt>
      <trkpt lat="48.668838" lon="-1.515226">
        <ele>2.070</ele>
        <time>2026-08-21T16:02:44Z</time>
      </trkpt>
      <trkpt lat="48.668828" lon="-1.515221">
        <ele>2.017</ele>
        <time>2026-08-21T16:02:45Z</time>
      </trkpt>
      <trkpt lat="48.668817" lon="-1.515216">
        <ele>2.021</ele>
        <time>2026-08-21T16:02:46Z</time>
      </trkpt>
      <trkpt lat="48.668805" lon="-1.515211">
        <ele>2.041</ele>
        <time>2026-08-21T16:02:47Z</time>
      </trkpt>
      <trkpt lat="48.668790" lon="-1.515205">
        <ele>2.005</ele>
        <time>2026-08-21T16:02:48Z</time>
      </trkpt>
      <trkpt lat="48.668777" lon="-1.515199">
        <ele>2.009</ele>
        <time>2026-08-21T16:02:49Z</time>
      </trkpt>
      <trkpt lat="48.668766" lon="-1.515194">
        <ele>2.044</ele>
        <time>2026-08-21T16:02:50Z</time>
      </trkpt>
      <trkpt lat="48.668751" lon="-1.515187">
        <ele>2.040</ele>
        <time>2026-08-21T16:02:52Z</time>
      </trkpt>
      <trkpt lat="48.668741" lon="-1.515182">
        <ele>1.973</ele>
        <time>2026-08-21T16:02:53Z</time>
      </trkpt>
      <trkpt lat="48.668728" lon="-1.515174">
        <ele>1.944</ele>
        <time>2026-08-21T16:02:54Z</time>
      </trkpt>
      <trkpt lat="48.668712" lon="-1.515164">
        <ele>1.987</ele>
        <time>2026-08-21T16:02:55Z</time>
      </trkpt>
      <trkpt lat="48.668697" lon="-1.515157">
        <ele>1.994</ele>
        <time>2026-08-21T16:02:56Z</time>
      </trkpt>
      <trkpt lat="48.668686" lon="-1.515151">
        <ele>1.965</ele>
        <time>2026-08-21T16:02:57Z</time>
      </trkpt>
      <trkpt lat="48.668667" lon="-1.515140">
        <ele>1.999</ele>
        <time>2026-08-21T16:02:59Z</time>
      </trkpt>
      <trkpt lat="48.668657" lon="-1.515140">
        <ele>1.986</ele>
        <time>2026-08-21T16:03:00Z</time>
      </trkpt>
      <trkpt lat="48.668646" lon="-1.515135">
        <ele>1.945</ele>
        <time>2026-08-21T16:03:01Z</time>
      </trkpt>
      <trkpt lat="48.668633" lon="-1.515129">
        <ele>1.947</ele>
        <time>2026-08-21T16:03:02Z</time>
      </trkpt>
      <trkpt lat="48.668620" lon="-1.515123">
        <ele>1.911</ele>
        <time>2026-08-21T16:03:03Z</time>
      </trkpt>
      <trkpt lat="48.668611" lon="-1.515116">
        <ele>1.909</ele>
        <time>2026-08-21T16:03:04Z</time>
      </trkpt>
      <trkpt lat="48.668603" lon="-1.515110">
        <ele>1.976</ele>
        <time>2026-08-21T16:03:05Z</time>
      </trkpt>
      <trkpt lat="48.668593" lon="-1.515103">
        <ele>1.962</ele>
        <time>2026-08-21T16:03:06Z</time>
      </trkpt>
      <trkpt lat="48.668580" lon="-1.515094">
        <ele>1.745</ele>
        <time>2026-08-21T16:03:07Z</time>
      </trkpt>
      <trkpt lat="48.668566" lon="-1.515086">
        <ele>1.656</ele>
        <time>2026-08-21T16:03:08Z</time>
      </trkpt>
      <trkpt lat="48.668551" lon="-1.515076">
        <ele>1.539</ele>
        <time>2026-08-21T16:03:09Z</time>
      </trkpt>
      <trkpt lat="48.668539" lon="-1.515070">
        <ele>1.586</ele>
        <time>2026-08-21T16:03:10Z</time>
      </trkpt>
      <trkpt lat="48.668528" lon="-1.515064">
        <ele>1.537</ele>
        <time>2026-08-21T16:03:12Z</time>
      </trkpt>
      <trkpt lat="48.668519" lon="-1.515058">
        <ele>1.431</ele>
        <time>2026-08-21T16:03:13Z</time>
      </trkpt>
      <trkpt lat="48.668505" lon="-1.515050">
        <ele>1.458</ele>
        <time>2026-08-21T16:03:14Z</time>
      </trkpt>
      <trkpt lat="48.668492" lon="-1.515039">
        <ele>1.428</ele>
        <time>2026-08-21T16:03:15Z</time>
      </trkpt>
      <trkpt lat="48.668479" lon="-1.515030">
        <ele>1.489</ele>
        <time>2026-08-21T16:03:16Z</time>
      </trkpt>
      <trkpt lat="48.668468" lon="-1.515028">
        <ele>1.417</ele>
        <time>2026-08-21T16:03:17Z</time>
      </trkpt>
      <trkpt lat="48.668451" lon="-1.515017">
        <ele>1.409</ele>
        <time>2026-08-21T16:03:19Z</time>
      </trkpt>
      <trkpt lat="48.668439" lon="-1.515007">
        <ele>1.424</ele>
        <time>2026-08-21T16:03:20Z</time>
      </trkpt>
      <trkpt lat="48.668425" lon="-1.515000">
        <ele>1.470</ele>
        <time>2026-08-21T16:03:21Z</time>
      </trkpt>
      <trkpt lat="48.668412" lon="-1.514995">
        <ele>1.433</ele>
        <time>2026-08-21T16:03:22Z</time>
      </trkpt>
      <trkpt lat="48.668400" lon="-1.514987">
        <ele>1.454</ele>
        <time>2026-08-21T16:03:23Z</time>
      </trkpt>
      <trkpt lat="48.668389" lon="-1.514980">
        <ele>1.417</ele>
        <time>2026-08-21T16:03:24Z</time>
      </trkpt>
      <trkpt lat="48.668380" lon="-1.514974">
        <ele>1.464</ele>
        <time>2026-08-21T16:03:25Z</time>
      </trkpt>
      <trkpt lat="48.668372" lon="-1.514965">
        <ele>1.475</ele>
        <time>2026-08-21T16:03:26Z</time>
      </trkpt>
      <trkpt lat="48.668361" lon="-1.514957">
        <ele>1.429</ele>
        <time>2026-08-21T16:03:27Z</time>
      </trkpt>
      <trkpt lat="48.668348" lon="-1.514951">
        <ele>1.476</ele>
        <time>2026-08-21T16:03:28Z</time>
      </trkpt>
      <trkpt lat="48.668333" lon="-1.514940">
        <ele>1.413</ele>
        <time>2026-08-21T16:03:29Z</time>
      </trkpt>
      <trkpt lat="48.668319" lon="-1.514930">
        <ele>1.443</ele>
        <time>2026-08-21T16:03:30Z</time>
      </trkpt>
      <trkpt lat="48.668307" lon="-1.514922">
        <ele>1.407</ele>
        <time>2026-08-21T16:03:31Z</time>
      </trkpt>
      <trkpt lat="48.668298" lon="-1.514914">
        <ele>1.509</ele>
        <time>2026-08-21T16:03:32Z</time>
      </trkpt>
      <trkpt lat="48.668288" lon="-1.514906">
        <ele>1.673</ele>
        <time>2026-08-21T16:03:33Z</time>
      </trkpt>
      <trkpt lat="48.668280" lon="-1.514901">
        <ele>1.779</ele>
        <time>2026-08-21T16:03:34Z</time>
      </trkpt>
      <trkpt lat="48.668270" lon="-1.514894">
        <ele>1.832</ele>
        <time>2026-08-21T16:03:35Z</time>
      </trkpt>
      <trkpt lat="48.668259" lon="-1.514887">
        <ele>1.883</ele>
        <time>2026-08-21T16:03:36Z</time>
      </trkpt>
      <trkpt lat="48.668246" lon="-1.514881">
        <ele>1.996</ele>
        <time>2026-08-21T16:03:37Z</time>
      </trkpt>
      <trkpt lat="48.668232" lon="-1.514875">
        <ele>2.033</ele>
        <time>2026-08-21T16:03:38Z</time>
      </trkpt>
      <trkpt lat="48.668221" lon="-1.514869">
        <ele>2.094</ele>
        <time>2026-08-21T16:03:39Z</time>
      </trkpt>
      <trkpt lat="48.668213" lon="-1.514863">
        <ele>2.078</ele>
        <time>2026-08-21T16:03:40Z</time>
      </trkpt>
      <trkpt lat="48.668197" lon="-1.514850">
        <ele>2.075</ele>
        <time>2026-08-21T16:03:42Z</time>
      </trkpt>
      <trkpt lat="48.668187" lon="-1.514838">
        <ele>2.087</ele>
        <time>2026-08-21T16:03:43Z</time>
      </trkpt>
      <trkpt lat="48.668172" lon="-1.514833">
        <ele>2.042</ele>
        <time>2026-08-21T16:03:44Z</time>
      </trkpt>
      <trkpt lat="48.668160" lon="-1.514828">
        <ele>2.026</ele>
        <time>2026-08-21T16:03:45Z</time>
      </trkpt>
      <trkpt lat="48.668151" lon="-1.514821">
        <ele>2.009</ele>
        <time>2026-08-21T16:03:46Z</time>
      </trkpt>
      <trkpt lat="48.668141" lon="-1.514814">
        <ele>2.030</ele>
        <time>2026-08-21T16:03:47Z</time>
      </trkpt>
      <trkpt lat="48.668132" lon="-1.514805">
        <ele>2.056</ele>
        <time>2026-08-21T16:03:48Z</time>
      </trkpt>
      <trkpt lat="48.668123" lon="-1.514796">
        <ele>2.029</ele>
        <time>2026-08-21T16:03:49Z</time>
      </trkpt>
      <trkpt lat="48.668111" lon="-1.514783">
        <ele>2.080</ele>
        <time>2026-08-21T16:03:50Z</time>
      </trkpt>
      <trkpt lat="48.668098" lon="-1.514773">
        <ele>2.053</ele>
        <time>2026-08-21T16:03:51Z</time>
      </trkpt>
      <trkpt lat="48.668086" lon="-1.514768">
        <ele>2.040</ele>
        <time>2026-08-21T16:03:52Z</time>
      </trkpt>
      <trkpt lat="48.668078" lon="-1.514762">
        <ele>2.011</ele>
        <time>2026-08-21T16:03:53Z</time>
      </trkpt>
      <trkpt lat="48.668069" lon="-1.514756">
        <ele>2.175</ele>
        <time>2026-08-21T16:03:54Z</time>
      </trkpt>
      <trkpt lat="48.668052" lon="-1.514735">
        <ele>2.132</ele>
        <time>2026-08-21T16:03:56Z</time>
      </trkpt>
      <trkpt lat="48.668039" lon="-1.514728">
        <ele>2.136</ele>
        <time>2026-08-21T16:03:57Z</time>
      </trkpt>
      <trkpt lat="48.668025" lon="-1.514721">
        <ele>2.117</ele>
        <time>2026-08-21T16:03:58Z</time>
      </trkpt>
      <trkpt lat="48.668012" lon="-1.514711">
        <ele>2.218</ele>
        <time>2026-08-21T16:03:59Z</time>
      </trkpt>
      <trkpt lat="48.668001" lon="-1.514701">
        <ele>2.209</ele>
        <time>2026-08-21T16:04:00Z</time>
      </trkpt>
      <trkpt lat="48.667987" lon="-1.514693">
        <ele>2.265</ele>
        <time>2026-08-21T16:04:02Z</time>
      </trkpt>
      <trkpt lat="48.667979" lon="-1.514685">
        <ele>2.241</ele>
        <time>2026-08-21T16:04:03Z</time>
      </trkpt>
      <trkpt lat="48.667968" lon="-1.514672">
        <ele>2.394</ele>
        <time>2026-08-21T16:04:04Z</time>
      </trkpt>
      <trkpt lat="48.667956" lon="-1.514660">
        <ele>2.365</ele>
        <time>2026-08-21T16:04:05Z</time>
      </trkpt>
      <trkpt lat="48.667943" lon="-1.514649">
        <ele>2.378</ele>
        <time>2026-08-21T16:04:06Z</time>
      </trkpt>
      <trkpt lat="48.667929" lon="-1.514641">
        <ele>2.365</ele>
        <time>2026-08-21T16:04:07Z</time>
      </trkpt>
      <trkpt lat="48.667918" lon="-1.514638">
        <ele>2.376</ele>
        <time>2026-08-21T16:04:08Z</time>
      </trkpt>
      <trkpt lat="48.667905" lon="-1.514619">
        <ele>2.310</ele>
        <time>2026-08-21T16:04:10Z</time>
      </trkpt>
      <trkpt lat="48.667897" lon="-1.514612">
        <ele>2.317</ele>
        <time>2026-08-21T16:04:11Z</time>
      </trkpt>
      <trkpt lat="48.667886" lon="-1.514602">
        <ele>2.347</ele>
        <time>2026-08-21T16:04:12Z</time>
      </trkpt>
      <trkpt lat="48.667876" lon="-1.514593">
        <ele>2.329</ele>
        <time>2026-08-21T16:04:13Z</time>
      </trkpt>
      <trkpt lat="48.667863" lon="-1.514581">
        <ele>2.321</ele>
        <time>2026-08-21T16:04:14Z</time>
      </trkpt>
      <trkpt lat="48.667852" lon="-1.514569">
        <ele>2.209</ele>
        <time>2026-08-21T16:04:15Z</time>
      </trkpt>
      <trkpt lat="48.667845" lon="-1.514561">
        <ele>2.296</ele>
        <time>2026-08-21T16:04:16Z</time>
      </trkpt>
      <trkpt lat="48.667829" lon="-1.514542">
        <ele>2.222</ele>
        <time>2026-08-21T16:04:18Z</time>
      </trkpt>
      <trkpt lat="48.667816" lon="-1.514529">
        <ele>2.215</ele>
        <time>2026-08-21T16:04:19Z</time>
      </trkpt>
      <trkpt lat="48.667804" lon="-1.514521">
        <ele>2.236</ele>
        <time>2026-08-21T16:04:20Z</time>
      </trkpt>
      <trkpt lat="48.667790" lon="-1.514512">
        <ele>2.279</ele>
        <time>2026-08-21T16:04:21Z</time>
      </trkpt>
      <trkpt lat="48.667780" lon="-1.514504">
        <ele>2.266</ele>
        <time>2026-08-21T16:04:22Z</time>
      </trkpt>
      <trkpt lat="48.667772" lon="-1.514496">
        <ele>2.247</ele>
        <time>2026-08-21T16:04:23Z</time>
      </trkpt>
      <trkpt lat="48.667765" lon="-1.514487">
        <ele>2.261</ele>
        <time>2026-08-21T16:04:24Z</time>
      </trkpt>
      <trkpt lat="48.667757" lon="-1.514477">
        <ele>2.278</ele>
        <time>2026-08-21T16:04:25Z</time>
      </trkpt>
      <trkpt lat="48.667748" lon="-1.514466">
        <ele>2.255</ele>
        <time>2026-08-21T16:04:26Z</time>
      </trkpt>
      <trkpt lat="48.667737" lon="-1.514457">
        <ele>2.207</ele>
        <time>2026-08-21T16:04:27Z</time>
      </trkpt>
      <trkpt lat="48.667724" lon="-1.514449">
        <ele>2.117</ele>
        <time>2026-08-21T16:04:28Z</time>
      </trkpt>
      <trkpt lat="48.667711" lon="-1.514441">
        <ele>2.109</ele>
        <time>2026-08-21T16:04:29Z</time>
      </trkpt>
      <trkpt lat="48.667698" lon="-1.514433">
        <ele>2.057</ele>
        <time>2026-08-21T16:04:30Z</time>
      </trkpt>
      <trkpt lat="48.667689" lon="-1.514427">
        <ele>2.073</ele>
        <time>2026-08-21T16:04:31Z</time>
      </trkpt>
      <trkpt lat="48.667675" lon="-1.514410">
        <ele>2.096</ele>
        <time>2026-08-21T16:04:33Z</time>
      </trkpt>
      <trkpt lat="48.667667" lon="-1.514397">
        <ele>1.987</ele>
        <time>2026-08-21T16:04:34Z</time>
      </trkpt>
      <trkpt lat="48.667655" lon="-1.514385">
        <ele>1.970</ele>
        <time>2026-08-21T16:04:35Z</time>
      </trkpt>
      <trkpt lat="48.667640" lon="-1.514377">
        <ele>1.947</ele>
        <time>2026-08-21T16:04:36Z</time>
      </trkpt>
      <trkpt lat="48.667626" lon="-1.514369">
        <ele>1.828</ele>
        <time>2026-08-21T16:04:37Z</time>
      </trkpt>
      <trkpt lat="48.667613" lon="-1.514362">
        <ele>1.622</ele>
        <time>2026-08-21T16:04:38Z</time>
      </trkpt>
      <trkpt lat="48.667602" lon="-1.514354">
        <ele>1.519</ele>
        <time>2026-08-21T16:04:39Z</time>
      </trkpt>
      <trkpt lat="48.667593" lon="-1.514346">
        <ele>1.563</ele>
        <time>2026-08-21T16:04:40Z</time>
      </trkpt>
      <trkpt lat="48.667586" lon="-1.514336">
        <ele>1.444</ele>
        <time>2026-08-21T16:04:41Z</time>
      </trkpt>
      <trkpt lat="48.667577" lon="-1.514328">
        <ele>1.418</ele>
        <time>2026-08-21T16:04:42Z</time>
      </trkpt>
      <trkpt lat="48.667566" lon="-1.514316">
        <ele>1.409</ele>
        <time>2026-08-21T16:04:43Z</time>
      </trkpt>
      <trkpt lat="48.667554" lon="-1.514307">
        <ele>1.448</ele>
        <time>2026-08-21T16:04:44Z</time>
      </trkpt>
      <trkpt lat="48.667540" lon="-1.514294">
        <ele>1.414</ele>
        <time>2026-08-21T16:04:45Z</time>
      </trkpt>
      <trkpt lat="48.667527" lon="-1.514283">
        <ele>1.427</ele>
        <time>2026-08-21T16:04:46Z</time>
      </trkpt>
      <trkpt lat="48.667518" lon="-1.514275">
        <ele>1.418</ele>
        <time>2026-08-21T16:04:47Z</time>
      </trkpt>
      <trkpt lat="48.667509" lon="-1.514269">
        <ele>1.431</ele>
        <time>2026-08-21T16:04:48Z</time>
      </trkpt>
      <trkpt lat="48.667501" lon="-1.514261">
        <ele>1.468</ele>
        <time>2026-08-21T16:04:49Z</time>
      </trkpt>
      <trkpt lat="48.667490" lon="-1.514251">
        <ele>1.499</ele>
        <time>2026-08-21T16:04:50Z</time>
      </trkpt>
      <trkpt lat="48.667479" lon="-1.514246">
        <ele>1.423</ele>
        <time>2026-08-21T16:04:51Z</time>
      </trkpt>
      <trkpt lat="48.667466" lon="-1.514236">
        <ele>1.450</ele>
        <time>2026-08-21T16:04:52Z</time>
      </trkpt>
      <trkpt lat="48.667452" lon="-1.514223">
        <ele>1.481</ele>
        <time>2026-08-21T16:04:53Z</time>
      </trkpt>
      <trkpt lat="48.667443" lon="-1.514210">
        <ele>1.461</ele>
        <time>2026-08-21T16:04:54Z</time>
      </trkpt>
      <trkpt lat="48.667433" lon="-1.514200">
        <ele>1.417</ele>
        <time>2026-08-21T16:04:55Z</time>
      </trkpt>
      <trkpt lat="48.667425" lon="-1.514194">
        <ele>1.409</ele>
        <time>2026-08-21T16:04:56Z</time>
      </trkpt>
      <trkpt lat="48.667416" lon="-1.514188">
        <ele>1.420</ele>
        <time>2026-08-21T16:04:57Z</time>
      </trkpt>
      <trkpt lat="48.667406" lon="-1.514177">
        <ele>1.546</ele>
        <time>2026-08-21T16:04:58Z</time>
      </trkpt>
      <trkpt lat="48.667394" lon="-1.514167">
        <ele>1.559</ele>
        <time>2026-08-21T16:04:59Z</time>
      </trkpt>
      <trkpt lat="48.667382" lon="-1.514159">
        <ele>1.620</ele>
        <time>2026-08-21T16:05:00Z</time>
      </trkpt>
      <trkpt lat="48.667369" lon="-1.514150">
        <ele>1.723</ele>
        <time>2026-08-21T16:05:01Z</time>
      </trkpt>
      <trkpt lat="48.667355" lon="-1.514144">
        <ele>1.870</ele>
        <time>2026-08-21T16:05:02Z</time>
      </trkpt>
      <trkpt lat="48.667344" lon="-1.514138">
        <ele>1.811</ele>
        <time>2026-08-21T16:05:03Z</time>
      </trkpt>
      <trkpt lat="48.667334" lon="-1.514133">
        <ele>1.915</ele>
        <time>2026-08-21T16:05:04Z</time>
      </trkpt>
      <trkpt lat="48.667325" lon="-1.514127">
        <ele>1.982</ele>
        <time>2026-08-21T16:05:05Z</time>
      </trkpt>
      <trkpt lat="48.667316" lon="-1.514119">
        <ele>1.937</ele>
        <time>2026-08-21T16:05:06Z</time>
      </trkpt>
      <trkpt lat="48.667303" lon="-1.514112">
        <ele>1.949</ele>
        <time>2026-08-21T16:05:07Z</time>
      </trkpt>
      <trkpt lat="48.667286" lon="-1.514098">
        <ele>1.913</ele>
        <time>2026-08-21T16:05:08Z</time>
      </trkpt>
      <trkpt lat="48.667273" lon="-1.514090">
        <ele>2.009</ele>
        <time>2026-08-21T16:05:09Z</time>
      </trkpt>
      <trkpt lat="48.667259" lon="-1.514081">
        <ele>2.115</ele>
        <time>2026-08-21T16:05:10Z</time>
      </trkpt>
      <trkpt lat="48.667247" lon="-1.514076">
        <ele>2.281</ele>
        <time>2026-08-21T16:05:11Z</time>
      </trkpt>
      <trkpt lat="48.667238" lon="-1.514066">
        <ele>2.284</ele>
        <time>2026-08-21T16:05:12Z</time>
      </trkpt>
      <trkpt lat="48.667229" lon="-1.514061">
        <ele>2.265</ele>
        <time>2026-08-21T16:05:13Z</time>
      </trkpt>
      <trkpt lat="48.667212" lon="-1.514043">
        <ele>2.268</ele>
        <time>2026-08-21T16:05:15Z</time>
      </trkpt>
      <trkpt lat="48.667200" lon="-1.514031">
        <ele>2.225</ele>
        <time>2026-08-21T16:05:16Z</time>
      </trkpt>
      <trkpt lat="48.667185" lon="-1.514021">
        <ele>2.256</ele>
        <time>2026-08-21T16:05:17Z</time>
      </trkpt>
      <trkpt lat="48.667169" lon="-1.514011">
        <ele>2.290</ele>
        <time>2026-08-21T16:05:18Z</time>
      </trkpt>
      <trkpt lat="48.667158" lon="-1.514002">
        <ele>2.357</ele>
        <time>2026-08-21T16:05:19Z</time>
      </trkpt>
      <trkpt lat="48.667149" lon="-1.513995">
        <ele>2.389</ele>
        <time>2026-08-21T16:05:20Z</time>
      </trkpt>
      <trkpt lat="48.667140" lon="-1.513990">
        <ele>2.306</ele>
        <time>2026-08-21T16:05:21Z</time>
      </trkpt>
      <trkpt lat="48.667132" lon="-1.513981">
        <ele>2.326</ele>
        <time>2026-08-21T16:05:22Z</time>
      </trkpt>
      <trkpt lat="48.667122" lon="-1.513977">
        <ele>2.409</ele>
        <time>2026-08-21T16:05:23Z</time>
      </trkpt>
      <trkpt lat="48.667108" lon="-1.513971">
        <ele>2.460</ele>
        <time>2026-08-21T16:05:24Z</time>
      </trkpt>
      <trkpt lat="48.667095" lon="-1.513965">
        <ele>2.466</ele>
        <time>2026-08-21T16:05:25Z</time>
      </trkpt>
      <trkpt lat="48.667080" lon="-1.513955">
        <ele>2.459</ele>
        <time>2026-08-21T16:05:26Z</time>
      </trkpt>
      <trkpt lat="48.667067" lon="-1.513946">
        <ele>2.410</ele>
        <time>2026-08-21T16:05:27Z</time>
      </trkpt>
      <trkpt lat="48.667055" lon="-1.513933">
        <ele>2.433</ele>
        <time>2026-08-21T16:05:28Z</time>
      </trkpt>
      <trkpt lat="48.667040" lon="-1.513922">
        <ele>2.470</ele>
        <time>2026-08-21T16:05:30Z</time>
      </trkpt>
      <trkpt lat="48.667032" lon="-1.513914">
        <ele>2.531</ele>
        <time>2026-08-21T16:05:31Z</time>
      </trkpt>
      <trkpt lat="48.667022" lon="-1.513904">
        <ele>2.655</ele>
        <time>2026-08-21T16:05:32Z</time>
      </trkpt>
      <trkpt lat="48.667010" lon="-1.513891">
        <ele>2.782</ele>
        <time>2026-08-21T16:05:33Z</time>
      </trkpt>
      <trkpt lat="48.666998" lon="-1.513879">
        <ele>2.836</ele>
        <time>2026-08-21T16:05:34Z</time>
      </trkpt>
      <trkpt lat="48.666986" lon="-1.513871">
        <ele>2.917</ele>
        <time>2026-08-21T16:05:35Z</time>
      </trkpt>
      <trkpt lat="48.666975" lon="-1.513864">
        <ele>3.018</ele>
        <time>2026-08-21T16:05:36Z</time>
      </trkpt>
      <trkpt lat="48.666967" lon="-1.513859">
        <ele>3.009</ele>
        <time>2026-08-21T16:05:37Z</time>
      </trkpt>
      <trkpt lat="48.666960" lon="-1.513851">
        <ele>3.085</ele>
        <time>2026-08-21T16:05:38Z</time>
      </trkpt>
      <trkpt lat="48.666950" lon="-1.513843">
        <ele>3.081</ele>
        <time>2026-08-21T16:05:39Z</time>
      </trkpt>
      <trkpt lat="48.666937" lon="-1.513835">
        <ele>3.074</ele>
        <time>2026-08-21T16:05:40Z</time>
      </trkpt>
      <trkpt lat="48.666925" lon="-1.513823">
        <ele>3.015</ele>
        <time>2026-08-21T16:05:41Z</time>
      </trkpt>
      <trkpt lat="48.666915" lon="-1.513806">
        <ele>3.018</ele>
        <time>2026-08-21T16:05:42Z</time>
      </trkpt>
      <trkpt lat="48.666905" lon="-1.513796">
        <ele>3.155</ele>
        <time>2026-08-21T16:05:43Z</time>
      </trkpt>
      <trkpt lat="48.666897" lon="-1.513788">
        <ele>3.186</ele>
        <time>2026-08-21T16:05:44Z</time>
      </trkpt>
      <trkpt lat="48.666886" lon="-1.513770">
        <ele>3.140</ele>
        <time>2026-08-21T16:05:46Z</time>
      </trkpt>
      <trkpt lat="48.666875" lon="-1.513761">
        <ele>3.147</ele>
        <time>2026-08-21T16:05:47Z</time>
      </trkpt>
      <trkpt lat="48.666861" lon="-1.513750">
        <ele>3.168</ele>
        <time>2026-08-21T16:05:48Z</time>
      </trkpt>
      <trkpt lat="48.666848" lon="-1.513741">
        <ele>3.142</ele>
        <time>2026-08-21T16:05:49Z</time>
      </trkpt>
      <trkpt lat="48.666836" lon="-1.513728">
        <ele>3.126</ele>
        <time>2026-08-21T16:05:50Z</time>
      </trkpt>
      <trkpt lat="48.666825" lon="-1.513721">
        <ele>3.109</ele>
        <time>2026-08-21T16:05:51Z</time>
      </trkpt>
      <trkpt lat="48.666816" lon="-1.513715">
        <ele>3.188</ele>
        <time>2026-08-21T16:05:51.999Z</time>
      </trkpt>
      <trkpt lat="48.666802" lon="-1.513702">
        <ele>3.154</ele>
        <time>2026-08-21T16:05:53.999Z</time>
      </trkpt>
      <trkpt lat="48.666791" lon="-1.513690">
        <ele>3.017</ele>
        <time>2026-08-21T16:05:54.999Z</time>
      </trkpt>
      <trkpt lat="48.666779" lon="-1.513678">
        <ele>3.078</ele>
        <time>2026-08-21T16:05:55.999Z</time>
      </trkpt>
      <trkpt lat="48.666766" lon="-1.513671">
        <ele>3.091</ele>
        <time>2026-08-21T16:05:56.999Z</time>
      </trkpt>
      <trkpt lat="48.666755" lon="-1.513665">
        <ele>3.078</ele>
        <time>2026-08-21T16:05:57.999Z</time>
      </trkpt>
      <trkpt lat="48.666746" lon="-1.513658">
        <ele>3.069</ele>
        <time>2026-08-21T16:05:58.999Z</time>
      </trkpt>
      <trkpt lat="48.666737" lon="-1.513649">
        <ele>3.063</ele>
        <time>2026-08-21T16:05:59.999Z</time>
      </trkpt>
      <trkpt lat="48.666725" lon="-1.513634">
        <ele>2.980</ele>
        <time>2026-08-21T16:06:01.999Z</time>
      </trkpt>
      <trkpt lat="48.666715" lon="-1.513624">
        <ele>2.916</ele>
        <time>2026-08-21T16:06:02.999Z</time>
      </trkpt>
      <trkpt lat="48.666703" lon="-1.513615">
        <ele>2.976</ele>
        <time>2026-08-21T16:06:03.999Z</time>
      </trkpt>
      <trkpt lat="48.666691" lon="-1.513606">
        <ele>2.813</ele>
        <time>2026-08-21T16:06:04.999Z</time>
      </trkpt>
      <trkpt lat="48.666680" lon="-1.513601">
        <ele>2.809</ele>
        <time>2026-08-21T16:06:05.999Z</time>
      </trkpt>
      <trkpt lat="48.666668" lon="-1.513588">
        <ele>2.713</ele>
        <time>2026-08-21T16:06:06.999Z</time>
      </trkpt>
      <trkpt lat="48.666661" lon="-1.513579">
        <ele>2.779</ele>
        <time>2026-08-21T16:06:07.999Z</time>
      </trkpt>
      <trkpt lat="48.666653" lon="-1.513568">
        <ele>2.782</ele>
        <time>2026-08-21T16:06:08.999Z</time>
      </trkpt>
      <trkpt lat="48.666644" lon="-1.513555">
        <ele>2.773</ele>
        <time>2026-08-21T16:06:09.999Z</time>
      </trkpt>
      <trkpt lat="48.666632" lon="-1.513542">
        <ele>2.766</ele>
        <time>2026-08-21T16:06:10.999Z</time>
      </trkpt>
      <trkpt lat="48.666621" lon="-1.513530">
        <ele>2.673</ele>
        <time>2026-08-21T16:06:11.999Z</time>
      </trkpt>
      <trkpt lat="48.666612" lon="-1.513523">
        <ele>2.684</ele>
        <time>2026-08-21T16:06:12.999Z</time>
      </trkpt>
      <trkpt lat="48.666596" lon="-1.513509">
        <ele>2.688</ele>
        <time>2026-08-21T16:06:14.999Z</time>
      </trkpt>
      <trkpt lat="48.666588" lon="-1.513499">
        <ele>2.695</ele>
        <time>2026-08-21T16:06:15.999Z</time>
      </trkpt>
      <trkpt lat="48.666576" lon="-1.513484">
        <ele>2.664</ele>
        <time>2026-08-21T16:06:16.999Z</time>
      </trkpt>
      <trkpt lat="48.666564" lon="-1.513474">
        <ele>2.606</ele>
        <time>2026-08-21T16:06:17.999Z</time>
      </trkpt>
      <trkpt lat="48.666549" lon="-1.513459">
        <ele>2.616</ele>
        <time>2026-08-21T16:06:18.999Z</time>
      </trkpt>
      <trkpt lat="48.666540" lon="-1.513454">
        <ele>2.609</ele>
        <time>2026-08-21T16:06:19.999Z</time>
      </trkpt>
      <trkpt lat="48.666525" lon="-1.513434">
        <ele>2.678</ele>
        <time>2026-08-21T16:06:21.999Z</time>
      </trkpt>
      <trkpt lat="48.666510" lon="-1.513414">
        <ele>2.664</ele>
        <time>2026-08-21T16:06:23.999Z</time>
      </trkpt>
      <trkpt lat="48.666497" lon="-1.513405">
        <ele>2.727</ele>
        <time>2026-08-21T16:06:24.999Z</time>
      </trkpt>
      <trkpt lat="48.666483" lon="-1.513398">
        <ele>2.748</ele>
        <time>2026-08-21T16:06:25.999Z</time>
      </trkpt>
      <trkpt lat="48.666471" lon="-1.513385">
        <ele>2.761</ele>
        <time>2026-08-21T16:06:26.999Z</time>
      </trkpt>
      <trkpt lat="48.666461" lon="-1.513377">
        <ele>2.888</ele>
        <time>2026-08-21T16:06:27.999Z</time>
      </trkpt>
      <trkpt lat="48.666452" lon="-1.513356">
        <ele>2.899</ele>
        <time>2026-08-21T16:06:29.999Z</time>
      </trkpt>
      <trkpt lat="48.666444" lon="-1.513344">
        <ele>2.973</ele>
        <time>2026-08-21T16:06:30.999Z</time>
      </trkpt>
      <trkpt lat="48.666429" lon="-1.513329">
        <ele>2.980</ele>
        <time>2026-08-21T16:06:31.999Z</time>
      </trkpt>
      <trkpt lat="48.666418" lon="-1.513320">
        <ele>2.984</ele>
        <time>2026-08-21T16:06:32.999Z</time>
      </trkpt>
      <trkpt lat="48.666408" lon="-1.513312">
        <ele>3.007</ele>
        <time>2026-08-21T16:06:33.999Z</time>
      </trkpt>
      <trkpt lat="48.666397" lon="-1.513307">
        <ele>3.017</ele>
        <time>2026-08-21T16:06:34.999Z</time>
      </trkpt>
      <trkpt lat="48.666388" lon="-1.513304">
        <ele>3.009</ele>
        <time>2026-08-21T16:06:35.999Z</time>
      </trkpt>
      <trkpt lat="48.666381" lon="-1.513293">
        <ele>3.130</ele>
        <time>2026-08-21T16:06:36.999Z</time>
      </trkpt>
      <trkpt lat="48.666374" lon="-1.513283">
        <ele>3.286</ele>
        <time>2026-08-21T16:06:37.999Z</time>
      </trkpt>
      <trkpt lat="48.666365" lon="-1.513275">
        <ele>3.229</ele>
        <time>2026-08-21T16:06:38.999Z</time>
      </trkpt>
      <trkpt lat="48.666355" lon="-1.513269">
        <ele>3.320</ele>
        <time>2026-08-21T16:06:39.999Z</time>
      </trkpt>
      <trkpt lat="48.666344" lon="-1.513256">
        <ele>3.343</ele>
        <time>2026-08-21T16:06:40.999Z</time>
      </trkpt>
      <trkpt lat="48.666333" lon="-1.513246">
        <ele>3.330</ele>
        <time>2026-08-21T16:06:41.999Z</time>
      </trkpt>
      <trkpt lat="48.666324" lon="-1.513234">
        <ele>3.451</ele>
        <time>2026-08-21T16:06:42.999Z</time>
      </trkpt>
      <trkpt lat="48.666317" lon="-1.513224">
        <ele>3.435</ele>
        <time>2026-08-21T16:06:43.999Z</time>
      </trkpt>
      <trkpt lat="48.666307" lon="-1.513217">
        <ele>3.482</ele>
        <time>2026-08-21T16:06:44.999Z</time>
      </trkpt>
      <trkpt lat="48.666298" lon="-1.513209">
        <ele>3.444</ele>
        <time>2026-08-21T16:06:45.999Z</time>
      </trkpt>
      <trkpt lat="48.666290" lon="-1.513199">
        <ele>3.505</ele>
        <time>2026-08-21T16:06:46.999Z</time>
      </trkpt>
      <trkpt lat="48.666280" lon="-1.513190">
        <ele>3.515</ele>
        <time>2026-08-21T16:06:47.999Z</time>
      </trkpt>
      <trkpt lat="48.666271" lon="-1.513178">
        <ele>3.509</ele>
        <time>2026-08-21T16:06:48.999Z</time>
      </trkpt>
      <trkpt lat="48.666260" lon="-1.513163">
        <ele>3.526</ele>
        <time>2026-08-21T16:06:49.999Z</time>
      </trkpt>
      <trkpt lat="48.666248" lon="-1.513150">
        <ele>3.522</ele>
        <time>2026-08-21T16:06:50.999Z</time>
      </trkpt>
      <trkpt lat="48.666237" lon="-1.513143">
        <ele>3.565</ele>
        <time>2026-08-21T16:06:51.999Z</time>
      </trkpt>
      <trkpt lat="48.666221" lon="-1.513128">
        <ele>3.586</ele>
        <time>2026-08-21T16:06:53.999Z</time>
      </trkpt>
      <trkpt lat="48.666213" lon="-1.513118">
        <ele>3.579</ele>
        <time>2026-08-21T16:06:54.999Z</time>
      </trkpt>
      <trkpt lat="48.666205" lon="-1.513107">
        <ele>3.546</ele>
        <time>2026-08-21T16:06:55.999Z</time>
      </trkpt>
      <trkpt lat="48.666195" lon="-1.513095">
        <ele>3.537</ele>
        <time>2026-08-21T16:06:56.999Z</time>
      </trkpt>
      <trkpt lat="48.666185" lon="-1.513084">
        <ele>3.571</ele>
        <time>2026-08-21T16:06:57.999Z</time>
      </trkpt>
      <trkpt lat="48.666176" lon="-1.513074">
        <ele>3.538</ele>
        <time>2026-08-21T16:06:58.999Z</time>
      </trkpt>
      <trkpt lat="48.666166" lon="-1.513064">
        <ele>3.525</ele>
        <time>2026-08-21T16:06:59.999Z</time>
      </trkpt>
      <trkpt lat="48.666157" lon="-1.513056">
        <ele>3.526</ele>
        <time>2026-08-21T16:07:00.999Z</time>
      </trkpt>
      <trkpt lat="48.666150" lon="-1.513045">
        <ele>3.508</ele>
        <time>2026-08-21T16:07:01.999Z</time>
      </trkpt>
      <trkpt lat="48.666142" lon="-1.513034">
        <ele>3.609</ele>
        <time>2026-08-21T16:07:02.999Z</time>
      </trkpt>
      <trkpt lat="48.666131" lon="-1.513025">
        <ele>3.634</ele>
        <time>2026-08-21T16:07:03.999Z</time>
      </trkpt>
      <trkpt lat="48.666122" lon="-1.513016">
        <ele>3.590</ele>
        <time>2026-08-21T16:07:04.999Z</time>
      </trkpt>
      <trkpt lat="48.666114" lon="-1.513007">
        <ele>3.493</ele>
        <time>2026-08-21T16:07:05.999Z</time>
      </trkpt>
      <trkpt lat="48.666106" lon="-1.512997">
        <ele>3.444</ele>
        <time>2026-08-21T16:07:06.999Z</time>
      </trkpt>
      <trkpt lat="48.666098" lon="-1.512984">
        <ele>3.467</ele>
        <time>2026-08-21T16:07:07.999Z</time>
      </trkpt>
      <trkpt lat="48.666088" lon="-1.512972">
        <ele>3.454</ele>
        <time>2026-08-21T16:07:08.999Z</time>
      </trkpt>
      <trkpt lat="48.666076" lon="-1.512960">
        <ele>3.385</ele>
        <time>2026-08-21T16:07:09.999Z</time>
      </trkpt>
      <trkpt lat="48.666065" lon="-1.512946">
        <ele>3.329</ele>
        <time>2026-08-21T16:07:10.999Z</time>
      </trkpt>
      <trkpt lat="48.666055" lon="-1.512934">
        <ele>3.386</ele>
        <time>2026-08-21T16:07:11.999Z</time>
      </trkpt>
      <trkpt lat="48.666046" lon="-1.512923">
        <ele>3.316</ele>
        <time>2026-08-21T16:07:12.999Z</time>
      </trkpt>
      <trkpt lat="48.666031" lon="-1.512904">
        <ele>3.376</ele>
        <time>2026-08-21T16:07:14.999Z</time>
      </trkpt>
      <trkpt lat="48.666022" lon="-1.512895">
        <ele>3.313</ele>
        <time>2026-08-21T16:07:15.999Z</time>
      </trkpt>
      <trkpt lat="48.666010" lon="-1.512886">
        <ele>3.309</ele>
        <time>2026-08-21T16:07:16.999Z</time>
      </trkpt>
      <trkpt lat="48.665999" lon="-1.512877">
        <ele>3.383</ele>
        <time>2026-08-21T16:07:17.999Z</time>
      </trkpt>
      <trkpt lat="48.665988" lon="-1.512866">
        <ele>3.359</ele>
        <time>2026-08-21T16:07:18.999Z</time>
      </trkpt>
      <trkpt lat="48.665977" lon="-1.512856">
        <ele>3.352</ele>
        <time>2026-08-21T16:07:19.999Z</time>
      </trkpt>
      <trkpt lat="48.665968" lon="-1.512847">
        <ele>3.383</ele>
        <time>2026-08-21T16:07:20.999Z</time>
      </trkpt>
      <trkpt lat="48.665960" lon="-1.512839">
        <ele>3.386</ele>
        <time>2026-08-21T16:07:22.999Z</time>
      </trkpt>
      <trkpt lat="48.665955" lon="-1.512827">
        <ele>3.023</ele>
        <time>2026-08-21T16:08:04.999Z</time>
      </trkpt>
      <trkpt lat="48.665958" lon="-1.512840">
        <ele>4.094</ele>
        <time>2026-08-21T16:09:09.999Z</time>
      </trkpt>
      <trkpt lat="48.665951" lon="-1.512830">
        <ele>2.928</ele>
        <time>2026-08-21T16:09:42.999Z</time>
      </trkpt>
      <trkpt lat="48.665938" lon="-1.512820">
        <ele>3.045</ele>
        <time>2026-08-21T16:09:44.999Z</time>
      </trkpt>
      <trkpt lat="48.665920" lon="-1.512813">
        <ele>3.288</ele>
        <time>2026-08-21T16:09:46.999Z</time>
      </trkpt>
      <trkpt lat="48.665910" lon="-1.512812">
        <ele>3.324</ele>
        <time>2026-08-21T16:09:47.999Z</time>
      </trkpt>
      <trkpt lat="48.665894" lon="-1.512801">
        <ele>3.326</ele>
        <time>2026-08-21T16:09:49.999Z</time>
      </trkpt>
      <trkpt lat="48.665883" lon="-1.512793">
        <ele>3.509</ele>
        <time>2026-08-21T16:09:50.999Z</time>
      </trkpt>
      <trkpt lat="48.665874" lon="-1.512785">
        <ele>3.410</ele>
        <time>2026-08-21T16:09:51.999Z</time>
      </trkpt>
      <trkpt lat="48.665860" lon="-1.512775">
        <ele>3.536</ele>
        <time>2026-08-21T16:09:53.999Z</time>
      </trkpt>
      <trkpt lat="48.665842" lon="-1.512760">
        <ele>3.669</ele>
        <time>2026-08-21T16:09:55.999Z</time>
      </trkpt>
      <trkpt lat="48.665831" lon="-1.512753">
        <ele>3.610</ele>
        <time>2026-08-21T16:09:56.999Z</time>
      </trkpt>
      <trkpt lat="48.665819" lon="-1.512744">
        <ele>3.753</ele>
        <time>2026-08-21T16:09:57.999Z</time>
      </trkpt>
      <trkpt lat="48.665811" lon="-1.512733">
        <ele>3.750</ele>
        <time>2026-08-21T16:09:58.999Z</time>
      </trkpt>
      <trkpt lat="48.665803" lon="-1.512725">
        <ele>3.781</ele>
        <time>2026-08-21T16:09:59.999Z</time>
      </trkpt>
      <trkpt lat="48.665794" lon="-1.512718">
        <ele>3.715</ele>
        <time>2026-08-21T16:10:00.999Z</time>
      </trkpt>
      <trkpt lat="48.665784" lon="-1.512712">
        <ele>3.752</ele>
        <time>2026-08-21T16:10:01.999Z</time>
      </trkpt>
      <trkpt lat="48.665774" lon="-1.512703">
        <ele>3.726</ele>
        <time>2026-08-21T16:10:02.999Z</time>
      </trkpt>
      <trkpt lat="48.665762" lon="-1.512695">
        <ele>3.747</ele>
        <time>2026-08-21T16:10:03.999Z</time>
      </trkpt>
      <trkpt lat="48.665753" lon="-1.512688">
        <ele>3.611</ele>
        <time>2026-08-21T16:10:04.999Z</time>
      </trkpt>
      <trkpt lat="48.665743" lon="-1.512682">
        <ele>3.709</ele>
        <time>2026-08-21T16:10:05.999Z</time>
      </trkpt>
      <trkpt lat="48.665735" lon="-1.512675">
        <ele>3.754</ele>
        <time>2026-08-21T16:10:06.999Z</time>
      </trkpt>
      <trkpt lat="48.665724" lon="-1.512666">
        <ele>3.710</ele>
        <time>2026-08-21T16:10:07.999Z</time>
      </trkpt>
      <trkpt lat="48.665714" lon="-1.512663">
        <ele>3.763</ele>
        <time>2026-08-21T16:10:08.999Z</time>
      </trkpt>
      <trkpt lat="48.665706" lon="-1.512655">
        <ele>3.774</ele>
        <time>2026-08-21T16:10:09.999Z</time>
      </trkpt>
      <trkpt lat="48.665697" lon="-1.512647">
        <ele>3.777</ele>
        <time>2026-08-21T16:10:10.999Z</time>
      </trkpt>
      <trkpt lat="48.665686" lon="-1.512635">
        <ele>3.744</ele>
        <time>2026-08-21T16:10:11.999Z</time>
      </trkpt>
      <trkpt lat="48.665674" lon="-1.512628">
        <ele>3.745</ele>
        <time>2026-08-21T16:10:12.999Z</time>
      </trkpt>
      <trkpt lat="48.665663" lon="-1.512618">
        <ele>3.719</ele>
        <time>2026-08-21T16:10:13.999Z</time>
      </trkpt>
      <trkpt lat="48.665654" lon="-1.512612">
        <ele>3.766</ele>
        <time>2026-08-21T16:10:14.999Z</time>
      </trkpt>
      <trkpt lat="48.665642" lon="-1.512603">
        <ele>3.855</ele>
        <time>2026-08-21T16:10:16.999Z</time>
      </trkpt>
      <trkpt lat="48.665630" lon="-1.512595">
        <ele>3.807</ele>
        <time>2026-08-21T16:10:17.999Z</time>
      </trkpt>
      <trkpt lat="48.665618" lon="-1.512588">
        <ele>3.817</ele>
        <time>2026-08-21T16:10:18.999Z</time>
      </trkpt>
      <trkpt lat="48.665605" lon="-1.512580">
        <ele>3.909</ele>
        <time>2026-08-21T16:10:19.999Z</time>
      </trkpt>
      <trkpt lat="48.665597" lon="-1.512570">
        <ele>3.917</ele>
        <time>2026-08-21T16:10:20.999Z</time>
      </trkpt>
      <trkpt lat="48.665591" lon="-1.512559">
        <ele>3.923</ele>
        <time>2026-08-21T16:10:21.999Z</time>
      </trkpt>
      <trkpt lat="48.665583" lon="-1.512553">
        <ele>3.936</ele>
        <time>2026-08-21T16:10:22.999Z</time>
      </trkpt>
      <trkpt lat="48.665566" lon="-1.512539">
        <ele>3.977</ele>
        <time>2026-08-21T16:10:24.999Z</time>
      </trkpt>
      <trkpt lat="48.665557" lon="-1.512529">
        <ele>3.920</ele>
        <time>2026-08-21T16:10:25.999Z</time>
      </trkpt>
      <trkpt lat="48.665549" lon="-1.512518">
        <ele>3.917</ele>
        <time>2026-08-21T16:10:26.999Z</time>
      </trkpt>
      <trkpt lat="48.665540" lon="-1.512509">
        <ele>3.958</ele>
        <time>2026-08-21T16:10:27.999Z</time>
      </trkpt>
      <trkpt lat="48.665530" lon="-1.512502">
        <ele>3.942</ele>
        <time>2026-08-21T16:10:28.999Z</time>
      </trkpt>
      <trkpt lat="48.665518" lon="-1.512493">
        <ele>3.959</ele>
        <time>2026-08-21T16:10:29.999Z</time>
      </trkpt>
      <trkpt lat="48.665506" lon="-1.512483">
        <ele>3.937</ele>
        <time>2026-08-21T16:10:30.999Z</time>
      </trkpt>
      <trkpt lat="48.665496" lon="-1.512471">
        <ele>3.949</ele>
        <time>2026-08-21T16:10:31.999Z</time>
      </trkpt>
      <trkpt lat="48.665481" lon="-1.512451">
        <ele>3.913</ele>
        <time>2026-08-21T16:10:33.999Z</time>
      </trkpt>
      <trkpt lat="48.665469" lon="-1.512440">
        <ele>3.909</ele>
        <time>2026-08-21T16:10:34.999Z</time>
      </trkpt>
      <trkpt lat="48.665459" lon="-1.512429">
        <ele>3.955</ele>
        <time>2026-08-21T16:10:35.999Z</time>
      </trkpt>
      <trkpt lat="48.665448" lon="-1.512420">
        <ele>3.951</ele>
        <time>2026-08-21T16:10:36.999Z</time>
      </trkpt>
      <trkpt lat="48.665433" lon="-1.512405">
        <ele>3.954</ele>
        <time>2026-08-21T16:10:38.999Z</time>
      </trkpt>
      <trkpt lat="48.665424" lon="-1.512394">
        <ele>3.975</ele>
        <time>2026-08-21T16:10:39.999Z</time>
      </trkpt>
      <trkpt lat="48.665413" lon="-1.512383">
        <ele>3.948</ele>
        <time>2026-08-21T16:10:40.999Z</time>
      </trkpt>
      <trkpt lat="48.665405" lon="-1.512376">
        <ele>3.975</ele>
        <time>2026-08-21T16:10:41.999Z</time>
      </trkpt>
      <trkpt lat="48.665396" lon="-1.512369">
        <ele>3.996</ele>
        <time>2026-08-21T16:10:42.999Z</time>
      </trkpt>
      <trkpt lat="48.665387" lon="-1.512359">
        <ele>3.950</ele>
        <time>2026-08-21T16:10:43.999Z</time>
      </trkpt>
      <trkpt lat="48.665372" lon="-1.512338">
        <ele>3.947</ele>
        <time>2026-08-21T16:10:45.999Z</time>
      </trkpt>
      <trkpt lat="48.665361" lon="-1.512326">
        <ele>3.926</ele>
        <time>2026-08-21T16:10:46.999Z</time>
      </trkpt>
      <trkpt lat="48.665351" lon="-1.512312">
        <ele>3.847</ele>
        <time>2026-08-21T16:10:47.999Z</time>
      </trkpt>
      <trkpt lat="48.665342" lon="-1.512302">
        <ele>3.811</ele>
        <time>2026-08-21T16:10:48.999Z</time>
      </trkpt>
      <trkpt lat="48.665336" lon="-1.512292">
        <ele>3.809</ele>
        <time>2026-08-21T16:10:49.999Z</time>
      </trkpt>
      <trkpt lat="48.665328" lon="-1.512279">
        <ele>3.874</ele>
        <time>2026-08-21T16:10:50.999Z</time>
      </trkpt>
      <trkpt lat="48.665318" lon="-1.512267">
        <ele>3.870</ele>
        <time>2026-08-21T16:10:51.999Z</time>
      </trkpt>
      <trkpt lat="48.665306" lon="-1.512254">
        <ele>3.843</ele>
        <time>2026-08-21T16:10:52.999Z</time>
      </trkpt>
      <trkpt lat="48.665294" lon="-1.512243">
        <ele>3.894</ele>
        <time>2026-08-21T16:10:53.999Z</time>
      </trkpt>
      <trkpt lat="48.665282" lon="-1.512231">
        <ele>3.837</ele>
        <time>2026-08-21T16:10:54.999Z</time>
      </trkpt>
      <trkpt lat="48.665272" lon="-1.512221">
        <ele>3.814</ele>
        <time>2026-08-21T16:10:55.999Z</time>
      </trkpt>
      <trkpt lat="48.665260" lon="-1.512203">
        <ele>3.785</ele>
        <time>2026-08-21T16:10:57.999Z</time>
      </trkpt>
      <trkpt lat="48.665251" lon="-1.512195">
        <ele>3.739</ele>
        <time>2026-08-21T16:10:58.999Z</time>
      </trkpt>
      <trkpt lat="48.665242" lon="-1.512185">
        <ele>3.776</ele>
        <time>2026-08-21T16:10:59.999Z</time>
      </trkpt>
      <trkpt lat="48.665231" lon="-1.512173">
        <ele>3.755</ele>
        <time>2026-08-21T16:11:00.999Z</time>
      </trkpt>
      <trkpt lat="48.665220" lon="-1.512164">
        <ele>3.707</ele>
        <time>2026-08-21T16:11:01.999Z</time>
      </trkpt>
      <trkpt lat="48.665212" lon="-1.512155">
        <ele>3.817</ele>
        <time>2026-08-21T16:11:02.999Z</time>
      </trkpt>
      <trkpt lat="48.665203" lon="-1.512142">
        <ele>3.809</ele>
        <time>2026-08-21T16:11:03.999Z</time>
      </trkpt>
      <trkpt lat="48.665193" lon="-1.512131">
        <ele>3.857</ele>
        <time>2026-08-21T16:11:04.999Z</time>
      </trkpt>
      <trkpt lat="48.665182" lon="-1.512125">
        <ele>3.823</ele>
        <time>2026-08-21T16:11:05.999Z</time>
      </trkpt>
      <trkpt lat="48.665172" lon="-1.512115">
        <ele>3.866</ele>
        <time>2026-08-21T16:11:06.999Z</time>
      </trkpt>
      <trkpt lat="48.665162" lon="-1.512103">
        <ele>3.897</ele>
        <time>2026-08-21T16:11:07.999Z</time>
      </trkpt>
      <trkpt lat="48.665152" lon="-1.512093">
        <ele>3.880</ele>
        <time>2026-08-21T16:11:08.999Z</time>
      </trkpt>
      <trkpt lat="48.665142" lon="-1.512084">
        <ele>3.837</ele>
        <time>2026-08-21T16:11:09.999Z</time>
      </trkpt>
      <trkpt lat="48.665135" lon="-1.512077">
        <ele>3.858</ele>
        <time>2026-08-21T16:11:10.999Z</time>
      </trkpt>
      <trkpt lat="48.665125" lon="-1.512065">
        <ele>3.832</ele>
        <time>2026-08-21T16:11:11.999Z</time>
      </trkpt>
      <trkpt lat="48.665116" lon="-1.512058">
        <ele>3.769</ele>
        <time>2026-08-21T16:11:12.999Z</time>
      </trkpt>
      <trkpt lat="48.665107" lon="-1.512045">
        <ele>3.791</ele>
        <time>2026-08-21T16:11:13.999Z</time>
      </trkpt>
      <trkpt lat="48.665097" lon="-1.512036">
        <ele>3.781</ele>
        <time>2026-08-21T16:11:14.999Z</time>
      </trkpt>
      <trkpt lat="48.665086" lon="-1.512029">
        <ele>3.719</ele>
        <time>2026-08-21T16:11:15.999Z</time>
      </trkpt>
      <trkpt lat="48.665077" lon="-1.512018">
        <ele>3.709</ele>
        <time>2026-08-21T16:11:16.999Z</time>
      </trkpt>
      <trkpt lat="48.665071" lon="-1.512008">
        <ele>3.731</ele>
        <time>2026-08-21T16:11:17.999Z</time>
      </trkpt>
      <trkpt lat="48.665064" lon="-1.511996">
        <ele>3.737</ele>
        <time>2026-08-21T16:11:18.999Z</time>
      </trkpt>
      <trkpt lat="48.665055" lon="-1.511982">
        <ele>3.710</ele>
        <time>2026-08-21T16:11:19.999Z</time>
      </trkpt>
      <trkpt lat="48.665044" lon="-1.511973">
        <ele>3.761</ele>
        <time>2026-08-21T16:11:20.999Z</time>
      </trkpt>
      <trkpt lat="48.665031" lon="-1.511964">
        <ele>3.794</ele>
        <time>2026-08-21T16:11:21.999Z</time>
      </trkpt>
      <trkpt lat="48.665021" lon="-1.511957">
        <ele>3.771</ele>
        <time>2026-08-21T16:11:22.999Z</time>
      </trkpt>
      <trkpt lat="48.665012" lon="-1.511949">
        <ele>3.792</ele>
        <time>2026-08-21T16:11:23.999Z</time>
      </trkpt>
      <trkpt lat="48.665003" lon="-1.511939">
        <ele>3.876</ele>
        <time>2026-08-21T16:11:24.999Z</time>
      </trkpt>
      <trkpt lat="48.664995" lon="-1.511928">
        <ele>3.853</ele>
        <time>2026-08-21T16:11:25.999Z</time>
      </trkpt>
      <trkpt lat="48.664986" lon="-1.511917">
        <ele>3.893</ele>
        <time>2026-08-21T16:11:26.999Z</time>
      </trkpt>
      <trkpt lat="48.664975" lon="-1.511901">
        <ele>3.865</ele>
        <time>2026-08-21T16:11:27.999Z</time>
      </trkpt>
      <trkpt lat="48.664964" lon="-1.511885">
        <ele>3.921</ele>
        <time>2026-08-21T16:11:28.999Z</time>
      </trkpt>
      <trkpt lat="48.664953" lon="-1.511872">
        <ele>4.009</ele>
        <time>2026-08-21T16:11:29.999Z</time>
      </trkpt>
      <trkpt lat="48.664941" lon="-1.511861">
        <ele>4.031</ele>
        <time>2026-08-21T16:11:30.999Z</time>
      </trkpt>
      <trkpt lat="48.664932" lon="-1.511854">
        <ele>4.027</ele>
        <time>2026-08-21T16:11:31.999Z</time>
      </trkpt>
      <trkpt lat="48.664922" lon="-1.511844">
        <ele>4.020</ele>
        <time>2026-08-21T16:11:32.999Z</time>
      </trkpt>
      <trkpt lat="48.664913" lon="-1.511832">
        <ele>4.141</ele>
        <time>2026-08-21T16:11:33.999Z</time>
      </trkpt>
      <trkpt lat="48.664905" lon="-1.511821">
        <ele>4.154</ele>
        <time>2026-08-21T16:11:34.999Z</time>
      </trkpt>
      <trkpt lat="48.664896" lon="-1.511810">
        <ele>4.191</ele>
        <time>2026-08-21T16:11:35.999Z</time>
      </trkpt>
      <trkpt lat="48.664887" lon="-1.511800">
        <ele>4.142</ele>
        <time>2026-08-21T16:11:36.999Z</time>
      </trkpt>
      <trkpt lat="48.664877" lon="-1.511791">
        <ele>4.176</ele>
        <time>2026-08-21T16:11:37.999Z</time>
      </trkpt>
      <trkpt lat="48.664865" lon="-1.511780">
        <ele>4.133</ele>
        <time>2026-08-21T16:11:38.999Z</time>
      </trkpt>
      <trkpt lat="48.664855" lon="-1.511767">
        <ele>4.151</ele>
        <time>2026-08-21T16:11:39.999Z</time>
      </trkpt>
      <trkpt lat="48.664848" lon="-1.511753">
        <ele>4.101</ele>
        <time>2026-08-21T16:11:40.999Z</time>
      </trkpt>
      <trkpt lat="48.664842" lon="-1.511740">
        <ele>4.111</ele>
        <time>2026-08-21T16:11:41.999Z</time>
      </trkpt>
      <trkpt lat="48.664835" lon="-1.511731">
        <ele>4.109</ele>
        <time>2026-08-21T16:11:42.999Z</time>
      </trkpt>
      <trkpt lat="48.664824" lon="-1.511725">
        <ele>4.157</ele>
        <time>2026-08-21T16:11:43.999Z</time>
      </trkpt>
      <trkpt lat="48.664814" lon="-1.511715">
        <ele>4.173</ele>
        <time>2026-08-21T16:11:44.999Z</time>
      </trkpt>
      <trkpt lat="48.664805" lon="-1.511702">
        <ele>4.146</ele>
        <time>2026-08-21T16:11:45.999Z</time>
      </trkpt>
      <trkpt lat="48.664794" lon="-1.511695">
        <ele>4.127</ele>
        <time>2026-08-21T16:11:46.999Z</time>
      </trkpt>
      <trkpt lat="48.664786" lon="-1.511685">
        <ele>4.170</ele>
        <time>2026-08-21T16:11:47.999Z</time>
      </trkpt>
      <trkpt lat="48.664778" lon="-1.511674">
        <ele>4.147</ele>
        <time>2026-08-21T16:11:48.999Z</time>
      </trkpt>
      <trkpt lat="48.664769" lon="-1.511661">
        <ele>4.198</ele>
        <time>2026-08-21T16:11:49.999Z</time>
      </trkpt>
      <trkpt lat="48.664758" lon="-1.511646">
        <ele>4.182</ele>
        <time>2026-08-21T16:11:50.999Z</time>
      </trkpt>
      <trkpt lat="48.664746" lon="-1.511630">
        <ele>4.189</ele>
        <time>2026-08-21T16:11:51.999Z</time>
      </trkpt>
      <trkpt lat="48.664736" lon="-1.511614">
        <ele>4.163</ele>
        <time>2026-08-21T16:11:52.999Z</time>
      </trkpt>
      <trkpt lat="48.664726" lon="-1.511600">
        <ele>4.044</ele>
        <time>2026-08-21T16:11:53.999Z</time>
      </trkpt>
      <trkpt lat="48.664718" lon="-1.511587">
        <ele>4.018</ele>
        <time>2026-08-21T16:11:54.999Z</time>
      </trkpt>
      <trkpt lat="48.664704" lon="-1.511569">
        <ele>3.909</ele>
        <time>2026-08-21T16:11:56.999Z</time>
      </trkpt>
      <trkpt lat="48.664695" lon="-1.511557">
        <ele>3.938</ele>
        <time>2026-08-21T16:11:57.999Z</time>
      </trkpt>
      <trkpt lat="48.664685" lon="-1.511542">
        <ele>3.964</ele>
        <time>2026-08-21T16:11:58.999Z</time>
      </trkpt>
      <trkpt lat="48.664671" lon="-1.511528">
        <ele>3.987</ele>
        <time>2026-08-21T16:11:59.999Z</time>
      </trkpt>
      <trkpt lat="48.664661" lon="-1.511515">
        <ele>3.898</ele>
        <time>2026-08-21T16:12:00.999Z</time>
      </trkpt>
      <trkpt lat="48.664646" lon="-1.511488">
        <ele>3.891</ele>
        <time>2026-08-21T16:12:02.999Z</time>
      </trkpt>
      <trkpt lat="48.664636" lon="-1.511482">
        <ele>3.748</ele>
        <time>2026-08-21T16:12:03.999Z</time>
      </trkpt>
      <trkpt lat="48.664627" lon="-1.511472">
        <ele>3.649</ele>
        <time>2026-08-21T16:12:04.999Z</time>
      </trkpt>
      <trkpt lat="48.664619" lon="-1.511459">
        <ele>3.663</ele>
        <time>2026-08-21T16:12:05.999Z</time>
      </trkpt>
      <trkpt lat="48.664611" lon="-1.511444">
        <ele>3.650</ele>
        <time>2026-08-21T16:12:06.999Z</time>
      </trkpt>
      <trkpt lat="48.664601" lon="-1.511430">
        <ele>3.621</ele>
        <time>2026-08-21T16:12:07.999Z</time>
      </trkpt>
      <trkpt lat="48.664590" lon="-1.511417">
        <ele>3.541</ele>
        <time>2026-08-21T16:12:08.999Z</time>
      </trkpt>
      <trkpt lat="48.664581" lon="-1.511405">
        <ele>3.505</ele>
        <time>2026-08-21T16:12:09.999Z</time>
      </trkpt>
      <trkpt lat="48.664574" lon="-1.511394">
        <ele>3.509</ele>
        <time>2026-08-21T16:12:10.999Z</time>
      </trkpt>
      <trkpt lat="48.664561" lon="-1.511370">
        <ele>3.524</ele>
        <time>2026-08-21T16:12:12.999Z</time>
      </trkpt>
      <trkpt lat="48.664556" lon="-1.511356">
        <ele>3.430</ele>
        <time>2026-08-21T16:12:13.999Z</time>
      </trkpt>
      <trkpt lat="48.664544" lon="-1.511338">
        <ele>3.453</ele>
        <time>2026-08-21T16:12:14.999Z</time>
      </trkpt>
      <trkpt lat="48.664533" lon="-1.511325">
        <ele>3.434</ele>
        <time>2026-08-21T16:12:15.999Z</time>
      </trkpt>
      <trkpt lat="48.664526" lon="-1.511314">
        <ele>3.477</ele>
        <time>2026-08-21T16:12:16.999Z</time>
      </trkpt>
      <trkpt lat="48.664520" lon="-1.511301">
        <ele>3.444</ele>
        <time>2026-08-21T16:12:17.999Z</time>
      </trkpt>
      <trkpt lat="48.664514" lon="-1.511288">
        <ele>3.365</ele>
        <time>2026-08-21T16:12:18.999Z</time>
      </trkpt>
      <trkpt lat="48.664507" lon="-1.511276">
        <ele>3.349</ele>
        <time>2026-08-21T16:12:19.999Z</time>
      </trkpt>
      <trkpt lat="48.664498" lon="-1.511263">
        <ele>3.396</ele>
        <time>2026-08-21T16:12:20.999Z</time>
      </trkpt>
      <trkpt lat="48.664490" lon="-1.511254">
        <ele>3.385</ele>
        <time>2026-08-21T16:12:21.999Z</time>
      </trkpt>
      <trkpt lat="48.664481" lon="-1.511240">
        <ele>3.389</ele>
        <time>2026-08-21T16:12:22.999Z</time>
      </trkpt>
      <trkpt lat="48.664472" lon="-1.511228">
        <ele>3.317</ele>
        <time>2026-08-21T16:12:23.999Z</time>
      </trkpt>
      <trkpt lat="48.664457" lon="-1.511208">
        <ele>3.209</ele>
        <time>2026-08-21T16:12:25.999Z</time>
      </trkpt>
      <trkpt lat="48.664450" lon="-1.511197">
        <ele>3.220</ele>
        <time>2026-08-21T16:12:26.999Z</time>
      </trkpt>
      <trkpt lat="48.664443" lon="-1.511184">
        <ele>3.256</ele>
        <time>2026-08-21T16:12:27.999Z</time>
      </trkpt>
      <trkpt lat="48.664436" lon="-1.511170">
        <ele>3.289</ele>
        <time>2026-08-21T16:12:28.999Z</time>
      </trkpt>
      <trkpt lat="48.664429" lon="-1.511154">
        <ele>3.230</ele>
        <time>2026-08-21T16:12:29.999Z</time>
      </trkpt>
      <trkpt lat="48.664421" lon="-1.511143">
        <ele>3.223</ele>
        <time>2026-08-21T16:12:30.999Z</time>
      </trkpt>
      <trkpt lat="48.664411" lon="-1.511127">
        <ele>3.280</ele>
        <time>2026-08-21T16:12:32.999Z</time>
      </trkpt>
      <trkpt lat="48.664406" lon="-1.511114">
        <ele>3.251</ele>
        <time>2026-08-21T16:12:33.999Z</time>
      </trkpt>
      <trkpt lat="48.664401" lon="-1.511100">
        <ele>3.265</ele>
        <time>2026-08-21T16:12:34.999Z</time>
      </trkpt>
      <trkpt lat="48.664391" lon="-1.511082">
        <ele>3.242</ele>
        <time>2026-08-21T16:12:35.999Z</time>
      </trkpt>
      <trkpt lat="48.664377" lon="-1.511068">
        <ele>3.251</ele>
        <time>2026-08-21T16:12:36.999Z</time>
      </trkpt>
      <trkpt lat="48.664366" lon="-1.511055">
        <ele>3.301</ele>
        <time>2026-08-21T16:12:37.999Z</time>
      </trkpt>
      <trkpt lat="48.664357" lon="-1.511038">
        <ele>3.311</ele>
        <time>2026-08-21T16:12:38.999Z</time>
      </trkpt>
      <trkpt lat="48.664350" lon="-1.511028">
        <ele>3.309</ele>
        <time>2026-08-21T16:12:39.999Z</time>
      </trkpt>
      <trkpt lat="48.664344" lon="-1.511017">
        <ele>3.357</ele>
        <time>2026-08-21T16:12:40.999Z</time>
      </trkpt>
      <trkpt lat="48.664335" lon="-1.511005">
        <ele>3.243</ele>
        <time>2026-08-21T16:12:41.999Z</time>
      </trkpt>
      <trkpt lat="48.664324" lon="-1.510991">
        <ele>3.286</ele>
        <time>2026-08-21T16:12:42.999Z</time>
      </trkpt>
      <trkpt lat="48.664315" lon="-1.510980">
        <ele>3.367</ele>
        <time>2026-08-21T16:12:43.999Z</time>
      </trkpt>
      <trkpt lat="48.664304" lon="-1.510971">
        <ele>3.340</ele>
        <time>2026-08-21T16:12:44.999Z</time>
      </trkpt>
      <trkpt lat="48.664296" lon="-1.510961">
        <ele>3.357</ele>
        <time>2026-08-21T16:12:45.999Z</time>
      </trkpt>
      <trkpt lat="48.664288" lon="-1.510951">
        <ele>3.318</ele>
        <time>2026-08-21T16:12:46.999Z</time>
      </trkpt>
      <trkpt lat="48.664283" lon="-1.510933">
        <ele>3.332</ele>
        <time>2026-08-21T16:12:47.999Z</time>
      </trkpt>
      <trkpt lat="48.664276" lon="-1.510916">
        <ele>3.389</ele>
        <time>2026-08-21T16:12:48.999Z</time>
      </trkpt>
      <trkpt lat="48.664268" lon="-1.510899">
        <ele>3.377</ele>
        <time>2026-08-21T16:12:49.999Z</time>
      </trkpt>
      <trkpt lat="48.664257" lon="-1.510885">
        <ele>3.361</ele>
        <time>2026-08-21T16:12:50.999Z</time>
      </trkpt>
      <trkpt lat="48.664245" lon="-1.510876">
        <ele>3.327</ele>
        <time>2026-08-21T16:12:51.999Z</time>
      </trkpt>
      <trkpt lat="48.664237" lon="-1.510867">
        <ele>3.309</ele>
        <time>2026-08-21T16:12:52.999Z</time>
      </trkpt>
      <trkpt lat="48.664230" lon="-1.510856">
        <ele>3.319</ele>
        <time>2026-08-21T16:12:53.999Z</time>
      </trkpt>
      <trkpt lat="48.664225" lon="-1.510842">
        <ele>3.355</ele>
        <time>2026-08-21T16:12:54.999Z</time>
      </trkpt>
      <trkpt lat="48.664214" lon="-1.510827">
        <ele>3.398</ele>
        <time>2026-08-21T16:12:55.999Z</time>
      </trkpt>
      <trkpt lat="48.664204" lon="-1.510812">
        <ele>3.359</ele>
        <time>2026-08-21T16:12:56.999Z</time>
      </trkpt>
      <trkpt lat="48.664194" lon="-1.510799">
        <ele>3.362</ele>
        <time>2026-08-21T16:12:57.999Z</time>
      </trkpt>
      <trkpt lat="48.664185" lon="-1.510787">
        <ele>3.299</ele>
        <time>2026-08-21T16:12:58.999Z</time>
      </trkpt>
      <trkpt lat="48.664176" lon="-1.510777">
        <ele>3.160</ele>
        <time>2026-08-21T16:12:59.999Z</time>
      </trkpt>
      <trkpt lat="48.664164" lon="-1.510759">
        <ele>3.144</ele>
        <time>2026-08-21T16:13:01.999Z</time>
      </trkpt>
      <trkpt lat="48.664156" lon="-1.510747">
        <ele>3.191</ele>
        <time>2026-08-21T16:13:02.999Z</time>
      </trkpt>
      <trkpt lat="48.664145" lon="-1.510737">
        <ele>3.131</ele>
        <time>2026-08-21T16:13:03.999Z</time>
      </trkpt>
      <trkpt lat="48.664134" lon="-1.510733">
        <ele>3.161</ele>
        <time>2026-08-21T16:13:04.999Z</time>
      </trkpt>
      <trkpt lat="48.664120" lon="-1.510722">
        <ele>3.107</ele>
        <time>2026-08-21T16:13:06.999Z</time>
      </trkpt>
      <trkpt lat="48.664115" lon="-1.510710">
        <ele>3.109</ele>
        <time>2026-08-21T16:13:07.999Z</time>
      </trkpt>
      <trkpt lat="48.664102" lon="-1.510697">
        <ele>3.155</ele>
        <time>2026-08-21T16:13:09.999Z</time>
      </trkpt>
      <trkpt lat="48.664087" lon="-1.510691">
        <ele>3.041</ele>
        <time>2026-08-21T16:13:11.999Z</time>
      </trkpt>
      <trkpt lat="48.664080" lon="-1.510669">
        <ele>3.014</ele>
        <time>2026-08-21T16:13:13.999Z</time>
      </trkpt>
      <trkpt lat="48.664069" lon="-1.510651">
        <ele>3.075</ele>
        <time>2026-08-21T16:13:14.999Z</time>
      </trkpt>
      <trkpt lat="48.664059" lon="-1.510636">
        <ele>3.028</ele>
        <time>2026-08-21T16:13:15.999Z</time>
      </trkpt>
      <trkpt lat="48.664046" lon="-1.510626">
        <ele>3.045</ele>
        <time>2026-08-21T16:13:16.999Z</time>
      </trkpt>
      <trkpt lat="48.664032" lon="-1.510619">
        <ele>3.036</ele>
        <time>2026-08-21T16:13:17.999Z</time>
      </trkpt>
      <trkpt lat="48.664020" lon="-1.510615">
        <ele>3.090</ele>
        <time>2026-08-21T16:13:18.999Z</time>
      </trkpt>
      <trkpt lat="48.664010" lon="-1.510609">
        <ele>3.067</ele>
        <time>2026-08-21T16:13:19.999Z</time>
      </trkpt>
      <trkpt lat="48.664001" lon="-1.510598">
        <ele>3.035</ele>
        <time>2026-08-21T16:13:20.999Z</time>
      </trkpt>
      <trkpt lat="48.663990" lon="-1.510579">
        <ele>3.086</ele>
        <time>2026-08-21T16:13:22.999Z</time>
      </trkpt>
      <trkpt lat="48.663979" lon="-1.510565">
        <ele>3.014</ele>
        <time>2026-08-21T16:13:23.999Z</time>
      </trkpt>
      <trkpt lat="48.663968" lon="-1.510558">
        <ele>3.009</ele>
        <time>2026-08-21T16:13:24.999Z</time>
      </trkpt>
      <trkpt lat="48.663957" lon="-1.510548">
        <ele>3.195</ele>
        <time>2026-08-21T16:13:25.999Z</time>
      </trkpt>
      <trkpt lat="48.663946" lon="-1.510540">
        <ele>3.141</ele>
        <time>2026-08-21T16:13:26.999Z</time>
      </trkpt>
      <trkpt lat="48.663936" lon="-1.510528">
        <ele>3.154</ele>
        <time>2026-08-21T16:13:27.999Z</time>
      </trkpt>
      <trkpt lat="48.663926" lon="-1.510518">
        <ele>3.295</ele>
        <time>2026-08-21T16:13:28.999Z</time>
      </trkpt>
      <trkpt lat="48.663916" lon="-1.510513">
        <ele>3.238</ele>
        <time>2026-08-21T16:13:29.999Z</time>
      </trkpt>
      <trkpt lat="48.663908" lon="-1.510503">
        <ele>3.225</ele>
        <time>2026-08-21T16:13:30.999Z</time>
      </trkpt>
      <trkpt lat="48.663899" lon="-1.510493">
        <ele>3.396</ele>
        <time>2026-08-21T16:13:31.999Z</time>
      </trkpt>
      <trkpt lat="48.663886" lon="-1.510482">
        <ele>3.390</ele>
        <time>2026-08-21T16:13:32.999Z</time>
      </trkpt>
      <trkpt lat="48.663874" lon="-1.510476">
        <ele>3.387</ele>
        <time>2026-08-21T16:13:33.999Z</time>
      </trkpt>
      <trkpt lat="48.663862" lon="-1.510465">
        <ele>3.446</ele>
        <time>2026-08-21T16:13:34.999Z</time>
      </trkpt>
      <trkpt lat="48.663851" lon="-1.510451">
        <ele>3.488</ele>
        <time>2026-08-21T16:13:35.999Z</time>
      </trkpt>
      <trkpt lat="48.663843" lon="-1.510442">
        <ele>3.416</ele>
        <time>2026-08-21T16:13:36.999Z</time>
      </trkpt>
      <trkpt lat="48.663835" lon="-1.510435">
        <ele>3.409</ele>
        <time>2026-08-21T16:13:37.999Z</time>
      </trkpt>
      <trkpt lat="48.663823" lon="-1.510426">
        <ele>3.546</ele>
        <time>2026-08-21T16:13:38.999Z</time>
      </trkpt>
      <trkpt lat="48.663813" lon="-1.510418">
        <ele>3.672</ele>
        <time>2026-08-21T16:13:39.999Z</time>
      </trkpt>
      <trkpt lat="48.663803" lon="-1.510409">
        <ele>3.625</ele>
        <time>2026-08-21T16:13:40.999Z</time>
      </trkpt>
      <trkpt lat="48.663792" lon="-1.510399">
        <ele>3.686</ele>
        <time>2026-08-21T16:13:41.999Z</time>
      </trkpt>
      <trkpt lat="48.663783" lon="-1.510387">
        <ele>3.659</ele>
        <time>2026-08-21T16:13:42.999Z</time>
      </trkpt>
      <trkpt lat="48.663774" lon="-1.510376">
        <ele>3.796</ele>
        <time>2026-08-21T16:13:43.999Z</time>
      </trkpt>
      <trkpt lat="48.663764" lon="-1.510367">
        <ele>3.747</ele>
        <time>2026-08-21T16:13:44.999Z</time>
      </trkpt>
      <trkpt lat="48.663750" lon="-1.510351">
        <ele>3.751</ele>
        <time>2026-08-21T16:13:46.999Z</time>
      </trkpt>
      <trkpt lat="48.663741" lon="-1.510343">
        <ele>3.768</ele>
        <time>2026-08-21T16:13:47.999Z</time>
      </trkpt>
      <trkpt lat="48.663731" lon="-1.510331">
        <ele>3.738</ele>
        <time>2026-08-21T16:13:48.999Z</time>
      </trkpt>
      <trkpt lat="48.663720" lon="-1.510323">
        <ele>3.770</ele>
        <time>2026-08-21T16:13:49.999Z</time>
      </trkpt>
      <trkpt lat="48.663710" lon="-1.510317">
        <ele>3.717</ele>
        <time>2026-08-21T16:13:50.999Z</time>
      </trkpt>
      <trkpt lat="48.663699" lon="-1.510307">
        <ele>3.709</ele>
        <time>2026-08-21T16:13:51.999Z</time>
      </trkpt>
      <trkpt lat="48.663685" lon="-1.510295">
        <ele>3.755</ele>
        <time>2026-08-21T16:13:53.999Z</time>
      </trkpt>
      <trkpt lat="48.663674" lon="-1.510286">
        <ele>3.791</ele>
        <time>2026-08-21T16:13:54.999Z</time>
      </trkpt>
      <trkpt lat="48.663663" lon="-1.510278">
        <ele>3.724</ele>
        <time>2026-08-21T16:13:55.999Z</time>
      </trkpt>
      <trkpt lat="48.663651" lon="-1.510272">
        <ele>3.735</ele>
        <time>2026-08-21T16:13:56.999Z</time>
      </trkpt>
      <trkpt lat="48.663641" lon="-1.510265">
        <ele>3.738</ele>
        <time>2026-08-21T16:13:57.999Z</time>
      </trkpt>
      <trkpt lat="48.663633" lon="-1.510256">
        <ele>3.635</ele>
        <time>2026-08-21T16:13:58.999Z</time>
      </trkpt>
      <trkpt lat="48.663628" lon="-1.510242">
        <ele>3.566</ele>
        <time>2026-08-21T16:13:59.999Z</time>
      </trkpt>
      <trkpt lat="48.663621" lon="-1.510229">
        <ele>3.560</ele>
        <time>2026-08-21T16:14:00.999Z</time>
      </trkpt>
      <trkpt lat="48.663613" lon="-1.510218">
        <ele>3.567</ele>
        <time>2026-08-21T16:14:01.999Z</time>
      </trkpt>
      <trkpt lat="48.663604" lon="-1.510209">
        <ele>3.595</ele>
        <time>2026-08-21T16:14:02.999Z</time>
      </trkpt>
      <trkpt lat="48.663593" lon="-1.510196">
        <ele>3.549</ele>
        <time>2026-08-21T16:14:03.999Z</time>
      </trkpt>
      <trkpt lat="48.663581" lon="-1.510187">
        <ele>3.523</ele>
        <time>2026-08-21T16:14:04.999Z</time>
      </trkpt>
      <trkpt lat="48.663570" lon="-1.510178">
        <ele>3.509</ele>
        <time>2026-08-21T16:14:05.999Z</time>
      </trkpt>
      <trkpt lat="48.663557" lon="-1.510167">
        <ele>3.571</ele>
        <time>2026-08-21T16:14:06.999Z</time>
      </trkpt>
      <trkpt lat="48.663549" lon="-1.510158">
        <ele>3.517</ele>
        <time>2026-08-21T16:14:07.999Z</time>
      </trkpt>
      <trkpt lat="48.663543" lon="-1.510146">
        <ele>3.540</ele>
        <time>2026-08-21T16:14:08.999Z</time>
      </trkpt>
      <trkpt lat="48.663535" lon="-1.510137">
        <ele>3.571</ele>
        <time>2026-08-21T16:14:09.999Z</time>
      </trkpt>
      <trkpt lat="48.663526" lon="-1.510125">
        <ele>3.554</ele>
        <time>2026-08-21T16:14:10.999Z</time>
      </trkpt>
      <trkpt lat="48.663513" lon="-1.510111">
        <ele>3.521</ele>
        <time>2026-08-21T16:14:11.999Z</time>
      </trkpt>
      <trkpt lat="48.663500" lon="-1.510102">
        <ele>3.432</ele>
        <time>2026-08-21T16:14:12.999Z</time>
      </trkpt>
      <trkpt lat="48.663489" lon="-1.510093">
        <ele>3.426</ele>
        <time>2026-08-21T16:14:13.999Z</time>
      </trkpt>
      <trkpt lat="48.663478" lon="-1.510083">
        <ele>3.413</ele>
        <time>2026-08-21T16:14:14.999Z</time>
      </trkpt>
      <trkpt lat="48.663464" lon="-1.510068">
        <ele>3.313</ele>
        <time>2026-08-21T16:14:16.999Z</time>
      </trkpt>
      <trkpt lat="48.663454" lon="-1.510058">
        <ele>3.343</ele>
        <time>2026-08-21T16:14:17.999Z</time>
      </trkpt>
      <trkpt lat="48.663443" lon="-1.510048">
        <ele>3.307</ele>
        <time>2026-08-21T16:14:18.999Z</time>
      </trkpt>
      <trkpt lat="48.663430" lon="-1.510038">
        <ele>3.309</ele>
        <time>2026-08-21T16:14:19.999Z</time>
      </trkpt>
      <trkpt lat="48.663416" lon="-1.510031">
        <ele>3.383</ele>
        <time>2026-08-21T16:14:20.999Z</time>
      </trkpt>
      <trkpt lat="48.663406" lon="-1.510023">
        <ele>3.399</ele>
        <time>2026-08-21T16:14:21.999Z</time>
      </trkpt>
      <trkpt lat="48.663395" lon="-1.510011">
        <ele>3.362</ele>
        <time>2026-08-21T16:14:23.999Z</time>
      </trkpt>
      <trkpt lat="48.663387" lon="-1.509999">
        <ele>3.253</ele>
        <time>2026-08-21T16:14:24.999Z</time>
      </trkpt>
      <trkpt lat="48.663375" lon="-1.509990">
        <ele>3.136</ele>
        <time>2026-08-21T16:14:25.999Z</time>
      </trkpt>
      <trkpt lat="48.663362" lon="-1.509980">
        <ele>3.193</ele>
        <time>2026-08-21T16:14:26.999Z</time>
      </trkpt>
      <trkpt lat="48.663352" lon="-1.509971">
        <ele>3.144</ele>
        <time>2026-08-21T16:14:27.999Z</time>
      </trkpt>
      <trkpt lat="48.663341" lon="-1.509959">
        <ele>3.138</ele>
        <time>2026-08-21T16:14:28.999Z</time>
      </trkpt>
      <trkpt lat="48.663329" lon="-1.509956">
        <ele>3.145</ele>
        <time>2026-08-21T16:14:29.999Z</time>
      </trkpt>
      <trkpt lat="48.663320" lon="-1.509943">
        <ele>3.145</ele>
        <time>2026-08-21T16:14:31.999Z</time>
      </trkpt>
      <trkpt lat="48.663312" lon="-1.509930">
        <ele>3.147</ele>
        <time>2026-08-21T16:14:32.999Z</time>
      </trkpt>
      <trkpt lat="48.663301" lon="-1.509917">
        <ele>3.111</ele>
        <time>2026-08-21T16:14:33.999Z</time>
      </trkpt>
      <trkpt lat="48.663287" lon="-1.509903">
        <ele>3.109</ele>
        <time>2026-08-21T16:14:34.999Z</time>
      </trkpt>
      <trkpt lat="48.663275" lon="-1.509890">
        <ele>3.186</ele>
        <time>2026-08-21T16:14:35.999Z</time>
      </trkpt>
      <trkpt lat="48.663264" lon="-1.509882">
        <ele>3.192</ele>
        <time>2026-08-21T16:14:36.999Z</time>
      </trkpt>
      <trkpt lat="48.663257" lon="-1.509874">
        <ele>3.125</ele>
        <time>2026-08-21T16:14:37.999Z</time>
      </trkpt>
      <trkpt lat="48.663243" lon="-1.509859">
        <ele>3.116</ele>
        <time>2026-08-21T16:14:39.999Z</time>
      </trkpt>
      <trkpt lat="48.663234" lon="-1.509852">
        <ele>3.189</ele>
        <time>2026-08-21T16:14:40.999Z</time>
      </trkpt>
      <trkpt lat="48.663222" lon="-1.509849">
        <ele>3.186</ele>
        <time>2026-08-21T16:14:41.999Z</time>
      </trkpt>
      <trkpt lat="48.663211" lon="-1.509842">
        <ele>3.187</ele>
        <time>2026-08-21T16:14:42.999Z</time>
      </trkpt>
      <trkpt lat="48.663201" lon="-1.509836">
        <ele>3.161</ele>
        <time>2026-08-21T16:14:43.999Z</time>
      </trkpt>
      <trkpt lat="48.663195" lon="-1.509822">
        <ele>3.148</ele>
        <time>2026-08-21T16:14:44.999Z</time>
      </trkpt>
      <trkpt lat="48.663188" lon="-1.509807">
        <ele>3.274</ele>
        <time>2026-08-21T16:14:45.999Z</time>
      </trkpt>
      <trkpt lat="48.663180" lon="-1.509795">
        <ele>3.256</ele>
        <time>2026-08-21T16:14:46.999Z</time>
      </trkpt>
      <trkpt lat="48.663171" lon="-1.509786">
        <ele>3.321</ele>
        <time>2026-08-21T16:14:47.999Z</time>
      </trkpt>
      <trkpt lat="48.663161" lon="-1.509779">
        <ele>3.309</ele>
        <time>2026-08-21T16:14:48.999Z</time>
      </trkpt>
      <trkpt lat="48.663154" lon="-1.509770">
        <ele>3.449</ele>
        <time>2026-08-21T16:14:49.999Z</time>
      </trkpt>
      <trkpt lat="48.663147" lon="-1.509761">
        <ele>3.465</ele>
        <time>2026-08-21T16:14:50.999Z</time>
      </trkpt>
      <trkpt lat="48.663141" lon="-1.509750">
        <ele>3.598</ele>
        <time>2026-08-21T16:14:51.999Z</time>
      </trkpt>
      <trkpt lat="48.663124" lon="-1.509731">
        <ele>3.599</ele>
        <time>2026-08-21T16:14:53.999Z</time>
      </trkpt>
      <trkpt lat="48.663114" lon="-1.509725">
        <ele>3.592</ele>
        <time>2026-08-21T16:14:54.999Z</time>
      </trkpt>
      <trkpt lat="48.663104" lon="-1.509718">
        <ele>3.519</ele>
        <time>2026-08-21T16:14:55.999Z</time>
      </trkpt>
      <trkpt lat="48.663092" lon="-1.509709">
        <ele>3.510</ele>
        <time>2026-08-21T16:14:56.999Z</time>
      </trkpt>
      <trkpt lat="48.663082" lon="-1.509701">
        <ele>3.524</ele>
        <time>2026-08-21T16:14:57.999Z</time>
      </trkpt>
      <trkpt lat="48.663075" lon="-1.509691">
        <ele>3.521</ele>
        <time>2026-08-21T16:14:58.999Z</time>
      </trkpt>
      <trkpt lat="48.663065" lon="-1.509670">
        <ele>3.543</ele>
        <time>2026-08-21T16:15:00.999Z</time>
      </trkpt>
      <trkpt lat="48.663057" lon="-1.509660">
        <ele>3.564</ele>
        <time>2026-08-21T16:15:01.999Z</time>
      </trkpt>
      <trkpt lat="48.663046" lon="-1.509652">
        <ele>3.510</ele>
        <time>2026-08-21T16:15:02.999Z</time>
      </trkpt>
      <trkpt lat="48.663033" lon="-1.509645">
        <ele>3.509</ele>
        <time>2026-08-21T16:15:03.999Z</time>
      </trkpt>
      <trkpt lat="48.663021" lon="-1.509638">
        <ele>3.576</ele>
        <time>2026-08-21T16:15:04.999Z</time>
      </trkpt>
      <trkpt lat="48.663013" lon="-1.509633">
        <ele>3.522</ele>
        <time>2026-08-21T16:15:05.999Z</time>
      </trkpt>
      <trkpt lat="48.662998" lon="-1.509616">
        <ele>3.525</ele>
        <time>2026-08-21T16:15:07.999Z</time>
      </trkpt>
      <trkpt lat="48.662991" lon="-1.509608">
        <ele>3.496</ele>
        <time>2026-08-21T16:15:08.999Z</time>
      </trkpt>
      <trkpt lat="48.662983" lon="-1.509600">
        <ele>3.419</ele>
        <time>2026-08-21T16:15:09.999Z</time>
      </trkpt>
      <trkpt lat="48.662972" lon="-1.509590">
        <ele>3.276</ele>
        <time>2026-08-21T16:15:10.999Z</time>
      </trkpt>
      <trkpt lat="48.662959" lon="-1.509583">
        <ele>3.027</ele>
        <time>2026-08-21T16:15:11.999Z</time>
      </trkpt>
      <trkpt lat="48.662947" lon="-1.509574">
        <ele>2.851</ele>
        <time>2026-08-21T16:15:12.999Z</time>
      </trkpt>
      <trkpt lat="48.662936" lon="-1.509564">
        <ele>2.748</ele>
        <time>2026-08-21T16:15:13.999Z</time>
      </trkpt>
      <trkpt lat="48.662927" lon="-1.509557">
        <ele>2.764</ele>
        <time>2026-08-21T16:15:15.999Z</time>
      </trkpt>
      <trkpt lat="48.662915" lon="-1.509542">
        <ele>2.706</ele>
        <time>2026-08-21T16:15:17.999Z</time>
      </trkpt>
      <trkpt lat="48.662907" lon="-1.509534">
        <ele>2.716</ele>
        <time>2026-08-21T16:15:18.999Z</time>
      </trkpt>
      <trkpt lat="48.662898" lon="-1.509525">
        <ele>2.709</ele>
        <time>2026-08-21T16:15:19.999Z</time>
      </trkpt>
      <trkpt lat="48.662887" lon="-1.509511">
        <ele>2.758</ele>
        <time>2026-08-21T16:15:20.999Z</time>
      </trkpt>
      <trkpt lat="48.662878" lon="-1.509502">
        <ele>2.744</ele>
        <time>2026-08-21T16:15:21.999Z</time>
      </trkpt>
      <trkpt lat="48.662869" lon="-1.509493">
        <ele>2.777</ele>
        <time>2026-08-21T16:15:22.999Z</time>
      </trkpt>
      <trkpt lat="48.662856" lon="-1.509486">
        <ele>2.798</ele>
        <time>2026-08-21T16:15:24.999Z</time>
      </trkpt>
      <trkpt lat="48.662846" lon="-1.509468">
        <ele>2.761</ele>
        <time>2026-08-21T16:15:26.999Z</time>
      </trkpt>
      <trkpt lat="48.662834" lon="-1.509456">
        <ele>2.718</ele>
        <time>2026-08-21T16:15:27.999Z</time>
      </trkpt>
      <trkpt lat="48.662824" lon="-1.509447">
        <ele>2.739</ele>
        <time>2026-08-21T16:15:28.999Z</time>
      </trkpt>
      <trkpt lat="48.662814" lon="-1.509439">
        <ele>2.733</ele>
        <time>2026-08-21T16:15:29.999Z</time>
      </trkpt>
      <trkpt lat="48.662802" lon="-1.509428">
        <ele>2.620</ele>
        <time>2026-08-21T16:15:31.999Z</time>
      </trkpt>
      <trkpt lat="48.662793" lon="-1.509419">
        <ele>2.673</ele>
        <time>2026-08-21T16:15:32.999Z</time>
      </trkpt>
      <trkpt lat="48.662785" lon="-1.509408">
        <ele>2.685</ele>
        <time>2026-08-21T16:15:33.999Z</time>
      </trkpt>
      <trkpt lat="48.662776" lon="-1.509397">
        <ele>2.613</ele>
        <time>2026-08-21T16:15:34.999Z</time>
      </trkpt>
      <trkpt lat="48.662767" lon="-1.509390">
        <ele>2.609</ele>
        <time>2026-08-21T16:15:35.999Z</time>
      </trkpt>
      <trkpt lat="48.662758" lon="-1.509384">
        <ele>2.649</ele>
        <time>2026-08-21T16:15:36.999Z</time>
      </trkpt>
      <trkpt lat="48.662749" lon="-1.509381">
        <ele>2.545</ele>
        <time>2026-08-21T16:15:37.999Z</time>
      </trkpt>
      <trkpt lat="48.662741" lon="-1.509362">
        <ele>2.668</ele>
        <time>2026-08-21T16:15:39.999Z</time>
      </trkpt>
      <trkpt lat="48.662735" lon="-1.509351">
        <ele>2.569</ele>
        <time>2026-08-21T16:15:40.999Z</time>
      </trkpt>
      <trkpt lat="48.662721" lon="-1.509340">
        <ele>2.582</ele>
        <time>2026-08-21T16:15:42.999Z</time>
      </trkpt>
      <trkpt lat="48.662714" lon="-1.509330">
        <ele>2.569</ele>
        <time>2026-08-21T16:15:43.999Z</time>
      </trkpt>
      <trkpt lat="48.662704" lon="-1.509321">
        <ele>2.670</ele>
        <time>2026-08-21T16:15:44.999Z</time>
      </trkpt>
      <trkpt lat="48.662696" lon="-1.509314">
        <ele>2.644</ele>
        <time>2026-08-21T16:15:45.999Z</time>
      </trkpt>
      <trkpt lat="48.662686" lon="-1.509297">
        <ele>2.761</ele>
        <time>2026-08-21T16:15:47.999Z</time>
      </trkpt>
      <trkpt lat="48.662675" lon="-1.509275">
        <ele>2.756</ele>
        <time>2026-08-21T16:15:49.999Z</time>
      </trkpt>
      <trkpt lat="48.662666" lon="-1.509261">
        <ele>2.759</ele>
        <time>2026-08-21T16:15:50.999Z</time>
      </trkpt>
      <trkpt lat="48.662653" lon="-1.509250">
        <ele>2.714</ele>
        <time>2026-08-21T16:15:51.999Z</time>
      </trkpt>
      <trkpt lat="48.662638" lon="-1.509244">
        <ele>2.709</ele>
        <time>2026-08-21T16:15:52.999Z</time>
      </trkpt>
      <trkpt lat="48.662629" lon="-1.509236">
        <ele>2.697</ele>
        <time>2026-08-21T16:15:53.999Z</time>
      </trkpt>
      <trkpt lat="48.662621" lon="-1.509227">
        <ele>2.673</ele>
        <time>2026-08-21T16:15:54.999Z</time>
      </trkpt>
      <trkpt lat="48.662613" lon="-1.509216">
        <ele>2.626</ele>
        <time>2026-08-21T16:15:55.999Z</time>
      </trkpt>
      <trkpt lat="48.662604" lon="-1.509206">
        <ele>2.687</ele>
        <time>2026-08-21T16:15:56.999Z</time>
      </trkpt>
      <trkpt lat="48.662596" lon="-1.509192">
        <ele>2.550</ele>
        <time>2026-08-21T16:15:57.999Z</time>
      </trkpt>
      <trkpt lat="48.662585" lon="-1.509184">
        <ele>2.567</ele>
        <time>2026-08-21T16:15:58.999Z</time>
      </trkpt>
      <trkpt lat="48.662576" lon="-1.509178">
        <ele>2.558</ele>
        <time>2026-08-21T16:15:59.999Z</time>
      </trkpt>
      <trkpt lat="48.662567" lon="-1.509176">
        <ele>2.522</ele>
        <time>2026-08-21T16:16:00.999Z</time>
      </trkpt>
      <trkpt lat="48.662557" lon="-1.509167">
        <ele>2.579</ele>
        <time>2026-08-21T16:16:02.999Z</time>
      </trkpt>
      <trkpt lat="48.662552" lon="-1.509149">
        <ele>2.517</ele>
        <time>2026-08-21T16:16:04.999Z</time>
      </trkpt>
      <trkpt lat="48.662547" lon="-1.509135">
        <ele>2.587</ele>
        <time>2026-08-21T16:16:05.999Z</time>
      </trkpt>
      <trkpt lat="48.662536" lon="-1.509120">
        <ele>2.415</ele>
        <time>2026-08-21T16:16:07.999Z</time>
      </trkpt>
      <trkpt lat="48.662526" lon="-1.509103">
        <ele>2.409</ele>
        <time>2026-08-21T16:16:09.999Z</time>
      </trkpt>
      <trkpt lat="48.662525" lon="-1.509085">
        <ele>2.463</ele>
        <time>2026-08-21T16:16:11.999Z</time>
      </trkpt>
      <trkpt lat="48.662518" lon="-1.509073">
        <ele>2.439</ele>
        <time>2026-08-21T16:16:13.999Z</time>
      </trkpt>
      <trkpt lat="48.662510" lon="-1.509064">
        <ele>2.432</ele>
        <time>2026-08-21T16:16:15.999Z</time>
      </trkpt>
      <trkpt lat="48.662503" lon="-1.509051">
        <ele>2.543</ele>
        <time>2026-08-21T16:16:18.999Z</time>
      </trkpt>
      <trkpt lat="48.662496" lon="-1.509039">
        <ele>2.516</ele>
        <time>2026-08-21T16:16:21.999Z</time>
      </trkpt>
      <trkpt lat="48.662486" lon="-1.509034">
        <ele>2.593</ele>
        <time>2026-08-21T16:16:38.999Z</time>
      </trkpt>
      <trkpt lat="48.662476" lon="-1.509026">
        <ele>2.544</ele>
        <time>2026-08-21T16:16:44.999Z</time>
      </trkpt>
      <trkpt lat="48.662464" lon="-1.509018">
        <ele>2.588</ele>
        <time>2026-08-21T16:16:47.999Z</time>
      </trkpt>
      <trkpt lat="48.662453" lon="-1.509013">
        <ele>2.445</ele>
        <time>2026-08-21T16:16:50.999Z</time>
      </trkpt>
      <trkpt lat="48.662437" lon="-1.509009">
        <ele>2.489</ele>
        <time>2026-08-21T16:16:52.999Z</time>
      </trkpt>
      <trkpt lat="48.662423" lon="-1.509006">
        <ele>2.306</ele>
        <time>2026-08-21T16:16:53.999Z</time>
      </trkpt>
      <trkpt lat="48.662414" lon="-1.509005">
        <ele>2.326</ele>
        <time>2026-08-21T16:16:54.999Z</time>
      </trkpt>
      <trkpt lat="48.662400" lon="-1.509004">
        <ele>2.309</ele>
        <time>2026-08-21T16:16:56.999Z</time>
      </trkpt>
      <trkpt lat="48.662388" lon="-1.508998">
        <ele>2.310</ele>
        <time>2026-08-21T16:16:58.999Z</time>
      </trkpt>
      <trkpt lat="48.662377" lon="-1.508993">
        <ele>2.396</ele>
        <time>2026-08-21T16:17:01.999Z</time>
      </trkpt>
      <trkpt lat="48.662365" lon="-1.508977">
        <ele>2.329</ele>
        <time>2026-08-21T16:17:04.999Z</time>
      </trkpt>
      <trkpt lat="48.662350" lon="-1.508957">
        <ele>2.330</ele>
        <time>2026-08-21T16:17:06.999Z</time>
      </trkpt>
      <trkpt lat="48.662341" lon="-1.508951">
        <ele>2.313</ele>
        <time>2026-08-21T16:17:07.999Z</time>
      </trkpt>
      <trkpt lat="48.662330" lon="-1.508943">
        <ele>2.330</ele>
        <time>2026-08-21T16:17:08.999Z</time>
      </trkpt>
      <trkpt lat="48.662319" lon="-1.508936">
        <ele>2.321</ele>
        <time>2026-08-21T16:17:09.999Z</time>
      </trkpt>
      <trkpt lat="48.662310" lon="-1.508931">
        <ele>2.375</ele>
        <time>2026-08-21T16:17:10.999Z</time>
      </trkpt>
      <trkpt lat="48.662296" lon="-1.508932">
        <ele>2.352</ele>
        <time>2026-08-21T16:17:12.999Z</time>
      </trkpt>
      <trkpt lat="48.662285" lon="-1.508928">
        <ele>2.365</ele>
        <time>2026-08-21T16:17:13.999Z</time>
      </trkpt>
      <trkpt lat="48.662269" lon="-1.508918">
        <ele>2.368</ele>
        <time>2026-08-21T16:17:15.999Z</time>
      </trkpt>
      <trkpt lat="48.662258" lon="-1.508910">
        <ele>2.314</ele>
        <time>2026-08-21T16:17:16.999Z</time>
      </trkpt>
      <trkpt lat="48.662249" lon="-1.508904">
        <ele>2.309</ele>
        <time>2026-08-21T16:17:17.999Z</time>
      </trkpt>
      <trkpt lat="48.662238" lon="-1.508896">
        <ele>2.318</ele>
        <time>2026-08-21T16:17:19.999Z</time>
      </trkpt>
      <trkpt lat="48.662225" lon="-1.508890">
        <ele>2.324</ele>
        <time>2026-08-21T16:17:21.999Z</time>
      </trkpt>
      <trkpt lat="48.662213" lon="-1.508874">
        <ele>2.367</ele>
        <time>2026-08-21T16:17:23.999Z</time>
      </trkpt>
      <trkpt lat="48.662199" lon="-1.508867">
        <ele>2.328</ele>
        <time>2026-08-21T16:17:25.999Z</time>
      </trkpt>
      <trkpt lat="48.662188" lon="-1.508862">
        <ele>2.321</ele>
        <time>2026-08-21T16:17:26.999Z</time>
      </trkpt>
      <trkpt lat="48.662175" lon="-1.508851">
        <ele>2.328</ele>
        <time>2026-08-21T16:17:28.999Z</time>
      </trkpt>
      <trkpt lat="48.662161" lon="-1.508839">
        <ele>2.449</ele>
        <time>2026-08-21T16:17:30.999Z</time>
      </trkpt>
      <trkpt lat="48.662148" lon="-1.508832">
        <ele>2.443</ele>
        <time>2026-08-21T16:17:31.999Z</time>
      </trkpt>
      <trkpt lat="48.662137" lon="-1.508833">
        <ele>2.430</ele>
        <time>2026-08-21T16:17:32.999Z</time>
      </trkpt>
      <trkpt lat="48.662128" lon="-1.508831">
        <ele>2.494</ele>
        <time>2026-08-21T16:17:33.999Z</time>
      </trkpt>
      <trkpt lat="48.662110" lon="-1.508830">
        <ele>2.457</ele>
        <time>2026-08-21T16:17:35.999Z</time>
      </trkpt>
      <trkpt lat="48.662089" lon="-1.508823">
        <ele>2.522</ele>
        <time>2026-08-21T16:17:37.999Z</time>
      </trkpt>
      <trkpt lat="48.662079" lon="-1.508819">
        <ele>2.509</ele>
        <time>2026-08-21T16:17:38.999Z</time>
      </trkpt>
      <trkpt lat="48.662063" lon="-1.508815">
        <ele>2.561</ele>
        <time>2026-08-21T16:17:40.999Z</time>
      </trkpt>
      <trkpt lat="48.662052" lon="-1.508814">
        <ele>2.587</ele>
        <time>2026-08-21T16:17:41.999Z</time>
      </trkpt>
      <trkpt lat="48.662039" lon="-1.508811">
        <ele>2.530</ele>
        <time>2026-08-21T16:17:42.999Z</time>
      </trkpt>
      <trkpt lat="48.662030" lon="-1.508812">
        <ele>2.521</ele>
        <time>2026-08-21T16:17:43.999Z</time>
      </trkpt>
      <trkpt lat="48.662016" lon="-1.508806">
        <ele>2.564</ele>
        <time>2026-08-21T16:17:45.999Z</time>
      </trkpt>
      <trkpt lat="48.662006" lon="-1.508799">
        <ele>2.641</ele>
        <time>2026-08-21T16:17:46.999Z</time>
      </trkpt>
      <trkpt lat="48.661996" lon="-1.508795">
        <ele>2.652</ele>
        <time>2026-08-21T16:17:47.999Z</time>
      </trkpt>
      <trkpt lat="48.661986" lon="-1.508790">
        <ele>2.676</ele>
        <time>2026-08-21T16:17:48.999Z</time>
      </trkpt>
      <trkpt lat="48.661969" lon="-1.508777">
        <ele>2.673</ele>
        <time>2026-08-21T16:17:50.999Z</time>
      </trkpt>
      <trkpt lat="48.661959" lon="-1.508771">
        <ele>2.684</ele>
        <time>2026-08-21T16:17:51.999Z</time>
      </trkpt>
      <trkpt lat="48.661945" lon="-1.508761">
        <ele>2.707</ele>
        <time>2026-08-21T16:17:52.999Z</time>
      </trkpt>
      <trkpt lat="48.661933" lon="-1.508749">
        <ele>2.717</ele>
        <time>2026-08-21T16:17:54.999Z</time>
      </trkpt>
      <trkpt lat="48.661923" lon="-1.508740">
        <ele>2.709</ele>
        <time>2026-08-21T16:17:55.999Z</time>
      </trkpt>
      <trkpt lat="48.661910" lon="-1.508728">
        <ele>2.730</ele>
        <time>2026-08-21T16:17:56.999Z</time>
      </trkpt>
      <trkpt lat="48.661901" lon="-1.508718">
        <ele>2.746</ele>
        <time>2026-08-21T16:17:57.999Z</time>
      </trkpt>
      <trkpt lat="48.661888" lon="-1.508707">
        <ele>2.759</ele>
        <time>2026-08-21T16:17:59.999Z</time>
      </trkpt>
      <trkpt lat="48.661875" lon="-1.508685">
        <ele>2.610</ele>
        <time>2026-08-21T16:18:01.999Z</time>
      </trkpt>
      <trkpt lat="48.661866" lon="-1.508678">
        <ele>2.623</ele>
        <time>2026-08-21T16:18:02.999Z</time>
      </trkpt>
      <trkpt lat="48.661853" lon="-1.508671">
        <ele>2.690</ele>
        <time>2026-08-21T16:18:03.999Z</time>
      </trkpt>
      <trkpt lat="48.661845" lon="-1.508662">
        <ele>2.671</ele>
        <time>2026-08-21T16:18:04.999Z</time>
      </trkpt>
      <trkpt lat="48.661838" lon="-1.508652">
        <ele>2.645</ele>
        <time>2026-08-21T16:18:05.999Z</time>
      </trkpt>
      <trkpt lat="48.661823" lon="-1.508634">
        <ele>2.662</ele>
        <time>2026-08-21T16:18:07.999Z</time>
      </trkpt>
      <trkpt lat="48.661815" lon="-1.508624">
        <ele>2.619</ele>
        <time>2026-08-21T16:18:08.999Z</time>
      </trkpt>
      <trkpt lat="48.661806" lon="-1.508614">
        <ele>2.509</ele>
        <time>2026-08-21T16:18:09.999Z</time>
      </trkpt>
      <trkpt lat="48.661797" lon="-1.508605">
        <ele>2.519</ele>
        <time>2026-08-21T16:18:10.999Z</time>
      </trkpt>
      <trkpt lat="48.661785" lon="-1.508586">
        <ele>2.509</ele>
        <time>2026-08-21T16:18:12.999Z</time>
      </trkpt>
      <trkpt lat="48.661775" lon="-1.508572">
        <ele>2.433</ele>
        <time>2026-08-21T16:18:13.999Z</time>
      </trkpt>
      <trkpt lat="48.661764" lon="-1.508559">
        <ele>2.389</ele>
        <time>2026-08-21T16:18:14.999Z</time>
      </trkpt>
      <trkpt lat="48.661757" lon="-1.508551">
        <ele>2.382</ele>
        <time>2026-08-21T16:18:15.999Z</time>
      </trkpt>
      <trkpt lat="48.661747" lon="-1.508545">
        <ele>2.383</ele>
        <time>2026-08-21T16:18:17.999Z</time>
      </trkpt>
      <trkpt lat="48.661737" lon="-1.508543">
        <ele>2.226</ele>
        <time>2026-08-21T16:18:18.999Z</time>
      </trkpt>
      <trkpt lat="48.661721" lon="-1.508528">
        <ele>2.023</ele>
        <time>2026-08-21T16:18:20.999Z</time>
      </trkpt>
      <trkpt lat="48.661716" lon="-1.508516">
        <ele>2.014</ele>
        <time>2026-08-21T16:18:21.999Z</time>
      </trkpt>
      <trkpt lat="48.661705" lon="-1.508495">
        <ele>2.098</ele>
        <time>2026-08-21T16:18:23.999Z</time>
      </trkpt>
      <trkpt lat="48.661697" lon="-1.508482">
        <ele>2.015</ele>
        <time>2026-08-21T16:18:24.999Z</time>
      </trkpt>
      <trkpt lat="48.661690" lon="-1.508473">
        <ele>2.033</ele>
        <time>2026-08-21T16:18:25.999Z</time>
      </trkpt>
      <trkpt lat="48.661681" lon="-1.508464">
        <ele>2.023</ele>
        <time>2026-08-21T16:18:26.999Z</time>
      </trkpt>
      <trkpt lat="48.661667" lon="-1.508450">
        <ele>1.915</ele>
        <time>2026-08-21T16:18:28.999Z</time>
      </trkpt>
      <trkpt lat="48.661658" lon="-1.508440">
        <ele>1.909</ele>
        <time>2026-08-21T16:18:29.999Z</time>
      </trkpt>
      <trkpt lat="48.661647" lon="-1.508432">
        <ele>1.995</ele>
        <time>2026-08-21T16:18:30.999Z</time>
      </trkpt>
      <trkpt lat="48.661640" lon="-1.508424">
        <ele>1.921</ele>
        <time>2026-08-21T16:18:31.999Z</time>
      </trkpt>
      <trkpt lat="48.661630" lon="-1.508404">
        <ele>1.954</ele>
        <time>2026-08-21T16:18:33.999Z</time>
      </trkpt>
      <trkpt lat="48.661622" lon="-1.508393">
        <ele>1.965</ele>
        <time>2026-08-21T16:18:34.999Z</time>
      </trkpt>
      <trkpt lat="48.661611" lon="-1.508383">
        <ele>1.928</ele>
        <time>2026-08-21T16:18:35.999Z</time>
      </trkpt>
      <trkpt lat="48.661599" lon="-1.508374">
        <ele>1.945</ele>
        <time>2026-08-21T16:18:36.999Z</time>
      </trkpt>
      <trkpt lat="48.661588" lon="-1.508361">
        <ele>2.056</ele>
        <time>2026-08-21T16:18:38.999Z</time>
      </trkpt>
      <trkpt lat="48.661571" lon="-1.508349">
        <ele>2.040</ele>
        <time>2026-08-21T16:18:40.999Z</time>
      </trkpt>
      <trkpt lat="48.661559" lon="-1.508342">
        <ele>2.167</ele>
        <time>2026-08-21T16:18:41.999Z</time>
      </trkpt>
      <trkpt lat="48.661548" lon="-1.508335">
        <ele>2.135</ele>
        <time>2026-08-21T16:18:42.999Z</time>
      </trkpt>
      <trkpt lat="48.661537" lon="-1.508335">
        <ele>2.186</ele>
        <time>2026-08-21T16:18:45.999Z</time>
      </trkpt>
      <trkpt lat="48.661528" lon="-1.508337">
        <ele>2.114</ele>
        <time>2026-08-21T16:18:47.999Z</time>
      </trkpt>
      <trkpt lat="48.661518" lon="-1.508337">
        <ele>2.209</ele>
        <time>2026-08-21T16:18:49.999Z</time>
      </trkpt>
      <trkpt lat="48.661503" lon="-1.508328">
        <ele>2.285</ele>
        <time>2026-08-21T16:18:51.999Z</time>
      </trkpt>
      <trkpt lat="48.661488" lon="-1.508321">
        <ele>2.281</ele>
        <time>2026-08-21T16:18:52.999Z</time>
      </trkpt>
      <trkpt lat="48.661480" lon="-1.508315">
        <ele>2.274</ele>
        <time>2026-08-21T16:18:53.999Z</time>
      </trkpt>
      <trkpt lat="48.661470" lon="-1.508304">
        <ele>2.285</ele>
        <time>2026-08-21T16:18:55.999Z</time>
      </trkpt>
      <trkpt lat="48.661453" lon="-1.508292">
        <ele>2.288</ele>
        <time>2026-08-21T16:18:57.999Z</time>
      </trkpt>
      <trkpt lat="48.661440" lon="-1.508277">
        <ele>2.295</ele>
        <time>2026-08-21T16:18:59.999Z</time>
      </trkpt>
      <trkpt lat="48.661426" lon="-1.508264">
        <ele>2.246</ele>
        <time>2026-08-21T16:19:01.999Z</time>
      </trkpt>
      <trkpt lat="48.661416" lon="-1.508258">
        <ele>2.260</ele>
        <time>2026-08-21T16:19:02.999Z</time>
      </trkpt>
      <trkpt lat="48.661402" lon="-1.508246">
        <ele>2.247</ele>
        <time>2026-08-21T16:19:04.999Z</time>
      </trkpt>
      <trkpt lat="48.661398" lon="-1.508234">
        <ele>2.262</ele>
        <time>2026-08-21T16:19:07.999Z</time>
      </trkpt>
      <trkpt lat="48.661386" lon="-1.508226">
        <ele>2.283</ele>
        <time>2026-08-21T16:19:17.999Z</time>
      </trkpt>
      <trkpt lat="48.661377" lon="-1.508220">
        <ele>2.211</ele>
        <time>2026-08-21T16:19:18.999Z</time>
      </trkpt>
      <trkpt lat="48.661362" lon="-1.508213">
        <ele>2.209</ele>
        <time>2026-08-21T16:19:20.999Z</time>
      </trkpt>
      <trkpt lat="48.661351" lon="-1.508202">
        <ele>2.388</ele>
        <time>2026-08-21T16:19:22.999Z</time>
      </trkpt>
      <trkpt lat="48.661342" lon="-1.508201">
        <ele>2.384</ele>
        <time>2026-08-21T16:19:23.999Z</time>
      </trkpt>
      <trkpt lat="48.661332" lon="-1.508197">
        <ele>2.327</ele>
        <time>2026-08-21T16:19:24.999Z</time>
      </trkpt>
      <trkpt lat="48.661316" lon="-1.508183">
        <ele>2.458</ele>
        <time>2026-08-21T16:19:26.999Z</time>
      </trkpt>
      <trkpt lat="48.661308" lon="-1.508174">
        <ele>2.441</ele>
        <time>2026-08-21T16:19:27.999Z</time>
      </trkpt>
      <trkpt lat="48.661299" lon="-1.508168">
        <ele>2.498</ele>
        <time>2026-08-21T16:19:28.999Z</time>
      </trkpt>
      <trkpt lat="48.661287" lon="-1.508159">
        <ele>2.459</ele>
        <time>2026-08-21T16:19:30.999Z</time>
      </trkpt>
      <trkpt lat="48.661277" lon="-1.508154">
        <ele>2.463</ele>
        <time>2026-08-21T16:19:31.999Z</time>
      </trkpt>
      <trkpt lat="48.661267" lon="-1.508152">
        <ele>2.410</ele>
        <time>2026-08-21T16:19:32.999Z</time>
      </trkpt>
      <trkpt lat="48.661251" lon="-1.508146">
        <ele>2.473</ele>
        <time>2026-08-21T16:19:34.999Z</time>
      </trkpt>
      <trkpt lat="48.661242" lon="-1.508143">
        <ele>2.485</ele>
        <time>2026-08-21T16:19:35.999Z</time>
      </trkpt>
      <trkpt lat="48.661232" lon="-1.508138">
        <ele>2.413</ele>
        <time>2026-08-21T16:19:36.999Z</time>
      </trkpt>
      <trkpt lat="48.661223" lon="-1.508128">
        <ele>2.409</ele>
        <time>2026-08-21T16:19:37.999Z</time>
      </trkpt>
      <trkpt lat="48.661213" lon="-1.508124">
        <ele>2.589</ele>
        <time>2026-08-21T16:19:39.999Z</time>
      </trkpt>
      <trkpt lat="48.661199" lon="-1.508113">
        <ele>2.595</ele>
        <time>2026-08-21T16:19:41.999Z</time>
      </trkpt>
      <trkpt lat="48.661190" lon="-1.508109">
        <ele>2.528</ele>
        <time>2026-08-21T16:19:42.999Z</time>
      </trkpt>
      <trkpt lat="48.661181" lon="-1.508102">
        <ele>2.589</ele>
        <time>2026-08-21T16:19:43.999Z</time>
      </trkpt>
      <trkpt lat="48.661171" lon="-1.508094">
        <ele>2.522</ele>
        <time>2026-08-21T16:19:44.999Z</time>
      </trkpt>
      <trkpt lat="48.661160" lon="-1.508091">
        <ele>2.539</ele>
        <time>2026-08-21T16:19:45.999Z</time>
      </trkpt>
      <trkpt lat="48.661149" lon="-1.508093">
        <ele>2.560</ele>
        <time>2026-08-21T16:19:47.999Z</time>
      </trkpt>
      <trkpt lat="48.661135" lon="-1.508088">
        <ele>2.554</ele>
        <time>2026-08-21T16:19:53.999Z</time>
      </trkpt>
      <trkpt lat="48.661124" lon="-1.508086">
        <ele>2.591</ele>
        <time>2026-08-21T16:19:54.999Z</time>
      </trkpt>
      <trkpt lat="48.661109" lon="-1.508080">
        <ele>2.638</ele>
        <time>2026-08-21T16:19:55.999Z</time>
      </trkpt>
      <trkpt lat="48.661098" lon="-1.508078">
        <ele>2.670</ele>
        <time>2026-08-21T16:19:56.999Z</time>
      </trkpt>
      <trkpt lat="48.661083" lon="-1.508079">
        <ele>2.617</ele>
        <time>2026-08-21T16:19:58.999Z</time>
      </trkpt>
      <trkpt lat="48.661072" lon="-1.508079">
        <ele>2.609</ele>
        <time>2026-08-21T16:19:59.999Z</time>
      </trkpt>
      <trkpt lat="48.661059" lon="-1.508081">
        <ele>2.635</ele>
        <time>2026-08-21T16:20:00.999Z</time>
      </trkpt>
      <trkpt lat="48.661048" lon="-1.508080">
        <ele>2.691</ele>
        <time>2026-08-21T16:20:01.999Z</time>
      </trkpt>
      <trkpt lat="48.661033" lon="-1.508075">
        <ele>2.674</ele>
        <time>2026-08-21T16:20:03.999Z</time>
      </trkpt>
      <trkpt lat="48.661020" lon="-1.508071">
        <ele>2.775</ele>
        <time>2026-08-21T16:20:05.999Z</time>
      </trkpt>
      <trkpt lat="48.661008" lon="-1.508071">
        <ele>2.738</ele>
        <time>2026-08-21T16:20:06.999Z</time>
      </trkpt>
      <trkpt lat="48.660992" lon="-1.508071">
        <ele>2.735</ele>
        <time>2026-08-21T16:20:08.999Z</time>
      </trkpt>
      <trkpt lat="48.660972" lon="-1.508071">
        <ele>2.726</ele>
        <time>2026-08-21T16:20:10.999Z</time>
      </trkpt>
      <trkpt lat="48.660963" lon="-1.508070">
        <ele>2.710</ele>
        <time>2026-08-21T16:20:11.999Z</time>
      </trkpt>
      <trkpt lat="48.660955" lon="-1.508068">
        <ele>2.787</ele>
        <time>2026-08-21T16:20:12.999Z</time>
      </trkpt>
      <trkpt lat="48.660946" lon="-1.508060">
        <ele>2.768</ele>
        <time>2026-08-21T16:20:14.999Z</time>
      </trkpt>
      <trkpt lat="48.660929" lon="-1.508057">
        <ele>2.742</ele>
        <time>2026-08-21T16:20:16.999Z</time>
      </trkpt>
      <trkpt lat="48.660918" lon="-1.508054">
        <ele>2.726</ele>
        <time>2026-08-21T16:20:17.999Z</time>
      </trkpt>
      <trkpt lat="48.660908" lon="-1.508053">
        <ele>2.709</ele>
        <time>2026-08-21T16:20:18.999Z</time>
      </trkpt>
      <trkpt lat="48.660899" lon="-1.508048">
        <ele>2.748</ele>
        <time>2026-08-21T16:20:19.999Z</time>
      </trkpt>
      <trkpt lat="48.660883" lon="-1.508049">
        <ele>2.774</ele>
        <time>2026-08-21T16:20:21.999Z</time>
      </trkpt>
      <trkpt lat="48.660864" lon="-1.508050">
        <ele>2.787</ele>
        <time>2026-08-21T16:20:23.999Z</time>
      </trkpt>
      <trkpt lat="48.660853" lon="-1.508053">
        <ele>2.788</ele>
        <time>2026-08-21T16:20:24.999Z</time>
      </trkpt>
      <trkpt lat="48.660836" lon="-1.508050">
        <ele>2.671</ele>
        <time>2026-08-21T16:20:26.999Z</time>
      </trkpt>
      <trkpt lat="48.660818" lon="-1.508052">
        <ele>2.638</ele>
        <time>2026-08-21T16:20:28.999Z</time>
      </trkpt>
      <trkpt lat="48.660808" lon="-1.508055">
        <ele>2.619</ele>
        <time>2026-08-21T16:20:29.999Z</time>
      </trkpt>
      <trkpt lat="48.660796" lon="-1.508056">
        <ele>2.673</ele>
        <time>2026-08-21T16:20:30.999Z</time>
      </trkpt>
      <trkpt lat="48.660785" lon="-1.508051">
        <ele>2.690</ele>
        <time>2026-08-21T16:20:31.999Z</time>
      </trkpt>
      <trkpt lat="48.660773" lon="-1.508048">
        <ele>2.619</ele>
        <time>2026-08-21T16:20:33.999Z</time>
      </trkpt>
      <trkpt lat="48.660759" lon="-1.508046">
        <ele>3.109</ele>
        <time>2026-08-21T16:22:07.999Z</time>
      </trkpt>
      <trkpt lat="48.660749" lon="-1.508042">
        <ele>3.119</ele>
        <time>2026-08-21T16:22:08.999Z</time>
      </trkpt>
      <trkpt lat="48.660739" lon="-1.508039">
        <ele>3.109</ele>
        <time>2026-08-21T16:22:09.999Z</time>
      </trkpt>
      <trkpt lat="48.660727" lon="-1.508034">
        <ele>3.193</ele>
        <time>2026-08-21T16:22:10.999Z</time>
      </trkpt>
      <trkpt lat="48.660717" lon="-1.508031">
        <ele>3.029</ele>
        <time>2026-08-21T16:22:11.999Z</time>
      </trkpt>
      <trkpt lat="48.660708" lon="-1.508031">
        <ele>3.022</ele>
        <time>2026-08-21T16:22:12.999Z</time>
      </trkpt>
      <trkpt lat="48.660696" lon="-1.508029">
        <ele>2.983</ele>
        <time>2026-08-21T16:22:13.999Z</time>
      </trkpt>
      <trkpt lat="48.660682" lon="-1.508028">
        <ele>2.956</ele>
        <time>2026-08-21T16:22:14.999Z</time>
      </trkpt>
      <trkpt lat="48.660670" lon="-1.508024">
        <ele>2.913</ele>
        <time>2026-08-21T16:22:15.999Z</time>
      </trkpt>
      <trkpt lat="48.660661" lon="-1.508018">
        <ele>2.994</ele>
        <time>2026-08-21T16:22:16.999Z</time>
      </trkpt>
      <trkpt lat="48.660650" lon="-1.508011">
        <ele>2.978</ele>
        <time>2026-08-21T16:22:17.999Z</time>
      </trkpt>
      <trkpt lat="48.660636" lon="-1.508008">
        <ele>2.925</ele>
        <time>2026-08-21T16:22:19.999Z</time>
      </trkpt>
      <trkpt lat="48.660627" lon="-1.508004">
        <ele>2.955</ele>
        <time>2026-08-21T16:22:20.999Z</time>
      </trkpt>
      <trkpt lat="48.660610" lon="-1.508001">
        <ele>2.907</ele>
        <time>2026-08-21T16:22:22.999Z</time>
      </trkpt>
      <trkpt lat="48.660601" lon="-1.507996">
        <ele>2.917</ele>
        <time>2026-08-21T16:22:23.999Z</time>
      </trkpt>
      <trkpt lat="48.660587" lon="-1.507999">
        <ele>2.909</ele>
        <time>2026-08-21T16:22:25.999Z</time>
      </trkpt>
      <trkpt lat="48.660575" lon="-1.507997">
        <ele>2.997</ele>
        <time>2026-08-21T16:22:26.999Z</time>
      </trkpt>
      <trkpt lat="48.660558" lon="-1.507991">
        <ele>3.073</ele>
        <time>2026-08-21T16:22:28.999Z</time>
      </trkpt>
      <trkpt lat="48.660548" lon="-1.507990">
        <ele>3.056</ele>
        <time>2026-08-21T16:22:29.999Z</time>
      </trkpt>
      <trkpt lat="48.660537" lon="-1.507991">
        <ele>3.027</ele>
        <time>2026-08-21T16:22:30.999Z</time>
      </trkpt>
      <trkpt lat="48.660526" lon="-1.507994">
        <ele>3.040</ele>
        <time>2026-08-21T16:22:31.999Z</time>
      </trkpt>
      <trkpt lat="48.660516" lon="-1.507991">
        <ele>3.097</ele>
        <time>2026-08-21T16:22:32.999Z</time>
      </trkpt>
      <trkpt lat="48.660506" lon="-1.507989">
        <ele>3.028</ele>
        <time>2026-08-21T16:22:34.999Z</time>
      </trkpt>
      <trkpt lat="48.660496" lon="-1.507991">
        <ele>3.042</ele>
        <time>2026-08-21T16:22:35.999Z</time>
      </trkpt>
      <trkpt lat="48.660486" lon="-1.507993">
        <ele>3.049</ele>
        <time>2026-08-21T16:22:36.999Z</time>
      </trkpt>
      <trkpt lat="48.660474" lon="-1.507988">
        <ele>3.099</ele>
        <time>2026-08-21T16:22:37.999Z</time>
      </trkpt>
      <trkpt lat="48.660465" lon="-1.507987">
        <ele>3.007</ele>
        <time>2026-08-21T16:22:38.999Z</time>
      </trkpt>
      <trkpt lat="48.660456" lon="-1.507988">
        <ele>3.027</ele>
        <time>2026-08-21T16:22:39.999Z</time>
      </trkpt>
      <trkpt lat="48.660445" lon="-1.507991">
        <ele>3.009</ele>
        <time>2026-08-21T16:22:40.999Z</time>
      </trkpt>
      <trkpt lat="48.660431" lon="-1.507991">
        <ele>3.091</ele>
        <time>2026-08-21T16:22:41.999Z</time>
      </trkpt>
      <trkpt lat="48.660418" lon="-1.507992">
        <ele>3.057</ele>
        <time>2026-08-21T16:22:42.999Z</time>
      </trkpt>
      <trkpt lat="48.660408" lon="-1.507992">
        <ele>3.080</ele>
        <time>2026-08-21T16:22:43.999Z</time>
      </trkpt>
      <trkpt lat="48.660389" lon="-1.507995">
        <ele>2.971</ele>
        <time>2026-08-21T16:22:45.999Z</time>
      </trkpt>
      <trkpt lat="48.660374" lon="-1.507995">
        <ele>3.094</ele>
        <time>2026-08-21T16:22:46.999Z</time>
      </trkpt>
      <trkpt lat="48.660363" lon="-1.507992">
        <ele>3.091</ele>
        <time>2026-08-21T16:22:47.999Z</time>
      </trkpt>
      <trkpt lat="48.660352" lon="-1.507986">
        <ele>3.062</ele>
        <time>2026-08-21T16:22:48.999Z</time>
      </trkpt>
      <trkpt lat="48.660335" lon="-1.507985">
        <ele>3.036</ele>
        <time>2026-08-21T16:22:50.999Z</time>
      </trkpt>
      <trkpt lat="48.660324" lon="-1.507987">
        <ele>3.023</ele>
        <time>2026-08-21T16:22:51.999Z</time>
      </trkpt>
      <trkpt lat="48.660312" lon="-1.507990">
        <ele>3.029</ele>
        <time>2026-08-21T16:22:52.999Z</time>
      </trkpt>
      <trkpt lat="48.660301" lon="-1.507989">
        <ele>3.100</ele>
        <time>2026-08-21T16:22:53.999Z</time>
      </trkpt>
      <trkpt lat="48.660283" lon="-1.507990">
        <ele>3.120</ele>
        <time>2026-08-21T16:22:55.999Z</time>
      </trkpt>
      <trkpt lat="48.660272" lon="-1.507992">
        <ele>3.109</ele>
        <time>2026-08-21T16:22:56.999Z</time>
      </trkpt>
      <trkpt lat="48.660261" lon="-1.507994">
        <ele>3.114</ele>
        <time>2026-08-21T16:22:57.999Z</time>
      </trkpt>
      <trkpt lat="48.660252" lon="-1.508000">
        <ele>3.120</ele>
        <time>2026-08-21T16:22:58.999Z</time>
      </trkpt>
      <trkpt lat="48.660243" lon="-1.507999">
        <ele>3.263</ele>
        <time>2026-08-21T16:22:59.999Z</time>
      </trkpt>
      <trkpt lat="48.660226" lon="-1.507998">
        <ele>3.214</ele>
        <time>2026-08-21T16:23:01.999Z</time>
      </trkpt>
      <trkpt lat="48.660215" lon="-1.507997">
        <ele>3.297</ele>
        <time>2026-08-21T16:23:02.999Z</time>
      </trkpt>
      <trkpt lat="48.660202" lon="-1.508000">
        <ele>3.224</ele>
        <time>2026-08-21T16:23:03.999Z</time>
      </trkpt>
      <trkpt lat="48.660192" lon="-1.508000">
        <ele>3.275</ele>
        <time>2026-08-21T16:23:04.999Z</time>
      </trkpt>
      <trkpt lat="48.660183" lon="-1.507996">
        <ele>3.269</ele>
        <time>2026-08-21T16:23:05.999Z</time>
      </trkpt>
      <trkpt lat="48.660165" lon="-1.507992">
        <ele>3.316</ele>
        <time>2026-08-21T16:23:07.999Z</time>
      </trkpt>
      <trkpt lat="48.660155" lon="-1.507991">
        <ele>3.434</ele>
        <time>2026-08-21T16:23:08.999Z</time>
      </trkpt>
      <trkpt lat="48.660143" lon="-1.507994">
        <ele>3.455</ele>
        <time>2026-08-21T16:23:09.999Z</time>
      </trkpt>
      <trkpt lat="48.660131" lon="-1.507995">
        <ele>3.410</ele>
        <time>2026-08-21T16:23:10.999Z</time>
      </trkpt>
      <trkpt lat="48.660119" lon="-1.507994">
        <ele>3.409</ele>
        <time>2026-08-21T16:23:11.999Z</time>
      </trkpt>
      <trkpt lat="48.660104" lon="-1.507994">
        <ele>3.565</ele>
        <time>2026-08-21T16:23:13.999Z</time>
      </trkpt>
      <trkpt lat="48.660083" lon="-1.507992">
        <ele>3.581</ele>
        <time>2026-08-21T16:23:15.999Z</time>
      </trkpt>
      <trkpt lat="48.660070" lon="-1.507989">
        <ele>3.574</ele>
        <time>2026-08-21T16:23:16.999Z</time>
      </trkpt>
      <trkpt lat="48.660060" lon="-1.507987">
        <ele>3.525</ele>
        <time>2026-08-21T16:23:17.999Z</time>
      </trkpt>
      <trkpt lat="48.660051" lon="-1.507987">
        <ele>3.578</ele>
        <time>2026-08-21T16:23:18.999Z</time>
      </trkpt>
      <trkpt lat="48.660041" lon="-1.507988">
        <ele>3.615</ele>
        <time>2026-08-21T16:23:19.999Z</time>
      </trkpt>
      <trkpt lat="48.660030" lon="-1.507988">
        <ele>3.666</ele>
        <time>2026-08-21T16:23:20.999Z</time>
      </trkpt>
      <trkpt lat="48.660021" lon="-1.507986">
        <ele>3.670</ele>
        <time>2026-08-21T16:23:21.999Z</time>
      </trkpt>
      <trkpt lat="48.660011" lon="-1.507988">
        <ele>3.657</ele>
        <time>2026-08-21T16:23:22.999Z</time>
      </trkpt>
      <trkpt lat="48.660002" lon="-1.507992">
        <ele>3.726</ele>
        <time>2026-08-21T16:23:23.999Z</time>
      </trkpt>
      <trkpt lat="48.659990" lon="-1.507993">
        <ele>3.747</ele>
        <time>2026-08-21T16:23:24.999Z</time>
      </trkpt>
      <trkpt lat="48.659978" lon="-1.507992">
        <ele>3.711</ele>
        <time>2026-08-21T16:23:25.999Z</time>
      </trkpt>
      <trkpt lat="48.659966" lon="-1.507993">
        <ele>3.709</ele>
        <time>2026-08-21T16:23:26.999Z</time>
      </trkpt>
      <trkpt lat="48.659954" lon="-1.507995">
        <ele>3.724</ele>
        <time>2026-08-21T16:23:27.999Z</time>
      </trkpt>
      <trkpt lat="48.659942" lon="-1.507993">
        <ele>3.740</ele>
        <time>2026-08-21T16:23:28.999Z</time>
      </trkpt>
      <trkpt lat="48.659928" lon="-1.507998">
        <ele>3.853</ele>
        <time>2026-08-21T16:23:30.999Z</time>
      </trkpt>
      <trkpt lat="48.659908" lon="-1.508004">
        <ele>3.884</ele>
        <time>2026-08-21T16:23:32.999Z</time>
      </trkpt>
      <trkpt lat="48.659897" lon="-1.508001">
        <ele>3.877</ele>
        <time>2026-08-21T16:23:33.999Z</time>
      </trkpt>
      <trkpt lat="48.659887" lon="-1.508002">
        <ele>3.924</ele>
        <time>2026-08-21T16:23:34.999Z</time>
      </trkpt>
      <trkpt lat="48.659875" lon="-1.508003">
        <ele>3.965</ele>
        <time>2026-08-21T16:23:35.999Z</time>
      </trkpt>
      <trkpt lat="48.659862" lon="-1.508006">
        <ele>3.959</ele>
        <time>2026-08-21T16:23:36.999Z</time>
      </trkpt>
      <trkpt lat="48.659852" lon="-1.508011">
        <ele>4.016</ele>
        <time>2026-08-21T16:23:37.999Z</time>
      </trkpt>
      <trkpt lat="48.659841" lon="-1.508014">
        <ele>4.032</ele>
        <time>2026-08-21T16:23:38.999Z</time>
      </trkpt>
      <trkpt lat="48.659827" lon="-1.508006">
        <ele>4.092</ele>
        <time>2026-08-21T16:23:39.999Z</time>
      </trkpt>
      <trkpt lat="48.659808" lon="-1.508014">
        <ele>4.011</ele>
        <time>2026-08-21T16:23:41.999Z</time>
      </trkpt>
      <trkpt lat="48.659791" lon="-1.508014">
        <ele>4.009</ele>
        <time>2026-08-21T16:23:42.999Z</time>
      </trkpt>
      <trkpt lat="48.659778" lon="-1.508012">
        <ele>4.085</ele>
        <time>2026-08-21T16:23:43.999Z</time>
      </trkpt>
      <trkpt lat="48.659767" lon="-1.508012">
        <ele>4.071</ele>
        <time>2026-08-21T16:23:44.999Z</time>
      </trkpt>
      <trkpt lat="48.659758" lon="-1.508017">
        <ele>4.064</ele>
        <time>2026-08-21T16:23:45.999Z</time>
      </trkpt>
      <trkpt lat="48.659749" lon="-1.508024">
        <ele>4.035</ele>
        <time>2026-08-21T16:23:46.999Z</time>
      </trkpt>
      <trkpt lat="48.659738" lon="-1.508029">
        <ele>4.038</ele>
        <time>2026-08-21T16:23:47.999Z</time>
      </trkpt>
      <trkpt lat="48.659724" lon="-1.508028">
        <ele>4.025</ele>
        <time>2026-08-21T16:23:48.999Z</time>
      </trkpt>
      <trkpt lat="48.659714" lon="-1.508025">
        <ele>4.196</ele>
        <time>2026-08-21T16:23:49.999Z</time>
      </trkpt>
      <trkpt lat="48.659699" lon="-1.508027">
        <ele>4.150</ele>
        <time>2026-08-21T16:23:51.999Z</time>
      </trkpt>
      <trkpt lat="48.659691" lon="-1.508034">
        <ele>4.137</ele>
        <time>2026-08-21T16:23:52.999Z</time>
      </trkpt>
      <trkpt lat="48.659682" lon="-1.508040">
        <ele>4.123</ele>
        <time>2026-08-21T16:23:53.999Z</time>
      </trkpt>
      <trkpt lat="48.659670" lon="-1.508043">
        <ele>4.183</ele>
        <time>2026-08-21T16:23:54.999Z</time>
      </trkpt>
      <trkpt lat="48.659658" lon="-1.508041">
        <ele>4.111</ele>
        <time>2026-08-21T16:23:55.999Z</time>
      </trkpt>
      <trkpt lat="48.659645" lon="-1.508039">
        <ele>4.109</ele>
        <time>2026-08-21T16:23:56.999Z</time>
      </trkpt>
      <trkpt lat="48.659635" lon="-1.508041">
        <ele>4.134</ele>
        <time>2026-08-21T16:23:57.999Z</time>
      </trkpt>
      <trkpt lat="48.659626" lon="-1.508042">
        <ele>4.150</ele>
        <time>2026-08-21T16:23:58.999Z</time>
      </trkpt>
      <trkpt lat="48.659614" lon="-1.508044">
        <ele>4.143</ele>
        <time>2026-08-21T16:23:59.999Z</time>
      </trkpt>
      <trkpt lat="48.659603" lon="-1.508046">
        <ele>4.154</ele>
        <time>2026-08-21T16:24:00.999Z</time>
      </trkpt>
      <trkpt lat="48.659592" lon="-1.508043">
        <ele>4.167</ele>
        <time>2026-08-21T16:24:01.999Z</time>
      </trkpt>
      <trkpt lat="48.659581" lon="-1.508043">
        <ele>4.114</ele>
        <time>2026-08-21T16:24:02.999Z</time>
      </trkpt>
      <trkpt lat="48.659572" lon="-1.508041">
        <ele>4.155</ele>
        <time>2026-08-21T16:24:03.999Z</time>
      </trkpt>
      <trkpt lat="48.659563" lon="-1.508042">
        <ele>4.199</ele>
        <time>2026-08-21T16:24:04.999Z</time>
      </trkpt>
      <trkpt lat="48.659550" lon="-1.508043">
        <ele>4.136</ele>
        <time>2026-08-21T16:24:05.999Z</time>
      </trkpt>
      <trkpt lat="48.659537" lon="-1.508044">
        <ele>4.037</ele>
        <time>2026-08-21T16:24:06.999Z</time>
      </trkpt>
      <trkpt lat="48.659523" lon="-1.508042">
        <ele>4.049</ele>
        <time>2026-08-21T16:24:07.999Z</time>
      </trkpt>
      <trkpt lat="48.659514" lon="-1.508039">
        <ele>4.013</ele>
        <time>2026-08-21T16:24:08.999Z</time>
      </trkpt>
      <trkpt lat="48.659504" lon="-1.508036">
        <ele>4.009</ele>
        <time>2026-08-21T16:24:09.999Z</time>
      </trkpt>
      <trkpt lat="48.659484" lon="-1.508039">
        <ele>4.065</ele>
        <time>2026-08-21T16:24:11.999Z</time>
      </trkpt>
      <trkpt lat="48.659471" lon="-1.508044">
        <ele>4.071</ele>
        <time>2026-08-21T16:24:12.999Z</time>
      </trkpt>
      <trkpt lat="48.659459" lon="-1.508043">
        <ele>4.014</ele>
        <time>2026-08-21T16:24:13.999Z</time>
      </trkpt>
      <trkpt lat="48.659449" lon="-1.508040">
        <ele>4.015</ele>
        <time>2026-08-21T16:24:14.999Z</time>
      </trkpt>
      <trkpt lat="48.659432" lon="-1.508043">
        <ele>4.098</ele>
        <time>2026-08-21T16:24:16.999Z</time>
      </trkpt>
      <trkpt lat="48.659421" lon="-1.508047">
        <ele>4.095</ele>
        <time>2026-08-21T16:24:17.999Z</time>
      </trkpt>
      <trkpt lat="48.659408" lon="-1.508047">
        <ele>4.076</ele>
        <time>2026-08-21T16:24:18.999Z</time>
      </trkpt>
      <trkpt lat="48.659397" lon="-1.508042">
        <ele>4.030</ele>
        <time>2026-08-21T16:24:19.999Z</time>
      </trkpt>
      <trkpt lat="48.659378" lon="-1.508044">
        <ele>4.027</ele>
        <time>2026-08-21T16:24:21.999Z</time>
      </trkpt>
      <trkpt lat="48.659367" lon="-1.508046">
        <ele>4.039</ele>
        <time>2026-08-21T16:24:22.999Z</time>
      </trkpt>
      <trkpt lat="48.659353" lon="-1.508047">
        <ele>3.901</ele>
        <time>2026-08-21T16:24:23.999Z</time>
      </trkpt>
      <trkpt lat="48.659334" lon="-1.508045">
        <ele>3.921</ele>
        <time>2026-08-21T16:24:24.999Z</time>
      </trkpt>
      <trkpt lat="48.659317" lon="-1.508046">
        <ele>4.009</ele>
        <time>2026-08-21T16:24:25.999Z</time>
      </trkpt>
      <trkpt lat="48.659306" lon="-1.508045">
        <ele>4.025</ele>
        <time>2026-08-21T16:24:26.999Z</time>
      </trkpt>
      <trkpt lat="48.659291" lon="-1.508050">
        <ele>4.051</ele>
        <time>2026-08-21T16:24:28.999Z</time>
      </trkpt>
      <trkpt lat="48.659270" lon="-1.508055">
        <ele>4.074</ele>
        <time>2026-08-21T16:24:30.999Z</time>
      </trkpt>
      <trkpt lat="48.659256" lon="-1.508058">
        <ele>4.045</ele>
        <time>2026-08-21T16:24:31.999Z</time>
      </trkpt>
      <trkpt lat="48.659243" lon="-1.508057">
        <ele>4.098</ele>
        <time>2026-08-21T16:24:32.999Z</time>
      </trkpt>
      <trkpt lat="48.659233" lon="-1.508059">
        <ele>4.035</ele>
        <time>2026-08-21T16:24:33.999Z</time>
      </trkpt>
      <trkpt lat="48.659222" lon="-1.508059">
        <ele>4.046</ele>
        <time>2026-08-21T16:24:34.999Z</time>
      </trkpt>
      <trkpt lat="48.659213" lon="-1.508058">
        <ele>3.910</ele>
        <time>2026-08-21T16:24:35.999Z</time>
      </trkpt>
      <trkpt lat="48.659201" lon="-1.508059">
        <ele>3.937</ele>
        <time>2026-08-21T16:24:36.999Z</time>
      </trkpt>
      <trkpt lat="48.659189" lon="-1.508064">
        <ele>3.943</ele>
        <time>2026-08-21T16:24:37.999Z</time>
      </trkpt>
      <trkpt lat="48.659176" lon="-1.508065">
        <ele>3.964</ele>
        <time>2026-08-21T16:24:38.999Z</time>
      </trkpt>
      <trkpt lat="48.659166" lon="-1.508065">
        <ele>3.910</ele>
        <time>2026-08-21T16:24:39.999Z</time>
      </trkpt>
      <trkpt lat="48.659148" lon="-1.508064">
        <ele>3.909</ele>
        <time>2026-08-21T16:24:41.999Z</time>
      </trkpt>
      <trkpt lat="48.659137" lon="-1.508064">
        <ele>3.926</ele>
        <time>2026-08-21T16:24:42.999Z</time>
      </trkpt>
      <trkpt lat="48.659124" lon="-1.508063">
        <ele>3.942</ele>
        <time>2026-08-21T16:24:43.999Z</time>
      </trkpt>
      <trkpt lat="48.659111" lon="-1.508062">
        <ele>3.925</ele>
        <time>2026-08-21T16:24:44.999Z</time>
      </trkpt>
      <trkpt lat="48.659099" lon="-1.508060">
        <ele>3.996</ele>
        <time>2026-08-21T16:24:45.999Z</time>
      </trkpt>
      <trkpt lat="48.659090" lon="-1.508060">
        <ele>3.989</ele>
        <time>2026-08-21T16:24:46.999Z</time>
      </trkpt>
      <trkpt lat="48.659080" lon="-1.508060">
        <ele>3.976</ele>
        <time>2026-08-21T16:24:47.999Z</time>
      </trkpt>
      <trkpt lat="48.659069" lon="-1.508061">
        <ele>3.937</ele>
        <time>2026-08-21T16:24:48.999Z</time>
      </trkpt>
      <trkpt lat="48.659058" lon="-1.508065">
        <ele>3.941</ele>
        <time>2026-08-21T16:24:49.999Z</time>
      </trkpt>
      <trkpt lat="48.659046" lon="-1.508066">
        <ele>3.998</ele>
        <time>2026-08-21T16:24:50.999Z</time>
      </trkpt>
      <trkpt lat="48.659034" lon="-1.508065">
        <ele>3.943</ele>
        <time>2026-08-21T16:24:51.999Z</time>
      </trkpt>
      <trkpt lat="48.659024" lon="-1.508059">
        <ele>3.964</ele>
        <time>2026-08-21T16:24:52.999Z</time>
      </trkpt>
      <trkpt lat="48.659013" lon="-1.508057">
        <ele>3.910</ele>
        <time>2026-08-21T16:24:53.999Z</time>
      </trkpt>
      <trkpt lat="48.658995" lon="-1.508059">
        <ele>3.909</ele>
        <time>2026-08-21T16:24:55.999Z</time>
      </trkpt>
      <trkpt lat="48.658980" lon="-1.508058">
        <ele>3.976</ele>
        <time>2026-08-21T16:24:56.999Z</time>
      </trkpt>
      <trkpt lat="48.658966" lon="-1.508058">
        <ele>3.922</ele>
        <time>2026-08-21T16:24:57.999Z</time>
      </trkpt>
      <trkpt lat="48.658957" lon="-1.508058">
        <ele>3.925</ele>
        <time>2026-08-21T16:24:58.999Z</time>
      </trkpt>
      <trkpt lat="48.658946" lon="-1.508056">
        <ele>3.966</ele>
        <time>2026-08-21T16:24:59.999Z</time>
      </trkpt>
      <trkpt lat="48.658936" lon="-1.508055">
        <ele>3.999</ele>
        <time>2026-08-21T16:25:00.999Z</time>
      </trkpt>
      <trkpt lat="48.658925" lon="-1.508056">
        <ele>3.936</ele>
        <time>2026-08-21T16:25:01.999Z</time>
      </trkpt>
      <trkpt lat="48.658914" lon="-1.508060">
        <ele>3.947</ele>
        <time>2026-08-21T16:25:02.999Z</time>
      </trkpt>
      <trkpt lat="48.658905" lon="-1.508060">
        <ele>3.981</ele>
        <time>2026-08-21T16:25:03.999Z</time>
      </trkpt>
      <trkpt lat="48.658893" lon="-1.508057">
        <ele>3.948</ele>
        <time>2026-08-21T16:25:05.999Z</time>
      </trkpt>
      <trkpt lat="48.658875" lon="-1.508060">
        <ele>3.969</ele>
        <time>2026-08-21T16:25:07.999Z</time>
      </trkpt>
      <trkpt lat="48.658863" lon="-1.508063">
        <ele>3.804</ele>
        <time>2026-08-21T16:25:08.999Z</time>
      </trkpt>
      <trkpt lat="48.658851" lon="-1.508065">
        <ele>3.824</ele>
        <time>2026-08-21T16:25:09.999Z</time>
      </trkpt>
      <trkpt lat="48.658841" lon="-1.508067">
        <ele>3.809</ele>
        <time>2026-08-21T16:25:10.999Z</time>
      </trkpt>
      <trkpt lat="48.658829" lon="-1.508071">
        <ele>3.858</ele>
        <time>2026-08-21T16:25:11.999Z</time>
      </trkpt>
      <trkpt lat="48.658811" lon="-1.508071">
        <ele>3.864</ele>
        <time>2026-08-21T16:25:13.999Z</time>
      </trkpt>
      <trkpt lat="48.658798" lon="-1.508072">
        <ele>3.887</ele>
        <time>2026-08-21T16:25:14.999Z</time>
      </trkpt>
      <trkpt lat="48.658786" lon="-1.508072">
        <ele>3.928</ele>
        <time>2026-08-21T16:25:15.999Z</time>
      </trkpt>
      <trkpt lat="48.658777" lon="-1.508071">
        <ele>3.931</ele>
        <time>2026-08-21T16:25:16.999Z</time>
      </trkpt>
      <trkpt lat="48.658767" lon="-1.508069">
        <ele>3.988</ele>
        <time>2026-08-21T16:25:17.999Z</time>
      </trkpt>
      <trkpt lat="48.658746" lon="-1.508066">
        <ele>3.999</ele>
        <time>2026-08-21T16:25:19.999Z</time>
      </trkpt>
      <trkpt lat="48.658732" lon="-1.508069">
        <ele>3.913</ele>
        <time>2026-08-21T16:25:20.999Z</time>
      </trkpt>
      <trkpt lat="48.658721" lon="-1.508069">
        <ele>4.060</ele>
        <time>2026-08-21T16:25:21.999Z</time>
      </trkpt>
      <trkpt lat="48.658712" lon="-1.508075">
        <ele>4.074</ele>
        <time>2026-08-21T16:25:22.999Z</time>
      </trkpt>
      <trkpt lat="48.658700" lon="-1.508072">
        <ele>4.156</ele>
        <time>2026-08-21T16:25:23.999Z</time>
      </trkpt>
      <trkpt lat="48.658691" lon="-1.508075">
        <ele>4.121</ele>
        <time>2026-08-21T16:25:24.999Z</time>
      </trkpt>
      <trkpt lat="48.658680" lon="-1.508076">
        <ele>4.109</ele>
        <time>2026-08-21T16:25:25.999Z</time>
      </trkpt>
      <trkpt lat="48.658671" lon="-1.508078">
        <ele>4.189</ele>
        <time>2026-08-21T16:25:26.999Z</time>
      </trkpt>
      <trkpt lat="48.658661" lon="-1.508080">
        <ele>4.145</ele>
        <time>2026-08-21T16:25:27.999Z</time>
      </trkpt>
      <trkpt lat="48.658650" lon="-1.508078">
        <ele>4.118</ele>
        <time>2026-08-21T16:25:28.999Z</time>
      </trkpt>
      <trkpt lat="48.658638" lon="-1.508080">
        <ele>4.169</ele>
        <time>2026-08-21T16:25:29.999Z</time>
      </trkpt>
      <trkpt lat="48.658627" lon="-1.508084">
        <ele>4.122</ele>
        <time>2026-08-21T16:25:30.999Z</time>
      </trkpt>
      <trkpt lat="48.658610" lon="-1.508079">
        <ele>4.149</ele>
        <time>2026-08-21T16:25:32.999Z</time>
      </trkpt>
      <trkpt lat="48.658600" lon="-1.508080">
        <ele>4.240</ele>
        <time>2026-08-21T16:25:33.999Z</time>
      </trkpt>
      <trkpt lat="48.658589" lon="-1.508081">
        <ele>4.254</ele>
        <time>2026-08-21T16:25:34.999Z</time>
      </trkpt>
      <trkpt lat="48.658578" lon="-1.508080">
        <ele>4.281</ele>
        <time>2026-08-21T16:25:35.999Z</time>
      </trkpt>
      <trkpt lat="48.658562" lon="-1.508076">
        <ele>4.294</ele>
        <time>2026-08-21T16:25:37.999Z</time>
      </trkpt>
      <trkpt lat="48.658553" lon="-1.508077">
        <ele>4.257</ele>
        <time>2026-08-21T16:25:38.999Z</time>
      </trkpt>
      <trkpt lat="48.658544" lon="-1.508082">
        <ele>4.222</ele>
        <time>2026-08-21T16:25:39.999Z</time>
      </trkpt>
      <trkpt lat="48.658532" lon="-1.508088">
        <ele>4.209</ele>
        <time>2026-08-21T16:25:40.999Z</time>
      </trkpt>
      <trkpt lat="48.658523" lon="-1.508089">
        <ele>4.211</ele>
        <time>2026-08-21T16:25:41.999Z</time>
      </trkpt>
      <trkpt lat="48.658513" lon="-1.508089">
        <ele>4.297</ele>
        <time>2026-08-21T16:25:42.999Z</time>
      </trkpt>
      <trkpt lat="48.658505" lon="-1.508094">
        <ele>4.250</ele>
        <time>2026-08-21T16:25:43.999Z</time>
      </trkpt>
      <trkpt lat="48.658485" lon="-1.508100">
        <ele>4.261</ele>
        <time>2026-08-21T16:25:45.999Z</time>
      </trkpt>
      <trkpt lat="48.658475" lon="-1.508099">
        <ele>4.224</ele>
        <time>2026-08-21T16:25:46.999Z</time>
      </trkpt>
      <trkpt lat="48.658464" lon="-1.508094">
        <ele>4.161</ele>
        <time>2026-08-21T16:25:47.999Z</time>
      </trkpt>
      <trkpt lat="48.658455" lon="-1.508095">
        <ele>4.132</ele>
        <time>2026-08-21T16:25:48.999Z</time>
      </trkpt>
      <trkpt lat="48.658444" lon="-1.508099">
        <ele>4.146</ele>
        <time>2026-08-21T16:25:49.999Z</time>
      </trkpt>
      <trkpt lat="48.658431" lon="-1.508102">
        <ele>4.133</ele>
        <time>2026-08-21T16:25:50.999Z</time>
      </trkpt>
      <trkpt lat="48.658422" lon="-1.508102">
        <ele>4.131</ele>
        <time>2026-08-21T16:25:51.999Z</time>
      </trkpt>
      <trkpt lat="48.658410" lon="-1.508098">
        <ele>4.161</ele>
        <time>2026-08-21T16:25:52.999Z</time>
      </trkpt>
      <trkpt lat="48.658398" lon="-1.508098">
        <ele>4.107</ele>
        <time>2026-08-21T16:25:53.999Z</time>
      </trkpt>
      <trkpt lat="48.658386" lon="-1.508098">
        <ele>4.009</ele>
        <time>2026-08-21T16:25:54.999Z</time>
      </trkpt>
      <trkpt lat="48.658375" lon="-1.508099">
        <ele>3.945</ele>
        <time>2026-08-21T16:25:55.999Z</time>
      </trkpt>
      <trkpt lat="48.658365" lon="-1.508101">
        <ele>3.851</ele>
        <time>2026-08-21T16:25:56.999Z</time>
      </trkpt>
      <trkpt lat="48.658355" lon="-1.508101">
        <ele>3.724</ele>
        <time>2026-08-21T16:25:57.999Z</time>
      </trkpt>
      <trkpt lat="48.658345" lon="-1.508101">
        <ele>3.765</ele>
        <time>2026-08-21T16:25:58.999Z</time>
      </trkpt>
      <trkpt lat="48.658334" lon="-1.508098">
        <ele>3.738</ele>
        <time>2026-08-21T16:25:59.999Z</time>
      </trkpt>
      <trkpt lat="48.658323" lon="-1.508098">
        <ele>3.715</ele>
        <time>2026-08-21T16:26:00.999Z</time>
      </trkpt>
      <trkpt lat="48.658314" lon="-1.508101">
        <ele>3.616</ele>
        <time>2026-08-21T16:26:01.999Z</time>
      </trkpt>
      <trkpt lat="48.658304" lon="-1.508100">
        <ele>3.620</ele>
        <time>2026-08-21T16:26:02.999Z</time>
      </trkpt>
      <trkpt lat="48.658295" lon="-1.508103">
        <ele>3.687</ele>
        <time>2026-08-21T16:26:03.999Z</time>
      </trkpt>
      <trkpt lat="48.658282" lon="-1.508107">
        <ele>3.659</ele>
        <time>2026-08-21T16:26:04.999Z</time>
      </trkpt>
      <trkpt lat="48.658272" lon="-1.508108">
        <ele>3.503</ele>
        <time>2026-08-21T16:26:05.999Z</time>
      </trkpt>
      <trkpt lat="48.658255" lon="-1.508113">
        <ele>3.523</ele>
        <time>2026-08-21T16:26:07.999Z</time>
      </trkpt>
      <trkpt lat="48.658243" lon="-1.508114">
        <ele>3.509</ele>
        <time>2026-08-21T16:26:08.999Z</time>
      </trkpt>
      <trkpt lat="48.658230" lon="-1.508114">
        <ele>3.527</ele>
        <time>2026-08-21T16:26:09.999Z</time>
      </trkpt>
      <trkpt lat="48.658216" lon="-1.508114">
        <ele>3.543</ele>
        <time>2026-08-21T16:26:10.999Z</time>
      </trkpt>
      <trkpt lat="48.658204" lon="-1.508111">
        <ele>3.566</ele>
        <time>2026-08-21T16:26:11.999Z</time>
      </trkpt>
      <trkpt lat="48.658195" lon="-1.508112">
        <ele>3.567</ele>
        <time>2026-08-21T16:26:12.999Z</time>
      </trkpt>
      <trkpt lat="48.658184" lon="-1.508118">
        <ele>3.590</ele>
        <time>2026-08-21T16:26:13.999Z</time>
      </trkpt>
      <trkpt lat="48.658173" lon="-1.508123">
        <ele>3.567</ele>
        <time>2026-08-21T16:26:14.999Z</time>
      </trkpt>
      <trkpt lat="48.658163" lon="-1.508130">
        <ele>3.528</ele>
        <time>2026-08-21T16:26:15.999Z</time>
      </trkpt>
      <trkpt lat="48.658152" lon="-1.508134">
        <ele>3.572</ele>
        <time>2026-08-21T16:26:16.999Z</time>
      </trkpt>
      <trkpt lat="48.658136" lon="-1.508139">
        <ele>3.429</ele>
        <time>2026-08-21T16:26:18.999Z</time>
      </trkpt>
      <trkpt lat="48.658126" lon="-1.508141">
        <ele>3.464</ele>
        <time>2026-08-21T16:26:19.999Z</time>
      </trkpt>
      <trkpt lat="48.658113" lon="-1.508143">
        <ele>3.406</ele>
        <time>2026-08-21T16:26:20.999Z</time>
      </trkpt>
      <trkpt lat="48.658104" lon="-1.508142">
        <ele>3.416</ele>
        <time>2026-08-21T16:26:21.999Z</time>
      </trkpt>
      <trkpt lat="48.658093" lon="-1.508144">
        <ele>3.409</ele>
        <time>2026-08-21T16:26:22.999Z</time>
      </trkpt>
      <trkpt lat="48.658081" lon="-1.508142">
        <ele>3.418</ele>
        <time>2026-08-21T16:26:23.999Z</time>
      </trkpt>
      <trkpt lat="48.658068" lon="-1.508139">
        <ele>3.554</ele>
        <time>2026-08-21T16:26:24.999Z</time>
      </trkpt>
      <trkpt lat="48.658059" lon="-1.508141">
        <ele>3.537</ele>
        <time>2026-08-21T16:26:25.999Z</time>
      </trkpt>
      <trkpt lat="48.658048" lon="-1.508142">
        <ele>3.598</ele>
        <time>2026-08-21T16:26:26.999Z</time>
      </trkpt>
      <trkpt lat="48.658037" lon="-1.508146">
        <ele>3.571</ele>
        <time>2026-08-21T16:26:27.999Z</time>
      </trkpt>
      <trkpt lat="48.658024" lon="-1.508153">
        <ele>3.538</ele>
        <time>2026-08-21T16:26:28.999Z</time>
      </trkpt>
      <trkpt lat="48.658015" lon="-1.508156">
        <ele>3.579</ele>
        <time>2026-08-21T16:26:29.999Z</time>
      </trkpt>
      <trkpt lat="48.658002" lon="-1.508158">
        <ele>3.533</ele>
        <time>2026-08-21T16:26:31.999Z</time>
      </trkpt>
      <trkpt lat="48.657988" lon="-1.508159">
        <ele>3.570</ele>
        <time>2026-08-21T16:26:33.999Z</time>
      </trkpt>
      <trkpt lat="48.657978" lon="-1.508159">
        <ele>3.658</ele>
        <time>2026-08-21T16:26:36.999Z</time>
      </trkpt>
      <trkpt lat="48.657968" lon="-1.508151">
        <ele>3.552</ele>
        <time>2026-08-21T16:26:41.999Z</time>
      </trkpt>
      <trkpt lat="48.657956" lon="-1.508152">
        <ele>3.517</ele>
        <time>2026-08-21T16:26:42.999Z</time>
      </trkpt>
      <trkpt lat="48.657941" lon="-1.508157">
        <ele>3.509</ele>
        <time>2026-08-21T16:26:43.999Z</time>
      </trkpt>
      <trkpt lat="48.657925" lon="-1.508163">
        <ele>3.557</ele>
        <time>2026-08-21T16:26:44.999Z</time>
      </trkpt>
      <trkpt lat="48.657913" lon="-1.508163">
        <ele>3.573</ele>
        <time>2026-08-21T16:26:45.999Z</time>
      </trkpt>
      <trkpt lat="48.657902" lon="-1.508160">
        <ele>3.526</ele>
        <time>2026-08-21T16:26:46.999Z</time>
      </trkpt>
      <trkpt lat="48.657893" lon="-1.508158">
        <ele>3.537</ele>
        <time>2026-08-21T16:26:47.999Z</time>
      </trkpt>
      <trkpt lat="48.657882" lon="-1.508162">
        <ele>3.570</ele>
        <time>2026-08-21T16:26:48.999Z</time>
      </trkpt>
      <trkpt lat="48.657869" lon="-1.508162">
        <ele>3.427</ele>
        <time>2026-08-21T16:26:49.999Z</time>
      </trkpt>
      <trkpt lat="48.657854" lon="-1.508167">
        <ele>3.498</ele>
        <time>2026-08-21T16:26:50.999Z</time>
      </trkpt>
      <trkpt lat="48.657840" lon="-1.508173">
        <ele>3.442</ele>
        <time>2026-08-21T16:26:51.999Z</time>
      </trkpt>
      <trkpt lat="48.657826" lon="-1.508177">
        <ele>3.479</ele>
        <time>2026-08-21T16:26:52.999Z</time>
      </trkpt>
      <trkpt lat="48.657813" lon="-1.508179">
        <ele>3.335</ele>
        <time>2026-08-21T16:26:53.999Z</time>
      </trkpt>
      <trkpt lat="48.657802" lon="-1.508180">
        <ele>3.386</ele>
        <time>2026-08-21T16:26:54.999Z</time>
      </trkpt>
      <trkpt lat="48.657793" lon="-1.508182">
        <ele>3.214</ele>
        <time>2026-08-21T16:26:55.999Z</time>
      </trkpt>
      <trkpt lat="48.657771" lon="-1.508185">
        <ele>3.109</ele>
        <time>2026-08-21T16:26:57.999Z</time>
      </trkpt>
      <trkpt lat="48.657758" lon="-1.508189">
        <ele>2.925</ele>
        <time>2026-08-21T16:26:58.999Z</time>
      </trkpt>
      <trkpt lat="48.657745" lon="-1.508196">
        <ele>2.921</ele>
        <time>2026-08-21T16:26:59.999Z</time>
      </trkpt>
      <trkpt lat="48.657732" lon="-1.508193">
        <ele>2.954</ele>
        <time>2026-08-21T16:27:00.999Z</time>
      </trkpt>
      <trkpt lat="48.657720" lon="-1.508190">
        <ele>2.975</ele>
        <time>2026-08-21T16:27:01.999Z</time>
      </trkpt>
      <trkpt lat="48.657709" lon="-1.508188">
        <ele>2.998</ele>
        <time>2026-08-21T16:27:02.999Z</time>
      </trkpt>
      <trkpt lat="48.657700" lon="-1.508186">
        <ele>2.925</ele>
        <time>2026-08-21T16:27:03.999Z</time>
      </trkpt>
      <trkpt lat="48.657691" lon="-1.508187">
        <ele>2.986</ele>
        <time>2026-08-21T16:27:04.999Z</time>
      </trkpt>
      <trkpt lat="48.657680" lon="-1.508189">
        <ele>2.990</ele>
        <time>2026-08-21T16:27:05.999Z</time>
      </trkpt>
      <trkpt lat="48.657665" lon="-1.508190">
        <ele>2.927</ele>
        <time>2026-08-21T16:27:06.999Z</time>
      </trkpt>
      <trkpt lat="48.657653" lon="-1.508194">
        <ele>2.983</ele>
        <time>2026-08-21T16:27:07.999Z</time>
      </trkpt>
      <trkpt lat="48.657641" lon="-1.508199">
        <ele>2.925</ele>
        <time>2026-08-21T16:27:08.999Z</time>
      </trkpt>
      <trkpt lat="48.657628" lon="-1.508197">
        <ele>2.917</ele>
        <time>2026-08-21T16:27:09.999Z</time>
      </trkpt>
      <trkpt lat="48.657617" lon="-1.508194">
        <ele>2.909</ele>
        <time>2026-08-21T16:27:10.999Z</time>
      </trkpt>
      <trkpt lat="48.657603" lon="-1.508197">
        <ele>2.890</ele>
        <time>2026-08-21T16:27:12.999Z</time>
      </trkpt>
      <trkpt lat="48.657584" lon="-1.508201">
        <ele>2.866</ele>
        <time>2026-08-21T16:27:14.999Z</time>
      </trkpt>
      <trkpt lat="48.657570" lon="-1.508207">
        <ele>2.819</ele>
        <time>2026-08-21T16:27:15.999Z</time>
      </trkpt>
      <trkpt lat="48.657558" lon="-1.508211">
        <ele>2.870</ele>
        <time>2026-08-21T16:27:16.999Z</time>
      </trkpt>
      <trkpt lat="48.657546" lon="-1.508211">
        <ele>2.893</ele>
        <time>2026-08-21T16:27:17.999Z</time>
      </trkpt>
      <trkpt lat="48.657535" lon="-1.508211">
        <ele>2.780</ele>
        <time>2026-08-21T16:27:18.999Z</time>
      </trkpt>
      <trkpt lat="48.657518" lon="-1.508215">
        <ele>2.741</ele>
        <time>2026-08-21T16:27:20.999Z</time>
      </trkpt>
      <trkpt lat="48.657506" lon="-1.508220">
        <ele>2.785</ele>
        <time>2026-08-21T16:27:21.999Z</time>
      </trkpt>
      <trkpt lat="48.657494" lon="-1.508224">
        <ele>2.722</ele>
        <time>2026-08-21T16:27:22.999Z</time>
      </trkpt>
      <trkpt lat="48.657479" lon="-1.508223">
        <ele>2.735</ele>
        <time>2026-08-21T16:27:23.999Z</time>
      </trkpt>
      <trkpt lat="48.657466" lon="-1.508222">
        <ele>2.786</ele>
        <time>2026-08-21T16:27:24.999Z</time>
      </trkpt>
      <trkpt lat="48.657455" lon="-1.508224">
        <ele>2.714</ele>
        <time>2026-08-21T16:27:25.999Z</time>
      </trkpt>
      <trkpt lat="48.657445" lon="-1.508228">
        <ele>2.809</ele>
        <time>2026-08-21T16:27:26.999Z</time>
      </trkpt>
      <trkpt lat="48.657426" lon="-1.508235">
        <ele>2.875</ele>
        <time>2026-08-21T16:27:28.999Z</time>
      </trkpt>
      <trkpt lat="48.657414" lon="-1.508240">
        <ele>2.841</ele>
        <time>2026-08-21T16:27:29.999Z</time>
      </trkpt>
      <trkpt lat="48.657400" lon="-1.508248">
        <ele>2.994</ele>
        <time>2026-08-21T16:27:30.999Z</time>
      </trkpt>
      <trkpt lat="48.657386" lon="-1.508247">
        <ele>2.995</ele>
        <time>2026-08-21T16:27:31.999Z</time>
      </trkpt>
      <trkpt lat="48.657376" lon="-1.508248">
        <ele>2.948</ele>
        <time>2026-08-21T16:27:32.999Z</time>
      </trkpt>
      <trkpt lat="48.657359" lon="-1.508253">
        <ele>2.975</ele>
        <time>2026-08-21T16:27:34.999Z</time>
      </trkpt>
      <trkpt lat="48.657349" lon="-1.508256">
        <ele>2.936</ele>
        <time>2026-08-21T16:27:35.999Z</time>
      </trkpt>
      <trkpt lat="48.657337" lon="-1.508261">
        <ele>2.930</ele>
        <time>2026-08-21T16:27:36.999Z</time>
      </trkpt>
      <trkpt lat="48.657322" lon="-1.508262">
        <ele>2.947</ele>
        <time>2026-08-21T16:27:37.999Z</time>
      </trkpt>
      <trkpt lat="48.657310" lon="-1.508264">
        <ele>2.945</ele>
        <time>2026-08-21T16:27:38.999Z</time>
      </trkpt>
      <trkpt lat="48.657301" lon="-1.508265">
        <ele>2.947</ele>
        <time>2026-08-21T16:27:39.999Z</time>
      </trkpt>
      <trkpt lat="48.657284" lon="-1.508270">
        <ele>2.911</ele>
        <time>2026-08-21T16:27:41.999Z</time>
      </trkpt>
      <trkpt lat="48.657274" lon="-1.508272">
        <ele>2.909</ele>
        <time>2026-08-21T16:27:42.999Z</time>
      </trkpt>
      <trkpt lat="48.657264" lon="-1.508279">
        <ele>2.956</ele>
        <time>2026-08-21T16:27:43.999Z</time>
      </trkpt>
      <trkpt lat="48.657252" lon="-1.508285">
        <ele>2.962</ele>
        <time>2026-08-21T16:27:44.999Z</time>
      </trkpt>
      <trkpt lat="48.657240" lon="-1.508289">
        <ele>2.975</ele>
        <time>2026-08-21T16:27:45.999Z</time>
      </trkpt>
      <trkpt lat="48.657230" lon="-1.508292">
        <ele>3.036</ele>
        <time>2026-08-21T16:27:46.999Z</time>
      </trkpt>
      <trkpt lat="48.657221" lon="-1.508295">
        <ele>3.049</ele>
        <time>2026-08-21T16:27:47.999Z</time>
      </trkpt>
      <trkpt lat="48.657201" lon="-1.508302">
        <ele>3.156</ele>
        <time>2026-08-21T16:27:49.999Z</time>
      </trkpt>
      <trkpt lat="48.657189" lon="-1.508305">
        <ele>3.137</ele>
        <time>2026-08-21T16:27:50.999Z</time>
      </trkpt>
      <trkpt lat="48.657179" lon="-1.508305">
        <ele>3.181</ele>
        <time>2026-08-21T16:27:51.999Z</time>
      </trkpt>
      <trkpt lat="48.657169" lon="-1.508307">
        <ele>3.118</ele>
        <time>2026-08-21T16:27:52.999Z</time>
      </trkpt>
      <trkpt lat="48.657159" lon="-1.508310">
        <ele>3.163</ele>
        <time>2026-08-21T16:27:53.999Z</time>
      </trkpt>
      <trkpt lat="48.657150" lon="-1.508314">
        <ele>3.144</ele>
        <time>2026-08-21T16:27:54.999Z</time>
      </trkpt>
      <trkpt lat="48.657138" lon="-1.508317">
        <ele>3.118</ele>
        <time>2026-08-21T16:27:55.999Z</time>
      </trkpt>
      <trkpt lat="48.657128" lon="-1.508320">
        <ele>3.109</ele>
        <time>2026-08-21T16:27:56.999Z</time>
      </trkpt>
      <trkpt lat="48.657116" lon="-1.508322">
        <ele>3.128</ele>
        <time>2026-08-21T16:27:57.999Z</time>
      </trkpt>
      <trkpt lat="48.657102" lon="-1.508324">
        <ele>3.124</ele>
        <time>2026-08-21T16:27:58.999Z</time>
      </trkpt>
      <trkpt lat="48.657090" lon="-1.508323">
        <ele>3.197</ele>
        <time>2026-08-21T16:27:59.999Z</time>
      </trkpt>
      <trkpt lat="48.657080" lon="-1.508327">
        <ele>3.168</ele>
        <time>2026-08-21T16:28:00.999Z</time>
      </trkpt>
      <trkpt lat="48.657063" lon="-1.508333">
        <ele>3.151</ele>
        <time>2026-08-21T16:28:02.999Z</time>
      </trkpt>
      <trkpt lat="48.657053" lon="-1.508338">
        <ele>3.168</ele>
        <time>2026-08-21T16:28:03.999Z</time>
      </trkpt>
      <trkpt lat="48.657041" lon="-1.508346">
        <ele>3.179</ele>
        <time>2026-08-21T16:28:04.999Z</time>
      </trkpt>
      <trkpt lat="48.657026" lon="-1.508347">
        <ele>3.123</ele>
        <time>2026-08-21T16:28:05.999Z</time>
      </trkpt>
      <trkpt lat="48.657015" lon="-1.508346">
        <ele>3.130</ele>
        <time>2026-08-21T16:28:06.999Z</time>
      </trkpt>
      <trkpt lat="48.657006" lon="-1.508346">
        <ele>3.189</ele>
        <time>2026-08-21T16:28:07.999Z</time>
      </trkpt>
      <trkpt lat="48.656985" lon="-1.508352">
        <ele>3.106</ele>
        <time>2026-08-21T16:28:09.999Z</time>
      </trkpt>
      <trkpt lat="48.656972" lon="-1.508354">
        <ele>3.126</ele>
        <time>2026-08-21T16:28:10.999Z</time>
      </trkpt>
      <trkpt lat="48.656959" lon="-1.508355">
        <ele>3.009</ele>
        <time>2026-08-21T16:28:11.999Z</time>
      </trkpt>
      <trkpt lat="48.656948" lon="-1.508358">
        <ele>3.080</ele>
        <time>2026-08-21T16:28:12.999Z</time>
      </trkpt>
      <trkpt lat="48.656932" lon="-1.508363">
        <ele>3.086</ele>
        <time>2026-08-21T16:28:14.999Z</time>
      </trkpt>
      <trkpt lat="48.656921" lon="-1.508369">
        <ele>3.049</ele>
        <time>2026-08-21T16:28:15.999Z</time>
      </trkpt>
      <trkpt lat="48.656908" lon="-1.508378">
        <ele>2.970</ele>
        <time>2026-08-21T16:28:16.999Z</time>
      </trkpt>
      <trkpt lat="48.656896" lon="-1.508383">
        <ele>2.923</ele>
        <time>2026-08-21T16:28:17.999Z</time>
      </trkpt>
      <trkpt lat="48.656886" lon="-1.508387">
        <ele>2.910</ele>
        <time>2026-08-21T16:28:18.999Z</time>
      </trkpt>
      <trkpt lat="48.656869" lon="-1.508391">
        <ele>2.831</ele>
        <time>2026-08-21T16:28:20.999Z</time>
      </trkpt>
      <trkpt lat="48.656858" lon="-1.508393">
        <ele>2.845</ele>
        <time>2026-08-21T16:28:21.999Z</time>
      </trkpt>
      <trkpt lat="48.656847" lon="-1.508395">
        <ele>2.852</ele>
        <time>2026-08-21T16:28:22.999Z</time>
      </trkpt>
      <trkpt lat="48.656837" lon="-1.508395">
        <ele>2.855</ele>
        <time>2026-08-21T16:28:23.999Z</time>
      </trkpt>
      <trkpt lat="48.656819" lon="-1.508394">
        <ele>2.707</ele>
        <time>2026-08-21T16:28:25.999Z</time>
      </trkpt>
      <trkpt lat="48.656807" lon="-1.508393">
        <ele>2.717</ele>
        <time>2026-08-21T16:28:26.999Z</time>
      </trkpt>
      <trkpt lat="48.656795" lon="-1.508396">
        <ele>2.709</ele>
        <time>2026-08-21T16:28:27.999Z</time>
      </trkpt>
      <trkpt lat="48.656782" lon="-1.508400">
        <ele>2.627</ele>
        <time>2026-08-21T16:28:28.999Z</time>
      </trkpt>
      <trkpt lat="48.656770" lon="-1.508406">
        <ele>2.613</ele>
        <time>2026-08-21T16:28:29.999Z</time>
      </trkpt>
      <trkpt lat="48.656760" lon="-1.508412">
        <ele>2.576</ele>
        <time>2026-08-21T16:28:30.999Z</time>
      </trkpt>
      <trkpt lat="48.656751" lon="-1.508412">
        <ele>2.587</ele>
        <time>2026-08-21T16:28:31.999Z</time>
      </trkpt>
      <trkpt lat="48.656736" lon="-1.508409">
        <ele>2.430</ele>
        <time>2026-08-21T16:28:33.999Z</time>
      </trkpt>
      <trkpt lat="48.656720" lon="-1.508417">
        <ele>2.367</ele>
        <time>2026-08-21T16:28:35.999Z</time>
      </trkpt>
      <trkpt lat="48.656707" lon="-1.508415">
        <ele>2.298</ele>
        <time>2026-08-21T16:28:37.999Z</time>
      </trkpt>
      <trkpt lat="48.656698" lon="-1.508413">
        <ele>2.252</ele>
        <time>2026-08-21T16:28:48.999Z</time>
      </trkpt>
      <trkpt lat="48.656688" lon="-1.508416">
        <ele>2.279</ele>
        <time>2026-08-21T16:28:49.999Z</time>
      </trkpt>
      <trkpt lat="48.656672" lon="-1.508412">
        <ele>2.141</ele>
        <time>2026-08-21T16:28:51.999Z</time>
      </trkpt>
      <trkpt lat="48.656663" lon="-1.508415">
        <ele>2.181</ele>
        <time>2026-08-21T16:28:53.999Z</time>
      </trkpt>
      <trkpt lat="48.656647" lon="-1.508420">
        <ele>2.009</ele>
        <time>2026-08-21T16:28:56.999Z</time>
      </trkpt>
      <trkpt lat="48.656634" lon="-1.508419">
        <ele>1.909</ele>
        <time>2026-08-21T16:28:58.999Z</time>
      </trkpt>
      <trkpt lat="48.656625" lon="-1.508427">
        <ele>1.916</ele>
        <time>2026-08-21T16:29:05.999Z</time>
      </trkpt>
      <trkpt lat="48.656613" lon="-1.508430">
        <ele>1.932</ele>
        <time>2026-08-21T16:29:08.999Z</time>
      </trkpt>
      <trkpt lat="48.656604" lon="-1.508438">
        <ele>1.885</ele>
        <time>2026-08-21T16:29:13.999Z</time>
      </trkpt>
      <trkpt lat="48.656595" lon="-1.508436">
        <ele>1.826</ele>
        <time>2026-08-21T16:29:27.999Z</time>
      </trkpt>
      <trkpt lat="48.656582" lon="-1.508431">
        <ele>0.729</ele>
        <time>2026-08-21T16:30:01.999Z</time>
      </trkpt>
      <trkpt lat="48.656568" lon="-1.508439">
        <ele>0.376</ele>
        <time>2026-08-21T16:30:35.999Z</time>
      </trkpt>
      <trkpt lat="48.656559" lon="-1.508440">
        <ele>0.317</ele>
        <time>2026-08-21T16:30:36.999Z</time>
      </trkpt>
      <trkpt lat="48.656548" lon="-1.508442">
        <ele>0.391</ele>
        <time>2026-08-21T16:30:37.999Z</time>
      </trkpt>
      <trkpt lat="48.656536" lon="-1.508445">
        <ele>0.398</ele>
        <time>2026-08-21T16:30:38.999Z</time>
      </trkpt>
      <trkpt lat="48.656526" lon="-1.508445">
        <ele>0.384</ele>
        <time>2026-08-21T16:30:39.999Z</time>
      </trkpt>
      <trkpt lat="48.656515" lon="-1.508445">
        <ele>0.207</ele>
        <time>2026-08-21T16:30:40.999Z</time>
      </trkpt>
      <trkpt lat="48.656503" lon="-1.508447">
        <ele>0.117</ele>
        <time>2026-08-21T16:30:41.999Z</time>
      </trkpt>
      <trkpt lat="48.656492" lon="-1.508447">
        <ele>0.109</ele>
        <time>2026-08-21T16:30:42.999Z</time>
      </trkpt>
      <trkpt lat="48.656482" lon="-1.508450">
        <ele>0.150</ele>
        <time>2026-08-21T16:30:43.999Z</time>
      </trkpt>
      <trkpt lat="48.656464" lon="-1.508455">
        <ele>0.156</ele>
        <time>2026-08-21T16:30:45.999Z</time>
      </trkpt>
      <trkpt lat="48.656453" lon="-1.508461">
        <ele>0.199</ele>
        <time>2026-08-21T16:30:46.999Z</time>
      </trkpt>
      <trkpt lat="48.656443" lon="-1.508462">
        <ele>0.240</ele>
        <time>2026-08-21T16:30:47.999Z</time>
      </trkpt>
      <trkpt lat="48.656433" lon="-1.508461">
        <ele>0.323</ele>
        <time>2026-08-21T16:30:48.999Z</time>
      </trkpt>
      <trkpt lat="48.656416" lon="-1.508464">
        <ele>0.390</ele>
        <time>2026-08-21T16:30:50.999Z</time>
      </trkpt>
      <trkpt lat="48.656405" lon="-1.508467">
        <ele>0.341</ele>
        <time>2026-08-21T16:30:51.999Z</time>
      </trkpt>
      <trkpt lat="48.656395" lon="-1.508468">
        <ele>0.345</ele>
        <time>2026-08-21T16:30:52.999Z</time>
      </trkpt>
      <trkpt lat="48.656381" lon="-1.508472">
        <ele>0.392</ele>
        <time>2026-08-21T16:30:54.999Z</time>
      </trkpt>
      <trkpt lat="48.656372" lon="-1.508476">
        <ele>0.374</ele>
        <time>2026-08-21T16:30:55.999Z</time>
      </trkpt>
      <trkpt lat="48.656358" lon="-1.508481">
        <ele>0.356</ele>
        <time>2026-08-21T16:30:56.999Z</time>
      </trkpt>
      <trkpt lat="48.656345" lon="-1.508479">
        <ele>0.321</ele>
        <time>2026-08-21T16:30:57.999Z</time>
      </trkpt>
      <trkpt lat="48.656335" lon="-1.508476">
        <ele>0.309</ele>
        <time>2026-08-21T16:30:58.999Z</time>
      </trkpt>
      <trkpt lat="48.656325" lon="-1.508475">
        <ele>0.329</ele>
        <time>2026-08-21T16:30:59.999Z</time>
      </trkpt>
      <trkpt lat="48.656316" lon="-1.508474">
        <ele>0.495</ele>
        <time>2026-08-21T16:31:00.999Z</time>
      </trkpt>
      <trkpt lat="48.656300" lon="-1.508474">
        <ele>0.438</ele>
        <time>2026-08-21T16:31:02.999Z</time>
      </trkpt>
      <trkpt lat="48.656280" lon="-1.508477">
        <ele>0.449</ele>
        <time>2026-08-21T16:31:04.999Z</time>
      </trkpt>
      <trkpt lat="48.656269" lon="-1.508473">
        <ele>0.462</ele>
        <time>2026-08-21T16:31:05.999Z</time>
      </trkpt>
      <trkpt lat="48.656260" lon="-1.508472">
        <ele>0.459</ele>
        <time>2026-08-21T16:31:06.999Z</time>
      </trkpt>
      <trkpt lat="48.656249" lon="-1.508475">
        <ele>0.420</ele>
        <time>2026-08-21T16:31:07.999Z</time>
      </trkpt>
      <trkpt lat="48.656239" lon="-1.508477">
        <ele>0.454</ele>
        <time>2026-08-21T16:31:08.999Z</time>
      </trkpt>
      <trkpt lat="48.656224" lon="-1.508479">
        <ele>0.441</ele>
        <time>2026-08-21T16:31:10.999Z</time>
      </trkpt>
      <trkpt lat="48.656211" lon="-1.508480">
        <ele>0.479</ele>
        <time>2026-08-21T16:31:12.999Z</time>
      </trkpt>
      <trkpt lat="48.656198" lon="-1.508479">
        <ele>0.405</ele>
        <time>2026-08-21T16:31:14.999Z</time>
      </trkpt>
      <trkpt lat="48.656188" lon="-1.508475">
        <ele>0.425</ele>
        <time>2026-08-21T16:31:16.999Z</time>
      </trkpt>
      <trkpt lat="48.656179" lon="-1.508475">
        <ele>0.409</ele>
        <time>2026-08-21T16:31:17.999Z</time>
      </trkpt>
      <trkpt lat="48.656167" lon="-1.508472">
        <ele>0.499</ele>
        <time>2026-08-21T16:31:18.999Z</time>
      </trkpt>
      <trkpt lat="48.656156" lon="-1.508468">
        <ele>0.475</ele>
        <time>2026-08-21T16:31:19.999Z</time>
      </trkpt>
      <trkpt lat="48.656140" lon="-1.508461">
        <ele>0.428</ele>
        <time>2026-08-21T16:31:21.999Z</time>
      </trkpt>
      <trkpt lat="48.656124" lon="-1.508456">
        <ele>0.499</ele>
        <time>2026-08-21T16:31:23.999Z</time>
      </trkpt>
      <trkpt lat="48.656112" lon="-1.508456">
        <ele>0.492</ele>
        <time>2026-08-21T16:31:25.999Z</time>
      </trkpt>
      <trkpt lat="48.656099" lon="-1.508451">
        <ele>0.459</ele>
        <time>2026-08-21T16:31:27.999Z</time>
      </trkpt>
      <trkpt lat="48.656090" lon="-1.508446">
        <ele>0.320</ele>
        <time>2026-08-21T16:31:29.999Z</time>
      </trkpt>
      <trkpt lat="48.656078" lon="-1.508443">
        <ele>0.334</ele>
        <time>2026-08-21T16:31:31.999Z</time>
      </trkpt>
      <trkpt lat="48.656068" lon="-1.508444">
        <ele>0.331</ele>
        <time>2026-08-21T16:31:33.999Z</time>
      </trkpt>
      <trkpt lat="48.656054" lon="-1.508446">
        <ele>0.292</ele>
        <time>2026-08-21T16:31:35.999Z</time>
      </trkpt>
      <trkpt lat="48.656040" lon="-1.508445">
        <ele>0.173</ele>
        <time>2026-08-21T16:31:37.999Z</time>
      </trkpt>
      <trkpt lat="48.656030" lon="-1.508436">
        <ele>0.020</ele>
        <time>2026-08-21T16:31:39.999Z</time>
      </trkpt>
      <trkpt lat="48.656018" lon="-1.508441">
        <ele>-0.109</ele>
        <time>2026-08-21T16:31:41.999Z</time>
      </trkpt>
      <trkpt lat="48.656006" lon="-1.508440">
        <ele>-0.231</ele>
        <time>2026-08-21T16:31:43.999Z</time>
      </trkpt>
      <trkpt lat="48.655995" lon="-1.508438">
        <ele>-0.317</ele>
        <time>2026-08-21T16:31:45.999Z</time>
      </trkpt>
      <trkpt lat="48.655979" lon="-1.508432">
        <ele>-0.310</ele>
        <time>2026-08-21T16:31:47.999Z</time>
      </trkpt>
      <trkpt lat="48.655963" lon="-1.508430">
        <ele>-0.361</ele>
        <time>2026-08-21T16:31:49.999Z</time>
      </trkpt>
      <trkpt lat="48.655951" lon="-1.508430">
        <ele>-0.364</ele>
        <time>2026-08-21T16:31:51.999Z</time>
      </trkpt>
      <trkpt lat="48.655940" lon="-1.508429">
        <ele>-0.321</ele>
        <time>2026-08-21T16:31:53.999Z</time>
      </trkpt>
      <trkpt lat="48.655927" lon="-1.508429">
        <ele>-0.332</ele>
        <time>2026-08-21T16:31:55.999Z</time>
      </trkpt>
      <trkpt lat="48.655913" lon="-1.508436">
        <ele>-0.326</ele>
        <time>2026-08-21T16:31:58.999Z</time>
      </trkpt>
      <trkpt lat="48.655902" lon="-1.508439">
        <ele>-0.323</ele>
        <time>2026-08-21T16:32:00.999Z</time>
      </trkpt>
      <trkpt lat="48.655890" lon="-1.508435">
        <ele>-0.417</ele>
        <time>2026-08-21T16:32:02.999Z</time>
      </trkpt>
      <trkpt lat="48.655876" lon="-1.508434">
        <ele>-0.487</ele>
        <time>2026-08-21T16:32:04.999Z</time>
      </trkpt>
      <trkpt lat="48.655861" lon="-1.508432">
        <ele>-0.415</ele>
        <time>2026-08-21T16:32:06.999Z</time>
      </trkpt>
      <trkpt lat="48.655850" lon="-1.508426">
        <ele>-0.409</ele>
        <time>2026-08-21T16:32:08.999Z</time>
      </trkpt>
      <trkpt lat="48.655835" lon="-1.508419">
        <ele>-0.473</ele>
        <time>2026-08-21T16:32:10.999Z</time>
      </trkpt>
      <trkpt lat="48.655821" lon="-1.508416">
        <ele>-0.439</ele>
        <time>2026-08-21T16:32:12.999Z</time>
      </trkpt>
      <trkpt lat="48.655809" lon="-1.508423">
        <ele>-0.422</ele>
        <time>2026-08-21T16:32:14.999Z</time>
      </trkpt>
      <trkpt lat="48.655799" lon="-1.508419">
        <ele>-0.443</ele>
        <time>2026-08-21T16:32:16.999Z</time>
      </trkpt>
      <trkpt lat="48.655785" lon="-1.508418">
        <ele>-0.416</ele>
        <time>2026-08-21T16:32:18.999Z</time>
      </trkpt>
      <trkpt lat="48.655773" lon="-1.508420">
        <ele>-0.443</ele>
        <time>2026-08-21T16:32:20.999Z</time>
      </trkpt>
      <trkpt lat="48.655757" lon="-1.508413">
        <ele>-0.414</ele>
        <time>2026-08-21T16:32:22.999Z</time>
      </trkpt>
      <trkpt lat="48.655745" lon="-1.508409">
        <ele>-0.468</ele>
        <time>2026-08-21T16:32:24.999Z</time>
      </trkpt>
      <trkpt lat="48.655728" lon="-1.508409">
        <ele>-0.485</ele>
        <time>2026-08-21T16:32:26.999Z</time>
      </trkpt>
      <trkpt lat="48.655717" lon="-1.508421">
        <ele>-0.484</ele>
        <time>2026-08-21T16:32:28.999Z</time>
      </trkpt>
      <trkpt lat="48.655702" lon="-1.508408">
        <ele>-0.407</ele>
        <time>2026-08-21T16:32:30.999Z</time>
      </trkpt>
      <trkpt lat="48.655686" lon="-1.508411">
        <ele>-0.417</ele>
        <time>2026-08-21T16:32:32.999Z</time>
      </trkpt>
      <trkpt lat="48.655672" lon="-1.508416">
        <ele>-0.409</ele>
        <time>2026-08-21T16:32:35.999Z</time>
      </trkpt>
      <trkpt lat="48.655660" lon="-1.508413">
        <ele>-0.430</ele>
        <time>2026-08-21T16:32:37.999Z</time>
      </trkpt>
      <trkpt lat="48.655645" lon="-1.508414">
        <ele>-0.466</ele>
        <time>2026-08-21T16:32:39.999Z</time>
      </trkpt>
      <trkpt lat="48.655631" lon="-1.508415">
        <ele>-0.449</ele>
        <time>2026-08-21T16:32:41.999Z</time>
      </trkpt>
      <trkpt lat="48.655619" lon="-1.508416">
        <ele>-0.370</ele>
        <time>2026-08-21T16:32:43.999Z</time>
      </trkpt>
      <trkpt lat="48.655606" lon="-1.508412">
        <ele>-0.393</ele>
        <time>2026-08-21T16:32:45.999Z</time>
      </trkpt>
      <trkpt lat="48.655594" lon="-1.508409">
        <ele>-0.290</ele>
        <time>2026-08-21T16:32:47.999Z</time>
      </trkpt>
      <trkpt lat="48.655579" lon="-1.508403">
        <ele>-0.221</ele>
        <time>2026-08-21T16:32:49.999Z</time>
      </trkpt>
      <trkpt lat="48.655564" lon="-1.508406">
        <ele>-0.215</ele>
        <time>2026-08-21T16:32:51.999Z</time>
      </trkpt>
      <trkpt lat="48.655550" lon="-1.508407">
        <ele>-0.292</ele>
        <time>2026-08-21T16:32:53.999Z</time>
      </trkpt>
      <trkpt lat="48.655537" lon="-1.508403">
        <ele>-0.216</ele>
        <time>2026-08-21T16:32:55.999Z</time>
      </trkpt>
      <trkpt lat="48.655525" lon="-1.508402">
        <ele>-0.276</ele>
        <time>2026-08-21T16:32:57.999Z</time>
      </trkpt>
      <trkpt lat="48.655510" lon="-1.508399">
        <ele>-0.213</ele>
        <time>2026-08-21T16:32:59.999Z</time>
      </trkpt>
      <trkpt lat="48.655501" lon="-1.508397">
        <ele>-0.209</ele>
        <time>2026-08-21T16:33:00.999Z</time>
      </trkpt>
      <trkpt lat="48.655487" lon="-1.508394">
        <ele>-0.263</ele>
        <time>2026-08-21T16:33:02.999Z</time>
      </trkpt>
      <trkpt lat="48.655473" lon="-1.508391">
        <ele>-0.259</ele>
        <time>2026-08-21T16:33:04.999Z</time>
      </trkpt>
      <trkpt lat="48.655458" lon="-1.508389">
        <ele>-0.292</ele>
        <time>2026-08-21T16:33:06.999Z</time>
      </trkpt>
      <trkpt lat="48.655445" lon="-1.508388">
        <ele>-0.243</ele>
        <time>2026-08-21T16:33:08.999Z</time>
      </trkpt>
      <trkpt lat="48.655430" lon="-1.508388">
        <ele>-0.286</ele>
        <time>2026-08-21T16:33:10.999Z</time>
      </trkpt>
      <trkpt lat="48.655414" lon="-1.508391">
        <ele>-0.273</ele>
        <time>2026-08-21T16:33:12.999Z</time>
      </trkpt>
      <trkpt lat="48.655403" lon="-1.508392">
        <ele>-0.254</ele>
        <time>2026-08-21T16:33:13.999Z</time>
      </trkpt>
      <trkpt lat="48.655386" lon="-1.508387">
        <ele>-0.248</ele>
        <time>2026-08-21T16:33:15.999Z</time>
      </trkpt>
      <trkpt lat="48.655368" lon="-1.508388">
        <ele>-0.325</ele>
        <time>2026-08-21T16:33:17.999Z</time>
      </trkpt>
      <trkpt lat="48.655350" lon="-1.508384">
        <ele>-0.376</ele>
        <time>2026-08-21T16:33:19.999Z</time>
      </trkpt>
      <trkpt lat="48.655339" lon="-1.508381">
        <ele>-0.390</ele>
        <time>2026-08-21T16:33:20.999Z</time>
      </trkpt>
      <trkpt lat="48.655321" lon="-1.508378">
        <ele>-0.319</ele>
        <time>2026-08-21T16:33:22.999Z</time>
      </trkpt>
      <trkpt lat="48.655310" lon="-1.508376">
        <ele>-0.309</ele>
        <time>2026-08-21T16:33:23.999Z</time>
      </trkpt>
      <trkpt lat="48.655297" lon="-1.508375">
        <ele>-0.349</ele>
        <time>2026-08-21T16:33:25.999Z</time>
      </trkpt>
      <trkpt lat="48.655288" lon="-1.508373">
        <ele>-0.315</ele>
        <time>2026-08-21T16:33:26.999Z</time>
      </trkpt>
      <trkpt lat="48.655271" lon="-1.508368">
        <ele>-0.338</ele>
        <time>2026-08-21T16:33:28.999Z</time>
      </trkpt>
      <trkpt lat="48.655261" lon="-1.508367">
        <ele>-0.369</ele>
        <time>2026-08-21T16:33:29.999Z</time>
      </trkpt>
      <trkpt lat="48.655252" lon="-1.508364">
        <ele>-0.392</ele>
        <time>2026-08-21T16:33:30.999Z</time>
      </trkpt>
      <trkpt lat="48.655235" lon="-1.508362">
        <ele>-0.319</ele>
        <time>2026-08-21T16:33:32.999Z</time>
      </trkpt>
      <trkpt lat="48.655221" lon="-1.508362">
        <ele>-0.320</ele>
        <time>2026-08-21T16:33:34.999Z</time>
      </trkpt>
      <trkpt lat="48.655212" lon="-1.508362">
        <ele>-0.344</ele>
        <time>2026-08-21T16:33:35.999Z</time>
      </trkpt>
      <trkpt lat="48.655198" lon="-1.508354">
        <ele>-0.391</ele>
        <time>2026-08-21T16:33:37.999Z</time>
      </trkpt>
      <trkpt lat="48.655181" lon="-1.508353">
        <ele>-0.362</ele>
        <time>2026-08-21T16:33:39.999Z</time>
      </trkpt>
      <trkpt lat="48.655165" lon="-1.508349">
        <ele>-0.383</ele>
        <time>2026-08-21T16:33:41.999Z</time>
      </trkpt>
      <trkpt lat="48.655148" lon="-1.508346">
        <ele>-0.311</ele>
        <time>2026-08-21T16:33:43.999Z</time>
      </trkpt>
      <trkpt lat="48.655139" lon="-1.508343">
        <ele>-0.309</ele>
        <time>2026-08-21T16:33:44.999Z</time>
      </trkpt>
      <trkpt lat="48.655129" lon="-1.508341">
        <ele>-0.368</ele>
        <time>2026-08-21T16:33:45.999Z</time>
      </trkpt>
      <trkpt lat="48.655119" lon="-1.508336">
        <ele>-0.374</ele>
        <time>2026-08-21T16:33:46.999Z</time>
      </trkpt>
      <trkpt lat="48.655109" lon="-1.508333">
        <ele>-0.267</ele>
        <time>2026-08-21T16:33:47.999Z</time>
      </trkpt>
      <trkpt lat="48.655099" lon="-1.508332">
        <ele>-0.238</ele>
        <time>2026-08-21T16:33:48.999Z</time>
      </trkpt>
      <trkpt lat="48.655081" lon="-1.508325">
        <ele>-0.161</ele>
        <time>2026-08-21T16:33:50.999Z</time>
      </trkpt>
      <trkpt lat="48.655063" lon="-1.508325">
        <ele>-0.168</ele>
        <time>2026-08-21T16:33:52.999Z</time>
      </trkpt>
      <trkpt lat="48.655053" lon="-1.508327">
        <ele>0.099</ele>
        <time>2026-08-21T16:33:53.999Z</time>
      </trkpt>
      <trkpt lat="48.655044" lon="-1.508330">
        <ele>0.073</ele>
        <time>2026-08-21T16:33:54.999Z</time>
      </trkpt>
      <trkpt lat="48.655025" lon="-1.508331">
        <ele>0.030</ele>
        <time>2026-08-21T16:33:56.999Z</time>
      </trkpt>
      <trkpt lat="48.655006" lon="-1.508327">
        <ele>0.177</ele>
        <time>2026-08-21T16:33:58.999Z</time>
      </trkpt>
      <trkpt lat="48.654997" lon="-1.508325">
        <ele>0.161</ele>
        <time>2026-08-21T16:33:59.999Z</time>
      </trkpt>
      <trkpt lat="48.654986" lon="-1.508324">
        <ele>0.227</ele>
        <time>2026-08-21T16:34:00.999Z</time>
      </trkpt>
      <trkpt lat="48.654976" lon="-1.508325">
        <ele>0.309</ele>
        <time>2026-08-21T16:34:01.999Z</time>
      </trkpt>
      <trkpt lat="48.654962" lon="-1.508325">
        <ele>0.359</ele>
        <time>2026-08-21T16:34:03.999Z</time>
      </trkpt>
      <trkpt lat="48.654952" lon="-1.508327">
        <ele>0.335</ele>
        <time>2026-08-21T16:34:04.999Z</time>
      </trkpt>
      <trkpt lat="48.654942" lon="-1.508331">
        <ele>0.458</ele>
        <time>2026-08-21T16:34:05.999Z</time>
      </trkpt>
      <trkpt lat="48.654932" lon="-1.508329">
        <ele>0.419</ele>
        <time>2026-08-21T16:34:06.999Z</time>
      </trkpt>
      <trkpt lat="48.654923" lon="-1.508328">
        <ele>0.422</ele>
        <time>2026-08-21T16:34:07.999Z</time>
      </trkpt>
      <trkpt lat="48.654913" lon="-1.508328">
        <ele>0.469</ele>
        <time>2026-08-21T16:34:08.999Z</time>
      </trkpt>
      <trkpt lat="48.654903" lon="-1.508328">
        <ele>0.550</ele>
        <time>2026-08-21T16:34:09.999Z</time>
      </trkpt>
      <trkpt lat="48.654886" lon="-1.508328">
        <ele>0.554</ele>
        <time>2026-08-21T16:34:11.999Z</time>
      </trkpt>
      <trkpt lat="48.654875" lon="-1.508328">
        <ele>0.621</ele>
        <time>2026-08-21T16:34:12.999Z</time>
      </trkpt>
      <trkpt lat="48.654865" lon="-1.508331">
        <ele>0.751</ele>
        <time>2026-08-21T16:34:13.999Z</time>
      </trkpt>
      <trkpt lat="48.654856" lon="-1.508329">
        <ele>0.701</ele>
        <time>2026-08-21T16:34:14.999Z</time>
      </trkpt>
      <trkpt lat="48.654837" lon="-1.508325">
        <ele>0.711</ele>
        <time>2026-08-21T16:34:16.999Z</time>
      </trkpt>
      <trkpt lat="48.654824" lon="-1.508326">
        <ele>0.709</ele>
        <time>2026-08-21T16:34:17.999Z</time>
      </trkpt>
      <trkpt lat="48.654814" lon="-1.508329">
        <ele>0.797</ele>
        <time>2026-08-21T16:34:18.999Z</time>
      </trkpt>
      <trkpt lat="48.654797" lon="-1.508332">
        <ele>0.723</ele>
        <time>2026-08-21T16:34:20.999Z</time>
      </trkpt>
      <trkpt lat="48.654777" lon="-1.508325">
        <ele>0.736</ele>
        <time>2026-08-21T16:34:22.999Z</time>
      </trkpt>
      <trkpt lat="48.654753" lon="-1.508321">
        <ele>0.747</ele>
        <time>2026-08-21T16:34:25.999Z</time>
      </trkpt>
      <trkpt lat="48.654743" lon="-1.508321">
        <ele>0.770</ele>
        <time>2026-08-21T16:34:26.999Z</time>
      </trkpt>
      <trkpt lat="48.654733" lon="-1.508322">
        <ele>0.777</ele>
        <time>2026-08-21T16:34:27.999Z</time>
      </trkpt>
      <trkpt lat="48.654722" lon="-1.508315">
        <ele>0.778</ele>
        <time>2026-08-21T16:34:39.999Z</time>
      </trkpt>
      <trkpt lat="48.654711" lon="-1.508312">
        <ele>0.752</ele>
        <time>2026-08-21T16:34:40.999Z</time>
      </trkpt>
      <trkpt lat="48.654697" lon="-1.508313">
        <ele>0.739</ele>
        <time>2026-08-21T16:34:41.999Z</time>
      </trkpt>
      <trkpt lat="48.654683" lon="-1.508315">
        <ele>0.779</ele>
        <time>2026-08-21T16:34:42.999Z</time>
      </trkpt>
      <trkpt lat="48.654669" lon="-1.508311">
        <ele>0.705</ele>
        <time>2026-08-21T16:34:43.999Z</time>
      </trkpt>
      <trkpt lat="48.654660" lon="-1.508308">
        <ele>0.725</ele>
        <time>2026-08-21T16:34:44.999Z</time>
      </trkpt>
      <trkpt lat="48.654641" lon="-1.508312">
        <ele>0.709</ele>
        <time>2026-08-21T16:34:46.999Z</time>
      </trkpt>
      <trkpt lat="48.654629" lon="-1.508314">
        <ele>0.779</ele>
        <time>2026-08-21T16:34:47.999Z</time>
      </trkpt>
      <trkpt lat="48.654613" lon="-1.508313">
        <ele>0.715</ele>
        <time>2026-08-21T16:34:49.999Z</time>
      </trkpt>
      <trkpt lat="48.654603" lon="-1.508313">
        <ele>0.758</ele>
        <time>2026-08-21T16:34:50.999Z</time>
      </trkpt>
      <trkpt lat="48.654588" lon="-1.508312">
        <ele>0.739</ele>
        <time>2026-08-21T16:34:51.999Z</time>
      </trkpt>
      <trkpt lat="48.654575" lon="-1.508315">
        <ele>0.722</ele>
        <time>2026-08-21T16:34:52.999Z</time>
      </trkpt>
      <trkpt lat="48.654562" lon="-1.508313">
        <ele>0.749</ele>
        <time>2026-08-21T16:34:53.999Z</time>
      </trkpt>
      <trkpt lat="48.654545" lon="-1.508310">
        <ele>0.790</ele>
        <time>2026-08-21T16:34:55.999Z</time>
      </trkpt>
      <trkpt lat="48.654535" lon="-1.508312">
        <ele>0.624</ele>
        <time>2026-08-21T16:34:56.999Z</time>
      </trkpt>
      <trkpt lat="48.654523" lon="-1.508319">
        <ele>0.671</ele>
        <time>2026-08-21T16:34:57.999Z</time>
      </trkpt>
      <trkpt lat="48.654509" lon="-1.508324">
        <ele>0.693</ele>
        <time>2026-08-21T16:34:58.999Z</time>
      </trkpt>
      <trkpt lat="48.654500" lon="-1.508321">
        <ele>0.665</ele>
        <time>2026-08-21T16:34:59.999Z</time>
      </trkpt>
      <trkpt lat="48.654487" lon="-1.508322">
        <ele>0.621</ele>
        <time>2026-08-21T16:35:01.999Z</time>
      </trkpt>
      <trkpt lat="48.654466" lon="-1.508323">
        <ele>0.509</ele>
        <time>2026-08-21T16:35:03.999Z</time>
      </trkpt>
      <trkpt lat="48.654449" lon="-1.508320">
        <ele>0.561</ele>
        <time>2026-08-21T16:35:04.999Z</time>
      </trkpt>
      <trkpt lat="48.654438" lon="-1.508320">
        <ele>0.557</ele>
        <time>2026-08-21T16:35:05.999Z</time>
      </trkpt>
      <trkpt lat="48.654429" lon="-1.508323">
        <ele>0.520</ele>
        <time>2026-08-21T16:35:06.999Z</time>
      </trkpt>
      <trkpt lat="48.654420" lon="-1.508325">
        <ele>0.531</ele>
        <time>2026-08-21T16:35:07.999Z</time>
      </trkpt>
      <trkpt lat="48.654408" lon="-1.508325">
        <ele>0.554</ele>
        <time>2026-08-21T16:35:08.999Z</time>
      </trkpt>
      <trkpt lat="48.654397" lon="-1.508326">
        <ele>0.561</ele>
        <time>2026-08-21T16:35:09.999Z</time>
      </trkpt>
      <trkpt lat="48.654384" lon="-1.508324">
        <ele>0.522</ele>
        <time>2026-08-21T16:35:10.999Z</time>
      </trkpt>
      <trkpt lat="48.654368" lon="-1.508323">
        <ele>0.546</ele>
        <time>2026-08-21T16:35:12.999Z</time>
      </trkpt>
      <trkpt lat="48.654351" lon="-1.508317">
        <ele>0.593</ele>
        <time>2026-08-21T16:35:14.999Z</time>
      </trkpt>
      <trkpt lat="48.654342" lon="-1.508316">
        <ele>0.566</ele>
        <time>2026-08-21T16:35:15.999Z</time>
      </trkpt>
      <trkpt lat="48.654332" lon="-1.508315">
        <ele>0.629</ele>
        <time>2026-08-21T16:35:16.999Z</time>
      </trkpt>
      <trkpt lat="48.654322" lon="-1.508314">
        <ele>0.621</ele>
        <time>2026-08-21T16:35:17.999Z</time>
      </trkpt>
      <trkpt lat="48.654309" lon="-1.508314">
        <ele>0.609</ele>
        <time>2026-08-21T16:35:18.999Z</time>
      </trkpt>
      <trkpt lat="48.654296" lon="-1.508316">
        <ele>0.668</ele>
        <time>2026-08-21T16:35:19.999Z</time>
      </trkpt>
      <trkpt lat="48.654283" lon="-1.508317">
        <ele>0.684</ele>
        <time>2026-08-21T16:35:20.999Z</time>
      </trkpt>
      <trkpt lat="48.654272" lon="-1.508319">
        <ele>0.647</ele>
        <time>2026-08-21T16:35:22.999Z</time>
      </trkpt>
      <trkpt lat="48.654263" lon="-1.508312">
        <ele>0.628</ele>
        <time>2026-08-21T16:35:29.999Z</time>
      </trkpt>
      <trkpt lat="48.654252" lon="-1.508317">
        <ele>0.581</ele>
        <time>2026-08-21T16:35:30.999Z</time>
      </trkpt>
      <trkpt lat="48.654239" lon="-1.508322">
        <ele>0.578</ele>
        <time>2026-08-21T16:35:31.999Z</time>
      </trkpt>
      <trkpt lat="48.654226" lon="-1.508320">
        <ele>0.559</ele>
        <time>2026-08-21T16:35:32.999Z</time>
      </trkpt>
      <trkpt lat="48.654208" lon="-1.508316">
        <ele>0.513</ele>
        <time>2026-08-21T16:35:34.999Z</time>
      </trkpt>
      <trkpt lat="48.654199" lon="-1.508313">
        <ele>0.520</ele>
        <time>2026-08-21T16:35:35.999Z</time>
      </trkpt>
      <trkpt lat="48.654189" lon="-1.508316">
        <ele>0.412</ele>
        <time>2026-08-21T16:35:36.999Z</time>
      </trkpt>
      <trkpt lat="48.654177" lon="-1.508314">
        <ele>0.432</ele>
        <time>2026-08-21T16:35:37.999Z</time>
      </trkpt>
      <trkpt lat="48.654163" lon="-1.508319">
        <ele>0.405</ele>
        <time>2026-08-21T16:35:39.999Z</time>
      </trkpt>
      <trkpt lat="48.654154" lon="-1.508325">
        <ele>0.409</ele>
        <time>2026-08-21T16:35:40.999Z</time>
      </trkpt>
      <trkpt lat="48.654140" lon="-1.508324">
        <ele>0.493</ele>
        <time>2026-08-21T16:35:41.999Z</time>
      </trkpt>
      <trkpt lat="48.654128" lon="-1.508320">
        <ele>0.439</ele>
        <time>2026-08-21T16:35:42.999Z</time>
      </trkpt>
      <trkpt lat="48.654117" lon="-1.508318">
        <ele>0.452</ele>
        <time>2026-08-21T16:35:43.999Z</time>
      </trkpt>
      <trkpt lat="48.654107" lon="-1.508318">
        <ele>0.443</ele>
        <time>2026-08-21T16:35:44.999Z</time>
      </trkpt>
      <trkpt lat="48.654097" lon="-1.508323">
        <ele>0.466</ele>
        <time>2026-08-21T16:35:45.999Z</time>
      </trkpt>
      <trkpt lat="48.654087" lon="-1.508328">
        <ele>0.453</ele>
        <time>2026-08-21T16:35:46.999Z</time>
      </trkpt>
      <trkpt lat="48.654070" lon="-1.508332">
        <ele>0.464</ele>
        <time>2026-08-21T16:35:47.999Z</time>
      </trkpt>
      <trkpt lat="48.654055" lon="-1.508323">
        <ele>0.438</ele>
        <time>2026-08-21T16:35:48.999Z</time>
      </trkpt>
      <trkpt lat="48.654043" lon="-1.508324">
        <ele>0.485</ele>
        <time>2026-08-21T16:35:49.999Z</time>
      </trkpt>
      <trkpt lat="48.654025" lon="-1.508328">
        <ele>0.496</ele>
        <time>2026-08-21T16:35:51.999Z</time>
      </trkpt>
      <trkpt lat="48.654013" lon="-1.508332">
        <ele>0.431</ele>
        <time>2026-08-21T16:35:52.999Z</time>
      </trkpt>
      <trkpt lat="48.654002" lon="-1.508334">
        <ele>0.324</ele>
        <time>2026-08-21T16:35:53.999Z</time>
      </trkpt>
      <trkpt lat="48.653992" lon="-1.508335">
        <ele>0.309</ele>
        <time>2026-08-21T16:35:54.999Z</time>
      </trkpt>
      <trkpt lat="48.653976" lon="-1.508335">
        <ele>0.391</ele>
        <time>2026-08-21T16:35:56.999Z</time>
      </trkpt>
      <trkpt lat="48.653967" lon="-1.508336">
        <ele>0.377</ele>
        <time>2026-08-21T16:35:57.999Z</time>
      </trkpt>
      <trkpt lat="48.653957" lon="-1.508336">
        <ele>0.380</ele>
        <time>2026-08-21T16:35:58.999Z</time>
      </trkpt>
      <trkpt lat="48.653946" lon="-1.508339">
        <ele>0.321</ele>
        <time>2026-08-21T16:35:59.999Z</time>
      </trkpt>
      <trkpt lat="48.653935" lon="-1.508340">
        <ele>0.324</ele>
        <time>2026-08-21T16:36:00.999Z</time>
      </trkpt>
      <trkpt lat="48.653925" lon="-1.508336">
        <ele>0.341</ele>
        <time>2026-08-21T16:36:01.999Z</time>
      </trkpt>
      <trkpt lat="48.653913" lon="-1.508335">
        <ele>0.352</ele>
        <time>2026-08-21T16:36:02.999Z</time>
      </trkpt>
      <trkpt lat="48.653899" lon="-1.508339">
        <ele>0.366</ele>
        <time>2026-08-21T16:36:03.999Z</time>
      </trkpt>
      <trkpt lat="48.653886" lon="-1.508340">
        <ele>0.393</ele>
        <time>2026-08-21T16:36:04.999Z</time>
      </trkpt>
      <trkpt lat="48.653877" lon="-1.508337">
        <ele>0.312</ele>
        <time>2026-08-21T16:36:05.999Z</time>
      </trkpt>
      <trkpt lat="48.653861" lon="-1.508328">
        <ele>0.332</ele>
        <time>2026-08-21T16:36:07.999Z</time>
      </trkpt>
      <trkpt lat="48.653850" lon="-1.508330">
        <ele>0.305</ele>
        <time>2026-08-21T16:36:08.999Z</time>
      </trkpt>
      <trkpt lat="48.653836" lon="-1.508334">
        <ele>0.309</ele>
        <time>2026-08-21T16:36:09.999Z</time>
      </trkpt>
      <trkpt lat="48.653823" lon="-1.508337">
        <ele>0.463</ele>
        <time>2026-08-21T16:36:10.999Z</time>
      </trkpt>
      <trkpt lat="48.653806" lon="-1.508335">
        <ele>0.459</ele>
        <time>2026-08-21T16:36:12.999Z</time>
      </trkpt>
      <trkpt lat="48.653793" lon="-1.508329">
        <ele>0.422</ele>
        <time>2026-08-21T16:36:17.999Z</time>
      </trkpt>
      <trkpt lat="48.653783" lon="-1.508329">
        <ele>0.493</ele>
        <time>2026-08-21T16:36:18.999Z</time>
      </trkpt>
      <trkpt lat="48.653770" lon="-1.508328">
        <ele>0.496</ele>
        <time>2026-08-21T16:36:19.999Z</time>
      </trkpt>
      <trkpt lat="48.653755" lon="-1.508328">
        <ele>0.443</ele>
        <time>2026-08-21T16:36:20.999Z</time>
      </trkpt>
      <trkpt lat="48.653741" lon="-1.508327">
        <ele>0.424</ele>
        <time>2026-08-21T16:36:21.999Z</time>
      </trkpt>
      <trkpt lat="48.653732" lon="-1.508326">
        <ele>0.478</ele>
        <time>2026-08-21T16:36:22.999Z</time>
      </trkpt>
      <trkpt lat="48.653715" lon="-1.508323">
        <ele>0.575</ele>
        <time>2026-08-21T16:36:24.999Z</time>
      </trkpt>
      <trkpt lat="48.653703" lon="-1.508321">
        <ele>0.538</ele>
        <time>2026-08-21T16:36:25.999Z</time>
      </trkpt>
      <trkpt lat="48.653692" lon="-1.508320">
        <ele>0.570</ele>
        <time>2026-08-21T16:36:26.999Z</time>
      </trkpt>
      <trkpt lat="48.653679" lon="-1.508319">
        <ele>0.517</ele>
        <time>2026-08-21T16:36:27.999Z</time>
      </trkpt>
      <trkpt lat="48.653665" lon="-1.508318">
        <ele>0.509</ele>
        <time>2026-08-21T16:36:28.999Z</time>
      </trkpt>
      <trkpt lat="48.653656" lon="-1.508317">
        <ele>0.525</ele>
        <time>2026-08-21T16:36:29.999Z</time>
      </trkpt>
      <trkpt lat="48.653647" lon="-1.508319">
        <ele>0.651</ele>
        <time>2026-08-21T16:36:30.999Z</time>
      </trkpt>
      <trkpt lat="48.653636" lon="-1.508318">
        <ele>0.694</ele>
        <time>2026-08-21T16:36:31.999Z</time>
      </trkpt>
      <trkpt lat="48.653622" lon="-1.508315">
        <ele>0.645</ele>
        <time>2026-08-21T16:36:32.999Z</time>
      </trkpt>
      <trkpt lat="48.653609" lon="-1.508316">
        <ele>0.628</ele>
        <time>2026-08-21T16:36:33.999Z</time>
      </trkpt>
      <trkpt lat="48.653598" lon="-1.508317">
        <ele>0.665</ele>
        <time>2026-08-21T16:36:34.999Z</time>
      </trkpt>
      <trkpt lat="48.653580" lon="-1.508315">
        <ele>0.686</ele>
        <time>2026-08-21T16:36:36.999Z</time>
      </trkpt>
      <trkpt lat="48.653568" lon="-1.508313">
        <ele>0.670</ele>
        <time>2026-08-21T16:36:37.999Z</time>
      </trkpt>
      <trkpt lat="48.653554" lon="-1.508314">
        <ele>0.677</ele>
        <time>2026-08-21T16:36:38.999Z</time>
      </trkpt>
      <trkpt lat="48.653543" lon="-1.508320">
        <ele>0.654</ele>
        <time>2026-08-21T16:36:39.999Z</time>
      </trkpt>
      <trkpt lat="48.653532" lon="-1.508321">
        <ele>0.656</ele>
        <time>2026-08-21T16:36:40.999Z</time>
      </trkpt>
      <trkpt lat="48.653521" lon="-1.508323">
        <ele>0.611</ele>
        <time>2026-08-21T16:36:41.999Z</time>
      </trkpt>
      <trkpt lat="48.653503" lon="-1.508328">
        <ele>0.609</ele>
        <time>2026-08-21T16:36:43.999Z</time>
      </trkpt>
      <trkpt lat="48.653490" lon="-1.508331">
        <ele>0.647</ele>
        <time>2026-08-21T16:36:44.999Z</time>
      </trkpt>
      <trkpt lat="48.653478" lon="-1.508332">
        <ele>0.633</ele>
        <time>2026-08-21T16:36:45.999Z</time>
      </trkpt>
      <trkpt lat="48.653469" lon="-1.508335">
        <ele>0.616</ele>
        <time>2026-08-21T16:36:46.999Z</time>
      </trkpt>
      <trkpt lat="48.653455" lon="-1.508332">
        <ele>0.627</ele>
        <time>2026-08-21T16:36:48.999Z</time>
      </trkpt>
      <trkpt lat="48.653444" lon="-1.508331">
        <ele>0.620</ele>
        <time>2026-08-21T16:36:49.999Z</time>
      </trkpt>
      <trkpt lat="48.653431" lon="-1.508335">
        <ele>0.527</ele>
        <time>2026-08-21T16:36:50.999Z</time>
      </trkpt>
      <trkpt lat="48.653417" lon="-1.508339">
        <ele>0.578</ele>
        <time>2026-08-21T16:36:51.999Z</time>
      </trkpt>
      <trkpt lat="48.653399" lon="-1.508338">
        <ele>0.572</ele>
        <time>2026-08-21T16:36:53.999Z</time>
      </trkpt>
      <trkpt lat="48.653389" lon="-1.508338">
        <ele>0.599</ele>
        <time>2026-08-21T16:36:54.999Z</time>
      </trkpt>
      <trkpt lat="48.653379" lon="-1.508343">
        <ele>0.673</ele>
        <time>2026-08-21T16:36:55.999Z</time>
      </trkpt>
      <trkpt lat="48.653368" lon="-1.508348">
        <ele>0.685</ele>
        <time>2026-08-21T16:36:56.999Z</time>
      </trkpt>
      <trkpt lat="48.653359" lon="-1.508351">
        <ele>0.613</ele>
        <time>2026-08-21T16:36:57.999Z</time>
      </trkpt>
      <trkpt lat="48.653349" lon="-1.508350">
        <ele>0.609</ele>
        <time>2026-08-21T16:36:58.999Z</time>
      </trkpt>
      <trkpt lat="48.653330" lon="-1.508353">
        <ele>0.619</ele>
        <time>2026-08-21T16:37:00.999Z</time>
      </trkpt>
      <trkpt lat="48.653316" lon="-1.508355">
        <ele>0.635</ele>
        <time>2026-08-21T16:37:01.999Z</time>
      </trkpt>
      <trkpt lat="48.653303" lon="-1.508357">
        <ele>0.598</ele>
        <time>2026-08-21T16:37:02.999Z</time>
      </trkpt>
      <trkpt lat="48.653290" lon="-1.508351">
        <ele>0.579</ele>
        <time>2026-08-21T16:37:03.999Z</time>
      </trkpt>
      <trkpt lat="48.653279" lon="-1.508347">
        <ele>0.662</ele>
        <time>2026-08-21T16:37:04.999Z</time>
      </trkpt>
      <trkpt lat="48.653257" lon="-1.508354">
        <ele>0.619</ele>
        <time>2026-08-21T16:37:06.999Z</time>
      </trkpt>
      <trkpt lat="48.653246" lon="-1.508354">
        <ele>0.660</ele>
        <time>2026-08-21T16:37:07.999Z</time>
      </trkpt>
      <trkpt lat="48.653231" lon="-1.508353">
        <ele>0.574</ele>
        <time>2026-08-21T16:37:09.999Z</time>
      </trkpt>
      <trkpt lat="48.653221" lon="-1.508351">
        <ele>0.551</ele>
        <time>2026-08-21T16:37:12.999Z</time>
      </trkpt>
      <trkpt lat="48.653205" lon="-1.508335">
        <ele>0.518</ele>
        <time>2026-08-21T16:37:14.999Z</time>
      </trkpt>
      <trkpt lat="48.653194" lon="-1.508333">
        <ele>0.598</ele>
        <time>2026-08-21T16:37:15.999Z</time>
      </trkpt>
      <trkpt lat="48.653180" lon="-1.508333">
        <ele>0.517</ele>
        <time>2026-08-21T16:37:16.999Z</time>
      </trkpt>
      <trkpt lat="48.653168" lon="-1.508336">
        <ele>0.509</ele>
        <time>2026-08-21T16:37:17.999Z</time>
      </trkpt>
      <trkpt lat="48.653149" lon="-1.508343">
        <ele>0.573</ele>
        <time>2026-08-21T16:37:19.999Z</time>
      </trkpt>
      <trkpt lat="48.653137" lon="-1.508350">
        <ele>0.529</ele>
        <time>2026-08-21T16:37:20.999Z</time>
      </trkpt>
      <trkpt lat="48.653127" lon="-1.508351">
        <ele>0.522</ele>
        <time>2026-08-21T16:37:21.999Z</time>
      </trkpt>
      <trkpt lat="48.653113" lon="-1.508351">
        <ele>0.413</ele>
        <time>2026-08-21T16:37:22.999Z</time>
      </trkpt>
      <trkpt lat="48.653102" lon="-1.508352">
        <ele>0.486</ele>
        <time>2026-08-21T16:37:23.999Z</time>
      </trkpt>
      <trkpt lat="48.653085" lon="-1.508350">
        <ele>0.443</ele>
        <time>2026-08-21T16:37:25.999Z</time>
      </trkpt>
      <trkpt lat="48.653072" lon="-1.508348">
        <ele>0.564</ele>
        <time>2026-08-21T16:37:26.999Z</time>
      </trkpt>
      <trkpt lat="48.653060" lon="-1.508351">
        <ele>0.598</ele>
        <time>2026-08-21T16:37:27.999Z</time>
      </trkpt>
      <trkpt lat="48.653049" lon="-1.508355">
        <ele>0.535</ele>
        <time>2026-08-21T16:37:28.999Z</time>
      </trkpt>
      <trkpt lat="48.653036" lon="-1.508354">
        <ele>0.521</ele>
        <time>2026-08-21T16:37:29.999Z</time>
      </trkpt>
      <trkpt lat="48.653019" lon="-1.508356">
        <ele>0.541</ele>
        <time>2026-08-21T16:37:31.999Z</time>
      </trkpt>
      <trkpt lat="48.653008" lon="-1.508357">
        <ele>0.505</ele>
        <time>2026-08-21T16:37:32.999Z</time>
      </trkpt>
      <trkpt lat="48.652994" lon="-1.508360">
        <ele>0.509</ele>
        <time>2026-08-21T16:37:33.999Z</time>
      </trkpt>
      <trkpt lat="48.652981" lon="-1.508361">
        <ele>0.544</ele>
        <time>2026-08-21T16:37:34.999Z</time>
      </trkpt>
      <trkpt lat="48.652972" lon="-1.508364">
        <ele>0.510</ele>
        <time>2026-08-21T16:37:35.999Z</time>
      </trkpt>
      <trkpt lat="48.652963" lon="-1.508365">
        <ele>0.663</ele>
        <time>2026-08-21T16:37:36.999Z</time>
      </trkpt>
      <trkpt lat="48.652948" lon="-1.508361">
        <ele>0.624</ele>
        <time>2026-08-21T16:37:38.999Z</time>
      </trkpt>
      <trkpt lat="48.652937" lon="-1.508363">
        <ele>0.697</ele>
        <time>2026-08-21T16:37:39.999Z</time>
      </trkpt>
      <trkpt lat="48.652925" lon="-1.508364">
        <ele>0.614</ele>
        <time>2026-08-21T16:37:40.999Z</time>
      </trkpt>
      <trkpt lat="48.652910" lon="-1.508362">
        <ele>0.615</ele>
        <time>2026-08-21T16:37:41.999Z</time>
      </trkpt>
      <trkpt lat="48.652897" lon="-1.508354">
        <ele>0.699</ele>
        <time>2026-08-21T16:37:42.999Z</time>
      </trkpt>
      <trkpt lat="48.652880" lon="-1.508361">
        <ele>0.756</ele>
        <time>2026-08-21T16:37:44.999Z</time>
      </trkpt>
      <trkpt lat="48.652867" lon="-1.508364">
        <ele>0.774</ele>
        <time>2026-08-21T16:37:45.999Z</time>
      </trkpt>
      <trkpt lat="48.652855" lon="-1.508366">
        <ele>0.856</ele>
        <time>2026-08-21T16:37:46.999Z</time>
      </trkpt>
      <trkpt lat="48.652841" lon="-1.508368">
        <ele>0.821</ele>
        <time>2026-08-21T16:37:47.999Z</time>
      </trkpt>
      <trkpt lat="48.652831" lon="-1.508364">
        <ele>0.809</ele>
        <time>2026-08-21T16:37:48.999Z</time>
      </trkpt>
      <trkpt lat="48.652822" lon="-1.508364">
        <ele>0.859</ele>
        <time>2026-08-21T16:37:49.999Z</time>
      </trkpt>
      <trkpt lat="48.652812" lon="-1.508364">
        <ele>0.875</ele>
        <time>2026-08-21T16:37:50.999Z</time>
      </trkpt>
      <trkpt lat="48.652799" lon="-1.508366">
        <ele>0.838</ele>
        <time>2026-08-21T16:37:51.999Z</time>
      </trkpt>
      <trkpt lat="48.652786" lon="-1.508369">
        <ele>0.819</ele>
        <time>2026-08-21T16:37:52.999Z</time>
      </trkpt>
      <trkpt lat="48.652772" lon="-1.508370">
        <ele>0.892</ele>
        <time>2026-08-21T16:37:54.999Z</time>
      </trkpt>
      <trkpt lat="48.652752" lon="-1.508370">
        <ele>0.879</ele>
        <time>2026-08-21T16:37:56.999Z</time>
      </trkpt>
      <trkpt lat="48.652738" lon="-1.508371">
        <ele>0.860</ele>
        <time>2026-08-21T16:37:57.999Z</time>
      </trkpt>
      <trkpt lat="48.652721" lon="-1.508369">
        <ele>0.814</ele>
        <time>2026-08-21T16:37:58.999Z</time>
      </trkpt>
      <trkpt lat="48.652713" lon="-1.508374">
        <ele>0.871</ele>
        <time>2026-08-21T16:37:59.999Z</time>
      </trkpt>
      <trkpt lat="48.652697" lon="-1.508381">
        <ele>0.898</ele>
        <time>2026-08-21T16:38:01.999Z</time>
      </trkpt>
      <trkpt lat="48.652686" lon="-1.508383">
        <ele>0.815</ele>
        <time>2026-08-21T16:38:02.999Z</time>
      </trkpt>
      <trkpt lat="48.652675" lon="-1.508381">
        <ele>0.826</ele>
        <time>2026-08-21T16:38:03.999Z</time>
      </trkpt>
      <trkpt lat="48.652662" lon="-1.508376">
        <ele>0.809</ele>
        <time>2026-08-21T16:38:04.999Z</time>
      </trkpt>
      <trkpt lat="48.652651" lon="-1.508371">
        <ele>0.841</ele>
        <time>2026-08-21T16:38:05.999Z</time>
      </trkpt>
      <trkpt lat="48.652641" lon="-1.508369">
        <ele>0.877</ele>
        <time>2026-08-21T16:38:06.999Z</time>
      </trkpt>
      <trkpt lat="48.652629" lon="-1.508366">
        <ele>0.850</ele>
        <time>2026-08-21T16:38:07.999Z</time>
      </trkpt>
      <trkpt lat="48.652616" lon="-1.508367">
        <ele>0.891</ele>
        <time>2026-08-21T16:38:08.999Z</time>
      </trkpt>
      <trkpt lat="48.652607" lon="-1.508370">
        <ele>0.814</ele>
        <time>2026-08-21T16:38:09.999Z</time>
      </trkpt>
      <trkpt lat="48.652597" lon="-1.508369">
        <ele>0.831</ele>
        <time>2026-08-21T16:38:10.999Z</time>
      </trkpt>
      <trkpt lat="48.652582" lon="-1.508372">
        <ele>0.892</ele>
        <time>2026-08-21T16:38:12.999Z</time>
      </trkpt>
      <trkpt lat="48.652570" lon="-1.508377">
        <ele>0.836</ele>
        <time>2026-08-21T16:38:13.999Z</time>
      </trkpt>
      <trkpt lat="48.652557" lon="-1.508379">
        <ele>0.753</ele>
        <time>2026-08-21T16:38:14.999Z</time>
      </trkpt>
      <trkpt lat="48.652545" lon="-1.508381">
        <ele>0.729</ele>
        <time>2026-08-21T16:38:15.999Z</time>
      </trkpt>
      <trkpt lat="48.652534" lon="-1.508376">
        <ele>0.700</ele>
        <time>2026-08-21T16:38:16.999Z</time>
      </trkpt>
      <trkpt lat="48.652524" lon="-1.508372">
        <ele>0.720</ele>
        <time>2026-08-21T16:38:17.999Z</time>
      </trkpt>
      <trkpt lat="48.652515" lon="-1.508372">
        <ele>0.709</ele>
        <time>2026-08-21T16:38:18.999Z</time>
      </trkpt>
      <trkpt lat="48.652501" lon="-1.508370">
        <ele>0.744</ele>
        <time>2026-08-21T16:38:19.999Z</time>
      </trkpt>
      <trkpt lat="48.652487" lon="-1.508368">
        <ele>0.670</ele>
        <time>2026-08-21T16:38:20.999Z</time>
      </trkpt>
      <trkpt lat="48.652475" lon="-1.508369">
        <ele>0.663</ele>
        <time>2026-08-21T16:38:21.999Z</time>
      </trkpt>
      <trkpt lat="48.652461" lon="-1.508365">
        <ele>0.614</ele>
        <time>2026-08-21T16:38:22.999Z</time>
      </trkpt>
      <trkpt lat="48.652451" lon="-1.508362">
        <ele>0.617</ele>
        <time>2026-08-21T16:38:23.999Z</time>
      </trkpt>
      <trkpt lat="48.652442" lon="-1.508361">
        <ele>0.614</ele>
        <time>2026-08-21T16:38:24.999Z</time>
      </trkpt>
      <trkpt lat="48.652431" lon="-1.508362">
        <ele>0.625</ele>
        <time>2026-08-21T16:38:25.999Z</time>
      </trkpt>
      <trkpt lat="48.652421" lon="-1.508361">
        <ele>0.639</ele>
        <time>2026-08-21T16:38:26.999Z</time>
      </trkpt>
      <trkpt lat="48.652407" lon="-1.508362">
        <ele>0.626</ele>
        <time>2026-08-21T16:38:27.999Z</time>
      </trkpt>
      <trkpt lat="48.652396" lon="-1.508363">
        <ele>0.558</ele>
        <time>2026-08-21T16:38:28.999Z</time>
      </trkpt>
      <trkpt lat="48.652378" lon="-1.508355">
        <ele>0.552</ele>
        <time>2026-08-21T16:38:30.999Z</time>
      </trkpt>
      <trkpt lat="48.652368" lon="-1.508356">
        <ele>0.517</ele>
        <time>2026-08-21T16:38:31.999Z</time>
      </trkpt>
      <trkpt lat="48.652355" lon="-1.508352">
        <ele>0.509</ele>
        <time>2026-08-21T16:38:32.999Z</time>
      </trkpt>
      <trkpt lat="48.652340" lon="-1.508351">
        <ele>0.567</ele>
        <time>2026-08-21T16:38:33.999Z</time>
      </trkpt>
      <trkpt lat="48.652326" lon="-1.508347">
        <ele>0.563</ele>
        <time>2026-08-21T16:38:34.999Z</time>
      </trkpt>
      <trkpt lat="48.652316" lon="-1.508345">
        <ele>0.666</ele>
        <time>2026-08-21T16:38:35.999Z</time>
      </trkpt>
      <trkpt lat="48.652299" lon="-1.508345">
        <ele>0.697</ele>
        <time>2026-08-21T16:38:37.999Z</time>
      </trkpt>
      <trkpt lat="48.652289" lon="-1.508347">
        <ele>0.690</ele>
        <time>2026-08-21T16:38:38.999Z</time>
      </trkpt>
      <trkpt lat="48.652278" lon="-1.508351">
        <ele>0.657</ele>
        <time>2026-08-21T16:38:39.999Z</time>
      </trkpt>
      <trkpt lat="48.652267" lon="-1.508353">
        <ele>0.658</ele>
        <time>2026-08-21T16:38:40.999Z</time>
      </trkpt>
      <trkpt lat="48.652256" lon="-1.508352">
        <ele>0.692</ele>
        <time>2026-08-21T16:38:41.999Z</time>
      </trkpt>
      <trkpt lat="48.652239" lon="-1.508349">
        <ele>0.669</ele>
        <time>2026-08-21T16:38:43.999Z</time>
      </trkpt>
      <trkpt lat="48.652226" lon="-1.508348">
        <ele>0.684</ele>
        <time>2026-08-21T16:38:44.999Z</time>
      </trkpt>
      <trkpt lat="48.652212" lon="-1.508352">
        <ele>0.607</ele>
        <time>2026-08-21T16:38:45.999Z</time>
      </trkpt>
      <trkpt lat="48.652201" lon="-1.508355">
        <ele>0.717</ele>
        <time>2026-08-21T16:38:46.999Z</time>
      </trkpt>
      <trkpt lat="48.652190" lon="-1.508351">
        <ele>0.709</ele>
        <time>2026-08-21T16:38:47.999Z</time>
      </trkpt>
      <trkpt lat="48.652181" lon="-1.508346">
        <ele>0.770</ele>
        <time>2026-08-21T16:38:48.999Z</time>
      </trkpt>
      <trkpt lat="48.652159" lon="-1.508344">
        <ele>0.796</ele>
        <time>2026-08-21T16:38:50.999Z</time>
      </trkpt>
      <trkpt lat="48.652143" lon="-1.508346">
        <ele>0.719</ele>
        <time>2026-08-21T16:38:51.999Z</time>
      </trkpt>
      <trkpt lat="48.652131" lon="-1.508349">
        <ele>0.710</ele>
        <time>2026-08-21T16:38:52.999Z</time>
      </trkpt>
      <trkpt lat="48.652121" lon="-1.508348">
        <ele>0.753</ele>
        <time>2026-08-21T16:38:53.999Z</time>
      </trkpt>
      <trkpt lat="48.652109" lon="-1.508344">
        <ele>0.790</ele>
        <time>2026-08-21T16:38:54.999Z</time>
      </trkpt>
      <trkpt lat="48.652099" lon="-1.508342">
        <ele>0.771</ele>
        <time>2026-08-21T16:38:55.999Z</time>
      </trkpt>
      <trkpt lat="48.652090" lon="-1.508343">
        <ele>0.785</ele>
        <time>2026-08-21T16:38:56.999Z</time>
      </trkpt>
      <trkpt lat="48.652078" lon="-1.508343">
        <ele>0.792</ele>
        <time>2026-08-21T16:38:57.999Z</time>
      </trkpt>
      <trkpt lat="48.652065" lon="-1.508346">
        <ele>0.793</ele>
        <time>2026-08-21T16:38:58.999Z</time>
      </trkpt>
      <trkpt lat="48.652054" lon="-1.508347">
        <ele>0.765</ele>
        <time>2026-08-21T16:38:59.999Z</time>
      </trkpt>
      <trkpt lat="48.652043" lon="-1.508346">
        <ele>0.721</ele>
        <time>2026-08-21T16:39:00.999Z</time>
      </trkpt>
      <trkpt lat="48.652027" lon="-1.508343">
        <ele>0.709</ele>
        <time>2026-08-21T16:39:02.999Z</time>
      </trkpt>
      <trkpt lat="48.652017" lon="-1.508345">
        <ele>0.791</ele>
        <time>2026-08-21T16:39:03.999Z</time>
      </trkpt>
      <trkpt lat="48.652004" lon="-1.508344">
        <ele>0.737</ele>
        <time>2026-08-21T16:39:04.999Z</time>
      </trkpt>
      <trkpt lat="48.651990" lon="-1.508343">
        <ele>0.760</ele>
        <time>2026-08-21T16:39:05.999Z</time>
      </trkpt>
      <trkpt lat="48.651979" lon="-1.508341">
        <ele>0.791</ele>
        <time>2026-08-21T16:39:06.999Z</time>
      </trkpt>
      <trkpt lat="48.651969" lon="-1.508340">
        <ele>0.794</ele>
        <time>2026-08-21T16:39:07.999Z</time>
      </trkpt>
      <trkpt lat="48.651960" lon="-1.508341">
        <ele>0.731</ele>
        <time>2026-08-21T16:39:08.999Z</time>
      </trkpt>
      <trkpt lat="48.651939" lon="-1.508346">
        <ele>0.772</ele>
        <time>2026-08-21T16:39:10.999Z</time>
      </trkpt>
      <trkpt lat="48.651929" lon="-1.508349">
        <ele>0.776</ele>
        <time>2026-08-21T16:39:11.999Z</time>
      </trkpt>
      <trkpt lat="48.651919" lon="-1.508347">
        <ele>0.733</ele>
        <time>2026-08-21T16:39:12.999Z</time>
      </trkpt>
      <trkpt lat="48.651907" lon="-1.508340">
        <ele>0.793</ele>
        <time>2026-08-21T16:39:13.999Z</time>
      </trkpt>
      <trkpt lat="48.651898" lon="-1.508335">
        <ele>0.765</ele>
        <time>2026-08-21T16:39:14.999Z</time>
      </trkpt>
      <trkpt lat="48.651887" lon="-1.508333">
        <ele>0.721</ele>
        <time>2026-08-21T16:39:15.999Z</time>
      </trkpt>
      <trkpt lat="48.651875" lon="-1.508333">
        <ele>0.709</ele>
        <time>2026-08-21T16:39:16.999Z</time>
      </trkpt>
      <trkpt lat="48.651863" lon="-1.508336">
        <ele>0.721</ele>
        <time>2026-08-21T16:39:17.999Z</time>
      </trkpt>
      <trkpt lat="48.651849" lon="-1.508337">
        <ele>0.777</ele>
        <time>2026-08-21T16:39:18.999Z</time>
      </trkpt>
      <trkpt lat="48.651839" lon="-1.508336">
        <ele>0.740</ele>
        <time>2026-08-21T16:39:19.999Z</time>
      </trkpt>
      <trkpt lat="48.651822" lon="-1.508330">
        <ele>0.731</ele>
        <time>2026-08-21T16:39:21.999Z</time>
      </trkpt>
      <trkpt lat="48.651810" lon="-1.508327">
        <ele>0.714</ele>
        <time>2026-08-21T16:39:22.999Z</time>
      </trkpt>
      <trkpt lat="48.651797" lon="-1.508327">
        <ele>0.761</ele>
        <time>2026-08-21T16:39:23.999Z</time>
      </trkpt>
      <trkpt lat="48.651783" lon="-1.508326">
        <ele>0.712</ele>
        <time>2026-08-21T16:39:24.999Z</time>
      </trkpt>
      <trkpt lat="48.651773" lon="-1.508323">
        <ele>0.766</ele>
        <time>2026-08-21T16:39:25.999Z</time>
      </trkpt>
      <trkpt lat="48.651756" lon="-1.508321">
        <ele>0.743</ele>
        <time>2026-08-21T16:39:27.999Z</time>
      </trkpt>
      <trkpt lat="48.651745" lon="-1.508321">
        <ele>0.767</ele>
        <time>2026-08-21T16:39:28.999Z</time>
      </trkpt>
      <trkpt lat="48.651732" lon="-1.508316">
        <ele>0.781</ele>
        <time>2026-08-21T16:39:29.999Z</time>
      </trkpt>
      <trkpt lat="48.651720" lon="-1.508313">
        <ele>0.719</ele>
        <time>2026-08-21T16:39:30.999Z</time>
      </trkpt>
      <trkpt lat="48.651708" lon="-1.508308">
        <ele>0.709</ele>
        <time>2026-08-21T16:39:31.999Z</time>
      </trkpt>
      <trkpt lat="48.651694" lon="-1.508308">
        <ele>0.718</ele>
        <time>2026-08-21T16:39:33.999Z</time>
      </trkpt>
      <trkpt lat="48.651681" lon="-1.508307">
        <ele>0.814</ele>
        <time>2026-08-21T16:39:34.999Z</time>
      </trkpt>
      <trkpt lat="48.651666" lon="-1.508309">
        <ele>0.847</ele>
        <time>2026-08-21T16:39:35.999Z</time>
      </trkpt>
      <trkpt lat="48.651655" lon="-1.508311">
        <ele>0.828</ele>
        <time>2026-08-21T16:39:36.999Z</time>
      </trkpt>
      <trkpt lat="48.651644" lon="-1.508311">
        <ele>0.851</ele>
        <time>2026-08-21T16:39:37.999Z</time>
      </trkpt>
      <trkpt lat="48.651628" lon="-1.508311">
        <ele>0.898</ele>
        <time>2026-08-21T16:39:39.999Z</time>
      </trkpt>
      <trkpt lat="48.651619" lon="-1.508308">
        <ele>0.869</ele>
        <time>2026-08-21T16:39:40.999Z</time>
      </trkpt>
      <trkpt lat="48.651608" lon="-1.508302">
        <ele>0.883</ele>
        <time>2026-08-21T16:39:41.999Z</time>
      </trkpt>
      <trkpt lat="48.651593" lon="-1.508297">
        <ele>0.890</ele>
        <time>2026-08-21T16:39:42.999Z</time>
      </trkpt>
      <trkpt lat="48.651579" lon="-1.508294">
        <ele>0.862</ele>
        <time>2026-08-21T16:39:43.999Z</time>
      </trkpt>
      <trkpt lat="48.651569" lon="-1.508288">
        <ele>0.983</ele>
        <time>2026-08-21T16:39:44.999Z</time>
      </trkpt>
      <trkpt lat="48.651550" lon="-1.508287">
        <ele>0.911</ele>
        <time>2026-08-21T16:39:46.999Z</time>
      </trkpt>
      <trkpt lat="48.651537" lon="-1.508290">
        <ele>1.009</ele>
        <time>2026-08-21T16:39:47.999Z</time>
      </trkpt>
      <trkpt lat="48.651521" lon="-1.508292">
        <ele>1.028</ele>
        <time>2026-08-21T16:39:48.999Z</time>
      </trkpt>
      <trkpt lat="48.651506" lon="-1.508290">
        <ele>1.034</ele>
        <time>2026-08-21T16:39:49.999Z</time>
      </trkpt>
      <trkpt lat="48.651493" lon="-1.508291">
        <ele>1.067</ele>
        <time>2026-08-21T16:39:51.999Z</time>
      </trkpt>
      <trkpt lat="48.651474" lon="-1.508293">
        <ele>1.118</ele>
        <time>2026-08-21T16:39:53.999Z</time>
      </trkpt>
      <trkpt lat="48.651463" lon="-1.508296">
        <ele>1.161</ele>
        <time>2026-08-21T16:39:54.999Z</time>
      </trkpt>
      <trkpt lat="48.651450" lon="-1.508296">
        <ele>1.258</ele>
        <time>2026-08-21T16:39:55.999Z</time>
      </trkpt>
      <trkpt lat="48.651435" lon="-1.508293">
        <ele>1.329</ele>
        <time>2026-08-21T16:39:56.999Z</time>
      </trkpt>
      <trkpt lat="48.651424" lon="-1.508295">
        <ele>1.313</ele>
        <time>2026-08-21T16:39:57.999Z</time>
      </trkpt>
      <trkpt lat="48.651412" lon="-1.508288">
        <ele>1.370</ele>
        <time>2026-08-21T16:39:58.999Z</time>
      </trkpt>
      <trkpt lat="48.651402" lon="-1.508286">
        <ele>1.345</ele>
        <time>2026-08-21T16:39:59.999Z</time>
      </trkpt>
      <trkpt lat="48.651393" lon="-1.508288">
        <ele>1.447</ele>
        <time>2026-08-21T16:40:00.999Z</time>
      </trkpt>
      <trkpt lat="48.651380" lon="-1.508292">
        <ele>1.411</ele>
        <time>2026-08-21T16:40:01.999Z</time>
      </trkpt>
      <trkpt lat="48.651366" lon="-1.508298">
        <ele>1.509</ele>
        <time>2026-08-21T16:40:02.999Z</time>
      </trkpt>
      <trkpt lat="48.651353" lon="-1.508298">
        <ele>1.546</ele>
        <time>2026-08-21T16:40:03.999Z</time>
      </trkpt>
      <trkpt lat="48.651341" lon="-1.508297">
        <ele>1.562</ele>
        <time>2026-08-21T16:40:04.999Z</time>
      </trkpt>
      <trkpt lat="48.651325" lon="-1.508286">
        <ele>1.545</ele>
        <time>2026-08-21T16:40:06.999Z</time>
      </trkpt>
      <trkpt lat="48.651314" lon="-1.508288">
        <ele>1.556</ele>
        <time>2026-08-21T16:40:07.999Z</time>
      </trkpt>
      <trkpt lat="48.651300" lon="-1.508294">
        <ele>1.619</ele>
        <time>2026-08-21T16:40:08.999Z</time>
      </trkpt>
      <trkpt lat="48.651286" lon="-1.508293">
        <ele>1.696</ele>
        <time>2026-08-21T16:40:09.999Z</time>
      </trkpt>
      <trkpt lat="48.651274" lon="-1.508292">
        <ele>1.647</ele>
        <time>2026-08-21T16:40:10.999Z</time>
      </trkpt>
      <trkpt lat="48.651263" lon="-1.508290">
        <ele>1.661</ele>
        <time>2026-08-21T16:40:11.999Z</time>
      </trkpt>
      <trkpt lat="48.651254" lon="-1.508293">
        <ele>1.788</ele>
        <time>2026-08-21T16:40:12.999Z</time>
      </trkpt>
      <trkpt lat="48.651235" lon="-1.508297">
        <ele>1.754</ele>
        <time>2026-08-21T16:40:14.999Z</time>
      </trkpt>
      <trkpt lat="48.651223" lon="-1.508298">
        <ele>1.756</ele>
        <time>2026-08-21T16:40:15.999Z</time>
      </trkpt>
      <trkpt lat="48.651211" lon="-1.508295">
        <ele>1.711</ele>
        <time>2026-08-21T16:40:16.999Z</time>
      </trkpt>
      <trkpt lat="48.651199" lon="-1.508292">
        <ele>1.709</ele>
        <time>2026-08-21T16:40:17.999Z</time>
      </trkpt>
      <trkpt lat="48.651190" lon="-1.508295">
        <ele>1.787</ele>
        <time>2026-08-21T16:40:18.999Z</time>
      </trkpt>
      <trkpt lat="48.651180" lon="-1.508297">
        <ele>1.773</ele>
        <time>2026-08-21T16:40:19.999Z</time>
      </trkpt>
      <trkpt lat="48.651168" lon="-1.508297">
        <ele>1.726</ele>
        <time>2026-08-21T16:40:20.999Z</time>
      </trkpt>
      <trkpt lat="48.651158" lon="-1.508296">
        <ele>1.787</ele>
        <time>2026-08-21T16:40:21.999Z</time>
      </trkpt>
      <trkpt lat="48.651144" lon="-1.508294">
        <ele>1.780</ele>
        <time>2026-08-21T16:40:22.999Z</time>
      </trkpt>
      <trkpt lat="48.651134" lon="-1.508291">
        <ele>1.637</ele>
        <time>2026-08-21T16:40:23.999Z</time>
      </trkpt>
      <trkpt lat="48.651125" lon="-1.508292">
        <ele>1.698</ele>
        <time>2026-08-21T16:40:24.999Z</time>
      </trkpt>
      <trkpt lat="48.651105" lon="-1.508293">
        <ele>1.662</ele>
        <time>2026-08-21T16:40:26.999Z</time>
      </trkpt>
      <trkpt lat="48.651093" lon="-1.508295">
        <ele>1.669</ele>
        <time>2026-08-21T16:40:27.999Z</time>
      </trkpt>
      <trkpt lat="48.651082" lon="-1.508298">
        <ele>1.661</ele>
        <time>2026-08-21T16:40:28.999Z</time>
      </trkpt>
      <trkpt lat="48.651072" lon="-1.508303">
        <ele>1.621</ele>
        <time>2026-08-21T16:40:29.999Z</time>
      </trkpt>
      <trkpt lat="48.651061" lon="-1.508302">
        <ele>1.613</ele>
        <time>2026-08-21T16:40:30.999Z</time>
      </trkpt>
      <trkpt lat="48.651050" lon="-1.508300">
        <ele>1.509</ele>
        <time>2026-08-21T16:40:31.999Z</time>
      </trkpt>
      <trkpt lat="48.651029" lon="-1.508299">
        <ele>1.528</ele>
        <time>2026-08-21T16:40:33.999Z</time>
      </trkpt>
      <trkpt lat="48.651015" lon="-1.508301">
        <ele>1.564</ele>
        <time>2026-08-21T16:40:34.999Z</time>
      </trkpt>
      <trkpt lat="48.651003" lon="-1.508299">
        <ele>1.517</ele>
        <time>2026-08-21T16:40:35.999Z</time>
      </trkpt>
      <trkpt lat="48.650993" lon="-1.508294">
        <ele>1.598</ele>
        <time>2026-08-21T16:40:36.999Z</time>
      </trkpt>
      <trkpt lat="48.650983" lon="-1.508291">
        <ele>1.551</ele>
        <time>2026-08-21T16:40:37.999Z</time>
      </trkpt>
      <trkpt lat="48.650965" lon="-1.508296">
        <ele>1.598</ele>
        <time>2026-08-21T16:40:39.999Z</time>
      </trkpt>
      <trkpt lat="48.650953" lon="-1.508301">
        <ele>1.479</ele>
        <time>2026-08-21T16:40:40.999Z</time>
      </trkpt>
      <trkpt lat="48.650941" lon="-1.508304">
        <ele>1.413</ele>
        <time>2026-08-21T16:40:41.999Z</time>
      </trkpt>
      <trkpt lat="48.650923" lon="-1.508306">
        <ele>1.390</ele>
        <time>2026-08-21T16:40:43.999Z</time>
      </trkpt>
      <trkpt lat="48.650905" lon="-1.508306">
        <ele>1.356</ele>
        <time>2026-08-21T16:40:45.999Z</time>
      </trkpt>
      <trkpt lat="48.650893" lon="-1.508308">
        <ele>1.259</ele>
        <time>2026-08-21T16:40:46.999Z</time>
      </trkpt>
      <trkpt lat="48.650883" lon="-1.508313">
        <ele>1.214</ele>
        <time>2026-08-21T16:40:47.999Z</time>
      </trkpt>
      <trkpt lat="48.650873" lon="-1.508317">
        <ele>1.209</ele>
        <time>2026-08-21T16:40:48.999Z</time>
      </trkpt>
      <trkpt lat="48.650863" lon="-1.508314">
        <ele>1.177</ele>
        <time>2026-08-21T16:40:49.999Z</time>
      </trkpt>
      <trkpt lat="48.650854" lon="-1.508308">
        <ele>1.133</ele>
        <time>2026-08-21T16:40:50.999Z</time>
      </trkpt>
      <trkpt lat="48.650843" lon="-1.508306">
        <ele>1.166</ele>
        <time>2026-08-21T16:40:51.999Z</time>
      </trkpt>
      <trkpt lat="48.650830" lon="-1.508305">
        <ele>1.017</ele>
        <time>2026-08-21T16:40:52.999Z</time>
      </trkpt>
      <trkpt lat="48.650816" lon="-1.508304">
        <ele>1.040</ele>
        <time>2026-08-21T16:40:53.999Z</time>
      </trkpt>
      <trkpt lat="48.650801" lon="-1.508305">
        <ele>1.057</ele>
        <time>2026-08-21T16:40:54.999Z</time>
      </trkpt>
      <trkpt lat="48.650786" lon="-1.508304">
        <ele>1.038</ele>
        <time>2026-08-21T16:40:56.999Z</time>
      </trkpt>
      <trkpt lat="48.650776" lon="-1.508304">
        <ele>0.962</ele>
        <time>2026-08-21T16:40:57.999Z</time>
      </trkpt>
      <trkpt lat="48.650764" lon="-1.508304">
        <ele>0.919</ele>
        <time>2026-08-21T16:40:58.999Z</time>
      </trkpt>
      <trkpt lat="48.650751" lon="-1.508305">
        <ele>0.997</ele>
        <time>2026-08-21T16:40:59.999Z</time>
      </trkpt>
      <trkpt lat="48.650738" lon="-1.508307">
        <ele>0.923</ele>
        <time>2026-08-21T16:41:00.999Z</time>
      </trkpt>
      <trkpt lat="48.650729" lon="-1.508310">
        <ele>0.825</ele>
        <time>2026-08-21T16:41:01.999Z</time>
      </trkpt>
      <trkpt lat="48.650719" lon="-1.508312">
        <ele>0.809</ele>
        <time>2026-08-21T16:41:02.999Z</time>
      </trkpt>
      <trkpt lat="48.650710" lon="-1.508310">
        <ele>0.841</ele>
        <time>2026-08-21T16:41:03.999Z</time>
      </trkpt>
      <trkpt lat="48.650689" lon="-1.508310">
        <ele>0.837</ele>
        <time>2026-08-21T16:41:05.999Z</time>
      </trkpt>
      <trkpt lat="48.650675" lon="-1.508314">
        <ele>0.720</ele>
        <time>2026-08-21T16:41:06.999Z</time>
      </trkpt>
      <trkpt lat="48.650663" lon="-1.508317">
        <ele>0.731</ele>
        <time>2026-08-21T16:41:07.999Z</time>
      </trkpt>
      <trkpt lat="48.650646" lon="-1.508312">
        <ele>0.794</ele>
        <time>2026-08-21T16:41:09.999Z</time>
      </trkpt>
      <trkpt lat="48.650626" lon="-1.508310">
        <ele>0.771</ele>
        <time>2026-08-21T16:41:11.999Z</time>
      </trkpt>
      <trkpt lat="48.650616" lon="-1.508311">
        <ele>0.732</ele>
        <time>2026-08-21T16:41:12.999Z</time>
      </trkpt>
      <trkpt lat="48.650597" lon="-1.508312">
        <ele>0.746</ele>
        <time>2026-08-21T16:41:14.999Z</time>
      </trkpt>
      <trkpt lat="48.650577" lon="-1.508313">
        <ele>0.723</ele>
        <time>2026-08-21T16:41:16.999Z</time>
      </trkpt>
      <trkpt lat="48.650564" lon="-1.508313">
        <ele>0.786</ele>
        <time>2026-08-21T16:41:17.999Z</time>
      </trkpt>
      <trkpt lat="48.650551" lon="-1.508314">
        <ele>0.760</ele>
        <time>2026-08-21T16:41:18.999Z</time>
      </trkpt>
      <trkpt lat="48.650541" lon="-1.508318">
        <ele>0.726</ele>
        <time>2026-08-21T16:41:19.999Z</time>
      </trkpt>
      <trkpt lat="48.650529" lon="-1.508316">
        <ele>0.709</ele>
        <time>2026-08-21T16:41:20.999Z</time>
      </trkpt>
      <trkpt lat="48.650517" lon="-1.508314">
        <ele>0.710</ele>
        <time>2026-08-21T16:41:21.999Z</time>
      </trkpt>
      <trkpt lat="48.650506" lon="-1.508314">
        <ele>0.756</ele>
        <time>2026-08-21T16:41:22.999Z</time>
      </trkpt>
      <trkpt lat="48.650488" lon="-1.508317">
        <ele>0.799</ele>
        <time>2026-08-21T16:41:24.999Z</time>
      </trkpt>
      <trkpt lat="48.650475" lon="-1.508322">
        <ele>0.790</ele>
        <time>2026-08-21T16:41:25.999Z</time>
      </trkpt>
      <trkpt lat="48.650462" lon="-1.508325">
        <ele>0.783</ele>
        <time>2026-08-21T16:41:26.999Z</time>
      </trkpt>
      <trkpt lat="48.650450" lon="-1.508324">
        <ele>0.710</ele>
        <time>2026-08-21T16:41:27.999Z</time>
      </trkpt>
      <trkpt lat="48.650440" lon="-1.508320">
        <ele>0.781</ele>
        <time>2026-08-21T16:41:28.999Z</time>
      </trkpt>
      <trkpt lat="48.650423" lon="-1.508315">
        <ele>0.725</ele>
        <time>2026-08-21T16:41:30.999Z</time>
      </trkpt>
      <trkpt lat="48.650410" lon="-1.508314">
        <ele>0.792</ele>
        <time>2026-08-21T16:41:31.999Z</time>
      </trkpt>
      <trkpt lat="48.650396" lon="-1.508318">
        <ele>0.719</ele>
        <time>2026-08-21T16:41:32.999Z</time>
      </trkpt>
      <trkpt lat="48.650386" lon="-1.508320">
        <ele>0.709</ele>
        <time>2026-08-21T16:41:33.999Z</time>
      </trkpt>
      <trkpt lat="48.650377" lon="-1.508320">
        <ele>0.719</ele>
        <time>2026-08-21T16:41:34.999Z</time>
      </trkpt>
      <trkpt lat="48.650367" lon="-1.508317">
        <ele>0.809</ele>
        <time>2026-08-21T16:41:35.999Z</time>
      </trkpt>
      <trkpt lat="48.650357" lon="-1.508320">
        <ele>0.863</ele>
        <time>2026-08-21T16:41:36.999Z</time>
      </trkpt>
      <trkpt lat="48.650343" lon="-1.508322">
        <ele>0.849</ele>
        <time>2026-08-21T16:41:37.999Z</time>
      </trkpt>
      <trkpt lat="48.650328" lon="-1.508323">
        <ele>0.832</ele>
        <time>2026-08-21T16:41:38.999Z</time>
      </trkpt>
      <trkpt lat="48.650311" lon="-1.508326">
        <ele>0.913</ele>
        <time>2026-08-21T16:41:40.999Z</time>
      </trkpt>
      <trkpt lat="48.650299" lon="-1.508327">
        <ele>0.986</ele>
        <time>2026-08-21T16:41:41.999Z</time>
      </trkpt>
      <trkpt lat="48.650289" lon="-1.508327">
        <ele>0.953</ele>
        <time>2026-08-21T16:41:42.999Z</time>
      </trkpt>
      <trkpt lat="48.650276" lon="-1.508327">
        <ele>0.914</ele>
        <time>2026-08-21T16:41:43.999Z</time>
      </trkpt>
      <trkpt lat="48.650263" lon="-1.508327">
        <ele>1.068</ele>
        <time>2026-08-21T16:41:44.999Z</time>
      </trkpt>
      <trkpt lat="48.650251" lon="-1.508330">
        <ele>1.095</ele>
        <time>2026-08-21T16:41:45.999Z</time>
      </trkpt>
      <trkpt lat="48.650240" lon="-1.508330">
        <ele>1.135</ele>
        <time>2026-08-21T16:41:46.999Z</time>
      </trkpt>
      <trkpt lat="48.650223" lon="-1.508326">
        <ele>1.186</ele>
        <time>2026-08-21T16:41:48.999Z</time>
      </trkpt>
      <trkpt lat="48.650212" lon="-1.508325">
        <ele>1.114</ele>
        <time>2026-08-21T16:41:49.999Z</time>
      </trkpt>
      <trkpt lat="48.650200" lon="-1.508327">
        <ele>1.209</ele>
        <time>2026-08-21T16:41:50.999Z</time>
      </trkpt>
      <trkpt lat="48.650189" lon="-1.508330">
        <ele>1.285</ele>
        <time>2026-08-21T16:41:51.999Z</time>
      </trkpt>
      <trkpt lat="48.650180" lon="-1.508330">
        <ele>1.261</ele>
        <time>2026-08-21T16:41:52.999Z</time>
      </trkpt>
      <trkpt lat="48.650160" lon="-1.508332">
        <ele>1.284</ele>
        <time>2026-08-21T16:41:54.999Z</time>
      </trkpt>
      <trkpt lat="48.650149" lon="-1.508332">
        <ele>1.225</ele>
        <time>2026-08-21T16:41:55.999Z</time>
      </trkpt>
      <trkpt lat="48.650136" lon="-1.508333">
        <ele>1.268</ele>
        <time>2026-08-21T16:41:56.999Z</time>
      </trkpt>
      <trkpt lat="48.650126" lon="-1.508329">
        <ele>1.275</ele>
        <time>2026-08-21T16:41:57.999Z</time>
      </trkpt>
      <trkpt lat="48.650116" lon="-1.508327">
        <ele>1.246</ele>
        <time>2026-08-21T16:41:58.999Z</time>
      </trkpt>
      <trkpt lat="48.650107" lon="-1.508326">
        <ele>1.210</ele>
        <time>2026-08-21T16:41:59.999Z</time>
      </trkpt>
      <trkpt lat="48.650095" lon="-1.508327">
        <ele>1.247</ele>
        <time>2026-08-21T16:42:00.999Z</time>
      </trkpt>
      <trkpt lat="48.650081" lon="-1.508329">
        <ele>1.273</ele>
        <time>2026-08-21T16:42:01.999Z</time>
      </trkpt>
      <trkpt lat="48.650068" lon="-1.508331">
        <ele>1.285</ele>
        <time>2026-08-21T16:42:02.999Z</time>
      </trkpt>
      <trkpt lat="48.650059" lon="-1.508330">
        <ele>1.213</ele>
        <time>2026-08-21T16:42:03.999Z</time>
      </trkpt>
      <trkpt lat="48.650042" lon="-1.508330">
        <ele>1.209</ele>
        <time>2026-08-21T16:42:05.999Z</time>
      </trkpt>
      <trkpt lat="48.650030" lon="-1.508331">
        <ele>1.269</ele>
        <time>2026-08-21T16:42:06.999Z</time>
      </trkpt>
      <trkpt lat="48.650017" lon="-1.508332">
        <ele>1.295</ele>
        <time>2026-08-21T16:42:07.999Z</time>
      </trkpt>
      <trkpt lat="48.650003" lon="-1.508332">
        <ele>1.228</ele>
        <time>2026-08-21T16:42:08.999Z</time>
      </trkpt>
      <trkpt lat="48.649991" lon="-1.508329">
        <ele>1.219</ele>
        <time>2026-08-21T16:42:09.999Z</time>
      </trkpt>
      <trkpt lat="48.649975" lon="-1.508326">
        <ele>1.292</ele>
        <time>2026-08-21T16:42:11.999Z</time>
      </trkpt>
      <trkpt lat="48.649966" lon="-1.508329">
        <ele>1.259</ele>
        <time>2026-08-21T16:42:12.999Z</time>
      </trkpt>
      <trkpt lat="48.649952" lon="-1.508331">
        <ele>1.280</ele>
        <time>2026-08-21T16:42:13.999Z</time>
      </trkpt>
      <trkpt lat="48.649938" lon="-1.508332">
        <ele>1.264</ele>
        <time>2026-08-21T16:42:14.999Z</time>
      </trkpt>
      <trkpt lat="48.649920" lon="-1.508333">
        <ele>1.261</ele>
        <time>2026-08-21T16:42:16.999Z</time>
      </trkpt>
      <trkpt lat="48.649910" lon="-1.508332">
        <ele>1.292</ele>
        <time>2026-08-21T16:42:17.999Z</time>
      </trkpt>
      <trkpt lat="48.649898" lon="-1.508333">
        <ele>1.273</ele>
        <time>2026-08-21T16:42:18.999Z</time>
      </trkpt>
      <trkpt lat="48.649884" lon="-1.508334">
        <ele>1.220</ele>
        <time>2026-08-21T16:42:19.999Z</time>
      </trkpt>
      <trkpt lat="48.649871" lon="-1.508338">
        <ele>1.209</ele>
        <time>2026-08-21T16:42:20.999Z</time>
      </trkpt>
      <trkpt lat="48.649861" lon="-1.508335">
        <ele>1.241</ele>
        <time>2026-08-21T16:42:21.999Z</time>
      </trkpt>
      <trkpt lat="48.649846" lon="-1.508339">
        <ele>1.237</ele>
        <time>2026-08-21T16:42:23.999Z</time>
      </trkpt>
      <trkpt lat="48.649833" lon="-1.508338">
        <ele>1.280</ele>
        <time>2026-08-21T16:42:24.999Z</time>
      </trkpt>
      <trkpt lat="48.649818" lon="-1.508336">
        <ele>1.281</ele>
        <time>2026-08-21T16:42:25.999Z</time>
      </trkpt>
      <trkpt lat="48.649804" lon="-1.508337">
        <ele>1.254</ele>
        <time>2026-08-21T16:42:26.999Z</time>
      </trkpt>
      <trkpt lat="48.649793" lon="-1.508336">
        <ele>1.251</ele>
        <time>2026-08-21T16:42:27.999Z</time>
      </trkpt>
      <trkpt lat="48.649776" lon="-1.508339">
        <ele>1.232</ele>
        <time>2026-08-21T16:42:29.999Z</time>
      </trkpt>
      <trkpt lat="48.649765" lon="-1.508340">
        <ele>1.246</ele>
        <time>2026-08-21T16:42:30.999Z</time>
      </trkpt>
      <trkpt lat="48.649754" lon="-1.508342">
        <ele>1.333</ele>
        <time>2026-08-21T16:42:31.999Z</time>
      </trkpt>
      <trkpt lat="48.649742" lon="-1.508343">
        <ele>1.313</ele>
        <time>2026-08-21T16:42:32.999Z</time>
      </trkpt>
      <trkpt lat="48.649732" lon="-1.508346">
        <ele>1.343</ele>
        <time>2026-08-21T16:42:33.999Z</time>
      </trkpt>
      <trkpt lat="48.649723" lon="-1.508348">
        <ele>1.307</ele>
        <time>2026-08-21T16:42:34.999Z</time>
      </trkpt>
      <trkpt lat="48.649713" lon="-1.508352">
        <ele>1.309</ele>
        <time>2026-08-21T16:42:35.999Z</time>
      </trkpt>
      <trkpt lat="48.649701" lon="-1.508355">
        <ele>1.473</ele>
        <time>2026-08-21T16:42:36.999Z</time>
      </trkpt>
      <trkpt lat="48.649690" lon="-1.508355">
        <ele>1.479</ele>
        <time>2026-08-21T16:42:37.999Z</time>
      </trkpt>
      <trkpt lat="48.649674" lon="-1.508357">
        <ele>1.582</ele>
        <time>2026-08-21T16:42:38.999Z</time>
      </trkpt>
      <trkpt lat="48.649661" lon="-1.508356">
        <ele>1.533</ele>
        <time>2026-08-21T16:42:39.999Z</time>
      </trkpt>
      <trkpt lat="48.649648" lon="-1.508355">
        <ele>1.526</ele>
        <time>2026-08-21T16:42:40.999Z</time>
      </trkpt>
      <trkpt lat="48.649638" lon="-1.508353">
        <ele>1.583</ele>
        <time>2026-08-21T16:42:41.999Z</time>
      </trkpt>
      <trkpt lat="48.649628" lon="-1.508352">
        <ele>1.594</ele>
        <time>2026-08-21T16:42:42.999Z</time>
      </trkpt>
      <trkpt lat="48.649618" lon="-1.508351">
        <ele>1.598</ele>
        <time>2026-08-21T16:42:43.999Z</time>
      </trkpt>
      <trkpt lat="48.649606" lon="-1.508355">
        <ele>1.565</ele>
        <time>2026-08-21T16:42:44.999Z</time>
      </trkpt>
      <trkpt lat="48.649594" lon="-1.508359">
        <ele>1.556</ele>
        <time>2026-08-21T16:42:45.999Z</time>
      </trkpt>
      <trkpt lat="48.649581" lon="-1.508360">
        <ele>1.559</ele>
        <time>2026-08-21T16:42:46.999Z</time>
      </trkpt>
      <trkpt lat="48.649571" lon="-1.508359">
        <ele>1.514</ele>
        <time>2026-08-21T16:42:47.999Z</time>
      </trkpt>
      <trkpt lat="48.649559" lon="-1.508358">
        <ele>1.509</ele>
        <time>2026-08-21T16:42:48.999Z</time>
      </trkpt>
      <trkpt lat="48.649541" lon="-1.508354">
        <ele>1.597</ele>
        <time>2026-08-21T16:42:50.999Z</time>
      </trkpt>
      <trkpt lat="48.649529" lon="-1.508353">
        <ele>1.523</ele>
        <time>2026-08-21T16:42:51.999Z</time>
      </trkpt>
      <trkpt lat="48.649517" lon="-1.508358">
        <ele>1.636</ele>
        <time>2026-08-21T16:42:52.999Z</time>
      </trkpt>
      <trkpt lat="48.649503" lon="-1.508361">
        <ele>1.637</ele>
        <time>2026-08-21T16:42:53.999Z</time>
      </trkpt>
      <trkpt lat="48.649492" lon="-1.508360">
        <ele>1.620</ele>
        <time>2026-08-21T16:42:54.999Z</time>
      </trkpt>
      <trkpt lat="48.649482" lon="-1.508361">
        <ele>1.647</ele>
        <time>2026-08-21T16:42:55.999Z</time>
      </trkpt>
      <trkpt lat="48.649461" lon="-1.508357">
        <ele>1.688</ele>
        <time>2026-08-21T16:42:57.999Z</time>
      </trkpt>
      <trkpt lat="48.649448" lon="-1.508354">
        <ele>1.642</ele>
        <time>2026-08-21T16:42:58.999Z</time>
      </trkpt>
      <trkpt lat="48.649433" lon="-1.508353">
        <ele>1.669</ele>
        <time>2026-08-21T16:42:59.999Z</time>
      </trkpt>
      <trkpt lat="48.649420" lon="-1.508352">
        <ele>1.674</ele>
        <time>2026-08-21T16:43:00.999Z</time>
      </trkpt>
      <trkpt lat="48.649408" lon="-1.508351">
        <ele>1.556</ele>
        <time>2026-08-21T16:43:01.999Z</time>
      </trkpt>
      <trkpt lat="48.649398" lon="-1.508349">
        <ele>1.521</ele>
        <time>2026-08-21T16:43:02.999Z</time>
      </trkpt>
      <trkpt lat="48.649380" lon="-1.508343">
        <ele>1.509</ele>
        <time>2026-08-21T16:43:04.999Z</time>
      </trkpt>
      <trkpt lat="48.649366" lon="-1.508344">
        <ele>1.569</ele>
        <time>2026-08-21T16:43:05.999Z</time>
      </trkpt>
      <trkpt lat="48.649353" lon="-1.508349">
        <ele>1.535</ele>
        <time>2026-08-21T16:43:06.999Z</time>
      </trkpt>
      <trkpt lat="48.649339" lon="-1.508351">
        <ele>1.688</ele>
        <time>2026-08-21T16:43:07.999Z</time>
      </trkpt>
      <trkpt lat="48.649328" lon="-1.508351">
        <ele>1.669</ele>
        <time>2026-08-21T16:43:08.999Z</time>
      </trkpt>
      <trkpt lat="48.649318" lon="-1.508349">
        <ele>1.662</ele>
        <time>2026-08-21T16:43:09.999Z</time>
      </trkpt>
      <trkpt lat="48.649309" lon="-1.508346">
        <ele>1.719</ele>
        <time>2026-08-21T16:43:10.999Z</time>
      </trkpt>
      <trkpt lat="48.649298" lon="-1.508344">
        <ele>1.760</ele>
        <time>2026-08-21T16:43:11.999Z</time>
      </trkpt>
      <trkpt lat="48.649285" lon="-1.508342">
        <ele>1.774</ele>
        <time>2026-08-21T16:43:12.999Z</time>
      </trkpt>
      <trkpt lat="48.649273" lon="-1.508343">
        <ele>1.791</ele>
        <time>2026-08-21T16:43:13.999Z</time>
      </trkpt>
      <trkpt lat="48.649262" lon="-1.508341">
        <ele>1.818</ele>
        <time>2026-08-21T16:43:14.999Z</time>
      </trkpt>
      <trkpt lat="48.649248" lon="-1.508334">
        <ele>1.898</ele>
        <time>2026-08-21T16:43:16.999Z</time>
      </trkpt>
      <trkpt lat="48.649237" lon="-1.508333">
        <ele>1.817</ele>
        <time>2026-08-21T16:43:17.999Z</time>
      </trkpt>
      <trkpt lat="48.649227" lon="-1.508331">
        <ele>1.809</ele>
        <time>2026-08-21T16:43:18.999Z</time>
      </trkpt>
      <trkpt lat="48.649214" lon="-1.508333">
        <ele>1.813</ele>
        <time>2026-08-21T16:43:19.999Z</time>
      </trkpt>
      <trkpt lat="48.649201" lon="-1.508333">
        <ele>1.829</ele>
        <time>2026-08-21T16:43:20.999Z</time>
      </trkpt>
      <trkpt lat="48.649181" lon="-1.508331">
        <ele>1.882</ele>
        <time>2026-08-21T16:43:22.999Z</time>
      </trkpt>
      <trkpt lat="48.649172" lon="-1.508330">
        <ele>1.813</ele>
        <time>2026-08-21T16:43:23.999Z</time>
      </trkpt>
      <trkpt lat="48.649161" lon="-1.508331">
        <ele>1.786</ele>
        <time>2026-08-21T16:43:24.999Z</time>
      </trkpt>
      <trkpt lat="48.649148" lon="-1.508333">
        <ele>1.753</ele>
        <time>2026-08-21T16:43:25.999Z</time>
      </trkpt>
      <trkpt lat="48.649135" lon="-1.508334">
        <ele>1.724</ele>
        <time>2026-08-21T16:43:26.999Z</time>
      </trkpt>
      <trkpt lat="48.649124" lon="-1.508334">
        <ele>1.798</ele>
        <time>2026-08-21T16:43:27.999Z</time>
      </trkpt>
      <trkpt lat="48.649114" lon="-1.508329">
        <ele>1.795</ele>
        <time>2026-08-21T16:43:28.999Z</time>
      </trkpt>
      <trkpt lat="48.649103" lon="-1.508323">
        <ele>1.754</ele>
        <time>2026-08-21T16:43:29.999Z</time>
      </trkpt>
      <trkpt lat="48.649093" lon="-1.508321">
        <ele>1.756</ele>
        <time>2026-08-21T16:43:30.999Z</time>
      </trkpt>
      <trkpt lat="48.649081" lon="-1.508324">
        <ele>1.611</ele>
        <time>2026-08-21T16:43:31.999Z</time>
      </trkpt>
      <trkpt lat="48.649068" lon="-1.508326">
        <ele>1.609</ele>
        <time>2026-08-21T16:43:32.999Z</time>
      </trkpt>
      <trkpt lat="48.649057" lon="-1.508325">
        <ele>1.687</ele>
        <time>2026-08-21T16:43:33.999Z</time>
      </trkpt>
      <trkpt lat="48.649046" lon="-1.508327">
        <ele>1.633</ele>
        <time>2026-08-21T16:43:34.999Z</time>
      </trkpt>
      <trkpt lat="48.649037" lon="-1.508328">
        <ele>1.686</ele>
        <time>2026-08-21T16:43:35.999Z</time>
      </trkpt>
      <trkpt lat="48.649027" lon="-1.508328">
        <ele>1.567</ele>
        <time>2026-08-21T16:43:36.999Z</time>
      </trkpt>
      <trkpt lat="48.649014" lon="-1.508326">
        <ele>1.510</ele>
        <time>2026-08-21T16:43:37.999Z</time>
      </trkpt>
      <trkpt lat="48.649001" lon="-1.508323">
        <ele>1.557</ele>
        <time>2026-08-21T16:43:38.999Z</time>
      </trkpt>
      <trkpt lat="48.648987" lon="-1.508325">
        <ele>1.438</ele>
        <time>2026-08-21T16:43:39.999Z</time>
      </trkpt>
      <trkpt lat="48.648975" lon="-1.508325">
        <ele>1.332</ele>
        <time>2026-08-21T16:43:40.999Z</time>
      </trkpt>
      <trkpt lat="48.648958" lon="-1.508325">
        <ele>1.389</ele>
        <time>2026-08-21T16:43:42.999Z</time>
      </trkpt>
      <trkpt lat="48.648936" lon="-1.508325">
        <ele>1.327</ele>
        <time>2026-08-21T16:43:44.999Z</time>
      </trkpt>
      <trkpt lat="48.648924" lon="-1.508329">
        <ele>1.368</ele>
        <time>2026-08-21T16:43:45.999Z</time>
      </trkpt>
      <trkpt lat="48.648912" lon="-1.508329">
        <ele>1.314</ele>
        <time>2026-08-21T16:43:46.999Z</time>
      </trkpt>
      <trkpt lat="48.648902" lon="-1.508330">
        <ele>1.309</ele>
        <time>2026-08-21T16:43:47.999Z</time>
      </trkpt>
      <trkpt lat="48.648892" lon="-1.508328">
        <ele>1.314</ele>
        <time>2026-08-21T16:43:48.999Z</time>
      </trkpt>
      <trkpt lat="48.648881" lon="-1.508324">
        <ele>1.360</ele>
        <time>2026-08-21T16:43:49.999Z</time>
      </trkpt>
      <trkpt lat="48.648870" lon="-1.508324">
        <ele>1.323</ele>
        <time>2026-08-21T16:43:50.999Z</time>
      </trkpt>
      <trkpt lat="48.648857" lon="-1.508321">
        <ele>1.364</ele>
        <time>2026-08-21T16:43:51.999Z</time>
      </trkpt>
      <trkpt lat="48.648843" lon="-1.508320">
        <ele>1.357</ele>
        <time>2026-08-21T16:43:52.999Z</time>
      </trkpt>
      <trkpt lat="48.648832" lon="-1.508316">
        <ele>1.334</ele>
        <time>2026-08-21T16:43:53.999Z</time>
      </trkpt>
      <trkpt lat="48.648822" lon="-1.508316">
        <ele>1.355</ele>
        <time>2026-08-21T16:43:54.999Z</time>
      </trkpt>
      <trkpt lat="48.648811" lon="-1.508312">
        <ele>1.369</ele>
        <time>2026-08-21T16:43:55.999Z</time>
      </trkpt>
      <trkpt lat="48.648802" lon="-1.508313">
        <ele>1.366</ele>
        <time>2026-08-21T16:43:56.999Z</time>
      </trkpt>
      <trkpt lat="48.648782" lon="-1.508314">
        <ele>1.393</ele>
        <time>2026-08-21T16:43:58.999Z</time>
      </trkpt>
      <trkpt lat="48.648769" lon="-1.508317">
        <ele>1.365</ele>
        <time>2026-08-21T16:43:59.999Z</time>
      </trkpt>
      <trkpt lat="48.648755" lon="-1.508314">
        <ele>1.321</ele>
        <time>2026-08-21T16:44:00.999Z</time>
      </trkpt>
      <trkpt lat="48.648745" lon="-1.508314">
        <ele>1.309</ele>
        <time>2026-08-21T16:44:01.999Z</time>
      </trkpt>
      <trkpt lat="48.648736" lon="-1.508311">
        <ele>1.321</ele>
        <time>2026-08-21T16:44:02.999Z</time>
      </trkpt>
      <trkpt lat="48.648724" lon="-1.508311">
        <ele>1.337</ele>
        <time>2026-08-21T16:44:03.999Z</time>
      </trkpt>
      <trkpt lat="48.648710" lon="-1.508312">
        <ele>1.330</ele>
        <time>2026-08-21T16:44:04.999Z</time>
      </trkpt>
      <trkpt lat="48.648697" lon="-1.508316">
        <ele>1.351</ele>
        <time>2026-08-21T16:44:05.999Z</time>
      </trkpt>
      <trkpt lat="48.648687" lon="-1.508314">
        <ele>1.364</ele>
        <time>2026-08-21T16:44:06.999Z</time>
      </trkpt>
      <trkpt lat="48.648677" lon="-1.508311">
        <ele>1.321</ele>
        <time>2026-08-21T16:44:07.999Z</time>
      </trkpt>
      <trkpt lat="48.648668" lon="-1.508309">
        <ele>1.332</ele>
        <time>2026-08-21T16:44:08.999Z</time>
      </trkpt>
      <trkpt lat="48.648656" lon="-1.508308">
        <ele>1.346</ele>
        <time>2026-08-21T16:44:09.999Z</time>
      </trkpt>
      <trkpt lat="48.648645" lon="-1.508310">
        <ele>1.333</ele>
        <time>2026-08-21T16:44:10.999Z</time>
      </trkpt>
      <trkpt lat="48.648631" lon="-1.508311">
        <ele>1.399</ele>
        <time>2026-08-21T16:44:11.999Z</time>
      </trkpt>
      <trkpt lat="48.648618" lon="-1.508311">
        <ele>1.307</ele>
        <time>2026-08-21T16:44:12.999Z</time>
      </trkpt>
      <trkpt lat="48.648608" lon="-1.508309">
        <ele>1.327</ele>
        <time>2026-08-21T16:44:13.999Z</time>
      </trkpt>
      <trkpt lat="48.648597" lon="-1.508307">
        <ele>1.309</ele>
        <time>2026-08-21T16:44:14.999Z</time>
      </trkpt>
      <trkpt lat="48.648588" lon="-1.508308">
        <ele>1.431</ele>
        <time>2026-08-21T16:44:15.999Z</time>
      </trkpt>
      <trkpt lat="48.648568" lon="-1.508304">
        <ele>1.467</ele>
        <time>2026-08-21T16:44:17.999Z</time>
      </trkpt>
      <trkpt lat="48.648555" lon="-1.508306">
        <ele>1.470</ele>
        <time>2026-08-21T16:44:18.999Z</time>
      </trkpt>
      <trkpt lat="48.648543" lon="-1.508310">
        <ele>1.421</ele>
        <time>2026-08-21T16:44:19.999Z</time>
      </trkpt>
      <trkpt lat="48.648531" lon="-1.508309">
        <ele>1.434</ele>
        <time>2026-08-21T16:44:20.999Z</time>
      </trkpt>
      <trkpt lat="48.648520" lon="-1.508305">
        <ele>1.431</ele>
        <time>2026-08-21T16:44:21.999Z</time>
      </trkpt>
      <trkpt lat="48.648501" lon="-1.508302">
        <ele>1.412</ele>
        <time>2026-08-21T16:44:23.999Z</time>
      </trkpt>
      <trkpt lat="48.648489" lon="-1.508301">
        <ele>1.426</ele>
        <time>2026-08-21T16:44:24.999Z</time>
      </trkpt>
      <trkpt lat="48.648474" lon="-1.508302">
        <ele>1.493</ele>
        <time>2026-08-21T16:44:25.999Z</time>
      </trkpt>
      <trkpt lat="48.648461" lon="-1.508301">
        <ele>1.494</ele>
        <time>2026-08-21T16:44:26.999Z</time>
      </trkpt>
      <trkpt lat="48.648451" lon="-1.508302">
        <ele>1.457</ele>
        <time>2026-08-21T16:44:27.999Z</time>
      </trkpt>
      <trkpt lat="48.648439" lon="-1.508299">
        <ele>1.422</ele>
        <time>2026-08-21T16:44:28.999Z</time>
      </trkpt>
      <trkpt lat="48.648427" lon="-1.508299">
        <ele>1.409</ele>
        <time>2026-08-21T16:44:29.999Z</time>
      </trkpt>
      <trkpt lat="48.648417" lon="-1.508299">
        <ele>1.581</ele>
        <time>2026-08-21T16:44:30.999Z</time>
      </trkpt>
      <trkpt lat="48.648406" lon="-1.508300">
        <ele>1.587</ele>
        <time>2026-08-21T16:44:31.999Z</time>
      </trkpt>
      <trkpt lat="48.648397" lon="-1.508305">
        <ele>1.550</ele>
        <time>2026-08-21T16:44:32.999Z</time>
      </trkpt>
      <trkpt lat="48.648388" lon="-1.508304">
        <ele>1.521</ele>
        <time>2026-08-21T16:44:33.999Z</time>
      </trkpt>
      <trkpt lat="48.648372" lon="-1.508307">
        <ele>1.524</ele>
        <time>2026-08-21T16:44:35.999Z</time>
      </trkpt>
      <trkpt lat="48.648360" lon="-1.508309">
        <ele>1.461</ele>
        <time>2026-08-21T16:44:36.999Z</time>
      </trkpt>
      <trkpt lat="48.648348" lon="-1.508312">
        <ele>1.442</ele>
        <time>2026-08-21T16:44:37.999Z</time>
      </trkpt>
      <trkpt lat="48.648338" lon="-1.508314">
        <ele>1.446</ele>
        <time>2026-08-21T16:44:38.999Z</time>
      </trkpt>
      <trkpt lat="48.648327" lon="-1.508315">
        <ele>1.473</ele>
        <time>2026-08-21T16:44:39.999Z</time>
      </trkpt>
      <trkpt lat="48.648314" lon="-1.508314">
        <ele>1.434</ele>
        <time>2026-08-21T16:44:40.999Z</time>
      </trkpt>
      <trkpt lat="48.648305" lon="-1.508313">
        <ele>1.455</ele>
        <time>2026-08-21T16:44:41.999Z</time>
      </trkpt>
      <trkpt lat="48.648293" lon="-1.508311">
        <ele>1.410</ele>
        <time>2026-08-21T16:44:42.999Z</time>
      </trkpt>
      <trkpt lat="48.648282" lon="-1.508313">
        <ele>1.409</ele>
        <time>2026-08-21T16:44:43.999Z</time>
      </trkpt>
      <trkpt lat="48.648270" lon="-1.508315">
        <ele>1.445</ele>
        <time>2026-08-21T16:44:44.999Z</time>
      </trkpt>
      <trkpt lat="48.648260" lon="-1.508316">
        <ele>1.481</ele>
        <time>2026-08-21T16:44:45.999Z</time>
      </trkpt>
      <trkpt lat="48.648249" lon="-1.508317">
        <ele>1.424</ele>
        <time>2026-08-21T16:44:46.999Z</time>
      </trkpt>
      <trkpt lat="48.648230" lon="-1.508318">
        <ele>1.485</ele>
        <time>2026-08-21T16:44:48.999Z</time>
      </trkpt>
      <trkpt lat="48.648216" lon="-1.508318">
        <ele>1.488</ele>
        <time>2026-08-21T16:44:49.999Z</time>
      </trkpt>
      <trkpt lat="48.648203" lon="-1.508318">
        <ele>1.325</ele>
        <time>2026-08-21T16:44:50.999Z</time>
      </trkpt>
      <trkpt lat="48.648191" lon="-1.508320">
        <ele>1.216</ele>
        <time>2026-08-21T16:44:51.999Z</time>
      </trkpt>
      <trkpt lat="48.648181" lon="-1.508321">
        <ele>1.020</ele>
        <time>2026-08-21T16:44:52.999Z</time>
      </trkpt>
      <trkpt lat="48.648164" lon="-1.508319">
        <ele>0.977</ele>
        <time>2026-08-21T16:44:54.999Z</time>
      </trkpt>
      <trkpt lat="48.648152" lon="-1.508322">
        <ele>0.881</ele>
        <time>2026-08-21T16:44:55.999Z</time>
      </trkpt>
      <trkpt lat="48.648140" lon="-1.508321">
        <ele>0.861</ele>
        <time>2026-08-21T16:44:56.999Z</time>
      </trkpt>
      <trkpt lat="48.648124" lon="-1.508318">
        <ele>0.717</ele>
        <time>2026-08-21T16:44:57.999Z</time>
      </trkpt>
      <trkpt lat="48.648113" lon="-1.508316">
        <ele>0.709</ele>
        <time>2026-08-21T16:44:58.999Z</time>
      </trkpt>
      <trkpt lat="48.648102" lon="-1.508317">
        <ele>0.760</ele>
        <time>2026-08-21T16:44:59.999Z</time>
      </trkpt>
      <trkpt lat="48.648092" lon="-1.508318">
        <ele>0.756</ele>
        <time>2026-08-21T16:45:00.999Z</time>
      </trkpt>
      <trkpt lat="48.648082" lon="-1.508322">
        <ele>0.789</ele>
        <time>2026-08-21T16:45:01.999Z</time>
      </trkpt>
      <trkpt lat="48.648069" lon="-1.508322">
        <ele>0.770</ele>
        <time>2026-08-21T16:45:02.999Z</time>
      </trkpt>
      <trkpt lat="48.648056" lon="-1.508324">
        <ele>0.763</ele>
        <time>2026-08-21T16:45:03.999Z</time>
      </trkpt>
      <trkpt lat="48.648044" lon="-1.508324">
        <ele>0.770</ele>
        <time>2026-08-21T16:45:04.999Z</time>
      </trkpt>
      <trkpt lat="48.648034" lon="-1.508322">
        <ele>0.761</ele>
        <time>2026-08-21T16:45:05.999Z</time>
      </trkpt>
      <trkpt lat="48.648016" lon="-1.508320">
        <ele>0.785</ele>
        <time>2026-08-21T16:45:07.999Z</time>
      </trkpt>
      <trkpt lat="48.648007" lon="-1.508322">
        <ele>0.792</ele>
        <time>2026-08-21T16:45:08.999Z</time>
      </trkpt>
      <trkpt lat="48.647995" lon="-1.508321">
        <ele>0.793</ele>
        <time>2026-08-21T16:45:09.999Z</time>
      </trkpt>
      <trkpt lat="48.647981" lon="-1.508320">
        <ele>0.765</ele>
        <time>2026-08-21T16:45:10.999Z</time>
      </trkpt>
      <trkpt lat="48.647967" lon="-1.508317">
        <ele>0.721</ele>
        <time>2026-08-21T16:45:11.999Z</time>
      </trkpt>
      <trkpt lat="48.647957" lon="-1.508311">
        <ele>0.709</ele>
        <time>2026-08-21T16:45:12.999Z</time>
      </trkpt>
      <trkpt lat="48.647940" lon="-1.508308">
        <ele>0.741</ele>
        <time>2026-08-21T16:45:14.999Z</time>
      </trkpt>
      <trkpt lat="48.647927" lon="-1.508308">
        <ele>0.727</ele>
        <time>2026-08-21T16:45:15.999Z</time>
      </trkpt>
      <trkpt lat="48.647914" lon="-1.508310">
        <ele>0.860</ele>
        <time>2026-08-21T16:45:16.999Z</time>
      </trkpt>
      <trkpt lat="48.647899" lon="-1.508312">
        <ele>0.831</ele>
        <time>2026-08-21T16:45:17.999Z</time>
      </trkpt>
      <trkpt lat="48.647883" lon="-1.508321">
        <ele>0.834</ele>
        <time>2026-08-21T16:45:19.999Z</time>
      </trkpt>
      <trkpt lat="48.647873" lon="-1.508317">
        <ele>0.821</ele>
        <time>2026-08-21T16:45:20.999Z</time>
      </trkpt>
      <trkpt lat="48.647859" lon="-1.508311">
        <ele>0.822</ele>
        <time>2026-08-21T16:45:21.999Z</time>
      </trkpt>
      <trkpt lat="48.647846" lon="-1.508310">
        <ele>0.846</ele>
        <time>2026-08-21T16:45:22.999Z</time>
      </trkpt>
      <trkpt lat="48.647833" lon="-1.508310">
        <ele>0.913</ele>
        <time>2026-08-21T16:45:23.999Z</time>
      </trkpt>
      <trkpt lat="48.647822" lon="-1.508310">
        <ele>0.924</ele>
        <time>2026-08-21T16:45:24.999Z</time>
      </trkpt>
      <trkpt lat="48.647812" lon="-1.508312">
        <ele>0.904</ele>
        <time>2026-08-21T16:45:25.999Z</time>
      </trkpt>
      <trkpt lat="48.647793" lon="-1.508304">
        <ele>0.914</ele>
        <time>2026-08-21T16:45:27.999Z</time>
      </trkpt>
      <trkpt lat="48.647783" lon="-1.508301">
        <ele>0.909</ele>
        <time>2026-08-21T16:45:28.999Z</time>
      </trkpt>
      <trkpt lat="48.647770" lon="-1.508299">
        <ele>0.934</ele>
        <time>2026-08-21T16:45:29.999Z</time>
      </trkpt>
      <trkpt lat="48.647756" lon="-1.508300">
        <ele>0.990</ele>
        <time>2026-08-21T16:45:30.999Z</time>
      </trkpt>
      <trkpt lat="48.647745" lon="-1.508298">
        <ele>0.913</ele>
        <time>2026-08-21T16:45:31.999Z</time>
      </trkpt>
      <trkpt lat="48.647736" lon="-1.508298">
        <ele>0.924</ele>
        <time>2026-08-21T16:45:32.999Z</time>
      </trkpt>
      <trkpt lat="48.647726" lon="-1.508297">
        <ele>0.977</ele>
        <time>2026-08-21T16:45:33.999Z</time>
      </trkpt>
      <trkpt lat="48.647716" lon="-1.508299">
        <ele>0.994</ele>
        <time>2026-08-21T16:45:34.999Z</time>
      </trkpt>
      <trkpt lat="48.647705" lon="-1.508302">
        <ele>0.965</ele>
        <time>2026-08-21T16:45:35.999Z</time>
      </trkpt>
      <trkpt lat="48.647691" lon="-1.508304">
        <ele>0.999</ele>
        <time>2026-08-21T16:45:36.999Z</time>
      </trkpt>
      <trkpt lat="48.647680" lon="-1.508302">
        <ele>0.996</ele>
        <time>2026-08-21T16:45:37.999Z</time>
      </trkpt>
      <trkpt lat="48.647662" lon="-1.508300">
        <ele>0.922</ele>
        <time>2026-08-21T16:45:39.999Z</time>
      </trkpt>
      <trkpt lat="48.647650" lon="-1.508297">
        <ele>0.962</ele>
        <time>2026-08-21T16:45:40.999Z</time>
      </trkpt>
      <trkpt lat="48.647637" lon="-1.508293">
        <ele>0.908</ele>
        <time>2026-08-21T16:45:41.999Z</time>
      </trkpt>
      <trkpt lat="48.647623" lon="-1.508293">
        <ele>0.909</ele>
        <time>2026-08-21T16:45:42.999Z</time>
      </trkpt>
      <trkpt lat="48.647609" lon="-1.508294">
        <ele>0.954</ele>
        <time>2026-08-21T16:45:43.999Z</time>
      </trkpt>
      <trkpt lat="48.647600" lon="-1.508299">
        <ele>0.940</ele>
        <time>2026-08-21T16:45:44.999Z</time>
      </trkpt>
      <trkpt lat="48.647584" lon="-1.508301">
        <ele>0.943</ele>
        <time>2026-08-21T16:45:46.999Z</time>
      </trkpt>
      <trkpt lat="48.647574" lon="-1.508294">
        <ele>1.054</ele>
        <time>2026-08-21T16:45:47.999Z</time>
      </trkpt>
      <trkpt lat="48.647562" lon="-1.508289">
        <ele>1.067</ele>
        <time>2026-08-21T16:45:48.999Z</time>
      </trkpt>
      <trkpt lat="48.647549" lon="-1.508282">
        <ele>1.044</ele>
        <time>2026-08-21T16:45:49.999Z</time>
      </trkpt>
      <trkpt lat="48.647536" lon="-1.508278">
        <ele>1.165</ele>
        <time>2026-08-21T16:45:50.999Z</time>
      </trkpt>
      <trkpt lat="48.647524" lon="-1.508274">
        <ele>1.189</ele>
        <time>2026-08-21T16:45:51.999Z</time>
      </trkpt>
      <trkpt lat="48.647516" lon="-1.508271">
        <ele>1.266</ele>
        <time>2026-08-21T16:45:52.999Z</time>
      </trkpt>
      <trkpt lat="48.647496" lon="-1.508266">
        <ele>1.262</ele>
        <time>2026-08-21T16:45:54.999Z</time>
      </trkpt>
      <trkpt lat="48.647484" lon="-1.508266">
        <ele>1.283</ele>
        <time>2026-08-21T16:45:55.999Z</time>
      </trkpt>
      <trkpt lat="48.647472" lon="-1.508270">
        <ele>1.311</ele>
        <time>2026-08-21T16:45:56.999Z</time>
      </trkpt>
      <trkpt lat="48.647457" lon="-1.508268">
        <ele>1.409</ele>
        <time>2026-08-21T16:45:57.999Z</time>
      </trkpt>
      <trkpt lat="48.647443" lon="-1.508265">
        <ele>1.438</ele>
        <time>2026-08-21T16:45:58.999Z</time>
      </trkpt>
      <trkpt lat="48.647434" lon="-1.508259">
        <ele>1.534</ele>
        <time>2026-08-21T16:45:59.999Z</time>
      </trkpt>
      <trkpt lat="48.647425" lon="-1.508254">
        <ele>1.557</ele>
        <time>2026-08-21T16:46:00.999Z</time>
      </trkpt>
      <trkpt lat="48.647417" lon="-1.508247">
        <ele>1.538</ele>
        <time>2026-08-21T16:46:01.999Z</time>
      </trkpt>
      <trkpt lat="48.647406" lon="-1.508247">
        <ele>1.571</ele>
        <time>2026-08-21T16:46:02.999Z</time>
      </trkpt>
      <trkpt lat="48.647392" lon="-1.508245">
        <ele>1.568</ele>
        <time>2026-08-21T16:46:03.999Z</time>
      </trkpt>
      <trkpt lat="48.647378" lon="-1.508244">
        <ele>1.589</ele>
        <time>2026-08-21T16:46:04.999Z</time>
      </trkpt>
      <trkpt lat="48.647366" lon="-1.508246">
        <ele>1.563</ele>
        <time>2026-08-21T16:46:05.999Z</time>
      </trkpt>
      <trkpt lat="48.647356" lon="-1.508247">
        <ele>1.570</ele>
        <time>2026-08-21T16:46:06.999Z</time>
      </trkpt>
      <trkpt lat="48.647346" lon="-1.508247">
        <ele>1.539</ele>
        <time>2026-08-21T16:46:07.999Z</time>
      </trkpt>
      <trkpt lat="48.647333" lon="-1.508240">
        <ele>1.501</ele>
        <time>2026-08-21T16:46:08.999Z</time>
      </trkpt>
      <trkpt lat="48.647322" lon="-1.508237">
        <ele>1.521</ele>
        <time>2026-08-21T16:46:09.999Z</time>
      </trkpt>
      <trkpt lat="48.647310" lon="-1.508239">
        <ele>1.509</ele>
        <time>2026-08-21T16:46:10.999Z</time>
      </trkpt>
      <trkpt lat="48.647296" lon="-1.508238">
        <ele>1.515</ele>
        <time>2026-08-21T16:46:11.999Z</time>
      </trkpt>
      <trkpt lat="48.647283" lon="-1.508237">
        <ele>1.551</ele>
        <time>2026-08-21T16:46:12.999Z</time>
      </trkpt>
      <trkpt lat="48.647272" lon="-1.508235">
        <ele>1.524</ele>
        <time>2026-08-21T16:46:13.999Z</time>
      </trkpt>
      <trkpt lat="48.647262" lon="-1.508231">
        <ele>1.555</ele>
        <time>2026-08-21T16:46:14.999Z</time>
      </trkpt>
      <trkpt lat="48.647253" lon="-1.508228">
        <ele>1.528</ele>
        <time>2026-08-21T16:46:15.999Z</time>
      </trkpt>
      <trkpt lat="48.647236" lon="-1.508217">
        <ele>1.475</ele>
        <time>2026-08-21T16:46:17.999Z</time>
      </trkpt>
      <trkpt lat="48.647223" lon="-1.508212">
        <ele>1.346</ele>
        <time>2026-08-21T16:46:18.999Z</time>
      </trkpt>
      <trkpt lat="48.647209" lon="-1.508211">
        <ele>1.340</ele>
        <time>2026-08-21T16:46:19.999Z</time>
      </trkpt>
      <trkpt lat="48.647195" lon="-1.508211">
        <ele>1.347</ele>
        <time>2026-08-21T16:46:20.999Z</time>
      </trkpt>
      <trkpt lat="48.647184" lon="-1.508211">
        <ele>1.315</ele>
        <time>2026-08-21T16:46:21.999Z</time>
      </trkpt>
      <trkpt lat="48.647166" lon="-1.508205">
        <ele>1.265</ele>
        <time>2026-08-21T16:46:23.999Z</time>
      </trkpt>
      <trkpt lat="48.647155" lon="-1.508202">
        <ele>1.211</ele>
        <time>2026-08-21T16:46:24.999Z</time>
      </trkpt>
      <trkpt lat="48.647143" lon="-1.508201">
        <ele>1.109</ele>
        <time>2026-08-21T16:46:25.999Z</time>
      </trkpt>
      <trkpt lat="48.647130" lon="-1.508200">
        <ele>1.173</ele>
        <time>2026-08-21T16:46:26.999Z</time>
      </trkpt>
      <trkpt lat="48.647115" lon="-1.508198">
        <ele>1.149</ele>
        <time>2026-08-21T16:46:27.999Z</time>
      </trkpt>
      <trkpt lat="48.647102" lon="-1.508196">
        <ele>1.112</ele>
        <time>2026-08-21T16:46:28.999Z</time>
      </trkpt>
      <trkpt lat="48.647093" lon="-1.508197">
        <ele>1.143</ele>
        <time>2026-08-21T16:46:29.999Z</time>
      </trkpt>
      <trkpt lat="48.647078" lon="-1.508193">
        <ele>1.176</ele>
        <time>2026-08-21T16:46:31.999Z</time>
      </trkpt>
      <trkpt lat="48.647065" lon="-1.508192">
        <ele>1.193</ele>
        <time>2026-08-21T16:46:32.999Z</time>
      </trkpt>
      <trkpt lat="48.647053" lon="-1.508192">
        <ele>1.184</ele>
        <time>2026-08-21T16:46:33.999Z</time>
      </trkpt>
      <trkpt lat="48.647039" lon="-1.508189">
        <ele>1.018</ele>
        <time>2026-08-21T16:46:34.999Z</time>
      </trkpt>
      <trkpt lat="48.647026" lon="-1.508187">
        <ele>1.065</ele>
        <time>2026-08-21T16:46:35.999Z</time>
      </trkpt>
      <trkpt lat="48.647014" lon="-1.508184">
        <ele>1.072</ele>
        <time>2026-08-21T16:46:36.999Z</time>
      </trkpt>
      <trkpt lat="48.646998" lon="-1.508181">
        <ele>1.013</ele>
        <time>2026-08-21T16:46:38.999Z</time>
      </trkpt>
      <trkpt lat="48.646988" lon="-1.508185">
        <ele>1.014</ele>
        <time>2026-08-21T16:46:39.999Z</time>
      </trkpt>
      <trkpt lat="48.646976" lon="-1.508188">
        <ele>1.009</ele>
        <time>2026-08-21T16:46:40.999Z</time>
      </trkpt>
      <trkpt lat="48.646963" lon="-1.508186">
        <ele>1.019</ele>
        <time>2026-08-21T16:46:41.999Z</time>
      </trkpt>
      <trkpt lat="48.646952" lon="-1.508184">
        <ele>1.075</ele>
        <time>2026-08-21T16:46:42.999Z</time>
      </trkpt>
      <trkpt lat="48.646940" lon="-1.508180">
        <ele>0.978</ele>
        <time>2026-08-21T16:46:43.999Z</time>
      </trkpt>
      <trkpt lat="48.646928" lon="-1.508171">
        <ele>0.949</ele>
        <time>2026-08-21T16:46:44.999Z</time>
      </trkpt>
      <trkpt lat="48.646916" lon="-1.508164">
        <ele>0.992</ele>
        <time>2026-08-21T16:46:45.999Z</time>
      </trkpt>
      <trkpt lat="48.646907" lon="-1.508164">
        <ele>0.979</ele>
        <time>2026-08-21T16:46:46.999Z</time>
      </trkpt>
      <trkpt lat="48.646895" lon="-1.508163">
        <ele>0.960</ele>
        <time>2026-08-21T16:46:47.999Z</time>
      </trkpt>
      <trkpt lat="48.646882" lon="-1.508164">
        <ele>0.934</ele>
        <time>2026-08-21T16:46:48.999Z</time>
      </trkpt>
      <trkpt lat="48.646866" lon="-1.508160">
        <ele>0.921</ele>
        <time>2026-08-21T16:46:49.999Z</time>
      </trkpt>
      <trkpt lat="48.646852" lon="-1.508152">
        <ele>0.991</ele>
        <time>2026-08-21T16:46:50.999Z</time>
      </trkpt>
      <trkpt lat="48.646841" lon="-1.508146">
        <ele>0.981</ele>
        <time>2026-08-21T16:46:51.999Z</time>
      </trkpt>
      <trkpt lat="48.646825" lon="-1.508141">
        <ele>0.919</ele>
        <time>2026-08-21T16:46:53.999Z</time>
      </trkpt>
      <trkpt lat="48.646815" lon="-1.508136">
        <ele>0.909</ele>
        <time>2026-08-21T16:46:54.999Z</time>
      </trkpt>
      <trkpt lat="48.646803" lon="-1.508133">
        <ele>0.951</ele>
        <time>2026-08-21T16:46:55.999Z</time>
      </trkpt>
      <trkpt lat="48.646788" lon="-1.508130">
        <ele>0.837</ele>
        <time>2026-08-21T16:46:56.999Z</time>
      </trkpt>
      <trkpt lat="48.646773" lon="-1.508126">
        <ele>0.850</ele>
        <time>2026-08-21T16:46:57.999Z</time>
      </trkpt>
      <trkpt lat="48.646761" lon="-1.508121">
        <ele>0.831</ele>
        <time>2026-08-21T16:46:58.999Z</time>
      </trkpt>
      <trkpt lat="48.646744" lon="-1.508113">
        <ele>0.824</ele>
        <time>2026-08-21T16:47:00.999Z</time>
      </trkpt>
      <trkpt lat="48.646734" lon="-1.508110">
        <ele>0.861</ele>
        <time>2026-08-21T16:47:01.999Z</time>
      </trkpt>
      <trkpt lat="48.646722" lon="-1.508105">
        <ele>0.862</ele>
        <time>2026-08-21T16:47:02.999Z</time>
      </trkpt>
      <trkpt lat="48.646706" lon="-1.508100">
        <ele>0.826</ele>
        <time>2026-08-21T16:47:03.999Z</time>
      </trkpt>
      <trkpt lat="48.646691" lon="-1.508094">
        <ele>0.813</ele>
        <time>2026-08-21T16:47:04.999Z</time>
      </trkpt>
      <trkpt lat="48.646680" lon="-1.508090">
        <ele>0.899</ele>
        <time>2026-08-21T16:47:05.999Z</time>
      </trkpt>
      <trkpt lat="48.646668" lon="-1.508086">
        <ele>0.807</ele>
        <time>2026-08-21T16:47:06.999Z</time>
      </trkpt>
      <trkpt lat="48.646659" lon="-1.508082">
        <ele>0.827</ele>
        <time>2026-08-21T16:47:07.999Z</time>
      </trkpt>
      <trkpt lat="48.646651" lon="-1.508075">
        <ele>0.809</ele>
        <time>2026-08-21T16:47:08.999Z</time>
      </trkpt>
      <trkpt lat="48.646640" lon="-1.508073">
        <ele>0.871</ele>
        <time>2026-08-21T16:47:09.999Z</time>
      </trkpt>
      <trkpt lat="48.646627" lon="-1.508067">
        <ele>0.827</ele>
        <time>2026-08-21T16:47:10.999Z</time>
      </trkpt>
      <trkpt lat="48.646613" lon="-1.508066">
        <ele>0.850</ele>
        <time>2026-08-21T16:47:11.999Z</time>
      </trkpt>
      <trkpt lat="48.646601" lon="-1.508060">
        <ele>0.871</ele>
        <time>2026-08-21T16:47:12.999Z</time>
      </trkpt>
      <trkpt lat="48.646591" lon="-1.508057">
        <ele>0.894</ele>
        <time>2026-08-21T16:47:13.999Z</time>
      </trkpt>
      <trkpt lat="48.646581" lon="-1.508056">
        <ele>0.881</ele>
        <time>2026-08-21T16:47:14.999Z</time>
      </trkpt>
      <trkpt lat="48.646566" lon="-1.508042">
        <ele>0.892</ele>
        <time>2026-08-21T16:47:16.999Z</time>
      </trkpt>
      <trkpt lat="48.646555" lon="-1.508034">
        <ele>0.816</ele>
        <time>2026-08-21T16:47:17.999Z</time>
      </trkpt>
      <trkpt lat="48.646541" lon="-1.508025">
        <ele>0.893</ele>
        <time>2026-08-21T16:47:18.999Z</time>
      </trkpt>
      <trkpt lat="48.646527" lon="-1.508019">
        <ele>0.852</ele>
        <time>2026-08-21T16:47:19.999Z</time>
      </trkpt>
      <trkpt lat="48.646515" lon="-1.508016">
        <ele>0.853</ele>
        <time>2026-08-21T16:47:20.999Z</time>
      </trkpt>
      <trkpt lat="48.646506" lon="-1.508016">
        <ele>0.708</ele>
        <time>2026-08-21T16:47:21.999Z</time>
      </trkpt>
      <trkpt lat="48.646497" lon="-1.508013">
        <ele>0.709</ele>
        <time>2026-08-21T16:47:22.999Z</time>
      </trkpt>
      <trkpt lat="48.646480" lon="-1.507998">
        <ele>0.777</ele>
        <time>2026-08-21T16:47:24.999Z</time>
      </trkpt>
      <trkpt lat="48.646467" lon="-1.507994">
        <ele>0.773</ele>
        <time>2026-08-21T16:47:25.999Z</time>
      </trkpt>
      <trkpt lat="48.646452" lon="-1.507990">
        <ele>0.726</ele>
        <time>2026-08-21T16:47:26.999Z</time>
      </trkpt>
      <trkpt lat="48.646437" lon="-1.507986">
        <ele>0.797</ele>
        <time>2026-08-21T16:47:27.999Z</time>
      </trkpt>
      <trkpt lat="48.646423" lon="-1.507978">
        <ele>0.770</ele>
        <time>2026-08-21T16:47:28.999Z</time>
      </trkpt>
      <trkpt lat="48.646411" lon="-1.507967">
        <ele>0.727</ele>
        <time>2026-08-21T16:47:29.999Z</time>
      </trkpt>
      <trkpt lat="48.646400" lon="-1.507956">
        <ele>0.748</ele>
        <time>2026-08-21T16:47:30.999Z</time>
      </trkpt>
      <trkpt lat="48.646383" lon="-1.507955">
        <ele>0.742</ele>
        <time>2026-08-21T16:47:32.999Z</time>
      </trkpt>
      <trkpt lat="48.646373" lon="-1.507952">
        <ele>0.739</ele>
        <time>2026-08-21T16:47:33.999Z</time>
      </trkpt>
      <trkpt lat="48.646360" lon="-1.507947">
        <ele>0.723</ele>
        <time>2026-08-21T16:47:34.999Z</time>
      </trkpt>
      <trkpt lat="48.646346" lon="-1.507940">
        <ele>0.783</ele>
        <time>2026-08-21T16:47:35.999Z</time>
      </trkpt>
      <trkpt lat="48.646334" lon="-1.507935">
        <ele>0.711</ele>
        <time>2026-08-21T16:47:36.999Z</time>
      </trkpt>
      <trkpt lat="48.646324" lon="-1.507933">
        <ele>0.709</ele>
        <time>2026-08-21T16:47:37.999Z</time>
      </trkpt>
      <trkpt lat="48.646307" lon="-1.507929">
        <ele>0.794</ele>
        <time>2026-08-21T16:47:39.999Z</time>
      </trkpt>
      <trkpt lat="48.646298" lon="-1.507925">
        <ele>0.740</ele>
        <time>2026-08-21T16:47:40.999Z</time>
      </trkpt>
      <trkpt lat="48.646285" lon="-1.507919">
        <ele>0.733</ele>
        <time>2026-08-21T16:47:41.999Z</time>
      </trkpt>
      <trkpt lat="48.646272" lon="-1.507914">
        <ele>0.674</ele>
        <time>2026-08-21T16:47:42.999Z</time>
      </trkpt>
      <trkpt lat="48.646258" lon="-1.507907">
        <ele>0.627</ele>
        <time>2026-08-21T16:47:43.999Z</time>
      </trkpt>
      <trkpt lat="48.646247" lon="-1.507899">
        <ele>0.614</ele>
        <time>2026-08-21T16:47:44.999Z</time>
      </trkpt>
      <trkpt lat="48.646231" lon="-1.507890">
        <ele>0.695</ele>
        <time>2026-08-21T16:47:46.999Z</time>
      </trkpt>
      <trkpt lat="48.646221" lon="-1.507888">
        <ele>0.649</ele>
        <time>2026-08-21T16:47:47.999Z</time>
      </trkpt>
      <trkpt lat="48.646208" lon="-1.507887">
        <ele>0.616</ele>
        <time>2026-08-21T16:47:48.999Z</time>
      </trkpt>
      <trkpt lat="48.646194" lon="-1.507884">
        <ele>0.628</ele>
        <time>2026-08-21T16:47:49.999Z</time>
      </trkpt>
      <trkpt lat="48.646179" lon="-1.507879">
        <ele>0.689</ele>
        <time>2026-08-21T16:47:50.999Z</time>
      </trkpt>
      <trkpt lat="48.646166" lon="-1.507873">
        <ele>0.617</ele>
        <time>2026-08-21T16:47:51.999Z</time>
      </trkpt>
      <trkpt lat="48.646154" lon="-1.507869">
        <ele>0.609</ele>
        <time>2026-08-21T16:47:52.999Z</time>
      </trkpt>
      <trkpt lat="48.646143" lon="-1.507865">
        <ele>0.694</ele>
        <time>2026-08-21T16:47:53.999Z</time>
      </trkpt>
      <trkpt lat="48.646125" lon="-1.507860">
        <ele>0.530</ele>
        <time>2026-08-21T16:47:55.999Z</time>
      </trkpt>
      <trkpt lat="48.646112" lon="-1.507862">
        <ele>0.523</ele>
        <time>2026-08-21T16:47:56.999Z</time>
      </trkpt>
      <trkpt lat="48.646098" lon="-1.507861">
        <ele>0.564</ele>
        <time>2026-08-21T16:47:57.999Z</time>
      </trkpt>
      <trkpt lat="48.646084" lon="-1.507858">
        <ele>0.577</ele>
        <time>2026-08-21T16:47:58.999Z</time>
      </trkpt>
      <trkpt lat="48.646068" lon="-1.507850">
        <ele>0.534</ele>
        <time>2026-08-21T16:48:00.999Z</time>
      </trkpt>
      <trkpt lat="48.646053" lon="-1.507845">
        <ele>0.545</ele>
        <time>2026-08-21T16:48:02.999Z</time>
      </trkpt>
      <trkpt lat="48.646041" lon="-1.507842">
        <ele>0.569</ele>
        <time>2026-08-21T16:48:03.999Z</time>
      </trkpt>
      <trkpt lat="48.646027" lon="-1.507840">
        <ele>0.536</ele>
        <time>2026-08-21T16:48:04.999Z</time>
      </trkpt>
      <trkpt lat="48.646013" lon="-1.507838">
        <ele>0.566</ele>
        <time>2026-08-21T16:48:05.999Z</time>
      </trkpt>
      <trkpt lat="48.646001" lon="-1.507836">
        <ele>0.529</ele>
        <time>2026-08-21T16:48:06.999Z</time>
      </trkpt>
      <trkpt lat="48.645983" lon="-1.507832">
        <ele>0.521</ele>
        <time>2026-08-21T16:48:08.999Z</time>
      </trkpt>
      <trkpt lat="48.645973" lon="-1.507833">
        <ele>0.509</ele>
        <time>2026-08-21T16:48:09.999Z</time>
      </trkpt>
      <trkpt lat="48.645960" lon="-1.507831">
        <ele>0.478</ele>
        <time>2026-08-21T16:48:10.999Z</time>
      </trkpt>
      <trkpt lat="48.645947" lon="-1.507831">
        <ele>0.434</ele>
        <time>2026-08-21T16:48:11.999Z</time>
      </trkpt>
      <trkpt lat="48.645935" lon="-1.507828">
        <ele>0.437</ele>
        <time>2026-08-21T16:48:12.999Z</time>
      </trkpt>
      <trkpt lat="48.645924" lon="-1.507825">
        <ele>0.498</ele>
        <time>2026-08-21T16:48:13.999Z</time>
      </trkpt>
      <trkpt lat="48.645914" lon="-1.507826">
        <ele>0.471</ele>
        <time>2026-08-21T16:48:14.999Z</time>
      </trkpt>
      <trkpt lat="48.645905" lon="-1.507827">
        <ele>0.428</ele>
        <time>2026-08-21T16:48:15.999Z</time>
      </trkpt>
      <trkpt lat="48.645896" lon="-1.507827">
        <ele>0.459</ele>
        <time>2026-08-21T16:48:16.999Z</time>
      </trkpt>
      <trkpt lat="48.645883" lon="-1.507828">
        <ele>0.363</ele>
        <time>2026-08-21T16:48:17.999Z</time>
      </trkpt>
      <trkpt lat="48.645870" lon="-1.507827">
        <ele>0.340</ele>
        <time>2026-08-21T16:48:18.999Z</time>
      </trkpt>
      <trkpt lat="48.645859" lon="-1.507821">
        <ele>0.352</ele>
        <time>2026-08-21T16:48:19.999Z</time>
      </trkpt>
      <trkpt lat="48.645843" lon="-1.507822">
        <ele>0.353</ele>
        <time>2026-08-21T16:48:21.999Z</time>
      </trkpt>
      <trkpt lat="48.645831" lon="-1.507820">
        <ele>0.308</ele>
        <time>2026-08-21T16:48:22.999Z</time>
      </trkpt>
      <trkpt lat="48.645818" lon="-1.507817">
        <ele>0.209</ele>
        <time>2026-08-21T16:48:23.999Z</time>
      </trkpt>
      <trkpt lat="48.645806" lon="-1.507813">
        <ele>0.227</ele>
        <time>2026-08-21T16:48:24.999Z</time>
      </trkpt>
      <trkpt lat="48.645796" lon="-1.507809">
        <ele>0.123</ele>
        <time>2026-08-21T16:48:25.999Z</time>
      </trkpt>
      <trkpt lat="48.645789" lon="-1.507800">
        <ele>0.116</ele>
        <time>2026-08-21T16:48:26.999Z</time>
      </trkpt>
      <trkpt lat="48.645774" lon="-1.507793">
        <ele>0.137</ele>
        <time>2026-08-21T16:48:28.999Z</time>
      </trkpt>
      <trkpt lat="48.645762" lon="-1.507796">
        <ele>0.110</ele>
        <time>2026-08-21T16:48:46.999Z</time>
      </trkpt>
      <trkpt lat="48.645755" lon="-1.507805">
        <ele>0.117</ele>
        <time>2026-08-21T16:48:49.999Z</time>
      </trkpt>
      <trkpt lat="48.645752" lon="-1.507822">
        <ele>0.158</ele>
        <time>2026-08-21T16:48:53.999Z</time>
      </trkpt>
      <trkpt lat="48.645749" lon="-1.507834">
        <ele>0.192</ele>
        <time>2026-08-21T16:49:00.999Z</time>
      </trkpt>
      <trkpt lat="48.645739" lon="-1.507842">
        <ele>0.199</ele>
        <time>2026-08-21T16:49:10.999Z</time>
      </trkpt>
      <trkpt lat="48.645731" lon="-1.507848">
        <ele>0.175</ele>
        <time>2026-08-21T16:49:11.999Z</time>
      </trkpt>
      <trkpt lat="48.645715" lon="-1.507857">
        <ele>0.128</ele>
        <time>2026-08-21T16:49:13.999Z</time>
      </trkpt>
      <trkpt lat="48.645704" lon="-1.507866">
        <ele>0.120</ele>
        <time>2026-08-21T16:49:17.999Z</time>
      </trkpt>
      <trkpt lat="48.645718" lon="-1.507853">
        <ele>0.109</ele>
        <time>2026-08-21T16:49:31.999Z</time>
      </trkpt>
      <trkpt lat="48.645728" lon="-1.507851">
        <ele>0.189</ele>
        <time>2026-08-21T16:49:32.999Z</time>
      </trkpt>
      <trkpt lat="48.645738" lon="-1.507848">
        <ele>0.125</ele>
        <time>2026-08-21T16:49:33.999Z</time>
      </trkpt>
      <trkpt lat="48.645753" lon="-1.507854">
        <ele>0.038</ele>
        <time>2026-08-21T16:49:35.999Z</time>
      </trkpt>
      <trkpt lat="48.645765" lon="-1.507851">
        <ele>0.079</ele>
        <time>2026-08-21T16:49:37.999Z</time>
      </trkpt>
      <trkpt lat="48.645765" lon="-1.507835">
        <ele>0.022</ele>
        <time>2026-08-21T16:49:45.999Z</time>
      </trkpt>
      <trkpt lat="48.645774" lon="-1.507827">
        <ele>-0.139</ele>
        <time>2026-08-21T16:49:48.999Z</time>
      </trkpt>
      <trkpt lat="48.645771" lon="-1.507813">
        <ele>-0.170</ele>
        <time>2026-08-21T16:50:06.999Z</time>
      </trkpt>
      <trkpt lat="48.645770" lon="-1.507798">
        <ele>-0.164</ele>
        <time>2026-08-21T16:50:10.999Z</time>
      </trkpt>
      <trkpt lat="48.645761" lon="-1.507790">
        <ele>-0.131</ele>
        <time>2026-08-21T16:50:16.999Z</time>
      </trkpt>
      <trkpt lat="48.645751" lon="-1.507788">
        <ele>-0.144</ele>
        <time>2026-08-21T16:50:42.999Z</time>
      </trkpt>
      <trkpt lat="48.645738" lon="-1.507789">
        <ele>-0.205</ele>
        <time>2026-08-21T16:50:46.999Z</time>
      </trkpt>
      <trkpt lat="48.645726" lon="-1.507796">
        <ele>-0.215</ele>
        <time>2026-08-21T16:50:47.999Z</time>
      </trkpt>
      <trkpt lat="48.645716" lon="-1.507795">
        <ele>-0.209</ele>
        <time>2026-08-21T16:50:48.999Z</time>
      </trkpt>
      <trkpt lat="48.645706" lon="-1.507792">
        <ele>-0.286</ele>
        <time>2026-08-21T16:50:49.999Z</time>
      </trkpt>
      <trkpt lat="48.645690" lon="-1.507793">
        <ele>-0.152</ele>
        <time>2026-08-21T16:50:51.999Z</time>
      </trkpt>
      <trkpt lat="48.645673" lon="-1.507792">
        <ele>-0.115</ele>
        <time>2026-08-21T16:50:53.999Z</time>
      </trkpt>
      <trkpt lat="48.645658" lon="-1.507793">
        <ele>-0.146</ele>
        <time>2026-08-21T16:50:55.999Z</time>
      </trkpt>
      <trkpt lat="48.645644" lon="-1.507789">
        <ele>-0.189</ele>
        <time>2026-08-21T16:50:56.999Z</time>
      </trkpt>
      <trkpt lat="48.645631" lon="-1.507786">
        <ele>0.076</ele>
        <time>2026-08-21T16:50:57.999Z</time>
      </trkpt>
      <trkpt lat="48.645616" lon="-1.507786">
        <ele>0.077</ele>
        <time>2026-08-21T16:50:59.999Z</time>
      </trkpt>
      <trkpt lat="48.645607" lon="-1.507787">
        <ele>0.041</ele>
        <time>2026-08-21T16:51:00.999Z</time>
      </trkpt>
      <trkpt lat="48.645596" lon="-1.507785">
        <ele>0.038</ele>
        <time>2026-08-21T16:51:01.999Z</time>
      </trkpt>
      <trkpt lat="48.645580" lon="-1.507785">
        <ele>0.015</ele>
        <time>2026-08-21T16:51:03.999Z</time>
      </trkpt>
      <trkpt lat="48.645570" lon="-1.507783">
        <ele>0.065</ele>
        <time>2026-08-21T16:51:04.999Z</time>
      </trkpt>
      <trkpt lat="48.645560" lon="-1.507784">
        <ele>0.011</ele>
        <time>2026-08-21T16:51:05.999Z</time>
      </trkpt>
      <trkpt lat="48.645552" lon="-1.507788">
        <ele>0.009</ele>
        <time>2026-08-21T16:51:06.999Z</time>
      </trkpt>
      <trkpt lat="48.645541" lon="-1.507787">
        <ele>0.013</ele>
        <time>2026-08-21T16:51:07.999Z</time>
      </trkpt>
      <trkpt lat="48.645521" lon="-1.507785">
        <ele>0.089</ele>
        <time>2026-08-21T16:51:09.999Z</time>
      </trkpt>
      <trkpt lat="48.645511" lon="-1.507783">
        <ele>0.052</ele>
        <time>2026-08-21T16:51:10.999Z</time>
      </trkpt>
      <trkpt lat="48.645501" lon="-1.507783">
        <ele>0.073</ele>
        <time>2026-08-21T16:51:11.999Z</time>
      </trkpt>
      <trkpt lat="48.645493" lon="-1.507777">
        <ele>0.166</ele>
        <time>2026-08-21T16:51:12.999Z</time>
      </trkpt>
      <trkpt lat="48.645479" lon="-1.507771">
        <ele>0.363</ele>
        <time>2026-08-21T16:51:13.999Z</time>
      </trkpt>
      <trkpt lat="48.645468" lon="-1.507769">
        <ele>0.444</ele>
        <time>2026-08-21T16:51:14.999Z</time>
      </trkpt>
      <trkpt lat="48.645453" lon="-1.507773">
        <ele>0.588</ele>
        <time>2026-08-21T16:51:16.999Z</time>
      </trkpt>
      <trkpt lat="48.645444" lon="-1.507771">
        <ele>0.535</ele>
        <time>2026-08-21T16:51:17.999Z</time>
      </trkpt>
      <trkpt lat="48.645434" lon="-1.507768">
        <ele>0.585</ele>
        <time>2026-08-21T16:51:18.999Z</time>
      </trkpt>
      <trkpt lat="48.645415" lon="-1.507762">
        <ele>0.589</ele>
        <time>2026-08-21T16:51:20.999Z</time>
      </trkpt>
      <trkpt lat="48.645404" lon="-1.507757">
        <ele>0.517</ele>
        <time>2026-08-21T16:51:21.999Z</time>
      </trkpt>
      <trkpt lat="48.645388" lon="-1.507746">
        <ele>0.509</ele>
        <time>2026-08-21T16:51:23.999Z</time>
      </trkpt>
      <trkpt lat="48.645379" lon="-1.507745">
        <ele>0.620</ele>
        <time>2026-08-21T16:51:24.999Z</time>
      </trkpt>
      <trkpt lat="48.645366" lon="-1.507745">
        <ele>0.696</ele>
        <time>2026-08-21T16:51:25.999Z</time>
      </trkpt>
      <trkpt lat="48.645350" lon="-1.507739">
        <ele>0.739</ele>
        <time>2026-08-21T16:51:27.999Z</time>
      </trkpt>
      <trkpt lat="48.645332" lon="-1.507736">
        <ele>0.790</ele>
        <time>2026-08-21T16:51:29.999Z</time>
      </trkpt>
      <trkpt lat="48.645314" lon="-1.507743">
        <ele>0.723</ele>
        <time>2026-08-21T16:51:31.999Z</time>
      </trkpt>
      <trkpt lat="48.645298" lon="-1.507748">
        <ele>0.720</ele>
        <time>2026-08-21T16:51:33.999Z</time>
      </trkpt>
      <trkpt lat="48.645289" lon="-1.507752">
        <ele>0.741</ele>
        <time>2026-08-21T16:51:34.999Z</time>
      </trkpt>
      <trkpt lat="48.645271" lon="-1.507755">
        <ele>0.745</ele>
        <time>2026-08-21T16:51:36.999Z</time>
      </trkpt>
      <trkpt lat="48.645261" lon="-1.507753">
        <ele>0.752</ele>
        <time>2026-08-21T16:51:37.999Z</time>
      </trkpt>
      <trkpt lat="48.645246" lon="-1.507756">
        <ele>0.758</ele>
        <time>2026-08-21T16:51:39.999Z</time>
      </trkpt>
      <trkpt lat="48.645230" lon="-1.507754">
        <ele>0.752</ele>
        <time>2026-08-21T16:51:41.999Z</time>
      </trkpt>
      <trkpt lat="48.645219" lon="-1.507755">
        <ele>0.717</ele>
        <time>2026-08-21T16:51:42.999Z</time>
      </trkpt>
      <trkpt lat="48.645209" lon="-1.507755">
        <ele>0.709</ele>
        <time>2026-08-21T16:51:43.999Z</time>
      </trkpt>
      <trkpt lat="48.645198" lon="-1.507753">
        <ele>0.767</ele>
        <time>2026-08-21T16:51:44.999Z</time>
      </trkpt>
      <trkpt lat="48.645187" lon="-1.507750">
        <ele>0.763</ele>
        <time>2026-08-21T16:51:45.999Z</time>
      </trkpt>
      <trkpt lat="48.645175" lon="-1.507747">
        <ele>0.676</ele>
        <time>2026-08-21T16:51:46.999Z</time>
      </trkpt>
      <trkpt lat="48.645163" lon="-1.507745">
        <ele>0.557</ele>
        <time>2026-08-21T16:51:47.999Z</time>
      </trkpt>
      <trkpt lat="48.645153" lon="-1.507741">
        <ele>0.590</ele>
        <time>2026-08-21T16:51:48.999Z</time>
      </trkpt>
      <trkpt lat="48.645135" lon="-1.507746">
        <ele>0.537</ele>
        <time>2026-08-21T16:51:50.999Z</time>
      </trkpt>
      <trkpt lat="48.645124" lon="-1.507748">
        <ele>0.538</ele>
        <time>2026-08-21T16:51:51.999Z</time>
      </trkpt>
      <trkpt lat="48.645113" lon="-1.507752">
        <ele>0.552</ele>
        <time>2026-08-21T16:51:52.999Z</time>
      </trkpt>
      <trkpt lat="48.645103" lon="-1.507749">
        <ele>0.539</ele>
        <time>2026-08-21T16:51:53.999Z</time>
      </trkpt>
      <trkpt lat="48.645085" lon="-1.507757">
        <ele>0.575</ele>
        <time>2026-08-21T16:51:55.999Z</time>
      </trkpt>
      <trkpt lat="48.645073" lon="-1.507760">
        <ele>0.528</ele>
        <time>2026-08-21T16:51:56.999Z</time>
      </trkpt>
      <trkpt lat="48.645060" lon="-1.507763">
        <ele>0.520</ele>
        <time>2026-08-21T16:51:57.999Z</time>
      </trkpt>
      <trkpt lat="48.645048" lon="-1.507763">
        <ele>0.509</ele>
        <time>2026-08-21T16:51:58.999Z</time>
      </trkpt>
      <trkpt lat="48.645038" lon="-1.507765">
        <ele>0.519</ele>
        <time>2026-08-21T16:51:59.999Z</time>
      </trkpt>
      <trkpt lat="48.645026" lon="-1.507770">
        <ele>0.585</ele>
        <time>2026-08-21T16:52:00.999Z</time>
      </trkpt>
      <trkpt lat="48.645017" lon="-1.507775">
        <ele>0.518</ele>
        <time>2026-08-21T16:52:01.999Z</time>
      </trkpt>
      <trkpt lat="48.645006" lon="-1.507776">
        <ele>0.519</ele>
        <time>2026-08-21T16:52:02.999Z</time>
      </trkpt>
      <trkpt lat="48.644997" lon="-1.507781">
        <ele>0.572</ele>
        <time>2026-08-21T16:52:03.999Z</time>
      </trkpt>
      <trkpt lat="48.644978" lon="-1.507787">
        <ele>0.539</ele>
        <time>2026-08-21T16:52:05.999Z</time>
      </trkpt>
      <trkpt lat="48.644967" lon="-1.507789">
        <ele>0.520</ele>
        <time>2026-08-21T16:52:06.999Z</time>
      </trkpt>
      <trkpt lat="48.644956" lon="-1.507787">
        <ele>0.564</ele>
        <time>2026-08-21T16:52:07.999Z</time>
      </trkpt>
      <trkpt lat="48.644947" lon="-1.507790">
        <ele>0.541</ele>
        <time>2026-08-21T16:52:08.999Z</time>
      </trkpt>
      <trkpt lat="48.644935" lon="-1.507793">
        <ele>0.576</ele>
        <time>2026-08-21T16:52:09.999Z</time>
      </trkpt>
      <trkpt lat="48.644923" lon="-1.507799">
        <ele>0.690</ele>
        <time>2026-08-21T16:52:10.999Z</time>
      </trkpt>
      <trkpt lat="48.644913" lon="-1.507798">
        <ele>0.619</ele>
        <time>2026-08-21T16:52:11.999Z</time>
      </trkpt>
      <trkpt lat="48.644898" lon="-1.507801">
        <ele>0.709</ele>
        <time>2026-08-21T16:52:13.999Z</time>
      </trkpt>
      <trkpt lat="48.644888" lon="-1.507802">
        <ele>0.899</ele>
        <time>2026-08-21T16:52:14.999Z</time>
      </trkpt>
      <trkpt lat="48.644879" lon="-1.507808">
        <ele>0.835</ele>
        <time>2026-08-21T16:52:15.999Z</time>
      </trkpt>
      <trkpt lat="48.644861" lon="-1.507810">
        <ele>0.898</ele>
        <time>2026-08-21T16:52:17.999Z</time>
      </trkpt>
      <trkpt lat="48.644849" lon="-1.507811">
        <ele>0.839</ele>
        <time>2026-08-21T16:52:18.999Z</time>
      </trkpt>
      <trkpt lat="48.644837" lon="-1.507814">
        <ele>0.982</ele>
        <time>2026-08-21T16:52:19.999Z</time>
      </trkpt>
      <trkpt lat="48.644827" lon="-1.507816">
        <ele>0.989</ele>
        <time>2026-08-21T16:52:20.999Z</time>
      </trkpt>
      <trkpt lat="48.644818" lon="-1.507817">
        <ele>0.990</ele>
        <time>2026-08-21T16:52:21.999Z</time>
      </trkpt>
      <trkpt lat="48.644808" lon="-1.507819">
        <ele>0.974</ele>
        <time>2026-08-21T16:52:22.999Z</time>
      </trkpt>
      <trkpt lat="48.644797" lon="-1.507824">
        <ele>0.981</ele>
        <time>2026-08-21T16:52:23.999Z</time>
      </trkpt>
      <trkpt lat="48.644782" lon="-1.507830">
        <ele>0.941</ele>
        <time>2026-08-21T16:52:25.999Z</time>
      </trkpt>
      <trkpt lat="48.644762" lon="-1.507834">
        <ele>1.081</ele>
        <time>2026-08-21T16:52:27.999Z</time>
      </trkpt>
      <trkpt lat="48.644752" lon="-1.507836">
        <ele>1.009</ele>
        <time>2026-08-21T16:52:28.999Z</time>
      </trkpt>
      <trkpt lat="48.644742" lon="-1.507834">
        <ele>1.009</ele>
        <time>2026-08-21T16:52:29.999Z</time>
      </trkpt>
      <trkpt lat="48.644722" lon="-1.507833">
        <ele>1.086</ele>
        <time>2026-08-21T16:52:31.999Z</time>
      </trkpt>
      <trkpt lat="48.644708" lon="-1.507835">
        <ele>1.042</ele>
        <time>2026-08-21T16:52:32.999Z</time>
      </trkpt>
      <trkpt lat="48.644697" lon="-1.507835">
        <ele>1.065</ele>
        <time>2026-08-21T16:52:33.999Z</time>
      </trkpt>
      <trkpt lat="48.644682" lon="-1.507840">
        <ele>1.086</ele>
        <time>2026-08-21T16:52:35.999Z</time>
      </trkpt>
      <trkpt lat="48.644673" lon="-1.507844">
        <ele>1.099</ele>
        <time>2026-08-21T16:52:36.999Z</time>
      </trkpt>
      <trkpt lat="48.644663" lon="-1.507847">
        <ele>1.016</ele>
        <time>2026-08-21T16:52:37.999Z</time>
      </trkpt>
      <trkpt lat="48.644653" lon="-1.507847">
        <ele>1.067</ele>
        <time>2026-08-21T16:52:38.999Z</time>
      </trkpt>
      <trkpt lat="48.644641" lon="-1.507845">
        <ele>1.031</ele>
        <time>2026-08-21T16:52:39.999Z</time>
      </trkpt>
      <trkpt lat="48.644630" lon="-1.507843">
        <ele>1.048</ele>
        <time>2026-08-21T16:52:40.999Z</time>
      </trkpt>
      <trkpt lat="48.644617" lon="-1.507849">
        <ele>1.077</ele>
        <time>2026-08-21T16:52:41.999Z</time>
      </trkpt>
      <trkpt lat="48.644607" lon="-1.507852">
        <ele>1.061</ele>
        <time>2026-08-21T16:52:42.999Z</time>
      </trkpt>
      <trkpt lat="48.644597" lon="-1.507852">
        <ele>1.027</ele>
        <time>2026-08-21T16:52:43.999Z</time>
      </trkpt>
      <trkpt lat="48.644587" lon="-1.507849">
        <ele>0.909</ele>
        <time>2026-08-21T16:52:44.999Z</time>
      </trkpt>
      <trkpt lat="48.644577" lon="-1.507850">
        <ele>0.979</ele>
        <time>2026-08-21T16:52:45.999Z</time>
      </trkpt>
      <trkpt lat="48.644567" lon="-1.507856">
        <ele>0.935</ele>
        <time>2026-08-21T16:52:46.999Z</time>
      </trkpt>
      <trkpt lat="48.644556" lon="-1.507860">
        <ele>0.968</ele>
        <time>2026-08-21T16:52:47.999Z</time>
      </trkpt>
      <trkpt lat="48.644545" lon="-1.507862">
        <ele>0.959</ele>
        <time>2026-08-21T16:52:48.999Z</time>
      </trkpt>
      <trkpt lat="48.644529" lon="-1.507867">
        <ele>0.912</ele>
        <time>2026-08-21T16:52:50.999Z</time>
      </trkpt>
      <trkpt lat="48.644516" lon="-1.507870">
        <ele>0.949</ele>
        <time>2026-08-21T16:52:51.999Z</time>
      </trkpt>
      <trkpt lat="48.644501" lon="-1.507866">
        <ele>0.930</ele>
        <time>2026-08-21T16:52:52.999Z</time>
      </trkpt>
      <trkpt lat="48.644489" lon="-1.507863">
        <ele>0.984</ele>
        <time>2026-08-21T16:52:53.999Z</time>
      </trkpt>
      <trkpt lat="48.644478" lon="-1.507862">
        <ele>0.891</ele>
        <time>2026-08-21T16:52:54.999Z</time>
      </trkpt>
      <trkpt lat="48.644468" lon="-1.507863">
        <ele>0.818</ele>
        <time>2026-08-21T16:52:55.999Z</time>
      </trkpt>
      <trkpt lat="48.644458" lon="-1.507872">
        <ele>0.898</ele>
        <time>2026-08-21T16:52:56.999Z</time>
      </trkpt>
      <trkpt lat="48.644447" lon="-1.507875">
        <ele>0.817</ele>
        <time>2026-08-21T16:52:57.999Z</time>
      </trkpt>
      <trkpt lat="48.644430" lon="-1.507875">
        <ele>0.809</ele>
        <time>2026-08-21T16:52:59.999Z</time>
      </trkpt>
      <trkpt lat="48.644418" lon="-1.507881">
        <ele>0.893</ele>
        <time>2026-08-21T16:53:00.999Z</time>
      </trkpt>
      <trkpt lat="48.644406" lon="-1.507885">
        <ele>0.849</ele>
        <time>2026-08-21T16:53:01.999Z</time>
      </trkpt>
      <trkpt lat="48.644395" lon="-1.507891">
        <ele>0.882</ele>
        <time>2026-08-21T16:53:02.999Z</time>
      </trkpt>
      <trkpt lat="48.644385" lon="-1.507889">
        <ele>0.883</ele>
        <time>2026-08-21T16:53:03.999Z</time>
      </trkpt>
      <trkpt lat="48.644375" lon="-1.507888">
        <ele>0.856</ele>
        <time>2026-08-21T16:53:04.999Z</time>
      </trkpt>
      <trkpt lat="48.644362" lon="-1.507885">
        <ele>0.863</ele>
        <time>2026-08-21T16:53:05.999Z</time>
      </trkpt>
      <trkpt lat="48.644348" lon="-1.507886">
        <ele>0.814</ele>
        <time>2026-08-21T16:53:06.999Z</time>
      </trkpt>
      <trkpt lat="48.644338" lon="-1.507887">
        <ele>0.828</ele>
        <time>2026-08-21T16:53:07.999Z</time>
      </trkpt>
      <trkpt lat="48.644319" lon="-1.507892">
        <ele>0.845</ele>
        <time>2026-08-21T16:53:09.999Z</time>
      </trkpt>
      <trkpt lat="48.644305" lon="-1.507888">
        <ele>0.853</ele>
        <time>2026-08-21T16:53:10.999Z</time>
      </trkpt>
      <trkpt lat="48.644293" lon="-1.507891">
        <ele>0.904</ele>
        <time>2026-08-21T16:53:11.999Z</time>
      </trkpt>
      <trkpt lat="48.644284" lon="-1.507889">
        <ele>0.914</ele>
        <time>2026-08-21T16:53:12.999Z</time>
      </trkpt>
      <trkpt lat="48.644264" lon="-1.507891">
        <ele>1.009</ele>
        <time>2026-08-21T16:53:14.999Z</time>
      </trkpt>
      <trkpt lat="48.644251" lon="-1.507894">
        <ele>1.047</ele>
        <time>2026-08-21T16:53:15.999Z</time>
      </trkpt>
      <trkpt lat="48.644239" lon="-1.507897">
        <ele>1.013</ele>
        <time>2026-08-21T16:53:16.999Z</time>
      </trkpt>
      <trkpt lat="48.644231" lon="-1.507905">
        <ele>1.066</ele>
        <time>2026-08-21T16:53:17.999Z</time>
      </trkpt>
      <trkpt lat="48.644222" lon="-1.507907">
        <ele>1.147</ele>
        <time>2026-08-21T16:53:18.999Z</time>
      </trkpt>
      <trkpt lat="48.644213" lon="-1.507913">
        <ele>1.150</ele>
        <time>2026-08-21T16:53:19.999Z</time>
      </trkpt>
      <trkpt lat="48.644201" lon="-1.507919">
        <ele>1.187</ele>
        <time>2026-08-21T16:53:20.999Z</time>
      </trkpt>
      <trkpt lat="48.644189" lon="-1.507920">
        <ele>1.218</ele>
        <time>2026-08-21T16:53:21.999Z</time>
      </trkpt>
      <trkpt lat="48.644172" lon="-1.507918">
        <ele>1.222</ele>
        <time>2026-08-21T16:53:23.999Z</time>
      </trkpt>
      <trkpt lat="48.644162" lon="-1.507921">
        <ele>1.259</ele>
        <time>2026-08-21T16:53:24.999Z</time>
      </trkpt>
      <trkpt lat="48.644150" lon="-1.507928">
        <ele>1.217</ele>
        <time>2026-08-21T16:53:25.999Z</time>
      </trkpt>
      <trkpt lat="48.644139" lon="-1.507931">
        <ele>1.287</ele>
        <time>2026-08-21T16:53:26.999Z</time>
      </trkpt>
      <trkpt lat="48.644129" lon="-1.507929">
        <ele>1.215</ele>
        <time>2026-08-21T16:53:27.999Z</time>
      </trkpt>
      <trkpt lat="48.644120" lon="-1.507930">
        <ele>1.209</ele>
        <time>2026-08-21T16:53:28.999Z</time>
      </trkpt>
      <trkpt lat="48.644111" lon="-1.507932">
        <ele>1.253</ele>
        <time>2026-08-21T16:53:29.999Z</time>
      </trkpt>
      <trkpt lat="48.644097" lon="-1.507940">
        <ele>1.269</ele>
        <time>2026-08-21T16:53:30.999Z</time>
      </trkpt>
      <trkpt lat="48.644086" lon="-1.507944">
        <ele>1.232</ele>
        <time>2026-08-21T16:53:31.999Z</time>
      </trkpt>
      <trkpt lat="48.644076" lon="-1.507940">
        <ele>1.253</ele>
        <time>2026-08-21T16:53:32.999Z</time>
      </trkpt>
      <trkpt lat="48.644067" lon="-1.507940">
        <ele>1.276</ele>
        <time>2026-08-21T16:53:33.999Z</time>
      </trkpt>
      <trkpt lat="48.644056" lon="-1.507940">
        <ele>1.293</ele>
        <time>2026-08-21T16:53:34.999Z</time>
      </trkpt>
      <trkpt lat="48.644043" lon="-1.507940">
        <ele>1.274</ele>
        <time>2026-08-21T16:53:35.999Z</time>
      </trkpt>
      <trkpt lat="48.644030" lon="-1.507937">
        <ele>1.348</ele>
        <time>2026-08-21T16:53:36.999Z</time>
      </trkpt>
      <trkpt lat="48.644018" lon="-1.507936">
        <ele>1.425</ele>
        <time>2026-08-21T16:53:37.999Z</time>
      </trkpt>
      <trkpt lat="48.644000" lon="-1.507936">
        <ele>1.465</ele>
        <time>2026-08-21T16:53:39.999Z</time>
      </trkpt>
      <trkpt lat="48.643987" lon="-1.507941">
        <ele>1.468</ele>
        <time>2026-08-21T16:53:40.999Z</time>
      </trkpt>
      <trkpt lat="48.643977" lon="-1.507944">
        <ele>1.414</ele>
        <time>2026-08-21T16:53:41.999Z</time>
      </trkpt>
      <trkpt lat="48.643965" lon="-1.507944">
        <ele>1.409</ele>
        <time>2026-08-21T16:53:42.999Z</time>
      </trkpt>
      <trkpt lat="48.643954" lon="-1.507943">
        <ele>1.458</ele>
        <time>2026-08-21T16:53:43.999Z</time>
      </trkpt>
      <trkpt lat="48.643945" lon="-1.507945">
        <ele>1.484</ele>
        <time>2026-08-21T16:53:44.999Z</time>
      </trkpt>
      <trkpt lat="48.643935" lon="-1.507952">
        <ele>1.457</ele>
        <time>2026-08-21T16:53:45.999Z</time>
      </trkpt>
      <trkpt lat="48.643921" lon="-1.507956">
        <ele>1.388</ele>
        <time>2026-08-21T16:53:46.999Z</time>
      </trkpt>
      <trkpt lat="48.643909" lon="-1.507960">
        <ele>1.371</ele>
        <time>2026-08-21T16:53:47.999Z</time>
      </trkpt>
      <trkpt lat="48.643890" lon="-1.507963">
        <ele>1.258</ele>
        <time>2026-08-21T16:53:49.999Z</time>
      </trkpt>
      <trkpt lat="48.643877" lon="-1.507966">
        <ele>1.299</ele>
        <time>2026-08-21T16:53:50.999Z</time>
      </trkpt>
      <trkpt lat="48.643865" lon="-1.507968">
        <ele>1.163</ele>
        <time>2026-08-21T16:53:51.999Z</time>
      </trkpt>
      <trkpt lat="48.643851" lon="-1.507967">
        <ele>1.150</ele>
        <time>2026-08-21T16:53:52.999Z</time>
      </trkpt>
      <trkpt lat="48.643841" lon="-1.507967">
        <ele>1.157</ele>
        <time>2026-08-21T16:53:53.999Z</time>
      </trkpt>
      <trkpt lat="48.643827" lon="-1.507973">
        <ele>1.100</ele>
        <time>2026-08-21T16:53:55.999Z</time>
      </trkpt>
      <trkpt lat="48.643815" lon="-1.507972">
        <ele>1.220</ele>
        <time>2026-08-21T16:53:56.999Z</time>
      </trkpt>
      <trkpt lat="48.643801" lon="-1.507969">
        <ele>1.209</ele>
        <time>2026-08-21T16:53:57.999Z</time>
      </trkpt>
      <trkpt lat="48.643789" lon="-1.507971">
        <ele>1.257</ele>
        <time>2026-08-21T16:53:58.999Z</time>
      </trkpt>
      <trkpt lat="48.643772" lon="-1.507977">
        <ele>1.223</ele>
        <time>2026-08-21T16:54:00.999Z</time>
      </trkpt>
      <trkpt lat="48.643759" lon="-1.507982">
        <ele>1.286</ele>
        <time>2026-08-21T16:54:01.999Z</time>
      </trkpt>
      <trkpt lat="48.643746" lon="-1.507986">
        <ele>1.247</ele>
        <time>2026-08-21T16:54:02.999Z</time>
      </trkpt>
      <trkpt lat="48.643736" lon="-1.507985">
        <ele>1.260</ele>
        <time>2026-08-21T16:54:03.999Z</time>
      </trkpt>
      <trkpt lat="48.643727" lon="-1.507985">
        <ele>1.237</ele>
        <time>2026-08-21T16:54:04.999Z</time>
      </trkpt>
      <trkpt lat="48.643717" lon="-1.507981">
        <ele>1.298</ele>
        <time>2026-08-21T16:54:05.999Z</time>
      </trkpt>
      <trkpt lat="48.643704" lon="-1.507983">
        <ele>1.282</ele>
        <time>2026-08-21T16:54:06.999Z</time>
      </trkpt>
      <trkpt lat="48.643690" lon="-1.507988">
        <ele>1.349</ele>
        <time>2026-08-21T16:54:07.999Z</time>
      </trkpt>
      <trkpt lat="48.643679" lon="-1.507993">
        <ele>1.318</ele>
        <time>2026-08-21T16:54:08.999Z</time>
      </trkpt>
      <trkpt lat="48.643664" lon="-1.507998">
        <ele>1.398</ele>
        <time>2026-08-21T16:54:10.999Z</time>
      </trkpt>
      <trkpt lat="48.643652" lon="-1.508003">
        <ele>1.317</ele>
        <time>2026-08-21T16:54:11.999Z</time>
      </trkpt>
      <trkpt lat="48.643639" lon="-1.508007">
        <ele>1.309</ele>
        <time>2026-08-21T16:54:13Z</time>
      </trkpt>
      <trkpt lat="48.643627" lon="-1.508007">
        <ele>1.333</ele>
        <time>2026-08-21T16:54:14Z</time>
      </trkpt>
      <trkpt lat="48.643618" lon="-1.508004">
        <ele>1.359</ele>
        <time>2026-08-21T16:54:15Z</time>
      </trkpt>
      <trkpt lat="48.643608" lon="-1.508007">
        <ele>1.392</ele>
        <time>2026-08-21T16:54:16Z</time>
      </trkpt>
      <trkpt lat="48.643597" lon="-1.508008">
        <ele>1.323</ele>
        <time>2026-08-21T16:54:17Z</time>
      </trkpt>
      <trkpt lat="48.643584" lon="-1.508013">
        <ele>1.316</ele>
        <time>2026-08-21T16:54:18Z</time>
      </trkpt>
      <trkpt lat="48.643573" lon="-1.508019">
        <ele>1.363</ele>
        <time>2026-08-21T16:54:19Z</time>
      </trkpt>
      <trkpt lat="48.643564" lon="-1.508028">
        <ele>1.394</ele>
        <time>2026-08-21T16:54:20Z</time>
      </trkpt>
      <trkpt lat="48.643547" lon="-1.508039">
        <ele>1.358</ele>
        <time>2026-08-21T16:54:22Z</time>
      </trkpt>
      <trkpt lat="48.643530" lon="-1.508043">
        <ele>1.375</ele>
        <time>2026-08-21T16:54:24Z</time>
      </trkpt>
      <trkpt lat="48.643510" lon="-1.508044">
        <ele>1.338</ele>
        <time>2026-08-21T16:54:26Z</time>
      </trkpt>
      <trkpt lat="48.643497" lon="-1.508049">
        <ele>1.370</ele>
        <time>2026-08-21T16:54:27Z</time>
      </trkpt>
      <trkpt lat="48.643487" lon="-1.508054">
        <ele>1.317</ele>
        <time>2026-08-21T16:54:28Z</time>
      </trkpt>
      <trkpt lat="48.643476" lon="-1.508057">
        <ele>1.309</ele>
        <time>2026-08-21T16:54:29Z</time>
      </trkpt>
      <trkpt lat="48.643467" lon="-1.508058">
        <ele>1.325</ele>
        <time>2026-08-21T16:54:30Z</time>
      </trkpt>
      <trkpt lat="48.643455" lon="-1.508060">
        <ele>1.351</ele>
        <time>2026-08-21T16:54:31Z</time>
      </trkpt>
      <trkpt lat="48.643445" lon="-1.508064">
        <ele>1.364</ele>
        <time>2026-08-21T16:54:32Z</time>
      </trkpt>
      <trkpt lat="48.643436" lon="-1.508068">
        <ele>1.225</ele>
        <time>2026-08-21T16:54:33Z</time>
      </trkpt>
      <trkpt lat="48.643422" lon="-1.508076">
        <ele>1.298</ele>
        <time>2026-08-21T16:54:35Z</time>
      </trkpt>
      <trkpt lat="48.643413" lon="-1.508084">
        <ele>1.235</ele>
        <time>2026-08-21T16:54:36Z</time>
      </trkpt>
      <trkpt lat="48.643400" lon="-1.508089">
        <ele>1.226</ele>
        <time>2026-08-21T16:54:37Z</time>
      </trkpt>
      <trkpt lat="48.643389" lon="-1.508093">
        <ele>1.250</ele>
        <time>2026-08-21T16:54:38Z</time>
      </trkpt>
      <trkpt lat="48.643379" lon="-1.508094">
        <ele>1.227</ele>
        <time>2026-08-21T16:54:39Z</time>
      </trkpt>
      <trkpt lat="48.643368" lon="-1.508095">
        <ele>1.289</ele>
        <time>2026-08-21T16:54:40Z</time>
      </trkpt>
      <trkpt lat="48.643355" lon="-1.508098">
        <ele>1.206</ele>
        <time>2026-08-21T16:54:41Z</time>
      </trkpt>
      <trkpt lat="48.643343" lon="-1.508100">
        <ele>1.226</ele>
        <time>2026-08-21T16:54:42Z</time>
      </trkpt>
      <trkpt lat="48.643335" lon="-1.508106">
        <ele>1.209</ele>
        <time>2026-08-21T16:54:43Z</time>
      </trkpt>
      <trkpt lat="48.643325" lon="-1.508107">
        <ele>1.270</ele>
        <time>2026-08-21T16:54:44Z</time>
      </trkpt>
      <trkpt lat="48.643315" lon="-1.508110">
        <ele>1.256</ele>
        <time>2026-08-21T16:54:45Z</time>
      </trkpt>
      <trkpt lat="48.643302" lon="-1.508110">
        <ele>1.269</ele>
        <time>2026-08-21T16:54:46Z</time>
      </trkpt>
      <trkpt lat="48.643289" lon="-1.508113">
        <ele>1.210</ele>
        <time>2026-08-21T16:54:47Z</time>
      </trkpt>
      <trkpt lat="48.643280" lon="-1.508113">
        <ele>1.253</ele>
        <time>2026-08-21T16:54:48Z</time>
      </trkpt>
      <trkpt lat="48.643270" lon="-1.508110">
        <ele>1.230</ele>
        <time>2026-08-21T16:54:49Z</time>
      </trkpt>
      <trkpt lat="48.643257" lon="-1.508113">
        <ele>1.261</ele>
        <time>2026-08-21T16:54:50Z</time>
      </trkpt>
      <trkpt lat="48.643245" lon="-1.508118">
        <ele>1.125</ele>
        <time>2026-08-21T16:54:51Z</time>
      </trkpt>
      <trkpt lat="48.643235" lon="-1.508123">
        <ele>1.182</ele>
        <time>2026-08-21T16:54:52Z</time>
      </trkpt>
      <trkpt lat="48.643226" lon="-1.508122">
        <ele>1.111</ele>
        <time>2026-08-21T16:54:53Z</time>
      </trkpt>
      <trkpt lat="48.643215" lon="-1.508121">
        <ele>1.121</ele>
        <time>2026-08-21T16:54:54Z</time>
      </trkpt>
      <trkpt lat="48.643205" lon="-1.508122">
        <ele>1.103</ele>
        <time>2026-08-21T16:54:55Z</time>
      </trkpt>
      <trkpt lat="48.643191" lon="-1.508129">
        <ele>1.109</ele>
        <time>2026-08-21T16:54:56Z</time>
      </trkpt>
      <trkpt lat="48.643178" lon="-1.508133">
        <ele>1.163</ele>
        <time>2026-08-21T16:54:57Z</time>
      </trkpt>
      <trkpt lat="48.643162" lon="-1.508139">
        <ele>1.119</ele>
        <time>2026-08-21T16:54:59Z</time>
      </trkpt>
      <trkpt lat="48.643153" lon="-1.508147">
        <ele>1.122</ele>
        <time>2026-08-21T16:55:00Z</time>
      </trkpt>
      <trkpt lat="48.643142" lon="-1.508153">
        <ele>1.163</ele>
        <time>2026-08-21T16:55:01Z</time>
      </trkpt>
      <trkpt lat="48.643131" lon="-1.508157">
        <ele>1.166</ele>
        <time>2026-08-21T16:55:02Z</time>
      </trkpt>
      <trkpt lat="48.643119" lon="-1.508160">
        <ele>1.133</ele>
        <time>2026-08-21T16:55:03Z</time>
      </trkpt>
      <trkpt lat="48.643108" lon="-1.508162">
        <ele>1.014</ele>
        <time>2026-08-21T16:55:04Z</time>
      </trkpt>
      <trkpt lat="48.643097" lon="-1.508163">
        <ele>1.048</ele>
        <time>2026-08-21T16:55:05Z</time>
      </trkpt>
      <trkpt lat="48.643084" lon="-1.508166">
        <ele>1.075</ele>
        <time>2026-08-21T16:55:06Z</time>
      </trkpt>
      <trkpt lat="48.643072" lon="-1.508167">
        <ele>1.022</ele>
        <time>2026-08-21T16:55:07Z</time>
      </trkpt>
      <trkpt lat="48.643061" lon="-1.508171">
        <ele>1.062</ele>
        <time>2026-08-21T16:55:08Z</time>
      </trkpt>
      <trkpt lat="48.643051" lon="-1.508172">
        <ele>1.008</ele>
        <time>2026-08-21T16:55:09Z</time>
      </trkpt>
      <trkpt lat="48.643042" lon="-1.508177">
        <ele>1.009</ele>
        <time>2026-08-21T16:55:10Z</time>
      </trkpt>
      <trkpt lat="48.643034" lon="-1.508185">
        <ele>1.034</ele>
        <time>2026-08-21T16:55:11Z</time>
      </trkpt>
      <trkpt lat="48.643023" lon="-1.508192">
        <ele>1.040</ele>
        <time>2026-08-21T16:55:12Z</time>
      </trkpt>
      <trkpt lat="48.643013" lon="-1.508197">
        <ele>1.023</ele>
        <time>2026-08-21T16:55:13Z</time>
      </trkpt>
      <trkpt lat="48.642998" lon="-1.508205">
        <ele>1.074</ele>
        <time>2026-08-21T16:55:15Z</time>
      </trkpt>
      <trkpt lat="48.642986" lon="-1.508209">
        <ele>1.057</ele>
        <time>2026-08-21T16:55:16Z</time>
      </trkpt>
      <trkpt lat="48.642967" lon="-1.508220">
        <ele>1.064</ele>
        <time>2026-08-21T16:55:18Z</time>
      </trkpt>
      <trkpt lat="48.642957" lon="-1.508223">
        <ele>1.065</ele>
        <time>2026-08-21T16:55:19Z</time>
      </trkpt>
      <trkpt lat="48.642948" lon="-1.508222">
        <ele>1.099</ele>
        <time>2026-08-21T16:55:20Z</time>
      </trkpt>
      <trkpt lat="48.642937" lon="-1.508225">
        <ele>1.056</ele>
        <time>2026-08-21T16:55:21Z</time>
      </trkpt>
      <trkpt lat="48.642927" lon="-1.508233">
        <ele>1.076</ele>
        <time>2026-08-21T16:55:22Z</time>
      </trkpt>
      <trkpt lat="48.642917" lon="-1.508241">
        <ele>1.090</ele>
        <time>2026-08-21T16:55:23Z</time>
      </trkpt>
      <trkpt lat="48.642905" lon="-1.508241">
        <ele>1.019</ele>
        <time>2026-08-21T16:55:24Z</time>
      </trkpt>
      <trkpt lat="48.642889" lon="-1.508247">
        <ele>1.009</ele>
        <time>2026-08-21T16:55:26Z</time>
      </trkpt>
      <trkpt lat="48.642878" lon="-1.508251">
        <ele>1.059</ele>
        <time>2026-08-21T16:55:27Z</time>
      </trkpt>
      <trkpt lat="48.642867" lon="-1.508257">
        <ele>1.055</ele>
        <time>2026-08-21T16:55:28Z</time>
      </trkpt>
      <trkpt lat="48.642857" lon="-1.508259">
        <ele>1.158</ele>
        <time>2026-08-21T16:55:29Z</time>
      </trkpt>
      <trkpt lat="48.642847" lon="-1.508262">
        <ele>1.179</ele>
        <time>2026-08-21T16:55:30Z</time>
      </trkpt>
      <trkpt lat="48.642837" lon="-1.508266">
        <ele>1.142</ele>
        <time>2026-08-21T16:55:31Z</time>
      </trkpt>
      <trkpt lat="48.642824" lon="-1.508271">
        <ele>1.149</ele>
        <time>2026-08-21T16:55:32Z</time>
      </trkpt>
      <trkpt lat="48.642813" lon="-1.508283">
        <ele>1.110</ele>
        <time>2026-08-21T16:55:33Z</time>
      </trkpt>
      <trkpt lat="48.642802" lon="-1.508288">
        <ele>1.054</ele>
        <time>2026-08-21T16:55:34Z</time>
      </trkpt>
      <trkpt lat="48.642790" lon="-1.508288">
        <ele>1.091</ele>
        <time>2026-08-21T16:55:35Z</time>
      </trkpt>
      <trkpt lat="48.642781" lon="-1.508289">
        <ele>1.077</ele>
        <time>2026-08-21T16:55:36Z</time>
      </trkpt>
      <trkpt lat="48.642771" lon="-1.508293">
        <ele>1.061</ele>
        <time>2026-08-21T16:55:37Z</time>
      </trkpt>
      <trkpt lat="48.642759" lon="-1.508298">
        <ele>1.027</ele>
        <time>2026-08-21T16:55:38Z</time>
      </trkpt>
      <trkpt lat="48.642747" lon="-1.508307">
        <ele>1.009</ele>
        <time>2026-08-21T16:55:39Z</time>
      </trkpt>
      <trkpt lat="48.642737" lon="-1.508311">
        <ele>1.019</ele>
        <time>2026-08-21T16:55:40Z</time>
      </trkpt>
      <trkpt lat="48.642721" lon="-1.508316">
        <ele>1.085</ele>
        <time>2026-08-21T16:55:42Z</time>
      </trkpt>
      <trkpt lat="48.642711" lon="-1.508325">
        <ele>1.098</ele>
        <time>2026-08-21T16:55:43Z</time>
      </trkpt>
      <trkpt lat="48.642699" lon="-1.508333">
        <ele>1.069</ele>
        <time>2026-08-21T16:55:44Z</time>
      </trkpt>
      <trkpt lat="48.642687" lon="-1.508337">
        <ele>1.182</ele>
        <time>2026-08-21T16:55:45Z</time>
      </trkpt>
      <trkpt lat="48.642676" lon="-1.508340">
        <ele>1.189</ele>
        <time>2026-08-21T16:55:46Z</time>
      </trkpt>
      <trkpt lat="48.642666" lon="-1.508343">
        <ele>1.140</ele>
        <time>2026-08-21T16:55:47Z</time>
      </trkpt>
      <trkpt lat="48.642647" lon="-1.508350">
        <ele>1.144</ele>
        <time>2026-08-21T16:55:49Z</time>
      </trkpt>
      <trkpt lat="48.642633" lon="-1.508356">
        <ele>1.111</ele>
        <time>2026-08-21T16:55:50Z</time>
      </trkpt>
      <trkpt lat="48.642619" lon="-1.508362">
        <ele>1.147</ele>
        <time>2026-08-21T16:55:51Z</time>
      </trkpt>
      <trkpt lat="48.642609" lon="-1.508364">
        <ele>1.129</ele>
        <time>2026-08-21T16:55:52Z</time>
      </trkpt>
      <trkpt lat="48.642595" lon="-1.508369">
        <ele>1.121</ele>
        <time>2026-08-21T16:55:54Z</time>
      </trkpt>
      <trkpt lat="48.642584" lon="-1.508373">
        <ele>1.109</ele>
        <time>2026-08-21T16:55:55Z</time>
      </trkpt>
      <trkpt lat="48.642573" lon="-1.508380">
        <ele>1.136</ele>
        <time>2026-08-21T16:55:56Z</time>
      </trkpt>
      <trkpt lat="48.642561" lon="-1.508385">
        <ele>1.012</ele>
        <time>2026-08-21T16:55:57Z</time>
      </trkpt>
      <trkpt lat="48.642552" lon="-1.508387">
        <ele>1.025</ele>
        <time>2026-08-21T16:55:58Z</time>
      </trkpt>
      <trkpt lat="48.642542" lon="-1.508389">
        <ele>1.056</ele>
        <time>2026-08-21T16:55:59Z</time>
      </trkpt>
      <trkpt lat="48.642533" lon="-1.508392">
        <ele>1.059</ele>
        <time>2026-08-21T16:56:00Z</time>
      </trkpt>
      <trkpt lat="48.642521" lon="-1.508396">
        <ele>1.056</ele>
        <time>2026-08-21T16:56:01Z</time>
      </trkpt>
      <trkpt lat="48.642507" lon="-1.508404">
        <ele>1.017</ele>
        <time>2026-08-21T16:56:02Z</time>
      </trkpt>
      <trkpt lat="48.642495" lon="-1.508408">
        <ele>1.011</ele>
        <time>2026-08-21T16:56:03Z</time>
      </trkpt>
      <trkpt lat="48.642487" lon="-1.508414">
        <ele>1.018</ele>
        <time>2026-08-21T16:56:04Z</time>
      </trkpt>
      <trkpt lat="48.642477" lon="-1.508416">
        <ele>1.087</ele>
        <time>2026-08-21T16:56:05Z</time>
      </trkpt>
      <trkpt lat="48.642468" lon="-1.508423">
        <ele>1.042</ele>
        <time>2026-08-21T16:56:06Z</time>
      </trkpt>
      <trkpt lat="48.642456" lon="-1.508431">
        <ele>1.026</ele>
        <time>2026-08-21T16:56:07Z</time>
      </trkpt>
      <trkpt lat="48.642444" lon="-1.508437">
        <ele>1.009</ele>
        <time>2026-08-21T16:56:08Z</time>
      </trkpt>
      <trkpt lat="48.642432" lon="-1.508439">
        <ele>1.090</ele>
        <time>2026-08-21T16:56:09Z</time>
      </trkpt>
      <trkpt lat="48.642421" lon="-1.508440">
        <ele>1.056</ele>
        <time>2026-08-21T16:56:10Z</time>
      </trkpt>
      <trkpt lat="48.642404" lon="-1.508448">
        <ele>1.059</ele>
        <time>2026-08-21T16:56:12Z</time>
      </trkpt>
      <trkpt lat="48.642391" lon="-1.508455">
        <ele>1.080</ele>
        <time>2026-08-21T16:56:13Z</time>
      </trkpt>
      <trkpt lat="48.642376" lon="-1.508461">
        <ele>1.083</ele>
        <time>2026-08-21T16:56:14Z</time>
      </trkpt>
      <trkpt lat="48.642362" lon="-1.508470">
        <ele>1.030</ele>
        <time>2026-08-21T16:56:16Z</time>
      </trkpt>
      <trkpt lat="48.642343" lon="-1.508479">
        <ele>1.091</ele>
        <time>2026-08-21T16:56:18Z</time>
      </trkpt>
      <trkpt lat="48.642330" lon="-1.508485">
        <ele>1.025</ele>
        <time>2026-08-21T16:56:19Z</time>
      </trkpt>
      <trkpt lat="48.642319" lon="-1.508490">
        <ele>1.082</ele>
        <time>2026-08-21T16:56:20Z</time>
      </trkpt>
      <trkpt lat="48.642303" lon="-1.508494">
        <ele>1.039</ele>
        <time>2026-08-21T16:56:22Z</time>
      </trkpt>
      <trkpt lat="48.642294" lon="-1.508499">
        <ele>1.001</ele>
        <time>2026-08-21T16:56:23Z</time>
      </trkpt>
      <trkpt lat="48.642281" lon="-1.508501">
        <ele>1.021</ele>
        <time>2026-08-21T16:56:24Z</time>
      </trkpt>
      <trkpt lat="48.642268" lon="-1.508509">
        <ele>1.009</ele>
        <time>2026-08-21T16:56:25Z</time>
      </trkpt>
      <trkpt lat="48.642257" lon="-1.508510">
        <ele>1.075</ele>
        <time>2026-08-21T16:56:26Z</time>
      </trkpt>
      <trkpt lat="48.642247" lon="-1.508516">
        <ele>1.041</ele>
        <time>2026-08-21T16:56:27Z</time>
      </trkpt>
      <trkpt lat="48.642231" lon="-1.508521">
        <ele>1.034</ele>
        <time>2026-08-21T16:56:29Z</time>
      </trkpt>
      <trkpt lat="48.642220" lon="-1.508528">
        <ele>1.175</ele>
        <time>2026-08-21T16:56:30Z</time>
      </trkpt>
      <trkpt lat="48.642209" lon="-1.508529">
        <ele>1.138</ele>
        <time>2026-08-21T16:56:31Z</time>
      </trkpt>
      <trkpt lat="48.642199" lon="-1.508533">
        <ele>1.135</ele>
        <time>2026-08-21T16:56:32Z</time>
      </trkpt>
      <trkpt lat="48.642191" lon="-1.508538">
        <ele>1.116</ele>
        <time>2026-08-21T16:56:33Z</time>
      </trkpt>
      <trkpt lat="48.642173" lon="-1.508544">
        <ele>1.180</ele>
        <time>2026-08-21T16:56:35Z</time>
      </trkpt>
      <trkpt lat="48.642162" lon="-1.508551">
        <ele>1.197</ele>
        <time>2026-08-21T16:56:36Z</time>
      </trkpt>
      <trkpt lat="48.642151" lon="-1.508554">
        <ele>1.154</ele>
        <time>2026-08-21T16:56:37Z</time>
      </trkpt>
      <trkpt lat="48.642141" lon="-1.508553">
        <ele>1.156</ele>
        <time>2026-08-21T16:56:38Z</time>
      </trkpt>
      <trkpt lat="48.642130" lon="-1.508553">
        <ele>1.111</ele>
        <time>2026-08-21T16:56:39Z</time>
      </trkpt>
      <trkpt lat="48.642118" lon="-1.508559">
        <ele>1.109</ele>
        <time>2026-08-21T16:56:40Z</time>
      </trkpt>
      <trkpt lat="48.642106" lon="-1.508566">
        <ele>1.137</ele>
        <time>2026-08-21T16:56:41Z</time>
      </trkpt>
      <trkpt lat="48.642095" lon="-1.508568">
        <ele>1.113</ele>
        <time>2026-08-21T16:56:42Z</time>
      </trkpt>
      <trkpt lat="48.642078" lon="-1.508570">
        <ele>1.216</ele>
        <time>2026-08-21T16:56:44Z</time>
      </trkpt>
      <trkpt lat="48.642065" lon="-1.508572">
        <ele>1.297</ele>
        <time>2026-08-21T16:56:45Z</time>
      </trkpt>
      <trkpt lat="48.642053" lon="-1.508579">
        <ele>1.210</ele>
        <time>2026-08-21T16:56:46Z</time>
      </trkpt>
      <trkpt lat="48.642041" lon="-1.508581">
        <ele>1.227</ele>
        <time>2026-08-21T16:56:47Z</time>
      </trkpt>
      <trkpt lat="48.642033" lon="-1.508586">
        <ele>1.218</ele>
        <time>2026-08-21T16:56:48Z</time>
      </trkpt>
      <trkpt lat="48.642018" lon="-1.508599">
        <ele>1.272</ele>
        <time>2026-08-21T16:56:50Z</time>
      </trkpt>
      <trkpt lat="48.642008" lon="-1.508603">
        <ele>1.279</ele>
        <time>2026-08-21T16:56:51Z</time>
      </trkpt>
      <trkpt lat="48.641996" lon="-1.508606">
        <ele>1.298</ele>
        <time>2026-08-21T16:56:52Z</time>
      </trkpt>
      <trkpt lat="48.641983" lon="-1.508613">
        <ele>1.215</ele>
        <time>2026-08-21T16:56:53Z</time>
      </trkpt>
      <trkpt lat="48.641971" lon="-1.508611">
        <ele>1.226</ele>
        <time>2026-08-21T16:56:54Z</time>
      </trkpt>
      <trkpt lat="48.641961" lon="-1.508615">
        <ele>1.209</ele>
        <time>2026-08-21T16:56:55Z</time>
      </trkpt>
      <trkpt lat="48.641953" lon="-1.508622">
        <ele>1.261</ele>
        <time>2026-08-21T16:56:56Z</time>
      </trkpt>
      <trkpt lat="48.641942" lon="-1.508628">
        <ele>1.247</ele>
        <time>2026-08-21T16:56:57Z</time>
      </trkpt>
      <trkpt lat="48.641931" lon="-1.508633">
        <ele>1.290</ele>
        <time>2026-08-21T16:56:58Z</time>
      </trkpt>
      <trkpt lat="48.641918" lon="-1.508635">
        <ele>1.231</ele>
        <time>2026-08-21T16:56:59Z</time>
      </trkpt>
      <trkpt lat="48.641909" lon="-1.508640">
        <ele>1.274</ele>
        <time>2026-08-21T16:57:00Z</time>
      </trkpt>
      <trkpt lat="48.641894" lon="-1.508646">
        <ele>1.281</ele>
        <time>2026-08-21T16:57:02Z</time>
      </trkpt>
      <trkpt lat="48.641880" lon="-1.508652">
        <ele>1.182</ele>
        <time>2026-08-21T16:57:03Z</time>
      </trkpt>
      <trkpt lat="48.641866" lon="-1.508656">
        <ele>1.156</ele>
        <time>2026-08-21T16:57:04Z</time>
      </trkpt>
      <trkpt lat="48.641854" lon="-1.508659">
        <ele>1.173</ele>
        <time>2026-08-21T16:57:05Z</time>
      </trkpt>
      <trkpt lat="48.641837" lon="-1.508664">
        <ele>1.168</ele>
        <time>2026-08-21T16:57:07Z</time>
      </trkpt>
      <trkpt lat="48.641827" lon="-1.508666">
        <ele>1.042</ele>
        <time>2026-08-21T16:57:08Z</time>
      </trkpt>
      <trkpt lat="48.641815" lon="-1.508673">
        <ele>0.826</ele>
        <time>2026-08-21T16:57:09Z</time>
      </trkpt>
      <trkpt lat="48.641800" lon="-1.508675">
        <ele>0.709</ele>
        <time>2026-08-21T16:57:10Z</time>
      </trkpt>
      <trkpt lat="48.641788" lon="-1.508673">
        <ele>0.638</ele>
        <time>2026-08-21T16:57:11Z</time>
      </trkpt>
      <trkpt lat="48.641778" lon="-1.508673">
        <ele>0.634</ele>
        <time>2026-08-21T16:57:12Z</time>
      </trkpt>
      <trkpt lat="48.641759" lon="-1.508677">
        <ele>0.667</ele>
        <time>2026-08-21T16:57:14Z</time>
      </trkpt>
      <trkpt lat="48.641747" lon="-1.508684">
        <ele>0.628</ele>
        <time>2026-08-21T16:57:15Z</time>
      </trkpt>
      <trkpt lat="48.641734" lon="-1.508689">
        <ele>0.641</ele>
        <time>2026-08-21T16:57:16Z</time>
      </trkpt>
      <trkpt lat="48.641715" lon="-1.508698">
        <ele>0.628</ele>
        <time>2026-08-21T16:57:18Z</time>
      </trkpt>
      <trkpt lat="48.641695" lon="-1.508704">
        <ele>0.629</ele>
        <time>2026-08-21T16:57:20Z</time>
      </trkpt>
      <trkpt lat="48.641683" lon="-1.508711">
        <ele>0.653</ele>
        <time>2026-08-21T16:57:21Z</time>
      </trkpt>
      <trkpt lat="48.641674" lon="-1.508711">
        <ele>0.650</ele>
        <time>2026-08-21T16:57:22Z</time>
      </trkpt>
      <trkpt lat="48.641663" lon="-1.508715">
        <ele>0.612</ele>
        <time>2026-08-21T16:57:23Z</time>
      </trkpt>
      <trkpt lat="48.641648" lon="-1.508719">
        <ele>0.632</ele>
        <time>2026-08-21T16:57:25Z</time>
      </trkpt>
      <trkpt lat="48.641635" lon="-1.508723">
        <ele>0.605</ele>
        <time>2026-08-21T16:57:26Z</time>
      </trkpt>
      <trkpt lat="48.641622" lon="-1.508729">
        <ele>0.609</ele>
        <time>2026-08-21T16:57:27Z</time>
      </trkpt>
      <trkpt lat="48.641609" lon="-1.508734">
        <ele>0.633</ele>
        <time>2026-08-21T16:57:28Z</time>
      </trkpt>
      <trkpt lat="48.641599" lon="-1.508734">
        <ele>0.639</ele>
        <time>2026-08-21T16:57:29Z</time>
      </trkpt>
      <trkpt lat="48.641589" lon="-1.508738">
        <ele>0.792</ele>
        <time>2026-08-21T16:57:30Z</time>
      </trkpt>
      <trkpt lat="48.641580" lon="-1.508743">
        <ele>0.733</ele>
        <time>2026-08-21T16:57:31Z</time>
      </trkpt>
      <trkpt lat="48.641570" lon="-1.508747">
        <ele>0.796</ele>
        <time>2026-08-21T16:57:32Z</time>
      </trkpt>
      <trkpt lat="48.641558" lon="-1.508754">
        <ele>0.713</ele>
        <time>2026-08-21T16:57:33Z</time>
      </trkpt>
      <trkpt lat="48.641542" lon="-1.508762">
        <ele>0.714</ele>
        <time>2026-08-21T16:57:35Z</time>
      </trkpt>
      <trkpt lat="48.641524" lon="-1.508770">
        <ele>0.718</ele>
        <time>2026-08-21T16:57:37Z</time>
      </trkpt>
      <trkpt lat="48.641512" lon="-1.508775">
        <ele>0.725</ele>
        <time>2026-08-21T16:57:38Z</time>
      </trkpt>
      <trkpt lat="48.641500" lon="-1.508778">
        <ele>0.756</ele>
        <time>2026-08-21T16:57:39Z</time>
      </trkpt>
      <trkpt lat="48.641484" lon="-1.508785">
        <ele>0.859</ele>
        <time>2026-08-21T16:57:41Z</time>
      </trkpt>
      <trkpt lat="48.641474" lon="-1.508788">
        <ele>0.814</ele>
        <time>2026-08-21T16:57:42Z</time>
      </trkpt>
      <trkpt lat="48.641457" lon="-1.508792">
        <ele>0.809</ele>
        <time>2026-08-21T16:57:43Z</time>
      </trkpt>
      <trkpt lat="48.641444" lon="-1.508793">
        <ele>0.897</ele>
        <time>2026-08-21T16:57:44Z</time>
      </trkpt>
      <trkpt lat="48.641431" lon="-1.508792">
        <ele>0.863</ele>
        <time>2026-08-21T16:57:45Z</time>
      </trkpt>
      <trkpt lat="48.641421" lon="-1.508793">
        <ele>0.896</ele>
        <time>2026-08-21T16:57:46Z</time>
      </trkpt>
      <trkpt lat="48.641403" lon="-1.508805">
        <ele>0.877</ele>
        <time>2026-08-21T16:57:48Z</time>
      </trkpt>
      <trkpt lat="48.641391" lon="-1.508812">
        <ele>0.820</ele>
        <time>2026-08-21T16:57:49Z</time>
      </trkpt>
      <trkpt lat="48.641379" lon="-1.508816">
        <ele>0.897</ele>
        <time>2026-08-21T16:57:50Z</time>
      </trkpt>
      <trkpt lat="48.641369" lon="-1.508821">
        <ele>0.878</ele>
        <time>2026-08-21T16:57:51Z</time>
      </trkpt>
      <trkpt lat="48.641353" lon="-1.508825">
        <ele>0.872</ele>
        <time>2026-08-21T16:57:53Z</time>
      </trkpt>
      <trkpt lat="48.641342" lon="-1.508829">
        <ele>0.839</ele>
        <time>2026-08-21T16:57:54Z</time>
      </trkpt>
      <trkpt lat="48.641334" lon="-1.508837">
        <ele>0.854</ele>
        <time>2026-08-21T16:57:55Z</time>
      </trkpt>
      <trkpt lat="48.641320" lon="-1.508848">
        <ele>0.756</ele>
        <time>2026-08-21T16:57:57Z</time>
      </trkpt>
      <trkpt lat="48.641308" lon="-1.508849">
        <ele>0.711</ele>
        <time>2026-08-21T16:57:58Z</time>
      </trkpt>
      <trkpt lat="48.641295" lon="-1.508851">
        <ele>0.709</ele>
        <time>2026-08-21T16:57:59Z</time>
      </trkpt>
      <trkpt lat="48.641283" lon="-1.508857">
        <ele>0.737</ele>
        <time>2026-08-21T16:58:00Z</time>
      </trkpt>
      <trkpt lat="48.641267" lon="-1.508865">
        <ele>0.773</ele>
        <time>2026-08-21T16:58:02Z</time>
      </trkpt>
      <trkpt lat="48.641255" lon="-1.508871">
        <ele>0.676</ele>
        <time>2026-08-21T16:58:03Z</time>
      </trkpt>
      <trkpt lat="48.641242" lon="-1.508888">
        <ele>0.617</ele>
        <time>2026-08-21T16:58:05Z</time>
      </trkpt>
      <trkpt lat="48.641223" lon="-1.508896">
        <ele>0.590</ele>
        <time>2026-08-21T16:58:07Z</time>
      </trkpt>
      <trkpt lat="48.641209" lon="-1.508897">
        <ele>0.557</ele>
        <time>2026-08-21T16:58:08Z</time>
      </trkpt>
      <trkpt lat="48.641198" lon="-1.508899">
        <ele>0.528</ele>
        <time>2026-08-21T16:58:09Z</time>
      </trkpt>
      <trkpt lat="48.641189" lon="-1.508905">
        <ele>0.592</ele>
        <time>2026-08-21T16:58:10Z</time>
      </trkpt>
      <trkpt lat="48.641181" lon="-1.508909">
        <ele>0.559</ele>
        <time>2026-08-21T16:58:11Z</time>
      </trkpt>
      <trkpt lat="48.641169" lon="-1.508919">
        <ele>0.513</ele>
        <time>2026-08-21T16:58:12Z</time>
      </trkpt>
      <trkpt lat="48.641156" lon="-1.508927">
        <ele>0.543</ele>
        <time>2026-08-21T16:58:13Z</time>
      </trkpt>
      <trkpt lat="48.641146" lon="-1.508930">
        <ele>0.507</ele>
        <time>2026-08-21T16:58:14Z</time>
      </trkpt>
      <trkpt lat="48.641131" lon="-1.508945">
        <ele>0.509</ele>
        <time>2026-08-21T16:58:16Z</time>
      </trkpt>
      <trkpt lat="48.641121" lon="-1.508953">
        <ele>0.543</ele>
        <time>2026-08-21T16:58:17Z</time>
      </trkpt>
      <trkpt lat="48.641112" lon="-1.508958">
        <ele>0.599</ele>
        <time>2026-08-21T16:58:18Z</time>
      </trkpt>
      <trkpt lat="48.641102" lon="-1.508963">
        <ele>0.552</ele>
        <time>2026-08-21T16:58:19Z</time>
      </trkpt>
      <trkpt lat="48.641085" lon="-1.508974">
        <ele>0.573</ele>
        <time>2026-08-21T16:58:21Z</time>
      </trkpt>
      <trkpt lat="48.641075" lon="-1.508978">
        <ele>0.596</ele>
        <time>2026-08-21T16:58:22Z</time>
      </trkpt>
      <trkpt lat="48.641065" lon="-1.508984">
        <ele>0.563</ele>
        <time>2026-08-21T16:58:23Z</time>
      </trkpt>
      <trkpt lat="48.641048" lon="-1.508990">
        <ele>0.544</ele>
        <time>2026-08-21T16:58:25Z</time>
      </trkpt>
      <trkpt lat="48.641038" lon="-1.508996">
        <ele>0.538</ele>
        <time>2026-08-21T16:58:26Z</time>
      </trkpt>
      <trkpt lat="48.641028" lon="-1.509002">
        <ele>0.565</ele>
        <time>2026-08-21T16:58:27Z</time>
      </trkpt>
      <trkpt lat="48.641015" lon="-1.509009">
        <ele>0.515</ele>
        <time>2026-08-21T16:58:29Z</time>
      </trkpt>
      <trkpt lat="48.641005" lon="-1.509019">
        <ele>0.665</ele>
        <time>2026-08-21T16:58:31Z</time>
      </trkpt>
      <trkpt lat="48.640994" lon="-1.509023">
        <ele>0.611</ele>
        <time>2026-08-21T16:58:33Z</time>
      </trkpt>
      <trkpt lat="48.640983" lon="-1.509023">
        <ele>0.609</ele>
        <time>2026-08-21T16:58:36Z</time>
      </trkpt>
      <trkpt lat="48.640970" lon="-1.509031">
        <ele>0.673</ele>
        <time>2026-08-21T16:58:59Z</time>
      </trkpt>
      <trkpt lat="48.640959" lon="-1.509037">
        <ele>0.739</ele>
        <time>2026-08-21T16:59:00Z</time>
      </trkpt>
      <trkpt lat="48.640946" lon="-1.509045">
        <ele>0.742</ele>
        <time>2026-08-21T16:59:01Z</time>
      </trkpt>
      <trkpt lat="48.640936" lon="-1.509049">
        <ele>0.713</ele>
        <time>2026-08-21T16:59:02Z</time>
      </trkpt>
      <trkpt lat="48.640919" lon="-1.509052">
        <ele>0.736</ele>
        <time>2026-08-21T16:59:04Z</time>
      </trkpt>
      <trkpt lat="48.640909" lon="-1.509051">
        <ele>0.793</ele>
        <time>2026-08-21T16:59:05Z</time>
      </trkpt>
      <trkpt lat="48.640896" lon="-1.509055">
        <ele>0.894</ele>
        <time>2026-08-21T16:59:06Z</time>
      </trkpt>
      <trkpt lat="48.640880" lon="-1.509060">
        <ele>0.918</ele>
        <time>2026-08-21T16:59:08Z</time>
      </trkpt>
      <trkpt lat="48.640860" lon="-1.509064">
        <ele>1.095</ele>
        <time>2026-08-21T16:59:10Z</time>
      </trkpt>
      <trkpt lat="48.640843" lon="-1.509071">
        <ele>1.142</ele>
        <time>2026-08-21T16:59:12Z</time>
      </trkpt>
      <trkpt lat="48.640826" lon="-1.509078">
        <ele>1.222</ele>
        <time>2026-08-21T16:59:14Z</time>
      </trkpt>
      <trkpt lat="48.640816" lon="-1.509084">
        <ele>1.214</ele>
        <time>2026-08-21T16:59:15Z</time>
      </trkpt>
      <trkpt lat="48.640804" lon="-1.509090">
        <ele>1.309</ele>
        <time>2026-08-21T16:59:16Z</time>
      </trkpt>
      <trkpt lat="48.640789" lon="-1.509100">
        <ele>1.386</ele>
        <time>2026-08-21T16:59:18Z</time>
      </trkpt>
      <trkpt lat="48.640779" lon="-1.509099">
        <ele>1.332</ele>
        <time>2026-08-21T16:59:19Z</time>
      </trkpt>
      <trkpt lat="48.640766" lon="-1.509102">
        <ele>1.355</ele>
        <time>2026-08-21T16:59:20Z</time>
      </trkpt>
      <trkpt lat="48.640753" lon="-1.509102">
        <ele>1.316</ele>
        <time>2026-08-21T16:59:21Z</time>
      </trkpt>
      <trkpt lat="48.640743" lon="-1.509104">
        <ele>1.489</ele>
        <time>2026-08-21T16:59:22Z</time>
      </trkpt>
      <trkpt lat="48.640728" lon="-1.509111">
        <ele>1.486</ele>
        <time>2026-08-21T16:59:24Z</time>
      </trkpt>
      <trkpt lat="48.640716" lon="-1.509120">
        <ele>1.427</ele>
        <time>2026-08-21T16:59:25Z</time>
      </trkpt>
      <trkpt lat="48.640706" lon="-1.509124">
        <ele>1.471</ele>
        <time>2026-08-21T16:59:26Z</time>
      </trkpt>
      <trkpt lat="48.640695" lon="-1.509126">
        <ele>1.458</ele>
        <time>2026-08-21T16:59:27Z</time>
      </trkpt>
      <trkpt lat="48.640685" lon="-1.509127">
        <ele>1.449</ele>
        <time>2026-08-21T16:59:28Z</time>
      </trkpt>
      <trkpt lat="48.640675" lon="-1.509132">
        <ele>1.502</ele>
        <time>2026-08-21T16:59:29Z</time>
      </trkpt>
      <trkpt lat="48.640662" lon="-1.509135">
        <ele>1.522</ele>
        <time>2026-08-21T16:59:30Z</time>
      </trkpt>
      <trkpt lat="48.640651" lon="-1.509135">
        <ele>1.509</ele>
        <time>2026-08-21T16:59:31Z</time>
      </trkpt>
      <trkpt lat="48.640640" lon="-1.509133">
        <ele>1.556</ele>
        <time>2026-08-21T16:59:32Z</time>
      </trkpt>
      <trkpt lat="48.640629" lon="-1.509138">
        <ele>1.552</ele>
        <time>2026-08-21T16:59:33Z</time>
      </trkpt>
      <trkpt lat="48.640619" lon="-1.509143">
        <ele>1.615</ele>
        <time>2026-08-21T16:59:34Z</time>
      </trkpt>
      <trkpt lat="48.640606" lon="-1.509145">
        <ele>1.746</ele>
        <time>2026-08-21T16:59:35Z</time>
      </trkpt>
      <trkpt lat="48.640597" lon="-1.509152">
        <ele>1.729</ele>
        <time>2026-08-21T16:59:36Z</time>
      </trkpt>
      <trkpt lat="48.640581" lon="-1.509152">
        <ele>1.746</ele>
        <time>2026-08-21T16:59:38Z</time>
      </trkpt>
      <trkpt lat="48.640571" lon="-1.509149">
        <ele>1.797</ele>
        <time>2026-08-21T16:59:39Z</time>
      </trkpt>
      <trkpt lat="48.640559" lon="-1.509156">
        <ele>1.891</ele>
        <time>2026-08-21T16:59:40Z</time>
      </trkpt>
      <trkpt lat="48.640549" lon="-1.509161">
        <ele>1.868</ele>
        <time>2026-08-21T16:59:41Z</time>
      </trkpt>
      <trkpt lat="48.640539" lon="-1.509173">
        <ele>1.831</ele>
        <time>2026-08-21T16:59:43Z</time>
      </trkpt>
      <trkpt lat="48.640520" lon="-1.509181">
        <ele>1.961</ele>
        <time>2026-08-21T16:59:45Z</time>
      </trkpt>
      <trkpt lat="48.640506" lon="-1.509187">
        <ele>1.907</ele>
        <time>2026-08-21T16:59:46Z</time>
      </trkpt>
      <trkpt lat="48.640495" lon="-1.509186">
        <ele>1.909</ele>
        <time>2026-08-21T16:59:47Z</time>
      </trkpt>
      <trkpt lat="48.640485" lon="-1.509182">
        <ele>1.965</ele>
        <time>2026-08-21T16:59:48Z</time>
      </trkpt>
      <trkpt lat="48.640476" lon="-1.509186">
        <ele>1.911</ele>
        <time>2026-08-21T16:59:49Z</time>
      </trkpt>
      <trkpt lat="48.640466" lon="-1.509181">
        <ele>2.054</ele>
        <time>2026-08-21T16:59:50Z</time>
      </trkpt>
      <trkpt lat="48.640455" lon="-1.509177">
        <ele>2.065</ele>
        <time>2026-08-21T16:59:51Z</time>
      </trkpt>
      <trkpt lat="48.640442" lon="-1.509177">
        <ele>2.058</ele>
        <time>2026-08-21T16:59:52Z</time>
      </trkpt>
      <trkpt lat="48.640427" lon="-1.509182">
        <ele>2.185</ele>
        <time>2026-08-21T16:59:53Z</time>
      </trkpt>
      <trkpt lat="48.640414" lon="-1.509188">
        <ele>2.126</ele>
        <time>2026-08-21T16:59:54Z</time>
      </trkpt>
      <trkpt lat="48.640405" lon="-1.509193">
        <ele>2.130</ele>
        <time>2026-08-21T16:59:55Z</time>
      </trkpt>
      <trkpt lat="48.640386" lon="-1.509196">
        <ele>2.127</ele>
        <time>2026-08-21T16:59:57Z</time>
      </trkpt>
      <trkpt lat="48.640374" lon="-1.509196">
        <ele>2.251</ele>
        <time>2026-08-21T16:59:58Z</time>
      </trkpt>
      <trkpt lat="48.640359" lon="-1.509204">
        <ele>2.201</ele>
        <time>2026-08-21T16:59:59Z</time>
      </trkpt>
      <trkpt lat="48.640346" lon="-1.509205">
        <ele>2.211</ele>
        <time>2026-08-21T17:00:00Z</time>
      </trkpt>
      <trkpt lat="48.640337" lon="-1.509210">
        <ele>2.209</ele>
        <time>2026-08-21T17:00:01Z</time>
      </trkpt>
      <trkpt lat="48.640326" lon="-1.509215">
        <ele>2.327</ele>
        <time>2026-08-21T17:00:02Z</time>
      </trkpt>
      <trkpt lat="48.640316" lon="-1.509218">
        <ele>2.353</ele>
        <time>2026-08-21T17:00:03Z</time>
      </trkpt>
      <trkpt lat="48.640306" lon="-1.509222">
        <ele>2.346</ele>
        <time>2026-08-21T17:00:04Z</time>
      </trkpt>
      <trkpt lat="48.640294" lon="-1.509230">
        <ele>2.327</ele>
        <time>2026-08-21T17:00:05Z</time>
      </trkpt>
      <trkpt lat="48.640284" lon="-1.509232">
        <ele>2.390</ele>
        <time>2026-08-21T17:00:06Z</time>
      </trkpt>
      <trkpt lat="48.640275" lon="-1.509235">
        <ele>2.327</ele>
        <time>2026-08-21T17:00:07Z</time>
      </trkpt>
      <trkpt lat="48.640255" lon="-1.509240">
        <ele>2.398</ele>
        <time>2026-08-21T17:00:10Z</time>
      </trkpt>
      <trkpt lat="48.640240" lon="-1.509245">
        <ele>2.322</ele>
        <time>2026-08-21T17:00:11Z</time>
      </trkpt>
      <trkpt lat="48.640231" lon="-1.509248">
        <ele>2.389</ele>
        <time>2026-08-21T17:00:12Z</time>
      </trkpt>
      <trkpt lat="48.640219" lon="-1.509252">
        <ele>2.326</ele>
        <time>2026-08-21T17:00:13Z</time>
      </trkpt>
      <trkpt lat="48.640207" lon="-1.509258">
        <ele>2.347</ele>
        <time>2026-08-21T17:00:14Z</time>
      </trkpt>
      <trkpt lat="48.640193" lon="-1.509261">
        <ele>2.311</ele>
        <time>2026-08-21T17:00:15Z</time>
      </trkpt>
      <trkpt lat="48.640182" lon="-1.509261">
        <ele>2.309</ele>
        <time>2026-08-21T17:00:16Z</time>
      </trkpt>
      <trkpt lat="48.640168" lon="-1.509268">
        <ele>2.384</ele>
        <time>2026-08-21T17:00:18Z</time>
      </trkpt>
      <trkpt lat="48.640159" lon="-1.509273">
        <ele>2.330</ele>
        <time>2026-08-21T17:00:19Z</time>
      </trkpt>
      <trkpt lat="48.640147" lon="-1.509278">
        <ele>2.383</ele>
        <time>2026-08-21T17:00:20Z</time>
      </trkpt>
      <trkpt lat="48.640134" lon="-1.509279">
        <ele>2.394</ele>
        <time>2026-08-21T17:00:21Z</time>
      </trkpt>
      <trkpt lat="48.640124" lon="-1.509281">
        <ele>2.297</ele>
        <time>2026-08-21T17:00:22Z</time>
      </trkpt>
      <trkpt lat="48.640115" lon="-1.509286">
        <ele>2.244</ele>
        <time>2026-08-21T17:00:23Z</time>
      </trkpt>
      <trkpt lat="48.640112" lon="-1.509303">
        <ele>2.225</ele>
        <time>2026-08-21T17:00:24Z</time>
      </trkpt>
      <trkpt lat="48.640100" lon="-1.509306">
        <ele>1.819</ele>
        <time>2026-08-21T17:00:46Z</time>
      </trkpt>
      <trkpt lat="48.640086" lon="-1.509311">
        <ele>1.376</ele>
        <time>2026-08-21T17:00:47Z</time>
      </trkpt>
      <trkpt lat="48.640075" lon="-1.509314">
        <ele>1.217</ele>
        <time>2026-08-21T17:00:48Z</time>
      </trkpt>
      <trkpt lat="48.640065" lon="-1.509320">
        <ele>1.187</ele>
        <time>2026-08-21T17:00:49Z</time>
      </trkpt>
      <trkpt lat="48.640051" lon="-1.509329">
        <ele>1.115</ele>
        <time>2026-08-21T17:00:50Z</time>
      </trkpt>
      <trkpt lat="48.640037" lon="-1.509334">
        <ele>1.009</ele>
        <time>2026-08-21T17:00:51Z</time>
      </trkpt>
      <trkpt lat="48.640025" lon="-1.509340">
        <ele>1.033</ele>
        <time>2026-08-21T17:00:52Z</time>
      </trkpt>
      <trkpt lat="48.640013" lon="-1.509344">
        <ele>1.089</ele>
        <time>2026-08-21T17:00:53Z</time>
      </trkpt>
      <trkpt lat="48.640003" lon="-1.509347">
        <ele>0.982</ele>
        <time>2026-08-21T17:00:54Z</time>
      </trkpt>
      <trkpt lat="48.639986" lon="-1.509359">
        <ele>0.943</ele>
        <time>2026-08-21T17:00:56Z</time>
      </trkpt>
      <trkpt lat="48.639975" lon="-1.509366">
        <ele>0.936</ele>
        <time>2026-08-21T17:00:57Z</time>
      </trkpt>
      <trkpt lat="48.639962" lon="-1.509379">
        <ele>0.983</ele>
        <time>2026-08-21T17:00:58Z</time>
      </trkpt>
      <trkpt lat="48.639949" lon="-1.509391">
        <ele>0.934</ele>
        <time>2026-08-21T17:00:59Z</time>
      </trkpt>
      <trkpt lat="48.639937" lon="-1.509396">
        <ele>0.978</ele>
        <time>2026-08-21T17:01:00Z</time>
      </trkpt>
      <trkpt lat="48.639921" lon="-1.509403">
        <ele>0.925</ele>
        <time>2026-08-21T17:01:02Z</time>
      </trkpt>
      <trkpt lat="48.639912" lon="-1.509414">
        <ele>0.971</ele>
        <time>2026-08-21T17:01:03Z</time>
      </trkpt>
      <trkpt lat="48.639900" lon="-1.509425">
        <ele>0.841</ele>
        <time>2026-08-21T17:01:04Z</time>
      </trkpt>
      <trkpt lat="48.639886" lon="-1.509433">
        <ele>0.815</ele>
        <time>2026-08-21T17:01:05Z</time>
      </trkpt>
      <trkpt lat="48.639869" lon="-1.509438">
        <ele>0.809</ele>
        <time>2026-08-21T17:01:06Z</time>
      </trkpt>
      <trkpt lat="48.639856" lon="-1.509447">
        <ele>0.769</ele>
        <time>2026-08-21T17:01:07Z</time>
      </trkpt>
      <trkpt lat="48.639845" lon="-1.509450">
        <ele>0.745</ele>
        <time>2026-08-21T17:01:08Z</time>
      </trkpt>
      <trkpt lat="48.639835" lon="-1.509462">
        <ele>0.728</ele>
        <time>2026-08-21T17:01:09Z</time>
      </trkpt>
      <trkpt lat="48.639825" lon="-1.509467">
        <ele>0.719</ele>
        <time>2026-08-21T17:01:10Z</time>
      </trkpt>
      <trkpt lat="48.639815" lon="-1.509471">
        <ele>0.772</ele>
        <time>2026-08-21T17:01:11Z</time>
      </trkpt>
      <trkpt lat="48.639803" lon="-1.509477">
        <ele>0.779</ele>
        <time>2026-08-21T17:01:12Z</time>
      </trkpt>
      <trkpt lat="48.639790" lon="-1.509486">
        <ele>0.720</ele>
        <time>2026-08-21T17:01:13Z</time>
      </trkpt>
      <trkpt lat="48.639776" lon="-1.509500">
        <ele>0.744</ele>
        <time>2026-08-21T17:01:14Z</time>
      </trkpt>
      <trkpt lat="48.639765" lon="-1.509508">
        <ele>0.761</ele>
        <time>2026-08-21T17:01:15Z</time>
      </trkpt>
      <trkpt lat="48.639748" lon="-1.509518">
        <ele>0.742</ele>
        <time>2026-08-21T17:01:17Z</time>
      </trkpt>
      <trkpt lat="48.639738" lon="-1.509525">
        <ele>0.722</ele>
        <time>2026-08-21T17:01:18Z</time>
      </trkpt>
      <trkpt lat="48.639726" lon="-1.509529">
        <ele>0.714</ele>
        <time>2026-08-21T17:01:19Z</time>
      </trkpt>
      <trkpt lat="48.639712" lon="-1.509537">
        <ele>0.809</ele>
        <time>2026-08-21T17:01:20Z</time>
      </trkpt>
      <trkpt lat="48.639699" lon="-1.509549">
        <ele>0.826</ele>
        <time>2026-08-21T17:01:21Z</time>
      </trkpt>
      <trkpt lat="48.639687" lon="-1.509560">
        <ele>0.972</ele>
        <time>2026-08-21T17:01:22Z</time>
      </trkpt>
      <trkpt lat="48.639675" lon="-1.509560">
        <ele>0.955</ele>
        <time>2026-08-21T17:01:23Z</time>
      </trkpt>
      <trkpt lat="48.639664" lon="-1.509561">
        <ele>0.936</ele>
        <time>2026-08-21T17:01:24Z</time>
      </trkpt>
      <trkpt lat="48.639654" lon="-1.509566">
        <ele>0.969</ele>
        <time>2026-08-21T17:01:25Z</time>
      </trkpt>
      <trkpt lat="48.639642" lon="-1.509574">
        <ele>0.986</ele>
        <time>2026-08-21T17:01:26Z</time>
      </trkpt>
      <trkpt lat="48.639630" lon="-1.509584">
        <ele>0.967</ele>
        <time>2026-08-21T17:01:27Z</time>
      </trkpt>
      <trkpt lat="48.639616" lon="-1.509591">
        <ele>0.931</ele>
        <time>2026-08-21T17:01:28Z</time>
      </trkpt>
      <trkpt lat="48.639601" lon="-1.509599">
        <ele>0.948</ele>
        <time>2026-08-21T17:01:29Z</time>
      </trkpt>
      <trkpt lat="48.639593" lon="-1.509607">
        <ele>0.912</ele>
        <time>2026-08-21T17:01:30Z</time>
      </trkpt>
      <trkpt lat="48.639580" lon="-1.509617">
        <ele>0.932</ele>
        <time>2026-08-21T17:01:32Z</time>
      </trkpt>
      <trkpt lat="48.639571" lon="-1.509627">
        <ele>0.905</ele>
        <time>2026-08-21T17:01:33Z</time>
      </trkpt>
      <trkpt lat="48.639556" lon="-1.509635">
        <ele>0.909</ele>
        <time>2026-08-21T17:01:34Z</time>
      </trkpt>
      <trkpt lat="48.639540" lon="-1.509643">
        <ele>0.923</ele>
        <time>2026-08-21T17:01:35Z</time>
      </trkpt>
      <trkpt lat="48.639525" lon="-1.509653">
        <ele>1.089</ele>
        <time>2026-08-21T17:01:36Z</time>
      </trkpt>
      <trkpt lat="48.639513" lon="-1.509655">
        <ele>1.092</ele>
        <time>2026-08-21T17:01:37Z</time>
      </trkpt>
      <trkpt lat="48.639502" lon="-1.509658">
        <ele>1.063</ele>
        <time>2026-08-21T17:01:38Z</time>
      </trkpt>
      <trkpt lat="48.639483" lon="-1.509665">
        <ele>1.076</ele>
        <time>2026-08-21T17:01:40Z</time>
      </trkpt>
      <trkpt lat="48.639472" lon="-1.509676">
        <ele>1.013</ele>
        <time>2026-08-21T17:01:41Z</time>
      </trkpt>
      <trkpt lat="48.639461" lon="-1.509687">
        <ele>1.194</ele>
        <time>2026-08-21T17:01:42Z</time>
      </trkpt>
      <trkpt lat="48.639451" lon="-1.509694">
        <ele>1.048</ele>
        <time>2026-08-21T17:01:43Z</time>
      </trkpt>
      <trkpt lat="48.639440" lon="-1.509699">
        <ele>1.085</ele>
        <time>2026-08-21T17:01:44Z</time>
      </trkpt>
      <trkpt lat="48.639430" lon="-1.509703">
        <ele>1.061</ele>
        <time>2026-08-21T17:01:45Z</time>
      </trkpt>
      <trkpt lat="48.639420" lon="-1.509706">
        <ele>1.021</ele>
        <time>2026-08-21T17:01:46Z</time>
      </trkpt>
      <trkpt lat="48.639410" lon="-1.509715">
        <ele>1.013</ele>
        <time>2026-08-21T17:01:47Z</time>
      </trkpt>
      <trkpt lat="48.639396" lon="-1.509727">
        <ele>1.009</ele>
        <time>2026-08-21T17:01:48Z</time>
      </trkpt>
      <trkpt lat="48.639384" lon="-1.509737">
        <ele>1.018</ele>
        <time>2026-08-21T17:01:49Z</time>
      </trkpt>
      <trkpt lat="48.639371" lon="-1.509737">
        <ele>0.914</ele>
        <time>2026-08-21T17:01:50Z</time>
      </trkpt>
      <trkpt lat="48.639354" lon="-1.509746">
        <ele>0.947</ele>
        <time>2026-08-21T17:01:52Z</time>
      </trkpt>
      <trkpt lat="48.639345" lon="-1.509753">
        <ele>0.998</ele>
        <time>2026-08-21T17:01:53Z</time>
      </trkpt>
      <trkpt lat="48.639334" lon="-1.509763">
        <ele>0.951</ele>
        <time>2026-08-21T17:01:54Z</time>
      </trkpt>
      <trkpt lat="48.639320" lon="-1.509776">
        <ele>0.968</ele>
        <time>2026-08-21T17:01:55Z</time>
      </trkpt>
      <trkpt lat="48.639305" lon="-1.509786">
        <ele>0.949</ele>
        <time>2026-08-21T17:01:56Z</time>
      </trkpt>
      <trkpt lat="48.639292" lon="-1.509794">
        <ele>0.933</ele>
        <time>2026-08-21T17:01:57Z</time>
      </trkpt>
      <trkpt lat="48.639282" lon="-1.509798">
        <ele>0.910</ele>
        <time>2026-08-21T17:01:58Z</time>
      </trkpt>
      <trkpt lat="48.639271" lon="-1.509800">
        <ele>0.917</ele>
        <time>2026-08-21T17:01:59Z</time>
      </trkpt>
      <trkpt lat="48.639253" lon="-1.509811">
        <ele>0.987</ele>
        <time>2026-08-21T17:02:01Z</time>
      </trkpt>
      <trkpt lat="48.639243" lon="-1.509821">
        <ele>0.915</ele>
        <time>2026-08-21T17:02:02Z</time>
      </trkpt>
      <trkpt lat="48.639230" lon="-1.509833">
        <ele>0.809</ele>
        <time>2026-08-21T17:02:03Z</time>
      </trkpt>
      <trkpt lat="48.639216" lon="-1.509837">
        <ele>0.763</ele>
        <time>2026-08-21T17:02:04Z</time>
      </trkpt>
      <trkpt lat="48.639202" lon="-1.509840">
        <ele>0.779</ele>
        <time>2026-08-21T17:02:05Z</time>
      </trkpt>
      <trkpt lat="48.639185" lon="-1.509848">
        <ele>0.732</ele>
        <time>2026-08-21T17:02:07Z</time>
      </trkpt>
      <trkpt lat="48.639174" lon="-1.509855">
        <ele>0.773</ele>
        <time>2026-08-21T17:02:08Z</time>
      </trkpt>
      <trkpt lat="48.639160" lon="-1.509866">
        <ele>0.776</ele>
        <time>2026-08-21T17:02:09Z</time>
      </trkpt>
      <trkpt lat="48.639148" lon="-1.509875">
        <ele>0.693</ele>
        <time>2026-08-21T17:02:10Z</time>
      </trkpt>
      <trkpt lat="48.639136" lon="-1.509880">
        <ele>0.644</ele>
        <time>2026-08-21T17:02:11Z</time>
      </trkpt>
      <trkpt lat="48.639118" lon="-1.509886">
        <ele>0.668</ele>
        <time>2026-08-21T17:02:13Z</time>
      </trkpt>
      <trkpt lat="48.639099" lon="-1.509893">
        <ele>0.645</ele>
        <time>2026-08-21T17:02:15Z</time>
      </trkpt>
      <trkpt lat="48.639087" lon="-1.509903">
        <ele>0.677</ele>
        <time>2026-08-21T17:02:16Z</time>
      </trkpt>
      <trkpt lat="48.639076" lon="-1.509911">
        <ele>0.661</ele>
        <time>2026-08-21T17:02:17Z</time>
      </trkpt>
      <trkpt lat="48.639065" lon="-1.509917">
        <ele>0.627</ele>
        <time>2026-08-21T17:02:18Z</time>
      </trkpt>
      <trkpt lat="48.639055" lon="-1.509921">
        <ele>0.509</ele>
        <time>2026-08-21T17:02:19Z</time>
      </trkpt>
      <trkpt lat="48.639047" lon="-1.509929">
        <ele>0.549</ele>
        <time>2026-08-21T17:02:20Z</time>
      </trkpt>
      <trkpt lat="48.639036" lon="-1.509934">
        <ele>0.565</ele>
        <time>2026-08-21T17:02:21Z</time>
      </trkpt>
      <trkpt lat="48.639023" lon="-1.509944">
        <ele>0.518</ele>
        <time>2026-08-21T17:02:22Z</time>
      </trkpt>
      <trkpt lat="48.639011" lon="-1.509955">
        <ele>0.539</ele>
        <time>2026-08-21T17:02:23Z</time>
      </trkpt>
      <trkpt lat="48.639000" lon="-1.509960">
        <ele>0.582</ele>
        <time>2026-08-21T17:02:24Z</time>
      </trkpt>
      <trkpt lat="48.638989" lon="-1.509963">
        <ele>0.569</ele>
        <time>2026-08-21T17:02:25Z</time>
      </trkpt>
      <trkpt lat="48.638979" lon="-1.509965">
        <ele>0.590</ele>
        <time>2026-08-21T17:02:26Z</time>
      </trkpt>
      <trkpt lat="48.638970" lon="-1.509969">
        <ele>0.564</ele>
        <time>2026-08-21T17:02:27Z</time>
      </trkpt>
      <trkpt lat="48.638957" lon="-1.509978">
        <ele>0.531</ele>
        <time>2026-08-21T17:02:28Z</time>
      </trkpt>
      <trkpt lat="48.638945" lon="-1.509989">
        <ele>0.516</ele>
        <time>2026-08-21T17:02:29Z</time>
      </trkpt>
      <trkpt lat="48.638932" lon="-1.509999">
        <ele>0.576</ele>
        <time>2026-08-21T17:02:30Z</time>
      </trkpt>
      <trkpt lat="48.638923" lon="-1.510009">
        <ele>0.513</ele>
        <time>2026-08-21T17:02:31Z</time>
      </trkpt>
      <trkpt lat="48.638907" lon="-1.510019">
        <ele>0.509</ele>
        <time>2026-08-21T17:02:33Z</time>
      </trkpt>
      <trkpt lat="48.638897" lon="-1.510025">
        <ele>0.553</ele>
        <time>2026-08-21T17:02:34Z</time>
      </trkpt>
      <trkpt lat="48.638886" lon="-1.510031">
        <ele>0.599</ele>
        <time>2026-08-21T17:02:35Z</time>
      </trkpt>
      <trkpt lat="48.638872" lon="-1.510040">
        <ele>0.522</ele>
        <time>2026-08-21T17:02:36Z</time>
      </trkpt>
      <trkpt lat="48.638861" lon="-1.510044">
        <ele>0.563</ele>
        <time>2026-08-21T17:02:37Z</time>
      </trkpt>
      <trkpt lat="48.638850" lon="-1.510047">
        <ele>0.596</ele>
        <time>2026-08-21T17:02:38Z</time>
      </trkpt>
      <trkpt lat="48.638833" lon="-1.510054">
        <ele>0.583</ele>
        <time>2026-08-21T17:02:40Z</time>
      </trkpt>
      <trkpt lat="48.638824" lon="-1.510063">
        <ele>0.474</ele>
        <time>2026-08-21T17:02:41Z</time>
      </trkpt>
      <trkpt lat="48.638814" lon="-1.510070">
        <ele>0.488</ele>
        <time>2026-08-21T17:02:42Z</time>
      </trkpt>
      <trkpt lat="48.638805" lon="-1.510075">
        <ele>0.485</ele>
        <time>2026-08-21T17:02:43Z</time>
      </trkpt>
      <trkpt lat="48.638796" lon="-1.510078">
        <ele>0.425</ele>
        <time>2026-08-21T17:02:44Z</time>
      </trkpt>
      <trkpt lat="48.638786" lon="-1.510083">
        <ele>0.426</ele>
        <time>2026-08-21T17:02:45Z</time>
      </trkpt>
      <trkpt lat="48.638774" lon="-1.510089">
        <ele>0.408</ele>
        <time>2026-08-21T17:02:46Z</time>
      </trkpt>
      <trkpt lat="48.638761" lon="-1.510098">
        <ele>0.409</ele>
        <time>2026-08-21T17:02:47Z</time>
      </trkpt>
      <trkpt lat="48.638752" lon="-1.510103">
        <ele>0.454</ele>
        <time>2026-08-21T17:02:48Z</time>
      </trkpt>
      <trkpt lat="48.638737" lon="-1.510106">
        <ele>0.470</ele>
        <time>2026-08-21T17:02:50Z</time>
      </trkpt>
      <trkpt lat="48.638727" lon="-1.510111">
        <ele>0.483</ele>
        <time>2026-08-21T17:02:51Z</time>
      </trkpt>
      <trkpt lat="48.638710" lon="-1.510118">
        <ele>0.484</ele>
        <time>2026-08-21T17:02:53Z</time>
      </trkpt>
      <trkpt lat="48.638700" lon="-1.510120">
        <ele>0.387</ele>
        <time>2026-08-21T17:02:54Z</time>
      </trkpt>
      <trkpt lat="48.638691" lon="-1.510126">
        <ele>0.324</ele>
        <time>2026-08-21T17:02:55Z</time>
      </trkpt>
      <trkpt lat="48.638677" lon="-1.510133">
        <ele>0.335</ele>
        <time>2026-08-21T17:02:56Z</time>
      </trkpt>
      <trkpt lat="48.638667" lon="-1.510137">
        <ele>0.289</ele>
        <time>2026-08-21T17:02:57Z</time>
      </trkpt>
      <trkpt lat="48.638650" lon="-1.510148">
        <ele>0.246</ele>
        <time>2026-08-21T17:02:59Z</time>
      </trkpt>
      <trkpt lat="48.638641" lon="-1.510153">
        <ele>0.297</ele>
        <time>2026-08-21T17:03:00Z</time>
      </trkpt>
      <trkpt lat="48.638634" lon="-1.510161">
        <ele>0.223</ele>
        <time>2026-08-21T17:03:01Z</time>
      </trkpt>
      <trkpt lat="48.638619" lon="-1.510167">
        <ele>0.225</ele>
        <time>2026-08-21T17:03:03Z</time>
      </trkpt>
      <trkpt lat="48.638610" lon="-1.510170">
        <ele>0.109</ele>
        <time>2026-08-21T17:03:04Z</time>
      </trkpt>
      <trkpt lat="48.638598" lon="-1.510173">
        <ele>0.171</ele>
        <time>2026-08-21T17:03:05Z</time>
      </trkpt>
      <trkpt lat="48.638581" lon="-1.510182">
        <ele>0.147</ele>
        <time>2026-08-21T17:03:07Z</time>
      </trkpt>
      <trkpt lat="48.638573" lon="-1.510188">
        <ele>0.180</ele>
        <time>2026-08-21T17:03:08Z</time>
      </trkpt>
      <trkpt lat="48.638557" lon="-1.510196">
        <ele>0.141</ele>
        <time>2026-08-21T17:03:10Z</time>
      </trkpt>
      <trkpt lat="48.638548" lon="-1.510200">
        <ele>0.154</ele>
        <time>2026-08-21T17:03:11Z</time>
      </trkpt>
      <trkpt lat="48.638539" lon="-1.510204">
        <ele>0.121</ele>
        <time>2026-08-21T17:03:12Z</time>
      </trkpt>
      <trkpt lat="48.638529" lon="-1.510208">
        <ele>0.142</ele>
        <time>2026-08-21T17:03:13Z</time>
      </trkpt>
      <trkpt lat="48.638510" lon="-1.510217">
        <ele>0.166</ele>
        <time>2026-08-21T17:03:15Z</time>
      </trkpt>
      <trkpt lat="48.638489" lon="-1.510228">
        <ele>0.183</ele>
        <time>2026-08-21T17:03:17Z</time>
      </trkpt>
      <trkpt lat="48.638478" lon="-1.510232">
        <ele>0.159</ele>
        <time>2026-08-21T17:03:18Z</time>
      </trkpt>
      <trkpt lat="48.638469" lon="-1.510238">
        <ele>0.103</ele>
        <time>2026-08-21T17:03:19Z</time>
      </trkpt>
      <trkpt lat="48.638451" lon="-1.510243">
        <ele>0.123</ele>
        <time>2026-08-21T17:03:21Z</time>
      </trkpt>
      <trkpt lat="48.638440" lon="-1.510251">
        <ele>0.109</ele>
        <time>2026-08-21T17:03:22Z</time>
      </trkpt>
      <trkpt lat="48.638429" lon="-1.510256">
        <ele>0.157</ele>
        <time>2026-08-21T17:03:23Z</time>
      </trkpt>
      <trkpt lat="48.638412" lon="-1.510261">
        <ele>0.123</ele>
        <time>2026-08-21T17:03:25Z</time>
      </trkpt>
      <trkpt lat="48.638403" lon="-1.510262">
        <ele>0.256</ele>
        <time>2026-08-21T17:03:26Z</time>
      </trkpt>
      <trkpt lat="48.638392" lon="-1.510267">
        <ele>0.247</ele>
        <time>2026-08-21T17:03:27Z</time>
      </trkpt>
      <trkpt lat="48.638374" lon="-1.510278">
        <ele>0.240</ele>
        <time>2026-08-21T17:03:29Z</time>
      </trkpt>
      <trkpt lat="48.638365" lon="-1.510283">
        <ele>0.317</ele>
        <time>2026-08-21T17:03:30Z</time>
      </trkpt>
      <trkpt lat="48.638355" lon="-1.510289">
        <ele>0.318</ele>
        <time>2026-08-21T17:03:31Z</time>
      </trkpt>
      <trkpt lat="48.638341" lon="-1.510295">
        <ele>0.362</ele>
        <time>2026-08-21T17:03:32Z</time>
      </trkpt>
      <trkpt lat="48.638325" lon="-1.510304">
        <ele>0.319</ele>
        <time>2026-08-21T17:03:34Z</time>
      </trkpt>
      <trkpt lat="48.638305" lon="-1.510314">
        <ele>0.382</ele>
        <time>2026-08-21T17:03:36Z</time>
      </trkpt>
      <trkpt lat="48.638293" lon="-1.510321">
        <ele>0.343</ele>
        <time>2026-08-21T17:03:37Z</time>
      </trkpt>
      <trkpt lat="48.638285" lon="-1.510328">
        <ele>0.317</ele>
        <time>2026-08-21T17:03:38Z</time>
      </trkpt>
      <trkpt lat="48.638269" lon="-1.510335">
        <ele>0.309</ele>
        <time>2026-08-21T17:03:40Z</time>
      </trkpt>
      <trkpt lat="48.638258" lon="-1.510337">
        <ele>0.350</ele>
        <time>2026-08-21T17:03:41Z</time>
      </trkpt>
      <trkpt lat="48.638248" lon="-1.510342">
        <ele>0.346</ele>
        <time>2026-08-21T17:03:42Z</time>
      </trkpt>
      <trkpt lat="48.638230" lon="-1.510340">
        <ele>0.319</ele>
        <time>2026-08-21T17:03:44Z</time>
      </trkpt>
      <trkpt lat="48.638209" lon="-1.510350">
        <ele>0.330</ele>
        <time>2026-08-21T17:03:46Z</time>
      </trkpt>
      <trkpt lat="48.638197" lon="-1.510355">
        <ele>0.383</ele>
        <time>2026-08-21T17:03:47Z</time>
      </trkpt>
      <trkpt lat="48.638180" lon="-1.510364">
        <ele>0.370</ele>
        <time>2026-08-21T17:03:49Z</time>
      </trkpt>
      <trkpt lat="48.638168" lon="-1.510366">
        <ele>0.461</ele>
        <time>2026-08-21T17:03:50Z</time>
      </trkpt>
      <trkpt lat="48.638158" lon="-1.510372">
        <ele>0.465</ele>
        <time>2026-08-21T17:03:51Z</time>
      </trkpt>
      <trkpt lat="48.638149" lon="-1.510378">
        <ele>0.472</ele>
        <time>2026-08-21T17:03:52Z</time>
      </trkpt>
      <trkpt lat="48.638133" lon="-1.510383">
        <ele>0.469</ele>
        <time>2026-08-21T17:03:54Z</time>
      </trkpt>
      <trkpt lat="48.638124" lon="-1.510388">
        <ele>0.404</ele>
        <time>2026-08-21T17:03:55Z</time>
      </trkpt>
      <trkpt lat="48.638110" lon="-1.510400">
        <ele>0.424</ele>
        <time>2026-08-21T17:03:57Z</time>
      </trkpt>
      <trkpt lat="48.638102" lon="-1.510408">
        <ele>0.309</ele>
        <time>2026-08-21T17:03:58Z</time>
      </trkpt>
      <trkpt lat="48.638094" lon="-1.510415">
        <ele>0.348</ele>
        <time>2026-08-21T17:03:59Z</time>
      </trkpt>
      <trkpt lat="48.638084" lon="-1.510420">
        <ele>0.344</ele>
        <time>2026-08-21T17:04:00Z</time>
      </trkpt>
      <trkpt lat="48.638073" lon="-1.510418">
        <ele>0.357</ele>
        <time>2026-08-21T17:04:01Z</time>
      </trkpt>
      <trkpt lat="48.638060" lon="-1.510414">
        <ele>0.388</ele>
        <time>2026-08-21T17:04:02Z</time>
      </trkpt>
      <trkpt lat="48.638048" lon="-1.510415">
        <ele>0.371</ele>
        <time>2026-08-21T17:04:03Z</time>
      </trkpt>
      <trkpt lat="48.638038" lon="-1.510415">
        <ele>0.318</ele>
        <time>2026-08-21T17:04:04Z</time>
      </trkpt>
      <trkpt lat="48.638022" lon="-1.510419">
        <ele>0.389</ele>
        <time>2026-08-21T17:04:06Z</time>
      </trkpt>
      <trkpt lat="48.638010" lon="-1.510428">
        <ele>0.373</ele>
        <time>2026-08-21T17:04:07Z</time>
      </trkpt>
      <trkpt lat="48.638000" lon="-1.510431">
        <ele>0.220</ele>
        <time>2026-08-21T17:04:08Z</time>
      </trkpt>
      <trkpt lat="48.637987" lon="-1.510430">
        <ele>0.275</ele>
        <time>2026-08-21T17:04:10Z</time>
      </trkpt>
      <trkpt lat="48.637976" lon="-1.510429">
        <ele>0.228</ele>
        <time>2026-08-21T17:04:11Z</time>
      </trkpt>
      <trkpt lat="48.637966" lon="-1.510427">
        <ele>0.220</ele>
        <time>2026-08-21T17:04:12Z</time>
      </trkpt>
      <trkpt lat="48.637955" lon="-1.510426">
        <ele>0.209</ele>
        <time>2026-08-21T17:04:13Z</time>
      </trkpt>
      <trkpt lat="48.637944" lon="-1.510420">
        <ele>0.229</ele>
        <time>2026-08-21T17:04:14Z</time>
      </trkpt>
      <trkpt lat="48.637935" lon="-1.510415">
        <ele>0.275</ele>
        <time>2026-08-21T17:04:15Z</time>
      </trkpt>
      <trkpt lat="48.637926" lon="-1.510410">
        <ele>0.258</ele>
        <time>2026-08-21T17:04:16Z</time>
      </trkpt>
      <trkpt lat="48.637915" lon="-1.510404">
        <ele>0.239</ele>
        <time>2026-08-21T17:04:18Z</time>
      </trkpt>
      <trkpt lat="48.637906" lon="-1.510397">
        <ele>0.212</ele>
        <time>2026-08-21T17:04:20Z</time>
      </trkpt>
      <trkpt lat="48.637893" lon="-1.510393">
        <ele>0.329</ele>
        <time>2026-08-21T17:04:22Z</time>
      </trkpt>
      <trkpt lat="48.637878" lon="-1.510385">
        <ele>0.310</ele>
        <time>2026-08-21T17:04:24Z</time>
      </trkpt>
      <trkpt lat="48.637866" lon="-1.510389">
        <ele>0.264</ele>
        <time>2026-08-21T17:04:26Z</time>
      </trkpt>
      <trkpt lat="48.637858" lon="-1.510383">
        <ele>0.231</ele>
        <time>2026-08-21T17:04:27Z</time>
      </trkpt>
      <trkpt lat="48.637847" lon="-1.510384">
        <ele>0.224</ele>
        <time>2026-08-21T17:04:29Z</time>
      </trkpt>
      <trkpt lat="48.637841" lon="-1.510372">
        <ele>0.204</ele>
        <time>2026-08-21T17:04:31Z</time>
      </trkpt>
      <trkpt lat="48.637834" lon="-1.510361">
        <ele>0.214</ele>
        <time>2026-08-21T17:04:33Z</time>
      </trkpt>
      <trkpt lat="48.637824" lon="-1.510362">
        <ele>0.209</ele>
        <time>2026-08-21T17:04:48Z</time>
      </trkpt>
      <trkpt lat="48.637816" lon="-1.510355">
        <ele>0.224</ele>
        <time>2026-08-21T17:04:49Z</time>
      </trkpt>
      <trkpt lat="48.637802" lon="-1.510347">
        <ele>0.110</ele>
        <time>2026-08-21T17:04:51Z</time>
      </trkpt>
      <trkpt lat="48.637795" lon="-1.510338">
        <ele>0.173</ele>
        <time>2026-08-21T17:05:01Z</time>
      </trkpt>
      <trkpt lat="48.637780" lon="-1.510330">
        <ele>0.554</ele>
        <time>2026-08-21T17:06:03Z</time>
      </trkpt>
      <trkpt lat="48.637764" lon="-1.510330">
        <ele>0.427</ele>
        <time>2026-08-21T17:06:05Z</time>
      </trkpt>
      <trkpt lat="48.637749" lon="-1.510334">
        <ele>0.374</ele>
        <time>2026-08-21T17:06:07Z</time>
      </trkpt>
      <trkpt lat="48.637732" lon="-1.510329">
        <ele>0.295</ele>
        <time>2026-08-21T17:06:09Z</time>
      </trkpt>
      <trkpt lat="48.637718" lon="-1.510319">
        <ele>0.149</ele>
        <time>2026-08-21T17:06:11Z</time>
      </trkpt>
      <trkpt lat="48.637700" lon="-1.510314">
        <ele>0.126</ele>
        <time>2026-08-21T17:06:13Z</time>
      </trkpt>
      <trkpt lat="48.637684" lon="-1.510327">
        <ele>0.072</ele>
        <time>2026-08-21T17:06:15Z</time>
      </trkpt>
      <trkpt lat="48.637669" lon="-1.510330">
        <ele>0.013</ele>
        <time>2026-08-21T17:06:17Z</time>
      </trkpt>
      <trkpt lat="48.637657" lon="-1.510336">
        <ele>0.014</ele>
        <time>2026-08-21T17:06:19Z</time>
      </trkpt>
      <trkpt lat="48.637643" lon="-1.510342">
        <ele>0.009</ele>
        <time>2026-08-21T17:06:22Z</time>
      </trkpt>
      <trkpt lat="48.637634" lon="-1.510340">
        <ele>0.049</ele>
        <time>2026-08-21T17:06:23Z</time>
      </trkpt>
      <trkpt lat="48.637622" lon="-1.510341">
        <ele>0.025</ele>
        <time>2026-08-21T17:06:24Z</time>
      </trkpt>
      <trkpt lat="48.637610" lon="-1.510355">
        <ele>0.058</ele>
        <time>2026-08-21T17:06:26Z</time>
      </trkpt>
      <trkpt lat="48.637598" lon="-1.510366">
        <ele>0.099</ele>
        <time>2026-08-21T17:06:28Z</time>
      </trkpt>
      <trkpt lat="48.637594" lon="-1.510378">
        <ele>0.052</ele>
        <time>2026-08-21T17:06:31Z</time>
      </trkpt>
      <trkpt lat="48.637579" lon="-1.510382">
        <ele>0.149</ele>
        <time>2026-08-21T17:06:33Z</time>
      </trkpt>
      <trkpt lat="48.637567" lon="-1.510394">
        <ele>0.180</ele>
        <time>2026-08-21T17:06:35Z</time>
      </trkpt>
      <trkpt lat="48.637558" lon="-1.510394">
        <ele>0.134</ele>
        <time>2026-08-21T17:06:37Z</time>
      </trkpt>
      <trkpt lat="48.637551" lon="-1.510402">
        <ele>0.231</ele>
        <time>2026-08-21T17:06:39Z</time>
      </trkpt>
      <trkpt lat="48.637543" lon="-1.510408">
        <ele>0.269</ele>
        <time>2026-08-21T17:06:41Z</time>
      </trkpt>
      <trkpt lat="48.637532" lon="-1.510414">
        <ele>0.304</ele>
        <time>2026-08-21T17:06:43Z</time>
      </trkpt>
      <trkpt lat="48.637526" lon="-1.510427">
        <ele>0.324</ele>
        <time>2026-08-21T17:06:45Z</time>
      </trkpt>
      <trkpt lat="48.637517" lon="-1.510430">
        <ele>0.309</ele>
        <time>2026-08-21T17:06:47Z</time>
      </trkpt>
      <trkpt lat="48.637507" lon="-1.510433">
        <ele>0.378</ele>
        <time>2026-08-21T17:06:49Z</time>
      </trkpt>
      <trkpt lat="48.637498" lon="-1.510434">
        <ele>0.314</ele>
        <time>2026-08-21T17:06:54Z</time>
      </trkpt>
      <trkpt lat="48.637487" lon="-1.510432">
        <ele>-0.667</ele>
        <time>2026-08-21T17:08:22Z</time>
      </trkpt>
      <trkpt lat="48.637473" lon="-1.510443">
        <ele>-0.598</ele>
        <time>2026-08-21T17:08:24Z</time>
      </trkpt>
      <trkpt lat="48.637458" lon="-1.510443">
        <ele>-0.511</ele>
        <time>2026-08-21T17:08:26Z</time>
      </trkpt>
      <trkpt lat="48.637448" lon="-1.510446">
        <ele>-0.588</ele>
        <time>2026-08-21T17:08:29Z</time>
      </trkpt>
      <trkpt lat="48.637436" lon="-1.510449">
        <ele>-0.549</ele>
        <time>2026-08-21T17:08:33Z</time>
      </trkpt>
      <trkpt lat="48.637439" lon="-1.510462">
        <ele>-0.543</ele>
        <time>2026-08-21T17:08:55Z</time>
      </trkpt>
      <trkpt lat="48.637424" lon="-1.510447">
        <ele>-0.650</ele>
        <time>2026-08-21T17:09:09Z</time>
      </trkpt>
      <trkpt lat="48.637429" lon="-1.510458">
        <ele>-0.558</ele>
        <time>2026-08-21T17:09:38Z</time>
      </trkpt>
      <trkpt lat="48.637426" lon="-1.510443">
        <ele>0.552</ele>
        <time>2026-08-21T17:10:50Z</time>
      </trkpt>
      <trkpt lat="48.637433" lon="-1.510433">
        <ele>0.517</ele>
        <time>2026-08-21T17:12:16Z</time>
      </trkpt>
      <trkpt lat="48.637433" lon="-1.510447">
        <ele>0.709</ele>
        <time>2026-08-21T17:13:18Z</time>
      </trkpt>
      <trkpt lat="48.637425" lon="-1.510439">
        <ele>-0.477</ele>
        <time>2026-08-21T17:13:49Z</time>
      </trkpt>
      <trkpt lat="48.637434" lon="-1.510444">
        <ele>-0.223</ele>
        <time>2026-08-21T17:14:05Z</time>
      </trkpt>
      <trkpt lat="48.637438" lon="-1.510458">
        <ele>-0.226</ele>
        <time>2026-08-21T17:14:15Z</time>
      </trkpt>
      <trkpt lat="48.637440" lon="-1.510432">
        <ele>-0.357</ele>
        <time>2026-08-21T17:14:38Z</time>
      </trkpt>
      <trkpt lat="48.637440" lon="-1.510418">
        <ele>-0.250</ele>
        <time>2026-08-21T17:14:43Z</time>
      </trkpt>
      <trkpt lat="48.637424" lon="-1.510415">
        <ele>-0.277</ele>
        <time>2026-08-21T17:14:45Z</time>
      </trkpt>
      <trkpt lat="48.637415" lon="-1.510406">
        <ele>-0.238</ele>
        <time>2026-08-21T17:14:46Z</time>
      </trkpt>
      <trkpt lat="48.637402" lon="-1.510401">
        <ele>-0.212</ele>
        <time>2026-08-21T17:14:48Z</time>
      </trkpt>
      <trkpt lat="48.637393" lon="-1.510397">
        <ele>-0.279</ele>
        <time>2026-08-21T17:14:49Z</time>
      </trkpt>
      <trkpt lat="48.637381" lon="-1.510399">
        <ele>-0.256</ele>
        <time>2026-08-21T17:14:50Z</time>
      </trkpt>
      <trkpt lat="48.637369" lon="-1.510399">
        <ele>-0.259</ele>
        <time>2026-08-21T17:14:51Z</time>
      </trkpt>
      <trkpt lat="48.637352" lon="-1.510400">
        <ele>-0.214</ele>
        <time>2026-08-21T17:14:53Z</time>
      </trkpt>
      <trkpt lat="48.637340" lon="-1.510395">
        <ele>-0.209</ele>
        <time>2026-08-21T17:14:54Z</time>
      </trkpt>
      <trkpt lat="48.637331" lon="-1.510392">
        <ele>-0.397</ele>
        <time>2026-08-21T17:14:55Z</time>
      </trkpt>
      <trkpt lat="48.637315" lon="-1.510387">
        <ele>-0.413</ele>
        <time>2026-08-21T17:14:57Z</time>
      </trkpt>
      <trkpt lat="48.637303" lon="-1.510384">
        <ele>-0.456</ele>
        <time>2026-08-21T17:14:58Z</time>
      </trkpt>
      <trkpt lat="48.637293" lon="-1.510383">
        <ele>-0.417</ele>
        <time>2026-08-21T17:14:59Z</time>
      </trkpt>
      <trkpt lat="48.637284" lon="-1.510384">
        <ele>-0.490</ele>
        <time>2026-08-21T17:15:00Z</time>
      </trkpt>
      <trkpt lat="48.637274" lon="-1.510391">
        <ele>-0.427</ele>
        <time>2026-08-21T17:15:01Z</time>
      </trkpt>
      <trkpt lat="48.637266" lon="-1.510409">
        <ele>-0.358</ele>
        <time>2026-08-21T17:15:02Z</time>
      </trkpt>
      <trkpt lat="48.637264" lon="-1.510431">
        <ele>-0.222</ele>
        <time>2026-08-21T17:15:03Z</time>
      </trkpt>
      <trkpt lat="48.637266" lon="-1.510450">
        <ele>-0.349</ele>
        <time>2026-08-21T17:15:04Z</time>
      </trkpt>
      <trkpt lat="48.637261" lon="-1.510476">
        <ele>-0.392</ele>
        <time>2026-08-21T17:15:06Z</time>
      </trkpt>
      <trkpt lat="48.637253" lon="-1.510489">
        <ele>-0.373</ele>
        <time>2026-08-21T17:15:07Z</time>
      </trkpt>
      <trkpt lat="48.637236" lon="-1.510491">
        <ele>-0.420</ele>
        <time>2026-08-21T17:15:09Z</time>
      </trkpt>
      <trkpt lat="48.637227" lon="-1.510474">
        <ele>-0.409</ele>
        <time>2026-08-21T17:15:10Z</time>
      </trkpt>
      <trkpt lat="48.637219" lon="-1.510456">
        <ele>-0.441</ele>
        <time>2026-08-21T17:15:11Z</time>
      </trkpt>
      <trkpt lat="48.637210" lon="-1.510442">
        <ele>-0.477</ele>
        <time>2026-08-21T17:15:12Z</time>
      </trkpt>
      <trkpt lat="48.637200" lon="-1.510430">
        <ele>-0.420</ele>
        <time>2026-08-21T17:15:13Z</time>
      </trkpt>
      <trkpt lat="48.637191" lon="-1.510418">
        <ele>-0.411</ele>
        <time>2026-08-21T17:15:14Z</time>
      </trkpt>
      <trkpt lat="48.637185" lon="-1.510403">
        <ele>-0.464</ele>
        <time>2026-08-21T17:15:15Z</time>
      </trkpt>
      <trkpt lat="48.637177" lon="-1.510386">
        <ele>-0.411</ele>
        <time>2026-08-21T17:15:17Z</time>
      </trkpt>
      <trkpt lat="48.637170" lon="-1.510375">
        <ele>-0.422</ele>
        <time>2026-08-21T17:15:18Z</time>
      </trkpt>
      <trkpt lat="48.637163" lon="-1.510367">
        <ele>-0.386</ele>
        <time>2026-08-21T17:15:19Z</time>
      </trkpt>
      <trkpt lat="48.637152" lon="-1.510359">
        <ele>-0.333</ele>
        <time>2026-08-21T17:15:21Z</time>
      </trkpt>
      <trkpt lat="48.637147" lon="-1.510340">
        <ele>-0.386</ele>
        <time>2026-08-21T17:15:23Z</time>
      </trkpt>
      <trkpt lat="48.637145" lon="-1.510312">
        <ele>-0.360</ele>
        <time>2026-08-21T17:15:25Z</time>
      </trkpt>
      <trkpt lat="48.637140" lon="-1.510297">
        <ele>-0.326</ele>
        <time>2026-08-21T17:15:27Z</time>
      </trkpt>
      <trkpt lat="48.637133" lon="-1.510277">
        <ele>-0.309</ele>
        <time>2026-08-21T17:15:29Z</time>
      </trkpt>
      <trkpt lat="48.637131" lon="-1.510263">
        <ele>-0.350</ele>
        <time>2026-08-21T17:15:30Z</time>
      </trkpt>
      <trkpt lat="48.637126" lon="-1.510248">
        <ele>-0.386</ele>
        <time>2026-08-21T17:15:31Z</time>
      </trkpt>
      <trkpt lat="48.637118" lon="-1.510233">
        <ele>-0.359</ele>
        <time>2026-08-21T17:15:32Z</time>
      </trkpt>
      <trkpt lat="48.637111" lon="-1.510223">
        <ele>-0.370</ele>
        <time>2026-08-21T17:15:33Z</time>
      </trkpt>
      <trkpt lat="48.637102" lon="-1.510202">
        <ele>-0.313</ele>
        <time>2026-08-21T17:15:35Z</time>
      </trkpt>
      <trkpt lat="48.637097" lon="-1.510175">
        <ele>-0.370</ele>
        <time>2026-08-21T17:15:37Z</time>
      </trkpt>
      <trkpt lat="48.637092" lon="-1.510160">
        <ele>-0.271</ele>
        <time>2026-08-21T17:15:38Z</time>
      </trkpt>
      <trkpt lat="48.637088" lon="-1.510142">
        <ele>-0.295</ele>
        <time>2026-08-21T17:15:39Z</time>
      </trkpt>
      <trkpt lat="48.637086" lon="-1.510128">
        <ele>-0.242</ele>
        <time>2026-08-21T17:15:40Z</time>
      </trkpt>
      <trkpt lat="48.637079" lon="-1.510105">
        <ele>-0.283</ele>
        <time>2026-08-21T17:15:42Z</time>
      </trkpt>
      <trkpt lat="48.637074" lon="-1.510090">
        <ele>-0.225</ele>
        <time>2026-08-21T17:15:43Z</time>
      </trkpt>
      <trkpt lat="48.637067" lon="-1.510078">
        <ele>-0.117</ele>
        <time>2026-08-21T17:15:44Z</time>
      </trkpt>
      <trkpt lat="48.637063" lon="-1.510064">
        <ele>0.009</ele>
        <time>2026-08-21T17:15:45Z</time>
      </trkpt>
      <trkpt lat="48.637057" lon="-1.510035">
        <ele>0.010</ele>
        <time>2026-08-21T17:15:47Z</time>
      </trkpt>
      <trkpt lat="48.637054" lon="-1.510016">
        <ele>0.036</ele>
        <time>2026-08-21T17:15:48Z</time>
      </trkpt>
      <trkpt lat="48.637049" lon="-1.510001">
        <ele>0.199</ele>
        <time>2026-08-21T17:15:49Z</time>
      </trkpt>
      <trkpt lat="48.637043" lon="-1.509990">
        <ele>0.170</ele>
        <time>2026-08-21T17:15:50Z</time>
      </trkpt>
      <trkpt lat="48.637036" lon="-1.509980">
        <ele>0.173</ele>
        <time>2026-08-21T17:15:51Z</time>
      </trkpt>
      <trkpt lat="48.637026" lon="-1.509963">
        <ele>0.170</ele>
        <time>2026-08-21T17:15:52Z</time>
      </trkpt>
      <trkpt lat="48.637020" lon="-1.509953">
        <ele>0.271</ele>
        <time>2026-08-21T17:15:53Z</time>
      </trkpt>
      <trkpt lat="48.637012" lon="-1.509933">
        <ele>0.265</ele>
        <time>2026-08-21T17:15:55Z</time>
      </trkpt>
      <trkpt lat="48.637006" lon="-1.509917">
        <ele>0.262</ele>
        <time>2026-08-21T17:15:56Z</time>
      </trkpt>
      <trkpt lat="48.637001" lon="-1.509902">
        <ele>0.295</ele>
        <time>2026-08-21T17:15:57Z</time>
      </trkpt>
      <trkpt lat="48.636997" lon="-1.509888">
        <ele>0.249</ele>
        <time>2026-08-21T17:15:58Z</time>
      </trkpt>
      <trkpt lat="48.636991" lon="-1.509876">
        <ele>0.223</ele>
        <time>2026-08-21T17:15:59Z</time>
      </trkpt>
      <trkpt lat="48.636985" lon="-1.509863">
        <ele>0.409</ele>
        <time>2026-08-21T17:16:00Z</time>
      </trkpt>
      <trkpt lat="48.636981" lon="-1.509850">
        <ele>0.541</ele>
        <time>2026-08-21T17:16:01Z</time>
      </trkpt>
      <trkpt lat="48.636977" lon="-1.509838">
        <ele>0.547</ele>
        <time>2026-08-21T17:16:02Z</time>
      </trkpt>
      <trkpt lat="48.636965" lon="-1.509813">
        <ele>0.680</ele>
        <time>2026-08-21T17:16:04Z</time>
      </trkpt>
      <trkpt lat="48.636958" lon="-1.509801">
        <ele>0.731</ele>
        <time>2026-08-21T17:16:05Z</time>
      </trkpt>
      <trkpt lat="48.636951" lon="-1.509780">
        <ele>0.784</ele>
        <time>2026-08-21T17:16:07Z</time>
      </trkpt>
      <trkpt lat="48.636946" lon="-1.509764">
        <ele>0.831</ele>
        <time>2026-08-21T17:16:08Z</time>
      </trkpt>
      <trkpt lat="48.636940" lon="-1.509752">
        <ele>0.842</ele>
        <time>2026-08-21T17:16:09Z</time>
      </trkpt>
      <trkpt lat="48.636936" lon="-1.509739">
        <ele>0.876</ele>
        <time>2026-08-21T17:16:10Z</time>
      </trkpt>
      <trkpt lat="48.636932" lon="-1.509726">
        <ele>0.923</ele>
        <time>2026-08-21T17:16:11Z</time>
      </trkpt>
      <trkpt lat="48.636925" lon="-1.509714">
        <ele>0.922</ele>
        <time>2026-08-21T17:16:12Z</time>
      </trkpt>
      <trkpt lat="48.636915" lon="-1.509691">
        <ele>0.962</ele>
        <time>2026-08-21T17:16:14Z</time>
      </trkpt>
      <trkpt lat="48.636909" lon="-1.509681">
        <ele>0.908</ele>
        <time>2026-08-21T17:16:15Z</time>
      </trkpt>
      <trkpt lat="48.636903" lon="-1.509670">
        <ele>0.909</ele>
        <time>2026-08-21T17:16:16Z</time>
      </trkpt>
      <trkpt lat="48.636894" lon="-1.509650">
        <ele>1.094</ele>
        <time>2026-08-21T17:16:18Z</time>
      </trkpt>
      <trkpt lat="48.636888" lon="-1.509637">
        <ele>1.060</ele>
        <time>2026-08-21T17:16:19Z</time>
      </trkpt>
      <trkpt lat="48.636883" lon="-1.509626">
        <ele>1.023</ele>
        <time>2026-08-21T17:16:20Z</time>
      </trkpt>
      <trkpt lat="48.636876" lon="-1.509614">
        <ele>1.164</ele>
        <time>2026-08-21T17:16:21Z</time>
      </trkpt>
      <trkpt lat="48.636868" lon="-1.509606">
        <ele>1.297</ele>
        <time>2026-08-21T17:16:22Z</time>
      </trkpt>
      <trkpt lat="48.636861" lon="-1.509592">
        <ele>1.294</ele>
        <time>2026-08-21T17:16:23Z</time>
      </trkpt>
      <trkpt lat="48.636851" lon="-1.509572">
        <ele>1.285</ele>
        <time>2026-08-21T17:16:25Z</time>
      </trkpt>
      <trkpt lat="48.636839" lon="-1.509550">
        <ele>1.219</ele>
        <time>2026-08-21T17:16:27Z</time>
      </trkpt>
      <trkpt lat="48.636832" lon="-1.509536">
        <ele>1.286</ele>
        <time>2026-08-21T17:16:28Z</time>
      </trkpt>
      <trkpt lat="48.636826" lon="-1.509524">
        <ele>1.352</ele>
        <time>2026-08-21T17:16:29Z</time>
      </trkpt>
      <trkpt lat="48.636811" lon="-1.509502">
        <ele>1.353</ele>
        <time>2026-08-21T17:16:31Z</time>
      </trkpt>
      <trkpt lat="48.636804" lon="-1.509488">
        <ele>1.308</ele>
        <time>2026-08-21T17:16:32Z</time>
      </trkpt>
      <trkpt lat="48.636795" lon="-1.509464">
        <ele>1.309</ele>
        <time>2026-08-21T17:16:34Z</time>
      </trkpt>
      <trkpt lat="48.636787" lon="-1.509452">
        <ele>1.367</ele>
        <time>2026-08-21T17:16:35Z</time>
      </trkpt>
      <trkpt lat="48.636780" lon="-1.509438">
        <ele>1.393</ele>
        <time>2026-08-21T17:16:36Z</time>
      </trkpt>
      <trkpt lat="48.636776" lon="-1.509423">
        <ele>1.366</ele>
        <time>2026-08-21T17:16:37Z</time>
      </trkpt>
      <trkpt lat="48.636766" lon="-1.509402">
        <ele>1.387</ele>
        <time>2026-08-21T17:16:39Z</time>
      </trkpt>
      <trkpt lat="48.636760" lon="-1.509386">
        <ele>1.330</ele>
        <time>2026-08-21T17:16:40Z</time>
      </trkpt>
      <trkpt lat="48.636752" lon="-1.509376">
        <ele>1.377</ele>
        <time>2026-08-21T17:16:41Z</time>
      </trkpt>
      <trkpt lat="48.636739" lon="-1.509359">
        <ele>1.368</ele>
        <time>2026-08-21T17:16:43Z</time>
      </trkpt>
      <trkpt lat="48.636734" lon="-1.509345">
        <ele>1.322</ele>
        <time>2026-08-21T17:16:44Z</time>
      </trkpt>
      <trkpt lat="48.636728" lon="-1.509328">
        <ele>1.369</ele>
        <time>2026-08-21T17:16:45Z</time>
      </trkpt>
      <trkpt lat="48.636723" lon="-1.509313">
        <ele>1.313</ele>
        <time>2026-08-21T17:16:46Z</time>
      </trkpt>
      <trkpt lat="48.636718" lon="-1.509301">
        <ele>1.343</ele>
        <time>2026-08-21T17:16:47Z</time>
      </trkpt>
      <trkpt lat="48.636710" lon="-1.509280">
        <ele>1.307</ele>
        <time>2026-08-21T17:16:49Z</time>
      </trkpt>
      <trkpt lat="48.636705" lon="-1.509263">
        <ele>1.309</ele>
        <time>2026-08-21T17:16:50Z</time>
      </trkpt>
      <trkpt lat="48.636700" lon="-1.509248">
        <ele>1.313</ele>
        <time>2026-08-21T17:16:51Z</time>
      </trkpt>
      <trkpt lat="48.636694" lon="-1.509236">
        <ele>1.319</ele>
        <time>2026-08-21T17:16:52Z</time>
      </trkpt>
      <trkpt lat="48.636690" lon="-1.509222">
        <ele>1.372</ele>
        <time>2026-08-21T17:16:53Z</time>
      </trkpt>
      <trkpt lat="48.636685" lon="-1.509205">
        <ele>1.373</ele>
        <time>2026-08-21T17:16:55Z</time>
      </trkpt>
      <trkpt lat="48.636677" lon="-1.509195">
        <ele>1.366</ele>
        <time>2026-08-21T17:16:57Z</time>
      </trkpt>
      <trkpt lat="48.636670" lon="-1.509186">
        <ele>1.323</ele>
        <time>2026-08-21T17:16:59Z</time>
      </trkpt>
      <trkpt lat="48.636675" lon="-1.509170">
        <ele>1.524</ele>
        <time>2026-08-21T17:18:10Z</time>
      </trkpt>
      <trkpt lat="48.636672" lon="-1.509147">
        <ele>1.538</ele>
        <time>2026-08-21T17:18:12Z</time>
      </trkpt>
      <trkpt lat="48.636667" lon="-1.509134">
        <ele>1.495</ele>
        <time>2026-08-21T17:18:13Z</time>
      </trkpt>
      <trkpt lat="48.636657" lon="-1.509128">
        <ele>1.392</ele>
        <time>2026-08-21T17:18:14Z</time>
      </trkpt>
      <trkpt lat="48.636643" lon="-1.509116">
        <ele>1.173</ele>
        <time>2026-08-21T17:18:16Z</time>
      </trkpt>
      <trkpt lat="48.636634" lon="-1.509111">
        <ele>1.120</ele>
        <time>2026-08-21T17:18:17Z</time>
      </trkpt>
      <trkpt lat="48.636623" lon="-1.509105">
        <ele>1.009</ele>
        <time>2026-08-21T17:18:18Z</time>
      </trkpt>
      <trkpt lat="48.636614" lon="-1.509091">
        <ele>0.821</ele>
        <time>2026-08-21T17:18:19Z</time>
      </trkpt>
      <trkpt lat="48.636598" lon="-1.509085">
        <ele>0.687</ele>
        <time>2026-08-21T17:18:21Z</time>
      </trkpt>
      <trkpt lat="48.636581" lon="-1.509075">
        <ele>0.640</ele>
        <time>2026-08-21T17:18:23Z</time>
      </trkpt>
      <trkpt lat="48.636567" lon="-1.509077">
        <ele>0.661</ele>
        <time>2026-08-21T17:18:25Z</time>
      </trkpt>
      <trkpt lat="48.636557" lon="-1.509074">
        <ele>0.654</ele>
        <time>2026-08-21T17:18:26Z</time>
      </trkpt>
      <trkpt lat="48.636538" lon="-1.509064">
        <ele>0.561</ele>
        <time>2026-08-21T17:18:28Z</time>
      </trkpt>
      <trkpt lat="48.636529" lon="-1.509060">
        <ele>0.582</ele>
        <time>2026-08-21T17:18:29Z</time>
      </trkpt>
      <trkpt lat="48.636514" lon="-1.509050">
        <ele>0.586</ele>
        <time>2026-08-21T17:18:31Z</time>
      </trkpt>
      <trkpt lat="48.636507" lon="-1.509040">
        <ele>0.523</ele>
        <time>2026-08-21T17:18:32Z</time>
      </trkpt>
      <trkpt lat="48.636495" lon="-1.509029">
        <ele>0.526</ele>
        <time>2026-08-21T17:18:34Z</time>
      </trkpt>
      <trkpt lat="48.636480" lon="-1.509040">
        <ele>0.547</ele>
        <time>2026-08-21T17:18:36Z</time>
      </trkpt>
      <trkpt lat="48.636466" lon="-1.509046">
        <ele>0.511</ele>
        <time>2026-08-21T17:18:38Z</time>
      </trkpt>
      <trkpt lat="48.636451" lon="-1.509045">
        <ele>0.609</ele>
        <time>2026-08-21T17:18:40Z</time>
      </trkpt>
      <trkpt lat="48.636433" lon="-1.509050">
        <ele>0.684</ele>
        <time>2026-08-21T17:18:42Z</time>
      </trkpt>
      <trkpt lat="48.636422" lon="-1.509053">
        <ele>0.680</ele>
        <time>2026-08-21T17:18:43Z</time>
      </trkpt>
      <trkpt lat="48.636411" lon="-1.509048">
        <ele>0.723</ele>
        <time>2026-08-21T17:18:44Z</time>
      </trkpt>
      <trkpt lat="48.636401" lon="-1.509043">
        <ele>0.734</ele>
        <time>2026-08-21T17:18:45Z</time>
      </trkpt>
      <trkpt lat="48.636389" lon="-1.509045">
        <ele>0.827</ele>
        <time>2026-08-21T17:18:46Z</time>
      </trkpt>
      <trkpt lat="48.636377" lon="-1.509049">
        <ele>0.714</ele>
        <time>2026-08-21T17:18:47Z</time>
      </trkpt>
      <trkpt lat="48.636364" lon="-1.509045">
        <ele>0.755</ele>
        <time>2026-08-21T17:18:48Z</time>
      </trkpt>
      <trkpt lat="48.636348" lon="-1.509043">
        <ele>0.799</ele>
        <time>2026-08-21T17:18:50Z</time>
      </trkpt>
      <trkpt lat="48.636327" lon="-1.509045">
        <ele>0.846</ele>
        <time>2026-08-21T17:18:52Z</time>
      </trkpt>
      <trkpt lat="48.636312" lon="-1.509043">
        <ele>0.899</ele>
        <time>2026-08-21T17:18:54Z</time>
      </trkpt>
      <trkpt lat="48.636294" lon="-1.509041">
        <ele>0.807</ele>
        <time>2026-08-21T17:18:56Z</time>
      </trkpt>
      <trkpt lat="48.636281" lon="-1.509039">
        <ele>0.827</ele>
        <time>2026-08-21T17:18:57Z</time>
      </trkpt>
      <trkpt lat="48.636270" lon="-1.509036">
        <ele>0.809</ele>
        <time>2026-08-21T17:18:58Z</time>
      </trkpt>
      <trkpt lat="48.636251" lon="-1.509037">
        <ele>0.821</ele>
        <time>2026-08-21T17:19:00Z</time>
      </trkpt>
      <trkpt lat="48.636237" lon="-1.509041">
        <ele>0.847</ele>
        <time>2026-08-21T17:19:01Z</time>
      </trkpt>
      <trkpt lat="48.636224" lon="-1.509038">
        <ele>0.910</ele>
        <time>2026-08-21T17:19:02Z</time>
      </trkpt>
      <trkpt lat="48.636213" lon="-1.509031">
        <ele>0.911</ele>
        <time>2026-08-21T17:19:03Z</time>
      </trkpt>
      <trkpt lat="48.636199" lon="-1.509034">
        <ele>1.054</ele>
        <time>2026-08-21T17:19:05Z</time>
      </trkpt>
      <trkpt lat="48.636188" lon="-1.509040">
        <ele>1.041</ele>
        <time>2026-08-21T17:19:06Z</time>
      </trkpt>
      <trkpt lat="48.636177" lon="-1.509037">
        <ele>1.082</ele>
        <time>2026-08-21T17:19:07Z</time>
      </trkpt>
      <trkpt lat="48.636166" lon="-1.509034">
        <ele>1.176</ele>
        <time>2026-08-21T17:19:08Z</time>
      </trkpt>
      <trkpt lat="48.636157" lon="-1.509031">
        <ele>1.173</ele>
        <time>2026-08-21T17:19:09Z</time>
      </trkpt>
      <trkpt lat="48.636147" lon="-1.509029">
        <ele>1.176</ele>
        <time>2026-08-21T17:19:10Z</time>
      </trkpt>
      <trkpt lat="48.636135" lon="-1.509028">
        <ele>1.190</ele>
        <time>2026-08-21T17:19:11Z</time>
      </trkpt>
      <trkpt lat="48.636124" lon="-1.509027">
        <ele>1.119</ele>
        <time>2026-08-21T17:19:12Z</time>
      </trkpt>
      <trkpt lat="48.636114" lon="-1.509025">
        <ele>1.109</ele>
        <time>2026-08-21T17:19:13Z</time>
      </trkpt>
      <trkpt lat="48.636096" lon="-1.509030">
        <ele>1.219</ele>
        <time>2026-08-21T17:19:15Z</time>
      </trkpt>
      <trkpt lat="48.636082" lon="-1.509037">
        <ele>1.245</ele>
        <time>2026-08-21T17:19:16Z</time>
      </trkpt>
      <trkpt lat="48.636073" lon="-1.509039">
        <ele>1.258</ele>
        <time>2026-08-21T17:19:17Z</time>
      </trkpt>
      <trkpt lat="48.636064" lon="-1.509040">
        <ele>1.229</ele>
        <time>2026-08-21T17:19:18Z</time>
      </trkpt>
      <trkpt lat="48.636047" lon="-1.509053">
        <ele>1.262</ele>
        <time>2026-08-21T17:19:20Z</time>
      </trkpt>
      <trkpt lat="48.636035" lon="-1.509060">
        <ele>1.249</ele>
        <time>2026-08-21T17:19:21Z</time>
      </trkpt>
      <trkpt lat="48.636023" lon="-1.509062">
        <ele>1.210</ele>
        <time>2026-08-21T17:19:22Z</time>
      </trkpt>
      <trkpt lat="48.636013" lon="-1.509065">
        <ele>1.344</ele>
        <time>2026-08-21T17:19:23Z</time>
      </trkpt>
      <trkpt lat="48.635997" lon="-1.509075">
        <ele>1.321</ele>
        <time>2026-08-21T17:19:25Z</time>
      </trkpt>
      <trkpt lat="48.635984" lon="-1.509082">
        <ele>1.364</ele>
        <time>2026-08-21T17:19:26Z</time>
      </trkpt>
      <trkpt lat="48.635972" lon="-1.509084">
        <ele>1.406</ele>
        <time>2026-08-21T17:19:27Z</time>
      </trkpt>
      <trkpt lat="48.635956" lon="-1.509086">
        <ele>1.416</ele>
        <time>2026-08-21T17:19:29Z</time>
      </trkpt>
      <trkpt lat="48.635946" lon="-1.509093">
        <ele>1.409</ele>
        <time>2026-08-21T17:19:30Z</time>
      </trkpt>
      <trkpt lat="48.635935" lon="-1.509105">
        <ele>1.448</ele>
        <time>2026-08-21T17:19:31Z</time>
      </trkpt>
      <trkpt lat="48.635923" lon="-1.509111">
        <ele>1.464</ele>
        <time>2026-08-21T17:19:32Z</time>
      </trkpt>
      <trkpt lat="48.635913" lon="-1.509110">
        <ele>1.537</ele>
        <time>2026-08-21T17:19:33Z</time>
      </trkpt>
      <trkpt lat="48.635903" lon="-1.509116">
        <ele>1.628</ele>
        <time>2026-08-21T17:19:34Z</time>
      </trkpt>
      <trkpt lat="48.635890" lon="-1.509117">
        <ele>1.671</ele>
        <time>2026-08-21T17:19:35Z</time>
      </trkpt>
      <trkpt lat="48.635879" lon="-1.509125">
        <ele>1.728</ele>
        <time>2026-08-21T17:19:36Z</time>
      </trkpt>
      <trkpt lat="48.635869" lon="-1.509141">
        <ele>1.789</ele>
        <time>2026-08-21T17:19:38Z</time>
      </trkpt>
      <trkpt lat="48.635874" lon="-1.509127">
        <ele>1.763</ele>
        <time>2026-08-21T17:19:42Z</time>
      </trkpt>
      <trkpt lat="48.635863" lon="-1.509132">
        <ele>1.710</ele>
        <time>2026-08-21T17:19:44Z</time>
      </trkpt>
      <trkpt lat="48.635851" lon="-1.509137">
        <ele>1.735</ele>
        <time>2026-08-21T17:19:45Z</time>
      </trkpt>
      <trkpt lat="48.635843" lon="-1.509143">
        <ele>1.886</ele>
        <time>2026-08-21T17:19:46Z</time>
      </trkpt>
      <trkpt lat="48.635833" lon="-1.509144">
        <ele>1.814</ele>
        <time>2026-08-21T17:19:47Z</time>
      </trkpt>
      <trkpt lat="48.635823" lon="-1.509145">
        <ele>1.809</ele>
        <time>2026-08-21T17:19:48Z</time>
      </trkpt>
      <trkpt lat="48.635810" lon="-1.509147">
        <ele>1.845</ele>
        <time>2026-08-21T17:19:49Z</time>
      </trkpt>
      <trkpt lat="48.635799" lon="-1.509149">
        <ele>1.831</ele>
        <time>2026-08-21T17:19:50Z</time>
      </trkpt>
      <trkpt lat="48.635782" lon="-1.509152">
        <ele>1.864</ele>
        <time>2026-08-21T17:19:52Z</time>
      </trkpt>
      <trkpt lat="48.635771" lon="-1.509160">
        <ele>1.925</ele>
        <time>2026-08-21T17:19:53Z</time>
      </trkpt>
      <trkpt lat="48.635757" lon="-1.509167">
        <ele>1.948</ele>
        <time>2026-08-21T17:19:55Z</time>
      </trkpt>
      <trkpt lat="48.635748" lon="-1.509173">
        <ele>1.975</ele>
        <time>2026-08-21T17:19:56Z</time>
      </trkpt>
      <trkpt lat="48.635737" lon="-1.509174">
        <ele>1.956</ele>
        <time>2026-08-21T17:19:57Z</time>
      </trkpt>
      <trkpt lat="48.635727" lon="-1.509174">
        <ele>2.090</ele>
        <time>2026-08-21T17:19:58Z</time>
      </trkpt>
      <trkpt lat="48.635716" lon="-1.509180">
        <ele>2.017</ele>
        <time>2026-08-21T17:19:59Z</time>
      </trkpt>
      <trkpt lat="48.635706" lon="-1.509189">
        <ele>2.038</ele>
        <time>2026-08-21T17:20:00Z</time>
      </trkpt>
      <trkpt lat="48.635698" lon="-1.509200">
        <ele>2.070</ele>
        <time>2026-08-21T17:20:01Z</time>
      </trkpt>
      <trkpt lat="48.635682" lon="-1.509205">
        <ele>2.017</ele>
        <time>2026-08-21T17:20:03Z</time>
      </trkpt>
      <trkpt lat="48.635672" lon="-1.509205">
        <ele>2.009</ele>
        <time>2026-08-21T17:20:04Z</time>
      </trkpt>
      <trkpt lat="48.635659" lon="-1.509207">
        <ele>2.145</ele>
        <time>2026-08-21T17:20:05Z</time>
      </trkpt>
      <trkpt lat="48.635651" lon="-1.509214">
        <ele>2.111</ele>
        <time>2026-08-21T17:20:06Z</time>
      </trkpt>
      <trkpt lat="48.635643" lon="-1.509221">
        <ele>2.174</ele>
        <time>2026-08-21T17:20:07Z</time>
      </trkpt>
      <trkpt lat="48.635631" lon="-1.509237">
        <ele>2.235</ele>
        <time>2026-08-21T17:20:09Z</time>
      </trkpt>
      <trkpt lat="48.635623" lon="-1.509246">
        <ele>2.258</ele>
        <time>2026-08-21T17:20:10Z</time>
      </trkpt>
      <trkpt lat="48.635615" lon="-1.509250">
        <ele>2.275</ele>
        <time>2026-08-21T17:20:11Z</time>
      </trkpt>
      <trkpt lat="48.635601" lon="-1.509255">
        <ele>2.296</ele>
        <time>2026-08-21T17:20:12Z</time>
      </trkpt>
      <trkpt lat="48.635588" lon="-1.509259">
        <ele>2.340</ele>
        <time>2026-08-21T17:20:13Z</time>
      </trkpt>
      <trkpt lat="48.635578" lon="-1.509263">
        <ele>2.337</ele>
        <time>2026-08-21T17:20:14Z</time>
      </trkpt>
      <trkpt lat="48.635567" lon="-1.509268">
        <ele>2.432</ele>
        <time>2026-08-21T17:20:15Z</time>
      </trkpt>
      <trkpt lat="48.635550" lon="-1.509286">
        <ele>2.592</ele>
        <time>2026-08-21T17:20:17Z</time>
      </trkpt>
      <trkpt lat="48.635541" lon="-1.509291">
        <ele>2.611</ele>
        <time>2026-08-21T17:20:18Z</time>
      </trkpt>
      <trkpt lat="48.635531" lon="-1.509291">
        <ele>2.609</ele>
        <time>2026-08-21T17:20:19Z</time>
      </trkpt>
      <trkpt lat="48.635513" lon="-1.509297">
        <ele>2.765</ele>
        <time>2026-08-21T17:20:21Z</time>
      </trkpt>
      <trkpt lat="48.635505" lon="-1.509304">
        <ele>2.741</ele>
        <time>2026-08-21T17:20:22Z</time>
      </trkpt>
      <trkpt lat="48.635495" lon="-1.509309">
        <ele>2.744</ele>
        <time>2026-08-21T17:20:23Z</time>
      </trkpt>
      <trkpt lat="48.635480" lon="-1.509323">
        <ele>2.855</ele>
        <time>2026-08-21T17:20:25Z</time>
      </trkpt>
      <trkpt lat="48.635468" lon="-1.509330">
        <ele>2.898</ele>
        <time>2026-08-21T17:20:26Z</time>
      </trkpt>
      <trkpt lat="48.635455" lon="-1.509342">
        <ele>2.895</ele>
        <time>2026-08-21T17:20:28Z</time>
      </trkpt>
      <trkpt lat="48.635440" lon="-1.509353">
        <ele>2.816</ele>
        <time>2026-08-21T17:20:30Z</time>
      </trkpt>
      <trkpt lat="48.635430" lon="-1.509355">
        <ele>2.930</ele>
        <time>2026-08-21T17:20:31Z</time>
      </trkpt>
      <trkpt lat="48.635417" lon="-1.509356">
        <ele>2.957</ele>
        <time>2026-08-21T17:20:32Z</time>
      </trkpt>
      <trkpt lat="48.635407" lon="-1.509366">
        <ele>3.087</ele>
        <time>2026-08-21T17:20:33Z</time>
      </trkpt>
      <trkpt lat="48.635397" lon="-1.509375">
        <ele>3.042</ele>
        <time>2026-08-21T17:20:34Z</time>
      </trkpt>
      <trkpt lat="48.635387" lon="-1.509384">
        <ele>3.126</ele>
        <time>2026-08-21T17:20:35Z</time>
      </trkpt>
      <trkpt lat="48.635381" lon="-1.509394">
        <ele>3.109</ele>
        <time>2026-08-21T17:20:36Z</time>
      </trkpt>
      <trkpt lat="48.635372" lon="-1.509403">
        <ele>3.160</ele>
        <time>2026-08-21T17:20:37Z</time>
      </trkpt>
      <trkpt lat="48.635358" lon="-1.509420">
        <ele>3.296</ele>
        <time>2026-08-21T17:20:39Z</time>
      </trkpt>
      <trkpt lat="48.635342" lon="-1.509436">
        <ele>3.279</ele>
        <time>2026-08-21T17:20:41Z</time>
      </trkpt>
      <trkpt lat="48.635334" lon="-1.509449">
        <ele>3.230</ele>
        <time>2026-08-21T17:20:42Z</time>
      </trkpt>
      <trkpt lat="48.635326" lon="-1.509459">
        <ele>3.283</ele>
        <time>2026-08-21T17:20:43Z</time>
      </trkpt>
      <trkpt lat="48.635317" lon="-1.509465">
        <ele>3.290</ele>
        <time>2026-08-21T17:20:44Z</time>
      </trkpt>
      <trkpt lat="48.635308" lon="-1.509473">
        <ele>3.231</ele>
        <time>2026-08-21T17:20:45Z</time>
      </trkpt>
      <trkpt lat="48.635299" lon="-1.509479">
        <ele>3.395</ele>
        <time>2026-08-21T17:20:46Z</time>
      </trkpt>
      <trkpt lat="48.635290" lon="-1.509482">
        <ele>3.342</ele>
        <time>2026-08-21T17:20:47Z</time>
      </trkpt>
      <trkpt lat="48.635284" lon="-1.509496">
        <ele>3.382</ele>
        <time>2026-08-21T17:20:48Z</time>
      </trkpt>
      <trkpt lat="48.635284" lon="-1.509514">
        <ele>3.343</ele>
        <time>2026-08-21T17:20:49Z</time>
      </trkpt>
      <trkpt lat="48.635272" lon="-1.509531">
        <ele>3.317</ele>
        <time>2026-08-21T17:20:51Z</time>
      </trkpt>
      <trkpt lat="48.635262" lon="-1.509542">
        <ele>3.309</ele>
        <time>2026-08-21T17:20:52Z</time>
      </trkpt>
      <trkpt lat="48.635251" lon="-1.509548">
        <ele>3.310</ele>
        <time>2026-08-21T17:20:53Z</time>
      </trkpt>
      <trkpt lat="48.635240" lon="-1.509560">
        <ele>3.356</ele>
        <time>2026-08-21T17:20:54Z</time>
      </trkpt>
      <trkpt lat="48.635231" lon="-1.509570">
        <ele>3.339</ele>
        <time>2026-08-21T17:20:55Z</time>
      </trkpt>
      <trkpt lat="48.635227" lon="-1.509586">
        <ele>3.320</ele>
        <time>2026-08-21T17:20:56Z</time>
      </trkpt>
      <trkpt lat="48.635219" lon="-1.509595">
        <ele>3.483</ele>
        <time>2026-08-21T17:20:57Z</time>
      </trkpt>
      <trkpt lat="48.635206" lon="-1.509615">
        <ele>3.440</ele>
        <time>2026-08-21T17:20:59Z</time>
      </trkpt>
      <trkpt lat="48.635199" lon="-1.509631">
        <ele>3.471</ele>
        <time>2026-08-21T17:21:00Z</time>
      </trkpt>
      <trkpt lat="48.635195" lon="-1.509654">
        <ele>3.465</ele>
        <time>2026-08-21T17:21:02Z</time>
      </trkpt>
      <trkpt lat="48.635189" lon="-1.509666">
        <ele>3.562</ele>
        <time>2026-08-21T17:21:03Z</time>
      </trkpt>
      <trkpt lat="48.635185" lon="-1.509680">
        <ele>3.559</ele>
        <time>2026-08-21T17:21:04Z</time>
      </trkpt>
      <trkpt lat="48.635178" lon="-1.509692">
        <ele>3.503</ele>
        <time>2026-08-21T17:21:05Z</time>
      </trkpt>
      <trkpt lat="48.635170" lon="-1.509713">
        <ele>3.523</ele>
        <time>2026-08-21T17:21:07Z</time>
      </trkpt>
      <trkpt lat="48.635165" lon="-1.509727">
        <ele>3.609</ele>
        <time>2026-08-21T17:21:08Z</time>
      </trkpt>
      <trkpt lat="48.635162" lon="-1.509745">
        <ele>3.647</ele>
        <time>2026-08-21T17:21:09Z</time>
      </trkpt>
      <trkpt lat="48.635157" lon="-1.509759">
        <ele>3.663</ele>
        <time>2026-08-21T17:21:10Z</time>
      </trkpt>
      <trkpt lat="48.635148" lon="-1.509769">
        <ele>3.626</ele>
        <time>2026-08-21T17:21:11Z</time>
      </trkpt>
      <trkpt lat="48.635138" lon="-1.509792">
        <ele>3.687</ele>
        <time>2026-08-21T17:21:13Z</time>
      </trkpt>
      <trkpt lat="48.635129" lon="-1.509810">
        <ele>3.690</ele>
        <time>2026-08-21T17:21:14Z</time>
      </trkpt>
      <trkpt lat="48.635123" lon="-1.509822">
        <ele>3.617</ele>
        <time>2026-08-21T17:21:15Z</time>
      </trkpt>
      <trkpt lat="48.635117" lon="-1.509832">
        <ele>3.658</ele>
        <time>2026-08-21T17:21:16Z</time>
      </trkpt>
      <trkpt lat="48.635106" lon="-1.509857">
        <ele>3.642</ele>
        <time>2026-08-21T17:21:18Z</time>
      </trkpt>
      <trkpt lat="48.635099" lon="-1.509874">
        <ele>3.679</ele>
        <time>2026-08-21T17:21:19Z</time>
      </trkpt>
      <trkpt lat="48.635098" lon="-1.509890">
        <ele>3.725</ele>
        <time>2026-08-21T17:21:20Z</time>
      </trkpt>
      <trkpt lat="48.635093" lon="-1.509905">
        <ele>3.726</ele>
        <time>2026-08-21T17:21:21Z</time>
      </trkpt>
      <trkpt lat="48.635087" lon="-1.509915">
        <ele>3.708</ele>
        <time>2026-08-21T17:21:22Z</time>
      </trkpt>
      <trkpt lat="48.635081" lon="-1.509927">
        <ele>3.709</ele>
        <time>2026-08-21T17:21:23Z</time>
      </trkpt>
      <trkpt lat="48.635075" lon="-1.509943">
        <ele>3.754</ele>
        <time>2026-08-21T17:21:24Z</time>
      </trkpt>
      <trkpt lat="48.635071" lon="-1.509956">
        <ele>3.750</ele>
        <time>2026-08-21T17:21:25Z</time>
      </trkpt>
      <trkpt lat="48.635065" lon="-1.509970">
        <ele>3.883</ele>
        <time>2026-08-21T17:21:26Z</time>
      </trkpt>
      <trkpt lat="48.635058" lon="-1.509984">
        <ele>3.864</ele>
        <time>2026-08-21T17:21:27Z</time>
      </trkpt>
      <trkpt lat="48.635053" lon="-1.509998">
        <ele>3.847</ele>
        <time>2026-08-21T17:21:28Z</time>
      </trkpt>
      <trkpt lat="48.635046" lon="-1.510009">
        <ele>3.954</ele>
        <time>2026-08-21T17:21:29Z</time>
      </trkpt>
      <trkpt lat="48.635040" lon="-1.510021">
        <ele>3.945</ele>
        <time>2026-08-21T17:21:30Z</time>
      </trkpt>
      <trkpt lat="48.635033" lon="-1.510033">
        <ele>3.989</ele>
        <time>2026-08-21T17:21:31Z</time>
      </trkpt>
      <trkpt lat="48.635027" lon="-1.510047">
        <ele>3.916</ele>
        <time>2026-08-21T17:21:32Z</time>
      </trkpt>
      <trkpt lat="48.635019" lon="-1.510063">
        <ele>3.975</ele>
        <time>2026-08-21T17:21:33Z</time>
      </trkpt>
      <trkpt lat="48.635011" lon="-1.510074">
        <ele>3.928</ele>
        <time>2026-08-21T17:21:34Z</time>
      </trkpt>
      <trkpt lat="48.634999" lon="-1.510090">
        <ele>3.920</ele>
        <time>2026-08-21T17:21:36Z</time>
      </trkpt>
      <trkpt lat="48.634994" lon="-1.510102">
        <ele>3.909</ele>
        <time>2026-08-21T17:21:37Z</time>
      </trkpt>
      <trkpt lat="48.634988" lon="-1.510117">
        <ele>3.949</ele>
        <time>2026-08-21T17:21:38Z</time>
      </trkpt>
      <trkpt lat="48.634982" lon="-1.510129">
        <ele>3.915</ele>
        <time>2026-08-21T17:21:39Z</time>
      </trkpt>
      <trkpt lat="48.634975" lon="-1.510141">
        <ele>3.998</ele>
        <time>2026-08-21T17:21:40Z</time>
      </trkpt>
      <trkpt lat="48.634966" lon="-1.510166">
        <ele>3.929</ele>
        <time>2026-08-21T17:21:42Z</time>
      </trkpt>
      <trkpt lat="48.634961" lon="-1.510186">
        <ele>3.932</ele>
        <time>2026-08-21T17:21:43Z</time>
      </trkpt>
      <trkpt lat="48.634957" lon="-1.510201">
        <ele>3.969</ele>
        <time>2026-08-21T17:21:44Z</time>
      </trkpt>
      <trkpt lat="48.634954" lon="-1.510214">
        <ele>3.960</ele>
        <time>2026-08-21T17:21:45Z</time>
      </trkpt>
      <trkpt lat="48.634952" lon="-1.510230">
        <ele>3.964</ele>
        <time>2026-08-21T17:21:46Z</time>
      </trkpt>
      <trkpt lat="48.634947" lon="-1.510247">
        <ele>3.921</ele>
        <time>2026-08-21T17:21:47Z</time>
      </trkpt>
      <trkpt lat="48.634942" lon="-1.510268">
        <ele>4.091</ele>
        <time>2026-08-21T17:21:48Z</time>
      </trkpt>
      <trkpt lat="48.634938" lon="-1.510283">
        <ele>4.081</ele>
        <time>2026-08-21T17:21:49Z</time>
      </trkpt>
      <trkpt lat="48.634934" lon="-1.510296">
        <ele>4.019</ele>
        <time>2026-08-21T17:21:50Z</time>
      </trkpt>
      <trkpt lat="48.634929" lon="-1.510313">
        <ele>4.009</ele>
        <time>2026-08-21T17:21:51Z</time>
      </trkpt>
      <trkpt lat="48.634924" lon="-1.510327">
        <ele>4.021</ele>
        <time>2026-08-21T17:21:52Z</time>
      </trkpt>
      <trkpt lat="48.634920" lon="-1.510341">
        <ele>4.047</ele>
        <time>2026-08-21T17:21:53Z</time>
      </trkpt>
      <trkpt lat="48.634916" lon="-1.510354">
        <ele>4.130</ele>
        <time>2026-08-21T17:21:54Z</time>
      </trkpt>
      <trkpt lat="48.634915" lon="-1.510369">
        <ele>4.141</ele>
        <time>2026-08-21T17:21:55Z</time>
      </trkpt>
      <trkpt lat="48.634914" lon="-1.510390">
        <ele>4.174</ele>
        <time>2026-08-21T17:21:57Z</time>
      </trkpt>
      <trkpt lat="48.634909" lon="-1.510404">
        <ele>4.151</ele>
        <time>2026-08-21T17:21:59Z</time>
      </trkpt>
      <trkpt lat="48.634905" lon="-1.510422">
        <ele>4.112</ele>
        <time>2026-08-21T17:22:01Z</time>
      </trkpt>
      <trkpt lat="48.634907" lon="-1.510442">
        <ele>4.156</ele>
        <time>2026-08-21T17:22:03Z</time>
      </trkpt>
      <trkpt lat="48.634903" lon="-1.510476">
        <ele>4.193</ele>
        <time>2026-08-21T17:22:05Z</time>
      </trkpt>
      <trkpt lat="48.634908" lon="-1.510494">
        <ele>4.126</ele>
        <time>2026-08-21T17:22:07Z</time>
      </trkpt>
      <trkpt lat="48.634898" lon="-1.510509">
        <ele>4.147</ele>
        <time>2026-08-21T17:22:10Z</time>
      </trkpt>
      <trkpt lat="48.634899" lon="-1.510523">
        <ele>4.111</ele>
        <time>2026-08-21T17:22:11Z</time>
      </trkpt>
      <trkpt lat="48.634898" lon="-1.510540">
        <ele>4.109</ele>
        <time>2026-08-21T17:22:12Z</time>
      </trkpt>
      <trkpt lat="48.634897" lon="-1.510562">
        <ele>4.194</ele>
        <time>2026-08-21T17:22:13Z</time>
      </trkpt>
      <trkpt lat="48.634901" lon="-1.510581">
        <ele>4.160</ele>
        <time>2026-08-21T17:22:14Z</time>
      </trkpt>
      <trkpt lat="48.634905" lon="-1.510597">
        <ele>4.053</ele>
        <time>2026-08-21T17:22:15Z</time>
      </trkpt>
      <trkpt lat="48.634906" lon="-1.510615">
        <ele>4.084</ele>
        <time>2026-08-21T17:22:16Z</time>
      </trkpt>
      <trkpt lat="48.634908" lon="-1.510629">
        <ele>4.077</ele>
        <time>2026-08-21T17:22:17Z</time>
      </trkpt>
      <trkpt lat="48.634909" lon="-1.510647">
        <ele>3.934</ele>
        <time>2026-08-21T17:22:18Z</time>
      </trkpt>
      <trkpt lat="48.634910" lon="-1.510665">
        <ele>3.935</ele>
        <time>2026-08-21T17:22:19Z</time>
      </trkpt>
      <trkpt lat="48.634908" lon="-1.510687">
        <ele>4.079</ele>
        <time>2026-08-21T17:22:21Z</time>
      </trkpt>
      <trkpt lat="48.634907" lon="-1.510703">
        <ele>4.136</ele>
        <time>2026-08-21T17:22:22Z</time>
      </trkpt>
      <trkpt lat="48.634908" lon="-1.510717">
        <ele>4.143</ele>
        <time>2026-08-21T17:22:24Z</time>
      </trkpt>
      <trkpt lat="48.634909" lon="-1.510732">
        <ele>4.164</ele>
        <time>2026-08-21T17:22:25Z</time>
      </trkpt>
      <trkpt lat="48.634912" lon="-1.510750">
        <ele>4.110</ele>
        <time>2026-08-21T17:22:26Z</time>
      </trkpt>
      <trkpt lat="48.634913" lon="-1.510768">
        <ele>4.009</ele>
        <time>2026-08-21T17:22:27Z</time>
      </trkpt>
      <trkpt lat="48.634915" lon="-1.510784">
        <ele>3.946</ele>
        <time>2026-08-21T17:22:28Z</time>
      </trkpt>
      <trkpt lat="48.634916" lon="-1.510811">
        <ele>3.922</ele>
        <time>2026-08-21T17:22:30Z</time>
      </trkpt>
      <trkpt lat="48.634917" lon="-1.510825">
        <ele>3.945</ele>
        <time>2026-08-21T17:22:31Z</time>
      </trkpt>
      <trkpt lat="48.634917" lon="-1.510843">
        <ele>3.886</ele>
        <time>2026-08-21T17:22:32Z</time>
      </trkpt>
      <trkpt lat="48.634912" lon="-1.510855">
        <ele>3.839</ele>
        <time>2026-08-21T17:22:33Z</time>
      </trkpt>
      <trkpt lat="48.634910" lon="-1.510870">
        <ele>3.886</ele>
        <time>2026-08-21T17:22:34Z</time>
      </trkpt>
      <trkpt lat="48.634908" lon="-1.510889">
        <ele>3.827</ele>
        <time>2026-08-21T17:22:35Z</time>
      </trkpt>
      <trkpt lat="48.634907" lon="-1.510908">
        <ele>3.851</ele>
        <time>2026-08-21T17:22:36Z</time>
      </trkpt>
      <trkpt lat="48.634904" lon="-1.510924">
        <ele>3.888</ele>
        <time>2026-08-21T17:22:37Z</time>
      </trkpt>
      <trkpt lat="48.634899" lon="-1.510939">
        <ele>3.866</ele>
        <time>2026-08-21T17:22:38Z</time>
      </trkpt>
      <trkpt lat="48.634896" lon="-1.510955">
        <ele>3.829</ele>
        <time>2026-08-21T17:22:39Z</time>
      </trkpt>
      <trkpt lat="48.634892" lon="-1.510971">
        <ele>3.821</ele>
        <time>2026-08-21T17:22:40Z</time>
      </trkpt>
      <trkpt lat="48.634891" lon="-1.510988">
        <ele>3.809</ele>
        <time>2026-08-21T17:22:41Z</time>
      </trkpt>
      <trkpt lat="48.634890" lon="-1.511003">
        <ele>3.858</ele>
        <time>2026-08-21T17:22:42Z</time>
      </trkpt>
      <trkpt lat="48.634887" lon="-1.511032">
        <ele>3.824</ele>
        <time>2026-08-21T17:22:44Z</time>
      </trkpt>
      <trkpt lat="48.634887" lon="-1.511051">
        <ele>3.817</ele>
        <time>2026-08-21T17:22:45Z</time>
      </trkpt>
      <trkpt lat="48.634886" lon="-1.511068">
        <ele>3.878</ele>
        <time>2026-08-21T17:22:46Z</time>
      </trkpt>
      <trkpt lat="48.634882" lon="-1.511083">
        <ele>3.851</ele>
        <time>2026-08-21T17:22:47Z</time>
      </trkpt>
      <trkpt lat="48.634876" lon="-1.511106">
        <ele>3.888</ele>
        <time>2026-08-21T17:22:49Z</time>
      </trkpt>
      <trkpt lat="48.634871" lon="-1.511130">
        <ele>3.899</ele>
        <time>2026-08-21T17:22:51Z</time>
      </trkpt>
      <trkpt lat="48.634863" lon="-1.511154">
        <ele>3.823</ele>
        <time>2026-08-21T17:22:53Z</time>
      </trkpt>
      <trkpt lat="48.634856" lon="-1.511167">
        <ele>3.880</ele>
        <time>2026-08-21T17:22:54Z</time>
      </trkpt>
      <trkpt lat="48.634850" lon="-1.511188">
        <ele>3.918</ele>
        <time>2026-08-21T17:22:56Z</time>
      </trkpt>
      <trkpt lat="48.634851" lon="-1.511207">
        <ele>3.998</ele>
        <time>2026-08-21T17:22:58Z</time>
      </trkpt>
      <trkpt lat="48.634858" lon="-1.511231">
        <ele>3.917</ele>
        <time>2026-08-21T17:23:00Z</time>
      </trkpt>
      <trkpt lat="48.634860" lon="-1.511262">
        <ele>3.909</ele>
        <time>2026-08-21T17:23:02Z</time>
      </trkpt>
      <trkpt lat="48.634863" lon="-1.511287">
        <ele>3.833</ele>
        <time>2026-08-21T17:23:04Z</time>
      </trkpt>
      <trkpt lat="48.634858" lon="-1.511311">
        <ele>3.859</ele>
        <time>2026-08-21T17:23:06Z</time>
      </trkpt>
      <trkpt lat="48.634856" lon="-1.511325">
        <ele>3.812</ele>
        <time>2026-08-21T17:23:07Z</time>
      </trkpt>
      <trkpt lat="48.634857" lon="-1.511352">
        <ele>3.853</ele>
        <time>2026-08-21T17:23:09Z</time>
      </trkpt>
      <trkpt lat="48.634857" lon="-1.511367">
        <ele>3.876</ele>
        <time>2026-08-21T17:23:10Z</time>
      </trkpt>
      <trkpt lat="48.634857" lon="-1.511384">
        <ele>3.853</ele>
        <time>2026-08-21T17:23:11Z</time>
      </trkpt>
      <trkpt lat="48.634858" lon="-1.511404">
        <ele>3.834</ele>
        <time>2026-08-21T17:23:12Z</time>
      </trkpt>
      <trkpt lat="48.634858" lon="-1.511421">
        <ele>3.988</ele>
        <time>2026-08-21T17:23:13Z</time>
      </trkpt>
      <trkpt lat="48.634860" lon="-1.511435">
        <ele>3.995</ele>
        <time>2026-08-21T17:23:14Z</time>
      </trkpt>
      <trkpt lat="48.634864" lon="-1.511456">
        <ele>3.911</ele>
        <time>2026-08-21T17:23:16Z</time>
      </trkpt>
      <trkpt lat="48.634866" lon="-1.511475">
        <ele>3.921</ele>
        <time>2026-08-21T17:23:18Z</time>
      </trkpt>
      <trkpt lat="48.634868" lon="-1.511495">
        <ele>3.903</ele>
        <time>2026-08-21T17:23:20Z</time>
      </trkpt>
      <trkpt lat="48.634874" lon="-1.511508">
        <ele>3.909</ele>
        <time>2026-08-21T17:23:21Z</time>
      </trkpt>
      <trkpt lat="48.634882" lon="-1.511531">
        <ele>3.943</ele>
        <time>2026-08-21T17:23:23Z</time>
      </trkpt>
      <trkpt lat="48.634892" lon="-1.511550">
        <ele>3.939</ele>
        <time>2026-08-21T17:23:25Z</time>
      </trkpt>
      <trkpt lat="48.634894" lon="-1.511572">
        <ele>3.962</ele>
        <time>2026-08-21T17:23:27Z</time>
      </trkpt>
      <trkpt lat="48.634894" lon="-1.511590">
        <ele>3.993</ele>
        <time>2026-08-21T17:23:29Z</time>
      </trkpt>
      <trkpt lat="48.634898" lon="-1.511612">
        <ele>3.936</ele>
        <time>2026-08-21T17:23:31Z</time>
      </trkpt>
      <trkpt lat="48.634899" lon="-1.511632">
        <ele>3.923</ele>
        <time>2026-08-21T17:23:33Z</time>
      </trkpt>
      <trkpt lat="48.634907" lon="-1.511619">
        <ele>3.974</ele>
        <time>2026-08-21T17:23:39Z</time>
      </trkpt>
      <trkpt lat="48.634906" lon="-1.511601">
        <ele>3.928</ele>
        <time>2026-08-21T17:23:42Z</time>
      </trkpt>
      <trkpt lat="48.634897" lon="-1.511592">
        <ele>4.075</ele>
        <time>2026-08-21T17:23:44Z</time>
      </trkpt>
      <trkpt lat="48.634888" lon="-1.511582">
        <ele>4.043</ele>
        <time>2026-08-21T17:23:46Z</time>
      </trkpt>
      <trkpt lat="48.634891" lon="-1.511568">
        <ele>4.064</ele>
        <time>2026-08-21T17:23:49Z</time>
      </trkpt>
      <trkpt lat="48.634899" lon="-1.511553">
        <ele>4.010</ele>
        <time>2026-08-21T17:24:01Z</time>
      </trkpt>
      <trkpt lat="48.634899" lon="-1.511532">
        <ele>4.009</ele>
        <time>2026-08-21T17:24:03Z</time>
      </trkpt>
      <trkpt lat="48.634895" lon="-1.511519">
        <ele>4.186</ele>
        <time>2026-08-21T17:24:05Z</time>
      </trkpt>
      <trkpt lat="48.634896" lon="-1.511503">
        <ele>4.052</ele>
        <time>2026-08-21T17:24:08Z</time>
      </trkpt>
      <trkpt lat="48.634895" lon="-1.511482">
        <ele>4.035</ele>
        <time>2026-08-21T17:24:10Z</time>
      </trkpt>
      <trkpt lat="48.634886" lon="-1.511465">
        <ele>4.066</ele>
        <time>2026-08-21T17:24:12Z</time>
      </trkpt>
      <trkpt lat="48.634885" lon="-1.511447">
        <ele>4.089</ele>
        <time>2026-08-21T17:24:14Z</time>
      </trkpt>
      <trkpt lat="48.634883" lon="-1.511422">
        <ele>4.016</ele>
        <time>2026-08-21T17:24:16Z</time>
      </trkpt>
      <trkpt lat="48.634886" lon="-1.511406">
        <ele>4.017</ele>
        <time>2026-08-21T17:24:18Z</time>
      </trkpt>
      <trkpt lat="48.634895" lon="-1.511387">
        <ele>4.041</ele>
        <time>2026-08-21T17:24:20Z</time>
      </trkpt>
      <trkpt lat="48.634893" lon="-1.511365">
        <ele>4.058</ele>
        <time>2026-08-21T17:24:22Z</time>
      </trkpt>
      <trkpt lat="48.634900" lon="-1.511343">
        <ele>4.032</ele>
        <time>2026-08-21T17:24:24Z</time>
      </trkpt>
      <trkpt lat="48.634895" lon="-1.511327">
        <ele>4.092</ele>
        <time>2026-08-21T17:24:26Z</time>
      </trkpt>
      <trkpt lat="48.634888" lon="-1.511336">
        <ele>4.811</ele>
        <time>2026-08-21T17:24:59Z</time>
      </trkpt>
      <trkpt lat="48.634877" lon="-1.511333">
        <ele>4.609</ele>
        <time>2026-08-21T17:25:07Z</time>
      </trkpt>
      <trkpt lat="48.634872" lon="-1.511347">
        <ele>4.435</ele>
        <time>2026-08-21T17:25:08Z</time>
      </trkpt>
      <trkpt lat="48.634876" lon="-1.511362">
        <ele>4.681</ele>
        <time>2026-08-21T17:25:19Z</time>
      </trkpt>
      <trkpt lat="48.634881" lon="-1.511381">
        <ele>4.444</ele>
        <time>2026-08-21T17:25:21Z</time>
      </trkpt>
      <trkpt lat="48.634886" lon="-1.511394">
        <ele>4.415</ele>
        <time>2026-08-21T17:25:22Z</time>
      </trkpt>
      <trkpt lat="48.634887" lon="-1.511408">
        <ele>4.348</ele>
        <time>2026-08-21T17:25:23Z</time>
      </trkpt>
      <trkpt lat="48.634892" lon="-1.511426">
        <ele>4.385</ele>
        <time>2026-08-21T17:25:24Z</time>
      </trkpt>
      <trkpt lat="48.634896" lon="-1.511442">
        <ele>4.376</ele>
        <time>2026-08-21T17:25:25Z</time>
      </trkpt>
      <trkpt lat="48.634901" lon="-1.511454">
        <ele>4.330</ele>
        <time>2026-08-21T17:25:26Z</time>
      </trkpt>
      <trkpt lat="48.634917" lon="-1.511470">
        <ele>4.357</ele>
        <time>2026-08-21T17:25:28Z</time>
      </trkpt>
      <trkpt lat="48.634925" lon="-1.511479">
        <ele>4.318</ele>
        <time>2026-08-21T17:25:29Z</time>
      </trkpt>
      <trkpt lat="48.634933" lon="-1.511491">
        <ele>4.298</ele>
        <time>2026-08-21T17:25:30Z</time>
      </trkpt>
      <trkpt lat="48.634941" lon="-1.511501">
        <ele>4.217</ele>
        <time>2026-08-21T17:25:31Z</time>
      </trkpt>
      <trkpt lat="48.634950" lon="-1.511506">
        <ele>4.209</ele>
        <time>2026-08-21T17:25:32Z</time>
      </trkpt>
      <trkpt lat="48.634962" lon="-1.511526">
        <ele>4.233</ele>
        <time>2026-08-21T17:25:34Z</time>
      </trkpt>
      <trkpt lat="48.634970" lon="-1.511546">
        <ele>4.259</ele>
        <time>2026-08-21T17:25:36Z</time>
      </trkpt>
      <trkpt lat="48.634982" lon="-1.511556">
        <ele>4.372</ele>
        <time>2026-08-21T17:25:38Z</time>
      </trkpt>
      <trkpt lat="48.634994" lon="-1.511568">
        <ele>4.363</ele>
        <time>2026-08-21T17:25:40Z</time>
      </trkpt>
      <trkpt lat="48.635000" lon="-1.511590">
        <ele>4.346</ele>
        <time>2026-08-21T17:25:42Z</time>
      </trkpt>
      <trkpt lat="48.635003" lon="-1.511619">
        <ele>4.363</ele>
        <time>2026-08-21T17:25:44Z</time>
      </trkpt>
      <trkpt lat="48.635002" lon="-1.511635">
        <ele>4.384</ele>
        <time>2026-08-21T17:25:45Z</time>
      </trkpt>
      <trkpt lat="48.635001" lon="-1.511650">
        <ele>4.378</ele>
        <time>2026-08-21T17:25:47Z</time>
      </trkpt>
      <trkpt lat="48.635002" lon="-1.511666">
        <ele>4.395</ele>
        <time>2026-08-21T17:25:49Z</time>
      </trkpt>
      <trkpt lat="48.635000" lon="-1.511685">
        <ele>4.315</ele>
        <time>2026-08-21T17:25:51Z</time>
      </trkpt>
      <trkpt lat="48.634997" lon="-1.511713">
        <ele>4.465</ele>
        <time>2026-08-21T17:25:53Z</time>
      </trkpt>
      <trkpt lat="48.634997" lon="-1.511738">
        <ele>4.411</ele>
        <time>2026-08-21T17:25:55Z</time>
      </trkpt>
      <trkpt lat="48.634999" lon="-1.511751">
        <ele>4.509</ele>
        <time>2026-08-21T17:25:56Z</time>
      </trkpt>
      <trkpt lat="48.635000" lon="-1.511771">
        <ele>4.653</ele>
        <time>2026-08-21T17:25:58Z</time>
      </trkpt>
      <trkpt lat="48.635002" lon="-1.511788">
        <ele>4.659</ele>
        <time>2026-08-21T17:26:00Z</time>
      </trkpt>
      <trkpt lat="48.635006" lon="-1.511804">
        <ele>4.692</ele>
        <time>2026-08-21T17:26:02Z</time>
      </trkpt>
      <trkpt lat="48.635013" lon="-1.511813">
        <ele>4.743</ele>
        <time>2026-08-21T17:26:04Z</time>
      </trkpt>
      <trkpt lat="48.635010" lon="-1.511832">
        <ele>4.886</ele>
        <time>2026-08-21T17:26:08Z</time>
      </trkpt>
      <trkpt lat="48.635006" lon="-1.511844">
        <ele>4.843</ele>
        <time>2026-08-21T17:26:10Z</time>
      </trkpt>
      <trkpt lat="48.635003" lon="-1.511860">
        <ele>4.984</ele>
        <time>2026-08-21T17:26:12Z</time>
      </trkpt>
      <trkpt lat="48.634999" lon="-1.511880">
        <ele>4.938</ele>
        <time>2026-08-21T17:26:14Z</time>
      </trkpt>
      <trkpt lat="48.635000" lon="-1.511897">
        <ele>4.975</ele>
        <time>2026-08-21T17:26:15Z</time>
      </trkpt>
      <trkpt lat="48.635001" lon="-1.511911">
        <ele>4.998</ele>
        <time>2026-08-21T17:26:16Z</time>
      </trkpt>
      <trkpt lat="48.635010" lon="-1.511932">
        <ele>4.915</ele>
        <time>2026-08-21T17:26:19Z</time>
      </trkpt>
      <trkpt lat="48.635026" lon="-1.511952">
        <ele>4.926</ele>
        <time>2026-08-21T17:26:21Z</time>
      </trkpt>
      <trkpt lat="48.635040" lon="-1.511964">
        <ele>4.909</ele>
        <time>2026-08-21T17:26:23Z</time>
      </trkpt>
      <trkpt lat="48.635036" lon="-1.511983">
        <ele>4.911</ele>
        <time>2026-08-21T17:26:30Z</time>
      </trkpt>
      <trkpt lat="48.635036" lon="-1.511998">
        <ele>4.957</ele>
        <time>2026-08-21T17:26:31Z</time>
      </trkpt>
      <trkpt lat="48.635041" lon="-1.512011">
        <ele>4.980</ele>
        <time>2026-08-21T17:26:32Z</time>
      </trkpt>
      <trkpt lat="48.635056" lon="-1.512015">
        <ele>4.911</ele>
        <time>2026-08-21T17:26:34Z</time>
      </trkpt>
      <trkpt lat="48.635066" lon="-1.512013">
        <ele>4.964</ele>
        <time>2026-08-21T17:26:35Z</time>
      </trkpt>
      <trkpt lat="48.635078" lon="-1.512025">
        <ele>4.911</ele>
        <time>2026-08-21T17:26:37Z</time>
      </trkpt>
      <trkpt lat="48.635089" lon="-1.512029">
        <ele>4.922</ele>
        <time>2026-08-21T17:26:39Z</time>
      </trkpt>
      <trkpt lat="48.635096" lon="-1.512042">
        <ele>4.936</ele>
        <time>2026-08-21T17:26:40Z</time>
      </trkpt>
      <trkpt lat="48.635101" lon="-1.512057">
        <ele>4.943</ele>
        <time>2026-08-21T17:26:41Z</time>
      </trkpt>
      <trkpt lat="48.635099" lon="-1.512071">
        <ele>4.852</ele>
        <time>2026-08-21T17:26:42Z</time>
      </trkpt>
      <trkpt lat="48.635100" lon="-1.512086">
        <ele>4.753</ele>
        <time>2026-08-21T17:26:43Z</time>
      </trkpt>
      <trkpt lat="48.635103" lon="-1.512110">
        <ele>4.608</ele>
        <time>2026-08-21T17:26:45Z</time>
      </trkpt>
      <trkpt lat="48.635107" lon="-1.512129">
        <ele>4.609</ele>
        <time>2026-08-21T17:26:46Z</time>
      </trkpt>
      <trkpt lat="48.635116" lon="-1.512140">
        <ele>4.547</ele>
        <time>2026-08-21T17:26:47Z</time>
      </trkpt>
      <trkpt lat="48.635123" lon="-1.512150">
        <ele>4.483</ele>
        <time>2026-08-21T17:26:48Z</time>
      </trkpt>
      <trkpt lat="48.635129" lon="-1.512162">
        <ele>4.156</ele>
        <time>2026-08-21T17:26:49Z</time>
      </trkpt>
      <trkpt lat="48.635136" lon="-1.512172">
        <ele>4.017</ele>
        <time>2026-08-21T17:26:51Z</time>
      </trkpt>
      <trkpt lat="48.635144" lon="-1.512189">
        <ele>4.050</ele>
        <time>2026-08-21T17:26:53Z</time>
      </trkpt>
      <trkpt lat="48.635153" lon="-1.512196">
        <ele>4.087</ele>
        <time>2026-08-21T17:26:54Z</time>
      </trkpt>
      <trkpt lat="48.635161" lon="-1.512200">
        <ele>4.068</ele>
        <time>2026-08-21T17:26:55Z</time>
      </trkpt>
      <trkpt lat="48.635169" lon="-1.512210">
        <ele>4.052</ele>
        <time>2026-08-21T17:26:56Z</time>
      </trkpt>
      <trkpt lat="48.635180" lon="-1.512214">
        <ele>4.019</ele>
        <time>2026-08-21T17:26:58Z</time>
      </trkpt>
      <trkpt lat="48.635193" lon="-1.512236">
        <ele>4.079</ele>
        <time>2026-08-21T17:27:00Z</time>
      </trkpt>
      <trkpt lat="48.635205" lon="-1.512251">
        <ele>4.005</ele>
        <time>2026-08-21T17:27:02Z</time>
      </trkpt>
      <trkpt lat="48.635209" lon="-1.512264">
        <ele>4.025</ele>
        <time>2026-08-21T17:27:03Z</time>
      </trkpt>
      <trkpt lat="48.635217" lon="-1.512280">
        <ele>4.009</ele>
        <time>2026-08-21T17:27:05Z</time>
      </trkpt>
      <trkpt lat="48.635224" lon="-1.512295">
        <ele>4.069</ele>
        <time>2026-08-21T17:27:06Z</time>
      </trkpt>
      <trkpt lat="48.635239" lon="-1.512308">
        <ele>4.035</ele>
        <time>2026-08-21T17:27:08Z</time>
      </trkpt>
      <trkpt lat="48.635246" lon="-1.512316">
        <ele>4.048</ele>
        <time>2026-08-21T17:27:10Z</time>
      </trkpt>
      <trkpt lat="48.635251" lon="-1.512329">
        <ele>4.079</ele>
        <time>2026-08-21T17:27:12Z</time>
      </trkpt>
      <trkpt lat="48.635264" lon="-1.512338">
        <ele>4.292</ele>
        <time>2026-08-21T17:27:14Z</time>
      </trkpt>
      <trkpt lat="48.635267" lon="-1.512351">
        <ele>4.359</ele>
        <time>2026-08-21T17:27:15Z</time>
      </trkpt>
      <trkpt lat="48.635263" lon="-1.512365">
        <ele>4.490</ele>
        <time>2026-08-21T17:27:17Z</time>
      </trkpt>
      <trkpt lat="48.635278" lon="-1.512383">
        <ele>4.584</ele>
        <time>2026-08-21T17:27:19Z</time>
      </trkpt>
      <trkpt lat="48.635286" lon="-1.512403">
        <ele>4.581</ele>
        <time>2026-08-21T17:27:20Z</time>
      </trkpt>
      <trkpt lat="48.635291" lon="-1.512425">
        <ele>4.686</ele>
        <time>2026-08-21T17:27:21Z</time>
      </trkpt>
      <trkpt lat="48.635296" lon="-1.512437">
        <ele>4.760</ele>
        <time>2026-08-21T17:27:22Z</time>
      </trkpt>
      <trkpt lat="48.635304" lon="-1.512448">
        <ele>4.926</ele>
        <time>2026-08-21T17:27:23Z</time>
      </trkpt>
      <trkpt lat="48.635309" lon="-1.512464">
        <ele>5.209</ele>
        <time>2026-08-21T17:27:25Z</time>
      </trkpt>
      <trkpt lat="48.635319" lon="-1.512475">
        <ele>5.330</ele>
        <time>2026-08-21T17:27:26Z</time>
      </trkpt>
      <trkpt lat="48.635332" lon="-1.512497">
        <ele>5.336</ele>
        <time>2026-08-21T17:27:28Z</time>
      </trkpt>
      <trkpt lat="48.635341" lon="-1.512518">
        <ele>5.379</ele>
        <time>2026-08-21T17:27:30Z</time>
      </trkpt>
      <trkpt lat="48.635350" lon="-1.512522">
        <ele>5.410</ele>
        <time>2026-08-21T17:27:31Z</time>
      </trkpt>
      <trkpt lat="48.635366" lon="-1.512533">
        <ele>5.423</ele>
        <time>2026-08-21T17:27:33Z</time>
      </trkpt>
      <trkpt lat="48.635380" lon="-1.512543">
        <ele>5.430</ele>
        <time>2026-08-21T17:27:35Z</time>
      </trkpt>
      <trkpt lat="48.635389" lon="-1.512553">
        <ele>5.481</ele>
        <time>2026-08-21T17:27:36Z</time>
      </trkpt>
      <trkpt lat="48.635398" lon="-1.512571">
        <ele>5.665</ele>
        <time>2026-08-21T17:27:38Z</time>
      </trkpt>
      <trkpt lat="48.635408" lon="-1.512589">
        <ele>5.862</ele>
        <time>2026-08-21T17:27:40Z</time>
      </trkpt>
      <trkpt lat="48.635419" lon="-1.512591">
        <ele>6.142</ele>
        <time>2026-08-21T17:27:41Z</time>
      </trkpt>
      <trkpt lat="48.635423" lon="-1.512610">
        <ele>6.422</ele>
        <time>2026-08-21T17:27:42Z</time>
      </trkpt>
      <trkpt lat="48.635427" lon="-1.512633">
        <ele>6.714</ele>
        <time>2026-08-21T17:27:44Z</time>
      </trkpt>
      <trkpt lat="48.635434" lon="-1.512643">
        <ele>7.009</ele>
        <time>2026-08-21T17:27:45Z</time>
      </trkpt>
      <trkpt lat="48.635441" lon="-1.512652">
        <ele>7.296</ele>
        <time>2026-08-21T17:27:46Z</time>
      </trkpt>
      <trkpt lat="48.635448" lon="-1.512666">
        <ele>7.562</ele>
        <time>2026-08-21T17:27:47Z</time>
      </trkpt>
      <trkpt lat="48.635454" lon="-1.512682">
        <ele>8.155</ele>
        <time>2026-08-21T17:27:49Z</time>
      </trkpt>
      <trkpt lat="48.635453" lon="-1.512699">
        <ele>8.486</ele>
        <time>2026-08-21T17:27:51Z</time>
      </trkpt>
      <trkpt lat="48.635450" lon="-1.512718">
        <ele>8.689</ele>
        <time>2026-08-21T17:27:53Z</time>
      </trkpt>
      <trkpt lat="48.635445" lon="-1.512733">
        <ele>8.936</ele>
        <time>2026-08-21T17:27:55Z</time>
      </trkpt>
      <trkpt lat="48.635452" lon="-1.512721">
        <ele>9.397</ele>
        <time>2026-08-21T17:28:05Z</time>
      </trkpt>
      <trkpt lat="48.635444" lon="-1.512714">
        <ele>9.751</ele>
        <time>2026-08-21T17:28:13Z</time>
      </trkpt>
      <trkpt lat="48.635437" lon="-1.512705">
        <ele>9.898</ele>
        <time>2026-08-21T17:28:26Z</time>
      </trkpt>
      <trkpt lat="48.635445" lon="-1.512711">
        <ele>10.043</ele>
        <time>2026-08-21T17:28:43Z</time>
      </trkpt>
      <trkpt lat="48.635455" lon="-1.512714">
        <ele>10.464</ele>
        <time>2026-08-21T17:29:51Z</time>
      </trkpt>
      <trkpt lat="48.635462" lon="-1.512724">
        <ele>12.910</ele>
        <time>2026-08-21T17:30:28Z</time>
      </trkpt>
      <trkpt lat="48.635452" lon="-1.512715">
        <ele>12.709</ele>
        <time>2026-08-21T17:30:39Z</time>
      </trkpt>
      <trkpt lat="48.635446" lon="-1.512726">
        <ele>12.586</ele>
        <time>2026-08-21T17:30:42Z</time>
      </trkpt>
      <trkpt lat="48.635445" lon="-1.512708">
        <ele>12.412</ele>
        <time>2026-08-21T17:30:53Z</time>
      </trkpt>
      <trkpt lat="48.635445" lon="-1.512694">
        <ele>12.235</ele>
        <time>2026-08-21T17:30:55Z</time>
      </trkpt>
      <trkpt lat="48.635445" lon="-1.512675">
        <ele>12.186</ele>
        <time>2026-08-21T17:30:58Z</time>
      </trkpt>
      <trkpt lat="48.635445" lon="-1.512657">
        <ele>12.179</ele>
        <time>2026-08-21T17:31:01Z</time>
      </trkpt>
      <trkpt lat="48.635443" lon="-1.512642">
        <ele>12.196</ele>
        <time>2026-08-21T17:31:04Z</time>
      </trkpt>
      <trkpt lat="48.635445" lon="-1.512615">
        <ele>12.127</ele>
        <time>2026-08-21T17:31:06Z</time>
      </trkpt>
      <trkpt lat="48.635441" lon="-1.512600">
        <ele>12.161</ele>
        <time>2026-08-21T17:31:07Z</time>
      </trkpt>
      <trkpt lat="48.635434" lon="-1.512581">
        <ele>12.198</ele>
        <time>2026-08-21T17:31:09Z</time>
      </trkpt>
      <trkpt lat="48.635422" lon="-1.512566">
        <ele>11.968</ele>
        <time>2026-08-21T17:31:11Z</time>
      </trkpt>
      <trkpt lat="48.635413" lon="-1.512556">
        <ele>11.742</ele>
        <time>2026-08-21T17:31:12Z</time>
      </trkpt>
      <trkpt lat="48.635407" lon="-1.512544">
        <ele>11.726</ele>
        <time>2026-08-21T17:31:13Z</time>
      </trkpt>
      <trkpt lat="48.635398" lon="-1.512534">
        <ele>11.709</ele>
        <time>2026-08-21T17:31:15Z</time>
      </trkpt>
      <trkpt lat="48.635397" lon="-1.512520">
        <ele>11.738</ele>
        <time>2026-08-21T17:31:17Z</time>
      </trkpt>
      <trkpt lat="48.635390" lon="-1.512500">
        <ele>11.784</ele>
        <time>2026-08-21T17:31:19Z</time>
      </trkpt>
      <trkpt lat="48.635376" lon="-1.512506">
        <ele>11.747</ele>
        <time>2026-08-21T17:31:21Z</time>
      </trkpt>
      <trkpt lat="48.635366" lon="-1.512497">
        <ele>11.678</ele>
        <time>2026-08-21T17:31:23Z</time>
      </trkpt>
      <trkpt lat="48.635359" lon="-1.512485">
        <ele>11.631</ele>
        <time>2026-08-21T17:31:25Z</time>
      </trkpt>
      <trkpt lat="48.635347" lon="-1.512475">
        <ele>11.668</ele>
        <time>2026-08-21T17:31:28Z</time>
      </trkpt>
      <trkpt lat="48.635339" lon="-1.512466">
        <ele>11.679</ele>
        <time>2026-08-21T17:31:29Z</time>
      </trkpt>
      <trkpt lat="48.635335" lon="-1.512442">
        <ele>11.643</ele>
        <time>2026-08-21T17:31:31Z</time>
      </trkpt>
      <trkpt lat="48.635328" lon="-1.512433">
        <ele>11.630</ele>
        <time>2026-08-21T17:31:37Z</time>
      </trkpt>
      <trkpt lat="48.635312" lon="-1.512421">
        <ele>11.655</ele>
        <time>2026-08-21T17:31:40Z</time>
      </trkpt>
      <trkpt lat="48.635309" lon="-1.512404">
        <ele>11.507</ele>
        <time>2026-08-21T17:31:42Z</time>
      </trkpt>
      <trkpt lat="48.635303" lon="-1.512391">
        <ele>11.417</ele>
        <time>2026-08-21T17:31:44Z</time>
      </trkpt>
      <trkpt lat="48.635299" lon="-1.512368">
        <ele>11.409</ele>
        <time>2026-08-21T17:31:47Z</time>
      </trkpt>
      <trkpt lat="48.635298" lon="-1.512354">
        <ele>11.357</ele>
        <time>2026-08-21T17:31:48Z</time>
      </trkpt>
      <trkpt lat="48.635293" lon="-1.512334">
        <ele>11.363</ele>
        <time>2026-08-21T17:31:50Z</time>
      </trkpt>
      <trkpt lat="48.635290" lon="-1.512320">
        <ele>11.136</ele>
        <time>2026-08-21T17:31:56Z</time>
      </trkpt>
      <trkpt lat="48.635280" lon="-1.512300">
        <ele>11.047</ele>
        <time>2026-08-21T17:32:00Z</time>
      </trkpt>
      <trkpt lat="48.635278" lon="-1.512281">
        <ele>10.890</ele>
        <time>2026-08-21T17:32:01Z</time>
      </trkpt>
      <trkpt lat="48.635277" lon="-1.512262">
        <ele>10.537</ele>
        <time>2026-08-21T17:32:02Z</time>
      </trkpt>
      <trkpt lat="48.635275" lon="-1.512247">
        <ele>10.248</ele>
        <time>2026-08-21T17:32:03Z</time>
      </trkpt>
      <trkpt lat="48.635271" lon="-1.512225">
        <ele>10.172</ele>
        <time>2026-08-21T17:32:05Z</time>
      </trkpt>
      <trkpt lat="48.635261" lon="-1.512216">
        <ele>10.079</ele>
        <time>2026-08-21T17:32:07Z</time>
      </trkpt>
      <trkpt lat="48.635256" lon="-1.512202">
        <ele>9.967</ele>
        <time>2026-08-21T17:32:09Z</time>
      </trkpt>
      <trkpt lat="48.635241" lon="-1.512202">
        <ele>9.981</ele>
        <time>2026-08-21T17:32:11Z</time>
      </trkpt>
      <trkpt lat="48.635231" lon="-1.512198">
        <ele>9.819</ele>
        <time>2026-08-21T17:32:13Z</time>
      </trkpt>
      <trkpt lat="48.635227" lon="-1.512181">
        <ele>9.809</ele>
        <time>2026-08-21T17:32:16Z</time>
      </trkpt>
      <trkpt lat="48.635204" lon="-1.512186">
        <ele>9.718</ele>
        <time>2026-08-21T17:32:18Z</time>
      </trkpt>
      <trkpt lat="48.635197" lon="-1.512167">
        <ele>9.734</ele>
        <time>2026-08-21T17:32:20Z</time>
      </trkpt>
      <trkpt lat="48.635190" lon="-1.512155">
        <ele>9.637</ele>
        <time>2026-08-21T17:32:22Z</time>
      </trkpt>
      <trkpt lat="48.635188" lon="-1.512140">
        <ele>9.628</ele>
        <time>2026-08-21T17:32:27Z</time>
      </trkpt>
      <trkpt lat="48.635177" lon="-1.512124">
        <ele>9.661</ele>
        <time>2026-08-21T17:32:29Z</time>
      </trkpt>
      <trkpt lat="48.635168" lon="-1.512101">
        <ele>9.558</ele>
        <time>2026-08-21T17:32:30Z</time>
      </trkpt>
      <trkpt lat="48.635157" lon="-1.512086">
        <ele>9.569</ele>
        <time>2026-08-21T17:32:31Z</time>
      </trkpt>
      <trkpt lat="48.635146" lon="-1.512067">
        <ele>9.453</ele>
        <time>2026-08-21T17:32:33Z</time>
      </trkpt>
      <trkpt lat="48.635135" lon="-1.512067">
        <ele>9.410</ele>
        <time>2026-08-21T17:32:34Z</time>
      </trkpt>
      <trkpt lat="48.635125" lon="-1.512063">
        <ele>9.385</ele>
        <time>2026-08-21T17:32:35Z</time>
      </trkpt>
      <trkpt lat="48.635114" lon="-1.512057">
        <ele>9.389</ele>
        <time>2026-08-21T17:32:37Z</time>
      </trkpt>
      <trkpt lat="48.635103" lon="-1.512052">
        <ele>9.217</ele>
        <time>2026-08-21T17:32:40Z</time>
      </trkpt>
      <trkpt lat="48.635096" lon="-1.512036">
        <ele>8.809</ele>
        <time>2026-08-21T17:32:41Z</time>
      </trkpt>
      <trkpt lat="48.635101" lon="-1.512015">
        <ele>8.220</ele>
        <time>2026-08-21T17:32:44Z</time>
      </trkpt>
      <trkpt lat="48.635098" lon="-1.512001">
        <ele>7.746</ele>
        <time>2026-08-21T17:32:45Z</time>
      </trkpt>
      <trkpt lat="48.635088" lon="-1.511993">
        <ele>7.319</ele>
        <time>2026-08-21T17:32:46Z</time>
      </trkpt>
      <trkpt lat="48.635073" lon="-1.511990">
        <ele>7.070</ele>
        <time>2026-08-21T17:32:47Z</time>
      </trkpt>
      <trkpt lat="48.635059" lon="-1.511994">
        <ele>6.833</ele>
        <time>2026-08-21T17:32:49Z</time>
      </trkpt>
      <trkpt lat="48.635049" lon="-1.511988">
        <ele>6.690</ele>
        <time>2026-08-21T17:32:50Z</time>
      </trkpt>
      <trkpt lat="48.635039" lon="-1.511981">
        <ele>6.461</ele>
        <time>2026-08-21T17:32:51Z</time>
      </trkpt>
      <trkpt lat="48.635023" lon="-1.511965">
        <ele>6.415</ele>
        <time>2026-08-21T17:32:53Z</time>
      </trkpt>
      <trkpt lat="48.635014" lon="-1.511954">
        <ele>6.472</ele>
        <time>2026-08-21T17:32:55Z</time>
      </trkpt>
      <trkpt lat="48.635007" lon="-1.511943">
        <ele>6.282</ele>
        <time>2026-08-21T17:32:56Z</time>
      </trkpt>
      <trkpt lat="48.635006" lon="-1.511926">
        <ele>6.143</ele>
        <time>2026-08-21T17:33:00Z</time>
      </trkpt>
      <trkpt lat="48.634993" lon="-1.511920">
        <ele>6.017</ele>
        <time>2026-08-21T17:33:02Z</time>
      </trkpt>
      <trkpt lat="48.634984" lon="-1.511915">
        <ele>5.909</ele>
        <time>2026-08-21T17:33:03Z</time>
      </trkpt>
      <trkpt lat="48.634976" lon="-1.511924">
        <ele>5.960</ele>
        <time>2026-08-21T17:33:05Z</time>
      </trkpt>
      <trkpt lat="48.634965" lon="-1.511932">
        <ele>5.836</ele>
        <time>2026-08-21T17:33:07Z</time>
      </trkpt>
      <trkpt lat="48.634960" lon="-1.511943">
        <ele>5.819</ele>
        <time>2026-08-21T17:33:09Z</time>
      </trkpt>
      <trkpt lat="48.634964" lon="-1.511962">
        <ele>5.710</ele>
        <time>2026-08-21T17:33:11Z</time>
      </trkpt>
      <trkpt lat="48.634967" lon="-1.511975">
        <ele>5.743</ele>
        <time>2026-08-21T17:33:13Z</time>
      </trkpt>
      <trkpt lat="48.634961" lon="-1.511988">
        <ele>5.770</ele>
        <time>2026-08-21T17:33:15Z</time>
      </trkpt>
      <trkpt lat="48.634965" lon="-1.512002">
        <ele>5.771</ele>
        <time>2026-08-21T17:33:18Z</time>
      </trkpt>
      <trkpt lat="48.634957" lon="-1.512009">
        <ele>5.615</ele>
        <time>2026-08-21T17:33:29Z</time>
      </trkpt>
      <trkpt lat="48.634959" lon="-1.512023">
        <ele>5.462</ele>
        <time>2026-08-21T17:33:33Z</time>
      </trkpt>
      <trkpt lat="48.634957" lon="-1.512044">
        <ele>5.386</ele>
        <time>2026-08-21T17:33:36Z</time>
      </trkpt>
      <trkpt lat="48.634953" lon="-1.512062">
        <ele>5.260</ele>
        <time>2026-08-21T17:33:37Z</time>
      </trkpt>
      <trkpt lat="48.634947" lon="-1.512083">
        <ele>5.126</ele>
        <time>2026-08-21T17:33:39Z</time>
      </trkpt>
      <trkpt lat="48.634944" lon="-1.512103">
        <ele>5.109</ele>
        <time>2026-08-21T17:33:42Z</time>
      </trkpt>
      <trkpt lat="48.634940" lon="-1.512119">
        <ele>5.190</ele>
        <time>2026-08-21T17:33:44Z</time>
      </trkpt>
      <trkpt lat="48.634945" lon="-1.512132">
        <ele>4.946</ele>
        <time>2026-08-21T17:33:46Z</time>
      </trkpt>
      <trkpt lat="48.634957" lon="-1.512145">
        <ele>4.639</ele>
        <time>2026-08-21T17:33:49Z</time>
      </trkpt>
      <trkpt lat="48.634966" lon="-1.512149">
        <ele>4.440</ele>
        <time>2026-08-21T17:33:51Z</time>
      </trkpt>
      <trkpt lat="48.634963" lon="-1.512136">
        <ele>4.193</ele>
        <time>2026-08-21T17:34:15Z</time>
      </trkpt>
      <trkpt lat="48.634964" lon="-1.512119">
        <ele>3.980</ele>
        <time>2026-08-21T17:34:43Z</time>
      </trkpt>
      <trkpt lat="48.634966" lon="-1.512104">
        <ele>3.821</ele>
        <time>2026-08-21T17:34:45Z</time>
      </trkpt>
      <trkpt lat="48.634960" lon="-1.512091">
        <ele>3.615</ele>
        <time>2026-08-21T17:34:49Z</time>
      </trkpt>
      <trkpt lat="48.634956" lon="-1.512077">
        <ele>3.532</ele>
        <time>2026-08-21T17:34:56Z</time>
      </trkpt>
      <trkpt lat="48.634954" lon="-1.512061">
        <ele>3.352</ele>
        <time>2026-08-21T17:35:02Z</time>
      </trkpt>
      <trkpt lat="48.634951" lon="-1.512047">
        <ele>3.253</ele>
        <time>2026-08-21T17:35:06Z</time>
      </trkpt>
      <trkpt lat="48.634955" lon="-1.512030">
        <ele>3.208</ele>
        <time>2026-08-21T17:35:12Z</time>
      </trkpt>
      <trkpt lat="48.634965" lon="-1.512020">
        <ele>3.109</ele>
        <time>2026-08-21T17:35:16Z</time>
      </trkpt>
      <trkpt lat="48.634970" lon="-1.512008">
        <ele>3.147</ele>
        <time>2026-08-21T17:35:20Z</time>
      </trkpt>
      <trkpt lat="48.634977" lon="-1.511999">
        <ele>3.093</ele>
        <time>2026-08-21T17:35:36Z</time>
      </trkpt>
      <trkpt lat="48.634970" lon="-1.511991">
        <ele>3.016</ele>
        <time>2026-08-21T17:36:05Z</time>
      </trkpt>
      <trkpt lat="48.634967" lon="-1.511975">
        <ele>3.087</ele>
        <time>2026-08-21T17:36:33Z</time>
      </trkpt>
      <trkpt lat="48.634972" lon="-1.511959">
        <ele>2.910</ele>
        <time>2026-08-21T17:36:35Z</time>
      </trkpt>
      <trkpt lat="48.634971" lon="-1.511945">
        <ele>2.947</ele>
        <time>2026-08-21T17:36:38Z</time>
      </trkpt>
      <trkpt lat="48.634973" lon="-1.511929">
        <ele>2.978</ele>
        <time>2026-08-21T17:36:44Z</time>
      </trkpt>
      <trkpt lat="48.634980" lon="-1.511897">
        <ele>2.972</ele>
        <time>2026-08-21T17:36:46Z</time>
      </trkpt>
      <trkpt lat="48.634981" lon="-1.511870">
        <ele>2.919</ele>
        <time>2026-08-21T17:36:48Z</time>
      </trkpt>
      <trkpt lat="48.634981" lon="-1.511848">
        <ele>2.931</ele>
        <time>2026-08-21T17:36:50Z</time>
      </trkpt>
      <trkpt lat="48.634981" lon="-1.511832">
        <ele>2.961</ele>
        <time>2026-08-21T17:36:54Z</time>
      </trkpt>
      <trkpt lat="48.634987" lon="-1.511845">
        <ele>4.007</ele>
        <time>2026-08-21T17:37:27Z</time>
      </trkpt>
      <trkpt lat="48.634987" lon="-1.511830">
        <ele>3.709</ele>
        <time>2026-08-21T17:38:32Z</time>
      </trkpt>
      <trkpt lat="48.634991" lon="-1.511812">
        <ele>3.955</ele>
        <time>2026-08-21T17:38:35Z</time>
      </trkpt>
      <trkpt lat="48.634994" lon="-1.511791">
        <ele>4.031</ele>
        <time>2026-08-21T17:38:38Z</time>
      </trkpt>
      <trkpt lat="48.634996" lon="-1.511775">
        <ele>4.154</ele>
        <time>2026-08-21T17:38:42Z</time>
      </trkpt>
      <trkpt lat="48.635000" lon="-1.511761">
        <ele>4.185</ele>
        <time>2026-08-21T17:38:44Z</time>
      </trkpt>
      <trkpt lat="48.635002" lon="-1.511743">
        <ele>4.498</ele>
        <time>2026-08-21T17:38:45Z</time>
      </trkpt>
      <trkpt lat="48.635004" lon="-1.511729">
        <ele>4.685</ele>
        <time>2026-08-21T17:38:46Z</time>
      </trkpt>
      <trkpt lat="48.635007" lon="-1.511712">
        <ele>4.726</ele>
        <time>2026-08-21T17:38:47Z</time>
      </trkpt>
      <trkpt lat="48.635010" lon="-1.511698">
        <ele>4.860</ele>
        <time>2026-08-21T17:38:48Z</time>
      </trkpt>
      <trkpt lat="48.635008" lon="-1.511683">
        <ele>4.827</ele>
        <time>2026-08-21T17:38:49Z</time>
      </trkpt>
      <trkpt lat="48.635010" lon="-1.511668">
        <ele>4.866</ele>
        <time>2026-08-21T17:38:51Z</time>
      </trkpt>
      <trkpt lat="48.635007" lon="-1.511653">
        <ele>4.929</ele>
        <time>2026-08-21T17:38:55Z</time>
      </trkpt>
      <trkpt lat="48.635001" lon="-1.511641">
        <ele>5.021</ele>
        <time>2026-08-21T17:39:19Z</time>
      </trkpt>
      <trkpt lat="48.635000" lon="-1.511655">
        <ele>5.009</ele>
        <time>2026-08-21T17:39:34Z</time>
      </trkpt>
      <trkpt lat="48.634997" lon="-1.511672">
        <ele>5.058</ele>
        <time>2026-08-21T17:39:37Z</time>
      </trkpt>
      <trkpt lat="48.634994" lon="-1.511691">
        <ele>5.054</ele>
        <time>2026-08-21T17:39:39Z</time>
      </trkpt>
      <trkpt lat="48.634987" lon="-1.511705">
        <ele>5.087</ele>
        <time>2026-08-21T17:39:40Z</time>
      </trkpt>
      <trkpt lat="48.634979" lon="-1.511715">
        <ele>4.968</ele>
        <time>2026-08-21T17:39:41Z</time>
      </trkpt>
      <trkpt lat="48.634970" lon="-1.511725">
        <ele>5.061</ele>
        <time>2026-08-21T17:39:42Z</time>
      </trkpt>
      <trkpt lat="48.634958" lon="-1.511724">
        <ele>5.098</ele>
        <time>2026-08-21T17:39:46Z</time>
      </trkpt>
      <trkpt lat="48.634955" lon="-1.511739">
        <ele>5.059</ele>
        <time>2026-08-21T17:39:50Z</time>
      </trkpt>
      <trkpt lat="48.634944" lon="-1.511768">
        <ele>5.043</ele>
        <time>2026-08-21T17:39:53Z</time>
      </trkpt>
      <trkpt lat="48.634937" lon="-1.511787">
        <ele>5.050</ele>
        <time>2026-08-21T17:39:54Z</time>
      </trkpt>
      <trkpt lat="48.634935" lon="-1.511805">
        <ele>5.016</ele>
        <time>2026-08-21T17:39:55Z</time>
      </trkpt>
      <trkpt lat="48.634935" lon="-1.511822">
        <ele>4.976</ele>
        <time>2026-08-21T17:39:56Z</time>
      </trkpt>
      <trkpt lat="48.634926" lon="-1.511848">
        <ele>5.013</ele>
        <time>2026-08-21T17:39:58Z</time>
      </trkpt>
      <trkpt lat="48.634925" lon="-1.511867">
        <ele>5.009</ele>
        <time>2026-08-21T17:40:00Z</time>
      </trkpt>
      <trkpt lat="48.634927" lon="-1.511887">
        <ele>5.063</ele>
        <time>2026-08-21T17:40:02Z</time>
      </trkpt>
      <trkpt lat="48.634919" lon="-1.511903">
        <ele>5.019</ele>
        <time>2026-08-21T17:40:05Z</time>
      </trkpt>
      <trkpt lat="48.634909" lon="-1.511914">
        <ele>5.072</ele>
        <time>2026-08-21T17:40:07Z</time>
      </trkpt>
      <trkpt lat="48.634904" lon="-1.511929">
        <ele>5.023</ele>
        <time>2026-08-21T17:40:09Z</time>
      </trkpt>
      <trkpt lat="48.634903" lon="-1.511948">
        <ele>5.066</ele>
        <time>2026-08-21T17:40:11Z</time>
      </trkpt>
      <trkpt lat="48.634900" lon="-1.511968">
        <ele>5.083</ele>
        <time>2026-08-21T17:40:13Z</time>
      </trkpt>
      <trkpt lat="48.634907" lon="-1.511987">
        <ele>5.074</ele>
        <time>2026-08-21T17:40:15Z</time>
      </trkpt>
      <trkpt lat="48.634905" lon="-1.511973">
        <ele>3.858</ele>
        <time>2026-08-21T17:40:58Z</time>
      </trkpt>
      <trkpt lat="48.634913" lon="-1.511960">
        <ele>3.855</ele>
        <time>2026-08-21T17:41:10Z</time>
      </trkpt>
      <trkpt lat="48.634906" lon="-1.511969">
        <ele>4.791</ele>
        <time>2026-08-21T17:41:51.999Z</time>
      </trkpt>
      <trkpt lat="48.634907" lon="-1.511983">
        <ele>3.181</ele>
        <time>2026-08-21T17:43:06.999Z</time>
      </trkpt>
      <trkpt lat="48.634910" lon="-1.511970">
        <ele>4.219</ele>
        <time>2026-08-21T17:43:50.999Z</time>
      </trkpt>
      <trkpt lat="48.634905" lon="-1.511982">
        <ele>3.909</ele>
        <time>2026-08-21T17:45:03.999Z</time>
      </trkpt>
      <trkpt lat="48.634899" lon="-1.511972">
        <ele>3.771</ele>
        <time>2026-08-21T17:45:15.999Z</time>
      </trkpt>
      <trkpt lat="48.634886" lon="-1.511974">
        <ele>3.597</ele>
        <time>2026-08-21T17:45:17.999Z</time>
      </trkpt>
      <trkpt lat="48.634896" lon="-1.511968">
        <ele>3.520</ele>
        <time>2026-08-21T17:45:21.999Z</time>
      </trkpt>
      <trkpt lat="48.634905" lon="-1.511970">
        <ele>3.681</ele>
        <time>2026-08-21T17:45:52.999Z</time>
      </trkpt>
      <trkpt lat="48.634914" lon="-1.511969">
        <ele>5.224</ele>
        <time>2026-08-21T17:47:17.999Z</time>
      </trkpt>
      <trkpt lat="48.634917" lon="-1.511984">
        <ele>4.671</ele>
        <time>2026-08-21T17:47:48.999Z</time>
      </trkpt>
      <trkpt lat="48.634911" lon="-1.511973">
        <ele>4.352</ele>
        <time>2026-08-21T17:48:01.999Z</time>
      </trkpt>
      <trkpt lat="48.634919" lon="-1.511967">
        <ele>4.586</ele>
        <time>2026-08-21T17:48:05.999Z</time>
      </trkpt>
      <trkpt lat="48.634910" lon="-1.511975">
        <ele>4.563</ele>
        <time>2026-08-21T17:48:27.999Z</time>
      </trkpt>
      <trkpt lat="48.634919" lon="-1.511992">
        <ele>4.624</ele>
        <time>2026-08-21T17:48:56.999Z</time>
      </trkpt>
      <trkpt lat="48.634928" lon="-1.511986">
        <ele>4.504</ele>
        <time>2026-08-21T17:48:58.999Z</time>
      </trkpt>
      <trkpt lat="48.634927" lon="-1.511972">
        <ele>4.514</ele>
        <time>2026-08-21T17:49:07.999Z</time>
      </trkpt>
      <trkpt lat="48.634932" lon="-1.511983">
        <ele>4.509</ele>
        <time>2026-08-21T17:49:22.999Z</time>
      </trkpt>
      <trkpt lat="48.634926" lon="-1.511996">
        <ele>4.594</ele>
        <time>2026-08-21T17:49:39.999Z</time>
      </trkpt>
      <trkpt lat="48.634925" lon="-1.511979">
        <ele>4.360</ele>
        <time>2026-08-21T17:50:00.999Z</time>
      </trkpt>
      <trkpt lat="48.634930" lon="-1.511991">
        <ele>5.173</ele>
        <time>2026-08-21T17:50:54.999Z</time>
      </trkpt>
      <trkpt lat="48.634920" lon="-1.511983">
        <ele>4.244</ele>
        <time>2026-08-21T17:51:26.999Z</time>
      </trkpt>
      <trkpt lat="48.634909" lon="-1.511979">
        <ele>4.217</ele>
        <time>2026-08-21T17:51:27.999Z</time>
      </trkpt>
      <trkpt lat="48.634899" lon="-1.511984">
        <ele>4.234</ele>
        <time>2026-08-21T17:51:29.999Z</time>
      </trkpt>
      <trkpt lat="48.634908" lon="-1.511982">
        <ele>4.225</ele>
        <time>2026-08-21T17:51:52.999Z</time>
      </trkpt>
      <trkpt lat="48.634919" lon="-1.511985">
        <ele>4.249</ele>
        <time>2026-08-21T17:52:06.999Z</time>
      </trkpt>
      <trkpt lat="48.634927" lon="-1.511990">
        <ele>4.286</ele>
        <time>2026-08-21T17:52:26.999Z</time>
      </trkpt>
      <trkpt lat="48.634921" lon="-1.511978">
        <ele>4.723</ele>
        <time>2026-08-21T17:53:11.999Z</time>
      </trkpt>
      <trkpt lat="48.634911" lon="-1.511982">
        <ele>4.583</ele>
        <time>2026-08-21T17:53:20.999Z</time>
      </trkpt>
      <trkpt lat="48.634902" lon="-1.511981">
        <ele>4.311</ele>
        <time>2026-08-21T17:53:39.999Z</time>
      </trkpt>
      <trkpt lat="48.634909" lon="-1.511968">
        <ele>3.609</ele>
        <time>2026-08-21T17:54:24.999Z</time>
      </trkpt>
      <trkpt lat="48.634913" lon="-1.511949">
        <ele>3.734</ele>
        <time>2026-08-21T17:54:25.999Z</time>
      </trkpt>
      <trkpt lat="48.634913" lon="-1.511933">
        <ele>3.880</ele>
        <time>2026-08-21T17:54:26.999Z</time>
      </trkpt>
      <trkpt lat="48.634925" lon="-1.511909">
        <ele>3.933</ele>
        <time>2026-08-21T17:54:28.999Z</time>
      </trkpt>
      <trkpt lat="48.634928" lon="-1.511894">
        <ele>4.084</ele>
        <time>2026-08-21T17:54:29.999Z</time>
      </trkpt>
      <trkpt lat="48.634933" lon="-1.511872">
        <ele>4.347</ele>
        <time>2026-08-21T17:54:31.999Z</time>
      </trkpt>
      <trkpt lat="48.634939" lon="-1.511858">
        <ele>4.564</ele>
        <time>2026-08-21T17:54:33.999Z</time>
      </trkpt>
      <trkpt lat="48.634938" lon="-1.511844">
        <ele>4.565</ele>
        <time>2026-08-21T17:54:35.999Z</time>
      </trkpt>
      <trkpt lat="48.634937" lon="-1.511822">
        <ele>4.679</ele>
        <time>2026-08-21T17:54:37.999Z</time>
      </trkpt>
      <trkpt lat="48.634936" lon="-1.511803">
        <ele>4.626</ele>
        <time>2026-08-21T17:54:39.999Z</time>
      </trkpt>
      <trkpt lat="48.634934" lon="-1.511783">
        <ele>4.623</ele>
        <time>2026-08-21T17:54:41.999Z</time>
      </trkpt>
      <trkpt lat="48.634935" lon="-1.511767">
        <ele>4.683</ele>
        <time>2026-08-21T17:54:43.999Z</time>
      </trkpt>
      <trkpt lat="48.634929" lon="-1.511755">
        <ele>4.711</ele>
        <time>2026-08-21T17:54:45.999Z</time>
      </trkpt>
      <trkpt lat="48.634928" lon="-1.511739">
        <ele>4.709</ele>
        <time>2026-08-21T17:54:47.999Z</time>
      </trkpt>
      <trkpt lat="48.634927" lon="-1.511717">
        <ele>4.754</ele>
        <time>2026-08-21T17:54:49.999Z</time>
      </trkpt>
      <trkpt lat="48.634924" lon="-1.511698">
        <ele>4.720</ele>
        <time>2026-08-21T17:54:51.999Z</time>
      </trkpt>
      <trkpt lat="48.634921" lon="-1.511684">
        <ele>4.723</ele>
        <time>2026-08-21T17:54:54.999Z</time>
      </trkpt>
      <trkpt lat="48.634921" lon="-1.511670">
        <ele>4.854</ele>
        <time>2026-08-21T17:54:56.999Z</time>
      </trkpt>
      <trkpt lat="48.634923" lon="-1.511653">
        <ele>4.857</ele>
        <time>2026-08-21T17:54:58.999Z</time>
      </trkpt>
      <trkpt lat="48.634927" lon="-1.511637">
        <ele>4.944</ele>
        <time>2026-08-21T17:55:00.999Z</time>
      </trkpt>
      <trkpt lat="48.634929" lon="-1.511621">
        <ele>5.045</ele>
        <time>2026-08-21T17:55:01.999Z</time>
      </trkpt>
      <trkpt lat="48.634928" lon="-1.511593">
        <ele>5.269</ele>
        <time>2026-08-21T17:55:03.999Z</time>
      </trkpt>
      <trkpt lat="48.634930" lon="-1.511574">
        <ele>5.566</ele>
        <time>2026-08-21T17:55:05.999Z</time>
      </trkpt>
      <trkpt lat="48.634933" lon="-1.511558">
        <ele>5.518</ele>
        <time>2026-08-21T17:55:07.999Z</time>
      </trkpt>
      <trkpt lat="48.634936" lon="-1.511543">
        <ele>5.598</ele>
        <time>2026-08-21T17:55:09.999Z</time>
      </trkpt>
      <trkpt lat="48.634927" lon="-1.511528">
        <ele>5.617</ele>
        <time>2026-08-21T17:55:11.999Z</time>
      </trkpt>
      <trkpt lat="48.634919" lon="-1.511518">
        <ele>5.809</ele>
        <time>2026-08-21T17:55:15.999Z</time>
      </trkpt>
      <trkpt lat="48.634918" lon="-1.511503">
        <ele>5.953</ele>
        <time>2026-08-21T17:55:18.999Z</time>
      </trkpt>
      <trkpt lat="48.634924" lon="-1.511514">
        <ele>6.919</ele>
        <time>2026-08-21T17:55:51.999Z</time>
      </trkpt>
      <trkpt lat="48.634932" lon="-1.511522">
        <ele>7.242</ele>
        <time>2026-08-21T17:55:59.999Z</time>
      </trkpt>
      <trkpt lat="48.634942" lon="-1.511523">
        <ele>7.013</ele>
        <time>2026-08-21T17:56:31.999Z</time>
      </trkpt>
      <trkpt lat="48.634944" lon="-1.511509">
        <ele>6.696</ele>
        <time>2026-08-21T17:56:41.999Z</time>
      </trkpt>
      <trkpt lat="48.634938" lon="-1.511492">
        <ele>6.653</ele>
        <time>2026-08-21T17:56:44.999Z</time>
      </trkpt>
      <trkpt lat="48.634931" lon="-1.511478">
        <ele>6.694</ele>
        <time>2026-08-21T17:56:46.999Z</time>
      </trkpt>
      <trkpt lat="48.634919" lon="-1.511467">
        <ele>6.628</ele>
        <time>2026-08-21T17:56:51.999Z</time>
      </trkpt>
      <trkpt lat="48.634910" lon="-1.511450">
        <ele>6.455</ele>
        <time>2026-08-21T17:56:53.999Z</time>
      </trkpt>
      <trkpt lat="48.634893" lon="-1.511434">
        <ele>6.242</ele>
        <time>2026-08-21T17:56:55.999Z</time>
      </trkpt>
      <trkpt lat="48.634883" lon="-1.511419">
        <ele>6.122</ele>
        <time>2026-08-21T17:56:59.999Z</time>
      </trkpt>
      <trkpt lat="48.634882" lon="-1.511398">
        <ele>6.214</ele>
        <time>2026-08-21T17:57:01.999Z</time>
      </trkpt>
      <trkpt lat="48.634878" lon="-1.511384">
        <ele>6.109</ele>
        <time>2026-08-21T17:57:02.999Z</time>
      </trkpt>
      <trkpt lat="48.634872" lon="-1.511370">
        <ele>6.096</ele>
        <time>2026-08-21T17:57:04.999Z</time>
      </trkpt>
      <trkpt lat="48.634866" lon="-1.511357">
        <ele>6.192</ele>
        <time>2026-08-21T17:57:06.999Z</time>
      </trkpt>
      <trkpt lat="48.634863" lon="-1.511343">
        <ele>6.155</ele>
        <time>2026-08-21T17:57:08.999Z</time>
      </trkpt>
      <trkpt lat="48.634857" lon="-1.511323">
        <ele>6.136</ele>
        <time>2026-08-21T17:57:10.999Z</time>
      </trkpt>
      <trkpt lat="48.634850" lon="-1.511309">
        <ele>6.099</ele>
        <time>2026-08-21T17:57:12.999Z</time>
      </trkpt>
      <trkpt lat="48.634848" lon="-1.511293">
        <ele>6.096</ele>
        <time>2026-08-21T17:57:14.999Z</time>
      </trkpt>
      <trkpt lat="48.634854" lon="-1.511304">
        <ele>6.017</ele>
        <time>2026-08-21T17:57:42.999Z</time>
      </trkpt>
      <trkpt lat="48.634861" lon="-1.511295">
        <ele>6.041</ele>
        <time>2026-08-21T17:57:56.999Z</time>
      </trkpt>
      <trkpt lat="48.634859" lon="-1.511280">
        <ele>6.018</ele>
        <time>2026-08-21T17:58:06.999Z</time>
      </trkpt>
      <trkpt lat="48.634856" lon="-1.511266">
        <ele>6.186</ele>
        <time>2026-08-21T17:58:15.999Z</time>
      </trkpt>
      <trkpt lat="48.634848" lon="-1.511251">
        <ele>6.160</ele>
        <time>2026-08-21T17:58:17.999Z</time>
      </trkpt>
      <trkpt lat="48.634836" lon="-1.511237">
        <ele>6.126</ele>
        <time>2026-08-21T17:58:19.999Z</time>
      </trkpt>
      <trkpt lat="48.634832" lon="-1.511223">
        <ele>6.209</ele>
        <time>2026-08-21T17:58:23.999Z</time>
      </trkpt>
      <trkpt lat="48.634828" lon="-1.511210">
        <ele>6.260</ele>
        <time>2026-08-21T17:58:26.999Z</time>
      </trkpt>
      <trkpt lat="48.634824" lon="-1.511197">
        <ele>6.276</ele>
        <time>2026-08-21T17:58:32.999Z</time>
      </trkpt>
      <trkpt lat="48.634818" lon="-1.511186">
        <ele>6.229</ele>
        <time>2026-08-21T17:58:38.999Z</time>
      </trkpt>
      <trkpt lat="48.634812" lon="-1.511176">
        <ele>6.270</ele>
        <time>2026-08-21T17:58:51.999Z</time>
      </trkpt>
      <trkpt lat="48.634816" lon="-1.511161">
        <ele>6.343</ele>
        <time>2026-08-21T17:59:05.999Z</time>
      </trkpt>
      <trkpt lat="48.634821" lon="-1.511137">
        <ele>6.380</ele>
        <time>2026-08-21T17:59:07.999Z</time>
      </trkpt>
      <trkpt lat="48.634825" lon="-1.511123">
        <ele>6.371</ele>
        <time>2026-08-21T17:59:08.999Z</time>
      </trkpt>
      <trkpt lat="48.634831" lon="-1.511107">
        <ele>6.385</ele>
        <time>2026-08-21T17:59:10.999Z</time>
      </trkpt>
      <trkpt lat="48.634840" lon="-1.511083">
        <ele>6.352</ele>
        <time>2026-08-21T17:59:18.999Z</time>
      </trkpt>
      <trkpt lat="48.634850" lon="-1.511070">
        <ele>6.233</ele>
        <time>2026-08-21T17:59:19.999Z</time>
      </trkpt>
      <trkpt lat="48.634860" lon="-1.511060">
        <ele>6.223</ele>
        <time>2026-08-21T17:59:20.999Z</time>
      </trkpt>
      <trkpt lat="48.634874" lon="-1.511046">
        <ele>6.215</ele>
        <time>2026-08-21T17:59:22.999Z</time>
      </trkpt>
      <trkpt lat="48.634881" lon="-1.511028">
        <ele>6.209</ele>
        <time>2026-08-21T17:59:24.999Z</time>
      </trkpt>
      <trkpt lat="48.634889" lon="-1.511005">
        <ele>6.285</ele>
        <time>2026-08-21T17:59:26.999Z</time>
      </trkpt>
      <trkpt lat="48.634904" lon="-1.510983">
        <ele>6.261</ele>
        <time>2026-08-21T17:59:28.999Z</time>
      </trkpt>
      <trkpt lat="48.634906" lon="-1.510959">
        <ele>6.214</ele>
        <time>2026-08-21T17:59:30.999Z</time>
      </trkpt>
      <trkpt lat="48.634912" lon="-1.510942">
        <ele>6.335</ele>
        <time>2026-08-21T17:59:32.999Z</time>
      </trkpt>
      <trkpt lat="48.634904" lon="-1.510930">
        <ele>6.468</ele>
        <time>2026-08-21T17:59:34.999Z</time>
      </trkpt>
      <trkpt lat="48.634893" lon="-1.510938">
        <ele>6.435</ele>
        <time>2026-08-21T17:59:36.999Z</time>
      </trkpt>
      <trkpt lat="48.634900" lon="-1.510923">
        <ele>6.586</ele>
        <time>2026-08-21T17:59:41.999Z</time>
      </trkpt>
      <trkpt lat="48.634905" lon="-1.510900">
        <ele>6.610</ele>
        <time>2026-08-21T17:59:43.999Z</time>
      </trkpt>
      <trkpt lat="48.634918" lon="-1.510894">
        <ele>6.727</ele>
        <time>2026-08-21T17:59:44.999Z</time>
      </trkpt>
      <trkpt lat="48.634928" lon="-1.510885">
        <ele>6.789</ele>
        <time>2026-08-21T17:59:45.999Z</time>
      </trkpt>
      <trkpt lat="48.634943" lon="-1.510877">
        <ele>6.706</ele>
        <time>2026-08-21T17:59:46.999Z</time>
      </trkpt>
      <trkpt lat="48.634952" lon="-1.510864">
        <ele>6.726</ele>
        <time>2026-08-21T17:59:47.999Z</time>
      </trkpt>
      <trkpt lat="48.634957" lon="-1.510850">
        <ele>6.709</ele>
        <time>2026-08-21T17:59:48.999Z</time>
      </trkpt>
      <trkpt lat="48.634960" lon="-1.510835">
        <ele>6.720</ele>
        <time>2026-08-21T17:59:50.999Z</time>
      </trkpt>
      <trkpt lat="48.634963" lon="-1.510817">
        <ele>6.756</ele>
        <time>2026-08-21T17:59:52.999Z</time>
      </trkpt>
      <trkpt lat="48.634961" lon="-1.510795">
        <ele>6.759</ele>
        <time>2026-08-21T17:59:54.999Z</time>
      </trkpt>
      <trkpt lat="48.634959" lon="-1.510776">
        <ele>6.710</ele>
        <time>2026-08-21T17:59:55.999Z</time>
      </trkpt>
      <trkpt lat="48.634957" lon="-1.510760">
        <ele>6.773</ele>
        <time>2026-08-21T17:59:56.999Z</time>
      </trkpt>
      <trkpt lat="48.634956" lon="-1.510744">
        <ele>6.780</ele>
        <time>2026-08-21T17:59:57.999Z</time>
      </trkpt>
      <trkpt lat="48.634951" lon="-1.510727">
        <ele>6.791</ele>
        <time>2026-08-21T17:59:58.999Z</time>
      </trkpt>
      <trkpt lat="48.634947" lon="-1.510709">
        <ele>6.775</ele>
        <time>2026-08-21T17:59:59.999Z</time>
      </trkpt>
      <trkpt lat="48.634945" lon="-1.510687">
        <ele>6.772</ele>
        <time>2026-08-21T18:00:01.999Z</time>
      </trkpt>
      <trkpt lat="48.634945" lon="-1.510673">
        <ele>6.741</ele>
        <time>2026-08-21T18:00:02.999Z</time>
      </trkpt>
      <trkpt lat="48.634946" lon="-1.510656">
        <ele>6.781</ele>
        <time>2026-08-21T18:00:03.999Z</time>
      </trkpt>
      <trkpt lat="48.634945" lon="-1.510642">
        <ele>6.709</ele>
        <time>2026-08-21T18:00:04.999Z</time>
      </trkpt>
      <trkpt lat="48.634945" lon="-1.510616">
        <ele>6.709</ele>
        <time>2026-08-21T18:00:06.999Z</time>
      </trkpt>
      <trkpt lat="48.634946" lon="-1.510600">
        <ele>6.726</ele>
        <time>2026-08-21T18:00:07.999Z</time>
      </trkpt>
      <trkpt lat="48.634945" lon="-1.510586">
        <ele>6.712</ele>
        <time>2026-08-21T18:00:08.999Z</time>
      </trkpt>
      <trkpt lat="48.634938" lon="-1.510560">
        <ele>6.735</ele>
        <time>2026-08-21T18:00:10.999Z</time>
      </trkpt>
      <trkpt lat="48.634934" lon="-1.510546">
        <ele>6.736</ele>
        <time>2026-08-21T18:00:11.999Z</time>
      </trkpt>
      <trkpt lat="48.634930" lon="-1.510525">
        <ele>6.739</ele>
        <time>2026-08-21T18:00:13.999Z</time>
      </trkpt>
      <trkpt lat="48.634932" lon="-1.510500">
        <ele>6.776</ele>
        <time>2026-08-21T18:00:15.999Z</time>
      </trkpt>
      <trkpt lat="48.634931" lon="-1.510476">
        <ele>6.787</ele>
        <time>2026-08-21T18:00:17.999Z</time>
      </trkpt>
      <trkpt lat="48.634933" lon="-1.510448">
        <ele>6.771</ele>
        <time>2026-08-21T18:00:19.999Z</time>
      </trkpt>
      <trkpt lat="48.634935" lon="-1.510434">
        <ele>6.738</ele>
        <time>2026-08-21T18:00:20.999Z</time>
      </trkpt>
      <trkpt lat="48.634942" lon="-1.510411">
        <ele>6.656</ele>
        <time>2026-08-21T18:00:22.999Z</time>
      </trkpt>
      <trkpt lat="48.634944" lon="-1.510389">
        <ele>6.359</ele>
        <time>2026-08-21T18:00:24.999Z</time>
      </trkpt>
      <trkpt lat="48.634946" lon="-1.510368">
        <ele>6.214</ele>
        <time>2026-08-21T18:00:26.999Z</time>
      </trkpt>
      <trkpt lat="48.634949" lon="-1.510344">
        <ele>6.209</ele>
        <time>2026-08-21T18:00:28.999Z</time>
      </trkpt>
      <trkpt lat="48.634939" lon="-1.510343">
        <ele>6.287</ele>
        <time>2026-08-21T18:00:31.999Z</time>
      </trkpt>
      <trkpt lat="48.634948" lon="-1.510330">
        <ele>6.283</ele>
        <time>2026-08-21T18:00:48.999Z</time>
      </trkpt>
      <trkpt lat="48.634951" lon="-1.510317">
        <ele>6.196</ele>
        <time>2026-08-21T18:00:49.999Z</time>
      </trkpt>
      <trkpt lat="48.634950" lon="-1.510300">
        <ele>6.197</ele>
        <time>2026-08-21T18:00:51.999Z</time>
      </trkpt>
      <trkpt lat="48.634951" lon="-1.510276">
        <ele>6.010</ele>
        <time>2026-08-21T18:01:03.999Z</time>
      </trkpt>
      <trkpt lat="48.634953" lon="-1.510255">
        <ele>6.037</ele>
        <time>2026-08-21T18:01:04.999Z</time>
      </trkpt>
      <trkpt lat="48.634954" lon="-1.510234">
        <ele>6.028</ele>
        <time>2026-08-21T18:01:05.999Z</time>
      </trkpt>
      <trkpt lat="48.634958" lon="-1.510220">
        <ele>5.932</ele>
        <time>2026-08-21T18:01:06.999Z</time>
      </trkpt>
      <trkpt lat="48.634960" lon="-1.510205">
        <ele>5.989</ele>
        <time>2026-08-21T18:01:07.999Z</time>
      </trkpt>
      <trkpt lat="48.634963" lon="-1.510190">
        <ele>5.864</ele>
        <time>2026-08-21T18:01:08.999Z</time>
      </trkpt>
      <trkpt lat="48.634969" lon="-1.510162">
        <ele>5.806</ele>
        <time>2026-08-21T18:01:10.999Z</time>
      </trkpt>
      <trkpt lat="48.634975" lon="-1.510143">
        <ele>5.716</ele>
        <time>2026-08-21T18:01:11.999Z</time>
      </trkpt>
      <trkpt lat="48.634980" lon="-1.510130">
        <ele>5.609</ele>
        <time>2026-08-21T18:01:12.999Z</time>
      </trkpt>
      <trkpt lat="48.634984" lon="-1.510117">
        <ele>5.528</ele>
        <time>2026-08-21T18:01:14.999Z</time>
      </trkpt>
      <trkpt lat="48.634987" lon="-1.510103">
        <ele>5.534</ele>
        <time>2026-08-21T18:01:15.999Z</time>
      </trkpt>
      <trkpt lat="48.634991" lon="-1.510081">
        <ele>5.417</ele>
        <time>2026-08-21T18:01:17.999Z</time>
      </trkpt>
      <trkpt lat="48.634995" lon="-1.510060">
        <ele>5.378</ele>
        <time>2026-08-21T18:01:19.999Z</time>
      </trkpt>
      <trkpt lat="48.635002" lon="-1.510036">
        <ele>5.291</ele>
        <time>2026-08-21T18:01:21.999Z</time>
      </trkpt>
      <trkpt lat="48.635008" lon="-1.510024">
        <ele>4.938</ele>
        <time>2026-08-21T18:01:22.999Z</time>
      </trkpt>
      <trkpt lat="48.635015" lon="-1.510004">
        <ele>4.729</ele>
        <time>2026-08-21T18:01:24.999Z</time>
      </trkpt>
      <trkpt lat="48.635024" lon="-1.509995">
        <ele>4.653</ele>
        <time>2026-08-21T18:01:25.999Z</time>
      </trkpt>
      <trkpt lat="48.635030" lon="-1.509985">
        <ele>4.590</ele>
        <time>2026-08-21T18:01:26.999Z</time>
      </trkpt>
      <trkpt lat="48.635040" lon="-1.509968">
        <ele>4.553</ele>
        <time>2026-08-21T18:01:28.999Z</time>
      </trkpt>
      <trkpt lat="48.635048" lon="-1.509961">
        <ele>4.504</ele>
        <time>2026-08-21T18:01:29.999Z</time>
      </trkpt>
      <trkpt lat="48.635059" lon="-1.509948">
        <ele>4.514</ele>
        <time>2026-08-21T18:01:30.999Z</time>
      </trkpt>
      <trkpt lat="48.635073" lon="-1.509937">
        <ele>4.509</ele>
        <time>2026-08-21T18:01:32.999Z</time>
      </trkpt>
      <trkpt lat="48.635082" lon="-1.509924">
        <ele>4.567</ele>
        <time>2026-08-21T18:01:34.999Z</time>
      </trkpt>
      <trkpt lat="48.635084" lon="-1.509898">
        <ele>4.583</ele>
        <time>2026-08-21T18:01:36.999Z</time>
      </trkpt>
      <trkpt lat="48.635079" lon="-1.509881">
        <ele>4.596</ele>
        <time>2026-08-21T18:01:38.999Z</time>
      </trkpt>
      <trkpt lat="48.635081" lon="-1.509862">
        <ele>4.487</ele>
        <time>2026-08-21T18:01:52.999Z</time>
      </trkpt>
      <trkpt lat="48.635074" lon="-1.509846">
        <ele>4.330</ele>
        <time>2026-08-21T18:01:54.999Z</time>
      </trkpt>
      <trkpt lat="48.635082" lon="-1.509834">
        <ele>4.337</ele>
        <time>2026-08-21T18:02:13.999Z</time>
      </trkpt>
      <trkpt lat="48.635085" lon="-1.509817">
        <ele>4.318</ele>
        <time>2026-08-21T18:02:16.999Z</time>
      </trkpt>
      <trkpt lat="48.635091" lon="-1.509799">
        <ele>4.362</ele>
        <time>2026-08-21T18:02:18.999Z</time>
      </trkpt>
      <trkpt lat="48.635104" lon="-1.509769">
        <ele>4.369</ele>
        <time>2026-08-21T18:02:20.999Z</time>
      </trkpt>
      <trkpt lat="48.635107" lon="-1.509754">
        <ele>4.315</ele>
        <time>2026-08-21T18:02:21.999Z</time>
      </trkpt>
      <trkpt lat="48.635112" lon="-1.509742">
        <ele>4.365</ele>
        <time>2026-08-21T18:02:22.999Z</time>
      </trkpt>
      <trkpt lat="48.635122" lon="-1.509729">
        <ele>4.311</ele>
        <time>2026-08-21T18:02:24.999Z</time>
      </trkpt>
      <trkpt lat="48.635128" lon="-1.509716">
        <ele>4.309</ele>
        <time>2026-08-21T18:02:26.999Z</time>
      </trkpt>
      <trkpt lat="48.635143" lon="-1.509703">
        <ele>4.383</ele>
        <time>2026-08-21T18:02:28.999Z</time>
      </trkpt>
      <trkpt lat="48.635151" lon="-1.509695">
        <ele>4.319</ele>
        <time>2026-08-21T18:02:29.999Z</time>
      </trkpt>
      <trkpt lat="48.635165" lon="-1.509688">
        <ele>4.352</ele>
        <time>2026-08-21T18:02:31.999Z</time>
      </trkpt>
      <trkpt lat="48.635179" lon="-1.509676">
        <ele>4.353</ele>
        <time>2026-08-21T18:02:33.999Z</time>
      </trkpt>
      <trkpt lat="48.635195" lon="-1.509667">
        <ele>4.366</ele>
        <time>2026-08-21T18:02:35.999Z</time>
      </trkpt>
      <trkpt lat="48.635209" lon="-1.509649">
        <ele>4.383</ele>
        <time>2026-08-21T18:02:37.999Z</time>
      </trkpt>
      <trkpt lat="48.635218" lon="-1.509635">
        <ele>4.314</ele>
        <time>2026-08-21T18:02:39.999Z</time>
      </trkpt>
      <trkpt lat="48.635232" lon="-1.509619">
        <ele>4.458</ele>
        <time>2026-08-21T18:02:41.999Z</time>
      </trkpt>
      <trkpt lat="48.635242" lon="-1.509612">
        <ele>4.475</ele>
        <time>2026-08-21T18:02:42.999Z</time>
      </trkpt>
      <trkpt lat="48.635253" lon="-1.509605">
        <ele>4.698</ele>
        <time>2026-08-21T18:02:44.999Z</time>
      </trkpt>
      <trkpt lat="48.635269" lon="-1.509594">
        <ele>4.915</ele>
        <time>2026-08-21T18:02:46.999Z</time>
      </trkpt>
      <trkpt lat="48.635285" lon="-1.509586">
        <ele>5.126</ele>
        <time>2026-08-21T18:02:48.999Z</time>
      </trkpt>
      <trkpt lat="48.635298" lon="-1.509571">
        <ele>5.209</ele>
        <time>2026-08-21T18:02:50.999Z</time>
      </trkpt>
      <trkpt lat="48.635310" lon="-1.509554">
        <ele>5.451</ele>
        <time>2026-08-21T18:02:52.999Z</time>
      </trkpt>
      <trkpt lat="48.635315" lon="-1.509538">
        <ele>5.427</ele>
        <time>2026-08-21T18:02:54.999Z</time>
      </trkpt>
      <trkpt lat="48.635307" lon="-1.509524">
        <ele>5.420</ele>
        <time>2026-08-21T18:02:56.999Z</time>
      </trkpt>
      <trkpt lat="48.635300" lon="-1.509514">
        <ele>5.441</ele>
        <time>2026-08-21T18:03:24.999Z</time>
      </trkpt>
      <trkpt lat="48.635289" lon="-1.509512">
        <ele>5.294</ele>
        <time>2026-08-21T18:03:34.999Z</time>
      </trkpt>
      <trkpt lat="48.635290" lon="-1.509526">
        <ele>4.891</ele>
        <time>2026-08-21T18:03:41.999Z</time>
      </trkpt>
      <trkpt lat="48.635297" lon="-1.509518">
        <ele>4.322</ele>
        <time>2026-08-21T18:03:46.999Z</time>
      </trkpt>
      <trkpt lat="48.635292" lon="-1.509531">
        <ele>4.776</ele>
        <time>2026-08-21T18:04:11.999Z</time>
      </trkpt>
      <trkpt lat="48.635298" lon="-1.509519">
        <ele>4.683</ele>
        <time>2026-08-21T18:04:59.999Z</time>
      </trkpt>
      <trkpt lat="48.635308" lon="-1.509506">
        <ele>4.617</ele>
        <time>2026-08-21T18:05:01.999Z</time>
      </trkpt>
      <trkpt lat="48.635317" lon="-1.509496">
        <ele>4.687</ele>
        <time>2026-08-21T18:05:02.999Z</time>
      </trkpt>
      <trkpt lat="48.635325" lon="-1.509489">
        <ele>4.615</ele>
        <time>2026-08-21T18:05:03.999Z</time>
      </trkpt>
      <trkpt lat="48.635335" lon="-1.509475">
        <ele>4.709</ele>
        <time>2026-08-21T18:05:05.999Z</time>
      </trkpt>
      <trkpt lat="48.635345" lon="-1.509464">
        <ele>4.783</ele>
        <time>2026-08-21T18:05:08.999Z</time>
      </trkpt>
      <trkpt lat="48.635356" lon="-1.509454">
        <ele>4.719</ele>
        <time>2026-08-21T18:05:14.999Z</time>
      </trkpt>
      <trkpt lat="48.635366" lon="-1.509449">
        <ele>4.722</ele>
        <time>2026-08-21T18:05:15.999Z</time>
      </trkpt>
      <trkpt lat="48.635382" lon="-1.509445">
        <ele>4.783</ele>
        <time>2026-08-21T18:05:17.999Z</time>
      </trkpt>
      <trkpt lat="48.635398" lon="-1.509438">
        <ele>4.816</ele>
        <time>2026-08-21T18:05:19.999Z</time>
      </trkpt>
      <trkpt lat="48.635410" lon="-1.509437">
        <ele>4.823</ele>
        <time>2026-08-21T18:05:21.999Z</time>
      </trkpt>
      <trkpt lat="48.635417" lon="-1.509426">
        <ele>4.884</ele>
        <time>2026-08-21T18:05:23.999Z</time>
      </trkpt>
      <trkpt lat="48.635424" lon="-1.509415">
        <ele>4.988</ele>
        <time>2026-08-21T18:05:25.999Z</time>
      </trkpt>
      <trkpt lat="48.635437" lon="-1.509406">
        <ele>4.955</ele>
        <time>2026-08-21T18:05:27.999Z</time>
      </trkpt>
      <trkpt lat="48.635450" lon="-1.509397">
        <ele>4.932</ele>
        <time>2026-08-21T18:05:29.999Z</time>
      </trkpt>
      <trkpt lat="48.635459" lon="-1.509394">
        <ele>4.292</ele>
        <time>2026-08-21T18:06:21.999Z</time>
      </trkpt>
      <trkpt lat="48.635467" lon="-1.509386">
        <ele>4.011</ele>
        <time>2026-08-21T18:06:25.999Z</time>
      </trkpt>
      <trkpt lat="48.635478" lon="-1.509381">
        <ele>3.809</ele>
        <time>2026-08-21T18:06:27.999Z</time>
      </trkpt>
      <trkpt lat="48.635491" lon="-1.509371">
        <ele>3.865</ele>
        <time>2026-08-21T18:06:28.999Z</time>
      </trkpt>
      <trkpt lat="48.635499" lon="-1.509360">
        <ele>3.731</ele>
        <time>2026-08-21T18:06:29.999Z</time>
      </trkpt>
      <trkpt lat="48.635509" lon="-1.509348">
        <ele>3.734</ele>
        <time>2026-08-21T18:06:30.999Z</time>
      </trkpt>
      <trkpt lat="48.635523" lon="-1.509343">
        <ele>3.785</ele>
        <time>2026-08-21T18:06:32.999Z</time>
      </trkpt>
      <trkpt lat="48.635532" lon="-1.509345">
        <ele>3.618</ele>
        <time>2026-08-21T18:06:33.999Z</time>
      </trkpt>
      <trkpt lat="48.635549" lon="-1.509340">
        <ele>3.745</ele>
        <time>2026-08-21T18:06:35.999Z</time>
      </trkpt>
      <trkpt lat="48.635567" lon="-1.509328">
        <ele>3.766</ele>
        <time>2026-08-21T18:06:37.999Z</time>
      </trkpt>
      <trkpt lat="48.635581" lon="-1.509314">
        <ele>3.780</ele>
        <time>2026-08-21T18:06:39.999Z</time>
      </trkpt>
      <trkpt lat="48.635595" lon="-1.509301">
        <ele>3.827</ele>
        <time>2026-08-21T18:06:41.999Z</time>
      </trkpt>
      <trkpt lat="48.635605" lon="-1.509284">
        <ele>3.872</ele>
        <time>2026-08-21T18:06:43.999Z</time>
      </trkpt>
      <trkpt lat="48.635617" lon="-1.509275">
        <ele>3.813</ele>
        <time>2026-08-21T18:06:45.999Z</time>
      </trkpt>
      <trkpt lat="48.635628" lon="-1.509277">
        <ele>3.814</ele>
        <time>2026-08-21T18:06:47.999Z</time>
      </trkpt>
      <trkpt lat="48.635639" lon="-1.509274">
        <ele>4.009</ele>
        <time>2026-08-21T18:06:49.999Z</time>
      </trkpt>
      <trkpt lat="48.635649" lon="-1.509266">
        <ele>4.299</ele>
        <time>2026-08-21T18:06:51.999Z</time>
      </trkpt>
      <trkpt lat="48.635659" lon="-1.509261">
        <ele>4.135</ele>
        <time>2026-08-21T18:06:53.999Z</time>
      </trkpt>
      <trkpt lat="48.635674" lon="-1.509261">
        <ele>4.118</ele>
        <time>2026-08-21T18:06:55.999Z</time>
      </trkpt>
      <trkpt lat="48.635686" lon="-1.509254">
        <ele>4.069</ele>
        <time>2026-08-21T18:06:57.999Z</time>
      </trkpt>
      <trkpt lat="48.635698" lon="-1.509243">
        <ele>4.092</ele>
        <time>2026-08-21T18:06:59.999Z</time>
      </trkpt>
      <trkpt lat="48.635711" lon="-1.509238">
        <ele>4.079</ele>
        <time>2026-08-21T18:07:01.999Z</time>
      </trkpt>
      <trkpt lat="48.635729" lon="-1.509233">
        <ele>4.050</ele>
        <time>2026-08-21T18:07:04.999Z</time>
      </trkpt>
      <trkpt lat="48.635742" lon="-1.509229">
        <ele>4.014</ele>
        <time>2026-08-21T18:07:06.999Z</time>
      </trkpt>
      <trkpt lat="48.635756" lon="-1.509228">
        <ele>4.191</ele>
        <time>2026-08-21T18:07:08.999Z</time>
      </trkpt>
      <trkpt lat="48.635767" lon="-1.509230">
        <ele>4.183</ele>
        <time>2026-08-21T18:07:10.999Z</time>
      </trkpt>
      <trkpt lat="48.635775" lon="-1.509221">
        <ele>4.225</ele>
        <time>2026-08-21T18:07:18.999Z</time>
      </trkpt>
      <trkpt lat="48.635783" lon="-1.509218">
        <ele>4.717</ele>
        <time>2026-08-21T18:09:10.999Z</time>
      </trkpt>
      <trkpt lat="48.635775" lon="-1.509227">
        <ele>4.909</ele>
        <time>2026-08-21T18:09:54.999Z</time>
      </trkpt>
      <trkpt lat="48.635785" lon="-1.509221">
        <ele>4.820</ele>
        <time>2026-08-21T18:10:29.999Z</time>
      </trkpt>
      <trkpt lat="48.635790" lon="-1.509210">
        <ele>4.156</ele>
        <time>2026-08-21T18:11:37.999Z</time>
      </trkpt>
      <trkpt lat="48.635796" lon="-1.509199">
        <ele>4.269</ele>
        <time>2026-08-21T18:12:28.999Z</time>
      </trkpt>
      <trkpt lat="48.635805" lon="-1.509198">
        <ele>4.560</ele>
        <time>2026-08-21T18:13:51.999Z</time>
      </trkpt>
      <trkpt lat="48.635798" lon="-1.509191">
        <ele>2.423</ele>
        <time>2026-08-21T18:16:59.999Z</time>
      </trkpt>
      <trkpt lat="48.635806" lon="-1.509196">
        <ele>1.140</ele>
        <time>2026-08-21T18:18:01.999Z</time>
      </trkpt>
      <trkpt lat="48.635818" lon="-1.509187">
        <ele>3.281</ele>
        <time>2026-08-21T18:19:08.999Z</time>
      </trkpt>
      <trkpt lat="48.635827" lon="-1.509171">
        <ele>3.475</ele>
        <time>2026-08-21T18:19:10.999Z</time>
      </trkpt>
      <trkpt lat="48.635834" lon="-1.509162">
        <ele>3.592</ele>
        <time>2026-08-21T18:19:11.999Z</time>
      </trkpt>
      <trkpt lat="48.635840" lon="-1.509147">
        <ele>3.654</ele>
        <time>2026-08-21T18:19:12.999Z</time>
      </trkpt>
      <trkpt lat="48.635846" lon="-1.509135">
        <ele>3.656</ele>
        <time>2026-08-21T18:19:13.999Z</time>
      </trkpt>
      <trkpt lat="48.635855" lon="-1.509124">
        <ele>3.711</ele>
        <time>2026-08-21T18:19:14.999Z</time>
      </trkpt>
      <trkpt lat="48.635864" lon="-1.509113">
        <ele>3.709</ele>
        <time>2026-08-21T18:19:15.999Z</time>
      </trkpt>
      <trkpt lat="48.635873" lon="-1.509105">
        <ele>3.867</ele>
        <time>2026-08-21T18:19:16.999Z</time>
      </trkpt>
      <trkpt lat="48.635879" lon="-1.509091">
        <ele>3.733</ele>
        <time>2026-08-21T18:19:18.999Z</time>
      </trkpt>
      <trkpt lat="48.635887" lon="-1.509081">
        <ele>3.776</ele>
        <time>2026-08-21T18:19:19.999Z</time>
      </trkpt>
      <trkpt lat="48.635903" lon="-1.509072">
        <ele>3.687</ele>
        <time>2026-08-21T18:19:21.999Z</time>
      </trkpt>
      <trkpt lat="48.635912" lon="-1.509067">
        <ele>3.680</ele>
        <time>2026-08-21T18:19:22.999Z</time>
      </trkpt>
      <trkpt lat="48.635926" lon="-1.509052">
        <ele>3.557</ele>
        <time>2026-08-21T18:19:24.999Z</time>
      </trkpt>
      <trkpt lat="48.635933" lon="-1.509041">
        <ele>3.578</ele>
        <time>2026-08-21T18:19:25.999Z</time>
      </trkpt>
      <trkpt lat="48.635941" lon="-1.509029">
        <ele>3.462</ele>
        <time>2026-08-21T18:19:26.999Z</time>
      </trkpt>
      <trkpt lat="48.635954" lon="-1.509012">
        <ele>3.379</ele>
        <time>2026-08-21T18:19:28.999Z</time>
      </trkpt>
      <trkpt lat="48.635968" lon="-1.509001">
        <ele>3.341</ele>
        <time>2026-08-21T18:19:30.999Z</time>
      </trkpt>
      <trkpt lat="48.635976" lon="-1.508994">
        <ele>3.381</ele>
        <time>2026-08-21T18:19:31.999Z</time>
      </trkpt>
      <trkpt lat="48.635988" lon="-1.508985">
        <ele>3.309</ele>
        <time>2026-08-21T18:19:33.999Z</time>
      </trkpt>
      <trkpt lat="48.636005" lon="-1.508972">
        <ele>3.209</ele>
        <time>2026-08-21T18:19:35.999Z</time>
      </trkpt>
      <trkpt lat="48.636014" lon="-1.508966">
        <ele>3.286</ele>
        <time>2026-08-21T18:19:36.999Z</time>
      </trkpt>
      <trkpt lat="48.636030" lon="-1.508955">
        <ele>3.282</ele>
        <time>2026-08-21T18:19:38.999Z</time>
      </trkpt>
      <trkpt lat="48.636047" lon="-1.508943">
        <ele>3.165</ele>
        <time>2026-08-21T18:19:40.999Z</time>
      </trkpt>
      <trkpt lat="48.636056" lon="-1.508941">
        <ele>3.066</ele>
        <time>2026-08-21T18:19:41.999Z</time>
      </trkpt>
      <trkpt lat="48.636067" lon="-1.508938">
        <ele>2.989</ele>
        <time>2026-08-21T18:19:42.999Z</time>
      </trkpt>
      <trkpt lat="48.636077" lon="-1.508936">
        <ele>2.996</ele>
        <time>2026-08-21T18:19:43.999Z</time>
      </trkpt>
      <trkpt lat="48.636089" lon="-1.508934">
        <ele>2.997</ele>
        <time>2026-08-21T18:19:44.999Z</time>
      </trkpt>
      <trkpt lat="48.636100" lon="-1.508932">
        <ele>2.991</ele>
        <time>2026-08-21T18:19:45.999Z</time>
      </trkpt>
      <trkpt lat="48.636111" lon="-1.508929">
        <ele>2.948</ele>
        <time>2026-08-21T18:19:46.999Z</time>
      </trkpt>
      <trkpt lat="48.636123" lon="-1.508927">
        <ele>2.824</ele>
        <time>2026-08-21T18:19:47.999Z</time>
      </trkpt>
      <trkpt lat="48.636134" lon="-1.508926">
        <ele>2.704</ele>
        <time>2026-08-21T18:19:48.999Z</time>
      </trkpt>
      <trkpt lat="48.636146" lon="-1.508924">
        <ele>2.614</ele>
        <time>2026-08-21T18:19:49.999Z</time>
      </trkpt>
      <trkpt lat="48.636160" lon="-1.508923">
        <ele>2.609</ele>
        <time>2026-08-21T18:19:50.999Z</time>
      </trkpt>
      <trkpt lat="48.636176" lon="-1.508914">
        <ele>2.614</ele>
        <time>2026-08-21T18:19:52.999Z</time>
      </trkpt>
      <trkpt lat="48.636186" lon="-1.508909">
        <ele>2.590</ele>
        <time>2026-08-21T18:19:53.999Z</time>
      </trkpt>
      <trkpt lat="48.636198" lon="-1.508908">
        <ele>2.533</ele>
        <time>2026-08-21T18:19:54.999Z</time>
      </trkpt>
      <trkpt lat="48.636212" lon="-1.508911">
        <ele>2.514</ele>
        <time>2026-08-21T18:19:55.999Z</time>
      </trkpt>
      <trkpt lat="48.636224" lon="-1.508908">
        <ele>2.597</ele>
        <time>2026-08-21T18:19:56.999Z</time>
      </trkpt>
      <trkpt lat="48.636234" lon="-1.508907">
        <ele>2.584</ele>
        <time>2026-08-21T18:19:57.999Z</time>
      </trkpt>
      <trkpt lat="48.636248" lon="-1.508915">
        <ele>2.515</ele>
        <time>2026-08-21T18:19:59.999Z</time>
      </trkpt>
      <trkpt lat="48.636262" lon="-1.508921">
        <ele>2.469</ele>
        <time>2026-08-21T18:20:00.999Z</time>
      </trkpt>
      <trkpt lat="48.636273" lon="-1.508925">
        <ele>2.476</ele>
        <time>2026-08-21T18:20:01.999Z</time>
      </trkpt>
      <trkpt lat="48.636286" lon="-1.508932">
        <ele>2.421</ele>
        <time>2026-08-21T18:20:02.999Z</time>
      </trkpt>
      <trkpt lat="48.636300" lon="-1.508929">
        <ele>2.341</ele>
        <time>2026-08-21T18:20:03.999Z</time>
      </trkpt>
      <trkpt lat="48.636315" lon="-1.508927">
        <ele>2.305</ele>
        <time>2026-08-21T18:20:04.999Z</time>
      </trkpt>
      <trkpt lat="48.636326" lon="-1.508925">
        <ele>2.309</ele>
        <time>2026-08-21T18:20:05.999Z</time>
      </trkpt>
      <trkpt lat="48.636335" lon="-1.508929">
        <ele>2.394</ele>
        <time>2026-08-21T18:20:06.999Z</time>
      </trkpt>
      <trkpt lat="48.636351" lon="-1.508935">
        <ele>2.370</ele>
        <time>2026-08-21T18:20:08.999Z</time>
      </trkpt>
      <trkpt lat="48.636362" lon="-1.508941">
        <ele>2.333</ele>
        <time>2026-08-21T18:20:09.999Z</time>
      </trkpt>
      <trkpt lat="48.636377" lon="-1.508941">
        <ele>2.224</ele>
        <time>2026-08-21T18:20:10.999Z</time>
      </trkpt>
      <trkpt lat="48.636390" lon="-1.508941">
        <ele>2.237</ele>
        <time>2026-08-21T18:20:11.999Z</time>
      </trkpt>
      <trkpt lat="48.636401" lon="-1.508943">
        <ele>2.294</ele>
        <time>2026-08-21T18:20:12.999Z</time>
      </trkpt>
      <trkpt lat="48.636418" lon="-1.508949">
        <ele>2.135</ele>
        <time>2026-08-21T18:20:14.999Z</time>
      </trkpt>
      <trkpt lat="48.636429" lon="-1.508957">
        <ele>2.199</ele>
        <time>2026-08-21T18:20:15.999Z</time>
      </trkpt>
      <trkpt lat="48.636442" lon="-1.508959">
        <ele>2.166</ele>
        <time>2026-08-21T18:20:16.999Z</time>
      </trkpt>
      <trkpt lat="48.636457" lon="-1.508955">
        <ele>2.166</ele>
        <time>2026-08-21T18:20:17.999Z</time>
      </trkpt>
      <trkpt lat="48.636469" lon="-1.508948">
        <ele>2.129</ele>
        <time>2026-08-21T18:20:18.999Z</time>
      </trkpt>
      <trkpt lat="48.636490" lon="-1.508949">
        <ele>2.021</ele>
        <time>2026-08-21T18:20:20.999Z</time>
      </trkpt>
      <trkpt lat="48.636501" lon="-1.508952">
        <ele>2.009</ele>
        <time>2026-08-21T18:20:21.999Z</time>
      </trkpt>
      <trkpt lat="48.636512" lon="-1.508953">
        <ele>2.038</ele>
        <time>2026-08-21T18:20:22.999Z</time>
      </trkpt>
      <trkpt lat="48.636523" lon="-1.508956">
        <ele>1.934</ele>
        <time>2026-08-21T18:20:23.999Z</time>
      </trkpt>
      <trkpt lat="48.636531" lon="-1.508961">
        <ele>1.987</ele>
        <time>2026-08-21T18:20:24.999Z</time>
      </trkpt>
      <trkpt lat="48.636541" lon="-1.508962">
        <ele>1.938</ele>
        <time>2026-08-21T18:20:25.999Z</time>
      </trkpt>
      <trkpt lat="48.636552" lon="-1.508960">
        <ele>1.991</ele>
        <time>2026-08-21T18:20:26.999Z</time>
      </trkpt>
      <trkpt lat="48.636565" lon="-1.508961">
        <ele>2.058</ele>
        <time>2026-08-21T18:20:27.999Z</time>
      </trkpt>
      <trkpt lat="48.636578" lon="-1.508962">
        <ele>2.069</ele>
        <time>2026-08-21T18:20:28.999Z</time>
      </trkpt>
      <trkpt lat="48.636590" lon="-1.508962">
        <ele>2.163</ele>
        <time>2026-08-21T18:20:29.999Z</time>
      </trkpt>
      <trkpt lat="48.636601" lon="-1.508964">
        <ele>2.120</ele>
        <time>2026-08-21T18:20:30.999Z</time>
      </trkpt>
      <trkpt lat="48.636613" lon="-1.508970">
        <ele>2.196</ele>
        <time>2026-08-21T18:20:31.999Z</time>
      </trkpt>
      <trkpt lat="48.636632" lon="-1.508977">
        <ele>2.131</ele>
        <time>2026-08-21T18:20:33.999Z</time>
      </trkpt>
      <trkpt lat="48.636643" lon="-1.508985">
        <ele>2.024</ele>
        <time>2026-08-21T18:20:34.999Z</time>
      </trkpt>
      <trkpt lat="48.636655" lon="-1.508988">
        <ele>2.009</ele>
        <time>2026-08-21T18:20:35.999Z</time>
      </trkpt>
      <trkpt lat="48.636668" lon="-1.508992">
        <ele>1.911</ele>
        <time>2026-08-21T18:20:36.999Z</time>
      </trkpt>
      <trkpt lat="48.636682" lon="-1.508999">
        <ele>1.917</ele>
        <time>2026-08-21T18:20:38.999Z</time>
      </trkpt>
      <trkpt lat="48.636702" lon="-1.509004">
        <ele>1.980</ele>
        <time>2026-08-21T18:20:40.999Z</time>
      </trkpt>
      <trkpt lat="48.636717" lon="-1.509009">
        <ele>1.951</ele>
        <time>2026-08-21T18:20:41.999Z</time>
      </trkpt>
      <trkpt lat="48.636730" lon="-1.509013">
        <ele>1.974</ele>
        <time>2026-08-21T18:20:42.999Z</time>
      </trkpt>
      <trkpt lat="48.636744" lon="-1.509014">
        <ele>1.991</ele>
        <time>2026-08-21T18:20:43.999Z</time>
      </trkpt>
      <trkpt lat="48.636755" lon="-1.509017">
        <ele>1.992</ele>
        <time>2026-08-21T18:20:44.999Z</time>
      </trkpt>
      <trkpt lat="48.636764" lon="-1.509025">
        <ele>1.996</ele>
        <time>2026-08-21T18:20:45.999Z</time>
      </trkpt>
      <trkpt lat="48.636773" lon="-1.509037">
        <ele>1.983</ele>
        <time>2026-08-21T18:20:46.999Z</time>
      </trkpt>
      <trkpt lat="48.636781" lon="-1.509050">
        <ele>2.021</ele>
        <time>2026-08-21T18:20:47.999Z</time>
      </trkpt>
      <trkpt lat="48.636792" lon="-1.509057">
        <ele>2.041</ele>
        <time>2026-08-21T18:20:48.999Z</time>
      </trkpt>
      <trkpt lat="48.636803" lon="-1.509061">
        <ele>2.005</ele>
        <time>2026-08-21T18:20:49.999Z</time>
      </trkpt>
      <trkpt lat="48.636812" lon="-1.509059">
        <ele>2.009</ele>
        <time>2026-08-21T18:20:50.999Z</time>
      </trkpt>
      <trkpt lat="48.636822" lon="-1.509061">
        <ele>1.994</ele>
        <time>2026-08-21T18:20:51.999Z</time>
      </trkpt>
      <trkpt lat="48.636833" lon="-1.509066">
        <ele>1.820</ele>
        <time>2026-08-21T18:20:52.999Z</time>
      </trkpt>
      <trkpt lat="48.636841" lon="-1.509076">
        <ele>1.813</ele>
        <time>2026-08-21T18:20:53.999Z</time>
      </trkpt>
      <trkpt lat="48.636854" lon="-1.509083">
        <ele>1.884</ele>
        <time>2026-08-21T18:20:54.999Z</time>
      </trkpt>
      <trkpt lat="48.636865" lon="-1.509088">
        <ele>1.857</ele>
        <time>2026-08-21T18:20:55.999Z</time>
      </trkpt>
      <trkpt lat="48.636875" lon="-1.509093">
        <ele>1.844</ele>
        <time>2026-08-21T18:20:56.999Z</time>
      </trkpt>
      <trkpt lat="48.636882" lon="-1.509103">
        <ele>1.875</ele>
        <time>2026-08-21T18:20:57.999Z</time>
      </trkpt>
      <trkpt lat="48.636893" lon="-1.509106">
        <ele>1.979</ele>
        <time>2026-08-21T18:20:58.999Z</time>
      </trkpt>
      <trkpt lat="48.636906" lon="-1.509108">
        <ele>1.966</ele>
        <time>2026-08-21T18:20:59.999Z</time>
      </trkpt>
      <trkpt lat="48.636917" lon="-1.509107">
        <ele>1.985</ele>
        <time>2026-08-21T18:21:00.999Z</time>
      </trkpt>
      <trkpt lat="48.636925" lon="-1.509117">
        <ele>1.989</ele>
        <time>2026-08-21T18:21:01.999Z</time>
      </trkpt>
      <trkpt lat="48.636938" lon="-1.509122">
        <ele>1.917</ele>
        <time>2026-08-21T18:21:02.999Z</time>
      </trkpt>
      <trkpt lat="48.636955" lon="-1.509129">
        <ele>2.009</ele>
        <time>2026-08-21T18:21:04.999Z</time>
      </trkpt>
      <trkpt lat="48.636964" lon="-1.509139">
        <ele>2.020</ele>
        <time>2026-08-21T18:21:05.999Z</time>
      </trkpt>
      <trkpt lat="48.636972" lon="-1.509146">
        <ele>2.146</ele>
        <time>2026-08-21T18:21:06.999Z</time>
      </trkpt>
      <trkpt lat="48.636984" lon="-1.509154">
        <ele>2.149</ele>
        <time>2026-08-21T18:21:07.999Z</time>
      </trkpt>
      <trkpt lat="48.636996" lon="-1.509155">
        <ele>2.270</ele>
        <time>2026-08-21T18:21:08.999Z</time>
      </trkpt>
      <trkpt lat="48.637009" lon="-1.509155">
        <ele>2.253</ele>
        <time>2026-08-21T18:21:09.999Z</time>
      </trkpt>
      <trkpt lat="48.637027" lon="-1.509155">
        <ele>2.250</ele>
        <time>2026-08-21T18:21:10.999Z</time>
      </trkpt>
      <trkpt lat="48.637038" lon="-1.509157">
        <ele>2.261</ele>
        <time>2026-08-21T18:21:11.999Z</time>
      </trkpt>
      <trkpt lat="48.637049" lon="-1.509155">
        <ele>2.255</ele>
        <time>2026-08-21T18:21:12.999Z</time>
      </trkpt>
      <trkpt lat="48.637060" lon="-1.509161">
        <ele>2.282</ele>
        <time>2026-08-21T18:21:13.999Z</time>
      </trkpt>
      <trkpt lat="48.637070" lon="-1.509172">
        <ele>2.254</ele>
        <time>2026-08-21T18:21:14.999Z</time>
      </trkpt>
      <trkpt lat="48.637082" lon="-1.509176">
        <ele>2.256</ele>
        <time>2026-08-21T18:21:15.999Z</time>
      </trkpt>
      <trkpt lat="48.637096" lon="-1.509183">
        <ele>2.311</ele>
        <time>2026-08-21T18:21:16.999Z</time>
      </trkpt>
      <trkpt lat="48.637109" lon="-1.509184">
        <ele>2.309</ele>
        <time>2026-08-21T18:21:17.999Z</time>
      </trkpt>
      <trkpt lat="48.637121" lon="-1.509188">
        <ele>2.457</ele>
        <time>2026-08-21T18:21:18.999Z</time>
      </trkpt>
      <trkpt lat="48.637133" lon="-1.509198">
        <ele>2.443</ele>
        <time>2026-08-21T18:21:20.999Z</time>
      </trkpt>
      <trkpt lat="48.637143" lon="-1.509202">
        <ele>2.596</ele>
        <time>2026-08-21T18:21:21.999Z</time>
      </trkpt>
      <trkpt lat="48.637154" lon="-1.509207">
        <ele>2.627</ele>
        <time>2026-08-21T18:21:22.999Z</time>
      </trkpt>
      <trkpt lat="48.637168" lon="-1.509212">
        <ele>2.740</ele>
        <time>2026-08-21T18:21:23.999Z</time>
      </trkpt>
      <trkpt lat="48.637179" lon="-1.509217">
        <ele>2.787</ele>
        <time>2026-08-21T18:21:24.999Z</time>
      </trkpt>
      <trkpt lat="48.637187" lon="-1.509221">
        <ele>2.748</ele>
        <time>2026-08-21T18:21:25.999Z</time>
      </trkpt>
      <trkpt lat="48.637201" lon="-1.509231">
        <ele>2.782</ele>
        <time>2026-08-21T18:21:27.999Z</time>
      </trkpt>
      <trkpt lat="48.637211" lon="-1.509238">
        <ele>2.719</ele>
        <time>2026-08-21T18:21:28.999Z</time>
      </trkpt>
      <trkpt lat="48.637230" lon="-1.509249">
        <ele>2.734</ele>
        <time>2026-08-21T18:21:29.999Z</time>
      </trkpt>
      <trkpt lat="48.637243" lon="-1.509254">
        <ele>2.755</ele>
        <time>2026-08-21T18:21:30.999Z</time>
      </trkpt>
      <trkpt lat="48.637252" lon="-1.509257">
        <ele>2.710</ele>
        <time>2026-08-21T18:21:31.999Z</time>
      </trkpt>
      <trkpt lat="48.637269" lon="-1.509256">
        <ele>2.709</ele>
        <time>2026-08-21T18:21:33.999Z</time>
      </trkpt>
      <trkpt lat="48.637284" lon="-1.509258">
        <ele>2.795</ele>
        <time>2026-08-21T18:21:35.999Z</time>
      </trkpt>
      <trkpt lat="48.637300" lon="-1.509258">
        <ele>2.761</ele>
        <time>2026-08-21T18:21:36.999Z</time>
      </trkpt>
      <trkpt lat="48.637312" lon="-1.509258">
        <ele>2.764</ele>
        <time>2026-08-21T18:21:37.999Z</time>
      </trkpt>
      <trkpt lat="48.637323" lon="-1.509256">
        <ele>2.745</ele>
        <time>2026-08-21T18:21:38.999Z</time>
      </trkpt>
      <trkpt lat="48.637333" lon="-1.509257">
        <ele>2.758</ele>
        <time>2026-08-21T18:21:39.999Z</time>
      </trkpt>
      <trkpt lat="48.637347" lon="-1.509260">
        <ele>2.745</ele>
        <time>2026-08-21T18:21:41.999Z</time>
      </trkpt>
      <trkpt lat="48.637366" lon="-1.509264">
        <ele>2.726</ele>
        <time>2026-08-21T18:21:43.999Z</time>
      </trkpt>
      <trkpt lat="48.637379" lon="-1.509262">
        <ele>2.660</ele>
        <time>2026-08-21T18:21:44.999Z</time>
      </trkpt>
      <trkpt lat="48.637390" lon="-1.509263">
        <ele>2.557</ele>
        <time>2026-08-21T18:21:45.999Z</time>
      </trkpt>
      <trkpt lat="48.637400" lon="-1.509262">
        <ele>2.433</ele>
        <time>2026-08-21T18:21:46.999Z</time>
      </trkpt>
      <trkpt lat="48.637413" lon="-1.509259">
        <ele>2.323</ele>
        <time>2026-08-21T18:21:48.999Z</time>
      </trkpt>
      <trkpt lat="48.637428" lon="-1.509268">
        <ele>2.215</ele>
        <time>2026-08-21T18:21:50.999Z</time>
      </trkpt>
      <trkpt lat="48.637441" lon="-1.509272">
        <ele>2.109</ele>
        <time>2026-08-21T18:21:52.999Z</time>
      </trkpt>
      <trkpt lat="48.637449" lon="-1.509278">
        <ele>2.045</ele>
        <time>2026-08-21T18:21:53.999Z</time>
      </trkpt>
      <trkpt lat="48.637465" lon="-1.509279">
        <ele>2.071</ele>
        <time>2026-08-21T18:21:55.999Z</time>
      </trkpt>
      <trkpt lat="48.637475" lon="-1.509274">
        <ele>2.074</ele>
        <time>2026-08-21T18:21:57.999Z</time>
      </trkpt>
      <trkpt lat="48.637489" lon="-1.509284">
        <ele>1.985</ele>
        <time>2026-08-21T18:21:59.999Z</time>
      </trkpt>
      <trkpt lat="48.637507" lon="-1.509296">
        <ele>1.868</ele>
        <time>2026-08-21T18:22:01.999Z</time>
      </trkpt>
      <trkpt lat="48.637515" lon="-1.509301">
        <ele>1.725</ele>
        <time>2026-08-21T18:22:02.999Z</time>
      </trkpt>
      <trkpt lat="48.637523" lon="-1.509311">
        <ele>1.646</ele>
        <time>2026-08-21T18:22:03.999Z</time>
      </trkpt>
      <trkpt lat="48.637533" lon="-1.509316">
        <ele>1.590</ele>
        <time>2026-08-21T18:22:04.999Z</time>
      </trkpt>
      <trkpt lat="48.637544" lon="-1.509322">
        <ele>1.387</ele>
        <time>2026-08-21T18:22:05.999Z</time>
      </trkpt>
      <trkpt lat="48.637555" lon="-1.509331">
        <ele>1.153</ele>
        <time>2026-08-21T18:22:06.999Z</time>
      </trkpt>
      <trkpt lat="48.637567" lon="-1.509340">
        <ele>0.904</ele>
        <time>2026-08-21T18:22:07.999Z</time>
      </trkpt>
      <trkpt lat="48.637577" lon="-1.509347">
        <ele>0.814</ele>
        <time>2026-08-21T18:22:08.999Z</time>
      </trkpt>
      <trkpt lat="48.637586" lon="-1.509353">
        <ele>0.809</ele>
        <time>2026-08-21T18:22:09.999Z</time>
      </trkpt>
      <trkpt lat="48.637595" lon="-1.509361">
        <ele>0.857</ele>
        <time>2026-08-21T18:22:10.999Z</time>
      </trkpt>
      <trkpt lat="48.637602" lon="-1.509372">
        <ele>0.763</ele>
        <time>2026-08-21T18:22:11.999Z</time>
      </trkpt>
      <trkpt lat="48.637612" lon="-1.509379">
        <ele>0.766</ele>
        <time>2026-08-21T18:22:12.999Z</time>
      </trkpt>
      <trkpt lat="48.637625" lon="-1.509398">
        <ele>0.617</ele>
        <time>2026-08-21T18:22:14.999Z</time>
      </trkpt>
      <trkpt lat="48.637635" lon="-1.509411">
        <ele>0.660</ele>
        <time>2026-08-21T18:22:15.999Z</time>
      </trkpt>
      <trkpt lat="48.637643" lon="-1.509421">
        <ele>0.697</ele>
        <time>2026-08-21T18:22:16.999Z</time>
      </trkpt>
      <trkpt lat="48.637651" lon="-1.509432">
        <ele>0.548</ele>
        <time>2026-08-21T18:22:17.999Z</time>
      </trkpt>
      <trkpt lat="48.637662" lon="-1.509453">
        <ele>0.562</ele>
        <time>2026-08-21T18:22:19.999Z</time>
      </trkpt>
      <trkpt lat="48.637668" lon="-1.509464">
        <ele>0.569</ele>
        <time>2026-08-21T18:22:20.999Z</time>
      </trkpt>
      <trkpt lat="48.637678" lon="-1.509485">
        <ele>0.531</ele>
        <time>2026-08-21T18:22:22.999Z</time>
      </trkpt>
      <trkpt lat="48.637693" lon="-1.509507">
        <ele>0.561</ele>
        <time>2026-08-21T18:22:24.999Z</time>
      </trkpt>
      <trkpt lat="48.637702" lon="-1.509514">
        <ele>0.507</ele>
        <time>2026-08-21T18:22:25.999Z</time>
      </trkpt>
      <trkpt lat="48.637709" lon="-1.509525">
        <ele>0.509</ele>
        <time>2026-08-21T18:22:26.999Z</time>
      </trkpt>
      <trkpt lat="48.637715" lon="-1.509537">
        <ele>0.565</ele>
        <time>2026-08-21T18:22:27.999Z</time>
      </trkpt>
      <trkpt lat="48.637728" lon="-1.509559">
        <ele>0.571</ele>
        <time>2026-08-21T18:22:29.999Z</time>
      </trkpt>
      <trkpt lat="48.637735" lon="-1.509573">
        <ele>0.514</ele>
        <time>2026-08-21T18:22:30.999Z</time>
      </trkpt>
      <trkpt lat="48.637746" lon="-1.509591">
        <ele>0.585</ele>
        <time>2026-08-21T18:22:32.999Z</time>
      </trkpt>
      <trkpt lat="48.637752" lon="-1.509603">
        <ele>0.538</ele>
        <time>2026-08-21T18:22:33.999Z</time>
      </trkpt>
      <trkpt lat="48.637762" lon="-1.509618">
        <ele>0.555</ele>
        <time>2026-08-21T18:22:34.999Z</time>
      </trkpt>
      <trkpt lat="48.637773" lon="-1.509633">
        <ele>0.586</ele>
        <time>2026-08-21T18:22:35.999Z</time>
      </trkpt>
      <trkpt lat="48.637780" lon="-1.509648">
        <ele>0.650</ele>
        <time>2026-08-21T18:22:36.999Z</time>
      </trkpt>
      <trkpt lat="48.637785" lon="-1.509661">
        <ele>0.667</ele>
        <time>2026-08-21T18:22:37.999Z</time>
      </trkpt>
      <trkpt lat="48.637789" lon="-1.509676">
        <ele>0.612</ele>
        <time>2026-08-21T18:22:38.999Z</time>
      </trkpt>
      <trkpt lat="48.637793" lon="-1.509690">
        <ele>0.632</ele>
        <time>2026-08-21T18:22:39.999Z</time>
      </trkpt>
      <trkpt lat="48.637797" lon="-1.509706">
        <ele>0.705</ele>
        <time>2026-08-21T18:22:40.999Z</time>
      </trkpt>
      <trkpt lat="48.637804" lon="-1.509729">
        <ele>0.709</ele>
        <time>2026-08-21T18:22:42.999Z</time>
      </trkpt>
      <trkpt lat="48.637809" lon="-1.509742">
        <ele>0.753</ele>
        <time>2026-08-21T18:22:43.999Z</time>
      </trkpt>
      <trkpt lat="48.637816" lon="-1.509758">
        <ele>0.739</ele>
        <time>2026-08-21T18:22:44.999Z</time>
      </trkpt>
      <trkpt lat="48.637823" lon="-1.509771">
        <ele>0.782</ele>
        <time>2026-08-21T18:22:45.999Z</time>
      </trkpt>
      <trkpt lat="48.637827" lon="-1.509785">
        <ele>0.833</ele>
        <time>2026-08-21T18:22:46.999Z</time>
      </trkpt>
      <trkpt lat="48.637831" lon="-1.509799">
        <ele>0.886</ele>
        <time>2026-08-21T18:22:47.999Z</time>
      </trkpt>
      <trkpt lat="48.637838" lon="-1.509808">
        <ele>0.893</ele>
        <time>2026-08-21T18:22:48.999Z</time>
      </trkpt>
      <trkpt lat="48.637847" lon="-1.509820">
        <ele>0.834</ele>
        <time>2026-08-21T18:22:49.999Z</time>
      </trkpt>
      <trkpt lat="48.637857" lon="-1.509833">
        <ele>0.988</ele>
        <time>2026-08-21T18:22:50.999Z</time>
      </trkpt>
      <trkpt lat="48.637865" lon="-1.509841">
        <ele>0.945</ele>
        <time>2026-08-21T18:22:51.999Z</time>
      </trkpt>
      <trkpt lat="48.637874" lon="-1.509858">
        <ele>0.941</ele>
        <time>2026-08-21T18:22:53.999Z</time>
      </trkpt>
      <trkpt lat="48.637885" lon="-1.509873">
        <ele>0.981</ele>
        <time>2026-08-21T18:22:54.999Z</time>
      </trkpt>
      <trkpt lat="48.637894" lon="-1.509890">
        <ele>0.909</ele>
        <time>2026-08-21T18:22:55.999Z</time>
      </trkpt>
      <trkpt lat="48.637902" lon="-1.509902">
        <ele>0.909</ele>
        <time>2026-08-21T18:22:56.999Z</time>
      </trkpt>
      <trkpt lat="48.637906" lon="-1.509917">
        <ele>0.946</ele>
        <time>2026-08-21T18:22:57.999Z</time>
      </trkpt>
      <trkpt lat="48.637911" lon="-1.509930">
        <ele>0.872</ele>
        <time>2026-08-21T18:22:58.999Z</time>
      </trkpt>
      <trkpt lat="48.637918" lon="-1.509946">
        <ele>0.895</ele>
        <time>2026-08-21T18:22:59.999Z</time>
      </trkpt>
      <trkpt lat="48.637925" lon="-1.509962">
        <ele>0.816</ele>
        <time>2026-08-21T18:23:00.999Z</time>
      </trkpt>
      <trkpt lat="48.637933" lon="-1.509975">
        <ele>0.859</ele>
        <time>2026-08-21T18:23:01.999Z</time>
      </trkpt>
      <trkpt lat="48.637940" lon="-1.509990">
        <ele>0.716</ele>
        <time>2026-08-21T18:23:02.999Z</time>
      </trkpt>
      <trkpt lat="48.637943" lon="-1.510003">
        <ele>0.717</ele>
        <time>2026-08-21T18:23:03.999Z</time>
      </trkpt>
      <trkpt lat="48.637946" lon="-1.510017">
        <ele>0.721</ele>
        <time>2026-08-21T18:23:04.999Z</time>
      </trkpt>
      <trkpt lat="48.637953" lon="-1.510031">
        <ele>0.778</ele>
        <time>2026-08-21T18:23:05.999Z</time>
      </trkpt>
      <trkpt lat="48.637961" lon="-1.510044">
        <ele>0.741</ele>
        <time>2026-08-21T18:23:06.999Z</time>
      </trkpt>
      <trkpt lat="48.637968" lon="-1.510062">
        <ele>0.781</ele>
        <time>2026-08-21T18:23:07.999Z</time>
      </trkpt>
      <trkpt lat="48.637977" lon="-1.510084">
        <ele>0.609</ele>
        <time>2026-08-21T18:23:09.999Z</time>
      </trkpt>
      <trkpt lat="48.637982" lon="-1.510099">
        <ele>0.509</ele>
        <time>2026-08-21T18:23:10.999Z</time>
      </trkpt>
      <trkpt lat="48.637991" lon="-1.510114">
        <ele>0.386</ele>
        <time>2026-08-21T18:23:11.999Z</time>
      </trkpt>
      <trkpt lat="48.637998" lon="-1.510131">
        <ele>0.362</ele>
        <time>2026-08-21T18:23:12.999Z</time>
      </trkpt>
      <trkpt lat="48.638005" lon="-1.510148">
        <ele>0.225</ele>
        <time>2026-08-21T18:23:13.999Z</time>
      </trkpt>
      <trkpt lat="48.638008" lon="-1.510165">
        <ele>0.216</ele>
        <time>2026-08-21T18:23:14.999Z</time>
      </trkpt>
      <trkpt lat="48.638017" lon="-1.510192">
        <ele>0.219</ele>
        <time>2026-08-21T18:23:16.999Z</time>
      </trkpt>
      <trkpt lat="48.638024" lon="-1.510211">
        <ele>0.236</ele>
        <time>2026-08-21T18:23:17.999Z</time>
      </trkpt>
      <trkpt lat="48.638028" lon="-1.510228">
        <ele>0.287</ele>
        <time>2026-08-21T18:23:18.999Z</time>
      </trkpt>
      <trkpt lat="48.638032" lon="-1.510241">
        <ele>0.261</ele>
        <time>2026-08-21T18:23:19.999Z</time>
      </trkpt>
      <trkpt lat="48.638037" lon="-1.510255">
        <ele>0.228</ele>
        <time>2026-08-21T18:23:20.999Z</time>
      </trkpt>
      <trkpt lat="48.638041" lon="-1.510287">
        <ele>0.295</ele>
        <time>2026-08-21T18:23:22.999Z</time>
      </trkpt>
      <trkpt lat="48.638048" lon="-1.510304">
        <ele>0.249</ele>
        <time>2026-08-21T18:23:23.999Z</time>
      </trkpt>
      <trkpt lat="48.638053" lon="-1.510324">
        <ele>0.223</ele>
        <time>2026-08-21T18:23:24.999Z</time>
      </trkpt>
      <trkpt lat="48.638059" lon="-1.510350">
        <ele>0.209</ele>
        <time>2026-08-21T18:23:26.999Z</time>
      </trkpt>
      <trkpt lat="48.638064" lon="-1.510365">
        <ele>0.251</ele>
        <time>2026-08-21T18:23:27.999Z</time>
      </trkpt>
      <trkpt lat="48.638069" lon="-1.510381">
        <ele>0.227</ele>
        <time>2026-08-21T18:23:28.999Z</time>
      </trkpt>
      <trkpt lat="48.638073" lon="-1.510400">
        <ele>0.260</ele>
        <time>2026-08-21T18:23:29.999Z</time>
      </trkpt>
      <trkpt lat="48.638077" lon="-1.510414">
        <ele>0.231</ele>
        <time>2026-08-21T18:23:30.999Z</time>
      </trkpt>
      <trkpt lat="48.638080" lon="-1.510433">
        <ele>0.294</ele>
        <time>2026-08-21T18:23:31.999Z</time>
      </trkpt>
      <trkpt lat="48.638085" lon="-1.510444">
        <ele>0.281</ele>
        <time>2026-08-21T18:23:32.999Z</time>
      </trkpt>
      <trkpt lat="48.638090" lon="-1.510458">
        <ele>0.232</ele>
        <time>2026-08-21T18:23:33.999Z</time>
      </trkpt>
      <trkpt lat="48.638102" lon="-1.510475">
        <ele>0.286</ele>
        <time>2026-08-21T18:23:35.999Z</time>
      </trkpt>
      <trkpt lat="48.638106" lon="-1.510491">
        <ele>0.273</ele>
        <time>2026-08-21T18:23:36.999Z</time>
      </trkpt>
      <trkpt lat="48.638110" lon="-1.510508">
        <ele>0.238</ele>
        <time>2026-08-21T18:23:37.999Z</time>
      </trkpt>
      <trkpt lat="48.638117" lon="-1.510526">
        <ele>0.370</ele>
        <time>2026-08-21T18:23:38.999Z</time>
      </trkpt>
      <trkpt lat="48.638124" lon="-1.510542">
        <ele>0.317</ele>
        <time>2026-08-21T18:23:39.999Z</time>
      </trkpt>
      <trkpt lat="48.638132" lon="-1.510557">
        <ele>0.309</ele>
        <time>2026-08-21T18:23:40.999Z</time>
      </trkpt>
      <trkpt lat="48.638135" lon="-1.510571">
        <ele>0.375</ele>
        <time>2026-08-21T18:23:41.999Z</time>
      </trkpt>
      <trkpt lat="48.638144" lon="-1.510593">
        <ele>0.451</ele>
        <time>2026-08-21T18:23:43.999Z</time>
      </trkpt>
      <trkpt lat="48.638155" lon="-1.510610">
        <ele>0.424</ele>
        <time>2026-08-21T18:23:44.999Z</time>
      </trkpt>
      <trkpt lat="48.638161" lon="-1.510625">
        <ele>0.495</ele>
        <time>2026-08-21T18:23:45.999Z</time>
      </trkpt>
      <trkpt lat="48.638169" lon="-1.510648">
        <ele>0.468</ele>
        <time>2026-08-21T18:23:47.999Z</time>
      </trkpt>
      <trkpt lat="48.638176" lon="-1.510658">
        <ele>0.465</ele>
        <time>2026-08-21T18:23:48.999Z</time>
      </trkpt>
      <trkpt lat="48.638185" lon="-1.510670">
        <ele>0.416</ele>
        <time>2026-08-21T18:23:49.999Z</time>
      </trkpt>
      <trkpt lat="48.638194" lon="-1.510687">
        <ele>0.560</ele>
        <time>2026-08-21T18:23:50.999Z</time>
      </trkpt>
      <trkpt lat="48.638201" lon="-1.510702">
        <ele>0.527</ele>
        <time>2026-08-21T18:23:51.999Z</time>
      </trkpt>
      <trkpt lat="48.638208" lon="-1.510715">
        <ele>0.612</ele>
        <time>2026-08-21T18:23:52.999Z</time>
      </trkpt>
      <trkpt lat="48.638215" lon="-1.510725">
        <ele>0.632</ele>
        <time>2026-08-21T18:23:53.999Z</time>
      </trkpt>
      <trkpt lat="48.638222" lon="-1.510737">
        <ele>0.705</ele>
        <time>2026-08-21T18:23:54.999Z</time>
      </trkpt>
      <trkpt lat="48.638229" lon="-1.510751">
        <ele>0.709</ele>
        <time>2026-08-21T18:23:55.999Z</time>
      </trkpt>
      <trkpt lat="48.638239" lon="-1.510764">
        <ele>0.793</ele>
        <time>2026-08-21T18:23:56.999Z</time>
      </trkpt>
      <trkpt lat="48.638245" lon="-1.510775">
        <ele>0.749</ele>
        <time>2026-08-21T18:23:57.999Z</time>
      </trkpt>
      <trkpt lat="48.638254" lon="-1.510798">
        <ele>0.842</ele>
        <time>2026-08-21T18:23:59.999Z</time>
      </trkpt>
      <trkpt lat="48.638257" lon="-1.510811">
        <ele>0.833</ele>
        <time>2026-08-21T18:24:00.999Z</time>
      </trkpt>
      <trkpt lat="48.638263" lon="-1.510825">
        <ele>0.886</ele>
        <time>2026-08-21T18:24:01.999Z</time>
      </trkpt>
      <trkpt lat="48.638270" lon="-1.510836">
        <ele>0.883</ele>
        <time>2026-08-21T18:24:02.999Z</time>
      </trkpt>
      <trkpt lat="48.638276" lon="-1.510851">
        <ele>0.884</ele>
        <time>2026-08-21T18:24:03.999Z</time>
      </trkpt>
      <trkpt lat="48.638286" lon="-1.510876">
        <ele>0.898</ele>
        <time>2026-08-21T18:24:05.999Z</time>
      </trkpt>
      <trkpt lat="48.638292" lon="-1.510892">
        <ele>0.855</ele>
        <time>2026-08-21T18:24:06.999Z</time>
      </trkpt>
      <trkpt lat="48.638302" lon="-1.510896">
        <ele>0.888</ele>
        <time>2026-08-21T18:24:07.999Z</time>
      </trkpt>
      <trkpt lat="48.638310" lon="-1.510904">
        <ele>0.924</ele>
        <time>2026-08-21T18:24:08.999Z</time>
      </trkpt>
      <trkpt lat="48.638322" lon="-1.510922">
        <ele>0.926</ele>
        <time>2026-08-21T18:24:10.999Z</time>
      </trkpt>
      <trkpt lat="48.638329" lon="-1.510936">
        <ele>0.909</ele>
        <time>2026-08-21T18:24:11.999Z</time>
      </trkpt>
      <trkpt lat="48.638343" lon="-1.510952">
        <ele>0.960</ele>
        <time>2026-08-21T18:24:13.999Z</time>
      </trkpt>
      <trkpt lat="48.638349" lon="-1.510963">
        <ele>0.936</ele>
        <time>2026-08-21T18:24:14.999Z</time>
      </trkpt>
      <trkpt lat="48.638355" lon="-1.510974">
        <ele>0.919</ele>
        <time>2026-08-21T18:24:15.999Z</time>
      </trkpt>
      <trkpt lat="48.638363" lon="-1.510982">
        <ele>0.930</ele>
        <time>2026-08-21T18:24:16.999Z</time>
      </trkpt>
      <trkpt lat="48.638378" lon="-1.511002">
        <ele>0.963</ele>
        <time>2026-08-21T18:24:18.999Z</time>
      </trkpt>
      <trkpt lat="48.638385" lon="-1.511012">
        <ele>0.920</ele>
        <time>2026-08-21T18:24:19.999Z</time>
      </trkpt>
      <trkpt lat="48.638389" lon="-1.511029">
        <ele>0.911</ele>
        <time>2026-08-21T18:24:20.999Z</time>
      </trkpt>
      <trkpt lat="48.638401" lon="-1.511047">
        <ele>0.945</ele>
        <time>2026-08-21T18:24:22.999Z</time>
      </trkpt>
      <trkpt lat="48.638410" lon="-1.511055">
        <ele>0.932</ele>
        <time>2026-08-21T18:24:23.999Z</time>
      </trkpt>
      <trkpt lat="48.638420" lon="-1.511073">
        <ele>0.995</ele>
        <time>2026-08-21T18:24:25.999Z</time>
      </trkpt>
      <trkpt lat="48.638428" lon="-1.511082">
        <ele>0.949</ele>
        <time>2026-08-21T18:24:26.999Z</time>
      </trkpt>
      <trkpt lat="48.638441" lon="-1.511091">
        <ele>0.923</ele>
        <time>2026-08-21T18:24:28.999Z</time>
      </trkpt>
      <trkpt lat="48.638456" lon="-1.511106">
        <ele>0.909</ele>
        <time>2026-08-21T18:24:30.999Z</time>
      </trkpt>
      <trkpt lat="48.638463" lon="-1.511117">
        <ele>0.861</ele>
        <time>2026-08-21T18:24:31.999Z</time>
      </trkpt>
      <trkpt lat="48.638472" lon="-1.511125">
        <ele>0.737</ele>
        <time>2026-08-21T18:24:32.999Z</time>
      </trkpt>
      <trkpt lat="48.638487" lon="-1.511139">
        <ele>0.740</ele>
        <time>2026-08-21T18:24:34.999Z</time>
      </trkpt>
      <trkpt lat="48.638494" lon="-1.511155">
        <ele>0.791</ele>
        <time>2026-08-21T18:24:35.999Z</time>
      </trkpt>
      <trkpt lat="48.638508" lon="-1.511176">
        <ele>0.754</ele>
        <time>2026-08-21T18:24:37.999Z</time>
      </trkpt>
      <trkpt lat="48.638516" lon="-1.511188">
        <ele>0.781</ele>
        <time>2026-08-21T18:24:38.999Z</time>
      </trkpt>
      <trkpt lat="48.638524" lon="-1.511201">
        <ele>0.762</ele>
        <time>2026-08-21T18:24:39.999Z</time>
      </trkpt>
      <trkpt lat="48.638533" lon="-1.511211">
        <ele>0.776</ele>
        <time>2026-08-21T18:24:40.999Z</time>
      </trkpt>
      <trkpt lat="48.638544" lon="-1.511231">
        <ele>0.683</ele>
        <time>2026-08-21T18:24:42.999Z</time>
      </trkpt>
      <trkpt lat="48.638550" lon="-1.511240">
        <ele>0.659</ele>
        <time>2026-08-21T18:24:43.999Z</time>
      </trkpt>
      <trkpt lat="48.638557" lon="-1.511259">
        <ele>0.603</ele>
        <time>2026-08-21T18:24:45.999Z</time>
      </trkpt>
      <trkpt lat="48.638561" lon="-1.511272">
        <ele>0.623</ele>
        <time>2026-08-21T18:24:46.999Z</time>
      </trkpt>
      <trkpt lat="48.638568" lon="-1.511287">
        <ele>0.609</ele>
        <time>2026-08-21T18:24:47.999Z</time>
      </trkpt>
      <trkpt lat="48.638571" lon="-1.511301">
        <ele>0.627</ele>
        <time>2026-08-21T18:24:48.999Z</time>
      </trkpt>
      <trkpt lat="48.638578" lon="-1.511325">
        <ele>0.693</ele>
        <time>2026-08-21T18:24:50.999Z</time>
      </trkpt>
      <trkpt lat="48.638586" lon="-1.511341">
        <ele>0.686</ele>
        <time>2026-08-21T18:24:51.999Z</time>
      </trkpt>
      <trkpt lat="48.638594" lon="-1.511352">
        <ele>0.677</ele>
        <time>2026-08-21T18:24:52.999Z</time>
      </trkpt>
      <trkpt lat="48.638599" lon="-1.511365">
        <ele>0.610</ele>
        <time>2026-08-21T18:24:53.999Z</time>
      </trkpt>
      <trkpt lat="48.638604" lon="-1.511376">
        <ele>0.657</ele>
        <time>2026-08-21T18:24:54.999Z</time>
      </trkpt>
      <trkpt lat="48.638612" lon="-1.511388">
        <ele>0.678</ele>
        <time>2026-08-21T18:24:55.999Z</time>
      </trkpt>
      <trkpt lat="48.638619" lon="-1.511398">
        <ele>0.662</ele>
        <time>2026-08-21T18:24:56.999Z</time>
      </trkpt>
      <trkpt lat="48.638624" lon="-1.511412">
        <ele>0.639</ele>
        <time>2026-08-21T18:24:57.999Z</time>
      </trkpt>
      <trkpt lat="48.638638" lon="-1.511430">
        <ele>0.652</ele>
        <time>2026-08-21T18:24:59.999Z</time>
      </trkpt>
      <trkpt lat="48.638647" lon="-1.511439">
        <ele>0.653</ele>
        <time>2026-08-21T18:25:00.999Z</time>
      </trkpt>
      <trkpt lat="48.638654" lon="-1.511462">
        <ele>0.608</ele>
        <time>2026-08-21T18:25:02.999Z</time>
      </trkpt>
      <trkpt lat="48.638659" lon="-1.511477">
        <ele>0.609</ele>
        <time>2026-08-21T18:25:03.999Z</time>
      </trkpt>
      <trkpt lat="48.638667" lon="-1.511495">
        <ele>0.687</ele>
        <time>2026-08-21T18:25:04.999Z</time>
      </trkpt>
      <trkpt lat="48.638674" lon="-1.511507">
        <ele>0.623</ele>
        <time>2026-08-21T18:25:05.999Z</time>
      </trkpt>
      <trkpt lat="48.638681" lon="-1.511517">
        <ele>0.666</ele>
        <time>2026-08-21T18:25:06.999Z</time>
      </trkpt>
      <trkpt lat="48.638695" lon="-1.511538">
        <ele>0.617</ele>
        <time>2026-08-21T18:25:08.999Z</time>
      </trkpt>
      <trkpt lat="48.638704" lon="-1.511547">
        <ele>0.650</ele>
        <time>2026-08-21T18:25:09.999Z</time>
      </trkpt>
      <trkpt lat="48.638710" lon="-1.511559">
        <ele>0.697</ele>
        <time>2026-08-21T18:25:10.999Z</time>
      </trkpt>
      <trkpt lat="48.638724" lon="-1.511579">
        <ele>0.648</ele>
        <time>2026-08-21T18:25:12.999Z</time>
      </trkpt>
      <trkpt lat="48.638732" lon="-1.511588">
        <ele>0.632</ele>
        <time>2026-08-21T18:25:13.999Z</time>
      </trkpt>
      <trkpt lat="48.638739" lon="-1.511599">
        <ele>0.619</ele>
        <time>2026-08-21T18:25:14.999Z</time>
      </trkpt>
      <trkpt lat="48.638744" lon="-1.511612">
        <ele>0.696</ele>
        <time>2026-08-21T18:25:15.999Z</time>
      </trkpt>
      <trkpt lat="48.638758" lon="-1.511633">
        <ele>0.631</ele>
        <time>2026-08-21T18:25:17.999Z</time>
      </trkpt>
      <trkpt lat="48.638770" lon="-1.511645">
        <ele>0.624</ele>
        <time>2026-08-21T18:25:18.999Z</time>
      </trkpt>
      <trkpt lat="48.638780" lon="-1.511653">
        <ele>0.609</ele>
        <time>2026-08-21T18:25:19.999Z</time>
      </trkpt>
      <trkpt lat="48.638790" lon="-1.511659">
        <ele>0.681</ele>
        <time>2026-08-21T18:25:20.999Z</time>
      </trkpt>
      <trkpt lat="48.638799" lon="-1.511664">
        <ele>0.587</ele>
        <time>2026-08-21T18:25:21.999Z</time>
      </trkpt>
      <trkpt lat="48.638813" lon="-1.511687">
        <ele>0.510</ele>
        <time>2026-08-21T18:25:23.999Z</time>
      </trkpt>
      <trkpt lat="48.638820" lon="-1.511700">
        <ele>0.571</ele>
        <time>2026-08-21T18:25:24.999Z</time>
      </trkpt>
      <trkpt lat="48.638828" lon="-1.511710">
        <ele>0.534</ele>
        <time>2026-08-21T18:25:25.999Z</time>
      </trkpt>
      <trkpt lat="48.638841" lon="-1.511731">
        <ele>0.581</ele>
        <time>2026-08-21T18:25:27.999Z</time>
      </trkpt>
      <trkpt lat="48.638850" lon="-1.511745">
        <ele>0.542</ele>
        <time>2026-08-21T18:25:28.999Z</time>
      </trkpt>
      <trkpt lat="48.638861" lon="-1.511754">
        <ele>0.586</ele>
        <time>2026-08-21T18:25:29.999Z</time>
      </trkpt>
      <trkpt lat="48.638870" lon="-1.511763">
        <ele>0.513</ele>
        <time>2026-08-21T18:25:30.999Z</time>
      </trkpt>
      <trkpt lat="48.638879" lon="-1.511770">
        <ele>0.456</ele>
        <time>2026-08-21T18:25:31.999Z</time>
      </trkpt>
      <trkpt lat="48.638886" lon="-1.511780">
        <ele>0.459</ele>
        <time>2026-08-21T18:25:32.999Z</time>
      </trkpt>
      <trkpt lat="48.638898" lon="-1.511787">
        <ele>0.414</ele>
        <time>2026-08-21T18:25:33.999Z</time>
      </trkpt>
      <trkpt lat="48.638909" lon="-1.511793">
        <ele>0.409</ele>
        <time>2026-08-21T18:25:34.999Z</time>
      </trkpt>
      <trkpt lat="48.638919" lon="-1.511803">
        <ele>0.497</ele>
        <time>2026-08-21T18:25:35.999Z</time>
      </trkpt>
      <trkpt lat="48.638926" lon="-1.511814">
        <ele>0.463</ele>
        <time>2026-08-21T18:25:36.999Z</time>
      </trkpt>
      <trkpt lat="48.638936" lon="-1.511824">
        <ele>0.456</ele>
        <time>2026-08-21T18:25:37.999Z</time>
      </trkpt>
      <trkpt lat="48.638945" lon="-1.511835">
        <ele>0.427</ele>
        <time>2026-08-21T18:25:38.999Z</time>
      </trkpt>
      <trkpt lat="48.638956" lon="-1.511846">
        <ele>0.450</ele>
        <time>2026-08-21T18:25:39.999Z</time>
      </trkpt>
      <trkpt lat="48.638972" lon="-1.511860">
        <ele>0.487</ele>
        <time>2026-08-21T18:25:41.999Z</time>
      </trkpt>
      <trkpt lat="48.638991" lon="-1.511878">
        <ele>0.538</ele>
        <time>2026-08-21T18:25:43.999Z</time>
      </trkpt>
      <trkpt lat="48.639002" lon="-1.511888">
        <ele>0.532</ele>
        <time>2026-08-21T18:25:44.999Z</time>
      </trkpt>
      <trkpt lat="48.639011" lon="-1.511895">
        <ele>0.549</ele>
        <time>2026-08-21T18:25:45.999Z</time>
      </trkpt>
      <trkpt lat="48.639025" lon="-1.511916">
        <ele>0.583</ele>
        <time>2026-08-21T18:25:47.999Z</time>
      </trkpt>
      <trkpt lat="48.639036" lon="-1.511925">
        <ele>0.525</ele>
        <time>2026-08-21T18:25:48.999Z</time>
      </trkpt>
      <trkpt lat="48.639044" lon="-1.511932">
        <ele>0.517</ele>
        <time>2026-08-21T18:25:49.999Z</time>
      </trkpt>
      <trkpt lat="48.639055" lon="-1.511939">
        <ele>0.509</ele>
        <time>2026-08-21T18:25:50.999Z</time>
      </trkpt>
      <trkpt lat="48.639062" lon="-1.511949">
        <ele>0.510</ele>
        <time>2026-08-21T18:25:51.999Z</time>
      </trkpt>
      <trkpt lat="48.639070" lon="-1.511956">
        <ele>0.516</ele>
        <time>2026-08-21T18:25:52.999Z</time>
      </trkpt>
      <trkpt lat="48.639083" lon="-1.511969">
        <ele>0.539</ele>
        <time>2026-08-21T18:25:53.999Z</time>
      </trkpt>
      <trkpt lat="48.639097" lon="-1.511977">
        <ele>0.610</ele>
        <time>2026-08-21T18:25:54.999Z</time>
      </trkpt>
      <trkpt lat="48.639109" lon="-1.511984">
        <ele>0.653</ele>
        <time>2026-08-21T18:25:55.999Z</time>
      </trkpt>
      <trkpt lat="48.639117" lon="-1.511990">
        <ele>0.650</ele>
        <time>2026-08-21T18:25:56.999Z</time>
      </trkpt>
      <trkpt lat="48.639131" lon="-1.512009">
        <ele>0.671</ele>
        <time>2026-08-21T18:25:58.999Z</time>
      </trkpt>
      <trkpt lat="48.639141" lon="-1.512020">
        <ele>0.685</ele>
        <time>2026-08-21T18:25:59.999Z</time>
      </trkpt>
      <trkpt lat="48.639151" lon="-1.512029">
        <ele>0.782</ele>
        <time>2026-08-21T18:26:00.999Z</time>
      </trkpt>
      <trkpt lat="48.639164" lon="-1.512047">
        <ele>0.732</ele>
        <time>2026-08-21T18:26:02.999Z</time>
      </trkpt>
      <trkpt lat="48.639172" lon="-1.512056">
        <ele>0.792</ele>
        <time>2026-08-21T18:26:03.999Z</time>
      </trkpt>
      <trkpt lat="48.639181" lon="-1.512070">
        <ele>0.711</ele>
        <time>2026-08-21T18:26:04.999Z</time>
      </trkpt>
      <trkpt lat="48.639191" lon="-1.512080">
        <ele>0.809</ele>
        <time>2026-08-21T18:26:05.999Z</time>
      </trkpt>
      <trkpt lat="48.639198" lon="-1.512090">
        <ele>0.895</ele>
        <time>2026-08-21T18:26:06.999Z</time>
      </trkpt>
      <trkpt lat="48.639209" lon="-1.512097">
        <ele>0.881</ele>
        <time>2026-08-21T18:26:07.999Z</time>
      </trkpt>
      <trkpt lat="48.639218" lon="-1.512102">
        <ele>0.834</ele>
        <time>2026-08-21T18:26:08.999Z</time>
      </trkpt>
      <trkpt lat="48.639228" lon="-1.512110">
        <ele>0.925</ele>
        <time>2026-08-21T18:26:09.999Z</time>
      </trkpt>
      <trkpt lat="48.639238" lon="-1.512121">
        <ele>0.928</ele>
        <time>2026-08-21T18:26:10.999Z</time>
      </trkpt>
      <trkpt lat="48.639249" lon="-1.512137">
        <ele>0.965</ele>
        <time>2026-08-21T18:26:11.999Z</time>
      </trkpt>
      <trkpt lat="48.639257" lon="-1.512149">
        <ele>0.936</ele>
        <time>2026-08-21T18:26:12.999Z</time>
      </trkpt>
      <trkpt lat="48.639266" lon="-1.512154">
        <ele>0.920</ele>
        <time>2026-08-21T18:26:13.999Z</time>
      </trkpt>
      <trkpt lat="48.639284" lon="-1.512169">
        <ele>0.937</ele>
        <time>2026-08-21T18:26:15.999Z</time>
      </trkpt>
      <trkpt lat="48.639295" lon="-1.512181">
        <ele>0.969</ele>
        <time>2026-08-21T18:26:16.999Z</time>
      </trkpt>
      <trkpt lat="48.639304" lon="-1.512186">
        <ele>0.904</ele>
        <time>2026-08-21T18:26:17.999Z</time>
      </trkpt>
      <trkpt lat="48.639317" lon="-1.512202">
        <ele>0.924</ele>
        <time>2026-08-21T18:26:19.999Z</time>
      </trkpt>
      <trkpt lat="48.639327" lon="-1.512211">
        <ele>0.909</ele>
        <time>2026-08-21T18:26:20.999Z</time>
      </trkpt>
      <trkpt lat="48.639339" lon="-1.512223">
        <ele>0.998</ele>
        <time>2026-08-21T18:26:21.999Z</time>
      </trkpt>
      <trkpt lat="48.639351" lon="-1.512234">
        <ele>0.934</ele>
        <time>2026-08-21T18:26:22.999Z</time>
      </trkpt>
      <trkpt lat="48.639361" lon="-1.512238">
        <ele>0.977</ele>
        <time>2026-08-21T18:26:23.999Z</time>
      </trkpt>
      <trkpt lat="48.639372" lon="-1.512257">
        <ele>0.938</ele>
        <time>2026-08-21T18:26:25.999Z</time>
      </trkpt>
      <trkpt lat="48.639383" lon="-1.512267">
        <ele>0.911</ele>
        <time>2026-08-21T18:26:26.999Z</time>
      </trkpt>
      <trkpt lat="48.639395" lon="-1.512276">
        <ele>0.978</ele>
        <time>2026-08-21T18:26:27.999Z</time>
      </trkpt>
      <trkpt lat="48.639405" lon="-1.512283">
        <ele>1.049</ele>
        <time>2026-08-21T18:26:28.999Z</time>
      </trkpt>
      <trkpt lat="48.639414" lon="-1.512289">
        <ele>1.083</ele>
        <time>2026-08-21T18:26:29.999Z</time>
      </trkpt>
      <trkpt lat="48.639424" lon="-1.512299">
        <ele>1.040</ele>
        <time>2026-08-21T18:26:30.999Z</time>
      </trkpt>
      <trkpt lat="48.639432" lon="-1.512312">
        <ele>1.017</ele>
        <time>2026-08-21T18:26:31.999Z</time>
      </trkpt>
      <trkpt lat="48.639441" lon="-1.512324">
        <ele>1.087</ele>
        <time>2026-08-21T18:26:32.999Z</time>
      </trkpt>
      <trkpt lat="48.639454" lon="-1.512340">
        <ele>1.015</ele>
        <time>2026-08-21T18:26:34.999Z</time>
      </trkpt>
      <trkpt lat="48.639462" lon="-1.512348">
        <ele>1.009</ele>
        <time>2026-08-21T18:26:35.999Z</time>
      </trkpt>
      <trkpt lat="48.639471" lon="-1.512363">
        <ele>1.013</ele>
        <time>2026-08-21T18:26:36.999Z</time>
      </trkpt>
      <trkpt lat="48.639480" lon="-1.512375">
        <ele>1.059</ele>
        <time>2026-08-21T18:26:37.999Z</time>
      </trkpt>
      <trkpt lat="48.639489" lon="-1.512384">
        <ele>1.132</ele>
        <time>2026-08-21T18:26:38.999Z</time>
      </trkpt>
      <trkpt lat="48.639497" lon="-1.512390">
        <ele>1.143</ele>
        <time>2026-08-21T18:26:39.999Z</time>
      </trkpt>
      <trkpt lat="48.639506" lon="-1.512399">
        <ele>1.236</ele>
        <time>2026-08-21T18:26:40.999Z</time>
      </trkpt>
      <trkpt lat="48.639516" lon="-1.512407">
        <ele>1.223</ele>
        <time>2026-08-21T18:26:41.999Z</time>
      </trkpt>
      <trkpt lat="48.639527" lon="-1.512417">
        <ele>1.394</ele>
        <time>2026-08-21T18:26:42.999Z</time>
      </trkpt>
      <trkpt lat="48.639539" lon="-1.512421">
        <ele>1.348</ele>
        <time>2026-08-21T18:26:43.999Z</time>
      </trkpt>
      <trkpt lat="48.639548" lon="-1.512427">
        <ele>1.315</ele>
        <time>2026-08-21T18:26:44.999Z</time>
      </trkpt>
      <trkpt lat="48.639553" lon="-1.512438">
        <ele>1.343</ele>
        <time>2026-08-21T18:26:45.999Z</time>
      </trkpt>
      <trkpt lat="48.639562" lon="-1.512449">
        <ele>1.364</ele>
        <time>2026-08-21T18:26:46.999Z</time>
      </trkpt>
      <trkpt lat="48.639573" lon="-1.512462">
        <ele>1.310</ele>
        <time>2026-08-21T18:26:47.999Z</time>
      </trkpt>
      <trkpt lat="48.639582" lon="-1.512471">
        <ele>1.309</ele>
        <time>2026-08-21T18:26:48.999Z</time>
      </trkpt>
      <trkpt lat="48.639599" lon="-1.512482">
        <ele>1.396</ele>
        <time>2026-08-21T18:26:50.999Z</time>
      </trkpt>
      <trkpt lat="48.639608" lon="-1.512491">
        <ele>1.482</ele>
        <time>2026-08-21T18:26:51.999Z</time>
      </trkpt>
      <trkpt lat="48.639619" lon="-1.512498">
        <ele>1.495</ele>
        <time>2026-08-21T18:26:52.999Z</time>
      </trkpt>
      <trkpt lat="48.639630" lon="-1.512502">
        <ele>1.486</ele>
        <time>2026-08-21T18:26:53.999Z</time>
      </trkpt>
      <trkpt lat="48.639639" lon="-1.512509">
        <ele>1.479</ele>
        <time>2026-08-21T18:26:54.999Z</time>
      </trkpt>
      <trkpt lat="48.639654" lon="-1.512530">
        <ele>1.486</ele>
        <time>2026-08-21T18:26:56.999Z</time>
      </trkpt>
      <trkpt lat="48.639665" lon="-1.512541">
        <ele>1.497</ele>
        <time>2026-08-21T18:26:57.999Z</time>
      </trkpt>
      <trkpt lat="48.639677" lon="-1.512545">
        <ele>1.431</ele>
        <time>2026-08-21T18:26:58.999Z</time>
      </trkpt>
      <trkpt lat="48.639688" lon="-1.512548">
        <ele>1.478</ele>
        <time>2026-08-21T18:27:00.999Z</time>
      </trkpt>
      <trkpt lat="48.639701" lon="-1.512554">
        <ele>1.431</ele>
        <time>2026-08-21T18:27:01.999Z</time>
      </trkpt>
      <trkpt lat="48.639715" lon="-1.512563">
        <ele>1.461</ele>
        <time>2026-08-21T18:27:02.999Z</time>
      </trkpt>
      <trkpt lat="48.639729" lon="-1.512572">
        <ele>1.407</ele>
        <time>2026-08-21T18:27:03.999Z</time>
      </trkpt>
      <trkpt lat="48.639737" lon="-1.512581">
        <ele>1.409</ele>
        <time>2026-08-21T18:27:04.999Z</time>
      </trkpt>
      <trkpt lat="48.639752" lon="-1.512594">
        <ele>1.465</ele>
        <time>2026-08-21T18:27:06.999Z</time>
      </trkpt>
      <trkpt lat="48.639764" lon="-1.512600">
        <ele>1.421</ele>
        <time>2026-08-21T18:27:07.999Z</time>
      </trkpt>
      <trkpt lat="48.639776" lon="-1.512605">
        <ele>1.434</ele>
        <time>2026-08-21T18:27:08.999Z</time>
      </trkpt>
      <trkpt lat="48.639794" lon="-1.512610">
        <ele>1.415</ele>
        <time>2026-08-21T18:27:10.999Z</time>
      </trkpt>
      <trkpt lat="48.639803" lon="-1.512615">
        <ele>1.468</ele>
        <time>2026-08-21T18:27:11.999Z</time>
      </trkpt>
      <trkpt lat="48.639816" lon="-1.512619">
        <ele>1.335</ele>
        <time>2026-08-21T18:27:12.999Z</time>
      </trkpt>
      <trkpt lat="48.639829" lon="-1.512626">
        <ele>1.366</ele>
        <time>2026-08-21T18:27:13.999Z</time>
      </trkpt>
      <trkpt lat="48.639839" lon="-1.512634">
        <ele>1.320</ele>
        <time>2026-08-21T18:27:14.999Z</time>
      </trkpt>
      <trkpt lat="48.639849" lon="-1.512635">
        <ele>1.337</ele>
        <time>2026-08-21T18:27:15.999Z</time>
      </trkpt>
      <trkpt lat="48.639858" lon="-1.512637">
        <ele>1.331</ele>
        <time>2026-08-21T18:27:16.999Z</time>
      </trkpt>
      <trkpt lat="48.639869" lon="-1.512641">
        <ele>1.361</ele>
        <time>2026-08-21T18:27:17.999Z</time>
      </trkpt>
      <trkpt lat="48.639881" lon="-1.512649">
        <ele>1.307</ele>
        <time>2026-08-21T18:27:18.999Z</time>
      </trkpt>
      <trkpt lat="48.639893" lon="-1.512649">
        <ele>1.309</ele>
        <time>2026-08-21T18:27:19.999Z</time>
      </trkpt>
      <trkpt lat="48.639902" lon="-1.512650">
        <ele>1.375</ele>
        <time>2026-08-21T18:27:20.999Z</time>
      </trkpt>
      <trkpt lat="48.639916" lon="-1.512650">
        <ele>1.331</ele>
        <time>2026-08-21T18:27:21.999Z</time>
      </trkpt>
      <trkpt lat="48.639926" lon="-1.512656">
        <ele>1.314</ele>
        <time>2026-08-21T18:27:22.999Z</time>
      </trkpt>
      <trkpt lat="48.639938" lon="-1.512659">
        <ele>1.415</ele>
        <time>2026-08-21T18:27:23.999Z</time>
      </trkpt>
      <trkpt lat="48.639955" lon="-1.512664">
        <ele>1.428</ele>
        <time>2026-08-21T18:27:25.999Z</time>
      </trkpt>
      <trkpt lat="48.639967" lon="-1.512663">
        <ele>1.485</ele>
        <time>2026-08-21T18:27:26.999Z</time>
      </trkpt>
      <trkpt lat="48.639980" lon="-1.512665">
        <ele>1.416</ele>
        <time>2026-08-21T18:27:27.999Z</time>
      </trkpt>
      <trkpt lat="48.639992" lon="-1.512667">
        <ele>1.440</ele>
        <time>2026-08-21T18:27:28.999Z</time>
      </trkpt>
      <trkpt lat="48.640003" lon="-1.512672">
        <ele>1.457</ele>
        <time>2026-08-21T18:27:29.999Z</time>
      </trkpt>
      <trkpt lat="48.640012" lon="-1.512676">
        <ele>1.422</ele>
        <time>2026-08-21T18:27:30.999Z</time>
      </trkpt>
      <trkpt lat="48.640023" lon="-1.512676">
        <ele>1.462</ele>
        <time>2026-08-21T18:27:31.999Z</time>
      </trkpt>
      <trkpt lat="48.640035" lon="-1.512679">
        <ele>1.408</ele>
        <time>2026-08-21T18:27:32.999Z</time>
      </trkpt>
      <trkpt lat="48.640044" lon="-1.512681">
        <ele>1.409</ele>
        <time>2026-08-21T18:27:33.999Z</time>
      </trkpt>
      <trkpt lat="48.640056" lon="-1.512683">
        <ele>1.594</ele>
        <time>2026-08-21T18:27:34.999Z</time>
      </trkpt>
      <trkpt lat="48.640065" lon="-1.512683">
        <ele>1.520</ele>
        <time>2026-08-21T18:27:35.999Z</time>
      </trkpt>
      <trkpt lat="48.640076" lon="-1.512682">
        <ele>1.573</ele>
        <time>2026-08-21T18:27:36.999Z</time>
      </trkpt>
      <trkpt lat="48.640089" lon="-1.512681">
        <ele>1.534</ele>
        <time>2026-08-21T18:27:37.999Z</time>
      </trkpt>
      <trkpt lat="48.640102" lon="-1.512684">
        <ele>1.597</ele>
        <time>2026-08-21T18:27:38.999Z</time>
      </trkpt>
      <trkpt lat="48.640113" lon="-1.512684">
        <ele>1.664</ele>
        <time>2026-08-21T18:27:39.999Z</time>
      </trkpt>
      <trkpt lat="48.640129" lon="-1.512691">
        <ele>1.695</ele>
        <time>2026-08-21T18:27:41.999Z</time>
      </trkpt>
      <trkpt lat="48.640142" lon="-1.512698">
        <ele>1.769</ele>
        <time>2026-08-21T18:27:42.999Z</time>
      </trkpt>
      <trkpt lat="48.640154" lon="-1.512698">
        <ele>1.716</ele>
        <time>2026-08-21T18:27:43.999Z</time>
      </trkpt>
      <trkpt lat="48.640170" lon="-1.512703">
        <ele>1.827</ele>
        <time>2026-08-21T18:27:45.999Z</time>
      </trkpt>
      <trkpt lat="48.640186" lon="-1.512705">
        <ele>1.868</ele>
        <time>2026-08-21T18:27:46.999Z</time>
      </trkpt>
      <trkpt lat="48.640200" lon="-1.512709">
        <ele>1.814</ele>
        <time>2026-08-21T18:27:47.999Z</time>
      </trkpt>
      <trkpt lat="48.640213" lon="-1.512714">
        <ele>1.809</ele>
        <time>2026-08-21T18:27:48.999Z</time>
      </trkpt>
      <trkpt lat="48.640231" lon="-1.512729">
        <ele>1.914</ele>
        <time>2026-08-21T18:27:50.999Z</time>
      </trkpt>
      <trkpt lat="48.640238" lon="-1.512743">
        <ele>1.990</ele>
        <time>2026-08-21T18:27:51.999Z</time>
      </trkpt>
      <trkpt lat="48.640250" lon="-1.512739">
        <ele>1.963</ele>
        <time>2026-08-21T18:27:52.999Z</time>
      </trkpt>
      <trkpt lat="48.640262" lon="-1.512739">
        <ele>1.994</ele>
        <time>2026-08-21T18:27:53.999Z</time>
      </trkpt>
      <trkpt lat="48.640272" lon="-1.512743">
        <ele>2.017</ele>
        <time>2026-08-21T18:27:54.999Z</time>
      </trkpt>
      <trkpt lat="48.640291" lon="-1.512753">
        <ele>2.014</ele>
        <time>2026-08-21T18:27:56.999Z</time>
      </trkpt>
      <trkpt lat="48.640304" lon="-1.512753">
        <ele>2.025</ele>
        <time>2026-08-21T18:27:57.999Z</time>
      </trkpt>
      <trkpt lat="48.640319" lon="-1.512752">
        <ele>2.079</ele>
        <time>2026-08-21T18:27:58.999Z</time>
      </trkpt>
      <trkpt lat="48.640329" lon="-1.512753">
        <ele>2.096</ele>
        <time>2026-08-21T18:27:59.999Z</time>
      </trkpt>
      <trkpt lat="48.640345" lon="-1.512759">
        <ele>2.058</ele>
        <time>2026-08-21T18:28:01.999Z</time>
      </trkpt>
      <trkpt lat="48.640357" lon="-1.512764">
        <ele>2.052</ele>
        <time>2026-08-21T18:28:02.999Z</time>
      </trkpt>
      <trkpt lat="48.640369" lon="-1.512762">
        <ele>2.017</ele>
        <time>2026-08-21T18:28:03.999Z</time>
      </trkpt>
      <trkpt lat="48.640383" lon="-1.512760">
        <ele>2.009</ele>
        <time>2026-08-21T18:28:04.999Z</time>
      </trkpt>
      <trkpt lat="48.640397" lon="-1.512756">
        <ele>2.067</ele>
        <time>2026-08-21T18:28:06.999Z</time>
      </trkpt>
      <trkpt lat="48.640408" lon="-1.512760">
        <ele>1.983</ele>
        <time>2026-08-21T18:28:07.999Z</time>
      </trkpt>
      <trkpt lat="48.640424" lon="-1.512762">
        <ele>1.986</ele>
        <time>2026-08-21T18:28:08.999Z</time>
      </trkpt>
      <trkpt lat="48.640439" lon="-1.512767">
        <ele>1.957</ele>
        <time>2026-08-21T18:28:09.999Z</time>
      </trkpt>
      <trkpt lat="48.640450" lon="-1.512776">
        <ele>1.980</ele>
        <time>2026-08-21T18:28:10.999Z</time>
      </trkpt>
      <trkpt lat="48.640460" lon="-1.512778">
        <ele>1.977</ele>
        <time>2026-08-21T18:28:11.999Z</time>
      </trkpt>
      <trkpt lat="48.640470" lon="-1.512777">
        <ele>1.918</ele>
        <time>2026-08-21T18:28:12.999Z</time>
      </trkpt>
      <trkpt lat="48.640480" lon="-1.512780">
        <ele>1.962</ele>
        <time>2026-08-21T18:28:13.999Z</time>
      </trkpt>
      <trkpt lat="48.640492" lon="-1.512786">
        <ele>1.999</ele>
        <time>2026-08-21T18:28:14.999Z</time>
      </trkpt>
      <trkpt lat="48.640504" lon="-1.512791">
        <ele>1.943</ele>
        <time>2026-08-21T18:28:15.999Z</time>
      </trkpt>
      <trkpt lat="48.640515" lon="-1.512793">
        <ele>1.964</ele>
        <time>2026-08-21T18:28:16.999Z</time>
      </trkpt>
      <trkpt lat="48.640527" lon="-1.512798">
        <ele>1.810</ele>
        <time>2026-08-21T18:28:17.999Z</time>
      </trkpt>
      <trkpt lat="48.640536" lon="-1.512802">
        <ele>1.809</ele>
        <time>2026-08-21T18:28:18.999Z</time>
      </trkpt>
      <trkpt lat="48.640546" lon="-1.512806">
        <ele>1.876</ele>
        <time>2026-08-21T18:28:19.999Z</time>
      </trkpt>
      <trkpt lat="48.640557" lon="-1.512810">
        <ele>1.772</ele>
        <time>2026-08-21T18:28:20.999Z</time>
      </trkpt>
      <trkpt lat="48.640566" lon="-1.512813">
        <ele>1.525</ele>
        <time>2026-08-21T18:28:21.999Z</time>
      </trkpt>
      <trkpt lat="48.640578" lon="-1.512813">
        <ele>1.316</ele>
        <time>2026-08-21T18:28:22.999Z</time>
      </trkpt>
      <trkpt lat="48.640590" lon="-1.512814">
        <ele>1.229</ele>
        <time>2026-08-21T18:28:23.999Z</time>
      </trkpt>
      <trkpt lat="48.640602" lon="-1.512814">
        <ele>1.276</ele>
        <time>2026-08-21T18:28:24.999Z</time>
      </trkpt>
      <trkpt lat="48.640616" lon="-1.512813">
        <ele>1.297</ele>
        <time>2026-08-21T18:28:25.999Z</time>
      </trkpt>
      <trkpt lat="48.640626" lon="-1.512818">
        <ele>1.231</ele>
        <time>2026-08-21T18:28:26.999Z</time>
      </trkpt>
      <trkpt lat="48.640635" lon="-1.512820">
        <ele>1.238</ele>
        <time>2026-08-21T18:28:27.999Z</time>
      </trkpt>
      <trkpt lat="48.640657" lon="-1.512819">
        <ele>1.222</ele>
        <time>2026-08-21T18:28:29.999Z</time>
      </trkpt>
      <trkpt lat="48.640671" lon="-1.512823">
        <ele>1.262</ele>
        <time>2026-08-21T18:28:30.999Z</time>
      </trkpt>
      <trkpt lat="48.640688" lon="-1.512824">
        <ele>1.208</ele>
        <time>2026-08-21T18:28:31.999Z</time>
      </trkpt>
      <trkpt lat="48.640707" lon="-1.512836">
        <ele>1.209</ele>
        <time>2026-08-21T18:28:33.999Z</time>
      </trkpt>
      <trkpt lat="48.640717" lon="-1.512845">
        <ele>1.284</ele>
        <time>2026-08-21T18:28:34.999Z</time>
      </trkpt>
      <trkpt lat="48.640730" lon="-1.512845">
        <ele>1.260</ele>
        <time>2026-08-21T18:28:35.999Z</time>
      </trkpt>
      <trkpt lat="48.640742" lon="-1.512844">
        <ele>1.253</ele>
        <time>2026-08-21T18:28:36.999Z</time>
      </trkpt>
      <trkpt lat="48.640753" lon="-1.512842">
        <ele>1.244</ele>
        <time>2026-08-21T18:28:37.999Z</time>
      </trkpt>
      <trkpt lat="48.640769" lon="-1.512845">
        <ele>1.267</ele>
        <time>2026-08-21T18:28:39.999Z</time>
      </trkpt>
      <trkpt lat="48.640782" lon="-1.512851">
        <ele>1.284</ele>
        <time>2026-08-21T18:28:40.999Z</time>
      </trkpt>
      <trkpt lat="48.640795" lon="-1.512853">
        <ele>1.255</ele>
        <time>2026-08-21T18:28:41.999Z</time>
      </trkpt>
      <trkpt lat="48.640806" lon="-1.512854">
        <ele>1.299</ele>
        <time>2026-08-21T18:28:42.999Z</time>
      </trkpt>
      <trkpt lat="48.640816" lon="-1.512855">
        <ele>1.266</ele>
        <time>2026-08-21T18:28:43.999Z</time>
      </trkpt>
      <trkpt lat="48.640827" lon="-1.512857">
        <ele>1.221</ele>
        <time>2026-08-21T18:28:44.999Z</time>
      </trkpt>
      <trkpt lat="48.640840" lon="-1.512859">
        <ele>1.341</ele>
        <time>2026-08-21T18:28:45.999Z</time>
      </trkpt>
      <trkpt lat="48.640855" lon="-1.512860">
        <ele>1.305</ele>
        <time>2026-08-21T18:28:46.999Z</time>
      </trkpt>
      <trkpt lat="48.640868" lon="-1.512860">
        <ele>1.509</ele>
        <time>2026-08-21T18:28:47.999Z</time>
      </trkpt>
      <trkpt lat="48.640877" lon="-1.512860">
        <ele>1.624</ele>
        <time>2026-08-21T18:28:48.999Z</time>
      </trkpt>
      <trkpt lat="48.640892" lon="-1.512865">
        <ele>1.780</ele>
        <time>2026-08-21T18:28:50.999Z</time>
      </trkpt>
      <trkpt lat="48.640905" lon="-1.512868">
        <ele>1.743</ele>
        <time>2026-08-21T18:28:51.999Z</time>
      </trkpt>
      <trkpt lat="48.640917" lon="-1.512872">
        <ele>1.754</ele>
        <time>2026-08-21T18:28:52.999Z</time>
      </trkpt>
      <trkpt lat="48.640927" lon="-1.512881">
        <ele>1.727</ele>
        <time>2026-08-21T18:28:53.999Z</time>
      </trkpt>
      <trkpt lat="48.640945" lon="-1.512891">
        <ele>1.724</ele>
        <time>2026-08-21T18:28:55.999Z</time>
      </trkpt>
      <trkpt lat="48.640958" lon="-1.512893">
        <ele>1.725</ele>
        <time>2026-08-21T18:28:56.999Z</time>
      </trkpt>
      <trkpt lat="48.640969" lon="-1.512893">
        <ele>1.789</ele>
        <time>2026-08-21T18:28:57.999Z</time>
      </trkpt>
      <trkpt lat="48.640980" lon="-1.512895">
        <ele>1.756</ele>
        <time>2026-08-21T18:28:58.999Z</time>
      </trkpt>
      <trkpt lat="48.640989" lon="-1.512899">
        <ele>1.778</ele>
        <time>2026-08-21T18:28:59.999Z</time>
      </trkpt>
      <trkpt lat="48.641008" lon="-1.512902">
        <ele>1.733</ele>
        <time>2026-08-21T18:29:01.999Z</time>
      </trkpt>
      <trkpt lat="48.641019" lon="-1.512901">
        <ele>1.726</ele>
        <time>2026-08-21T18:29:02.999Z</time>
      </trkpt>
      <trkpt lat="48.641028" lon="-1.512908">
        <ele>1.709</ele>
        <time>2026-08-21T18:29:03.999Z</time>
      </trkpt>
      <trkpt lat="48.641039" lon="-1.512911">
        <ele>1.759</ele>
        <time>2026-08-21T18:29:04.999Z</time>
      </trkpt>
      <trkpt lat="48.641049" lon="-1.512916">
        <ele>1.715</ele>
        <time>2026-08-21T18:29:05.999Z</time>
      </trkpt>
      <trkpt lat="48.641060" lon="-1.512918">
        <ele>1.758</ele>
        <time>2026-08-21T18:29:06.999Z</time>
      </trkpt>
      <trkpt lat="48.641073" lon="-1.512920">
        <ele>1.789</ele>
        <time>2026-08-21T18:29:07.999Z</time>
      </trkpt>
      <trkpt lat="48.641085" lon="-1.512920">
        <ele>1.752</ele>
        <time>2026-08-21T18:29:08.999Z</time>
      </trkpt>
      <trkpt lat="48.641095" lon="-1.512924">
        <ele>1.769</ele>
        <time>2026-08-21T18:29:09.999Z</time>
      </trkpt>
      <trkpt lat="48.641104" lon="-1.512922">
        <ele>1.760</ele>
        <time>2026-08-21T18:29:10.999Z</time>
      </trkpt>
      <trkpt lat="48.641113" lon="-1.512926">
        <ele>1.784</ele>
        <time>2026-08-21T18:29:11.999Z</time>
      </trkpt>
      <trkpt lat="48.641128" lon="-1.512927">
        <ele>1.741</ele>
        <time>2026-08-21T18:29:12.999Z</time>
      </trkpt>
      <trkpt lat="48.641140" lon="-1.512932">
        <ele>1.757</ele>
        <time>2026-08-21T18:29:13.999Z</time>
      </trkpt>
      <trkpt lat="48.641148" lon="-1.512940">
        <ele>1.700</ele>
        <time>2026-08-21T18:29:14.999Z</time>
      </trkpt>
      <trkpt lat="48.641160" lon="-1.512944">
        <ele>1.720</ele>
        <time>2026-08-21T18:29:15.999Z</time>
      </trkpt>
      <trkpt lat="48.641173" lon="-1.512948">
        <ele>1.709</ele>
        <time>2026-08-21T18:29:16.999Z</time>
      </trkpt>
      <trkpt lat="48.641184" lon="-1.512952">
        <ele>1.787</ele>
        <time>2026-08-21T18:29:17.999Z</time>
      </trkpt>
      <trkpt lat="48.641198" lon="-1.512955">
        <ele>1.743</ele>
        <time>2026-08-21T18:29:18.999Z</time>
      </trkpt>
      <trkpt lat="48.641207" lon="-1.512960">
        <ele>1.796</ele>
        <time>2026-08-21T18:29:19.999Z</time>
      </trkpt>
      <trkpt lat="48.641220" lon="-1.512964">
        <ele>1.767</ele>
        <time>2026-08-21T18:29:20.999Z</time>
      </trkpt>
      <trkpt lat="48.641234" lon="-1.512966">
        <ele>1.740</ele>
        <time>2026-08-21T18:29:21.999Z</time>
      </trkpt>
      <trkpt lat="48.641245" lon="-1.512967">
        <ele>1.767</ele>
        <time>2026-08-21T18:29:22.999Z</time>
      </trkpt>
      <trkpt lat="48.641255" lon="-1.512971">
        <ele>1.748</ele>
        <time>2026-08-21T18:29:23.999Z</time>
      </trkpt>
      <trkpt lat="48.641277" lon="-1.512983">
        <ele>1.722</ele>
        <time>2026-08-21T18:29:25.999Z</time>
      </trkpt>
      <trkpt lat="48.641292" lon="-1.512988">
        <ele>1.729</ele>
        <time>2026-08-21T18:29:26.999Z</time>
      </trkpt>
      <trkpt lat="48.641303" lon="-1.512993">
        <ele>1.799</ele>
        <time>2026-08-21T18:29:27.999Z</time>
      </trkpt>
      <trkpt lat="48.641312" lon="-1.512998">
        <ele>1.707</ele>
        <time>2026-08-21T18:29:28.999Z</time>
      </trkpt>
      <trkpt lat="48.641321" lon="-1.513003">
        <ele>1.727</ele>
        <time>2026-08-21T18:29:29.999Z</time>
      </trkpt>
      <trkpt lat="48.641332" lon="-1.513008">
        <ele>1.809</ele>
        <time>2026-08-21T18:29:30.999Z</time>
      </trkpt>
      <trkpt lat="48.641341" lon="-1.513010">
        <ele>1.891</ele>
        <time>2026-08-21T18:29:31.999Z</time>
      </trkpt>
      <trkpt lat="48.641352" lon="-1.513009">
        <ele>1.817</ele>
        <time>2026-08-21T18:29:32.999Z</time>
      </trkpt>
      <trkpt lat="48.641369" lon="-1.513023">
        <ele>1.860</ele>
        <time>2026-08-21T18:29:34.999Z</time>
      </trkpt>
      <trkpt lat="48.641380" lon="-1.513031">
        <ele>1.951</ele>
        <time>2026-08-21T18:29:35.999Z</time>
      </trkpt>
      <trkpt lat="48.641394" lon="-1.513037">
        <ele>1.964</ele>
        <time>2026-08-21T18:29:36.999Z</time>
      </trkpt>
      <trkpt lat="48.641408" lon="-1.513037">
        <ele>1.931</ele>
        <time>2026-08-21T18:29:37.999Z</time>
      </trkpt>
      <trkpt lat="48.641425" lon="-1.513043">
        <ele>1.912</ele>
        <time>2026-08-21T18:29:39.999Z</time>
      </trkpt>
      <trkpt lat="48.641444" lon="-1.513054">
        <ele>1.996</ele>
        <time>2026-08-21T18:29:41.999Z</time>
      </trkpt>
      <trkpt lat="48.641435" lon="-1.513050">
        <ele>1.923</ele>
        <time>2026-08-21T18:29:46.999Z</time>
      </trkpt>
      <trkpt lat="48.641420" lon="-1.513049">
        <ele>1.912</ele>
        <time>2026-08-21T18:29:49Z</time>
      </trkpt>
      <trkpt lat="48.641411" lon="-1.513043">
        <ele>1.932</ele>
        <time>2026-08-21T18:29:50Z</time>
      </trkpt>
      <trkpt lat="48.641402" lon="-1.513037">
        <ele>1.905</ele>
        <time>2026-08-21T18:29:51Z</time>
      </trkpt>
      <trkpt lat="48.641389" lon="-1.513036">
        <ele>1.809</ele>
        <time>2026-08-21T18:29:53Z</time>
      </trkpt>
      <trkpt lat="48.641376" lon="-1.513040">
        <ele>1.823</ele>
        <time>2026-08-21T18:29:56Z</time>
      </trkpt>
      <trkpt lat="48.641364" lon="-1.513044">
        <ele>1.879</ele>
        <time>2026-08-21T18:29:58Z</time>
      </trkpt>
      <trkpt lat="48.641355" lon="-1.513040">
        <ele>1.942</ele>
        <time>2026-08-21T18:30:02Z</time>
      </trkpt>
      <trkpt lat="48.641364" lon="-1.513043">
        <ele>1.963</ele>
        <time>2026-08-21T18:30:11Z</time>
      </trkpt>
      <trkpt lat="48.641373" lon="-1.513050">
        <ele>1.996</ele>
        <time>2026-08-21T18:30:34Z</time>
      </trkpt>
      <trkpt lat="48.641389" lon="-1.513065">
        <ele>1.963</ele>
        <time>2026-08-21T18:30:36Z</time>
      </trkpt>
      <trkpt lat="48.641397" lon="-1.513072">
        <ele>1.944</ele>
        <time>2026-08-21T18:30:37Z</time>
      </trkpt>
      <trkpt lat="48.641409" lon="-1.513077">
        <ele>1.968</ele>
        <time>2026-08-21T18:30:38Z</time>
      </trkpt>
      <trkpt lat="48.641424" lon="-1.513083">
        <ele>1.955</ele>
        <time>2026-08-21T18:30:39Z</time>
      </trkpt>
      <trkpt lat="48.641436" lon="-1.513090">
        <ele>1.911</ele>
        <time>2026-08-21T18:30:40Z</time>
      </trkpt>
      <trkpt lat="48.641448" lon="-1.513093">
        <ele>1.821</ele>
        <time>2026-08-21T18:30:41Z</time>
      </trkpt>
      <trkpt lat="48.641460" lon="-1.513099">
        <ele>1.803</ele>
        <time>2026-08-21T18:30:42Z</time>
      </trkpt>
      <trkpt lat="48.641472" lon="-1.513099">
        <ele>1.709</ele>
        <time>2026-08-21T18:30:43Z</time>
      </trkpt>
      <trkpt lat="48.641482" lon="-1.513105">
        <ele>1.713</ele>
        <time>2026-08-21T18:30:44Z</time>
      </trkpt>
      <trkpt lat="48.641492" lon="-1.513110">
        <ele>1.679</ele>
        <time>2026-08-21T18:30:45Z</time>
      </trkpt>
      <trkpt lat="48.641502" lon="-1.513111">
        <ele>1.522</ele>
        <time>2026-08-21T18:30:46Z</time>
      </trkpt>
      <trkpt lat="48.641511" lon="-1.513115">
        <ele>1.593</ele>
        <time>2026-08-21T18:30:47Z</time>
      </trkpt>
      <trkpt lat="48.641519" lon="-1.513126">
        <ele>1.426</ele>
        <time>2026-08-21T18:30:48Z</time>
      </trkpt>
      <trkpt lat="48.641531" lon="-1.513133">
        <ele>1.443</ele>
        <time>2026-08-21T18:30:49Z</time>
      </trkpt>
      <trkpt lat="48.641542" lon="-1.513136">
        <ele>1.344</ele>
        <time>2026-08-21T18:30:50Z</time>
      </trkpt>
      <trkpt lat="48.641553" lon="-1.513138">
        <ele>1.378</ele>
        <time>2026-08-21T18:30:51Z</time>
      </trkpt>
      <trkpt lat="48.641568" lon="-1.513138">
        <ele>1.215</ele>
        <time>2026-08-21T18:30:52Z</time>
      </trkpt>
      <trkpt lat="48.641580" lon="-1.513139">
        <ele>1.279</ele>
        <time>2026-08-21T18:30:53Z</time>
      </trkpt>
      <trkpt lat="48.641591" lon="-1.513142">
        <ele>1.205</ele>
        <time>2026-08-21T18:30:54Z</time>
      </trkpt>
      <trkpt lat="48.641603" lon="-1.513147">
        <ele>1.125</ele>
        <time>2026-08-21T18:30:55Z</time>
      </trkpt>
      <trkpt lat="48.641619" lon="-1.513151">
        <ele>1.209</ele>
        <time>2026-08-21T18:30:56Z</time>
      </trkpt>
      <trkpt lat="48.641632" lon="-1.513153">
        <ele>1.279</ele>
        <time>2026-08-21T18:30:57Z</time>
      </trkpt>
      <trkpt lat="48.641646" lon="-1.513156">
        <ele>1.295</ele>
        <time>2026-08-21T18:30:58Z</time>
      </trkpt>
      <trkpt lat="48.641660" lon="-1.513159">
        <ele>1.338</ele>
        <time>2026-08-21T18:30:59Z</time>
      </trkpt>
      <trkpt lat="48.641673" lon="-1.513163">
        <ele>1.369</ele>
        <time>2026-08-21T18:31:00Z</time>
      </trkpt>
      <trkpt lat="48.641687" lon="-1.513167">
        <ele>1.382</ele>
        <time>2026-08-21T18:31:01Z</time>
      </trkpt>
      <trkpt lat="48.641703" lon="-1.513172">
        <ele>1.379</ele>
        <time>2026-08-21T18:31:03Z</time>
      </trkpt>
      <trkpt lat="48.641721" lon="-1.513174">
        <ele>1.390</ele>
        <time>2026-08-21T18:31:05Z</time>
      </trkpt>
      <trkpt lat="48.641731" lon="-1.513179">
        <ele>1.394</ele>
        <time>2026-08-21T18:31:06Z</time>
      </trkpt>
      <trkpt lat="48.641748" lon="-1.513185">
        <ele>1.371</ele>
        <time>2026-08-21T18:31:08Z</time>
      </trkpt>
      <trkpt lat="48.641758" lon="-1.513186">
        <ele>1.316</ele>
        <time>2026-08-21T18:31:09Z</time>
      </trkpt>
      <trkpt lat="48.641768" lon="-1.513187">
        <ele>1.376</ele>
        <time>2026-08-21T18:31:10Z</time>
      </trkpt>
      <trkpt lat="48.641778" lon="-1.513188">
        <ele>1.313</ele>
        <time>2026-08-21T18:31:11Z</time>
      </trkpt>
      <trkpt lat="48.641789" lon="-1.513190">
        <ele>1.309</ele>
        <time>2026-08-21T18:31:12Z</time>
      </trkpt>
      <trkpt lat="48.641800" lon="-1.513194">
        <ele>1.413</ele>
        <time>2026-08-21T18:31:13Z</time>
      </trkpt>
      <trkpt lat="48.641823" lon="-1.513195">
        <ele>1.499</ele>
        <time>2026-08-21T18:31:15Z</time>
      </trkpt>
      <trkpt lat="48.641835" lon="-1.513190">
        <ele>1.482</ele>
        <time>2026-08-21T18:31:16Z</time>
      </trkpt>
      <trkpt lat="48.641847" lon="-1.513190">
        <ele>1.473</ele>
        <time>2026-08-21T18:31:17Z</time>
      </trkpt>
      <trkpt lat="48.641858" lon="-1.513192">
        <ele>1.616</ele>
        <time>2026-08-21T18:31:18Z</time>
      </trkpt>
      <trkpt lat="48.641873" lon="-1.513194">
        <ele>1.723</ele>
        <time>2026-08-21T18:31:19Z</time>
      </trkpt>
      <trkpt lat="48.641886" lon="-1.513195">
        <ele>2.054</ele>
        <time>2026-08-21T18:31:20Z</time>
      </trkpt>
      <trkpt lat="48.641902" lon="-1.513191">
        <ele>2.268</ele>
        <time>2026-08-21T18:31:22Z</time>
      </trkpt>
      <trkpt lat="48.641919" lon="-1.513191">
        <ele>2.345</ele>
        <time>2026-08-21T18:31:24Z</time>
      </trkpt>
      <trkpt lat="48.641935" lon="-1.513191">
        <ele>2.385</ele>
        <time>2026-08-21T18:31:26Z</time>
      </trkpt>
      <trkpt lat="48.641945" lon="-1.513189">
        <ele>2.389</ele>
        <time>2026-08-21T18:31:27Z</time>
      </trkpt>
      <trkpt lat="48.641958" lon="-1.513188">
        <ele>2.317</ele>
        <time>2026-08-21T18:31:28Z</time>
      </trkpt>
      <trkpt lat="48.641972" lon="-1.513183">
        <ele>2.309</ele>
        <time>2026-08-21T18:31:29Z</time>
      </trkpt>
      <trkpt lat="48.641985" lon="-1.513180">
        <ele>2.350</ele>
        <time>2026-08-21T18:31:30Z</time>
      </trkpt>
      <trkpt lat="48.641997" lon="-1.513177">
        <ele>2.386</ele>
        <time>2026-08-21T18:31:31Z</time>
      </trkpt>
      <trkpt lat="48.642005" lon="-1.513180">
        <ele>2.319</ele>
        <time>2026-08-21T18:31:32Z</time>
      </trkpt>
      <trkpt lat="48.642015" lon="-1.513182">
        <ele>2.370</ele>
        <time>2026-08-21T18:31:33Z</time>
      </trkpt>
      <trkpt lat="48.642024" lon="-1.513187">
        <ele>2.333</ele>
        <time>2026-08-21T18:31:34Z</time>
      </trkpt>
      <trkpt lat="48.642035" lon="-1.513188">
        <ele>2.390</ele>
        <time>2026-08-21T18:31:35Z</time>
      </trkpt>
      <trkpt lat="48.642046" lon="-1.513192">
        <ele>2.311</ele>
        <time>2026-08-21T18:31:36Z</time>
      </trkpt>
      <trkpt lat="48.642056" lon="-1.513190">
        <ele>2.315</ele>
        <time>2026-08-21T18:31:37Z</time>
      </trkpt>
      <trkpt lat="48.642068" lon="-1.513191">
        <ele>2.342</ele>
        <time>2026-08-21T18:31:38Z</time>
      </trkpt>
      <trkpt lat="48.642079" lon="-1.513195">
        <ele>2.317</ele>
        <time>2026-08-21T18:31:39Z</time>
      </trkpt>
      <trkpt lat="48.642090" lon="-1.513199">
        <ele>2.287</ele>
        <time>2026-08-21T18:31:40Z</time>
      </trkpt>
      <trkpt lat="48.642100" lon="-1.513197">
        <ele>2.215</ele>
        <time>2026-08-21T18:31:41Z</time>
      </trkpt>
      <trkpt lat="48.642111" lon="-1.513195">
        <ele>2.209</ele>
        <time>2026-08-21T18:31:42Z</time>
      </trkpt>
      <trkpt lat="48.642124" lon="-1.513196">
        <ele>2.293</ele>
        <time>2026-08-21T18:31:43Z</time>
      </trkpt>
      <trkpt lat="48.642136" lon="-1.513200">
        <ele>2.219</ele>
        <time>2026-08-21T18:31:44Z</time>
      </trkpt>
      <trkpt lat="48.642147" lon="-1.513206">
        <ele>2.242</ele>
        <time>2026-08-21T18:31:45Z</time>
      </trkpt>
      <trkpt lat="48.642156" lon="-1.513212">
        <ele>2.243</ele>
        <time>2026-08-21T18:31:46Z</time>
      </trkpt>
      <trkpt lat="48.642165" lon="-1.513214">
        <ele>2.276</ele>
        <time>2026-08-21T18:31:47Z</time>
      </trkpt>
      <trkpt lat="48.642180" lon="-1.513216">
        <ele>2.213</ele>
        <time>2026-08-21T18:31:48Z</time>
      </trkpt>
      <trkpt lat="48.642188" lon="-1.513221">
        <ele>2.274</ele>
        <time>2026-08-21T18:31:49Z</time>
      </trkpt>
      <trkpt lat="48.642199" lon="-1.513225">
        <ele>2.218</ele>
        <time>2026-08-21T18:31:50Z</time>
      </trkpt>
      <trkpt lat="48.642208" lon="-1.513229">
        <ele>2.285</ele>
        <time>2026-08-21T18:31:51Z</time>
      </trkpt>
      <trkpt lat="48.642216" lon="-1.513237">
        <ele>2.294</ele>
        <time>2026-08-21T18:31:52Z</time>
      </trkpt>
      <trkpt lat="48.642233" lon="-1.513248">
        <ele>2.157</ele>
        <time>2026-08-21T18:31:54Z</time>
      </trkpt>
      <trkpt lat="48.642244" lon="-1.513251">
        <ele>2.122</ele>
        <time>2026-08-21T18:31:55Z</time>
      </trkpt>
      <trkpt lat="48.642263" lon="-1.513253">
        <ele>2.109</ele>
        <time>2026-08-21T18:31:57Z</time>
      </trkpt>
      <trkpt lat="48.642279" lon="-1.513261">
        <ele>2.121</ele>
        <time>2026-08-21T18:31:59Z</time>
      </trkpt>
      <trkpt lat="48.642291" lon="-1.513263">
        <ele>2.177</ele>
        <time>2026-08-21T18:32:00Z</time>
      </trkpt>
      <trkpt lat="48.642303" lon="-1.513265">
        <ele>2.080</ele>
        <time>2026-08-21T18:32:01Z</time>
      </trkpt>
      <trkpt lat="48.642314" lon="-1.513272">
        <ele>2.021</ele>
        <time>2026-08-21T18:32:02Z</time>
      </trkpt>
      <trkpt lat="48.642326" lon="-1.513284">
        <ele>1.994</ele>
        <time>2026-08-21T18:32:03Z</time>
      </trkpt>
      <trkpt lat="48.642340" lon="-1.513291">
        <ele>1.891</ele>
        <time>2026-08-21T18:32:04Z</time>
      </trkpt>
      <trkpt lat="48.642351" lon="-1.513296">
        <ele>1.852</ele>
        <time>2026-08-21T18:32:05Z</time>
      </trkpt>
      <trkpt lat="48.642362" lon="-1.513300">
        <ele>1.846</ele>
        <time>2026-08-21T18:32:06Z</time>
      </trkpt>
      <trkpt lat="48.642373" lon="-1.513305">
        <ele>1.933</ele>
        <time>2026-08-21T18:32:07Z</time>
      </trkpt>
      <trkpt lat="48.642381" lon="-1.513309">
        <ele>1.941</ele>
        <time>2026-08-21T18:32:08Z</time>
      </trkpt>
      <trkpt lat="48.642391" lon="-1.513317">
        <ele>2.081</ele>
        <time>2026-08-21T18:32:09Z</time>
      </trkpt>
      <trkpt lat="48.642404" lon="-1.513322">
        <ele>2.009</ele>
        <time>2026-08-21T18:32:10Z</time>
      </trkpt>
      <trkpt lat="48.642419" lon="-1.513330">
        <ele>2.009</ele>
        <time>2026-08-21T18:32:11Z</time>
      </trkpt>
      <trkpt lat="48.642432" lon="-1.513334">
        <ele>2.066</ele>
        <time>2026-08-21T18:32:12Z</time>
      </trkpt>
      <trkpt lat="48.642444" lon="-1.513329">
        <ele>2.182</ele>
        <time>2026-08-21T18:32:14Z</time>
      </trkpt>
      <trkpt lat="48.642452" lon="-1.513339">
        <ele>2.195</ele>
        <time>2026-08-21T18:32:16Z</time>
      </trkpt>
      <trkpt lat="48.642463" lon="-1.513346">
        <ele>2.146</ele>
        <time>2026-08-21T18:32:17Z</time>
      </trkpt>
      <trkpt lat="48.642479" lon="-1.513349">
        <ele>2.129</ele>
        <time>2026-08-21T18:32:18Z</time>
      </trkpt>
      <trkpt lat="48.642495" lon="-1.513353">
        <ele>2.166</ele>
        <time>2026-08-21T18:32:19Z</time>
      </trkpt>
      <trkpt lat="48.642511" lon="-1.513355">
        <ele>2.157</ele>
        <time>2026-08-21T18:32:20Z</time>
      </trkpt>
      <trkpt lat="48.642531" lon="-1.513357">
        <ele>2.111</ele>
        <time>2026-08-21T18:32:21Z</time>
      </trkpt>
      <trkpt lat="48.642543" lon="-1.513363">
        <ele>2.178</ele>
        <time>2026-08-21T18:32:22Z</time>
      </trkpt>
      <trkpt lat="48.642554" lon="-1.513366">
        <ele>2.178</ele>
        <time>2026-08-21T18:32:23Z</time>
      </trkpt>
      <trkpt lat="48.642544" lon="-1.513357">
        <ele>2.133</ele>
        <time>2026-08-21T18:32:25Z</time>
      </trkpt>
      <trkpt lat="48.642535" lon="-1.513356">
        <ele>2.026</ele>
        <time>2026-08-21T18:32:30Z</time>
      </trkpt>
      <trkpt lat="48.642547" lon="-1.513372">
        <ele>2.009</ele>
        <time>2026-08-21T18:32:41Z</time>
      </trkpt>
      <trkpt lat="48.642560" lon="-1.513381">
        <ele>2.069</ele>
        <time>2026-08-21T18:32:42Z</time>
      </trkpt>
      <trkpt lat="48.642571" lon="-1.513387">
        <ele>2.095</ele>
        <time>2026-08-21T18:32:43Z</time>
      </trkpt>
      <trkpt lat="48.642584" lon="-1.513395">
        <ele>1.918</ele>
        <time>2026-08-21T18:32:44Z</time>
      </trkpt>
      <trkpt lat="48.642596" lon="-1.513397">
        <ele>1.949</ele>
        <time>2026-08-21T18:32:45Z</time>
      </trkpt>
      <trkpt lat="48.642608" lon="-1.513402">
        <ele>1.962</ele>
        <time>2026-08-21T18:32:46Z</time>
      </trkpt>
      <trkpt lat="48.642618" lon="-1.513403">
        <ele>1.989</ele>
        <time>2026-08-21T18:32:47Z</time>
      </trkpt>
      <trkpt lat="48.642628" lon="-1.513409">
        <ele>1.990</ele>
        <time>2026-08-21T18:32:48Z</time>
      </trkpt>
      <trkpt lat="48.642640" lon="-1.513416">
        <ele>1.944</ele>
        <time>2026-08-21T18:32:49Z</time>
      </trkpt>
      <trkpt lat="48.642652" lon="-1.513417">
        <ele>1.971</ele>
        <time>2026-08-21T18:32:50Z</time>
      </trkpt>
      <trkpt lat="48.642664" lon="-1.513421">
        <ele>2.061</ele>
        <time>2026-08-21T18:32:51Z</time>
      </trkpt>
      <trkpt lat="48.642680" lon="-1.513432">
        <ele>2.021</ele>
        <time>2026-08-21T18:32:53Z</time>
      </trkpt>
      <trkpt lat="48.642692" lon="-1.513436">
        <ele>2.013</ele>
        <time>2026-08-21T18:32:54Z</time>
      </trkpt>
      <trkpt lat="48.642704" lon="-1.513437">
        <ele>2.109</ele>
        <time>2026-08-21T18:32:55Z</time>
      </trkpt>
      <trkpt lat="48.642717" lon="-1.513438">
        <ele>2.228</ele>
        <time>2026-08-21T18:32:56Z</time>
      </trkpt>
      <trkpt lat="48.642735" lon="-1.513438">
        <ele>2.224</ele>
        <time>2026-08-21T18:32:57Z</time>
      </trkpt>
      <trkpt lat="48.642747" lon="-1.513443">
        <ele>2.217</ele>
        <time>2026-08-21T18:32:58Z</time>
      </trkpt>
      <trkpt lat="48.642756" lon="-1.513449">
        <ele>2.288</ele>
        <time>2026-08-21T18:32:59Z</time>
      </trkpt>
      <trkpt lat="48.642765" lon="-1.513454">
        <ele>2.221</ele>
        <time>2026-08-21T18:33:00Z</time>
      </trkpt>
      <trkpt lat="48.642772" lon="-1.513462">
        <ele>2.398</ele>
        <time>2026-08-21T18:33:01Z</time>
      </trkpt>
      <trkpt lat="48.642784" lon="-1.513469">
        <ele>2.429</ele>
        <time>2026-08-21T18:33:02Z</time>
      </trkpt>
      <trkpt lat="48.642795" lon="-1.513474">
        <ele>2.473</ele>
        <time>2026-08-21T18:33:03Z</time>
      </trkpt>
      <trkpt lat="48.642805" lon="-1.513476">
        <ele>2.420</ele>
        <time>2026-08-21T18:33:04Z</time>
      </trkpt>
      <trkpt lat="48.642823" lon="-1.513481">
        <ele>2.424</ele>
        <time>2026-08-21T18:33:06Z</time>
      </trkpt>
      <trkpt lat="48.642837" lon="-1.513485">
        <ele>2.504</ele>
        <time>2026-08-21T18:33:07Z</time>
      </trkpt>
      <trkpt lat="48.642849" lon="-1.513491">
        <ele>2.514</ele>
        <time>2026-08-21T18:33:08Z</time>
      </trkpt>
      <trkpt lat="48.642861" lon="-1.513498">
        <ele>2.509</ele>
        <time>2026-08-21T18:33:09Z</time>
      </trkpt>
      <trkpt lat="48.642879" lon="-1.513510">
        <ele>2.594</ele>
        <time>2026-08-21T18:33:11Z</time>
      </trkpt>
      <trkpt lat="48.642888" lon="-1.513512">
        <ele>2.630</ele>
        <time>2026-08-21T18:33:12Z</time>
      </trkpt>
      <trkpt lat="48.642906" lon="-1.513517">
        <ele>2.613</ele>
        <time>2026-08-21T18:33:14Z</time>
      </trkpt>
      <trkpt lat="48.642918" lon="-1.513525">
        <ele>2.694</ele>
        <time>2026-08-21T18:33:15Z</time>
      </trkpt>
      <trkpt lat="48.642929" lon="-1.513533">
        <ele>2.637</ele>
        <time>2026-08-21T18:33:16Z</time>
      </trkpt>
      <trkpt lat="48.642941" lon="-1.513534">
        <ele>2.624</ele>
        <time>2026-08-21T18:33:17Z</time>
      </trkpt>
      <trkpt lat="48.642955" lon="-1.513537">
        <ele>2.655</ele>
        <time>2026-08-21T18:33:18Z</time>
      </trkpt>
      <trkpt lat="48.642968" lon="-1.513546">
        <ele>2.619</ele>
        <time>2026-08-21T18:33:19Z</time>
      </trkpt>
      <trkpt lat="48.642979" lon="-1.513552">
        <ele>2.616</ele>
        <time>2026-08-21T18:33:20Z</time>
      </trkpt>
      <trkpt lat="48.642989" lon="-1.513559">
        <ele>2.782</ele>
        <time>2026-08-21T18:33:21Z</time>
      </trkpt>
      <trkpt lat="48.643002" lon="-1.513559">
        <ele>2.743</ele>
        <time>2026-08-21T18:33:22Z</time>
      </trkpt>
      <trkpt lat="48.643019" lon="-1.513567">
        <ele>2.717</ele>
        <time>2026-08-21T18:33:24Z</time>
      </trkpt>
      <trkpt lat="48.643030" lon="-1.513573">
        <ele>2.709</ele>
        <time>2026-08-21T18:33:25Z</time>
      </trkpt>
      <trkpt lat="48.643042" lon="-1.513581">
        <ele>2.740</ele>
        <time>2026-08-21T18:33:26Z</time>
      </trkpt>
      <trkpt lat="48.643055" lon="-1.513587">
        <ele>2.776</ele>
        <time>2026-08-21T18:33:27Z</time>
      </trkpt>
      <trkpt lat="48.643066" lon="-1.513595">
        <ele>2.799</ele>
        <time>2026-08-21T18:33:28Z</time>
      </trkpt>
      <trkpt lat="48.643078" lon="-1.513599">
        <ele>2.730</ele>
        <time>2026-08-21T18:33:29Z</time>
      </trkpt>
      <trkpt lat="48.643091" lon="-1.513605">
        <ele>2.693</ele>
        <time>2026-08-21T18:33:30Z</time>
      </trkpt>
      <trkpt lat="48.643100" lon="-1.513612">
        <ele>2.670</ele>
        <time>2026-08-21T18:33:31Z</time>
      </trkpt>
      <trkpt lat="48.643109" lon="-1.513619">
        <ele>2.681</ele>
        <time>2026-08-21T18:33:32Z</time>
      </trkpt>
      <trkpt lat="48.643121" lon="-1.513625">
        <ele>2.615</ele>
        <time>2026-08-21T18:33:33Z</time>
      </trkpt>
      <trkpt lat="48.643130" lon="-1.513630">
        <ele>2.662</ele>
        <time>2026-08-21T18:33:34Z</time>
      </trkpt>
      <trkpt lat="48.643138" lon="-1.513637">
        <ele>2.622</ele>
        <time>2026-08-21T18:33:35Z</time>
      </trkpt>
      <trkpt lat="48.643158" lon="-1.513651">
        <ele>2.662</ele>
        <time>2026-08-21T18:33:37Z</time>
      </trkpt>
      <trkpt lat="48.643171" lon="-1.513658">
        <ele>2.508</ele>
        <time>2026-08-21T18:33:38Z</time>
      </trkpt>
      <trkpt lat="48.643184" lon="-1.513665">
        <ele>2.509</ele>
        <time>2026-08-21T18:33:39Z</time>
      </trkpt>
      <trkpt lat="48.643196" lon="-1.513669">
        <ele>2.594</ele>
        <time>2026-08-21T18:33:40Z</time>
      </trkpt>
      <trkpt lat="48.643207" lon="-1.513676">
        <ele>2.510</ele>
        <time>2026-08-21T18:33:41Z</time>
      </trkpt>
      <trkpt lat="48.643224" lon="-1.513684">
        <ele>2.513</ele>
        <time>2026-08-21T18:33:43Z</time>
      </trkpt>
      <trkpt lat="48.643239" lon="-1.513687">
        <ele>2.574</ele>
        <time>2026-08-21T18:33:44Z</time>
      </trkpt>
      <trkpt lat="48.643250" lon="-1.513691">
        <ele>2.557</ele>
        <time>2026-08-21T18:33:45Z</time>
      </trkpt>
      <trkpt lat="48.643263" lon="-1.513695">
        <ele>2.554</ele>
        <time>2026-08-21T18:33:46Z</time>
      </trkpt>
      <trkpt lat="48.643275" lon="-1.513701">
        <ele>2.595</ele>
        <time>2026-08-21T18:33:47Z</time>
      </trkpt>
      <trkpt lat="48.643287" lon="-1.513709">
        <ele>2.579</ele>
        <time>2026-08-21T18:33:48Z</time>
      </trkpt>
      <trkpt lat="48.643303" lon="-1.513725">
        <ele>2.576</ele>
        <time>2026-08-21T18:33:50Z</time>
      </trkpt>
      <trkpt lat="48.643312" lon="-1.513729">
        <ele>2.549</ele>
        <time>2026-08-21T18:33:51Z</time>
      </trkpt>
      <trkpt lat="48.643327" lon="-1.513731">
        <ele>2.602</ele>
        <time>2026-08-21T18:33:52Z</time>
      </trkpt>
      <trkpt lat="48.643340" lon="-1.513740">
        <ele>2.622</ele>
        <time>2026-08-21T18:33:53Z</time>
      </trkpt>
      <trkpt lat="48.643351" lon="-1.513744">
        <ele>2.609</ele>
        <time>2026-08-21T18:33:54Z</time>
      </trkpt>
      <trkpt lat="48.643362" lon="-1.513749">
        <ele>2.686</ele>
        <time>2026-08-21T18:33:55Z</time>
      </trkpt>
      <trkpt lat="48.643370" lon="-1.513758">
        <ele>2.652</ele>
        <time>2026-08-21T18:33:56Z</time>
      </trkpt>
      <trkpt lat="48.643378" lon="-1.513766">
        <ele>2.685</ele>
        <time>2026-08-21T18:33:57Z</time>
      </trkpt>
      <trkpt lat="48.643387" lon="-1.513773">
        <ele>2.696</ele>
        <time>2026-08-21T18:33:58Z</time>
      </trkpt>
      <trkpt lat="48.643395" lon="-1.513784">
        <ele>2.639</ele>
        <time>2026-08-21T18:33:59Z</time>
      </trkpt>
      <trkpt lat="48.643405" lon="-1.513791">
        <ele>2.696</ele>
        <time>2026-08-21T18:34:00Z</time>
      </trkpt>
      <trkpt lat="48.643415" lon="-1.513800">
        <ele>2.637</ele>
        <time>2026-08-21T18:34:01Z</time>
      </trkpt>
      <trkpt lat="48.643424" lon="-1.513810">
        <ele>2.621</ele>
        <time>2026-08-21T18:34:02Z</time>
      </trkpt>
      <trkpt lat="48.643435" lon="-1.513816">
        <ele>2.628</ele>
        <time>2026-08-21T18:34:03Z</time>
      </trkpt>
      <trkpt lat="48.643447" lon="-1.513824">
        <ele>2.626</ele>
        <time>2026-08-21T18:34:04Z</time>
      </trkpt>
      <trkpt lat="48.643458" lon="-1.513833">
        <ele>2.647</ele>
        <time>2026-08-21T18:34:05Z</time>
      </trkpt>
      <trkpt lat="48.643468" lon="-1.513842">
        <ele>2.511</ele>
        <time>2026-08-21T18:34:06Z</time>
      </trkpt>
      <trkpt lat="48.643478" lon="-1.513853">
        <ele>2.509</ele>
        <time>2026-08-21T18:34:07Z</time>
      </trkpt>
      <trkpt lat="48.643487" lon="-1.513863">
        <ele>2.564</ele>
        <time>2026-08-21T18:34:08Z</time>
      </trkpt>
      <trkpt lat="48.643498" lon="-1.513873">
        <ele>2.580</ele>
        <time>2026-08-21T18:34:09Z</time>
      </trkpt>
      <trkpt lat="48.643508" lon="-1.513881">
        <ele>2.513</ele>
        <time>2026-08-21T18:34:10Z</time>
      </trkpt>
      <trkpt lat="48.643519" lon="-1.513889">
        <ele>2.464</ele>
        <time>2026-08-21T18:34:11Z</time>
      </trkpt>
      <trkpt lat="48.643528" lon="-1.513898">
        <ele>2.417</ele>
        <time>2026-08-21T18:34:12Z</time>
      </trkpt>
      <trkpt lat="48.643535" lon="-1.513907">
        <ele>2.434</ele>
        <time>2026-08-21T18:34:13Z</time>
      </trkpt>
      <trkpt lat="48.643545" lon="-1.513917">
        <ele>2.495</ele>
        <time>2026-08-21T18:34:14Z</time>
      </trkpt>
      <trkpt lat="48.643558" lon="-1.513925">
        <ele>2.429</ele>
        <time>2026-08-21T18:34:15Z</time>
      </trkpt>
      <trkpt lat="48.643570" lon="-1.513929">
        <ele>2.426</ele>
        <time>2026-08-21T18:34:16Z</time>
      </trkpt>
      <trkpt lat="48.643579" lon="-1.513935">
        <ele>2.445</ele>
        <time>2026-08-21T18:34:17Z</time>
      </trkpt>
      <trkpt lat="48.643590" lon="-1.513944">
        <ele>2.447</ele>
        <time>2026-08-21T18:34:18Z</time>
      </trkpt>
      <trkpt lat="48.643600" lon="-1.513952">
        <ele>2.411</ele>
        <time>2026-08-21T18:34:19Z</time>
      </trkpt>
      <trkpt lat="48.643608" lon="-1.513959">
        <ele>2.409</ele>
        <time>2026-08-21T18:34:20Z</time>
      </trkpt>
      <trkpt lat="48.643618" lon="-1.513965">
        <ele>2.446</ele>
        <time>2026-08-21T18:34:21Z</time>
      </trkpt>
      <trkpt lat="48.643628" lon="-1.513969">
        <ele>2.412</ele>
        <time>2026-08-21T18:34:22Z</time>
      </trkpt>
      <trkpt lat="48.643639" lon="-1.513975">
        <ele>2.315</ele>
        <time>2026-08-21T18:34:23Z</time>
      </trkpt>
      <trkpt lat="48.643650" lon="-1.513982">
        <ele>2.346</ele>
        <time>2026-08-21T18:34:24Z</time>
      </trkpt>
      <trkpt lat="48.643660" lon="-1.513991">
        <ele>2.379</ele>
        <time>2026-08-21T18:34:25Z</time>
      </trkpt>
      <trkpt lat="48.643669" lon="-1.513999">
        <ele>2.346</ele>
        <time>2026-08-21T18:34:26Z</time>
      </trkpt>
      <trkpt lat="48.643679" lon="-1.514010">
        <ele>2.327</ele>
        <time>2026-08-21T18:34:27Z</time>
      </trkpt>
      <trkpt lat="48.643689" lon="-1.514018">
        <ele>2.321</ele>
        <time>2026-08-21T18:34:28Z</time>
      </trkpt>
      <trkpt lat="48.643699" lon="-1.514024">
        <ele>2.338</ele>
        <time>2026-08-21T18:34:29Z</time>
      </trkpt>
      <trkpt lat="48.643708" lon="-1.514031">
        <ele>2.388</ele>
        <time>2026-08-21T18:34:30Z</time>
      </trkpt>
      <trkpt lat="48.643717" lon="-1.514039">
        <ele>2.324</ele>
        <time>2026-08-21T18:34:31Z</time>
      </trkpt>
      <trkpt lat="48.643727" lon="-1.514049">
        <ele>2.326</ele>
        <time>2026-08-21T18:34:32Z</time>
      </trkpt>
      <trkpt lat="48.643739" lon="-1.514058">
        <ele>2.309</ele>
        <time>2026-08-21T18:34:33Z</time>
      </trkpt>
      <trkpt lat="48.643752" lon="-1.514064">
        <ele>2.310</ele>
        <time>2026-08-21T18:34:34Z</time>
      </trkpt>
      <trkpt lat="48.643766" lon="-1.514067">
        <ele>2.386</ele>
        <time>2026-08-21T18:34:35Z</time>
      </trkpt>
      <trkpt lat="48.643779" lon="-1.514075">
        <ele>2.389</ele>
        <time>2026-08-21T18:34:36Z</time>
      </trkpt>
      <trkpt lat="48.643791" lon="-1.514085">
        <ele>2.310</ele>
        <time>2026-08-21T18:34:37Z</time>
      </trkpt>
      <trkpt lat="48.643801" lon="-1.514094">
        <ele>2.363</ele>
        <time>2026-08-21T18:34:38Z</time>
      </trkpt>
      <trkpt lat="48.643812" lon="-1.514100">
        <ele>2.350</ele>
        <time>2026-08-21T18:34:39Z</time>
      </trkpt>
      <trkpt lat="48.643823" lon="-1.514109">
        <ele>2.351</ele>
        <time>2026-08-21T18:34:40Z</time>
      </trkpt>
      <trkpt lat="48.643835" lon="-1.514114">
        <ele>2.365</ele>
        <time>2026-08-21T18:34:41Z</time>
      </trkpt>
      <trkpt lat="48.643846" lon="-1.514118">
        <ele>2.382</ele>
        <time>2026-08-21T18:34:42Z</time>
      </trkpt>
      <trkpt lat="48.643858" lon="-1.514125">
        <ele>2.353</ele>
        <time>2026-08-21T18:34:43Z</time>
      </trkpt>
      <trkpt lat="48.643867" lon="-1.514135">
        <ele>2.304</ele>
        <time>2026-08-21T18:34:44Z</time>
      </trkpt>
      <trkpt lat="48.643880" lon="-1.514142">
        <ele>2.314</ele>
        <time>2026-08-21T18:34:45Z</time>
      </trkpt>
      <trkpt lat="48.643890" lon="-1.514144">
        <ele>2.309</ele>
        <time>2026-08-21T18:34:46Z</time>
      </trkpt>
      <trkpt lat="48.643901" lon="-1.514150">
        <ele>2.367</ele>
        <time>2026-08-21T18:34:47Z</time>
      </trkpt>
      <trkpt lat="48.643910" lon="-1.514160">
        <ele>2.353</ele>
        <time>2026-08-21T18:34:48Z</time>
      </trkpt>
      <trkpt lat="48.643918" lon="-1.514169">
        <ele>2.326</ele>
        <time>2026-08-21T18:34:49Z</time>
      </trkpt>
      <trkpt lat="48.643926" lon="-1.514178">
        <ele>2.317</ele>
        <time>2026-08-21T18:34:50Z</time>
      </trkpt>
      <trkpt lat="48.643938" lon="-1.514186">
        <ele>2.330</ele>
        <time>2026-08-21T18:34:52Z</time>
      </trkpt>
      <trkpt lat="48.643943" lon="-1.514201">
        <ele>2.397</ele>
        <time>2026-08-21T18:34:58Z</time>
      </trkpt>
      <trkpt lat="48.643956" lon="-1.514204">
        <ele>1.138</ele>
        <time>2026-08-21T18:35:49Z</time>
      </trkpt>
      <trkpt lat="48.643968" lon="-1.514217">
        <ele>1.052</ele>
        <time>2026-08-21T18:35:51Z</time>
      </trkpt>
      <trkpt lat="48.643979" lon="-1.514230">
        <ele>1.019</ele>
        <time>2026-08-21T18:35:53Z</time>
      </trkpt>
      <trkpt lat="48.643988" lon="-1.514238">
        <ele>0.973</ele>
        <time>2026-08-21T18:35:54Z</time>
      </trkpt>
      <trkpt lat="48.643998" lon="-1.514242">
        <ele>0.885</ele>
        <time>2026-08-21T18:35:55Z</time>
      </trkpt>
      <trkpt lat="48.644008" lon="-1.514249">
        <ele>0.813</ele>
        <time>2026-08-21T18:35:56Z</time>
      </trkpt>
      <trkpt lat="48.644016" lon="-1.514268">
        <ele>0.809</ele>
        <time>2026-08-21T18:35:58Z</time>
      </trkpt>
      <trkpt lat="48.644034" lon="-1.514277">
        <ele>0.819</ele>
        <time>2026-08-21T18:36:00Z</time>
      </trkpt>
      <trkpt lat="48.644044" lon="-1.514286">
        <ele>0.925</ele>
        <time>2026-08-21T18:36:01Z</time>
      </trkpt>
      <trkpt lat="48.644053" lon="-1.514298">
        <ele>0.948</ele>
        <time>2026-08-21T18:36:02Z</time>
      </trkpt>
      <trkpt lat="48.644064" lon="-1.514308">
        <ele>0.989</ele>
        <time>2026-08-21T18:36:03Z</time>
      </trkpt>
      <trkpt lat="48.644070" lon="-1.514322">
        <ele>1.092</ele>
        <time>2026-08-21T18:36:04Z</time>
      </trkpt>
      <trkpt lat="48.644079" lon="-1.514331">
        <ele>1.099</ele>
        <time>2026-08-21T18:36:05Z</time>
      </trkpt>
      <trkpt lat="48.644090" lon="-1.514341">
        <ele>1.060</ele>
        <time>2026-08-21T18:36:06Z</time>
      </trkpt>
      <trkpt lat="48.644098" lon="-1.514351">
        <ele>1.034</ele>
        <time>2026-08-21T18:36:07Z</time>
      </trkpt>
      <trkpt lat="48.644108" lon="-1.514360">
        <ele>1.071</ele>
        <time>2026-08-21T18:36:08Z</time>
      </trkpt>
      <trkpt lat="48.644118" lon="-1.514365">
        <ele>1.135</ele>
        <time>2026-08-21T18:36:09Z</time>
      </trkpt>
      <trkpt lat="48.644132" lon="-1.514373">
        <ele>1.186</ele>
        <time>2026-08-21T18:36:10Z</time>
      </trkpt>
      <trkpt lat="48.644140" lon="-1.514380">
        <ele>1.114</ele>
        <time>2026-08-21T18:36:11Z</time>
      </trkpt>
      <trkpt lat="48.644150" lon="-1.514389">
        <ele>1.109</ele>
        <time>2026-08-21T18:36:12Z</time>
      </trkpt>
      <trkpt lat="48.644158" lon="-1.514400">
        <ele>1.215</ele>
        <time>2026-08-21T18:36:13Z</time>
      </trkpt>
      <trkpt lat="48.644168" lon="-1.514409">
        <ele>1.381</ele>
        <time>2026-08-21T18:36:14Z</time>
      </trkpt>
      <trkpt lat="48.644177" lon="-1.514419">
        <ele>1.324</ele>
        <time>2026-08-21T18:36:15Z</time>
      </trkpt>
      <trkpt lat="48.644186" lon="-1.514429">
        <ele>1.315</ele>
        <time>2026-08-21T18:36:16Z</time>
      </trkpt>
      <trkpt lat="48.644197" lon="-1.514438">
        <ele>1.398</ele>
        <time>2026-08-21T18:36:17Z</time>
      </trkpt>
      <trkpt lat="48.644207" lon="-1.514446">
        <ele>1.455</ele>
        <time>2026-08-21T18:36:18Z</time>
      </trkpt>
      <trkpt lat="48.644216" lon="-1.514453">
        <ele>1.526</ele>
        <time>2026-08-21T18:36:19Z</time>
      </trkpt>
      <trkpt lat="48.644224" lon="-1.514461">
        <ele>1.550</ele>
        <time>2026-08-21T18:36:20Z</time>
      </trkpt>
      <trkpt lat="48.644233" lon="-1.514468">
        <ele>1.677</ele>
        <time>2026-08-21T18:36:21Z</time>
      </trkpt>
      <trkpt lat="48.644241" lon="-1.514478">
        <ele>1.657</ele>
        <time>2026-08-21T18:36:22Z</time>
      </trkpt>
      <trkpt lat="48.644250" lon="-1.514485">
        <ele>1.700</ele>
        <time>2026-08-21T18:36:23Z</time>
      </trkpt>
      <trkpt lat="48.644260" lon="-1.514491">
        <ele>1.920</ele>
        <time>2026-08-21T18:36:24Z</time>
      </trkpt>
      <trkpt lat="48.644269" lon="-1.514497">
        <ele>2.009</ele>
        <time>2026-08-21T18:36:25Z</time>
      </trkpt>
      <trkpt lat="48.644281" lon="-1.514500">
        <ele>2.037</ele>
        <time>2026-08-21T18:36:26Z</time>
      </trkpt>
      <trkpt lat="48.644291" lon="-1.514510">
        <ele>2.053</ele>
        <time>2026-08-21T18:36:27Z</time>
      </trkpt>
      <trkpt lat="48.644299" lon="-1.514521">
        <ele>2.286</ele>
        <time>2026-08-21T18:36:28Z</time>
      </trkpt>
      <trkpt lat="48.644306" lon="-1.514534">
        <ele>2.227</ele>
        <time>2026-08-21T18:36:29Z</time>
      </trkpt>
      <trkpt lat="48.644315" lon="-1.514537">
        <ele>2.290</ele>
        <time>2026-08-21T18:36:30Z</time>
      </trkpt>
      <trkpt lat="48.644327" lon="-1.514543">
        <ele>2.257</ele>
        <time>2026-08-21T18:36:31Z</time>
      </trkpt>
      <trkpt lat="48.644335" lon="-1.514551">
        <ele>2.238</ele>
        <time>2026-08-21T18:36:32Z</time>
      </trkpt>
      <trkpt lat="48.644344" lon="-1.514557">
        <ele>2.252</ele>
        <time>2026-08-21T18:36:33Z</time>
      </trkpt>
      <trkpt lat="48.644356" lon="-1.514569">
        <ele>2.299</ele>
        <time>2026-08-21T18:36:35Z</time>
      </trkpt>
      <trkpt lat="48.644363" lon="-1.514576">
        <ele>2.248</ele>
        <time>2026-08-21T18:36:36Z</time>
      </trkpt>
      <trkpt lat="48.644375" lon="-1.514584">
        <ele>2.261</ele>
        <time>2026-08-21T18:36:37Z</time>
      </trkpt>
      <trkpt lat="48.644386" lon="-1.514597">
        <ele>2.217</ele>
        <time>2026-08-21T18:36:38Z</time>
      </trkpt>
      <trkpt lat="48.644394" lon="-1.514608">
        <ele>2.209</ele>
        <time>2026-08-21T18:36:39Z</time>
      </trkpt>
      <trkpt lat="48.644405" lon="-1.514614">
        <ele>2.216</ele>
        <time>2026-08-21T18:36:40Z</time>
      </trkpt>
      <trkpt lat="48.644416" lon="-1.514617">
        <ele>2.272</ele>
        <time>2026-08-21T18:36:41Z</time>
      </trkpt>
      <trkpt lat="48.644425" lon="-1.514623">
        <ele>2.245</ele>
        <time>2026-08-21T18:36:42Z</time>
      </trkpt>
      <trkpt lat="48.644438" lon="-1.514630">
        <ele>2.236</ele>
        <time>2026-08-21T18:36:43Z</time>
      </trkpt>
      <trkpt lat="48.644448" lon="-1.514636">
        <ele>2.259</ele>
        <time>2026-08-21T18:36:44Z</time>
      </trkpt>
      <trkpt lat="48.644466" lon="-1.514643">
        <ele>2.236</ele>
        <time>2026-08-21T18:36:46Z</time>
      </trkpt>
      <trkpt lat="48.644477" lon="-1.514649">
        <ele>2.297</ele>
        <time>2026-08-21T18:36:47Z</time>
      </trkpt>
      <trkpt lat="48.644489" lon="-1.514653">
        <ele>2.211</ele>
        <time>2026-08-21T18:36:48Z</time>
      </trkpt>
      <trkpt lat="48.644502" lon="-1.514655">
        <ele>2.278</ele>
        <time>2026-08-21T18:36:49Z</time>
      </trkpt>
      <trkpt lat="48.644510" lon="-1.514662">
        <ele>2.267</ele>
        <time>2026-08-21T18:36:50Z</time>
      </trkpt>
      <trkpt lat="48.644517" lon="-1.514672">
        <ele>2.281</ele>
        <time>2026-08-21T18:36:51Z</time>
      </trkpt>
      <trkpt lat="48.644526" lon="-1.514681">
        <ele>2.219</ele>
        <time>2026-08-21T18:36:52Z</time>
      </trkpt>
      <trkpt lat="48.644539" lon="-1.514685">
        <ele>2.209</ele>
        <time>2026-08-21T18:36:53Z</time>
      </trkpt>
      <trkpt lat="48.644547" lon="-1.514696">
        <ele>2.218</ele>
        <time>2026-08-21T18:36:54Z</time>
      </trkpt>
      <trkpt lat="48.644562" lon="-1.514712">
        <ele>2.244</ele>
        <time>2026-08-21T18:36:56Z</time>
      </trkpt>
      <trkpt lat="48.644571" lon="-1.514724">
        <ele>2.287</ele>
        <time>2026-08-21T18:36:57Z</time>
      </trkpt>
      <trkpt lat="48.644583" lon="-1.514730">
        <ele>2.288</ele>
        <time>2026-08-21T18:36:58Z</time>
      </trkpt>
      <trkpt lat="48.644596" lon="-1.514735">
        <ele>2.231</ele>
        <time>2026-08-21T18:36:59Z</time>
      </trkpt>
      <trkpt lat="48.644606" lon="-1.514743">
        <ele>2.238</ele>
        <time>2026-08-21T18:37:00Z</time>
      </trkpt>
      <trkpt lat="48.644617" lon="-1.514750">
        <ele>2.219</ele>
        <time>2026-08-21T18:37:01Z</time>
      </trkpt>
      <trkpt lat="48.644628" lon="-1.514759">
        <ele>2.113</ele>
        <time>2026-08-21T18:37:02Z</time>
      </trkpt>
      <trkpt lat="48.644640" lon="-1.514768">
        <ele>2.130</ele>
        <time>2026-08-21T18:37:03Z</time>
      </trkpt>
      <trkpt lat="48.644651" lon="-1.514774">
        <ele>2.115</ele>
        <time>2026-08-21T18:37:04Z</time>
      </trkpt>
      <trkpt lat="48.644661" lon="-1.514780">
        <ele>2.165</ele>
        <time>2026-08-21T18:37:05Z</time>
      </trkpt>
      <trkpt lat="48.644672" lon="-1.514790">
        <ele>2.111</ele>
        <time>2026-08-21T18:37:06Z</time>
      </trkpt>
      <trkpt lat="48.644681" lon="-1.514800">
        <ele>2.109</ele>
        <time>2026-08-21T18:37:07Z</time>
      </trkpt>
      <trkpt lat="48.644698" lon="-1.514813">
        <ele>2.163</ele>
        <time>2026-08-21T18:37:09Z</time>
      </trkpt>
      <trkpt lat="48.644710" lon="-1.514819">
        <ele>2.119</ele>
        <time>2026-08-21T18:37:10Z</time>
      </trkpt>
      <trkpt lat="48.644722" lon="-1.514825">
        <ele>2.292</ele>
        <time>2026-08-21T18:37:11Z</time>
      </trkpt>
      <trkpt lat="48.644731" lon="-1.514832">
        <ele>2.293</ele>
        <time>2026-08-21T18:37:12Z</time>
      </trkpt>
      <trkpt lat="48.644740" lon="-1.514841">
        <ele>2.246</ele>
        <time>2026-08-21T18:37:13Z</time>
      </trkpt>
      <trkpt lat="48.644751" lon="-1.514852">
        <ele>2.243</ele>
        <time>2026-08-21T18:37:14Z</time>
      </trkpt>
      <trkpt lat="48.644761" lon="-1.514861">
        <ele>2.264</ele>
        <time>2026-08-21T18:37:15Z</time>
      </trkpt>
      <trkpt lat="48.644770" lon="-1.514867">
        <ele>2.218</ele>
        <time>2026-08-21T18:37:16Z</time>
      </trkpt>
      <trkpt lat="48.644779" lon="-1.514870">
        <ele>2.225</ele>
        <time>2026-08-21T18:37:17Z</time>
      </trkpt>
      <trkpt lat="48.644787" lon="-1.514876">
        <ele>2.265</ele>
        <time>2026-08-21T18:37:18Z</time>
      </trkpt>
      <trkpt lat="48.644801" lon="-1.514886">
        <ele>2.268</ele>
        <time>2026-08-21T18:37:19Z</time>
      </trkpt>
      <trkpt lat="48.644811" lon="-1.514894">
        <ele>2.314</ele>
        <time>2026-08-21T18:37:20Z</time>
      </trkpt>
      <trkpt lat="48.644824" lon="-1.514897">
        <ele>2.309</ele>
        <time>2026-08-21T18:37:21Z</time>
      </trkpt>
      <trkpt lat="48.644836" lon="-1.514902">
        <ele>2.398</ele>
        <time>2026-08-21T18:37:22Z</time>
      </trkpt>
      <trkpt lat="48.644847" lon="-1.514909">
        <ele>2.364</ele>
        <time>2026-08-21T18:37:23Z</time>
      </trkpt>
      <trkpt lat="48.644856" lon="-1.514914">
        <ele>2.417</ele>
        <time>2026-08-21T18:37:24Z</time>
      </trkpt>
      <trkpt lat="48.644865" lon="-1.514923">
        <ele>2.448</ele>
        <time>2026-08-21T18:37:25Z</time>
      </trkpt>
      <trkpt lat="48.644873" lon="-1.514931">
        <ele>2.481</ele>
        <time>2026-08-21T18:37:26Z</time>
      </trkpt>
      <trkpt lat="48.644883" lon="-1.514939">
        <ele>2.448</ele>
        <time>2026-08-21T18:37:27Z</time>
      </trkpt>
      <trkpt lat="48.644896" lon="-1.514944">
        <ele>2.429</ele>
        <time>2026-08-21T18:37:28Z</time>
      </trkpt>
      <trkpt lat="48.644906" lon="-1.514952">
        <ele>2.483</ele>
        <time>2026-08-21T18:37:29Z</time>
      </trkpt>
      <trkpt lat="48.644915" lon="-1.514961">
        <ele>2.490</ele>
        <time>2026-08-21T18:37:30Z</time>
      </trkpt>
      <trkpt lat="48.644923" lon="-1.514970">
        <ele>2.439</ele>
        <time>2026-08-21T18:37:31Z</time>
      </trkpt>
      <trkpt lat="48.644941" lon="-1.514983">
        <ele>2.401</ele>
        <time>2026-08-21T18:37:33Z</time>
      </trkpt>
      <trkpt lat="48.644951" lon="-1.514994">
        <ele>2.421</ele>
        <time>2026-08-21T18:37:34Z</time>
      </trkpt>
      <trkpt lat="48.644959" lon="-1.515001">
        <ele>2.409</ele>
        <time>2026-08-21T18:37:35Z</time>
      </trkpt>
      <trkpt lat="48.644972" lon="-1.515007">
        <ele>2.435</ele>
        <time>2026-08-21T18:37:36Z</time>
      </trkpt>
      <trkpt lat="48.644982" lon="-1.515013">
        <ele>2.441</ele>
        <time>2026-08-21T18:37:37Z</time>
      </trkpt>
      <trkpt lat="48.644992" lon="-1.515015">
        <ele>2.474</ele>
        <time>2026-08-21T18:37:38Z</time>
      </trkpt>
      <trkpt lat="48.645006" lon="-1.515029">
        <ele>2.445</ele>
        <time>2026-08-21T18:37:40Z</time>
      </trkpt>
      <trkpt lat="48.645015" lon="-1.515035">
        <ele>2.358</ele>
        <time>2026-08-21T18:37:41Z</time>
      </trkpt>
      <trkpt lat="48.645026" lon="-1.515041">
        <ele>2.355</ele>
        <time>2026-08-21T18:37:42Z</time>
      </trkpt>
      <trkpt lat="48.645039" lon="-1.515047">
        <ele>2.386</ele>
        <time>2026-08-21T18:37:43Z</time>
      </trkpt>
      <trkpt lat="48.645047" lon="-1.515054">
        <ele>2.210</ele>
        <time>2026-08-21T18:37:44Z</time>
      </trkpt>
      <trkpt lat="48.645062" lon="-1.515065">
        <ele>2.237</ele>
        <time>2026-08-21T18:37:46Z</time>
      </trkpt>
      <trkpt lat="48.645071" lon="-1.515071">
        <ele>2.276</ele>
        <time>2026-08-21T18:37:47Z</time>
      </trkpt>
      <trkpt lat="48.645085" lon="-1.515083">
        <ele>2.290</ele>
        <time>2026-08-21T18:37:49Z</time>
      </trkpt>
      <trkpt lat="48.645096" lon="-1.515091">
        <ele>2.119</ele>
        <time>2026-08-21T18:37:50Z</time>
      </trkpt>
      <trkpt lat="48.645107" lon="-1.515094">
        <ele>2.109</ele>
        <time>2026-08-21T18:37:51Z</time>
      </trkpt>
      <trkpt lat="48.645118" lon="-1.515096">
        <ele>2.139</ele>
        <time>2026-08-21T18:37:52Z</time>
      </trkpt>
      <trkpt lat="48.645129" lon="-1.515105">
        <ele>2.065</ele>
        <time>2026-08-21T18:37:53Z</time>
      </trkpt>
      <trkpt lat="48.645139" lon="-1.515116">
        <ele>2.048</ele>
        <time>2026-08-21T18:37:54Z</time>
      </trkpt>
      <trkpt lat="48.645151" lon="-1.515125">
        <ele>2.099</ele>
        <time>2026-08-21T18:37:55Z</time>
      </trkpt>
      <trkpt lat="48.645159" lon="-1.515139">
        <ele>2.082</ele>
        <time>2026-08-21T18:37:56Z</time>
      </trkpt>
      <trkpt lat="48.645168" lon="-1.515140">
        <ele>1.839</ele>
        <time>2026-08-21T18:37:57Z</time>
      </trkpt>
      <trkpt lat="48.645185" lon="-1.515149">
        <ele>1.860</ele>
        <time>2026-08-21T18:37:59Z</time>
      </trkpt>
      <trkpt lat="48.645195" lon="-1.515154">
        <ele>1.744</ele>
        <time>2026-08-21T18:38:00Z</time>
      </trkpt>
      <trkpt lat="48.645206" lon="-1.515159">
        <ele>1.761</ele>
        <time>2026-08-21T18:38:01Z</time>
      </trkpt>
      <trkpt lat="48.645217" lon="-1.515166">
        <ele>1.745</ele>
        <time>2026-08-21T18:38:02Z</time>
      </trkpt>
      <trkpt lat="48.645235" lon="-1.515174">
        <ele>1.747</ele>
        <time>2026-08-21T18:38:04Z</time>
      </trkpt>
      <trkpt lat="48.645249" lon="-1.515175">
        <ele>1.711</ele>
        <time>2026-08-21T18:38:05Z</time>
      </trkpt>
      <trkpt lat="48.645258" lon="-1.515179">
        <ele>1.709</ele>
        <time>2026-08-21T18:38:06Z</time>
      </trkpt>
      <trkpt lat="48.645269" lon="-1.515185">
        <ele>1.776</ele>
        <time>2026-08-21T18:38:07Z</time>
      </trkpt>
      <trkpt lat="48.645278" lon="-1.515191">
        <ele>1.712</ele>
        <time>2026-08-21T18:38:08Z</time>
      </trkpt>
      <trkpt lat="48.645293" lon="-1.515195">
        <ele>1.755</ele>
        <time>2026-08-21T18:38:10Z</time>
      </trkpt>
      <trkpt lat="48.645302" lon="-1.515202">
        <ele>1.756</ele>
        <time>2026-08-21T18:38:11Z</time>
      </trkpt>
      <trkpt lat="48.645311" lon="-1.515209">
        <ele>1.779</ele>
        <time>2026-08-21T18:38:12Z</time>
      </trkpt>
      <trkpt lat="48.645322" lon="-1.515217">
        <ele>1.756</ele>
        <time>2026-08-21T18:38:13Z</time>
      </trkpt>
      <trkpt lat="48.645340" lon="-1.515222">
        <ele>1.747</ele>
        <time>2026-08-21T18:38:15Z</time>
      </trkpt>
      <trkpt lat="48.645351" lon="-1.515224">
        <ele>1.731</ele>
        <time>2026-08-21T18:38:16Z</time>
      </trkpt>
      <trkpt lat="48.645362" lon="-1.515229">
        <ele>1.798</ele>
        <time>2026-08-21T18:38:17Z</time>
      </trkpt>
      <trkpt lat="48.645373" lon="-1.515237">
        <ele>1.851</ele>
        <time>2026-08-21T18:38:18Z</time>
      </trkpt>
      <trkpt lat="48.645385" lon="-1.515254">
        <ele>1.801</ele>
        <time>2026-08-21T18:38:20Z</time>
      </trkpt>
      <trkpt lat="48.645395" lon="-1.515261">
        <ele>1.811</ele>
        <time>2026-08-21T18:38:21Z</time>
      </trkpt>
      <trkpt lat="48.645413" lon="-1.515273">
        <ele>1.809</ele>
        <time>2026-08-21T18:38:23Z</time>
      </trkpt>
      <trkpt lat="48.645426" lon="-1.515276">
        <ele>1.877</ele>
        <time>2026-08-21T18:38:24Z</time>
      </trkpt>
      <trkpt lat="48.645444" lon="-1.515283">
        <ele>1.813</ele>
        <time>2026-08-21T18:38:26Z</time>
      </trkpt>
      <trkpt lat="48.645457" lon="-1.515283">
        <ele>1.746</ele>
        <time>2026-08-21T18:38:27Z</time>
      </trkpt>
      <trkpt lat="48.645470" lon="-1.515286">
        <ele>1.727</ele>
        <time>2026-08-21T18:38:28Z</time>
      </trkpt>
      <trkpt lat="48.645485" lon="-1.515290">
        <ele>1.780</ele>
        <time>2026-08-21T18:38:29Z</time>
      </trkpt>
      <trkpt lat="48.645496" lon="-1.515300">
        <ele>1.787</ele>
        <time>2026-08-21T18:38:30Z</time>
      </trkpt>
      <trkpt lat="48.645503" lon="-1.515313">
        <ele>1.768</ele>
        <time>2026-08-21T18:38:31Z</time>
      </trkpt>
      <trkpt lat="48.645519" lon="-1.515326">
        <ele>1.782</ele>
        <time>2026-08-21T18:38:33Z</time>
      </trkpt>
      <trkpt lat="48.645532" lon="-1.515329">
        <ele>1.779</ele>
        <time>2026-08-21T18:38:34Z</time>
      </trkpt>
      <trkpt lat="48.645545" lon="-1.515335">
        <ele>1.775</ele>
        <time>2026-08-21T18:38:35Z</time>
      </trkpt>
      <trkpt lat="48.645557" lon="-1.515338">
        <ele>1.728</ele>
        <time>2026-08-21T18:38:36Z</time>
      </trkpt>
      <trkpt lat="48.645567" lon="-1.515344">
        <ele>1.820</ele>
        <time>2026-08-21T18:38:37Z</time>
      </trkpt>
      <trkpt lat="48.645577" lon="-1.515348">
        <ele>1.809</ele>
        <time>2026-08-21T18:38:38Z</time>
      </trkpt>
      <trkpt lat="48.645588" lon="-1.515355">
        <ele>1.729</ele>
        <time>2026-08-21T18:38:39Z</time>
      </trkpt>
      <trkpt lat="48.645597" lon="-1.515357">
        <ele>1.795</ele>
        <time>2026-08-21T18:38:40Z</time>
      </trkpt>
      <trkpt lat="48.645608" lon="-1.515358">
        <ele>1.748</ele>
        <time>2026-08-21T18:38:41Z</time>
      </trkpt>
      <trkpt lat="48.645618" lon="-1.515366">
        <ele>1.719</ele>
        <time>2026-08-21T18:38:42Z</time>
      </trkpt>
      <trkpt lat="48.645627" lon="-1.515377">
        <ele>1.652</ele>
        <time>2026-08-21T18:38:43Z</time>
      </trkpt>
      <trkpt lat="48.645639" lon="-1.515385">
        <ele>1.639</ele>
        <time>2026-08-21T18:38:44Z</time>
      </trkpt>
      <trkpt lat="48.645651" lon="-1.515394">
        <ele>1.670</ele>
        <time>2026-08-21T18:38:45Z</time>
      </trkpt>
      <trkpt lat="48.645664" lon="-1.515402">
        <ele>1.594</ele>
        <time>2026-08-21T18:38:46Z</time>
      </trkpt>
      <trkpt lat="48.645672" lon="-1.515411">
        <ele>1.561</ele>
        <time>2026-08-21T18:38:47Z</time>
      </trkpt>
      <trkpt lat="48.645686" lon="-1.515415">
        <ele>1.528</ele>
        <time>2026-08-21T18:38:48Z</time>
      </trkpt>
      <trkpt lat="48.645697" lon="-1.515420">
        <ele>1.589</ele>
        <time>2026-08-21T18:38:49Z</time>
      </trkpt>
      <trkpt lat="48.645709" lon="-1.515423">
        <ele>1.517</ele>
        <time>2026-08-21T18:38:50Z</time>
      </trkpt>
      <trkpt lat="48.645723" lon="-1.515427">
        <ele>1.509</ele>
        <time>2026-08-21T18:38:51Z</time>
      </trkpt>
      <trkpt lat="48.645736" lon="-1.515428">
        <ele>1.554</ele>
        <time>2026-08-21T18:38:52Z</time>
      </trkpt>
      <trkpt lat="48.645747" lon="-1.515432">
        <ele>1.530</ele>
        <time>2026-08-21T18:38:53Z</time>
      </trkpt>
      <trkpt lat="48.645758" lon="-1.515434">
        <ele>1.643</ele>
        <time>2026-08-21T18:38:54Z</time>
      </trkpt>
      <trkpt lat="48.645776" lon="-1.515442">
        <ele>1.664</ele>
        <time>2026-08-21T18:38:56Z</time>
      </trkpt>
      <trkpt lat="48.645786" lon="-1.515446">
        <ele>1.637</ele>
        <time>2026-08-21T18:38:57Z</time>
      </trkpt>
      <trkpt lat="48.645795" lon="-1.515448">
        <ele>1.724</ele>
        <time>2026-08-21T18:38:58Z</time>
      </trkpt>
      <trkpt lat="48.645804" lon="-1.515456">
        <ele>1.745</ele>
        <time>2026-08-21T18:38:59Z</time>
      </trkpt>
      <trkpt lat="48.645814" lon="-1.515462">
        <ele>1.729</ele>
        <time>2026-08-21T18:39:00Z</time>
      </trkpt>
      <trkpt lat="48.645824" lon="-1.515467">
        <ele>1.786</ele>
        <time>2026-08-21T18:39:01Z</time>
      </trkpt>
      <trkpt lat="48.645836" lon="-1.515473">
        <ele>1.688</ele>
        <time>2026-08-21T18:39:02Z</time>
      </trkpt>
      <trkpt lat="48.645847" lon="-1.515476">
        <ele>1.624</ele>
        <time>2026-08-21T18:39:03Z</time>
      </trkpt>
      <trkpt lat="48.645859" lon="-1.515481">
        <ele>1.726</ele>
        <time>2026-08-21T18:39:04Z</time>
      </trkpt>
      <trkpt lat="48.645877" lon="-1.515494">
        <ele>1.709</ele>
        <time>2026-08-21T18:39:06Z</time>
      </trkpt>
      <trkpt lat="48.645888" lon="-1.515499">
        <ele>1.780</ele>
        <time>2026-08-21T18:39:07Z</time>
      </trkpt>
      <trkpt lat="48.645901" lon="-1.515504">
        <ele>1.896</ele>
        <time>2026-08-21T18:39:08Z</time>
      </trkpt>
      <trkpt lat="48.645910" lon="-1.515509">
        <ele>1.869</ele>
        <time>2026-08-21T18:39:09Z</time>
      </trkpt>
      <trkpt lat="48.645919" lon="-1.515514">
        <ele>1.810</ele>
        <time>2026-08-21T18:39:10Z</time>
      </trkpt>
      <trkpt lat="48.645927" lon="-1.515521">
        <ele>1.843</ele>
        <time>2026-08-21T18:39:11Z</time>
      </trkpt>
      <trkpt lat="48.645938" lon="-1.515529">
        <ele>1.920</ele>
        <time>2026-08-21T18:39:12Z</time>
      </trkpt>
      <trkpt lat="48.645948" lon="-1.515533">
        <ele>1.951</ele>
        <time>2026-08-21T18:39:13Z</time>
      </trkpt>
      <trkpt lat="48.645957" lon="-1.515540">
        <ele>1.935</ele>
        <time>2026-08-21T18:39:14Z</time>
      </trkpt>
      <trkpt lat="48.645968" lon="-1.515544">
        <ele>1.952</ele>
        <time>2026-08-21T18:39:15Z</time>
      </trkpt>
      <trkpt lat="48.645978" lon="-1.515551">
        <ele>1.974</ele>
        <time>2026-08-21T18:39:16Z</time>
      </trkpt>
      <trkpt lat="48.645989" lon="-1.515557">
        <ele>1.956</ele>
        <time>2026-08-21T18:39:17Z</time>
      </trkpt>
      <trkpt lat="48.646000" lon="-1.515563">
        <ele>1.921</ele>
        <time>2026-08-21T18:39:18Z</time>
      </trkpt>
      <trkpt lat="48.646009" lon="-1.515568">
        <ele>2.009</ele>
        <time>2026-08-21T18:39:19Z</time>
      </trkpt>
      <trkpt lat="48.646018" lon="-1.515574">
        <ele>2.129</ele>
        <time>2026-08-21T18:39:20Z</time>
      </trkpt>
      <trkpt lat="48.646029" lon="-1.515578">
        <ele>2.385</ele>
        <time>2026-08-21T18:39:21Z</time>
      </trkpt>
      <trkpt lat="48.646038" lon="-1.515581">
        <ele>2.398</ele>
        <time>2026-08-21T18:39:22Z</time>
      </trkpt>
      <trkpt lat="48.646047" lon="-1.515583">
        <ele>2.389</ele>
        <time>2026-08-21T18:39:23Z</time>
      </trkpt>
      <trkpt lat="48.646066" lon="-1.515591">
        <ele>2.342</ele>
        <time>2026-08-21T18:39:25Z</time>
      </trkpt>
      <trkpt lat="48.646078" lon="-1.515592">
        <ele>2.379</ele>
        <time>2026-08-21T18:39:26Z</time>
      </trkpt>
      <trkpt lat="48.646091" lon="-1.515595">
        <ele>2.320</ele>
        <time>2026-08-21T18:39:27Z</time>
      </trkpt>
      <trkpt lat="48.646101" lon="-1.515600">
        <ele>2.464</ele>
        <time>2026-08-21T18:39:28Z</time>
      </trkpt>
      <trkpt lat="48.646110" lon="-1.515603">
        <ele>2.481</ele>
        <time>2026-08-21T18:39:29Z</time>
      </trkpt>
      <trkpt lat="48.646119" lon="-1.515610">
        <ele>2.449</ele>
        <time>2026-08-21T18:39:30Z</time>
      </trkpt>
      <trkpt lat="48.646131" lon="-1.515617">
        <ele>2.402</ele>
        <time>2026-08-21T18:39:31Z</time>
      </trkpt>
      <trkpt lat="48.646143" lon="-1.515622">
        <ele>2.422</ele>
        <time>2026-08-21T18:39:32Z</time>
      </trkpt>
      <trkpt lat="48.646154" lon="-1.515628">
        <ele>2.409</ele>
        <time>2026-08-21T18:39:33Z</time>
      </trkpt>
      <trkpt lat="48.646164" lon="-1.515632">
        <ele>2.496</ele>
        <time>2026-08-21T18:39:34Z</time>
      </trkpt>
      <trkpt lat="48.646175" lon="-1.515637">
        <ele>2.442</ele>
        <time>2026-08-21T18:39:35Z</time>
      </trkpt>
      <trkpt lat="48.646186" lon="-1.515640">
        <ele>2.465</ele>
        <time>2026-08-21T18:39:36Z</time>
      </trkpt>
      <trkpt lat="48.646198" lon="-1.515645">
        <ele>2.456</ele>
        <time>2026-08-21T18:39:37Z</time>
      </trkpt>
      <trkpt lat="48.646209" lon="-1.515651">
        <ele>2.439</ele>
        <time>2026-08-21T18:39:38Z</time>
      </trkpt>
      <trkpt lat="48.646220" lon="-1.515658">
        <ele>2.436</ele>
        <time>2026-08-21T18:39:39Z</time>
      </trkpt>
      <trkpt lat="48.646231" lon="-1.515665">
        <ele>2.437</ele>
        <time>2026-08-21T18:39:40Z</time>
      </trkpt>
      <trkpt lat="48.646241" lon="-1.515674">
        <ele>2.421</ele>
        <time>2026-08-21T18:39:41Z</time>
      </trkpt>
      <trkpt lat="48.646250" lon="-1.515677">
        <ele>2.478</ele>
        <time>2026-08-21T18:39:42Z</time>
      </trkpt>
      <trkpt lat="48.646261" lon="-1.515680">
        <ele>2.391</ele>
        <time>2026-08-21T18:39:43Z</time>
      </trkpt>
      <trkpt lat="48.646270" lon="-1.515685">
        <ele>2.381</ele>
        <time>2026-08-21T18:39:44Z</time>
      </trkpt>
      <trkpt lat="48.646280" lon="-1.515692">
        <ele>2.319</ele>
        <time>2026-08-21T18:39:45Z</time>
      </trkpt>
      <trkpt lat="48.646288" lon="-1.515703">
        <ele>2.309</ele>
        <time>2026-08-21T18:39:46Z</time>
      </trkpt>
      <trkpt lat="48.646300" lon="-1.515707">
        <ele>2.231</ele>
        <time>2026-08-21T18:39:47Z</time>
      </trkpt>
      <trkpt lat="48.646315" lon="-1.515712">
        <ele>2.217</ele>
        <time>2026-08-21T18:39:48Z</time>
      </trkpt>
      <trkpt lat="48.646327" lon="-1.515718">
        <ele>2.110</ele>
        <time>2026-08-21T18:39:49Z</time>
      </trkpt>
      <trkpt lat="48.646337" lon="-1.515726">
        <ele>2.041</ele>
        <time>2026-08-21T18:39:50Z</time>
      </trkpt>
      <trkpt lat="48.646358" lon="-1.515729">
        <ele>2.074</ele>
        <time>2026-08-21T18:39:52Z</time>
      </trkpt>
      <trkpt lat="48.646370" lon="-1.515735">
        <ele>2.011</ele>
        <time>2026-08-21T18:39:53Z</time>
      </trkpt>
      <trkpt lat="48.646379" lon="-1.515743">
        <ele>1.982</ele>
        <time>2026-08-21T18:39:54Z</time>
      </trkpt>
      <trkpt lat="48.646387" lon="-1.515749">
        <ele>1.996</ele>
        <time>2026-08-21T18:39:55Z</time>
      </trkpt>
      <trkpt lat="48.646399" lon="-1.515756">
        <ele>1.933</ele>
        <time>2026-08-21T18:39:56Z</time>
      </trkpt>
      <trkpt lat="48.646409" lon="-1.515764">
        <ele>1.828</ele>
        <time>2026-08-21T18:39:57Z</time>
      </trkpt>
      <trkpt lat="48.646418" lon="-1.515769">
        <ele>1.889</ele>
        <time>2026-08-21T18:39:58Z</time>
      </trkpt>
      <trkpt lat="48.646429" lon="-1.515775">
        <ele>1.717</ele>
        <time>2026-08-21T18:39:59Z</time>
      </trkpt>
      <trkpt lat="48.646438" lon="-1.515787">
        <ele>1.609</ele>
        <time>2026-08-21T18:40:00Z</time>
      </trkpt>
      <trkpt lat="48.646451" lon="-1.515794">
        <ele>1.624</ele>
        <time>2026-08-21T18:40:01Z</time>
      </trkpt>
      <trkpt lat="48.646465" lon="-1.515802">
        <ele>1.660</ele>
        <time>2026-08-21T18:40:03Z</time>
      </trkpt>
      <trkpt lat="48.646483" lon="-1.515813">
        <ele>1.663</ele>
        <time>2026-08-21T18:40:05Z</time>
      </trkpt>
      <trkpt lat="48.646494" lon="-1.515822">
        <ele>1.534</ele>
        <time>2026-08-21T18:40:06Z</time>
      </trkpt>
      <trkpt lat="48.646514" lon="-1.515829">
        <ele>1.567</ele>
        <time>2026-08-21T18:40:08Z</time>
      </trkpt>
      <trkpt lat="48.646526" lon="-1.515832">
        <ele>1.534</ele>
        <time>2026-08-21T18:40:09Z</time>
      </trkpt>
      <trkpt lat="48.646539" lon="-1.515835">
        <ele>1.525</ele>
        <time>2026-08-21T18:40:10Z</time>
      </trkpt>
      <trkpt lat="48.646550" lon="-1.515839">
        <ele>1.589</ele>
        <time>2026-08-21T18:40:11Z</time>
      </trkpt>
      <trkpt lat="48.646562" lon="-1.515838">
        <ele>1.516</ele>
        <time>2026-08-21T18:40:12Z</time>
      </trkpt>
      <trkpt lat="48.646573" lon="-1.515840">
        <ele>1.462</ele>
        <time>2026-08-21T18:40:13Z</time>
      </trkpt>
      <trkpt lat="48.646584" lon="-1.515844">
        <ele>1.483</ele>
        <time>2026-08-21T18:40:14Z</time>
      </trkpt>
      <trkpt lat="48.646597" lon="-1.515853">
        <ele>1.411</ele>
        <time>2026-08-21T18:40:15Z</time>
      </trkpt>
      <trkpt lat="48.646610" lon="-1.515860">
        <ele>1.309</ele>
        <time>2026-08-21T18:40:16Z</time>
      </trkpt>
      <trkpt lat="48.646618" lon="-1.515873">
        <ele>1.398</ele>
        <time>2026-08-21T18:40:17Z</time>
      </trkpt>
      <trkpt lat="48.646629" lon="-1.515883">
        <ele>1.394</ele>
        <time>2026-08-21T18:40:18Z</time>
      </trkpt>
      <trkpt lat="48.646642" lon="-1.515889">
        <ele>1.387</ele>
        <time>2026-08-21T18:40:19Z</time>
      </trkpt>
      <trkpt lat="48.646655" lon="-1.515895">
        <ele>1.378</ele>
        <time>2026-08-21T18:40:20Z</time>
      </trkpt>
      <trkpt lat="48.646667" lon="-1.515901">
        <ele>1.381</ele>
        <time>2026-08-21T18:40:21Z</time>
      </trkpt>
      <trkpt lat="48.646678" lon="-1.515906">
        <ele>1.378</ele>
        <time>2026-08-21T18:40:22Z</time>
      </trkpt>
      <trkpt lat="48.646689" lon="-1.515905">
        <ele>1.399</ele>
        <time>2026-08-21T18:40:23Z</time>
      </trkpt>
      <trkpt lat="48.646700" lon="-1.515907">
        <ele>1.363</ele>
        <time>2026-08-21T18:40:24Z</time>
      </trkpt>
      <trkpt lat="48.646710" lon="-1.515908">
        <ele>1.280</ele>
        <time>2026-08-21T18:40:25Z</time>
      </trkpt>
      <trkpt lat="48.646721" lon="-1.515911">
        <ele>1.259</ele>
        <time>2026-08-21T18:40:26Z</time>
      </trkpt>
      <trkpt lat="48.646733" lon="-1.515916">
        <ele>1.203</ele>
        <time>2026-08-21T18:40:27Z</time>
      </trkpt>
      <trkpt lat="48.646743" lon="-1.515918">
        <ele>1.223</ele>
        <time>2026-08-21T18:40:28Z</time>
      </trkpt>
      <trkpt lat="48.646754" lon="-1.515923">
        <ele>1.209</ele>
        <time>2026-08-21T18:40:29Z</time>
      </trkpt>
      <trkpt lat="48.646766" lon="-1.515928">
        <ele>1.287</ele>
        <time>2026-08-21T18:40:30Z</time>
      </trkpt>
      <trkpt lat="48.646778" lon="-1.515932">
        <ele>1.253</ele>
        <time>2026-08-21T18:40:31Z</time>
      </trkpt>
      <trkpt lat="48.646790" lon="-1.515935">
        <ele>1.156</ele>
        <time>2026-08-21T18:40:32Z</time>
      </trkpt>
      <trkpt lat="48.646803" lon="-1.515938">
        <ele>1.137</ele>
        <time>2026-08-21T18:40:33Z</time>
      </trkpt>
      <trkpt lat="48.646814" lon="-1.515939">
        <ele>1.140</ele>
        <time>2026-08-21T18:40:34Z</time>
      </trkpt>
      <trkpt lat="48.646825" lon="-1.515941">
        <ele>1.157</ele>
        <time>2026-08-21T18:40:35Z</time>
      </trkpt>
      <trkpt lat="48.646837" lon="-1.515940">
        <ele>1.168</ele>
        <time>2026-08-21T18:40:36Z</time>
      </trkpt>
      <trkpt lat="48.646848" lon="-1.515941">
        <ele>1.152</ele>
        <time>2026-08-21T18:40:37Z</time>
      </trkpt>
      <trkpt lat="48.646857" lon="-1.515941">
        <ele>1.159</ele>
        <time>2026-08-21T18:40:38Z</time>
      </trkpt>
      <trkpt lat="48.646867" lon="-1.515939">
        <ele>1.191</ele>
        <time>2026-08-21T18:40:39Z</time>
      </trkpt>
      <trkpt lat="48.646878" lon="-1.515941">
        <ele>1.181</ele>
        <time>2026-08-21T18:40:40Z</time>
      </trkpt>
      <trkpt lat="48.646889" lon="-1.515941">
        <ele>1.119</ele>
        <time>2026-08-21T18:40:41Z</time>
      </trkpt>
      <trkpt lat="48.646901" lon="-1.515941">
        <ele>1.109</ele>
        <time>2026-08-21T18:40:42Z</time>
      </trkpt>
      <trkpt lat="48.646914" lon="-1.515946">
        <ele>1.121</ele>
        <time>2026-08-21T18:40:43Z</time>
      </trkpt>
      <trkpt lat="48.646924" lon="-1.515953">
        <ele>1.147</ele>
        <time>2026-08-21T18:40:44Z</time>
      </trkpt>
      <trkpt lat="48.646935" lon="-1.515959">
        <ele>1.180</ele>
        <time>2026-08-21T18:40:45Z</time>
      </trkpt>
      <trkpt lat="48.646948" lon="-1.515961">
        <ele>1.131</ele>
        <time>2026-08-21T18:40:46Z</time>
      </trkpt>
      <trkpt lat="48.646962" lon="-1.515963">
        <ele>1.264</ele>
        <time>2026-08-21T18:40:47Z</time>
      </trkpt>
      <trkpt lat="48.646972" lon="-1.515966">
        <ele>1.211</ele>
        <time>2026-08-21T18:40:48Z</time>
      </trkpt>
      <trkpt lat="48.646989" lon="-1.515971">
        <ele>1.222</ele>
        <time>2026-08-21T18:40:50Z</time>
      </trkpt>
      <trkpt lat="48.647007" lon="-1.515970">
        <ele>1.286</ele>
        <time>2026-08-21T18:40:52Z</time>
      </trkpt>
      <trkpt lat="48.647023" lon="-1.515975">
        <ele>1.263</ele>
        <time>2026-08-21T18:40:54Z</time>
      </trkpt>
      <trkpt lat="48.647040" lon="-1.515975">
        <ele>1.231</ele>
        <time>2026-08-21T18:40:56Z</time>
      </trkpt>
      <trkpt lat="48.647061" lon="-1.515979">
        <ele>1.161</ele>
        <time>2026-08-21T18:40:58Z</time>
      </trkpt>
      <trkpt lat="48.647071" lon="-1.515979">
        <ele>1.107</ele>
        <time>2026-08-21T18:40:59Z</time>
      </trkpt>
      <trkpt lat="48.647082" lon="-1.515982">
        <ele>1.109</ele>
        <time>2026-08-21T18:41:00Z</time>
      </trkpt>
      <trkpt lat="48.647093" lon="-1.515982">
        <ele>1.175</ele>
        <time>2026-08-21T18:41:01Z</time>
      </trkpt>
      <trkpt lat="48.647105" lon="-1.515982">
        <ele>1.121</ele>
        <time>2026-08-21T18:41:02Z</time>
      </trkpt>
      <trkpt lat="48.647118" lon="-1.515981">
        <ele>1.174</ele>
        <time>2026-08-21T18:41:03Z</time>
      </trkpt>
      <trkpt lat="48.647129" lon="-1.515982">
        <ele>1.195</ele>
        <time>2026-08-21T18:41:04Z</time>
      </trkpt>
      <trkpt lat="48.647142" lon="-1.515985">
        <ele>1.178</ele>
        <time>2026-08-21T18:41:05Z</time>
      </trkpt>
      <trkpt lat="48.647154" lon="-1.515990">
        <ele>1.165</ele>
        <time>2026-08-21T18:41:06Z</time>
      </trkpt>
      <trkpt lat="48.647165" lon="-1.515995">
        <ele>1.126</ele>
        <time>2026-08-21T18:41:07Z</time>
      </trkpt>
      <trkpt lat="48.647175" lon="-1.515999">
        <ele>1.190</ele>
        <time>2026-08-21T18:41:08Z</time>
      </trkpt>
      <trkpt lat="48.647188" lon="-1.516001">
        <ele>1.177</ele>
        <time>2026-08-21T18:41:09Z</time>
      </trkpt>
      <trkpt lat="48.647202" lon="-1.516003">
        <ele>1.113</ele>
        <time>2026-08-21T18:41:10Z</time>
      </trkpt>
      <trkpt lat="48.647214" lon="-1.516006">
        <ele>1.143</ele>
        <time>2026-08-21T18:41:11Z</time>
      </trkpt>
      <trkpt lat="48.647227" lon="-1.516011">
        <ele>1.107</ele>
        <time>2026-08-21T18:41:12Z</time>
      </trkpt>
      <trkpt lat="48.647239" lon="-1.516011">
        <ele>1.209</ele>
        <time>2026-08-21T18:41:13Z</time>
      </trkpt>
      <trkpt lat="48.647252" lon="-1.516014">
        <ele>1.343</ele>
        <time>2026-08-21T18:41:14Z</time>
      </trkpt>
      <trkpt lat="48.647263" lon="-1.516017">
        <ele>1.349</ele>
        <time>2026-08-21T18:41:15Z</time>
      </trkpt>
      <trkpt lat="48.647275" lon="-1.516020">
        <ele>1.482</ele>
        <time>2026-08-21T18:41:16Z</time>
      </trkpt>
      <trkpt lat="48.647288" lon="-1.516023">
        <ele>1.413</ele>
        <time>2026-08-21T18:41:17Z</time>
      </trkpt>
      <trkpt lat="48.647299" lon="-1.516023">
        <ele>1.566</ele>
        <time>2026-08-21T18:41:18Z</time>
      </trkpt>
      <trkpt lat="48.647309" lon="-1.516027">
        <ele>1.593</ele>
        <time>2026-08-21T18:41:19Z</time>
      </trkpt>
      <trkpt lat="48.647319" lon="-1.516031">
        <ele>1.534</ele>
        <time>2026-08-21T18:41:20Z</time>
      </trkpt>
      <trkpt lat="48.647330" lon="-1.516032">
        <ele>1.528</ele>
        <time>2026-08-21T18:41:21Z</time>
      </trkpt>
      <trkpt lat="48.647341" lon="-1.516037">
        <ele>1.565</ele>
        <time>2026-08-21T18:41:22Z</time>
      </trkpt>
      <trkpt lat="48.647354" lon="-1.516034">
        <ele>1.444</ele>
        <time>2026-08-21T18:41:24Z</time>
      </trkpt>
      <trkpt lat="48.647374" lon="-1.516039">
        <ele>1.305</ele>
        <time>2026-08-21T18:41:26Z</time>
      </trkpt>
      <trkpt lat="48.647388" lon="-1.516046">
        <ele>1.315</ele>
        <time>2026-08-21T18:41:27Z</time>
      </trkpt>
      <trkpt lat="48.647400" lon="-1.516054">
        <ele>1.309</ele>
        <time>2026-08-21T18:41:28Z</time>
      </trkpt>
      <trkpt lat="48.647412" lon="-1.516057">
        <ele>1.546</ele>
        <time>2026-08-21T18:41:29Z</time>
      </trkpt>
      <trkpt lat="48.647423" lon="-1.516057">
        <ele>1.522</ele>
        <time>2026-08-21T18:41:30Z</time>
      </trkpt>
      <trkpt lat="48.647434" lon="-1.516060">
        <ele>1.515</ele>
        <time>2026-08-21T18:41:31Z</time>
      </trkpt>
      <trkpt lat="48.647445" lon="-1.516062">
        <ele>1.696</ele>
        <time>2026-08-21T18:41:32Z</time>
      </trkpt>
      <trkpt lat="48.647458" lon="-1.516068">
        <ele>1.629</ele>
        <time>2026-08-21T18:41:33Z</time>
      </trkpt>
      <trkpt lat="48.647469" lon="-1.516071">
        <ele>1.626</ele>
        <time>2026-08-21T18:41:34Z</time>
      </trkpt>
      <trkpt lat="48.647478" lon="-1.516076">
        <ele>1.687</ele>
        <time>2026-08-21T18:41:35Z</time>
      </trkpt>
      <trkpt lat="48.647488" lon="-1.516077">
        <ele>1.631</ele>
        <time>2026-08-21T18:41:36Z</time>
      </trkpt>
      <trkpt lat="48.647505" lon="-1.516086">
        <ele>1.618</ele>
        <time>2026-08-21T18:41:38Z</time>
      </trkpt>
      <trkpt lat="48.647515" lon="-1.516091">
        <ele>1.671</ele>
        <time>2026-08-21T18:41:39Z</time>
      </trkpt>
      <trkpt lat="48.647524" lon="-1.516092">
        <ele>1.641</ele>
        <time>2026-08-21T18:41:40Z</time>
      </trkpt>
      <trkpt lat="48.647538" lon="-1.516091">
        <ele>1.615</ele>
        <time>2026-08-21T18:41:41Z</time>
      </trkpt>
      <trkpt lat="48.647549" lon="-1.516092">
        <ele>1.609</ele>
        <time>2026-08-21T18:41:42Z</time>
      </trkpt>
      <trkpt lat="48.647561" lon="-1.516097">
        <ele>1.559</ele>
        <time>2026-08-21T18:41:43Z</time>
      </trkpt>
      <trkpt lat="48.647573" lon="-1.516102">
        <ele>1.595</ele>
        <time>2026-08-21T18:41:44Z</time>
      </trkpt>
      <trkpt lat="48.647584" lon="-1.516103">
        <ele>1.488</ele>
        <time>2026-08-21T18:41:45Z</time>
      </trkpt>
      <trkpt lat="48.647595" lon="-1.516102">
        <ele>1.399</ele>
        <time>2026-08-21T18:41:46Z</time>
      </trkpt>
      <trkpt lat="48.647606" lon="-1.516106">
        <ele>1.242</ele>
        <time>2026-08-21T18:41:47Z</time>
      </trkpt>
      <trkpt lat="48.647617" lon="-1.516111">
        <ele>1.279</ele>
        <time>2026-08-21T18:41:48Z</time>
      </trkpt>
      <trkpt lat="48.647628" lon="-1.516119">
        <ele>1.240</ele>
        <time>2026-08-21T18:41:49Z</time>
      </trkpt>
      <trkpt lat="48.647637" lon="-1.516121">
        <ele>1.214</ele>
        <time>2026-08-21T18:41:50Z</time>
      </trkpt>
      <trkpt lat="48.647649" lon="-1.516119">
        <ele>1.271</ele>
        <time>2026-08-21T18:41:51Z</time>
      </trkpt>
      <trkpt lat="48.647664" lon="-1.516116">
        <ele>1.222</ele>
        <time>2026-08-21T18:41:52Z</time>
      </trkpt>
      <trkpt lat="48.647677" lon="-1.516117">
        <ele>1.262</ele>
        <time>2026-08-21T18:41:53Z</time>
      </trkpt>
      <trkpt lat="48.647687" lon="-1.516118">
        <ele>1.208</ele>
        <time>2026-08-21T18:41:54Z</time>
      </trkpt>
      <trkpt lat="48.647699" lon="-1.516119">
        <ele>1.209</ele>
        <time>2026-08-21T18:41:55Z</time>
      </trkpt>
      <trkpt lat="48.647710" lon="-1.516126">
        <ele>1.214</ele>
        <time>2026-08-21T18:41:56Z</time>
      </trkpt>
      <trkpt lat="48.647722" lon="-1.516131">
        <ele>1.220</ele>
        <time>2026-08-21T18:41:57Z</time>
      </trkpt>
      <trkpt lat="48.647732" lon="-1.516138">
        <ele>1.213</ele>
        <time>2026-08-21T18:41:58Z</time>
      </trkpt>
      <trkpt lat="48.647743" lon="-1.516146">
        <ele>1.224</ele>
        <time>2026-08-21T18:41:59Z</time>
      </trkpt>
      <trkpt lat="48.647756" lon="-1.516152">
        <ele>1.257</ele>
        <time>2026-08-21T18:42:00Z</time>
      </trkpt>
      <trkpt lat="48.647765" lon="-1.516157">
        <ele>1.254</ele>
        <time>2026-08-21T18:42:01Z</time>
      </trkpt>
      <trkpt lat="48.647775" lon="-1.516163">
        <ele>1.115</ele>
        <time>2026-08-21T18:42:02Z</time>
      </trkpt>
      <trkpt lat="48.647786" lon="-1.516164">
        <ele>1.189</ele>
        <time>2026-08-21T18:42:03Z</time>
      </trkpt>
      <trkpt lat="48.647796" lon="-1.516168">
        <ele>1.136</ele>
        <time>2026-08-21T18:42:04Z</time>
      </trkpt>
      <trkpt lat="48.647814" lon="-1.516172">
        <ele>1.082</ele>
        <time>2026-08-21T18:42:06Z</time>
      </trkpt>
      <trkpt lat="48.647827" lon="-1.516177">
        <ele>1.043</ele>
        <time>2026-08-21T18:42:07Z</time>
      </trkpt>
      <trkpt lat="48.647839" lon="-1.516182">
        <ele>1.017</ele>
        <time>2026-08-21T18:42:08Z</time>
      </trkpt>
      <trkpt lat="48.647851" lon="-1.516190">
        <ele>1.009</ele>
        <time>2026-08-21T18:42:09Z</time>
      </trkpt>
      <trkpt lat="48.647863" lon="-1.516192">
        <ele>1.040</ele>
        <time>2026-08-21T18:42:10Z</time>
      </trkpt>
      <trkpt lat="48.647879" lon="-1.516195">
        <ele>1.066</ele>
        <time>2026-08-21T18:42:11Z</time>
      </trkpt>
      <trkpt lat="48.647889" lon="-1.516201">
        <ele>1.089</ele>
        <time>2026-08-21T18:42:12Z</time>
      </trkpt>
      <trkpt lat="48.647898" lon="-1.516209">
        <ele>1.190</ele>
        <time>2026-08-21T18:42:13Z</time>
      </trkpt>
      <trkpt lat="48.647906" lon="-1.516219">
        <ele>1.173</ele>
        <time>2026-08-21T18:42:14Z</time>
      </trkpt>
      <trkpt lat="48.647923" lon="-1.516230">
        <ele>1.150</ele>
        <time>2026-08-21T18:42:16Z</time>
      </trkpt>
      <trkpt lat="48.647933" lon="-1.516235">
        <ele>1.191</ele>
        <time>2026-08-21T18:42:17Z</time>
      </trkpt>
      <trkpt lat="48.647943" lon="-1.516238">
        <ele>1.195</ele>
        <time>2026-08-21T18:42:18Z</time>
      </trkpt>
      <trkpt lat="48.647957" lon="-1.516243">
        <ele>1.152</ele>
        <time>2026-08-21T18:42:19Z</time>
      </trkpt>
      <trkpt lat="48.647971" lon="-1.516248">
        <ele>1.113</ele>
        <time>2026-08-21T18:42:20Z</time>
      </trkpt>
      <trkpt lat="48.647981" lon="-1.516252">
        <ele>1.043</ele>
        <time>2026-08-21T18:42:21Z</time>
      </trkpt>
      <trkpt lat="48.647995" lon="-1.516256">
        <ele>1.007</ele>
        <time>2026-08-21T18:42:22Z</time>
      </trkpt>
      <trkpt lat="48.648007" lon="-1.516258">
        <ele>1.009</ele>
        <time>2026-08-21T18:42:23Z</time>
      </trkpt>
      <trkpt lat="48.648019" lon="-1.516261">
        <ele>1.093</ele>
        <time>2026-08-21T18:42:24Z</time>
      </trkpt>
      <trkpt lat="48.648029" lon="-1.516267">
        <ele>1.079</ele>
        <time>2026-08-21T18:42:25Z</time>
      </trkpt>
      <trkpt lat="48.648050" lon="-1.516275">
        <ele>1.062</ele>
        <time>2026-08-21T18:42:27Z</time>
      </trkpt>
      <trkpt lat="48.648062" lon="-1.516280">
        <ele>1.063</ele>
        <time>2026-08-21T18:42:28Z</time>
      </trkpt>
      <trkpt lat="48.648072" lon="-1.516284">
        <ele>1.066</ele>
        <time>2026-08-21T18:42:29Z</time>
      </trkpt>
      <trkpt lat="48.648082" lon="-1.516289">
        <ele>1.083</ele>
        <time>2026-08-21T18:42:30Z</time>
      </trkpt>
      <trkpt lat="48.648093" lon="-1.516291">
        <ele>1.064</ele>
        <time>2026-08-21T18:42:31Z</time>
      </trkpt>
      <trkpt lat="48.648105" lon="-1.516292">
        <ele>1.078</ele>
        <time>2026-08-21T18:42:32Z</time>
      </trkpt>
      <trkpt lat="48.648117" lon="-1.516295">
        <ele>1.075</ele>
        <time>2026-08-21T18:42:33Z</time>
      </trkpt>
      <trkpt lat="48.648130" lon="-1.516298">
        <ele>1.036</ele>
        <time>2026-08-21T18:42:34Z</time>
      </trkpt>
      <trkpt lat="48.648139" lon="-1.516305">
        <ele>1.017</ele>
        <time>2026-08-21T18:42:35Z</time>
      </trkpt>
      <trkpt lat="48.648149" lon="-1.516312">
        <ele>1.018</ele>
        <time>2026-08-21T18:42:36Z</time>
      </trkpt>
      <trkpt lat="48.648159" lon="-1.516318">
        <ele>1.009</ele>
        <time>2026-08-21T18:42:37Z</time>
      </trkpt>
      <trkpt lat="48.648170" lon="-1.516323">
        <ele>1.025</ele>
        <time>2026-08-21T18:42:38Z</time>
      </trkpt>
      <trkpt lat="48.648179" lon="-1.516330">
        <ele>1.041</ele>
        <time>2026-08-21T18:42:39Z</time>
      </trkpt>
      <trkpt lat="48.648190" lon="-1.516335">
        <ele>1.084</ele>
        <time>2026-08-21T18:42:40Z</time>
      </trkpt>
      <trkpt lat="48.648200" lon="-1.516342">
        <ele>1.035</ele>
        <time>2026-08-21T18:42:41Z</time>
      </trkpt>
      <trkpt lat="48.648213" lon="-1.516345">
        <ele>1.048</ele>
        <time>2026-08-21T18:42:42Z</time>
      </trkpt>
      <trkpt lat="48.648225" lon="-1.516351">
        <ele>1.095</ele>
        <time>2026-08-21T18:42:43Z</time>
      </trkpt>
      <trkpt lat="48.648234" lon="-1.516354">
        <ele>1.026</ele>
        <time>2026-08-21T18:42:44Z</time>
      </trkpt>
      <trkpt lat="48.648252" lon="-1.516358">
        <ele>1.010</ele>
        <time>2026-08-21T18:42:46Z</time>
      </trkpt>
      <trkpt lat="48.648263" lon="-1.516364">
        <ele>1.057</ele>
        <time>2026-08-21T18:42:47Z</time>
      </trkpt>
      <trkpt lat="48.648275" lon="-1.516368">
        <ele>1.079</ele>
        <time>2026-08-21T18:42:48Z</time>
      </trkpt>
      <trkpt lat="48.648289" lon="-1.516374">
        <ele>1.005</ele>
        <time>2026-08-21T18:42:49Z</time>
      </trkpt>
      <trkpt lat="48.648300" lon="-1.516377">
        <ele>1.025</ele>
        <time>2026-08-21T18:42:50Z</time>
      </trkpt>
      <trkpt lat="48.648311" lon="-1.516381">
        <ele>1.009</ele>
        <time>2026-08-21T18:42:51Z</time>
      </trkpt>
      <trkpt lat="48.648323" lon="-1.516386">
        <ele>1.029</ele>
        <time>2026-08-21T18:42:52Z</time>
      </trkpt>
      <trkpt lat="48.648333" lon="-1.516386">
        <ele>1.035</ele>
        <time>2026-08-21T18:42:53Z</time>
      </trkpt>
      <trkpt lat="48.648344" lon="-1.516387">
        <ele>1.028</ele>
        <time>2026-08-21T18:42:54Z</time>
      </trkpt>
      <trkpt lat="48.648355" lon="-1.516389">
        <ele>1.059</ele>
        <time>2026-08-21T18:42:55Z</time>
      </trkpt>
      <trkpt lat="48.648366" lon="-1.516395">
        <ele>1.042</ele>
        <time>2026-08-21T18:42:56Z</time>
      </trkpt>
      <trkpt lat="48.648376" lon="-1.516399">
        <ele>1.069</ele>
        <time>2026-08-21T18:42:57Z</time>
      </trkpt>
      <trkpt lat="48.648388" lon="-1.516399">
        <ele>1.080</ele>
        <time>2026-08-21T18:42:58Z</time>
      </trkpt>
      <trkpt lat="48.648399" lon="-1.516397">
        <ele>1.054</ele>
        <time>2026-08-21T18:42:59Z</time>
      </trkpt>
      <trkpt lat="48.648411" lon="-1.516402">
        <ele>1.081</ele>
        <time>2026-08-21T18:43:00Z</time>
      </trkpt>
      <trkpt lat="48.648425" lon="-1.516414">
        <ele>0.987</ele>
        <time>2026-08-21T18:43:02Z</time>
      </trkpt>
      <trkpt lat="48.648434" lon="-1.516414">
        <ele>0.942</ele>
        <time>2026-08-21T18:43:03Z</time>
      </trkpt>
      <trkpt lat="48.648444" lon="-1.516415">
        <ele>0.926</ele>
        <time>2026-08-21T18:43:04Z</time>
      </trkpt>
      <trkpt lat="48.648457" lon="-1.516419">
        <ele>0.909</ele>
        <time>2026-08-21T18:43:05Z</time>
      </trkpt>
      <trkpt lat="48.648471" lon="-1.516421">
        <ele>0.960</ele>
        <time>2026-08-21T18:43:06Z</time>
      </trkpt>
      <trkpt lat="48.648483" lon="-1.516423">
        <ele>0.926</ele>
        <time>2026-08-21T18:43:07Z</time>
      </trkpt>
      <trkpt lat="48.648496" lon="-1.516423">
        <ele>0.949</ele>
        <time>2026-08-21T18:43:08Z</time>
      </trkpt>
      <trkpt lat="48.648508" lon="-1.516424">
        <ele>0.940</ele>
        <time>2026-08-21T18:43:09Z</time>
      </trkpt>
      <trkpt lat="48.648520" lon="-1.516426">
        <ele>0.973</ele>
        <time>2026-08-21T18:43:10Z</time>
      </trkpt>
      <trkpt lat="48.648533" lon="-1.516432">
        <ele>0.960</ele>
        <time>2026-08-21T18:43:11Z</time>
      </trkpt>
      <trkpt lat="48.648549" lon="-1.516429">
        <ele>0.961</ele>
        <time>2026-08-21T18:43:13Z</time>
      </trkpt>
      <trkpt lat="48.648569" lon="-1.516432">
        <ele>0.985</ele>
        <time>2026-08-21T18:43:15Z</time>
      </trkpt>
      <trkpt lat="48.648581" lon="-1.516436">
        <ele>0.922</ele>
        <time>2026-08-21T18:43:16Z</time>
      </trkpt>
      <trkpt lat="48.648593" lon="-1.516434">
        <ele>0.962</ele>
        <time>2026-08-21T18:43:17Z</time>
      </trkpt>
      <trkpt lat="48.648604" lon="-1.516434">
        <ele>0.883</ele>
        <time>2026-08-21T18:43:18Z</time>
      </trkpt>
      <trkpt lat="48.648615" lon="-1.516436">
        <ele>0.811</ele>
        <time>2026-08-21T18:43:19Z</time>
      </trkpt>
      <trkpt lat="48.648625" lon="-1.516440">
        <ele>0.809</ele>
        <time>2026-08-21T18:43:20Z</time>
      </trkpt>
      <trkpt lat="48.648637" lon="-1.516437">
        <ele>0.778</ele>
        <time>2026-08-21T18:43:21Z</time>
      </trkpt>
      <trkpt lat="48.648648" lon="-1.516436">
        <ele>0.754</ele>
        <time>2026-08-21T18:43:22Z</time>
      </trkpt>
      <trkpt lat="48.648659" lon="-1.516435">
        <ele>0.737</ele>
        <time>2026-08-21T18:43:23Z</time>
      </trkpt>
      <trkpt lat="48.648669" lon="-1.516437">
        <ele>0.748</ele>
        <time>2026-08-21T18:43:24Z</time>
      </trkpt>
      <trkpt lat="48.648679" lon="-1.516443">
        <ele>0.781</ele>
        <time>2026-08-21T18:43:25Z</time>
      </trkpt>
      <trkpt lat="48.648690" lon="-1.516449">
        <ele>0.728</ele>
        <time>2026-08-21T18:43:26Z</time>
      </trkpt>
      <trkpt lat="48.648704" lon="-1.516452">
        <ele>0.729</ele>
        <time>2026-08-21T18:43:27Z</time>
      </trkpt>
      <trkpt lat="48.648716" lon="-1.516457">
        <ele>0.893</ele>
        <time>2026-08-21T18:43:28Z</time>
      </trkpt>
      <trkpt lat="48.648726" lon="-1.516465">
        <ele>0.880</ele>
        <time>2026-08-21T18:43:29Z</time>
      </trkpt>
      <trkpt lat="48.648736" lon="-1.516476">
        <ele>0.836</ele>
        <time>2026-08-21T18:43:30Z</time>
      </trkpt>
      <trkpt lat="48.648755" lon="-1.516482">
        <ele>0.817</ele>
        <time>2026-08-21T18:43:32Z</time>
      </trkpt>
      <trkpt lat="48.648766" lon="-1.516483">
        <ele>0.818</ele>
        <time>2026-08-21T18:43:33Z</time>
      </trkpt>
      <trkpt lat="48.648776" lon="-1.516489">
        <ele>0.809</ele>
        <time>2026-08-21T18:43:34Z</time>
      </trkpt>
      <trkpt lat="48.648787" lon="-1.516496">
        <ele>0.865</ele>
        <time>2026-08-21T18:43:35Z</time>
      </trkpt>
      <trkpt lat="48.648796" lon="-1.516499">
        <ele>0.911</ele>
        <time>2026-08-21T18:43:36Z</time>
      </trkpt>
      <trkpt lat="48.648810" lon="-1.516504">
        <ele>0.974</ele>
        <time>2026-08-21T18:43:37Z</time>
      </trkpt>
      <trkpt lat="48.648821" lon="-1.516508">
        <ele>0.965</ele>
        <time>2026-08-21T18:43:38Z</time>
      </trkpt>
      <trkpt lat="48.648830" lon="-1.516514">
        <ele>1.078</ele>
        <time>2026-08-21T18:43:39Z</time>
      </trkpt>
      <trkpt lat="48.648844" lon="-1.516521">
        <ele>1.015</ele>
        <time>2026-08-21T18:43:41Z</time>
      </trkpt>
      <trkpt lat="48.648854" lon="-1.516527">
        <ele>1.046</ele>
        <time>2026-08-21T18:43:42Z</time>
      </trkpt>
      <trkpt lat="48.648867" lon="-1.516531">
        <ele>0.910</ele>
        <time>2026-08-21T18:43:43Z</time>
      </trkpt>
      <trkpt lat="48.648877" lon="-1.516537">
        <ele>0.917</ele>
        <time>2026-08-21T18:43:44Z</time>
      </trkpt>
      <trkpt lat="48.648887" lon="-1.516548">
        <ele>0.916</ele>
        <time>2026-08-21T18:43:45Z</time>
      </trkpt>
      <trkpt lat="48.648907" lon="-1.516553">
        <ele>0.976</ele>
        <time>2026-08-21T18:43:47Z</time>
      </trkpt>
      <trkpt lat="48.648920" lon="-1.516554">
        <ele>0.913</ele>
        <time>2026-08-21T18:43:48Z</time>
      </trkpt>
      <trkpt lat="48.648932" lon="-1.516553">
        <ele>0.909</ele>
        <time>2026-08-21T18:43:49Z</time>
      </trkpt>
      <trkpt lat="48.648942" lon="-1.516553">
        <ele>0.993</ele>
        <time>2026-08-21T18:43:50Z</time>
      </trkpt>
      <trkpt lat="48.648953" lon="-1.516556">
        <ele>0.959</ele>
        <time>2026-08-21T18:43:51Z</time>
      </trkpt>
      <trkpt lat="48.648962" lon="-1.516555">
        <ele>0.982</ele>
        <time>2026-08-21T18:43:52Z</time>
      </trkpt>
      <trkpt lat="48.648975" lon="-1.516558">
        <ele>0.973</ele>
        <time>2026-08-21T18:43:53Z</time>
      </trkpt>
      <trkpt lat="48.648988" lon="-1.516570">
        <ele>0.936</ele>
        <time>2026-08-21T18:43:54Z</time>
      </trkpt>
      <trkpt lat="48.649001" lon="-1.516578">
        <ele>0.933</ele>
        <time>2026-08-21T18:43:55Z</time>
      </trkpt>
      <trkpt lat="48.649011" lon="-1.516586">
        <ele>0.924</ele>
        <time>2026-08-21T18:43:56Z</time>
      </trkpt>
      <trkpt lat="48.649021" lon="-1.516592">
        <ele>0.988</ele>
        <time>2026-08-21T18:43:57Z</time>
      </trkpt>
      <trkpt lat="48.649032" lon="-1.516597">
        <ele>0.975</ele>
        <time>2026-08-21T18:43:58Z</time>
      </trkpt>
      <trkpt lat="48.649041" lon="-1.516604">
        <ele>0.987</ele>
        <time>2026-08-21T18:43:59Z</time>
      </trkpt>
      <trkpt lat="48.649058" lon="-1.516606">
        <ele>0.942</ele>
        <time>2026-08-21T18:44:01Z</time>
      </trkpt>
      <trkpt lat="48.649070" lon="-1.516612">
        <ele>0.926</ele>
        <time>2026-08-21T18:44:02Z</time>
      </trkpt>
      <trkpt lat="48.649081" lon="-1.516618">
        <ele>0.909</ele>
        <time>2026-08-21T18:44:03Z</time>
      </trkpt>
      <trkpt lat="48.649096" lon="-1.516629">
        <ele>0.950</ele>
        <time>2026-08-21T18:44:05Z</time>
      </trkpt>
      <trkpt lat="48.649108" lon="-1.516634">
        <ele>0.976</ele>
        <time>2026-08-21T18:44:06Z</time>
      </trkpt>
      <trkpt lat="48.649120" lon="-1.516639">
        <ele>0.989</ele>
        <time>2026-08-21T18:44:07Z</time>
      </trkpt>
      <trkpt lat="48.649130" lon="-1.516640">
        <ele>0.990</ele>
        <time>2026-08-21T18:44:08Z</time>
      </trkpt>
      <trkpt lat="48.649139" lon="-1.516642">
        <ele>0.913</ele>
        <time>2026-08-21T18:44:09Z</time>
      </trkpt>
      <trkpt lat="48.649150" lon="-1.516647">
        <ele>0.840</ele>
        <time>2026-08-21T18:44:10Z</time>
      </trkpt>
      <trkpt lat="48.649165" lon="-1.516650">
        <ele>0.871</ele>
        <time>2026-08-21T18:44:11Z</time>
      </trkpt>
      <trkpt lat="48.649178" lon="-1.516656">
        <ele>0.835</ele>
        <time>2026-08-21T18:44:12Z</time>
      </trkpt>
      <trkpt lat="48.649189" lon="-1.516659">
        <ele>0.852</ele>
        <time>2026-08-21T18:44:13Z</time>
      </trkpt>
      <trkpt lat="48.649200" lon="-1.516662">
        <ele>0.861</ele>
        <time>2026-08-21T18:44:14Z</time>
      </trkpt>
      <trkpt lat="48.649213" lon="-1.516662">
        <ele>0.821</ele>
        <time>2026-08-21T18:44:15Z</time>
      </trkpt>
      <trkpt lat="48.649226" lon="-1.516668">
        <ele>0.813</ele>
        <time>2026-08-21T18:44:16Z</time>
      </trkpt>
      <trkpt lat="48.649239" lon="-1.516673">
        <ele>0.809</ele>
        <time>2026-08-21T18:44:17Z</time>
      </trkpt>
      <trkpt lat="48.649250" lon="-1.516673">
        <ele>0.848</ele>
        <time>2026-08-21T18:44:18Z</time>
      </trkpt>
      <trkpt lat="48.649260" lon="-1.516675">
        <ele>0.834</ele>
        <time>2026-08-21T18:44:19Z</time>
      </trkpt>
      <trkpt lat="48.649272" lon="-1.516682">
        <ele>0.897</ele>
        <time>2026-08-21T18:44:20Z</time>
      </trkpt>
      <trkpt lat="48.649282" lon="-1.516687">
        <ele>0.818</ele>
        <time>2026-08-21T18:44:21Z</time>
      </trkpt>
      <trkpt lat="48.649297" lon="-1.516693">
        <ele>0.991</ele>
        <time>2026-08-21T18:44:23Z</time>
      </trkpt>
      <trkpt lat="48.649307" lon="-1.516693">
        <ele>0.918</ele>
        <time>2026-08-21T18:44:24Z</time>
      </trkpt>
      <trkpt lat="48.649318" lon="-1.516694">
        <ele>0.969</ele>
        <time>2026-08-21T18:44:25Z</time>
      </trkpt>
      <trkpt lat="48.649334" lon="-1.516699">
        <ele>0.913</ele>
        <time>2026-08-21T18:44:27Z</time>
      </trkpt>
      <trkpt lat="48.649347" lon="-1.516700">
        <ele>0.960</ele>
        <time>2026-08-21T18:44:28Z</time>
      </trkpt>
      <trkpt lat="48.649361" lon="-1.516697">
        <ele>1.063</ele>
        <time>2026-08-21T18:44:29Z</time>
      </trkpt>
      <trkpt lat="48.649370" lon="-1.516695">
        <ele>1.044</ele>
        <time>2026-08-21T18:44:30Z</time>
      </trkpt>
      <trkpt lat="48.649381" lon="-1.516697">
        <ele>1.018</ele>
        <time>2026-08-21T18:44:31Z</time>
      </trkpt>
      <trkpt lat="48.649393" lon="-1.516698">
        <ele>1.009</ele>
        <time>2026-08-21T18:44:32Z</time>
      </trkpt>
      <trkpt lat="48.649402" lon="-1.516699">
        <ele>1.048</ele>
        <time>2026-08-21T18:44:33Z</time>
      </trkpt>
      <trkpt lat="48.649413" lon="-1.516702">
        <ele>1.034</ele>
        <time>2026-08-21T18:44:34Z</time>
      </trkpt>
      <trkpt lat="48.649423" lon="-1.516706">
        <ele>1.017</ele>
        <time>2026-08-21T18:44:35Z</time>
      </trkpt>
      <trkpt lat="48.649434" lon="-1.516709">
        <ele>1.028</ele>
        <time>2026-08-21T18:44:36Z</time>
      </trkpt>
      <trkpt lat="48.649449" lon="-1.516712">
        <ele>1.061</ele>
        <time>2026-08-21T18:44:37Z</time>
      </trkpt>
      <trkpt lat="48.649459" lon="-1.516719">
        <ele>1.098</ele>
        <time>2026-08-21T18:44:38Z</time>
      </trkpt>
      <trkpt lat="48.649469" lon="-1.516723">
        <ele>1.049</ele>
        <time>2026-08-21T18:44:39Z</time>
      </trkpt>
      <trkpt lat="48.649487" lon="-1.516725">
        <ele>1.093</ele>
        <time>2026-08-21T18:44:41Z</time>
      </trkpt>
      <trkpt lat="48.649496" lon="-1.516728">
        <ele>1.090</ele>
        <time>2026-08-21T18:44:42Z</time>
      </trkpt>
      <trkpt lat="48.649505" lon="-1.516731">
        <ele>1.052</ele>
        <time>2026-08-21T18:44:43Z</time>
      </trkpt>
      <trkpt lat="48.649513" lon="-1.516739">
        <ele>1.053</ele>
        <time>2026-08-21T18:44:46Z</time>
      </trkpt>
      <trkpt lat="48.649522" lon="-1.516745">
        <ele>1.008</ele>
        <time>2026-08-21T18:44:54Z</time>
      </trkpt>
      <trkpt lat="48.649531" lon="-1.516754">
        <ele>1.009</ele>
        <time>2026-08-21T18:44:56Z</time>
      </trkpt>
      <trkpt lat="48.649538" lon="-1.516769">
        <ele>1.047</ele>
        <time>2026-08-21T18:44:59Z</time>
      </trkpt>
      <trkpt lat="48.649549" lon="-1.516765">
        <ele>1.073</ele>
        <time>2026-08-21T18:45:01Z</time>
      </trkpt>
      <trkpt lat="48.649538" lon="-1.516765">
        <ele>1.086</ele>
        <time>2026-08-21T18:45:09Z</time>
      </trkpt>
      <trkpt lat="48.649526" lon="-1.516746">
        <ele>1.057</ele>
        <time>2026-08-21T18:45:11Z</time>
      </trkpt>
      <trkpt lat="48.649518" lon="-1.516739">
        <ele>0.960</ele>
        <time>2026-08-21T18:45:14Z</time>
      </trkpt>
      <trkpt lat="48.649530" lon="-1.516756">
        <ele>0.927</ele>
        <time>2026-08-21T18:45:39Z</time>
      </trkpt>
      <trkpt lat="48.649541" lon="-1.516757">
        <ele>0.958</ele>
        <time>2026-08-21T18:45:40Z</time>
      </trkpt>
      <trkpt lat="48.649551" lon="-1.516760">
        <ele>0.852</ele>
        <time>2026-08-21T18:45:41Z</time>
      </trkpt>
      <trkpt lat="48.649570" lon="-1.516761">
        <ele>0.819</ele>
        <time>2026-08-21T18:45:43Z</time>
      </trkpt>
      <trkpt lat="48.649579" lon="-1.516761">
        <ele>0.779</ele>
        <time>2026-08-21T18:45:44Z</time>
      </trkpt>
      <trkpt lat="48.649589" lon="-1.516763">
        <ele>0.605</ele>
        <time>2026-08-21T18:45:45Z</time>
      </trkpt>
      <trkpt lat="48.649599" lon="-1.516765">
        <ele>0.525</ele>
        <time>2026-08-21T18:45:46Z</time>
      </trkpt>
      <trkpt lat="48.649608" lon="-1.516767">
        <ele>0.509</ele>
        <time>2026-08-21T18:45:47Z</time>
      </trkpt>
      <trkpt lat="48.649617" lon="-1.516766">
        <ele>0.529</ele>
        <time>2026-08-21T18:45:48Z</time>
      </trkpt>
      <trkpt lat="48.649627" lon="-1.516766">
        <ele>0.465</ele>
        <time>2026-08-21T18:45:49Z</time>
      </trkpt>
      <trkpt lat="48.649642" lon="-1.516771">
        <ele>0.468</ele>
        <time>2026-08-21T18:45:51Z</time>
      </trkpt>
      <trkpt lat="48.649645" lon="-1.516787">
        <ele>-0.189</ele>
        <time>2026-08-21T18:46:58Z</time>
      </trkpt>
      <trkpt lat="48.649654" lon="-1.516790">
        <ele>0.062</ele>
        <time>2026-08-21T18:47:05Z</time>
      </trkpt>
      <trkpt lat="48.649660" lon="-1.516800">
        <ele>0.119</ele>
        <time>2026-08-21T18:47:26Z</time>
      </trkpt>
      <trkpt lat="48.649656" lon="-1.516785">
        <ele>0.070</ele>
        <time>2026-08-21T18:47:34Z</time>
      </trkpt>
      <trkpt lat="48.649650" lon="-1.516773">
        <ele>0.194</ele>
        <time>2026-08-21T18:47:39Z</time>
      </trkpt>
      <trkpt lat="48.649647" lon="-1.516760">
        <ele>0.061</ele>
        <time>2026-08-21T18:47:44Z</time>
      </trkpt>
      <trkpt lat="48.649661" lon="-1.516781">
        <ele>0.163</ele>
        <time>2026-08-21T18:47:51Z</time>
      </trkpt>
      <trkpt lat="48.649676" lon="-1.516796">
        <ele>0.144</ele>
        <time>2026-08-21T18:47:53Z</time>
      </trkpt>
      <trkpt lat="48.649692" lon="-1.516799">
        <ele>0.118</ele>
        <time>2026-08-21T18:47:55Z</time>
      </trkpt>
      <trkpt lat="48.649703" lon="-1.516798">
        <ele>0.209</ele>
        <time>2026-08-21T18:47:56Z</time>
      </trkpt>
      <trkpt lat="48.649718" lon="-1.516796">
        <ele>0.278</ele>
        <time>2026-08-21T18:47:58Z</time>
      </trkpt>
      <trkpt lat="48.649728" lon="-1.516797">
        <ele>0.224</ele>
        <time>2026-08-21T18:47:59Z</time>
      </trkpt>
      <trkpt lat="48.649740" lon="-1.516800">
        <ele>0.297</ele>
        <time>2026-08-21T18:48:00Z</time>
      </trkpt>
      <trkpt lat="48.649751" lon="-1.516794">
        <ele>0.498</ele>
        <time>2026-08-21T18:48:01Z</time>
      </trkpt>
      <trkpt lat="48.649769" lon="-1.516794">
        <ele>0.561</ele>
        <time>2026-08-21T18:48:04Z</time>
      </trkpt>
      <trkpt lat="48.649782" lon="-1.516792">
        <ele>0.558</ele>
        <time>2026-08-21T18:48:06Z</time>
      </trkpt>
      <trkpt lat="48.649792" lon="-1.516787">
        <ele>0.529</ele>
        <time>2026-08-21T18:48:07Z</time>
      </trkpt>
      <trkpt lat="48.649801" lon="-1.516782">
        <ele>0.633</ele>
        <time>2026-08-21T18:48:08Z</time>
      </trkpt>
      <trkpt lat="48.649815" lon="-1.516783">
        <ele>0.750</ele>
        <time>2026-08-21T18:48:10Z</time>
      </trkpt>
      <trkpt lat="48.649817" lon="-1.516767">
        <ele>0.855</ele>
        <time>2026-08-21T18:48:13Z</time>
      </trkpt>
      <trkpt lat="48.649828" lon="-1.516763">
        <ele>1.007</ele>
        <time>2026-08-21T18:48:15Z</time>
      </trkpt>
      <trkpt lat="48.649838" lon="-1.516767">
        <ele>1.117</ele>
        <time>2026-08-21T18:48:21Z</time>
      </trkpt>
      <trkpt lat="48.649848" lon="-1.516771">
        <ele>1.209</ele>
        <time>2026-08-21T18:48:22Z</time>
      </trkpt>
      <trkpt lat="48.649866" lon="-1.516776">
        <ele>1.237</ele>
        <time>2026-08-21T18:48:24Z</time>
      </trkpt>
      <trkpt lat="48.649881" lon="-1.516775">
        <ele>1.283</ele>
        <time>2026-08-21T18:48:32Z</time>
      </trkpt>
      <trkpt lat="48.649894" lon="-1.516773">
        <ele>1.236</ele>
        <time>2026-08-21T18:48:33Z</time>
      </trkpt>
      <trkpt lat="48.649904" lon="-1.516779">
        <ele>1.337</ele>
        <time>2026-08-21T18:48:34Z</time>
      </trkpt>
      <trkpt lat="48.649918" lon="-1.516790">
        <ele>1.210</ele>
        <time>2026-08-21T18:48:36Z</time>
      </trkpt>
      <trkpt lat="48.649928" lon="-1.516797">
        <ele>1.217</ele>
        <time>2026-08-21T18:48:37Z</time>
      </trkpt>
      <trkpt lat="48.649938" lon="-1.516799">
        <ele>1.298</ele>
        <time>2026-08-21T18:48:38Z</time>
      </trkpt>
      <trkpt lat="48.649957" lon="-1.516806">
        <ele>1.242</ele>
        <time>2026-08-21T18:48:40Z</time>
      </trkpt>
      <trkpt lat="48.649968" lon="-1.516809">
        <ele>1.249</ele>
        <time>2026-08-21T18:48:41Z</time>
      </trkpt>
      <trkpt lat="48.649979" lon="-1.516809">
        <ele>1.293</ele>
        <time>2026-08-21T18:48:42Z</time>
      </trkpt>
      <trkpt lat="48.649992" lon="-1.516809">
        <ele>1.265</ele>
        <time>2026-08-21T18:48:43Z</time>
      </trkpt>
      <trkpt lat="48.650001" lon="-1.516814">
        <ele>1.221</ele>
        <time>2026-08-21T18:48:44Z</time>
      </trkpt>
      <trkpt lat="48.650010" lon="-1.516819">
        <ele>1.209</ele>
        <time>2026-08-21T18:48:45Z</time>
      </trkpt>
      <trkpt lat="48.650022" lon="-1.516822">
        <ele>1.231</ele>
        <time>2026-08-21T18:48:46Z</time>
      </trkpt>
      <trkpt lat="48.650034" lon="-1.516827">
        <ele>1.217</ele>
        <time>2026-08-21T18:48:47Z</time>
      </trkpt>
      <trkpt lat="48.650051" lon="-1.516831">
        <ele>1.240</ele>
        <time>2026-08-21T18:48:49Z</time>
      </trkpt>
      <trkpt lat="48.650060" lon="-1.516833">
        <ele>1.251</ele>
        <time>2026-08-21T18:48:50Z</time>
      </trkpt>
      <trkpt lat="48.650071" lon="-1.516832">
        <ele>1.274</ele>
        <time>2026-08-21T18:48:51Z</time>
      </trkpt>
      <trkpt lat="48.650083" lon="-1.516832">
        <ele>1.161</ele>
        <time>2026-08-21T18:48:52Z</time>
      </trkpt>
      <trkpt lat="48.650096" lon="-1.516830">
        <ele>1.182</ele>
        <time>2026-08-21T18:48:53Z</time>
      </trkpt>
      <trkpt lat="48.650107" lon="-1.516832">
        <ele>1.056</ele>
        <time>2026-08-21T18:48:54Z</time>
      </trkpt>
      <trkpt lat="48.650119" lon="-1.516835">
        <ele>1.013</ele>
        <time>2026-08-21T18:48:55Z</time>
      </trkpt>
      <trkpt lat="48.650134" lon="-1.516834">
        <ele>1.085</ele>
        <time>2026-08-21T18:48:57Z</time>
      </trkpt>
      <trkpt lat="48.650157" lon="-1.516835">
        <ele>0.989</ele>
        <time>2026-08-21T18:48:59Z</time>
      </trkpt>
      <trkpt lat="48.650170" lon="-1.516835">
        <ele>0.917</ele>
        <time>2026-08-21T18:49:01Z</time>
      </trkpt>
      <trkpt lat="48.650187" lon="-1.516836">
        <ele>0.809</ele>
        <time>2026-08-21T18:49:03Z</time>
      </trkpt>
      <trkpt lat="48.650200" lon="-1.516835">
        <ele>0.840</ele>
        <time>2026-08-21T18:49:04Z</time>
      </trkpt>
      <trkpt lat="48.650213" lon="-1.516832">
        <ele>0.796</ele>
        <time>2026-08-21T18:49:05Z</time>
      </trkpt>
      <trkpt lat="48.650226" lon="-1.516828">
        <ele>0.779</ele>
        <time>2026-08-21T18:49:06Z</time>
      </trkpt>
      <trkpt lat="48.650236" lon="-1.516824">
        <ele>0.790</ele>
        <time>2026-08-21T18:49:07Z</time>
      </trkpt>
      <trkpt lat="48.650247" lon="-1.516821">
        <ele>0.633</ele>
        <time>2026-08-21T18:49:08Z</time>
      </trkpt>
      <trkpt lat="48.650262" lon="-1.516823">
        <ele>0.610</ele>
        <time>2026-08-21T18:49:10Z</time>
      </trkpt>
      <trkpt lat="48.650272" lon="-1.516832">
        <ele>0.651</ele>
        <time>2026-08-21T18:49:11Z</time>
      </trkpt>
      <trkpt lat="48.650283" lon="-1.516837">
        <ele>0.675</ele>
        <time>2026-08-21T18:49:12Z</time>
      </trkpt>
      <trkpt lat="48.650296" lon="-1.516839">
        <ele>0.692</ele>
        <time>2026-08-21T18:49:13Z</time>
      </trkpt>
      <trkpt lat="48.650308" lon="-1.516835">
        <ele>0.659</ele>
        <time>2026-08-21T18:49:14Z</time>
      </trkpt>
      <trkpt lat="48.650319" lon="-1.516836">
        <ele>0.603</ele>
        <time>2026-08-21T18:49:15Z</time>
      </trkpt>
      <trkpt lat="48.650328" lon="-1.516835">
        <ele>0.623</ele>
        <time>2026-08-21T18:49:16Z</time>
      </trkpt>
      <trkpt lat="48.650339" lon="-1.516835">
        <ele>0.609</ele>
        <time>2026-08-21T18:49:17Z</time>
      </trkpt>
      <trkpt lat="48.650350" lon="-1.516835">
        <ele>0.557</ele>
        <time>2026-08-21T18:49:18Z</time>
      </trkpt>
      <trkpt lat="48.650360" lon="-1.516831">
        <ele>0.513</ele>
        <time>2026-08-21T18:49:19Z</time>
      </trkpt>
      <trkpt lat="48.650370" lon="-1.516828">
        <ele>0.526</ele>
        <time>2026-08-21T18:49:20Z</time>
      </trkpt>
      <trkpt lat="48.650381" lon="-1.516828">
        <ele>0.557</ele>
        <time>2026-08-21T18:49:21Z</time>
      </trkpt>
      <trkpt lat="48.650391" lon="-1.516825">
        <ele>0.510</ele>
        <time>2026-08-21T18:49:22Z</time>
      </trkpt>
      <trkpt lat="48.650407" lon="-1.516822">
        <ele>0.577</ele>
        <time>2026-08-21T18:49:24Z</time>
      </trkpt>
      <trkpt lat="48.650422" lon="-1.516818">
        <ele>0.588</ele>
        <time>2026-08-21T18:49:26Z</time>
      </trkpt>
      <trkpt lat="48.650431" lon="-1.516816">
        <ele>0.522</ele>
        <time>2026-08-21T18:49:27Z</time>
      </trkpt>
      <trkpt lat="48.650444" lon="-1.516818">
        <ele>0.599</ele>
        <time>2026-08-21T18:49:28Z</time>
      </trkpt>
      <trkpt lat="48.650456" lon="-1.516817">
        <ele>0.551</ele>
        <time>2026-08-21T18:49:29Z</time>
      </trkpt>
      <trkpt lat="48.650467" lon="-1.516815">
        <ele>0.501</ele>
        <time>2026-08-21T18:49:30Z</time>
      </trkpt>
      <trkpt lat="48.650477" lon="-1.516812">
        <ele>0.411</ele>
        <time>2026-08-21T18:49:31Z</time>
      </trkpt>
      <trkpt lat="48.650487" lon="-1.516814">
        <ele>0.409</ele>
        <time>2026-08-21T18:49:32Z</time>
      </trkpt>
      <trkpt lat="48.650505" lon="-1.516815">
        <ele>0.357</ele>
        <time>2026-08-21T18:49:34Z</time>
      </trkpt>
      <trkpt lat="48.650515" lon="-1.516817">
        <ele>0.343</ele>
        <time>2026-08-21T18:49:35Z</time>
      </trkpt>
      <trkpt lat="48.650524" lon="-1.516810">
        <ele>0.346</ele>
        <time>2026-08-21T18:49:36Z</time>
      </trkpt>
      <trkpt lat="48.650534" lon="-1.516805">
        <ele>0.327</ele>
        <time>2026-08-21T18:49:37Z</time>
      </trkpt>
      <trkpt lat="48.650544" lon="-1.516806">
        <ele>0.380</ele>
        <time>2026-08-21T18:49:38Z</time>
      </trkpt>
      <trkpt lat="48.650556" lon="-1.516806">
        <ele>0.327</ele>
        <time>2026-08-21T18:49:39Z</time>
      </trkpt>
      <trkpt lat="48.650569" lon="-1.516807">
        <ele>0.358</ele>
        <time>2026-08-21T18:49:40Z</time>
      </trkpt>
      <trkpt lat="48.650583" lon="-1.516805">
        <ele>0.352</ele>
        <time>2026-08-21T18:49:41Z</time>
      </trkpt>
      <trkpt lat="48.650594" lon="-1.516801">
        <ele>0.339</ele>
        <time>2026-08-21T18:49:42Z</time>
      </trkpt>
      <trkpt lat="48.650615" lon="-1.516797">
        <ele>0.314</ele>
        <time>2026-08-21T18:49:44Z</time>
      </trkpt>
      <trkpt lat="48.650629" lon="-1.516797">
        <ele>0.354</ele>
        <time>2026-08-21T18:49:45Z</time>
      </trkpt>
      <trkpt lat="48.650642" lon="-1.516800">
        <ele>0.309</ele>
        <time>2026-08-21T18:49:46Z</time>
      </trkpt>
      <trkpt lat="48.650654" lon="-1.516803">
        <ele>0.309</ele>
        <time>2026-08-21T18:49:47Z</time>
      </trkpt>
      <trkpt lat="48.650671" lon="-1.516807">
        <ele>0.383</ele>
        <time>2026-08-21T18:49:49Z</time>
      </trkpt>
      <trkpt lat="48.650683" lon="-1.516804">
        <ele>0.399</ele>
        <time>2026-08-21T18:49:50Z</time>
      </trkpt>
      <trkpt lat="48.650701" lon="-1.516800">
        <ele>0.392</ele>
        <time>2026-08-21T18:49:52Z</time>
      </trkpt>
      <trkpt lat="48.650716" lon="-1.516800">
        <ele>0.313</ele>
        <time>2026-08-21T18:49:53Z</time>
      </trkpt>
      <trkpt lat="48.650728" lon="-1.516799">
        <ele>0.396</ele>
        <time>2026-08-21T18:49:54Z</time>
      </trkpt>
      <trkpt lat="48.650738" lon="-1.516796">
        <ele>0.363</ele>
        <time>2026-08-21T18:49:55Z</time>
      </trkpt>
      <trkpt lat="48.650749" lon="-1.516793">
        <ele>0.374</ele>
        <time>2026-08-21T18:49:56Z</time>
      </trkpt>
      <trkpt lat="48.650759" lon="-1.516786">
        <ele>0.338</ele>
        <time>2026-08-21T18:49:57Z</time>
      </trkpt>
      <trkpt lat="48.650770" lon="-1.516788">
        <ele>0.345</ele>
        <time>2026-08-21T18:49:58Z</time>
      </trkpt>
      <trkpt lat="48.650779" lon="-1.516789">
        <ele>0.371</ele>
        <time>2026-08-21T18:49:59Z</time>
      </trkpt>
      <trkpt lat="48.650789" lon="-1.516785">
        <ele>0.341</ele>
        <time>2026-08-21T18:50:00Z</time>
      </trkpt>
      <trkpt lat="48.650803" lon="-1.516783">
        <ele>0.315</ele>
        <time>2026-08-21T18:50:01Z</time>
      </trkpt>
      <trkpt lat="48.650817" lon="-1.516784">
        <ele>0.309</ele>
        <time>2026-08-21T18:50:02Z</time>
      </trkpt>
      <trkpt lat="48.650826" lon="-1.516787">
        <ele>0.369</ele>
        <time>2026-08-21T18:50:03Z</time>
      </trkpt>
      <trkpt lat="48.650846" lon="-1.516782">
        <ele>0.565</ele>
        <time>2026-08-21T18:50:05Z</time>
      </trkpt>
      <trkpt lat="48.650857" lon="-1.516780">
        <ele>0.688</ele>
        <time>2026-08-21T18:50:06Z</time>
      </trkpt>
      <trkpt lat="48.650870" lon="-1.516779">
        <ele>0.619</ele>
        <time>2026-08-21T18:50:07Z</time>
      </trkpt>
      <trkpt lat="48.650880" lon="-1.516778">
        <ele>0.662</ele>
        <time>2026-08-21T18:50:08Z</time>
      </trkpt>
      <trkpt lat="48.650892" lon="-1.516779">
        <ele>0.629</ele>
        <time>2026-08-21T18:50:09Z</time>
      </trkpt>
      <trkpt lat="48.650904" lon="-1.516778">
        <ele>0.630</ele>
        <time>2026-08-21T18:50:10Z</time>
      </trkpt>
      <trkpt lat="48.650914" lon="-1.516776">
        <ele>0.634</ele>
        <time>2026-08-21T18:50:11Z</time>
      </trkpt>
      <trkpt lat="48.650924" lon="-1.516774">
        <ele>0.631</ele>
        <time>2026-08-21T18:50:12Z</time>
      </trkpt>
      <trkpt lat="48.650940" lon="-1.516774">
        <ele>0.687</ele>
        <time>2026-08-21T18:50:14Z</time>
      </trkpt>
      <trkpt lat="48.650949" lon="-1.516772">
        <ele>0.642</ele>
        <time>2026-08-21T18:50:15Z</time>
      </trkpt>
      <trkpt lat="48.650969" lon="-1.516771">
        <ele>0.626</ele>
        <time>2026-08-21T18:50:17Z</time>
      </trkpt>
      <trkpt lat="48.650978" lon="-1.516775">
        <ele>0.609</ele>
        <time>2026-08-21T18:50:18Z</time>
      </trkpt>
      <trkpt lat="48.650991" lon="-1.516774">
        <ele>0.680</ele>
        <time>2026-08-21T18:50:19Z</time>
      </trkpt>
      <trkpt lat="48.651002" lon="-1.516773">
        <ele>0.646</ele>
        <time>2026-08-21T18:50:20Z</time>
      </trkpt>
      <trkpt lat="48.651014" lon="-1.516774">
        <ele>0.689</ele>
        <time>2026-08-21T18:50:21Z</time>
      </trkpt>
      <trkpt lat="48.651028" lon="-1.516771">
        <ele>0.630</ele>
        <time>2026-08-21T18:50:22Z</time>
      </trkpt>
      <trkpt lat="48.651041" lon="-1.516770">
        <ele>0.663</ele>
        <time>2026-08-21T18:50:23Z</time>
      </trkpt>
      <trkpt lat="48.651060" lon="-1.516777">
        <ele>0.630</ele>
        <time>2026-08-21T18:50:25Z</time>
      </trkpt>
      <trkpt lat="48.651071" lon="-1.516777">
        <ele>0.671</ele>
        <time>2026-08-21T18:50:26Z</time>
      </trkpt>
      <trkpt lat="48.651085" lon="-1.516774">
        <ele>0.685</ele>
        <time>2026-08-21T18:50:27Z</time>
      </trkpt>
      <trkpt lat="48.651095" lon="-1.516773">
        <ele>0.412</ele>
        <time>2026-08-21T18:50:28Z</time>
      </trkpt>
      <trkpt lat="48.651103" lon="-1.516781">
        <ele>0.383</ele>
        <time>2026-08-21T18:50:30Z</time>
      </trkpt>
      <trkpt lat="48.651123" lon="-1.516785">
        <ele>0.225</ele>
        <time>2026-08-21T18:50:32Z</time>
      </trkpt>
      <trkpt lat="48.651138" lon="-1.516785">
        <ele>0.117</ele>
        <time>2026-08-21T18:50:33Z</time>
      </trkpt>
      <trkpt lat="48.651152" lon="-1.516779">
        <ele>0.109</ele>
        <time>2026-08-21T18:50:34Z</time>
      </trkpt>
      <trkpt lat="48.651164" lon="-1.516776">
        <ele>0.120</ele>
        <time>2026-08-21T18:50:35Z</time>
      </trkpt>
      <trkpt lat="48.651178" lon="-1.516773">
        <ele>0.136</ele>
        <time>2026-08-21T18:50:36Z</time>
      </trkpt>
      <trkpt lat="48.651189" lon="-1.516773">
        <ele>0.199</ele>
        <time>2026-08-21T18:50:37Z</time>
      </trkpt>
      <trkpt lat="48.651201" lon="-1.516773">
        <ele>0.170</ele>
        <time>2026-08-21T18:50:38Z</time>
      </trkpt>
      <trkpt lat="48.651213" lon="-1.516773">
        <ele>0.013</ele>
        <time>2026-08-21T18:50:39Z</time>
      </trkpt>
      <trkpt lat="48.651223" lon="-1.516773">
        <ele>0.020</ele>
        <time>2026-08-21T18:50:40Z</time>
      </trkpt>
      <trkpt lat="48.651235" lon="-1.516773">
        <ele>0.021</ele>
        <time>2026-08-21T18:50:41Z</time>
      </trkpt>
      <trkpt lat="48.651249" lon="-1.516770">
        <ele>0.035</ele>
        <time>2026-08-21T18:50:42Z</time>
      </trkpt>
      <trkpt lat="48.651260" lon="-1.516770">
        <ele>0.032</ele>
        <time>2026-08-21T18:50:43Z</time>
      </trkpt>
      <trkpt lat="48.651271" lon="-1.516772">
        <ele>0.044</ele>
        <time>2026-08-21T18:50:44Z</time>
      </trkpt>
      <trkpt lat="48.651282" lon="-1.516773">
        <ele>-0.105</ele>
        <time>2026-08-21T18:50:45Z</time>
      </trkpt>
      <trkpt lat="48.651293" lon="-1.516776">
        <ele>-0.115</ele>
        <time>2026-08-21T18:50:46Z</time>
      </trkpt>
      <trkpt lat="48.651309" lon="-1.516773">
        <ele>-0.209</ele>
        <time>2026-08-21T18:50:47Z</time>
      </trkpt>
      <trkpt lat="48.651319" lon="-1.516775">
        <ele>-0.286</ele>
        <time>2026-08-21T18:50:48Z</time>
      </trkpt>
      <trkpt lat="48.651329" lon="-1.516773">
        <ele>-0.312</ele>
        <time>2026-08-21T18:50:50Z</time>
      </trkpt>
      <trkpt lat="48.651350" lon="-1.516768">
        <ele>-0.365</ele>
        <time>2026-08-21T18:50:52Z</time>
      </trkpt>
      <trkpt lat="48.651362" lon="-1.516769">
        <ele>-0.326</ele>
        <time>2026-08-21T18:50:53Z</time>
      </trkpt>
      <trkpt lat="48.651374" lon="-1.516765">
        <ele>-0.379</ele>
        <time>2026-08-21T18:50:54Z</time>
      </trkpt>
      <trkpt lat="48.651385" lon="-1.516761">
        <ele>-0.416</ele>
        <time>2026-08-21T18:50:55Z</time>
      </trkpt>
      <trkpt lat="48.651399" lon="-1.516757">
        <ele>-0.417</ele>
        <time>2026-08-21T18:50:56Z</time>
      </trkpt>
      <trkpt lat="48.651410" lon="-1.516751">
        <ele>-0.491</ele>
        <time>2026-08-21T18:50:57Z</time>
      </trkpt>
      <trkpt lat="48.651421" lon="-1.516747">
        <ele>-0.578</ele>
        <time>2026-08-21T18:50:58Z</time>
      </trkpt>
      <trkpt lat="48.651431" lon="-1.516745">
        <ele>-0.552</ele>
        <time>2026-08-21T18:50:59Z</time>
      </trkpt>
      <trkpt lat="48.651444" lon="-1.516742">
        <ele>-0.553</ele>
        <time>2026-08-21T18:51:00Z</time>
      </trkpt>
      <trkpt lat="48.651455" lon="-1.516735">
        <ele>-0.508</ele>
        <time>2026-08-21T18:51:01Z</time>
      </trkpt>
      <trkpt lat="48.651467" lon="-1.516732">
        <ele>-0.509</ele>
        <time>2026-08-21T18:51:02Z</time>
      </trkpt>
      <trkpt lat="48.651480" lon="-1.516731">
        <ele>-0.537</ele>
        <time>2026-08-21T18:51:03Z</time>
      </trkpt>
      <trkpt lat="48.651490" lon="-1.516734">
        <ele>-0.543</ele>
        <time>2026-08-21T18:51:04Z</time>
      </trkpt>
      <trkpt lat="48.651501" lon="-1.516732">
        <ele>-0.556</ele>
        <time>2026-08-21T18:51:05Z</time>
      </trkpt>
      <trkpt lat="48.651514" lon="-1.516729">
        <ele>-0.587</ele>
        <time>2026-08-21T18:51:06Z</time>
      </trkpt>
      <trkpt lat="48.651524" lon="-1.516729">
        <ele>-0.510</ele>
        <time>2026-08-21T18:51:07Z</time>
      </trkpt>
      <trkpt lat="48.651537" lon="-1.516731">
        <ele>-0.587</ele>
        <time>2026-08-21T18:51:08Z</time>
      </trkpt>
      <trkpt lat="48.651547" lon="-1.516729">
        <ele>-0.528</ele>
        <time>2026-08-21T18:51:09Z</time>
      </trkpt>
      <trkpt lat="48.651556" lon="-1.516727">
        <ele>-0.562</ele>
        <time>2026-08-21T18:51:10Z</time>
      </trkpt>
      <trkpt lat="48.651575" lon="-1.516724">
        <ele>-0.589</ele>
        <time>2026-08-21T18:51:12Z</time>
      </trkpt>
      <trkpt lat="48.651586" lon="-1.516718">
        <ele>-0.568</ele>
        <time>2026-08-21T18:51:13Z</time>
      </trkpt>
      <trkpt lat="48.651596" lon="-1.516713">
        <ele>-0.542</ele>
        <time>2026-08-21T18:51:14Z</time>
      </trkpt>
      <trkpt lat="48.651609" lon="-1.516708">
        <ele>-0.526</ele>
        <time>2026-08-21T18:51:15Z</time>
      </trkpt>
      <trkpt lat="48.651619" lon="-1.516707">
        <ele>-0.509</ele>
        <time>2026-08-21T18:51:16Z</time>
      </trkpt>
      <trkpt lat="48.651631" lon="-1.516706">
        <ele>-0.598</ele>
        <time>2026-08-21T18:51:17Z</time>
      </trkpt>
      <trkpt lat="48.651642" lon="-1.516702">
        <ele>-0.554</ele>
        <time>2026-08-21T18:51:18Z</time>
      </trkpt>
      <trkpt lat="48.651652" lon="-1.516696">
        <ele>-0.597</ele>
        <time>2026-08-21T18:51:19Z</time>
      </trkpt>
      <trkpt lat="48.651663" lon="-1.516692">
        <ele>-0.588</ele>
        <time>2026-08-21T18:51:20Z</time>
      </trkpt>
      <trkpt lat="48.651674" lon="-1.516688">
        <ele>-0.521</ele>
        <time>2026-08-21T18:51:21Z</time>
      </trkpt>
      <trkpt lat="48.651684" lon="-1.516683">
        <ele>-0.448</ele>
        <time>2026-08-21T18:51:22Z</time>
      </trkpt>
      <trkpt lat="48.651693" lon="-1.516680">
        <ele>-0.379</ele>
        <time>2026-08-21T18:51:23Z</time>
      </trkpt>
      <trkpt lat="48.651703" lon="-1.516674">
        <ele>-0.373</ele>
        <time>2026-08-21T18:51:24Z</time>
      </trkpt>
      <trkpt lat="48.651713" lon="-1.516672">
        <ele>-0.310</ele>
        <time>2026-08-21T18:51:25Z</time>
      </trkpt>
      <trkpt lat="48.651725" lon="-1.516669">
        <ele>-0.382</ele>
        <time>2026-08-21T18:51:26Z</time>
      </trkpt>
      <trkpt lat="48.651738" lon="-1.516668">
        <ele>-0.343</ele>
        <time>2026-08-21T18:51:27Z</time>
      </trkpt>
      <trkpt lat="48.651752" lon="-1.516664">
        <ele>-0.317</ele>
        <time>2026-08-21T18:51:28Z</time>
      </trkpt>
      <trkpt lat="48.651771" lon="-1.516659">
        <ele>-0.309</ele>
        <time>2026-08-21T18:51:30Z</time>
      </trkpt>
      <trkpt lat="48.651781" lon="-1.516656">
        <ele>-0.260</ele>
        <time>2026-08-21T18:51:31Z</time>
      </trkpt>
      <trkpt lat="48.651793" lon="-1.516651">
        <ele>-0.246</ele>
        <time>2026-08-21T18:51:32Z</time>
      </trkpt>
      <trkpt lat="48.651811" lon="-1.516640">
        <ele>-0.249</ele>
        <time>2026-08-21T18:51:34Z</time>
      </trkpt>
      <trkpt lat="48.651820" lon="-1.516634">
        <ele>-0.230</ele>
        <time>2026-08-21T18:51:35Z</time>
      </trkpt>
      <trkpt lat="48.651830" lon="-1.516629">
        <ele>-0.233</ele>
        <time>2026-08-21T18:51:36Z</time>
      </trkpt>
      <trkpt lat="48.651838" lon="-1.516622">
        <ele>-0.390</ele>
        <time>2026-08-21T18:51:37Z</time>
      </trkpt>
      <trkpt lat="48.651849" lon="-1.516612">
        <ele>-0.351</ele>
        <time>2026-08-21T18:51:38Z</time>
      </trkpt>
      <trkpt lat="48.651859" lon="-1.516606">
        <ele>-0.325</ele>
        <time>2026-08-21T18:51:39Z</time>
      </trkpt>
      <trkpt lat="48.651872" lon="-1.516603">
        <ele>-0.362</ele>
        <time>2026-08-21T18:51:40Z</time>
      </trkpt>
      <trkpt lat="48.651881" lon="-1.516602">
        <ele>-0.312</ele>
        <time>2026-08-21T18:51:41Z</time>
      </trkpt>
      <trkpt lat="48.651891" lon="-1.516599">
        <ele>-0.332</ele>
        <time>2026-08-21T18:51:42Z</time>
      </trkpt>
      <trkpt lat="48.651904" lon="-1.516592">
        <ele>-0.305</ele>
        <time>2026-08-21T18:51:43Z</time>
      </trkpt>
      <trkpt lat="48.651915" lon="-1.516585">
        <ele>-0.309</ele>
        <time>2026-08-21T18:51:44Z</time>
      </trkpt>
      <trkpt lat="48.651931" lon="-1.516575">
        <ele>-0.273</ele>
        <time>2026-08-21T18:51:46Z</time>
      </trkpt>
      <trkpt lat="48.651940" lon="-1.516568">
        <ele>-0.219</ele>
        <time>2026-08-21T18:51:48Z</time>
      </trkpt>
      <trkpt lat="48.651952" lon="-1.516558">
        <ele>-0.242</ele>
        <time>2026-08-21T18:51:50Z</time>
      </trkpt>
      <trkpt lat="48.651969" lon="-1.516548">
        <ele>-0.263</ele>
        <time>2026-08-21T18:51:53Z</time>
      </trkpt>
      <trkpt lat="48.651987" lon="-1.516538">
        <ele>-0.236</ele>
        <time>2026-08-21T18:51:55Z</time>
      </trkpt>
      <trkpt lat="48.652005" lon="-1.516533">
        <ele>-0.213</ele>
        <time>2026-08-21T18:51:57Z</time>
      </trkpt>
      <trkpt lat="48.652014" lon="-1.516530">
        <ele>-0.294</ele>
        <time>2026-08-21T18:51:58Z</time>
      </trkpt>
      <trkpt lat="48.652029" lon="-1.516519">
        <ele>-0.218</ele>
        <time>2026-08-21T18:52:00Z</time>
      </trkpt>
      <trkpt lat="48.652038" lon="-1.516515">
        <ele>-0.385</ele>
        <time>2026-08-21T18:52:01Z</time>
      </trkpt>
      <trkpt lat="48.652052" lon="-1.516505">
        <ele>-0.345</ele>
        <time>2026-08-21T18:52:03Z</time>
      </trkpt>
      <trkpt lat="48.652067" lon="-1.516498">
        <ele>-0.347</ele>
        <time>2026-08-21T18:52:05Z</time>
      </trkpt>
      <trkpt lat="48.652073" lon="-1.516487">
        <ele>-0.311</ele>
        <time>2026-08-21T18:52:06Z</time>
      </trkpt>
      <trkpt lat="48.652086" lon="-1.516477">
        <ele>-0.309</ele>
        <time>2026-08-21T18:52:08Z</time>
      </trkpt>
      <trkpt lat="48.652101" lon="-1.516476">
        <ele>-0.476</ele>
        <time>2026-08-21T18:52:10Z</time>
      </trkpt>
      <trkpt lat="48.652118" lon="-1.516473">
        <ele>-0.472</ele>
        <time>2026-08-21T18:52:12Z</time>
      </trkpt>
      <trkpt lat="48.652133" lon="-1.516472">
        <ele>-0.515</ele>
        <time>2026-08-21T18:52:14Z</time>
      </trkpt>
      <trkpt lat="48.652146" lon="-1.516467">
        <ele>-0.666</ele>
        <time>2026-08-21T18:52:16Z</time>
      </trkpt>
      <trkpt lat="48.652157" lon="-1.516462">
        <ele>-1.019</ele>
        <time>2026-08-21T18:52:17Z</time>
      </trkpt>
      <trkpt lat="48.652168" lon="-1.516458">
        <ele>-1.156</ele>
        <time>2026-08-21T18:52:18Z</time>
      </trkpt>
      <trkpt lat="48.652181" lon="-1.516456">
        <ele>-1.267</ele>
        <time>2026-08-21T18:52:19Z</time>
      </trkpt>
      <trkpt lat="48.652192" lon="-1.516446">
        <ele>-1.241</ele>
        <time>2026-08-21T18:52:20Z</time>
      </trkpt>
      <trkpt lat="48.652202" lon="-1.516438">
        <ele>-1.218</ele>
        <time>2026-08-21T18:52:21Z</time>
      </trkpt>
      <trkpt lat="48.652211" lon="-1.516434">
        <ele>-1.213</ele>
        <time>2026-08-21T18:52:22Z</time>
      </trkpt>
      <trkpt lat="48.652222" lon="-1.516428">
        <ele>-1.243</ele>
        <time>2026-08-21T18:52:23Z</time>
      </trkpt>
      <trkpt lat="48.652231" lon="-1.516426">
        <ele>-1.207</ele>
        <time>2026-08-21T18:52:24Z</time>
      </trkpt>
      <trkpt lat="48.652248" lon="-1.516430">
        <ele>-1.209</ele>
        <time>2026-08-21T18:52:26Z</time>
      </trkpt>
      <trkpt lat="48.652265" lon="-1.516426">
        <ele>-1.213</ele>
        <time>2026-08-21T18:52:28Z</time>
      </trkpt>
      <trkpt lat="48.652275" lon="-1.516421">
        <ele>-1.239</ele>
        <time>2026-08-21T18:52:29Z</time>
      </trkpt>
      <trkpt lat="48.652285" lon="-1.516419">
        <ele>-1.252</ele>
        <time>2026-08-21T18:52:30Z</time>
      </trkpt>
      <trkpt lat="48.652295" lon="-1.516417">
        <ele>-1.213</ele>
        <time>2026-08-21T18:52:31Z</time>
      </trkpt>
      <trkpt lat="48.652305" lon="-1.516414">
        <ele>-1.276</ele>
        <time>2026-08-21T18:52:32Z</time>
      </trkpt>
      <trkpt lat="48.652323" lon="-1.516415">
        <ele>-1.293</ele>
        <time>2026-08-21T18:52:34Z</time>
      </trkpt>
      <trkpt lat="48.652332" lon="-1.516414">
        <ele>-1.254</ele>
        <time>2026-08-21T18:52:35Z</time>
      </trkpt>
      <trkpt lat="48.652344" lon="-1.516411">
        <ele>-1.148</ele>
        <time>2026-08-21T18:52:36Z</time>
      </trkpt>
      <trkpt lat="48.652353" lon="-1.516408">
        <ele>-1.185</ele>
        <time>2026-08-21T18:52:37Z</time>
      </trkpt>
      <trkpt lat="48.652362" lon="-1.516405">
        <ele>-0.948</ele>
        <time>2026-08-21T18:52:38Z</time>
      </trkpt>
      <trkpt lat="48.652374" lon="-1.516404">
        <ele>-0.761</ele>
        <time>2026-08-21T18:52:39Z</time>
      </trkpt>
      <trkpt lat="48.652385" lon="-1.516401">
        <ele>-0.617</ele>
        <time>2026-08-21T18:52:40Z</time>
      </trkpt>
      <trkpt lat="48.652401" lon="-1.516396">
        <ele>-0.609</ele>
        <time>2026-08-21T18:52:41Z</time>
      </trkpt>
      <trkpt lat="48.652414" lon="-1.516396">
        <ele>-0.666</ele>
        <time>2026-08-21T18:52:42Z</time>
      </trkpt>
      <trkpt lat="48.652425" lon="-1.516397">
        <ele>-0.532</ele>
        <time>2026-08-21T18:52:43Z</time>
      </trkpt>
      <trkpt lat="48.652441" lon="-1.516393">
        <ele>-0.435</ele>
        <time>2026-08-21T18:52:45Z</time>
      </trkpt>
      <trkpt lat="48.652451" lon="-1.516393">
        <ele>-0.456</ele>
        <time>2026-08-21T18:52:46Z</time>
      </trkpt>
      <trkpt lat="48.652462" lon="-1.516389">
        <ele>-0.439</ele>
        <time>2026-08-21T18:52:47Z</time>
      </trkpt>
      <trkpt lat="48.652472" lon="-1.516385">
        <ele>-0.386</ele>
        <time>2026-08-21T18:52:48Z</time>
      </trkpt>
      <trkpt lat="48.652481" lon="-1.516382">
        <ele>-0.337</ele>
        <time>2026-08-21T18:52:49Z</time>
      </trkpt>
      <trkpt lat="48.652492" lon="-1.516380">
        <ele>-0.351</ele>
        <time>2026-08-21T18:52:50Z</time>
      </trkpt>
      <trkpt lat="48.652502" lon="-1.516378">
        <ele>-0.318</ele>
        <time>2026-08-21T18:52:51Z</time>
      </trkpt>
      <trkpt lat="48.652513" lon="-1.516375">
        <ele>-0.211</ele>
        <time>2026-08-21T18:52:52Z</time>
      </trkpt>
      <trkpt lat="48.652528" lon="-1.516369">
        <ele>-0.221</ele>
        <time>2026-08-21T18:52:54Z</time>
      </trkpt>
      <trkpt lat="48.652539" lon="-1.516367">
        <ele>-0.203</ele>
        <time>2026-08-21T18:52:55Z</time>
      </trkpt>
      <trkpt lat="48.652550" lon="-1.516364">
        <ele>-0.209</ele>
        <time>2026-08-21T18:52:56Z</time>
      </trkpt>
      <trkpt lat="48.652563" lon="-1.516367">
        <ele>-0.293</ele>
        <time>2026-08-21T18:52:58Z</time>
      </trkpt>
      <trkpt lat="48.652573" lon="-1.516366">
        <ele>-0.239</ele>
        <time>2026-08-21T18:52:59Z</time>
      </trkpt>
      <trkpt lat="48.652583" lon="-1.516360">
        <ele>-0.292</ele>
        <time>2026-08-21T18:53:00Z</time>
      </trkpt>
      <trkpt lat="48.652597" lon="-1.516353">
        <ele>-0.283</ele>
        <time>2026-08-21T18:53:01Z</time>
      </trkpt>
      <trkpt lat="48.652610" lon="-1.516356">
        <ele>-0.226</ele>
        <time>2026-08-21T18:53:02Z</time>
      </trkpt>
      <trkpt lat="48.652621" lon="-1.516355">
        <ele>-0.223</ele>
        <time>2026-08-21T18:53:03Z</time>
      </trkpt>
      <trkpt lat="48.652631" lon="-1.516355">
        <ele>-0.224</ele>
        <time>2026-08-21T18:53:04Z</time>
      </trkpt>
      <trkpt lat="48.652642" lon="-1.516352">
        <ele>-0.278</ele>
        <time>2026-08-21T18:53:05Z</time>
      </trkpt>
      <trkpt lat="48.652660" lon="-1.516347">
        <ele>-0.295</ele>
        <time>2026-08-21T18:53:07Z</time>
      </trkpt>
      <trkpt lat="48.652669" lon="-1.516343">
        <ele>-0.242</ele>
        <time>2026-08-21T18:53:08Z</time>
      </trkpt>
      <trkpt lat="48.652678" lon="-1.516340">
        <ele>-0.222</ele>
        <time>2026-08-21T18:53:09Z</time>
      </trkpt>
      <trkpt lat="48.652687" lon="-1.516339">
        <ele>-0.214</ele>
        <time>2026-08-21T18:53:10Z</time>
      </trkpt>
      <trkpt lat="48.652697" lon="-1.516335">
        <ele>-0.209</ele>
        <time>2026-08-21T18:53:11Z</time>
      </trkpt>
      <trkpt lat="48.652713" lon="-1.516329">
        <ele>-0.296</ele>
        <time>2026-08-21T18:53:13Z</time>
      </trkpt>
      <trkpt lat="48.652735" lon="-1.516328">
        <ele>-0.272</ele>
        <time>2026-08-21T18:53:15Z</time>
      </trkpt>
      <trkpt lat="48.652745" lon="-1.516323">
        <ele>-0.275</ele>
        <time>2026-08-21T18:53:16Z</time>
      </trkpt>
      <trkpt lat="48.652757" lon="-1.516313">
        <ele>-0.266</ele>
        <time>2026-08-21T18:53:18Z</time>
      </trkpt>
      <trkpt lat="48.652770" lon="-1.516307">
        <ele>-0.239</ele>
        <time>2026-08-21T18:53:20Z</time>
      </trkpt>
      <trkpt lat="48.652785" lon="-1.516301">
        <ele>-0.396</ele>
        <time>2026-08-21T18:53:22Z</time>
      </trkpt>
      <trkpt lat="48.652795" lon="-1.516294">
        <ele>-0.387</ele>
        <time>2026-08-21T18:53:23Z</time>
      </trkpt>
      <trkpt lat="48.652807" lon="-1.516294">
        <ele>-0.361</ele>
        <time>2026-08-21T18:53:25Z</time>
      </trkpt>
      <trkpt lat="48.652822" lon="-1.516288">
        <ele>-0.338</ele>
        <time>2026-08-21T18:53:27Z</time>
      </trkpt>
      <trkpt lat="48.652837" lon="-1.516283">
        <ele>-0.366</ele>
        <time>2026-08-21T18:53:29Z</time>
      </trkpt>
      <trkpt lat="48.652849" lon="-1.516282">
        <ele>-0.429</ele>
        <time>2026-08-21T18:53:31Z</time>
      </trkpt>
      <trkpt lat="48.652857" lon="-1.516274">
        <ele>-0.421</ele>
        <time>2026-08-21T18:53:33Z</time>
      </trkpt>
      <trkpt lat="48.652874" lon="-1.516266">
        <ele>-0.409</ele>
        <time>2026-08-21T18:53:35Z</time>
      </trkpt>
      <trkpt lat="48.652884" lon="-1.516264">
        <ele>-0.598</ele>
        <time>2026-08-21T18:53:36Z</time>
      </trkpt>
      <trkpt lat="48.652901" lon="-1.516260">
        <ele>-0.544</ele>
        <time>2026-08-21T18:53:38Z</time>
      </trkpt>
      <trkpt lat="48.652910" lon="-1.516257">
        <ele>-0.667</ele>
        <time>2026-08-21T18:53:39Z</time>
      </trkpt>
      <trkpt lat="48.652920" lon="-1.516259">
        <ele>-0.718</ele>
        <time>2026-08-21T18:53:40Z</time>
      </trkpt>
      <trkpt lat="48.652930" lon="-1.516261">
        <ele>-0.721</ele>
        <time>2026-08-21T18:53:41Z</time>
      </trkpt>
      <trkpt lat="48.652939" lon="-1.516256">
        <ele>-0.838</ele>
        <time>2026-08-21T18:53:42Z</time>
      </trkpt>
      <trkpt lat="48.652957" lon="-1.516251">
        <ele>-0.879</ele>
        <time>2026-08-21T18:53:44Z</time>
      </trkpt>
      <trkpt lat="48.652971" lon="-1.516246">
        <ele>-0.823</ele>
        <time>2026-08-21T18:53:45Z</time>
      </trkpt>
      <trkpt lat="48.652983" lon="-1.516247">
        <ele>-0.860</ele>
        <time>2026-08-21T18:53:46Z</time>
      </trkpt>
      <trkpt lat="48.652994" lon="-1.516249">
        <ele>-0.831</ele>
        <time>2026-08-21T18:53:47Z</time>
      </trkpt>
      <trkpt lat="48.653011" lon="-1.516250">
        <ele>-0.861</ele>
        <time>2026-08-21T18:53:49Z</time>
      </trkpt>
      <trkpt lat="48.653029" lon="-1.516245">
        <ele>-0.807</ele>
        <time>2026-08-21T18:53:51Z</time>
      </trkpt>
      <trkpt lat="48.653039" lon="-1.516241">
        <ele>-0.809</ele>
        <time>2026-08-21T18:53:52Z</time>
      </trkpt>
      <trkpt lat="48.653049" lon="-1.516240">
        <ele>-0.875</ele>
        <time>2026-08-21T18:53:53Z</time>
      </trkpt>
      <trkpt lat="48.653059" lon="-1.516241">
        <ele>-0.881</ele>
        <time>2026-08-21T18:53:54Z</time>
      </trkpt>
      <trkpt lat="48.653070" lon="-1.516244">
        <ele>-0.854</ele>
        <time>2026-08-21T18:53:55Z</time>
      </trkpt>
      <trkpt lat="48.653080" lon="-1.516244">
        <ele>-0.875</ele>
        <time>2026-08-21T18:53:56Z</time>
      </trkpt>
      <trkpt lat="48.653093" lon="-1.516241">
        <ele>-0.838</ele>
        <time>2026-08-21T18:53:57Z</time>
      </trkpt>
      <trkpt lat="48.653105" lon="-1.516241">
        <ele>-0.725</ele>
        <time>2026-08-21T18:53:58Z</time>
      </trkpt>
      <trkpt lat="48.653118" lon="-1.516240">
        <ele>-0.796</ele>
        <time>2026-08-21T18:53:59Z</time>
      </trkpt>
      <trkpt lat="48.653129" lon="-1.516241">
        <ele>-0.680</ele>
        <time>2026-08-21T18:54:00Z</time>
      </trkpt>
      <trkpt lat="48.653139" lon="-1.516243">
        <ele>-0.537</ele>
        <time>2026-08-21T18:54:01Z</time>
      </trkpt>
      <trkpt lat="48.653151" lon="-1.516244">
        <ele>-0.414</ele>
        <time>2026-08-21T18:54:02Z</time>
      </trkpt>
      <trkpt lat="48.653161" lon="-1.516243">
        <ele>-0.454</ele>
        <time>2026-08-21T18:54:03Z</time>
      </trkpt>
      <trkpt lat="48.653171" lon="-1.516243">
        <ele>-0.209</ele>
        <time>2026-08-21T18:54:04Z</time>
      </trkpt>
      <trkpt lat="48.653184" lon="-1.516235">
        <ele>0.109</ele>
        <time>2026-08-21T18:54:05Z</time>
      </trkpt>
      <trkpt lat="48.653194" lon="-1.516232">
        <ele>0.373</ele>
        <time>2026-08-21T18:54:06Z</time>
      </trkpt>
      <trkpt lat="48.653210" lon="-1.516228">
        <ele>0.329</ele>
        <time>2026-08-21T18:54:08Z</time>
      </trkpt>
      <trkpt lat="48.653224" lon="-1.516229">
        <ele>0.372</ele>
        <time>2026-08-21T18:54:09Z</time>
      </trkpt>
      <trkpt lat="48.653235" lon="-1.516230">
        <ele>0.353</ele>
        <time>2026-08-21T18:54:10Z</time>
      </trkpt>
      <trkpt lat="48.653254" lon="-1.516221">
        <ele>0.326</ele>
        <time>2026-08-21T18:54:12Z</time>
      </trkpt>
      <trkpt lat="48.653266" lon="-1.516219">
        <ele>0.493</ele>
        <time>2026-08-21T18:54:13Z</time>
      </trkpt>
      <trkpt lat="48.653276" lon="-1.516218">
        <ele>0.484</ele>
        <time>2026-08-21T18:54:14Z</time>
      </trkpt>
      <trkpt lat="48.653286" lon="-1.516214">
        <ele>0.478</ele>
        <time>2026-08-21T18:54:15Z</time>
      </trkpt>
      <trkpt lat="48.653296" lon="-1.516211">
        <ele>0.455</ele>
        <time>2026-08-21T18:54:16Z</time>
      </trkpt>
      <trkpt lat="48.653309" lon="-1.516211">
        <ele>0.518</ele>
        <time>2026-08-21T18:54:18Z</time>
      </trkpt>
      <trkpt lat="48.653319" lon="-1.516199">
        <ele>0.598</ele>
        <time>2026-08-21T18:54:20Z</time>
      </trkpt>
      <trkpt lat="48.653309" lon="-1.516196">
        <ele>0.517</ele>
        <time>2026-08-21T18:54:27Z</time>
      </trkpt>
      <trkpt lat="48.653301" lon="-1.516200">
        <ele>0.509</ele>
        <time>2026-08-21T18:54:30Z</time>
      </trkpt>
      <trkpt lat="48.653284" lon="-1.516207">
        <ele>0.563</ele>
        <time>2026-08-21T18:54:32Z</time>
      </trkpt>
      <trkpt lat="48.653273" lon="-1.516206">
        <ele>0.549</ele>
        <time>2026-08-21T18:54:33Z</time>
      </trkpt>
      <trkpt lat="48.653263" lon="-1.516207">
        <ele>0.622</ele>
        <time>2026-08-21T18:54:34Z</time>
      </trkpt>
      <trkpt lat="48.653252" lon="-1.516209">
        <ele>0.623</ele>
        <time>2026-08-21T18:54:35Z</time>
      </trkpt>
      <trkpt lat="48.653241" lon="-1.516212">
        <ele>0.696</ele>
        <time>2026-08-21T18:54:36Z</time>
      </trkpt>
      <trkpt lat="48.653231" lon="-1.516213">
        <ele>0.673</ele>
        <time>2026-08-21T18:54:37Z</time>
      </trkpt>
      <trkpt lat="48.653222" lon="-1.516219">
        <ele>0.774</ele>
        <time>2026-08-21T18:54:38Z</time>
      </trkpt>
      <trkpt lat="48.653205" lon="-1.516223">
        <ele>0.738</ele>
        <time>2026-08-21T18:54:40Z</time>
      </trkpt>
      <trkpt lat="48.653194" lon="-1.516229">
        <ele>0.735</ele>
        <time>2026-08-21T18:54:41Z</time>
      </trkpt>
      <trkpt lat="48.653185" lon="-1.516228">
        <ele>0.794</ele>
        <time>2026-08-21T18:54:42Z</time>
      </trkpt>
      <trkpt lat="48.653175" lon="-1.516229">
        <ele>0.757</ele>
        <time>2026-08-21T18:54:43Z</time>
      </trkpt>
      <trkpt lat="48.653163" lon="-1.516230">
        <ele>0.722</ele>
        <time>2026-08-21T18:54:45Z</time>
      </trkpt>
      <trkpt lat="48.653150" lon="-1.516225">
        <ele>0.709</ele>
        <time>2026-08-21T18:54:47Z</time>
      </trkpt>
      <trkpt lat="48.653151" lon="-1.516239">
        <ele>0.841</ele>
        <time>2026-08-21T18:54:50Z</time>
      </trkpt>
      <trkpt lat="48.653136" lon="-1.516241">
        <ele>0.817</ele>
        <time>2026-08-21T18:55:01Z</time>
      </trkpt>
      <trkpt lat="48.653127" lon="-1.516242">
        <ele>0.930</ele>
        <time>2026-08-21T18:55:02Z</time>
      </trkpt>
      <trkpt lat="48.653117" lon="-1.516241">
        <ele>0.981</ele>
        <time>2026-08-21T18:55:03Z</time>
      </trkpt>
      <trkpt lat="48.653107" lon="-1.516242">
        <ele>0.974</ele>
        <time>2026-08-21T18:55:04Z</time>
      </trkpt>
      <trkpt lat="48.653095" lon="-1.516247">
        <ele>0.951</ele>
        <time>2026-08-21T18:55:05Z</time>
      </trkpt>
      <trkpt lat="48.653086" lon="-1.516251">
        <ele>0.912</ele>
        <time>2026-08-21T18:55:06Z</time>
      </trkpt>
      <trkpt lat="48.653076" lon="-1.516254">
        <ele>1.086</ele>
        <time>2026-08-21T18:55:08Z</time>
      </trkpt>
      <trkpt lat="48.653069" lon="-1.516261">
        <ele>1.023</ele>
        <time>2026-08-21T18:55:09Z</time>
      </trkpt>
      <trkpt lat="48.653051" lon="-1.516269">
        <ele>1.086</ele>
        <time>2026-08-21T18:55:11Z</time>
      </trkpt>
      <trkpt lat="48.653038" lon="-1.516276">
        <ele>1.160</ele>
        <time>2026-08-21T18:55:13Z</time>
      </trkpt>
      <trkpt lat="48.653025" lon="-1.516280">
        <ele>1.126</ele>
        <time>2026-08-21T18:55:15Z</time>
      </trkpt>
      <trkpt lat="48.653014" lon="-1.516283">
        <ele>1.109</ele>
        <time>2026-08-21T18:55:17Z</time>
      </trkpt>
      <trkpt lat="48.653005" lon="-1.516287">
        <ele>1.240</ele>
        <time>2026-08-21T18:55:19Z</time>
      </trkpt>
      <trkpt lat="48.652991" lon="-1.516288">
        <ele>1.266</ele>
        <time>2026-08-21T18:55:22Z</time>
      </trkpt>
      <trkpt lat="48.652998" lon="-1.516275">
        <ele>1.299</ele>
        <time>2026-08-21T18:55:33Z</time>
      </trkpt>
      <trkpt lat="48.653001" lon="-1.516262">
        <ele>1.220</ele>
        <time>2026-08-21T18:55:48Z</time>
      </trkpt>
      <trkpt lat="48.652998" lon="-1.516276">
        <ele>1.373</ele>
        <time>2026-08-21T18:56:02Z</time>
      </trkpt>
      <trkpt lat="48.653008" lon="-1.516280">
        <ele>1.380</ele>
        <time>2026-08-21T18:56:19Z</time>
      </trkpt>
      <trkpt lat="48.653021" lon="-1.516274">
        <ele>1.371</ele>
        <time>2026-08-21T18:56:21Z</time>
      </trkpt>
      <trkpt lat="48.653034" lon="-1.516269">
        <ele>1.325</ele>
        <time>2026-08-21T18:56:23Z</time>
      </trkpt>
      <trkpt lat="48.653050" lon="-1.516262">
        <ele>1.332</ele>
        <time>2026-08-21T18:56:25Z</time>
      </trkpt>
      <trkpt lat="48.653070" lon="-1.516250">
        <ele>1.351</ele>
        <time>2026-08-21T18:56:27Z</time>
      </trkpt>
      <trkpt lat="48.653080" lon="-1.516243">
        <ele>1.301</ele>
        <time>2026-08-21T18:56:28Z</time>
      </trkpt>
      <trkpt lat="48.653096" lon="-1.516243">
        <ele>1.311</ele>
        <time>2026-08-21T18:56:29Z</time>
      </trkpt>
      <trkpt lat="48.653109" lon="-1.516240">
        <ele>1.209</ele>
        <time>2026-08-21T18:56:30Z</time>
      </trkpt>
      <trkpt lat="48.653121" lon="-1.516233">
        <ele>1.237</ele>
        <time>2026-08-21T18:56:31Z</time>
      </trkpt>
      <trkpt lat="48.653141" lon="-1.516229">
        <ele>1.243</ele>
        <time>2026-08-21T18:56:33Z</time>
      </trkpt>
      <trkpt lat="48.653149" lon="-1.516222">
        <ele>1.256</ele>
        <time>2026-08-21T18:56:34Z</time>
      </trkpt>
      <trkpt lat="48.653160" lon="-1.516218">
        <ele>1.297</ele>
        <time>2026-08-21T18:56:35Z</time>
      </trkpt>
      <trkpt lat="48.653180" lon="-1.516227">
        <ele>1.290</ele>
        <time>2026-08-21T18:56:38Z</time>
      </trkpt>
      <trkpt lat="48.653189" lon="-1.516230">
        <ele>1.247</ele>
        <time>2026-08-21T18:56:39Z</time>
      </trkpt>
      <trkpt lat="48.653202" lon="-1.516229">
        <ele>1.348</ele>
        <time>2026-08-21T18:56:41Z</time>
      </trkpt>
      <trkpt lat="48.653211" lon="-1.516231">
        <ele>1.232</ele>
        <time>2026-08-21T18:56:42Z</time>
      </trkpt>
      <trkpt lat="48.653221" lon="-1.516231">
        <ele>1.279</ele>
        <time>2026-08-21T18:56:43Z</time>
      </trkpt>
      <trkpt lat="48.653232" lon="-1.516227">
        <ele>1.169</ele>
        <time>2026-08-21T18:56:44Z</time>
      </trkpt>
      <trkpt lat="48.653244" lon="-1.516224">
        <ele>1.104</ele>
        <time>2026-08-21T18:56:45Z</time>
      </trkpt>
      <trkpt lat="48.653258" lon="-1.516224">
        <ele>1.124</ele>
        <time>2026-08-21T18:56:46Z</time>
      </trkpt>
      <trkpt lat="48.653269" lon="-1.516228">
        <ele>1.109</ele>
        <time>2026-08-21T18:56:47Z</time>
      </trkpt>
      <trkpt lat="48.653280" lon="-1.516228">
        <ele>1.138</ele>
        <time>2026-08-21T18:56:48Z</time>
      </trkpt>
      <trkpt lat="48.653292" lon="-1.516227">
        <ele>1.194</ele>
        <time>2026-08-21T18:56:49Z</time>
      </trkpt>
      <trkpt lat="48.653302" lon="-1.516225">
        <ele>1.157</ele>
        <time>2026-08-21T18:56:50Z</time>
      </trkpt>
      <trkpt lat="48.653317" lon="-1.516225">
        <ele>1.158</ele>
        <time>2026-08-21T18:56:52Z</time>
      </trkpt>
      <trkpt lat="48.653335" lon="-1.516221">
        <ele>1.191</ele>
        <time>2026-08-21T18:56:54Z</time>
      </trkpt>
      <trkpt lat="48.653350" lon="-1.516217">
        <ele>1.048</ele>
        <time>2026-08-21T18:56:55Z</time>
      </trkpt>
      <trkpt lat="48.653363" lon="-1.516220">
        <ele>1.049</ele>
        <time>2026-08-21T18:56:56Z</time>
      </trkpt>
      <trkpt lat="48.653376" lon="-1.516223">
        <ele>1.023</ele>
        <time>2026-08-21T18:56:57Z</time>
      </trkpt>
      <trkpt lat="48.653390" lon="-1.516225">
        <ele>0.920</ele>
        <time>2026-08-21T18:56:58Z</time>
      </trkpt>
      <trkpt lat="48.653402" lon="-1.516223">
        <ele>0.917</ele>
        <time>2026-08-21T18:56:59Z</time>
      </trkpt>
      <trkpt lat="48.653412" lon="-1.516224">
        <ele>0.887</ele>
        <time>2026-08-21T18:57:00Z</time>
      </trkpt>
      <trkpt lat="48.653424" lon="-1.516228">
        <ele>0.815</ele>
        <time>2026-08-21T18:57:01Z</time>
      </trkpt>
      <trkpt lat="48.653434" lon="-1.516234">
        <ele>0.809</ele>
        <time>2026-08-21T18:57:02Z</time>
      </trkpt>
      <trkpt lat="48.653447" lon="-1.516231">
        <ele>0.893</ele>
        <time>2026-08-21T18:57:03Z</time>
      </trkpt>
      <trkpt lat="48.653457" lon="-1.516227">
        <ele>0.879</ele>
        <time>2026-08-21T18:57:04Z</time>
      </trkpt>
      <trkpt lat="48.653472" lon="-1.516228">
        <ele>0.842</ele>
        <time>2026-08-21T18:57:05Z</time>
      </trkpt>
      <trkpt lat="48.653487" lon="-1.516229">
        <ele>0.813</ele>
        <time>2026-08-21T18:57:06Z</time>
      </trkpt>
      <trkpt lat="48.653496" lon="-1.516231">
        <ele>0.826</ele>
        <time>2026-08-21T18:57:07Z</time>
      </trkpt>
      <trkpt lat="48.653509" lon="-1.516231">
        <ele>0.833</ele>
        <time>2026-08-21T18:57:08Z</time>
      </trkpt>
      <trkpt lat="48.653519" lon="-1.516231">
        <ele>0.854</ele>
        <time>2026-08-21T18:57:09Z</time>
      </trkpt>
      <trkpt lat="48.653531" lon="-1.516230">
        <ele>0.878</ele>
        <time>2026-08-21T18:57:10Z</time>
      </trkpt>
      <trkpt lat="48.653543" lon="-1.516234">
        <ele>0.865</ele>
        <time>2026-08-21T18:57:11Z</time>
      </trkpt>
      <trkpt lat="48.653555" lon="-1.516240">
        <ele>0.858</ele>
        <time>2026-08-21T18:57:12Z</time>
      </trkpt>
      <trkpt lat="48.653571" lon="-1.516245">
        <ele>0.852</ele>
        <time>2026-08-21T18:57:14Z</time>
      </trkpt>
      <trkpt lat="48.653581" lon="-1.516247">
        <ele>0.817</ele>
        <time>2026-08-21T18:57:15Z</time>
      </trkpt>
      <trkpt lat="48.653594" lon="-1.516244">
        <ele>0.809</ele>
        <time>2026-08-21T18:57:16Z</time>
      </trkpt>
      <trkpt lat="48.653609" lon="-1.516247">
        <ele>0.847</ele>
        <time>2026-08-21T18:57:17Z</time>
      </trkpt>
      <trkpt lat="48.653622" lon="-1.516249">
        <ele>0.873</ele>
        <time>2026-08-21T18:57:18Z</time>
      </trkpt>
      <trkpt lat="48.653634" lon="-1.516248">
        <ele>0.856</ele>
        <time>2026-08-21T18:57:19Z</time>
      </trkpt>
      <trkpt lat="48.653645" lon="-1.516249">
        <ele>0.947</ele>
        <time>2026-08-21T18:57:20Z</time>
      </trkpt>
      <trkpt lat="48.653655" lon="-1.516247">
        <ele>1.030</ele>
        <time>2026-08-21T18:57:21Z</time>
      </trkpt>
      <trkpt lat="48.653666" lon="-1.516244">
        <ele>1.017</ele>
        <time>2026-08-21T18:57:22Z</time>
      </trkpt>
      <trkpt lat="48.653678" lon="-1.516241">
        <ele>1.018</ele>
        <time>2026-08-21T18:57:23Z</time>
      </trkpt>
      <trkpt lat="48.653690" lon="-1.516244">
        <ele>1.212</ele>
        <time>2026-08-21T18:57:24Z</time>
      </trkpt>
      <trkpt lat="48.653702" lon="-1.516241">
        <ele>1.499</ele>
        <time>2026-08-21T18:57:25Z</time>
      </trkpt>
      <trkpt lat="48.653712" lon="-1.516240">
        <ele>1.456</ele>
        <time>2026-08-21T18:57:26Z</time>
      </trkpt>
      <trkpt lat="48.653722" lon="-1.516240">
        <ele>1.459</ele>
        <time>2026-08-21T18:57:27Z</time>
      </trkpt>
      <trkpt lat="48.653732" lon="-1.516241">
        <ele>1.514</ele>
        <time>2026-08-21T18:57:28Z</time>
      </trkpt>
      <trkpt lat="48.653742" lon="-1.516240">
        <ele>1.609</ele>
        <time>2026-08-21T18:57:29Z</time>
      </trkpt>
      <trkpt lat="48.653755" lon="-1.516238">
        <ele>1.897</ele>
        <time>2026-08-21T18:57:30Z</time>
      </trkpt>
      <trkpt lat="48.653767" lon="-1.516239">
        <ele>2.093</ele>
        <time>2026-08-21T18:57:31Z</time>
      </trkpt>
      <trkpt lat="48.653779" lon="-1.516237">
        <ele>2.176</ele>
        <time>2026-08-21T18:57:32Z</time>
      </trkpt>
      <trkpt lat="48.653789" lon="-1.516227">
        <ele>2.117</ele>
        <time>2026-08-21T18:57:33Z</time>
      </trkpt>
      <trkpt lat="48.653798" lon="-1.516219">
        <ele>2.160</ele>
        <time>2026-08-21T18:57:34Z</time>
      </trkpt>
      <trkpt lat="48.653816" lon="-1.516223">
        <ele>2.127</ele>
        <time>2026-08-21T18:57:36Z</time>
      </trkpt>
      <trkpt lat="48.653827" lon="-1.516230">
        <ele>2.128</ele>
        <time>2026-08-21T18:57:37Z</time>
      </trkpt>
      <trkpt lat="48.653838" lon="-1.516230">
        <ele>2.172</ele>
        <time>2026-08-21T18:57:38Z</time>
      </trkpt>
      <trkpt lat="48.653847" lon="-1.516226">
        <ele>2.129</ele>
        <time>2026-08-21T18:57:39Z</time>
      </trkpt>
      <trkpt lat="48.653864" lon="-1.516228">
        <ele>2.134</ele>
        <time>2026-08-21T18:57:41Z</time>
      </trkpt>
      <trkpt lat="48.653876" lon="-1.516229">
        <ele>2.155</ele>
        <time>2026-08-21T18:57:42Z</time>
      </trkpt>
      <trkpt lat="48.653885" lon="-1.516230">
        <ele>2.110</ele>
        <time>2026-08-21T18:57:43Z</time>
      </trkpt>
      <trkpt lat="48.653899" lon="-1.516229">
        <ele>2.109</ele>
        <time>2026-08-21T18:57:44Z</time>
      </trkpt>
      <trkpt lat="48.653912" lon="-1.516230">
        <ele>2.145</ele>
        <time>2026-08-21T18:57:45Z</time>
      </trkpt>
      <trkpt lat="48.653925" lon="-1.516233">
        <ele>2.181</ele>
        <time>2026-08-21T18:57:46Z</time>
      </trkpt>
      <trkpt lat="48.653938" lon="-1.516235">
        <ele>2.134</ele>
        <time>2026-08-21T18:57:47Z</time>
      </trkpt>
      <trkpt lat="48.653948" lon="-1.516234">
        <ele>2.155</ele>
        <time>2026-08-21T18:57:48Z</time>
      </trkpt>
      <trkpt lat="48.653959" lon="-1.516235">
        <ele>2.148</ele>
        <time>2026-08-21T18:57:49Z</time>
      </trkpt>
      <trkpt lat="48.653972" lon="-1.516235">
        <ele>2.035</ele>
        <time>2026-08-21T18:57:50Z</time>
      </trkpt>
      <trkpt lat="48.653983" lon="-1.516237">
        <ele>1.916</ele>
        <time>2026-08-21T18:57:51Z</time>
      </trkpt>
      <trkpt lat="48.653997" lon="-1.516238">
        <ele>1.810</ele>
        <time>2026-08-21T18:57:52Z</time>
      </trkpt>
      <trkpt lat="48.654008" lon="-1.516243">
        <ele>1.737</ele>
        <time>2026-08-21T18:57:53Z</time>
      </trkpt>
      <trkpt lat="48.654018" lon="-1.516244">
        <ele>1.742</ele>
        <time>2026-08-21T18:57:54Z</time>
      </trkpt>
      <trkpt lat="48.654029" lon="-1.516243">
        <ele>1.622</ele>
        <time>2026-08-21T18:57:55Z</time>
      </trkpt>
      <trkpt lat="48.654040" lon="-1.516239">
        <ele>1.514</ele>
        <time>2026-08-21T18:57:56Z</time>
      </trkpt>
      <trkpt lat="48.654050" lon="-1.516235">
        <ele>1.509</ele>
        <time>2026-08-21T18:57:57Z</time>
      </trkpt>
      <trkpt lat="48.654063" lon="-1.516231">
        <ele>1.556</ele>
        <time>2026-08-21T18:57:58Z</time>
      </trkpt>
      <trkpt lat="48.654074" lon="-1.516228">
        <ele>1.512</ele>
        <time>2026-08-21T18:57:59Z</time>
      </trkpt>
      <trkpt lat="48.654084" lon="-1.516230">
        <ele>1.515</ele>
        <time>2026-08-21T18:58:00Z</time>
      </trkpt>
      <trkpt lat="48.654095" lon="-1.516228">
        <ele>1.546</ele>
        <time>2026-08-21T18:58:01Z</time>
      </trkpt>
      <trkpt lat="48.654108" lon="-1.516228">
        <ele>1.559</ele>
        <time>2026-08-21T18:58:02Z</time>
      </trkpt>
      <trkpt lat="48.654119" lon="-1.516230">
        <ele>1.526</ele>
        <time>2026-08-21T18:58:03Z</time>
      </trkpt>
      <trkpt lat="48.654142" lon="-1.516219">
        <ele>1.567</ele>
        <time>2026-08-21T18:58:05Z</time>
      </trkpt>
      <trkpt lat="48.654153" lon="-1.516216">
        <ele>1.521</ele>
        <time>2026-08-21T18:58:06Z</time>
      </trkpt>
      <trkpt lat="48.654165" lon="-1.516214">
        <ele>1.548</ele>
        <time>2026-08-21T18:58:07Z</time>
      </trkpt>
      <trkpt lat="48.654185" lon="-1.516214">
        <ele>1.532</ele>
        <time>2026-08-21T18:58:09Z</time>
      </trkpt>
      <trkpt lat="48.654196" lon="-1.516215">
        <ele>1.592</ele>
        <time>2026-08-21T18:58:10Z</time>
      </trkpt>
      <trkpt lat="48.654207" lon="-1.516213">
        <ele>1.511</ele>
        <time>2026-08-21T18:58:11Z</time>
      </trkpt>
      <trkpt lat="48.654223" lon="-1.516209">
        <ele>1.509</ele>
        <time>2026-08-21T18:58:13Z</time>
      </trkpt>
      <trkpt lat="48.654245" lon="-1.516213">
        <ele>1.545</ele>
        <time>2026-08-21T18:58:15Z</time>
      </trkpt>
      <trkpt lat="48.654254" lon="-1.516215">
        <ele>1.511</ele>
        <time>2026-08-21T18:58:16Z</time>
      </trkpt>
      <trkpt lat="48.654274" lon="-1.516215">
        <ele>1.594</ele>
        <time>2026-08-21T18:58:18Z</time>
      </trkpt>
      <trkpt lat="48.654287" lon="-1.516214">
        <ele>1.575</ele>
        <time>2026-08-21T18:58:19Z</time>
      </trkpt>
      <trkpt lat="48.654303" lon="-1.516213">
        <ele>1.518</ele>
        <time>2026-08-21T18:58:20Z</time>
      </trkpt>
      <trkpt lat="48.654316" lon="-1.516209">
        <ele>1.585</ele>
        <time>2026-08-21T18:58:21Z</time>
      </trkpt>
      <trkpt lat="48.654332" lon="-1.516215">
        <ele>1.596</ele>
        <time>2026-08-21T18:58:22Z</time>
      </trkpt>
      <trkpt lat="48.654346" lon="-1.516221">
        <ele>1.560</ele>
        <time>2026-08-21T18:58:23Z</time>
      </trkpt>
      <trkpt lat="48.654360" lon="-1.516225">
        <ele>1.677</ele>
        <time>2026-08-21T18:58:24Z</time>
      </trkpt>
      <trkpt lat="48.654372" lon="-1.516225">
        <ele>1.653</ele>
        <time>2026-08-21T18:58:25Z</time>
      </trkpt>
      <trkpt lat="48.654388" lon="-1.516219">
        <ele>1.604</ele>
        <time>2026-08-21T18:58:27Z</time>
      </trkpt>
      <trkpt lat="48.654400" lon="-1.516214">
        <ele>1.614</ele>
        <time>2026-08-21T18:58:28Z</time>
      </trkpt>
      <trkpt lat="48.654410" lon="-1.516210">
        <ele>1.609</ele>
        <time>2026-08-21T18:58:29Z</time>
      </trkpt>
      <trkpt lat="48.654422" lon="-1.516215">
        <ele>1.687</ele>
        <time>2026-08-21T18:58:30Z</time>
      </trkpt>
      <trkpt lat="48.654435" lon="-1.516216">
        <ele>1.693</ele>
        <time>2026-08-21T18:58:31Z</time>
      </trkpt>
      <trkpt lat="48.654446" lon="-1.516218">
        <ele>1.636</ele>
        <time>2026-08-21T18:58:32Z</time>
      </trkpt>
      <trkpt lat="48.654458" lon="-1.516217">
        <ele>1.657</ele>
        <time>2026-08-21T18:58:33Z</time>
      </trkpt>
      <trkpt lat="48.654471" lon="-1.516217">
        <ele>1.680</ele>
        <time>2026-08-21T18:58:34Z</time>
      </trkpt>
      <trkpt lat="48.654481" lon="-1.516217">
        <ele>1.647</ele>
        <time>2026-08-21T18:58:35Z</time>
      </trkpt>
      <trkpt lat="48.654493" lon="-1.516217">
        <ele>1.528</ele>
        <time>2026-08-21T18:58:36Z</time>
      </trkpt>
      <trkpt lat="48.654504" lon="-1.516218">
        <ele>1.442</ele>
        <time>2026-08-21T18:58:37Z</time>
      </trkpt>
      <trkpt lat="48.654516" lon="-1.516217">
        <ele>1.379</ele>
        <time>2026-08-21T18:58:38Z</time>
      </trkpt>
      <trkpt lat="48.654526" lon="-1.516215">
        <ele>1.392</ele>
        <time>2026-08-21T18:58:39Z</time>
      </trkpt>
      <trkpt lat="48.654536" lon="-1.516212">
        <ele>1.273</ele>
        <time>2026-08-21T18:58:40Z</time>
      </trkpt>
      <trkpt lat="48.654547" lon="-1.516208">
        <ele>1.220</ele>
        <time>2026-08-21T18:58:41Z</time>
      </trkpt>
      <trkpt lat="48.654559" lon="-1.516208">
        <ele>1.209</ele>
        <time>2026-08-21T18:58:42Z</time>
      </trkpt>
      <trkpt lat="48.654571" lon="-1.516209">
        <ele>1.231</ele>
        <time>2026-08-21T18:58:43Z</time>
      </trkpt>
      <trkpt lat="48.654582" lon="-1.516207">
        <ele>1.257</ele>
        <time>2026-08-21T18:58:44Z</time>
      </trkpt>
      <trkpt lat="48.654591" lon="-1.516205">
        <ele>1.110</ele>
        <time>2026-08-21T18:58:45Z</time>
      </trkpt>
      <trkpt lat="48.654604" lon="-1.516201">
        <ele>1.111</ele>
        <time>2026-08-21T18:58:46Z</time>
      </trkpt>
      <trkpt lat="48.654619" lon="-1.516199">
        <ele>1.144</ele>
        <time>2026-08-21T18:58:47Z</time>
      </trkpt>
      <trkpt lat="48.654629" lon="-1.516200">
        <ele>1.131</ele>
        <time>2026-08-21T18:58:48Z</time>
      </trkpt>
      <trkpt lat="48.654639" lon="-1.516198">
        <ele>1.192</ele>
        <time>2026-08-21T18:58:49Z</time>
      </trkpt>
      <trkpt lat="48.654649" lon="-1.516199">
        <ele>1.186</ele>
        <time>2026-08-21T18:58:50Z</time>
      </trkpt>
      <trkpt lat="48.654658" lon="-1.516196">
        <ele>1.193</ele>
        <time>2026-08-21T18:58:51Z</time>
      </trkpt>
      <trkpt lat="48.654675" lon="-1.516192">
        <ele>1.129</ele>
        <time>2026-08-21T18:58:52Z</time>
      </trkpt>
      <trkpt lat="48.654687" lon="-1.516192">
        <ele>1.100</ele>
        <time>2026-08-21T18:58:53Z</time>
      </trkpt>
      <trkpt lat="48.654701" lon="-1.516195">
        <ele>1.120</ele>
        <time>2026-08-21T18:58:54Z</time>
      </trkpt>
      <trkpt lat="48.654714" lon="-1.516195">
        <ele>1.109</ele>
        <time>2026-08-21T18:58:55Z</time>
      </trkpt>
      <trkpt lat="48.654727" lon="-1.516193">
        <ele>1.094</ele>
        <time>2026-08-21T18:58:56Z</time>
      </trkpt>
      <trkpt lat="48.654742" lon="-1.516193">
        <ele>1.040</ele>
        <time>2026-08-21T18:58:57Z</time>
      </trkpt>
      <trkpt lat="48.654756" lon="-1.516195">
        <ele>1.013</ele>
        <time>2026-08-21T18:58:58Z</time>
      </trkpt>
      <trkpt lat="48.654768" lon="-1.516194">
        <ele>1.064</ele>
        <time>2026-08-21T18:58:59Z</time>
      </trkpt>
      <trkpt lat="48.654778" lon="-1.516198">
        <ele>1.097</ele>
        <time>2026-08-21T18:59:00Z</time>
      </trkpt>
      <trkpt lat="48.654789" lon="-1.516198">
        <ele>1.074</ele>
        <time>2026-08-21T18:59:01Z</time>
      </trkpt>
      <trkpt lat="48.654808" lon="-1.516201">
        <ele>1.025</ele>
        <time>2026-08-21T18:59:03Z</time>
      </trkpt>
      <trkpt lat="48.654822" lon="-1.516203">
        <ele>1.039</ele>
        <time>2026-08-21T18:59:04Z</time>
      </trkpt>
      <trkpt lat="48.654838" lon="-1.516202">
        <ele>1.096</ele>
        <time>2026-08-21T18:59:05Z</time>
      </trkpt>
      <trkpt lat="48.654847" lon="-1.516205">
        <ele>1.098</ele>
        <time>2026-08-21T18:59:06Z</time>
      </trkpt>
      <trkpt lat="48.654859" lon="-1.516207">
        <ele>1.015</ele>
        <time>2026-08-21T18:59:07Z</time>
      </trkpt>
      <trkpt lat="48.654870" lon="-1.516208">
        <ele>1.026</ele>
        <time>2026-08-21T18:59:08Z</time>
      </trkpt>
      <trkpt lat="48.654884" lon="-1.516207">
        <ele>1.109</ele>
        <time>2026-08-21T18:59:09Z</time>
      </trkpt>
      <trkpt lat="48.654897" lon="-1.516204">
        <ele>1.111</ele>
        <time>2026-08-21T18:59:10Z</time>
      </trkpt>
      <trkpt lat="48.654908" lon="-1.516207">
        <ele>1.167</ele>
        <time>2026-08-21T18:59:11Z</time>
      </trkpt>
      <trkpt lat="48.654917" lon="-1.516213">
        <ele>1.270</ele>
        <time>2026-08-21T18:59:12Z</time>
      </trkpt>
      <trkpt lat="48.654932" lon="-1.516215">
        <ele>1.291</ele>
        <time>2026-08-21T18:59:13Z</time>
      </trkpt>
      <trkpt lat="48.654943" lon="-1.516217">
        <ele>1.244</ele>
        <time>2026-08-21T18:59:14Z</time>
      </trkpt>
      <trkpt lat="48.654953" lon="-1.516212">
        <ele>1.291</ele>
        <time>2026-08-21T18:59:15Z</time>
      </trkpt>
      <trkpt lat="48.654965" lon="-1.516208">
        <ele>1.332</ele>
        <time>2026-08-21T18:59:16Z</time>
      </trkpt>
      <trkpt lat="48.654977" lon="-1.516212">
        <ele>1.346</ele>
        <time>2026-08-21T18:59:17Z</time>
      </trkpt>
      <trkpt lat="48.654990" lon="-1.516216">
        <ele>1.463</ele>
        <time>2026-08-21T18:59:18Z</time>
      </trkpt>
      <trkpt lat="48.655002" lon="-1.516217">
        <ele>1.533</ele>
        <time>2026-08-21T18:59:19Z</time>
      </trkpt>
      <trkpt lat="48.655014" lon="-1.516219">
        <ele>1.523</ele>
        <time>2026-08-21T18:59:20Z</time>
      </trkpt>
      <trkpt lat="48.655025" lon="-1.516215">
        <ele>1.515</ele>
        <time>2026-08-21T18:59:21Z</time>
      </trkpt>
      <trkpt lat="48.655038" lon="-1.516210">
        <ele>1.509</ele>
        <time>2026-08-21T18:59:22Z</time>
      </trkpt>
      <trkpt lat="48.655051" lon="-1.516213">
        <ele>1.535</ele>
        <time>2026-08-21T18:59:23Z</time>
      </trkpt>
      <trkpt lat="48.655061" lon="-1.516222">
        <ele>1.531</ele>
        <time>2026-08-21T18:59:24Z</time>
      </trkpt>
      <trkpt lat="48.655078" lon="-1.516228">
        <ele>1.574</ele>
        <time>2026-08-21T18:59:26Z</time>
      </trkpt>
      <trkpt lat="48.655089" lon="-1.516230">
        <ele>1.575</ele>
        <time>2026-08-21T18:59:27Z</time>
      </trkpt>
      <trkpt lat="48.655101" lon="-1.516233">
        <ele>1.538</ele>
        <time>2026-08-21T18:59:28Z</time>
      </trkpt>
      <trkpt lat="48.655113" lon="-1.516236">
        <ele>1.515</ele>
        <time>2026-08-21T18:59:29Z</time>
      </trkpt>
      <trkpt lat="48.655126" lon="-1.516241">
        <ele>1.576</ele>
        <time>2026-08-21T18:59:30Z</time>
      </trkpt>
      <trkpt lat="48.655138" lon="-1.516242">
        <ele>1.460</ele>
        <time>2026-08-21T18:59:31Z</time>
      </trkpt>
      <trkpt lat="48.655150" lon="-1.516240">
        <ele>1.457</ele>
        <time>2026-08-21T18:59:32Z</time>
      </trkpt>
      <trkpt lat="48.655163" lon="-1.516239">
        <ele>1.345</ele>
        <time>2026-08-21T18:59:33Z</time>
      </trkpt>
      <trkpt lat="48.655174" lon="-1.516240">
        <ele>1.347</ele>
        <time>2026-08-21T18:59:34Z</time>
      </trkpt>
      <trkpt lat="48.655187" lon="-1.516243">
        <ele>1.311</ele>
        <time>2026-08-21T18:59:35Z</time>
      </trkpt>
      <trkpt lat="48.655198" lon="-1.516246">
        <ele>1.209</ele>
        <time>2026-08-21T18:59:36Z</time>
      </trkpt>
      <trkpt lat="48.655207" lon="-1.516248">
        <ele>1.076</ele>
        <time>2026-08-21T18:59:37Z</time>
      </trkpt>
      <trkpt lat="48.655215" lon="-1.516242">
        <ele>0.962</ele>
        <time>2026-08-21T18:59:38Z</time>
      </trkpt>
      <trkpt lat="48.655229" lon="-1.516241">
        <ele>0.985</ele>
        <time>2026-08-21T18:59:39Z</time>
      </trkpt>
      <trkpt lat="48.655242" lon="-1.516245">
        <ele>0.986</ele>
        <time>2026-08-21T18:59:40Z</time>
      </trkpt>
      <trkpt lat="48.655252" lon="-1.516248">
        <ele>0.879</ele>
        <time>2026-08-21T18:59:41Z</time>
      </trkpt>
      <trkpt lat="48.655263" lon="-1.516256">
        <ele>0.876</ele>
        <time>2026-08-21T18:59:42Z</time>
      </trkpt>
      <trkpt lat="48.655272" lon="-1.516262">
        <ele>0.847</ele>
        <time>2026-08-21T18:59:43Z</time>
      </trkpt>
      <trkpt lat="48.655283" lon="-1.516266">
        <ele>0.841</ele>
        <time>2026-08-21T18:59:44Z</time>
      </trkpt>
      <trkpt lat="48.655294" lon="-1.516263">
        <ele>0.838</ele>
        <time>2026-08-21T18:59:45Z</time>
      </trkpt>
      <trkpt lat="48.655305" lon="-1.516262">
        <ele>0.888</ele>
        <time>2026-08-21T18:59:46Z</time>
      </trkpt>
      <trkpt lat="48.655315" lon="-1.516264">
        <ele>0.824</ele>
        <time>2026-08-21T18:59:47Z</time>
      </trkpt>
      <trkpt lat="48.655325" lon="-1.516268">
        <ele>0.826</ele>
        <time>2026-08-21T18:59:48Z</time>
      </trkpt>
      <trkpt lat="48.655335" lon="-1.516275">
        <ele>0.709</ele>
        <time>2026-08-21T18:59:49Z</time>
      </trkpt>
      <trkpt lat="48.655346" lon="-1.516278">
        <ele>0.790</ele>
        <time>2026-08-21T18:59:50Z</time>
      </trkpt>
      <trkpt lat="48.655359" lon="-1.516279">
        <ele>0.746</ele>
        <time>2026-08-21T18:59:51Z</time>
      </trkpt>
      <trkpt lat="48.655377" lon="-1.516278">
        <ele>0.749</ele>
        <time>2026-08-21T18:59:52Z</time>
      </trkpt>
      <trkpt lat="48.655392" lon="-1.516279">
        <ele>0.750</ele>
        <time>2026-08-21T18:59:53Z</time>
      </trkpt>
      <trkpt lat="48.655405" lon="-1.516280">
        <ele>0.633</ele>
        <time>2026-08-21T18:59:54Z</time>
      </trkpt>
      <trkpt lat="48.655419" lon="-1.516286">
        <ele>0.690</ele>
        <time>2026-08-21T18:59:55Z</time>
      </trkpt>
      <trkpt lat="48.655429" lon="-1.516285">
        <ele>0.621</ele>
        <time>2026-08-21T18:59:56Z</time>
      </trkpt>
      <trkpt lat="48.655441" lon="-1.516284">
        <ele>0.665</ele>
        <time>2026-08-21T18:59:57Z</time>
      </trkpt>
      <trkpt lat="48.655451" lon="-1.516285">
        <ele>0.632</ele>
        <time>2026-08-21T18:59:58Z</time>
      </trkpt>
      <trkpt lat="48.655461" lon="-1.516285">
        <ele>0.644</ele>
        <time>2026-08-21T18:59:59Z</time>
      </trkpt>
      <trkpt lat="48.655480" lon="-1.516287">
        <ele>0.605</ele>
        <time>2026-08-21T19:00:01Z</time>
      </trkpt>
      <trkpt lat="48.655496" lon="-1.516286">
        <ele>0.615</ele>
        <time>2026-08-21T19:00:02Z</time>
      </trkpt>
      <trkpt lat="48.655511" lon="-1.516284">
        <ele>0.609</ele>
        <time>2026-08-21T19:00:03Z</time>
      </trkpt>
      <trkpt lat="48.655522" lon="-1.516286">
        <ele>0.656</ele>
        <time>2026-08-21T19:00:04Z</time>
      </trkpt>
      <trkpt lat="48.655532" lon="-1.516286">
        <ele>0.682</ele>
        <time>2026-08-21T19:00:05Z</time>
      </trkpt>
      <trkpt lat="48.655544" lon="-1.516286">
        <ele>0.615</ele>
        <time>2026-08-21T19:00:06Z</time>
      </trkpt>
      <trkpt lat="48.655553" lon="-1.516288">
        <ele>0.626</ele>
        <time>2026-08-21T19:00:07Z</time>
      </trkpt>
      <trkpt lat="48.655565" lon="-1.516287">
        <ele>0.669</ele>
        <time>2026-08-21T19:00:08Z</time>
      </trkpt>
      <trkpt lat="48.655577" lon="-1.516287">
        <ele>0.676</ele>
        <time>2026-08-21T19:00:09Z</time>
      </trkpt>
      <trkpt lat="48.655592" lon="-1.516285">
        <ele>0.657</ele>
        <time>2026-08-21T19:00:10Z</time>
      </trkpt>
      <trkpt lat="48.655604" lon="-1.516284">
        <ele>0.661</ele>
        <time>2026-08-21T19:00:11Z</time>
      </trkpt>
      <trkpt lat="48.655616" lon="-1.516288">
        <ele>0.648</ele>
        <time>2026-08-21T19:00:12Z</time>
      </trkpt>
      <trkpt lat="48.655634" lon="-1.516280">
        <ele>0.619</ele>
        <time>2026-08-21T19:00:14Z</time>
      </trkpt>
      <trkpt lat="48.655645" lon="-1.516279">
        <ele>0.609</ele>
        <time>2026-08-21T19:00:15Z</time>
      </trkpt>
      <trkpt lat="48.655657" lon="-1.516276">
        <ele>0.619</ele>
        <time>2026-08-21T19:00:16Z</time>
      </trkpt>
      <trkpt lat="48.655674" lon="-1.516279">
        <ele>0.609</ele>
        <time>2026-08-21T19:00:17Z</time>
      </trkpt>
      <trkpt lat="48.655689" lon="-1.516283">
        <ele>0.633</ele>
        <time>2026-08-21T19:00:18Z</time>
      </trkpt>
      <trkpt lat="48.655701" lon="-1.516289">
        <ele>0.639</ele>
        <time>2026-08-21T19:00:19Z</time>
      </trkpt>
      <trkpt lat="48.655710" lon="-1.516293">
        <ele>0.782</ele>
        <time>2026-08-21T19:00:20Z</time>
      </trkpt>
      <trkpt lat="48.655721" lon="-1.516294">
        <ele>0.753</ele>
        <time>2026-08-21T19:00:21Z</time>
      </trkpt>
      <trkpt lat="48.655732" lon="-1.516297">
        <ele>0.756</ele>
        <time>2026-08-21T19:00:22Z</time>
      </trkpt>
      <trkpt lat="48.655745" lon="-1.516300">
        <ele>0.723</ele>
        <time>2026-08-21T19:00:23Z</time>
      </trkpt>
      <trkpt lat="48.655759" lon="-1.516303">
        <ele>0.774</ele>
        <time>2026-08-21T19:00:24Z</time>
      </trkpt>
      <trkpt lat="48.655769" lon="-1.516308">
        <ele>0.728</ele>
        <time>2026-08-21T19:00:25Z</time>
      </trkpt>
      <trkpt lat="48.655790" lon="-1.516308">
        <ele>0.775</ele>
        <time>2026-08-21T19:00:27Z</time>
      </trkpt>
      <trkpt lat="48.655802" lon="-1.516308">
        <ele>0.749</ele>
        <time>2026-08-21T19:00:28Z</time>
      </trkpt>
      <trkpt lat="48.655818" lon="-1.516307">
        <ele>0.702</ele>
        <time>2026-08-21T19:00:29Z</time>
      </trkpt>
      <trkpt lat="48.655831" lon="-1.516310">
        <ele>0.722</ele>
        <time>2026-08-21T19:00:30Z</time>
      </trkpt>
      <trkpt lat="48.655846" lon="-1.516314">
        <ele>0.709</ele>
        <time>2026-08-21T19:00:31Z</time>
      </trkpt>
      <trkpt lat="48.655855" lon="-1.516317">
        <ele>0.716</ele>
        <time>2026-08-21T19:00:32Z</time>
      </trkpt>
      <trkpt lat="48.655869" lon="-1.516322">
        <ele>0.752</ele>
        <time>2026-08-21T19:00:33Z</time>
      </trkpt>
      <trkpt lat="48.655881" lon="-1.516324">
        <ele>0.765</ele>
        <time>2026-08-21T19:00:34Z</time>
      </trkpt>
      <trkpt lat="48.655894" lon="-1.516326">
        <ele>0.746</ele>
        <time>2026-08-21T19:00:35Z</time>
      </trkpt>
      <trkpt lat="48.655908" lon="-1.516328">
        <ele>0.729</ele>
        <time>2026-08-21T19:00:36Z</time>
      </trkpt>
      <trkpt lat="48.655920" lon="-1.516329">
        <ele>0.766</ele>
        <time>2026-08-21T19:00:37Z</time>
      </trkpt>
      <trkpt lat="48.655931" lon="-1.516332">
        <ele>0.727</ele>
        <time>2026-08-21T19:00:38Z</time>
      </trkpt>
      <trkpt lat="48.655943" lon="-1.516337">
        <ele>0.791</ele>
        <time>2026-08-21T19:00:39Z</time>
      </trkpt>
      <trkpt lat="48.655954" lon="-1.516342">
        <ele>0.798</ele>
        <time>2026-08-21T19:00:40Z</time>
      </trkpt>
      <trkpt lat="48.655967" lon="-1.516341">
        <ele>0.793</ele>
        <time>2026-08-21T19:00:41Z</time>
      </trkpt>
      <trkpt lat="48.655978" lon="-1.516339">
        <ele>0.765</ele>
        <time>2026-08-21T19:00:42Z</time>
      </trkpt>
      <trkpt lat="48.655991" lon="-1.516335">
        <ele>0.721</ele>
        <time>2026-08-21T19:00:43Z</time>
      </trkpt>
      <trkpt lat="48.656002" lon="-1.516335">
        <ele>0.709</ele>
        <time>2026-08-21T19:00:44Z</time>
      </trkpt>
      <trkpt lat="48.656014" lon="-1.516338">
        <ele>0.751</ele>
        <time>2026-08-21T19:00:45Z</time>
      </trkpt>
      <trkpt lat="48.656024" lon="-1.516338">
        <ele>0.747</ele>
        <time>2026-08-21T19:00:46Z</time>
      </trkpt>
      <trkpt lat="48.656042" lon="-1.516333">
        <ele>0.790</ele>
        <time>2026-08-21T19:00:48Z</time>
      </trkpt>
      <trkpt lat="48.656052" lon="-1.516333">
        <ele>0.761</ele>
        <time>2026-08-21T19:00:49Z</time>
      </trkpt>
      <trkpt lat="48.656064" lon="-1.516333">
        <ele>0.764</ele>
        <time>2026-08-21T19:00:50Z</time>
      </trkpt>
      <trkpt lat="48.656074" lon="-1.516332">
        <ele>0.731</ele>
        <time>2026-08-21T19:00:51Z</time>
      </trkpt>
      <trkpt lat="48.656084" lon="-1.516328">
        <ele>0.762</ele>
        <time>2026-08-21T19:00:52Z</time>
      </trkpt>
      <trkpt lat="48.656090" lon="-1.516316">
        <ele>0.776</ele>
        <time>2026-08-21T19:00:55Z</time>
      </trkpt>
      <trkpt lat="48.656104" lon="-1.516311">
        <ele>0.783</ele>
        <time>2026-08-21T19:00:58Z</time>
      </trkpt>
      <trkpt lat="48.656115" lon="-1.516306">
        <ele>0.617</ele>
        <time>2026-08-21T19:00:59Z</time>
      </trkpt>
      <trkpt lat="48.656132" lon="-1.516310">
        <ele>0.687</ele>
        <time>2026-08-21T19:01:01Z</time>
      </trkpt>
      <trkpt lat="48.656150" lon="-1.516315">
        <ele>0.615</ele>
        <time>2026-08-21T19:01:03Z</time>
      </trkpt>
      <trkpt lat="48.656171" lon="-1.516320">
        <ele>0.609</ele>
        <time>2026-08-21T19:01:05Z</time>
      </trkpt>
      <trkpt lat="48.656188" lon="-1.516314">
        <ele>0.523</ele>
        <time>2026-08-21T19:01:07Z</time>
      </trkpt>
      <trkpt lat="48.656198" lon="-1.516310">
        <ele>0.569</ele>
        <time>2026-08-21T19:01:08Z</time>
      </trkpt>
      <trkpt lat="48.656210" lon="-1.516311">
        <ele>0.462</ele>
        <time>2026-08-21T19:01:09Z</time>
      </trkpt>
      <trkpt lat="48.656218" lon="-1.516315">
        <ele>0.333</ele>
        <time>2026-08-21T19:01:10Z</time>
      </trkpt>
      <trkpt lat="48.656228" lon="-1.516318">
        <ele>0.386</ele>
        <time>2026-08-21T19:01:11Z</time>
      </trkpt>
      <trkpt lat="48.656238" lon="-1.516322">
        <ele>0.363</ele>
        <time>2026-08-21T19:01:12Z</time>
      </trkpt>
      <trkpt lat="48.656247" lon="-1.516323">
        <ele>0.384</ele>
        <time>2026-08-21T19:01:13Z</time>
      </trkpt>
      <trkpt lat="48.656258" lon="-1.516321">
        <ele>0.238</ele>
        <time>2026-08-21T19:01:14Z</time>
      </trkpt>
      <trkpt lat="48.656267" lon="-1.516320">
        <ele>0.065</ele>
        <time>2026-08-21T19:01:15Z</time>
      </trkpt>
      <trkpt lat="48.656284" lon="-1.516326">
        <ele>-0.376</ele>
        <time>2026-08-21T19:01:17Z</time>
      </trkpt>
      <trkpt lat="48.656297" lon="-1.516321">
        <ele>-0.590</ele>
        <time>2026-08-21T19:01:18Z</time>
      </trkpt>
      <trkpt lat="48.656307" lon="-1.516318">
        <ele>-0.619</ele>
        <time>2026-08-21T19:01:19Z</time>
      </trkpt>
      <trkpt lat="48.656319" lon="-1.516323">
        <ele>-0.909</ele>
        <time>2026-08-21T19:01:20Z</time>
      </trkpt>
      <trkpt lat="48.656331" lon="-1.516323">
        <ele>-1.139</ele>
        <time>2026-08-21T19:01:21Z</time>
      </trkpt>
      <trkpt lat="48.656341" lon="-1.516325">
        <ele>-1.215</ele>
        <time>2026-08-21T19:01:22Z</time>
      </trkpt>
      <trkpt lat="48.656360" lon="-1.516322">
        <ele>-1.278</ele>
        <time>2026-08-21T19:01:24Z</time>
      </trkpt>
      <trkpt lat="48.656373" lon="-1.516327">
        <ele>-1.249</ele>
        <time>2026-08-21T19:01:25Z</time>
      </trkpt>
      <trkpt lat="48.656383" lon="-1.516328">
        <ele>-1.212</ele>
        <time>2026-08-21T19:01:26Z</time>
      </trkpt>
      <trkpt lat="48.656394" lon="-1.516325">
        <ele>-1.249</ele>
        <time>2026-08-21T19:01:27Z</time>
      </trkpt>
      <trkpt lat="48.656407" lon="-1.516321">
        <ele>-1.240</ele>
        <time>2026-08-21T19:01:28Z</time>
      </trkpt>
      <trkpt lat="48.656420" lon="-1.516317">
        <ele>-1.214</ele>
        <time>2026-08-21T19:01:29Z</time>
      </trkpt>
      <trkpt lat="48.656430" lon="-1.516317">
        <ele>-1.231</ele>
        <time>2026-08-21T19:01:30Z</time>
      </trkpt>
      <trkpt lat="48.656440" lon="-1.516319">
        <ele>-1.285</ele>
        <time>2026-08-21T19:01:31Z</time>
      </trkpt>
      <trkpt lat="48.656450" lon="-1.516321">
        <ele>-1.289</ele>
        <time>2026-08-21T19:01:32Z</time>
      </trkpt>
      <trkpt lat="48.656469" lon="-1.516324">
        <ele>-1.317</ele>
        <time>2026-08-21T19:01:34Z</time>
      </trkpt>
      <trkpt lat="48.656478" lon="-1.516324">
        <ele>-1.409</ele>
        <time>2026-08-21T19:01:35Z</time>
      </trkpt>
      <trkpt lat="48.656490" lon="-1.516323">
        <ele>-1.480</ele>
        <time>2026-08-21T19:01:36Z</time>
      </trkpt>
      <trkpt lat="48.656499" lon="-1.516324">
        <ele>-1.526</ele>
        <time>2026-08-21T19:01:37Z</time>
      </trkpt>
      <trkpt lat="48.656517" lon="-1.516326">
        <ele>-1.519</ele>
        <time>2026-08-21T19:01:39Z</time>
      </trkpt>
      <trkpt lat="48.656531" lon="-1.516328">
        <ele>-1.560</ele>
        <time>2026-08-21T19:01:40Z</time>
      </trkpt>
      <trkpt lat="48.656545" lon="-1.516326">
        <ele>-1.593</ele>
        <time>2026-08-21T19:01:41Z</time>
      </trkpt>
      <trkpt lat="48.656557" lon="-1.516321">
        <ele>-1.430</ele>
        <time>2026-08-21T19:01:42Z</time>
      </trkpt>
      <trkpt lat="48.656567" lon="-1.516320">
        <ele>-1.371</ele>
        <time>2026-08-21T19:01:43Z</time>
      </trkpt>
      <trkpt lat="48.656577" lon="-1.516325">
        <ele>-1.235</ele>
        <time>2026-08-21T19:01:44Z</time>
      </trkpt>
      <trkpt lat="48.656588" lon="-1.516327">
        <ele>-1.242</ele>
        <time>2026-08-21T19:01:45Z</time>
      </trkpt>
      <trkpt lat="48.656600" lon="-1.516326">
        <ele>-1.275</ele>
        <time>2026-08-21T19:01:46Z</time>
      </trkpt>
      <trkpt lat="48.656616" lon="-1.516319">
        <ele>-1.228</ele>
        <time>2026-08-21T19:01:47Z</time>
      </trkpt>
      <trkpt lat="48.656628" lon="-1.516320">
        <ele>-1.220</ele>
        <time>2026-08-21T19:01:48Z</time>
      </trkpt>
      <trkpt lat="48.656647" lon="-1.516328">
        <ele>-1.109</ele>
        <time>2026-08-21T19:01:50Z</time>
      </trkpt>
      <trkpt lat="48.656659" lon="-1.516330">
        <ele>-1.179</ele>
        <time>2026-08-21T19:01:51Z</time>
      </trkpt>
      <trkpt lat="48.656669" lon="-1.516335">
        <ele>-1.185</ele>
        <time>2026-08-21T19:01:52Z</time>
      </trkpt>
      <trkpt lat="48.656680" lon="-1.516337">
        <ele>-1.118</ele>
        <time>2026-08-21T19:01:53Z</time>
      </trkpt>
      <trkpt lat="48.656693" lon="-1.516339">
        <ele>-1.159</ele>
        <time>2026-08-21T19:01:54Z</time>
      </trkpt>
      <trkpt lat="48.656704" lon="-1.516337">
        <ele>-1.172</ele>
        <time>2026-08-21T19:01:55Z</time>
      </trkpt>
      <trkpt lat="48.656717" lon="-1.516336">
        <ele>-1.099</ele>
        <time>2026-08-21T19:01:56Z</time>
      </trkpt>
      <trkpt lat="48.656730" lon="-1.516332">
        <ele>-1.010</ele>
        <time>2026-08-21T19:01:57Z</time>
      </trkpt>
      <trkpt lat="48.656751" lon="-1.516327">
        <ele>-1.074</ele>
        <time>2026-08-21T19:01:59Z</time>
      </trkpt>
      <trkpt lat="48.656764" lon="-1.516329">
        <ele>-1.071</ele>
        <time>2026-08-21T19:02:00Z</time>
      </trkpt>
      <trkpt lat="48.656777" lon="-1.516325">
        <ele>-1.016</ele>
        <time>2026-08-21T19:02:01Z</time>
      </trkpt>
      <trkpt lat="48.656788" lon="-1.516323">
        <ele>-1.076</ele>
        <time>2026-08-21T19:02:02Z</time>
      </trkpt>
      <trkpt lat="48.656803" lon="-1.516322">
        <ele>-1.013</ele>
        <time>2026-08-21T19:02:03Z</time>
      </trkpt>
      <trkpt lat="48.656814" lon="-1.516325">
        <ele>-0.909</ele>
        <time>2026-08-21T19:02:04Z</time>
      </trkpt>
      <trkpt lat="48.656829" lon="-1.516329">
        <ele>-0.973</ele>
        <time>2026-08-21T19:02:06Z</time>
      </trkpt>
      <trkpt lat="48.656838" lon="-1.516325">
        <ele>-0.999</ele>
        <time>2026-08-21T19:02:07Z</time>
      </trkpt>
      <trkpt lat="48.656851" lon="-1.516323">
        <ele>-0.922</ele>
        <time>2026-08-21T19:02:08Z</time>
      </trkpt>
      <trkpt lat="48.656862" lon="-1.516325">
        <ele>-0.813</ele>
        <time>2026-08-21T19:02:09Z</time>
      </trkpt>
      <trkpt lat="48.656874" lon="-1.516329">
        <ele>-0.886</ele>
        <time>2026-08-21T19:02:10Z</time>
      </trkpt>
      <trkpt lat="48.656886" lon="-1.516328">
        <ele>-0.893</ele>
        <time>2026-08-21T19:02:11Z</time>
      </trkpt>
      <trkpt lat="48.656895" lon="-1.516329">
        <ele>-0.894</ele>
        <time>2026-08-21T19:02:12Z</time>
      </trkpt>
      <trkpt lat="48.656907" lon="-1.516328">
        <ele>-0.878</ele>
        <time>2026-08-21T19:02:13Z</time>
      </trkpt>
      <trkpt lat="48.656921" lon="-1.516329">
        <ele>-0.885</ele>
        <time>2026-08-21T19:02:14Z</time>
      </trkpt>
      <trkpt lat="48.656933" lon="-1.516330">
        <ele>-0.834</ele>
        <time>2026-08-21T19:02:15Z</time>
      </trkpt>
      <trkpt lat="48.656945" lon="-1.516333">
        <ele>-0.855</ele>
        <time>2026-08-21T19:02:16Z</time>
      </trkpt>
      <trkpt lat="48.656955" lon="-1.516333">
        <ele>-0.810</ele>
        <time>2026-08-21T19:02:17Z</time>
      </trkpt>
      <trkpt lat="48.656968" lon="-1.516332">
        <ele>-0.809</ele>
        <time>2026-08-21T19:02:18Z</time>
      </trkpt>
      <trkpt lat="48.656982" lon="-1.516326">
        <ele>-0.835</ele>
        <time>2026-08-21T19:02:19Z</time>
      </trkpt>
      <trkpt lat="48.656995" lon="-1.516321">
        <ele>-0.731</ele>
        <time>2026-08-21T19:02:20Z</time>
      </trkpt>
      <trkpt lat="48.657007" lon="-1.516319">
        <ele>-0.754</ele>
        <time>2026-08-21T19:02:21Z</time>
      </trkpt>
      <trkpt lat="48.657016" lon="-1.516319">
        <ele>-0.655</ele>
        <time>2026-08-21T19:02:22Z</time>
      </trkpt>
      <trkpt lat="48.657027" lon="-1.516323">
        <ele>-0.628</ele>
        <time>2026-08-21T19:02:23Z</time>
      </trkpt>
      <trkpt lat="48.657038" lon="-1.516324">
        <ele>-0.665</ele>
        <time>2026-08-21T19:02:24Z</time>
      </trkpt>
      <trkpt lat="48.657049" lon="-1.516325">
        <ele>-0.516</ele>
        <time>2026-08-21T19:02:25Z</time>
      </trkpt>
      <trkpt lat="48.657061" lon="-1.516325">
        <ele>-0.530</ele>
        <time>2026-08-21T19:02:26Z</time>
      </trkpt>
      <trkpt lat="48.657073" lon="-1.516325">
        <ele>-0.567</ele>
        <time>2026-08-21T19:02:27Z</time>
      </trkpt>
      <trkpt lat="48.657084" lon="-1.516325">
        <ele>-0.548</ele>
        <time>2026-08-21T19:02:28Z</time>
      </trkpt>
      <trkpt lat="48.657095" lon="-1.516322">
        <ele>-0.561</ele>
        <time>2026-08-21T19:02:29Z</time>
      </trkpt>
      <trkpt lat="48.657105" lon="-1.516322">
        <ele>-0.517</ele>
        <time>2026-08-21T19:02:30Z</time>
      </trkpt>
      <trkpt lat="48.657119" lon="-1.516317">
        <ele>-0.509</ele>
        <time>2026-08-21T19:02:31Z</time>
      </trkpt>
      <trkpt lat="48.657131" lon="-1.516314">
        <ele>-0.636</ele>
        <time>2026-08-21T19:02:32Z</time>
      </trkpt>
      <trkpt lat="48.657144" lon="-1.516312">
        <ele>-0.612</ele>
        <time>2026-08-21T19:02:33Z</time>
      </trkpt>
      <trkpt lat="48.657157" lon="-1.516316">
        <ele>-0.645</ele>
        <time>2026-08-21T19:02:34Z</time>
      </trkpt>
      <trkpt lat="48.657171" lon="-1.516323">
        <ele>-0.666</ele>
        <time>2026-08-21T19:02:35Z</time>
      </trkpt>
      <trkpt lat="48.657184" lon="-1.516323">
        <ele>-0.699</ele>
        <time>2026-08-21T19:02:36Z</time>
      </trkpt>
      <trkpt lat="48.657197" lon="-1.516318">
        <ele>-0.686</ele>
        <time>2026-08-21T19:02:37Z</time>
      </trkpt>
      <trkpt lat="48.657211" lon="-1.516312">
        <ele>-0.627</ele>
        <time>2026-08-21T19:02:38Z</time>
      </trkpt>
      <trkpt lat="48.657221" lon="-1.516312">
        <ele>-0.691</ele>
        <time>2026-08-21T19:02:39Z</time>
      </trkpt>
      <trkpt lat="48.657233" lon="-1.516315">
        <ele>-0.648</ele>
        <time>2026-08-21T19:02:40Z</time>
      </trkpt>
      <trkpt lat="48.657246" lon="-1.516320">
        <ele>-0.671</ele>
        <time>2026-08-21T19:02:41Z</time>
      </trkpt>
      <trkpt lat="48.657259" lon="-1.516320">
        <ele>-0.541</ele>
        <time>2026-08-21T19:02:42Z</time>
      </trkpt>
      <trkpt lat="48.657273" lon="-1.516317">
        <ele>-0.415</ele>
        <time>2026-08-21T19:02:43Z</time>
      </trkpt>
      <trkpt lat="48.657286" lon="-1.516319">
        <ele>-0.409</ele>
        <time>2026-08-21T19:02:44Z</time>
      </trkpt>
      <trkpt lat="48.657297" lon="-1.516320">
        <ele>-0.469</ele>
        <time>2026-08-21T19:02:45Z</time>
      </trkpt>
      <trkpt lat="48.657306" lon="-1.516318">
        <ele>-0.435</ele>
        <time>2026-08-21T19:02:46Z</time>
      </trkpt>
      <trkpt lat="48.657324" lon="-1.516316">
        <ele>-0.418</ele>
        <time>2026-08-21T19:02:48Z</time>
      </trkpt>
      <trkpt lat="48.657336" lon="-1.516320">
        <ele>-0.499</ele>
        <time>2026-08-21T19:02:49Z</time>
      </trkpt>
      <trkpt lat="48.657348" lon="-1.516324">
        <ele>-0.382</ele>
        <time>2026-08-21T19:02:50Z</time>
      </trkpt>
      <trkpt lat="48.657357" lon="-1.516328">
        <ele>-0.319</ele>
        <time>2026-08-21T19:02:51Z</time>
      </trkpt>
      <trkpt lat="48.657366" lon="-1.516332">
        <ele>-0.350</ele>
        <time>2026-08-21T19:02:52Z</time>
      </trkpt>
      <trkpt lat="48.657376" lon="-1.516336">
        <ele>-0.284</ele>
        <time>2026-08-21T19:02:53Z</time>
      </trkpt>
      <trkpt lat="48.657389" lon="-1.516333">
        <ele>-0.171</ele>
        <time>2026-08-21T19:02:54Z</time>
      </trkpt>
      <trkpt lat="48.657401" lon="-1.516331">
        <ele>-0.119</ele>
        <time>2026-08-21T19:02:55Z</time>
      </trkpt>
      <trkpt lat="48.657414" lon="-1.516330">
        <ele>-0.109</ele>
        <time>2026-08-21T19:02:56Z</time>
      </trkpt>
      <trkpt lat="48.657425" lon="-1.516334">
        <ele>-0.119</ele>
        <time>2026-08-21T19:02:57Z</time>
      </trkpt>
      <trkpt lat="48.657436" lon="-1.516334">
        <ele>-0.109</ele>
        <time>2026-08-21T19:02:58Z</time>
      </trkpt>
      <trkpt lat="48.657449" lon="-1.516337">
        <ele>-0.163</ele>
        <time>2026-08-21T19:02:59Z</time>
      </trkpt>
      <trkpt lat="48.657460" lon="-1.516343">
        <ele>-0.179</ele>
        <time>2026-08-21T19:03:00Z</time>
      </trkpt>
      <trkpt lat="48.657471" lon="-1.516347">
        <ele>-0.112</ele>
        <time>2026-08-21T19:03:02Z</time>
      </trkpt>
      <trkpt lat="48.657480" lon="-1.516350">
        <ele>-0.173</ele>
        <time>2026-08-21T19:03:04Z</time>
      </trkpt>
      <trkpt lat="48.657492" lon="-1.516353">
        <ele>-0.196</ele>
        <time>2026-08-21T19:03:07Z</time>
      </trkpt>
      <trkpt lat="48.657504" lon="-1.516361">
        <ele>-0.193</ele>
        <time>2026-08-21T19:03:09Z</time>
      </trkpt>
      <trkpt lat="48.657518" lon="-1.516363">
        <ele>-0.144</ele>
        <time>2026-08-21T19:03:11Z</time>
      </trkpt>
      <trkpt lat="48.657528" lon="-1.516361">
        <ele>-0.188</ele>
        <time>2026-08-21T19:03:12Z</time>
      </trkpt>
      <trkpt lat="48.657539" lon="-1.516364">
        <ele>0.045</ele>
        <time>2026-08-21T19:03:14Z</time>
      </trkpt>
      <trkpt lat="48.657552" lon="-1.516356">
        <ele>0.044</ele>
        <time>2026-08-21T19:03:16Z</time>
      </trkpt>
      <trkpt lat="48.657566" lon="-1.516359">
        <ele>0.005</ele>
        <time>2026-08-21T19:03:18Z</time>
      </trkpt>
      <trkpt lat="48.657580" lon="-1.516351">
        <ele>0.015</ele>
        <time>2026-08-21T19:03:24Z</time>
      </trkpt>
      <trkpt lat="48.657594" lon="-1.516353">
        <ele>0.009</ele>
        <time>2026-08-21T19:03:26Z</time>
      </trkpt>
      <trkpt lat="48.657608" lon="-1.516358">
        <ele>0.126</ele>
        <time>2026-08-21T19:03:28Z</time>
      </trkpt>
      <trkpt lat="48.657620" lon="-1.516364">
        <ele>0.112</ele>
        <time>2026-08-21T19:03:30Z</time>
      </trkpt>
      <trkpt lat="48.657633" lon="-1.516362">
        <ele>0.145</ele>
        <time>2026-08-21T19:03:32Z</time>
      </trkpt>
      <trkpt lat="48.657642" lon="-1.516357">
        <ele>0.176</ele>
        <time>2026-08-21T19:03:34Z</time>
      </trkpt>
      <trkpt lat="48.657656" lon="-1.516352">
        <ele>0.189</ele>
        <time>2026-08-21T19:03:36Z</time>
      </trkpt>
      <trkpt lat="48.657670" lon="-1.516355">
        <ele>0.166</ele>
        <time>2026-08-21T19:03:39Z</time>
      </trkpt>
      <trkpt lat="48.657681" lon="-1.516358">
        <ele>0.197</ele>
        <time>2026-08-21T19:03:41Z</time>
      </trkpt>
      <trkpt lat="48.657690" lon="-1.516350">
        <ele>0.151</ele>
        <time>2026-08-21T19:03:43Z</time>
      </trkpt>
      <trkpt lat="48.657695" lon="-1.516334">
        <ele>0.118</ele>
        <time>2026-08-21T19:03:45Z</time>
      </trkpt>
      <trkpt lat="48.657705" lon="-1.516331">
        <ele>0.155</ele>
        <time>2026-08-21T19:03:49Z</time>
      </trkpt>
      <trkpt lat="48.657714" lon="-1.516326">
        <ele>0.107</ele>
        <time>2026-08-21T19:03:51Z</time>
      </trkpt>
      <trkpt lat="48.657724" lon="-1.516323">
        <ele>0.117</ele>
        <time>2026-08-21T19:03:52Z</time>
      </trkpt>
      <trkpt lat="48.657738" lon="-1.516319">
        <ele>0.109</ele>
        <time>2026-08-21T19:03:54Z</time>
      </trkpt>
      <trkpt lat="48.657751" lon="-1.516322">
        <ele>0.157</ele>
        <time>2026-08-21T19:03:56Z</time>
      </trkpt>
      <trkpt lat="48.657762" lon="-1.516324">
        <ele>0.083</ele>
        <time>2026-08-21T19:03:58Z</time>
      </trkpt>
      <trkpt lat="48.657773" lon="-1.516324">
        <ele>0.086</ele>
        <time>2026-08-21T19:04:00Z</time>
      </trkpt>
      <trkpt lat="48.657784" lon="-1.516330">
        <ele>0.067</ele>
        <time>2026-08-21T19:04:02Z</time>
      </trkpt>
      <trkpt lat="48.657799" lon="-1.516330">
        <ele>-0.170</ele>
        <time>2026-08-21T19:04:05Z</time>
      </trkpt>
      <trkpt lat="48.657813" lon="-1.516331">
        <ele>-0.147</ele>
        <time>2026-08-21T19:04:07Z</time>
      </trkpt>
      <trkpt lat="48.657822" lon="-1.516335">
        <ele>-0.148</ele>
        <time>2026-08-21T19:04:10Z</time>
      </trkpt>
      <trkpt lat="48.657837" lon="-1.516336">
        <ele>-0.152</ele>
        <time>2026-08-21T19:04:13Z</time>
      </trkpt>
      <trkpt lat="48.657851" lon="-1.516334">
        <ele>-0.139</ele>
        <time>2026-08-21T19:04:15Z</time>
      </trkpt>
      <trkpt lat="48.657859" lon="-1.516338">
        <ele>-0.148</ele>
        <time>2026-08-21T19:04:17Z</time>
      </trkpt>
      <trkpt lat="48.657872" lon="-1.516346">
        <ele>-0.161</ele>
        <time>2026-08-21T19:04:21Z</time>
      </trkpt>
      <trkpt lat="48.657881" lon="-1.516340">
        <ele>-0.217</ele>
        <time>2026-08-21T19:04:23Z</time>
      </trkpt>
      <trkpt lat="48.657893" lon="-1.516348">
        <ele>-0.309</ele>
        <time>2026-08-21T19:04:25Z</time>
      </trkpt>
      <trkpt lat="48.657906" lon="-1.516358">
        <ele>-0.326</ele>
        <time>2026-08-21T19:04:28Z</time>
      </trkpt>
      <trkpt lat="48.657920" lon="-1.516357">
        <ele>-0.442</ele>
        <time>2026-08-21T19:04:30Z</time>
      </trkpt>
      <trkpt lat="48.657931" lon="-1.516359">
        <ele>-0.545</ele>
        <time>2026-08-21T19:04:32Z</time>
      </trkpt>
      <trkpt lat="48.657939" lon="-1.516376">
        <ele>-0.556</ele>
        <time>2026-08-21T19:04:34Z</time>
      </trkpt>
      <trkpt lat="48.657952" lon="-1.516380">
        <ele>-0.549</ele>
        <time>2026-08-21T19:04:36Z</time>
      </trkpt>
      <trkpt lat="48.657967" lon="-1.516381">
        <ele>-0.596</ele>
        <time>2026-08-21T19:04:38Z</time>
      </trkpt>
      <trkpt lat="48.657980" lon="-1.516380">
        <ele>-0.577</ele>
        <time>2026-08-21T19:04:40Z</time>
      </trkpt>
      <trkpt lat="48.657989" lon="-1.516384">
        <ele>-0.591</ele>
        <time>2026-08-21T19:04:42Z</time>
      </trkpt>
      <trkpt lat="48.658005" lon="-1.516388">
        <ele>-0.598</ele>
        <time>2026-08-21T19:04:44Z</time>
      </trkpt>
      <trkpt lat="48.658020" lon="-1.516398">
        <ele>-0.535</ele>
        <time>2026-08-21T19:04:46Z</time>
      </trkpt>
      <trkpt lat="48.658035" lon="-1.516401">
        <ele>-0.586</ele>
        <time>2026-08-21T19:04:49Z</time>
      </trkpt>
      <trkpt lat="48.658055" lon="-1.516399">
        <ele>-0.514</ele>
        <time>2026-08-21T19:05:22Z</time>
      </trkpt>
      <trkpt lat="48.658072" lon="-1.516403">
        <ele>-0.409</ele>
        <time>2026-08-21T19:05:24Z</time>
      </trkpt>
      <trkpt lat="48.658087" lon="-1.516409">
        <ele>-0.215</ele>
        <time>2026-08-21T19:05:26Z</time>
      </trkpt>
      <trkpt lat="48.658099" lon="-1.516414">
        <ele>-0.141</ele>
        <time>2026-08-21T19:05:28Z</time>
      </trkpt>
      <trkpt lat="48.658110" lon="-1.516412">
        <ele>0.024</ele>
        <time>2026-08-21T19:05:30Z</time>
      </trkpt>
      <trkpt lat="48.658122" lon="-1.516409">
        <ele>-0.155</ele>
        <time>2026-08-21T19:05:32Z</time>
      </trkpt>
      <trkpt lat="48.658134" lon="-1.516401">
        <ele>-0.218</ele>
        <time>2026-08-21T19:05:34Z</time>
      </trkpt>
      <trkpt lat="48.658146" lon="-1.516397">
        <ele>-0.285</ele>
        <time>2026-08-21T19:05:36Z</time>
      </trkpt>
      <trkpt lat="48.658160" lon="-1.516384">
        <ele>-0.256</ele>
        <time>2026-08-21T19:05:38Z</time>
      </trkpt>
      <trkpt lat="48.658169" lon="-1.516380">
        <ele>-0.180</ele>
        <time>2026-08-21T19:05:39Z</time>
      </trkpt>
      <trkpt lat="48.658187" lon="-1.516379">
        <ele>0.077</ele>
        <time>2026-08-21T19:05:41Z</time>
      </trkpt>
      <trkpt lat="48.658199" lon="-1.516375">
        <ele>0.085</ele>
        <time>2026-08-21T19:05:42Z</time>
      </trkpt>
      <trkpt lat="48.658210" lon="-1.516371">
        <ele>0.089</ele>
        <time>2026-08-21T19:05:43Z</time>
      </trkpt>
      <trkpt lat="48.658222" lon="-1.516367">
        <ele>0.017</ele>
        <time>2026-08-21T19:05:44Z</time>
      </trkpt>
      <trkpt lat="48.658231" lon="-1.516359">
        <ele>0.009</ele>
        <time>2026-08-21T19:05:45Z</time>
      </trkpt>
      <trkpt lat="48.658243" lon="-1.516356">
        <ele>0.050</ele>
        <time>2026-08-21T19:05:46Z</time>
      </trkpt>
      <trkpt lat="48.658252" lon="-1.516354">
        <ele>0.196</ele>
        <time>2026-08-21T19:05:47Z</time>
      </trkpt>
      <trkpt lat="48.658261" lon="-1.516354">
        <ele>0.169</ele>
        <time>2026-08-21T19:05:48Z</time>
      </trkpt>
      <trkpt lat="48.658279" lon="-1.516348">
        <ele>0.180</ele>
        <time>2026-08-21T19:05:50Z</time>
      </trkpt>
      <trkpt lat="48.658290" lon="-1.516343">
        <ele>0.113</ele>
        <time>2026-08-21T19:05:51Z</time>
      </trkpt>
      <trkpt lat="48.658300" lon="-1.516339">
        <ele>0.170</ele>
        <time>2026-08-21T19:05:52Z</time>
      </trkpt>
      <trkpt lat="48.658309" lon="-1.516333">
        <ele>0.161</ele>
        <time>2026-08-21T19:05:53Z</time>
      </trkpt>
      <trkpt lat="48.658322" lon="-1.516330">
        <ele>0.195</ele>
        <time>2026-08-21T19:05:54Z</time>
      </trkpt>
      <trkpt lat="48.658333" lon="-1.516329">
        <ele>0.212</ele>
        <time>2026-08-21T19:05:55Z</time>
      </trkpt>
      <trkpt lat="48.658345" lon="-1.516332">
        <ele>0.375</ele>
        <time>2026-08-21T19:05:56Z</time>
      </trkpt>
      <trkpt lat="48.658359" lon="-1.516322">
        <ele>0.328</ele>
        <time>2026-08-21T19:05:58Z</time>
      </trkpt>
      <trkpt lat="48.658370" lon="-1.516316">
        <ele>0.320</ele>
        <time>2026-08-21T19:05:59Z</time>
      </trkpt>
      <trkpt lat="48.658379" lon="-1.516308">
        <ele>0.409</ele>
        <time>2026-08-21T19:06:00Z</time>
      </trkpt>
      <trkpt lat="48.658390" lon="-1.516305">
        <ele>0.519</ele>
        <time>2026-08-21T19:06:01Z</time>
      </trkpt>
      <trkpt lat="48.658401" lon="-1.516302">
        <ele>0.665</ele>
        <time>2026-08-21T19:06:02Z</time>
      </trkpt>
      <trkpt lat="48.658411" lon="-1.516297">
        <ele>0.628</ele>
        <time>2026-08-21T19:06:03Z</time>
      </trkpt>
      <trkpt lat="48.658421" lon="-1.516288">
        <ele>0.699</ele>
        <time>2026-08-21T19:06:04Z</time>
      </trkpt>
      <trkpt lat="48.658433" lon="-1.516282">
        <ele>0.752</ele>
        <time>2026-08-21T19:06:05Z</time>
      </trkpt>
      <trkpt lat="48.658443" lon="-1.516278">
        <ele>0.799</ele>
        <time>2026-08-21T19:06:06Z</time>
      </trkpt>
      <trkpt lat="48.658453" lon="-1.516271">
        <ele>0.720</ele>
        <time>2026-08-21T19:06:07Z</time>
      </trkpt>
      <trkpt lat="48.658465" lon="-1.516261">
        <ele>0.764</ele>
        <time>2026-08-21T19:06:08Z</time>
      </trkpt>
      <trkpt lat="48.658477" lon="-1.516248">
        <ele>0.861</ele>
        <time>2026-08-21T19:06:09Z</time>
      </trkpt>
      <trkpt lat="48.658486" lon="-1.516242">
        <ele>0.984</ele>
        <time>2026-08-21T19:06:10Z</time>
      </trkpt>
      <trkpt lat="48.658498" lon="-1.516237">
        <ele>0.907</ele>
        <time>2026-08-21T19:06:11Z</time>
      </trkpt>
      <trkpt lat="48.658508" lon="-1.516232">
        <ele>1.017</ele>
        <time>2026-08-21T19:06:12Z</time>
      </trkpt>
      <trkpt lat="48.658518" lon="-1.516232">
        <ele>1.009</ele>
        <time>2026-08-21T19:06:13Z</time>
      </trkpt>
      <trkpt lat="48.658528" lon="-1.516230">
        <ele>1.090</ele>
        <time>2026-08-21T19:06:14Z</time>
      </trkpt>
      <trkpt lat="48.658537" lon="-1.516228">
        <ele>1.176</ele>
        <time>2026-08-21T19:06:15Z</time>
      </trkpt>
      <trkpt lat="48.658548" lon="-1.516229">
        <ele>1.379</ele>
        <time>2026-08-21T19:06:16Z</time>
      </trkpt>
      <trkpt lat="48.658561" lon="-1.516227">
        <ele>1.580</ele>
        <time>2026-08-21T19:06:17Z</time>
      </trkpt>
      <trkpt lat="48.658573" lon="-1.516222">
        <ele>1.543</ele>
        <time>2026-08-21T19:06:18Z</time>
      </trkpt>
      <trkpt lat="48.658584" lon="-1.516216">
        <ele>1.590</ele>
        <time>2026-08-21T19:06:19Z</time>
      </trkpt>
      <trkpt lat="48.658595" lon="-1.516214">
        <ele>1.521</ele>
        <time>2026-08-21T19:06:20Z</time>
      </trkpt>
      <trkpt lat="48.658607" lon="-1.516209">
        <ele>1.535</ele>
        <time>2026-08-21T19:06:21Z</time>
      </trkpt>
      <trkpt lat="48.658619" lon="-1.516205">
        <ele>1.672</ele>
        <time>2026-08-21T19:06:22Z</time>
      </trkpt>
      <trkpt lat="48.658631" lon="-1.516207">
        <ele>1.698</ele>
        <time>2026-08-21T19:06:23Z</time>
      </trkpt>
      <trkpt lat="48.658641" lon="-1.516203">
        <ele>1.615</ele>
        <time>2026-08-21T19:06:24Z</time>
      </trkpt>
      <trkpt lat="48.658650" lon="-1.516198">
        <ele>1.626</ele>
        <time>2026-08-21T19:06:25Z</time>
      </trkpt>
      <trkpt lat="48.658661" lon="-1.516196">
        <ele>1.609</ele>
        <time>2026-08-21T19:06:26Z</time>
      </trkpt>
      <trkpt lat="48.658671" lon="-1.516193">
        <ele>1.691</ele>
        <time>2026-08-21T19:06:27Z</time>
      </trkpt>
      <trkpt lat="48.658682" lon="-1.516190">
        <ele>1.617</ele>
        <time>2026-08-21T19:06:28Z</time>
      </trkpt>
      <trkpt lat="48.658696" lon="-1.516181">
        <ele>1.720</ele>
        <time>2026-08-21T19:06:29Z</time>
      </trkpt>
      <trkpt lat="48.658710" lon="-1.516178">
        <ele>1.721</ele>
        <time>2026-08-21T19:06:30Z</time>
      </trkpt>
      <trkpt lat="48.658720" lon="-1.516180">
        <ele>1.724</ele>
        <time>2026-08-21T19:06:31Z</time>
      </trkpt>
      <trkpt lat="48.658734" lon="-1.516178">
        <ele>1.761</ele>
        <time>2026-08-21T19:06:32Z</time>
      </trkpt>
      <trkpt lat="48.658746" lon="-1.516176">
        <ele>1.782</ele>
        <time>2026-08-21T19:06:33Z</time>
      </trkpt>
      <trkpt lat="48.658758" lon="-1.516174">
        <ele>1.786</ele>
        <time>2026-08-21T19:06:34Z</time>
      </trkpt>
      <trkpt lat="48.658770" lon="-1.516168">
        <ele>1.743</ele>
        <time>2026-08-21T19:06:35Z</time>
      </trkpt>
      <trkpt lat="48.658783" lon="-1.516164">
        <ele>1.771</ele>
        <time>2026-08-21T19:06:36Z</time>
      </trkpt>
      <trkpt lat="48.658793" lon="-1.516163">
        <ele>1.741</ele>
        <time>2026-08-21T19:06:37Z</time>
      </trkpt>
      <trkpt lat="48.658802" lon="-1.516165">
        <ele>1.715</ele>
        <time>2026-08-21T19:06:38Z</time>
      </trkpt>
      <trkpt lat="48.658813" lon="-1.516165">
        <ele>1.709</ele>
        <time>2026-08-21T19:06:39Z</time>
      </trkpt>
      <trkpt lat="48.658826" lon="-1.516160">
        <ele>1.799</ele>
        <time>2026-08-21T19:06:40Z</time>
      </trkpt>
      <trkpt lat="48.658835" lon="-1.516157">
        <ele>1.715</ele>
        <time>2026-08-21T19:06:41Z</time>
      </trkpt>
      <trkpt lat="48.658849" lon="-1.516155">
        <ele>1.798</ele>
        <time>2026-08-21T19:06:42Z</time>
      </trkpt>
      <trkpt lat="48.658862" lon="-1.516154">
        <ele>1.799</ele>
        <time>2026-08-21T19:06:43Z</time>
      </trkpt>
      <trkpt lat="48.658874" lon="-1.516153">
        <ele>1.782</ele>
        <time>2026-08-21T19:06:44Z</time>
      </trkpt>
      <trkpt lat="48.658884" lon="-1.516153">
        <ele>1.739</ele>
        <time>2026-08-21T19:06:45Z</time>
      </trkpt>
      <trkpt lat="48.658896" lon="-1.516148">
        <ele>1.730</ele>
        <time>2026-08-21T19:06:46Z</time>
      </trkpt>
      <trkpt lat="48.658906" lon="-1.516145">
        <ele>1.794</ele>
        <time>2026-08-21T19:06:47Z</time>
      </trkpt>
      <trkpt lat="48.658919" lon="-1.516144">
        <ele>1.721</ele>
        <time>2026-08-21T19:06:48Z</time>
      </trkpt>
      <trkpt lat="48.658930" lon="-1.516142">
        <ele>1.723</ele>
        <time>2026-08-21T19:06:49Z</time>
      </trkpt>
      <trkpt lat="48.658942" lon="-1.516135">
        <ele>1.783</ele>
        <time>2026-08-21T19:06:50Z</time>
      </trkpt>
      <trkpt lat="48.658954" lon="-1.516131">
        <ele>1.611</ele>
        <time>2026-08-21T19:06:51Z</time>
      </trkpt>
      <trkpt lat="48.658965" lon="-1.516132">
        <ele>1.609</ele>
        <time>2026-08-21T19:06:52Z</time>
      </trkpt>
      <trkpt lat="48.658978" lon="-1.516134">
        <ele>1.624</ele>
        <time>2026-08-21T19:06:53Z</time>
      </trkpt>
      <trkpt lat="48.658989" lon="-1.516136">
        <ele>1.650</ele>
        <time>2026-08-21T19:06:54Z</time>
      </trkpt>
      <trkpt lat="48.659001" lon="-1.516133">
        <ele>1.643</ele>
        <time>2026-08-21T19:06:55Z</time>
      </trkpt>
      <trkpt lat="48.659012" lon="-1.516130">
        <ele>1.654</ele>
        <time>2026-08-21T19:06:56Z</time>
      </trkpt>
      <trkpt lat="48.659025" lon="-1.516129">
        <ele>1.657</ele>
        <time>2026-08-21T19:06:57Z</time>
      </trkpt>
      <trkpt lat="48.659038" lon="-1.516130">
        <ele>1.634</ele>
        <time>2026-08-21T19:06:58Z</time>
      </trkpt>
      <trkpt lat="48.659056" lon="-1.516127">
        <ele>1.635</ele>
        <time>2026-08-21T19:07:00Z</time>
      </trkpt>
      <trkpt lat="48.659067" lon="-1.516124">
        <ele>1.629</ele>
        <time>2026-08-21T19:07:01Z</time>
      </trkpt>
      <trkpt lat="48.659082" lon="-1.516124">
        <ele>1.686</ele>
        <time>2026-08-21T19:07:02Z</time>
      </trkpt>
      <trkpt lat="48.659096" lon="-1.516125">
        <ele>1.644</ele>
        <time>2026-08-21T19:07:03Z</time>
      </trkpt>
      <trkpt lat="48.659108" lon="-1.516124">
        <ele>1.605</ele>
        <time>2026-08-21T19:07:04Z</time>
      </trkpt>
      <trkpt lat="48.659118" lon="-1.516126">
        <ele>1.515</ele>
        <time>2026-08-21T19:07:05Z</time>
      </trkpt>
      <trkpt lat="48.659137" lon="-1.516119">
        <ele>1.509</ele>
        <time>2026-08-21T19:07:07Z</time>
      </trkpt>
      <trkpt lat="48.659148" lon="-1.516116">
        <ele>1.436</ele>
        <time>2026-08-21T19:07:08Z</time>
      </trkpt>
      <trkpt lat="48.659158" lon="-1.516112">
        <ele>1.492</ele>
        <time>2026-08-21T19:07:09Z</time>
      </trkpt>
      <trkpt lat="48.659167" lon="-1.516110">
        <ele>1.375</ele>
        <time>2026-08-21T19:07:10Z</time>
      </trkpt>
      <trkpt lat="48.659176" lon="-1.516113">
        <ele>1.226</ele>
        <time>2026-08-21T19:07:11Z</time>
      </trkpt>
      <trkpt lat="48.659193" lon="-1.516116">
        <ele>1.229</ele>
        <time>2026-08-21T19:07:13Z</time>
      </trkpt>
      <trkpt lat="48.659203" lon="-1.516114">
        <ele>1.166</ele>
        <time>2026-08-21T19:07:14Z</time>
      </trkpt>
      <trkpt lat="48.659216" lon="-1.516114">
        <ele>1.137</ele>
        <time>2026-08-21T19:07:15Z</time>
      </trkpt>
      <trkpt lat="48.659232" lon="-1.516119">
        <ele>1.191</ele>
        <time>2026-08-21T19:07:16Z</time>
      </trkpt>
      <trkpt lat="48.659246" lon="-1.516124">
        <ele>1.198</ele>
        <time>2026-08-21T19:07:17Z</time>
      </trkpt>
      <trkpt lat="48.659259" lon="-1.516117">
        <ele>1.125</ele>
        <time>2026-08-21T19:07:18Z</time>
      </trkpt>
      <trkpt lat="48.659278" lon="-1.516111">
        <ele>1.026</ele>
        <time>2026-08-21T19:07:19Z</time>
      </trkpt>
      <trkpt lat="48.659297" lon="-1.516107">
        <ele>1.008</ele>
        <time>2026-08-21T19:07:20Z</time>
      </trkpt>
      <trkpt lat="48.659321" lon="-1.516106">
        <ele>0.909</ele>
        <time>2026-08-21T19:07:21Z</time>
      </trkpt>
      <trkpt lat="48.659346" lon="-1.516109">
        <ele>0.924</ele>
        <time>2026-08-21T19:07:22Z</time>
      </trkpt>
      <trkpt lat="48.659371" lon="-1.516114">
        <ele>0.860</ele>
        <time>2026-08-21T19:07:23Z</time>
      </trkpt>
      <trkpt lat="48.659396" lon="-1.516114">
        <ele>0.793</ele>
        <time>2026-08-21T19:07:24Z</time>
      </trkpt>
      <trkpt lat="48.659420" lon="-1.516112">
        <ele>0.694</ele>
        <time>2026-08-21T19:07:25Z</time>
      </trkpt>
      <trkpt lat="48.659442" lon="-1.516107">
        <ele>0.557</ele>
        <time>2026-08-21T19:07:26Z</time>
      </trkpt>
      <trkpt lat="48.659463" lon="-1.516105">
        <ele>0.514</ele>
        <time>2026-08-21T19:07:27Z</time>
      </trkpt>
      <trkpt lat="48.659484" lon="-1.516102">
        <ele>0.515</ele>
        <time>2026-08-21T19:07:28Z</time>
      </trkpt>
      <trkpt lat="48.659504" lon="-1.516104">
        <ele>0.429</ele>
        <time>2026-08-21T19:07:29Z</time>
      </trkpt>
      <trkpt lat="48.659521" lon="-1.516105">
        <ele>0.436</ele>
        <time>2026-08-21T19:07:30Z</time>
      </trkpt>
      <trkpt lat="48.659540" lon="-1.516102">
        <ele>0.487</ele>
        <time>2026-08-21T19:07:31Z</time>
      </trkpt>
      <trkpt lat="48.659560" lon="-1.516097">
        <ele>0.442</ele>
        <time>2026-08-21T19:07:32Z</time>
      </trkpt>
      <trkpt lat="48.659577" lon="-1.516095">
        <ele>0.426</ele>
        <time>2026-08-21T19:07:33Z</time>
      </trkpt>
      <trkpt lat="48.659591" lon="-1.516094">
        <ele>0.409</ele>
        <time>2026-08-21T19:07:34Z</time>
      </trkpt>
      <trkpt lat="48.659603" lon="-1.516093">
        <ele>0.470</ele>
        <time>2026-08-21T19:07:35Z</time>
      </trkpt>
      <trkpt lat="48.659613" lon="-1.516095">
        <ele>0.416</ele>
        <time>2026-08-21T19:07:36Z</time>
      </trkpt>
      <trkpt lat="48.659622" lon="-1.516093">
        <ele>0.499</ele>
        <time>2026-08-21T19:07:37Z</time>
      </trkpt>
      <trkpt lat="48.659633" lon="-1.516096">
        <ele>0.420</ele>
        <time>2026-08-21T19:07:38Z</time>
      </trkpt>
      <trkpt lat="48.659645" lon="-1.516100">
        <ele>0.473</ele>
        <time>2026-08-21T19:07:39Z</time>
      </trkpt>
      <trkpt lat="48.659655" lon="-1.516099">
        <ele>0.420</ele>
        <time>2026-08-21T19:07:40Z</time>
      </trkpt>
      <trkpt lat="48.659666" lon="-1.516095">
        <ele>0.421</ele>
        <time>2026-08-21T19:07:41Z</time>
      </trkpt>
      <trkpt lat="48.659677" lon="-1.516090">
        <ele>0.485</ele>
        <time>2026-08-21T19:07:42Z</time>
      </trkpt>
      <trkpt lat="48.659691" lon="-1.516085">
        <ele>0.442</ele>
        <time>2026-08-21T19:07:43Z</time>
      </trkpt>
      <trkpt lat="48.659705" lon="-1.516082">
        <ele>0.497</ele>
        <time>2026-08-21T19:07:44Z</time>
      </trkpt>
      <trkpt lat="48.659718" lon="-1.516086">
        <ele>0.423</ele>
        <time>2026-08-21T19:07:45Z</time>
      </trkpt>
      <trkpt lat="48.659730" lon="-1.516090">
        <ele>0.425</ele>
        <time>2026-08-21T19:07:46Z</time>
      </trkpt>
      <trkpt lat="48.659739" lon="-1.516091">
        <ele>0.309</ele>
        <time>2026-08-21T19:07:47Z</time>
      </trkpt>
      <trkpt lat="48.659749" lon="-1.516086">
        <ele>0.311</ele>
        <time>2026-08-21T19:07:48Z</time>
      </trkpt>
      <trkpt lat="48.659763" lon="-1.516084">
        <ele>0.327</ele>
        <time>2026-08-21T19:07:49Z</time>
      </trkpt>
      <trkpt lat="48.659775" lon="-1.516081">
        <ele>0.320</ele>
        <time>2026-08-21T19:07:50Z</time>
      </trkpt>
      <trkpt lat="48.659788" lon="-1.516078">
        <ele>0.351</ele>
        <time>2026-08-21T19:07:51Z</time>
      </trkpt>
      <trkpt lat="48.659801" lon="-1.516083">
        <ele>0.384</ele>
        <time>2026-08-21T19:07:52Z</time>
      </trkpt>
      <trkpt lat="48.659813" lon="-1.516085">
        <ele>0.391</ele>
        <time>2026-08-21T19:07:53Z</time>
      </trkpt>
      <trkpt lat="48.659823" lon="-1.516082">
        <ele>0.372</ele>
        <time>2026-08-21T19:07:54Z</time>
      </trkpt>
      <trkpt lat="48.659835" lon="-1.516081">
        <ele>0.396</ele>
        <time>2026-08-21T19:07:55Z</time>
      </trkpt>
      <trkpt lat="48.659850" lon="-1.516076">
        <ele>0.473</ele>
        <time>2026-08-21T19:07:56Z</time>
      </trkpt>
      <trkpt lat="48.659862" lon="-1.516074">
        <ele>0.589</ele>
        <time>2026-08-21T19:07:57Z</time>
      </trkpt>
      <trkpt lat="48.659872" lon="-1.516076">
        <ele>0.606</ele>
        <time>2026-08-21T19:07:58Z</time>
      </trkpt>
      <trkpt lat="48.659881" lon="-1.516077">
        <ele>0.626</ele>
        <time>2026-08-21T19:07:59Z</time>
      </trkpt>
      <trkpt lat="48.659894" lon="-1.516079">
        <ele>0.709</ele>
        <time>2026-08-21T19:08:00Z</time>
      </trkpt>
      <trkpt lat="48.659907" lon="-1.516075">
        <ele>0.620</ele>
        <time>2026-08-21T19:08:01Z</time>
      </trkpt>
      <trkpt lat="48.659921" lon="-1.516067">
        <ele>0.636</ele>
        <time>2026-08-21T19:08:02Z</time>
      </trkpt>
      <trkpt lat="48.659935" lon="-1.516061">
        <ele>0.639</ele>
        <time>2026-08-21T19:08:03Z</time>
      </trkpt>
      <trkpt lat="48.659950" lon="-1.516058">
        <ele>0.660</ele>
        <time>2026-08-21T19:08:04Z</time>
      </trkpt>
      <trkpt lat="48.659964" lon="-1.516055">
        <ele>0.613</ele>
        <time>2026-08-21T19:08:05Z</time>
      </trkpt>
      <trkpt lat="48.659976" lon="-1.516055">
        <ele>0.670</ele>
        <time>2026-08-21T19:08:06Z</time>
      </trkpt>
      <trkpt lat="48.659987" lon="-1.516054">
        <ele>0.631</ele>
        <time>2026-08-21T19:08:07Z</time>
      </trkpt>
      <trkpt lat="48.659999" lon="-1.516048">
        <ele>0.645</ele>
        <time>2026-08-21T19:08:08Z</time>
      </trkpt>
      <trkpt lat="48.660013" lon="-1.516043">
        <ele>0.632</ele>
        <time>2026-08-21T19:08:09Z</time>
      </trkpt>
      <trkpt lat="48.660028" lon="-1.516039">
        <ele>0.623</ele>
        <time>2026-08-21T19:08:10Z</time>
      </trkpt>
      <trkpt lat="48.660044" lon="-1.516035">
        <ele>0.683</ele>
        <time>2026-08-21T19:08:11Z</time>
      </trkpt>
      <trkpt lat="48.660059" lon="-1.516035">
        <ele>0.711</ele>
        <time>2026-08-21T19:08:12Z</time>
      </trkpt>
      <trkpt lat="48.660071" lon="-1.516031">
        <ele>0.709</ele>
        <time>2026-08-21T19:08:13Z</time>
      </trkpt>
      <trkpt lat="48.660083" lon="-1.516029">
        <ele>0.774</ele>
        <time>2026-08-21T19:08:14Z</time>
      </trkpt>
      <trkpt lat="48.660095" lon="-1.516027">
        <ele>0.720</ele>
        <time>2026-08-21T19:08:15Z</time>
      </trkpt>
      <trkpt lat="48.660107" lon="-1.516024">
        <ele>0.793</ele>
        <time>2026-08-21T19:08:16Z</time>
      </trkpt>
      <trkpt lat="48.660121" lon="-1.516020">
        <ele>0.744</ele>
        <time>2026-08-21T19:08:17Z</time>
      </trkpt>
      <trkpt lat="48.660135" lon="-1.516017">
        <ele>0.797</ele>
        <time>2026-08-21T19:08:18Z</time>
      </trkpt>
      <trkpt lat="48.660144" lon="-1.516012">
        <ele>0.724</ele>
        <time>2026-08-21T19:08:19Z</time>
      </trkpt>
      <trkpt lat="48.660156" lon="-1.516002">
        <ele>0.785</ele>
        <time>2026-08-21T19:08:20Z</time>
      </trkpt>
      <trkpt lat="48.660166" lon="-1.515998">
        <ele>0.889</ele>
        <time>2026-08-21T19:08:21Z</time>
      </trkpt>
      <trkpt lat="48.660178" lon="-1.515996">
        <ele>0.846</ele>
        <time>2026-08-21T19:08:22Z</time>
      </trkpt>
      <trkpt lat="48.660191" lon="-1.515994">
        <ele>0.853</ele>
        <time>2026-08-21T19:08:23Z</time>
      </trkpt>
      <trkpt lat="48.660204" lon="-1.515987">
        <ele>0.804</ele>
        <time>2026-08-21T19:08:24Z</time>
      </trkpt>
      <trkpt lat="48.660221" lon="-1.515976">
        <ele>0.814</ele>
        <time>2026-08-21T19:08:25Z</time>
      </trkpt>
      <trkpt lat="48.660236" lon="-1.515974">
        <ele>0.809</ele>
        <time>2026-08-21T19:08:26Z</time>
      </trkpt>
      <trkpt lat="48.660250" lon="-1.515970">
        <ele>0.887</ele>
        <time>2026-08-21T19:08:27Z</time>
      </trkpt>
      <trkpt lat="48.660264" lon="-1.515965">
        <ele>0.813</ele>
        <time>2026-08-21T19:08:28Z</time>
      </trkpt>
      <trkpt lat="48.660277" lon="-1.515962">
        <ele>0.796</ele>
        <time>2026-08-21T19:08:30Z</time>
      </trkpt>
      <trkpt lat="48.660288" lon="-1.515959">
        <ele>0.767</ele>
        <time>2026-08-21T19:08:31Z</time>
      </trkpt>
      <trkpt lat="48.660300" lon="-1.515958">
        <ele>0.770</ele>
        <time>2026-08-21T19:08:32Z</time>
      </trkpt>
      <trkpt lat="48.660316" lon="-1.515952">
        <ele>0.797</ele>
        <time>2026-08-21T19:08:33Z</time>
      </trkpt>
      <trkpt lat="48.660331" lon="-1.515947">
        <ele>0.778</ele>
        <time>2026-08-21T19:08:34Z</time>
      </trkpt>
      <trkpt lat="48.660344" lon="-1.515944">
        <ele>0.752</ele>
        <time>2026-08-21T19:08:35Z</time>
      </trkpt>
      <trkpt lat="48.660356" lon="-1.515937">
        <ele>0.729</ele>
        <time>2026-08-21T19:08:36Z</time>
      </trkpt>
      <trkpt lat="48.660369" lon="-1.515930">
        <ele>0.768</ele>
        <time>2026-08-21T19:08:37Z</time>
      </trkpt>
      <trkpt lat="48.660382" lon="-1.515923">
        <ele>0.742</ele>
        <time>2026-08-21T19:08:38Z</time>
      </trkpt>
      <trkpt lat="48.660395" lon="-1.515915">
        <ele>0.626</ele>
        <time>2026-08-21T19:08:39Z</time>
      </trkpt>
      <trkpt lat="48.660412" lon="-1.515907">
        <ele>0.609</ele>
        <time>2026-08-21T19:08:40Z</time>
      </trkpt>
      <trkpt lat="48.660424" lon="-1.515904">
        <ele>0.658</ele>
        <time>2026-08-21T19:08:41Z</time>
      </trkpt>
      <trkpt lat="48.660438" lon="-1.515905">
        <ele>0.584</ele>
        <time>2026-08-21T19:08:42Z</time>
      </trkpt>
      <trkpt lat="48.660457" lon="-1.515906">
        <ele>0.587</ele>
        <time>2026-08-21T19:08:44Z</time>
      </trkpt>
      <trkpt lat="48.660470" lon="-1.515898">
        <ele>0.548</ele>
        <time>2026-08-21T19:08:45Z</time>
      </trkpt>
      <trkpt lat="48.660484" lon="-1.515887">
        <ele>0.511</ele>
        <time>2026-08-21T19:08:46Z</time>
      </trkpt>
      <trkpt lat="48.660499" lon="-1.515880">
        <ele>0.538</ele>
        <time>2026-08-21T19:08:47Z</time>
      </trkpt>
      <trkpt lat="48.660515" lon="-1.515875">
        <ele>0.519</ele>
        <time>2026-08-21T19:08:48Z</time>
      </trkpt>
      <trkpt lat="48.660529" lon="-1.515876">
        <ele>0.553</ele>
        <time>2026-08-21T19:08:49Z</time>
      </trkpt>
      <trkpt lat="48.660542" lon="-1.515876">
        <ele>0.560</ele>
        <time>2026-08-21T19:08:50Z</time>
      </trkpt>
      <trkpt lat="48.660555" lon="-1.515878">
        <ele>0.649</ele>
        <time>2026-08-21T19:08:51Z</time>
      </trkpt>
      <trkpt lat="48.660568" lon="-1.515876">
        <ele>0.602</ele>
        <time>2026-08-21T19:08:52Z</time>
      </trkpt>
      <trkpt lat="48.660580" lon="-1.515872">
        <ele>0.622</ele>
        <time>2026-08-21T19:08:53Z</time>
      </trkpt>
      <trkpt lat="48.660592" lon="-1.515865">
        <ele>0.609</ele>
        <time>2026-08-21T19:08:54Z</time>
      </trkpt>
      <trkpt lat="48.660605" lon="-1.515856">
        <ele>0.676</ele>
        <time>2026-08-21T19:08:55Z</time>
      </trkpt>
      <trkpt lat="48.660618" lon="-1.515847">
        <ele>0.682</ele>
        <time>2026-08-21T19:08:56Z</time>
      </trkpt>
      <trkpt lat="48.660630" lon="-1.515841">
        <ele>0.785</ele>
        <time>2026-08-21T19:08:57Z</time>
      </trkpt>
      <trkpt lat="48.660641" lon="-1.515837">
        <ele>0.876</ele>
        <time>2026-08-21T19:08:58Z</time>
      </trkpt>
      <trkpt lat="48.660653" lon="-1.515831">
        <ele>0.939</ele>
        <time>2026-08-21T19:08:59Z</time>
      </trkpt>
      <trkpt lat="48.660666" lon="-1.515827">
        <ele>1.046</ele>
        <time>2026-08-21T19:09:00Z</time>
      </trkpt>
      <trkpt lat="48.660675" lon="-1.515823">
        <ele>1.037</ele>
        <time>2026-08-21T19:09:01Z</time>
      </trkpt>
      <trkpt lat="48.660686" lon="-1.515818">
        <ele>1.091</ele>
        <time>2026-08-21T19:09:02Z</time>
      </trkpt>
      <trkpt lat="48.660698" lon="-1.515812">
        <ele>1.028</ele>
        <time>2026-08-21T19:09:03Z</time>
      </trkpt>
      <trkpt lat="48.660709" lon="-1.515808">
        <ele>1.036</ele>
        <time>2026-08-21T19:09:04Z</time>
      </trkpt>
      <trkpt lat="48.660718" lon="-1.515802">
        <ele>1.017</ele>
        <time>2026-08-21T19:09:05Z</time>
      </trkpt>
      <trkpt lat="48.660729" lon="-1.515794">
        <ele>1.018</ele>
        <time>2026-08-21T19:09:06Z</time>
      </trkpt>
      <trkpt lat="48.660739" lon="-1.515784">
        <ele>1.009</ele>
        <time>2026-08-21T19:09:07Z</time>
      </trkpt>
      <trkpt lat="48.660750" lon="-1.515774">
        <ele>1.035</ele>
        <time>2026-08-21T19:09:08Z</time>
      </trkpt>
      <trkpt lat="48.660763" lon="-1.515768">
        <ele>1.051</ele>
        <time>2026-08-21T19:09:09Z</time>
      </trkpt>
      <trkpt lat="48.660776" lon="-1.515763">
        <ele>1.084</ele>
        <time>2026-08-21T19:09:10Z</time>
      </trkpt>
      <trkpt lat="48.660789" lon="-1.515758">
        <ele>1.045</ele>
        <time>2026-08-21T19:09:11Z</time>
      </trkpt>
      <trkpt lat="48.660799" lon="-1.515750">
        <ele>1.038</ele>
        <time>2026-08-21T19:09:12Z</time>
      </trkpt>
      <trkpt lat="48.660810" lon="-1.515741">
        <ele>1.035</ele>
        <time>2026-08-21T19:09:13Z</time>
      </trkpt>
      <trkpt lat="48.660822" lon="-1.515737">
        <ele>1.016</ele>
        <time>2026-08-21T19:09:14Z</time>
      </trkpt>
      <trkpt lat="48.660833" lon="-1.515735">
        <ele>1.090</ele>
        <time>2026-08-21T19:09:15Z</time>
      </trkpt>
      <trkpt lat="48.660843" lon="-1.515730">
        <ele>1.027</ele>
        <time>2026-08-21T19:09:16Z</time>
      </trkpt>
      <trkpt lat="48.660853" lon="-1.515724">
        <ele>1.025</ele>
        <time>2026-08-21T19:09:17Z</time>
      </trkpt>
      <trkpt lat="48.660864" lon="-1.515716">
        <ele>1.026</ele>
        <time>2026-08-21T19:09:18Z</time>
      </trkpt>
      <trkpt lat="48.660876" lon="-1.515709">
        <ele>1.008</ele>
        <time>2026-08-21T19:09:19Z</time>
      </trkpt>
      <trkpt lat="48.660885" lon="-1.515704">
        <ele>1.009</ele>
        <time>2026-08-21T19:09:20Z</time>
      </trkpt>
      <trkpt lat="48.660899" lon="-1.515692">
        <ele>0.954</ele>
        <time>2026-08-21T19:09:22Z</time>
      </trkpt>
      <trkpt lat="48.660906" lon="-1.515682">
        <ele>0.980</ele>
        <time>2026-08-21T19:09:23Z</time>
      </trkpt>
      <trkpt lat="48.660914" lon="-1.515672">
        <ele>0.993</ele>
        <time>2026-08-21T19:09:24Z</time>
      </trkpt>
      <trkpt lat="48.660922" lon="-1.515665">
        <ele>0.984</ele>
        <time>2026-08-21T19:09:25Z</time>
      </trkpt>
      <trkpt lat="48.660933" lon="-1.515661">
        <ele>0.937</ele>
        <time>2026-08-21T19:09:26Z</time>
      </trkpt>
      <trkpt lat="48.660943" lon="-1.515665">
        <ele>0.874</ele>
        <time>2026-08-21T19:09:27Z</time>
      </trkpt>
      <trkpt lat="48.660953" lon="-1.515668">
        <ele>0.825</ele>
        <time>2026-08-21T19:09:28Z</time>
      </trkpt>
      <trkpt lat="48.660964" lon="-1.515663">
        <ele>0.869</ele>
        <time>2026-08-21T19:09:29Z</time>
      </trkpt>
      <trkpt lat="48.660976" lon="-1.515659">
        <ele>0.746</ele>
        <time>2026-08-21T19:09:30Z</time>
      </trkpt>
      <trkpt lat="48.660984" lon="-1.515646">
        <ele>0.736</ele>
        <time>2026-08-21T19:09:31Z</time>
      </trkpt>
      <trkpt lat="48.660991" lon="-1.515631">
        <ele>0.717</ele>
        <time>2026-08-21T19:09:32Z</time>
      </trkpt>
      <trkpt lat="48.660998" lon="-1.515621">
        <ele>0.718</ele>
        <time>2026-08-21T19:09:33Z</time>
      </trkpt>
      <trkpt lat="48.661013" lon="-1.515609">
        <ele>0.709</ele>
        <time>2026-08-21T19:09:35Z</time>
      </trkpt>
      <trkpt lat="48.661024" lon="-1.515608">
        <ele>0.775</ele>
        <time>2026-08-21T19:09:36Z</time>
      </trkpt>
      <trkpt lat="48.661031" lon="-1.515617">
        <ele>0.781</ele>
        <time>2026-08-21T19:09:41Z</time>
      </trkpt>
      <trkpt lat="48.661023" lon="-1.515597">
        <ele>0.794</ele>
        <time>2026-08-21T19:10:03Z</time>
      </trkpt>
      <trkpt lat="48.661031" lon="-1.515581">
        <ele>0.725</ele>
        <time>2026-08-21T19:10:17Z</time>
      </trkpt>
      <trkpt lat="48.661035" lon="-1.515568">
        <ele>0.778</ele>
        <time>2026-08-21T19:10:19Z</time>
      </trkpt>
      <trkpt lat="48.661042" lon="-1.515544">
        <ele>0.755</ele>
        <time>2026-08-21T19:10:21Z</time>
      </trkpt>
      <trkpt lat="48.661049" lon="-1.515535">
        <ele>0.776</ele>
        <time>2026-08-21T19:10:22Z</time>
      </trkpt>
      <trkpt lat="48.661059" lon="-1.515530">
        <ele>0.840</ele>
        <time>2026-08-21T19:10:25Z</time>
      </trkpt>
      <trkpt lat="48.661045" lon="-1.515528">
        <ele>0.827</ele>
        <time>2026-08-21T19:10:32Z</time>
      </trkpt>
      <trkpt lat="48.661035" lon="-1.515526">
        <ele>0.877</ele>
        <time>2026-08-21T19:10:34Z</time>
      </trkpt>
      <trkpt lat="48.661020" lon="-1.515516">
        <ele>0.761</ele>
        <time>2026-08-21T19:10:36Z</time>
      </trkpt>
      <trkpt lat="48.661011" lon="-1.515509">
        <ele>0.627</ele>
        <time>2026-08-21T19:10:38Z</time>
      </trkpt>
      <trkpt lat="48.661001" lon="-1.515507">
        <ele>0.609</ele>
        <time>2026-08-21T19:10:40Z</time>
      </trkpt>
      <trkpt lat="48.660992" lon="-1.515499">
        <ele>0.689</ele>
        <time>2026-08-21T19:10:42Z</time>
      </trkpt>
      <trkpt lat="48.660983" lon="-1.515505">
        <ele>0.665</ele>
        <time>2026-08-21T19:10:44Z</time>
      </trkpt>
      <trkpt lat="48.660985" lon="-1.515524">
        <ele>0.638</ele>
        <time>2026-08-21T19:11:09Z</time>
      </trkpt>
      <trkpt lat="48.660985" lon="-1.515544">
        <ele>0.649</ele>
        <time>2026-08-21T19:11:11Z</time>
      </trkpt>
      <trkpt lat="48.660987" lon="-1.515566">
        <ele>0.692</ele>
        <time>2026-08-21T19:11:13Z</time>
      </trkpt>
      <trkpt lat="48.660987" lon="-1.515585">
        <ele>0.669</ele>
        <time>2026-08-21T19:11:15Z</time>
      </trkpt>
      <trkpt lat="48.660976" lon="-1.515589">
        <ele>0.660</ele>
        <time>2026-08-21T19:11:21Z</time>
      </trkpt>
      <trkpt lat="48.660966" lon="-1.515593">
        <ele>0.674</ele>
        <time>2026-08-21T19:11:23Z</time>
      </trkpt>
      <trkpt lat="48.660951" lon="-1.515605">
        <ele>0.631</ele>
        <time>2026-08-21T19:11:26Z</time>
      </trkpt>
      <trkpt lat="48.660943" lon="-1.515613">
        <ele>0.614</ele>
        <time>2026-08-21T19:11:27Z</time>
      </trkpt>
      <trkpt lat="48.660932" lon="-1.515621">
        <ele>0.654</ele>
        <time>2026-08-21T19:11:31Z</time>
      </trkpt>
      <trkpt lat="48.660923" lon="-1.515616">
        <ele>0.609</ele>
        <time>2026-08-21T19:11:34Z</time>
      </trkpt>
      <trkpt lat="48.660931" lon="-1.515611">
        <ele>0.609</ele>
        <time>2026-08-21T19:11:38Z</time>
      </trkpt>
      <trkpt lat="48.660925" lon="-1.515599">
        <ele>-0.723</ele>
        <time>2026-08-21T19:12:23Z</time>
      </trkpt>
      <trkpt lat="48.660934" lon="-1.515602">
        <ele>-0.459</ele>
        <time>2026-08-21T19:13:01Z</time>
      </trkpt>
      <trkpt lat="48.660945" lon="-1.515606">
        <ele>1.472</ele>
        <time>2026-08-21T19:15:04Z</time>
      </trkpt>
      <trkpt lat="48.660935" lon="-1.515598">
        <ele>1.243</ele>
        <time>2026-08-21T19:15:50Z</time>
      </trkpt>
      <trkpt lat="48.660944" lon="-1.515601">
        <ele>0.996</ele>
        <time>2026-08-21T19:16:11Z</time>
      </trkpt>
      <trkpt lat="48.660954" lon="-1.515590">
        <ele>0.793</ele>
        <time>2026-08-21T19:16:16Z</time>
      </trkpt>
      <trkpt lat="48.660966" lon="-1.515573">
        <ele>0.714</ele>
        <time>2026-08-21T19:16:19Z</time>
      </trkpt>
      <trkpt lat="48.660974" lon="-1.515563">
        <ele>0.768</ele>
        <time>2026-08-21T19:16:20Z</time>
      </trkpt>
      <trkpt lat="48.660984" lon="-1.515555">
        <ele>0.425</ele>
        <time>2026-08-21T19:16:21Z</time>
      </trkpt>
      <trkpt lat="48.660993" lon="-1.515543">
        <ele>0.268</ele>
        <time>2026-08-21T19:16:22Z</time>
      </trkpt>
      <trkpt lat="48.661002" lon="-1.515532">
        <ele>0.142</ele>
        <time>2026-08-21T19:16:23Z</time>
      </trkpt>
      <trkpt lat="48.661009" lon="-1.515517">
        <ele>0.126</ele>
        <time>2026-08-21T19:16:24Z</time>
      </trkpt>
      <trkpt lat="48.661017" lon="-1.515507">
        <ele>0.009</ele>
        <time>2026-08-21T19:16:25Z</time>
      </trkpt>
      <trkpt lat="48.661026" lon="-1.515496">
        <ele>0.058</ele>
        <time>2026-08-21T19:16:26Z</time>
      </trkpt>
      <trkpt lat="48.661036" lon="-1.515475">
        <ele>0.084</ele>
        <time>2026-08-21T19:16:28Z</time>
      </trkpt>
      <trkpt lat="48.661044" lon="-1.515461">
        <ele>0.017</ele>
        <time>2026-08-21T19:16:30Z</time>
      </trkpt>
      <trkpt lat="48.661053" lon="-1.515445">
        <ele>0.078</ele>
        <time>2026-08-21T19:16:32Z</time>
      </trkpt>
      <trkpt lat="48.661067" lon="-1.515432">
        <ele>0.031</ele>
        <time>2026-08-21T19:16:34Z</time>
      </trkpt>
      <trkpt lat="48.661076" lon="-1.515423">
        <ele>0.088</ele>
        <time>2026-08-21T19:16:35Z</time>
      </trkpt>
      <trkpt lat="48.661087" lon="-1.515417">
        <ele>0.099</ele>
        <time>2026-08-21T19:16:36Z</time>
      </trkpt>
      <trkpt lat="48.661102" lon="-1.515405">
        <ele>-0.133</ele>
        <time>2026-08-21T19:16:38Z</time>
      </trkpt>
      <trkpt lat="48.661116" lon="-1.515395">
        <ele>-0.180</ele>
        <time>2026-08-21T19:16:40Z</time>
      </trkpt>
      <trkpt lat="48.661127" lon="-1.515382">
        <ele>-0.184</ele>
        <time>2026-08-21T19:16:41Z</time>
      </trkpt>
      <trkpt lat="48.661136" lon="-1.515373">
        <ele>-0.107</ele>
        <time>2026-08-21T19:16:42Z</time>
      </trkpt>
      <trkpt lat="48.661142" lon="-1.515361">
        <ele>-0.117</ele>
        <time>2026-08-21T19:16:44Z</time>
      </trkpt>
      <trkpt lat="48.661154" lon="-1.515346">
        <ele>0.009</ele>
        <time>2026-08-21T19:16:46Z</time>
      </trkpt>
      <trkpt lat="48.661163" lon="-1.515336">
        <ele>0.010</ele>
        <time>2026-08-21T19:16:47Z</time>
      </trkpt>
      <trkpt lat="48.661177" lon="-1.515328">
        <ele>0.056</ele>
        <time>2026-08-21T19:16:48Z</time>
      </trkpt>
      <trkpt lat="48.661189" lon="-1.515321">
        <ele>0.059</ele>
        <time>2026-08-21T19:16:49Z</time>
      </trkpt>
      <trkpt lat="48.661199" lon="-1.515313">
        <ele>0.070</ele>
        <time>2026-08-21T19:16:51Z</time>
      </trkpt>
      <trkpt lat="48.661213" lon="-1.515316">
        <ele>0.073</ele>
        <time>2026-08-21T19:16:53Z</time>
      </trkpt>
      <trkpt lat="48.661225" lon="-1.515319">
        <ele>0.190</ele>
        <time>2026-08-21T19:16:54Z</time>
      </trkpt>
      <trkpt lat="48.661237" lon="-1.515319">
        <ele>0.131</ele>
        <time>2026-08-21T19:16:55Z</time>
      </trkpt>
      <trkpt lat="48.661248" lon="-1.515314">
        <ele>0.075</ele>
        <time>2026-08-21T19:16:56Z</time>
      </trkpt>
      <trkpt lat="48.661260" lon="-1.515309">
        <ele>0.012</ele>
        <time>2026-08-21T19:16:57Z</time>
      </trkpt>
      <trkpt lat="48.661270" lon="-1.515303">
        <ele>0.064</ele>
        <time>2026-08-21T19:16:58Z</time>
      </trkpt>
      <trkpt lat="48.661281" lon="-1.515298">
        <ele>0.006</ele>
        <time>2026-08-21T19:16:59Z</time>
      </trkpt>
      <trkpt lat="48.661291" lon="-1.515295">
        <ele>0.016</ele>
        <time>2026-08-21T19:17:00Z</time>
      </trkpt>
      <trkpt lat="48.661301" lon="-1.515291">
        <ele>0.109</ele>
        <time>2026-08-21T19:17:02Z</time>
      </trkpt>
      <trkpt lat="48.661315" lon="-1.515285">
        <ele>0.168</ele>
        <time>2026-08-21T19:17:04Z</time>
      </trkpt>
      <trkpt lat="48.661329" lon="-1.515273">
        <ele>0.134</ele>
        <time>2026-08-21T19:17:06Z</time>
      </trkpt>
      <trkpt lat="48.661339" lon="-1.515264">
        <ele>0.147</ele>
        <time>2026-08-21T19:17:07Z</time>
      </trkpt>
      <trkpt lat="48.661352" lon="-1.515259">
        <ele>0.168</ele>
        <time>2026-08-21T19:17:08Z</time>
      </trkpt>
      <trkpt lat="48.661362" lon="-1.515257">
        <ele>0.191</ele>
        <time>2026-08-21T19:17:09Z</time>
      </trkpt>
      <trkpt lat="48.661378" lon="-1.515252">
        <ele>0.168</ele>
        <time>2026-08-21T19:17:11Z</time>
      </trkpt>
      <trkpt lat="48.661387" lon="-1.515245">
        <ele>0.149</ele>
        <time>2026-08-21T19:17:12Z</time>
      </trkpt>
      <trkpt lat="48.661398" lon="-1.515242">
        <ele>0.293</ele>
        <time>2026-08-21T19:17:13Z</time>
      </trkpt>
      <trkpt lat="48.661411" lon="-1.515240">
        <ele>0.240</ele>
        <time>2026-08-21T19:17:14Z</time>
      </trkpt>
      <trkpt lat="48.661421" lon="-1.515242">
        <ele>0.291</ele>
        <time>2026-08-21T19:17:15Z</time>
      </trkpt>
      <trkpt lat="48.661438" lon="-1.515238">
        <ele>0.281</ele>
        <time>2026-08-21T19:17:17Z</time>
      </trkpt>
      <trkpt lat="48.661448" lon="-1.515234">
        <ele>0.219</ele>
        <time>2026-08-21T19:17:18Z</time>
      </trkpt>
      <trkpt lat="48.661457" lon="-1.515231">
        <ele>0.209</ele>
        <time>2026-08-21T19:17:19Z</time>
      </trkpt>
      <trkpt lat="48.661469" lon="-1.515233">
        <ele>0.261</ele>
        <time>2026-08-21T19:17:20Z</time>
      </trkpt>
      <trkpt lat="48.661480" lon="-1.515230">
        <ele>0.257</ele>
        <time>2026-08-21T19:17:21Z</time>
      </trkpt>
      <trkpt lat="48.661489" lon="-1.515226">
        <ele>0.170</ele>
        <time>2026-08-21T19:17:22Z</time>
      </trkpt>
      <trkpt lat="48.661501" lon="-1.515220">
        <ele>0.141</ele>
        <time>2026-08-21T19:17:29Z</time>
      </trkpt>
      <trkpt lat="48.661510" lon="-1.515216">
        <ele>0.184</ele>
        <time>2026-08-21T19:17:30Z</time>
      </trkpt>
      <trkpt lat="48.661522" lon="-1.515217">
        <ele>0.191</ele>
        <time>2026-08-21T19:17:31Z</time>
      </trkpt>
      <trkpt lat="48.661535" lon="-1.515217">
        <ele>0.012</ele>
        <time>2026-08-21T19:17:32Z</time>
      </trkpt>
      <trkpt lat="48.661548" lon="-1.515214">
        <ele>0.046</ele>
        <time>2026-08-21T19:17:33Z</time>
      </trkpt>
      <trkpt lat="48.661562" lon="-1.515214">
        <ele>0.043</ele>
        <time>2026-08-21T19:17:34Z</time>
      </trkpt>
      <trkpt lat="48.661573" lon="-1.515215">
        <ele>0.071</ele>
        <time>2026-08-21T19:17:35Z</time>
      </trkpt>
      <trkpt lat="48.661583" lon="-1.515217">
        <ele>0.041</ele>
        <time>2026-08-21T19:17:36Z</time>
      </trkpt>
      <trkpt lat="48.661594" lon="-1.515216">
        <ele>0.015</ele>
        <time>2026-08-21T19:17:37Z</time>
      </trkpt>
      <trkpt lat="48.661605" lon="-1.515215">
        <ele>0.109</ele>
        <time>2026-08-21T19:17:38Z</time>
      </trkpt>
      <trkpt lat="48.661624" lon="-1.515220">
        <ele>0.189</ele>
        <time>2026-08-21T19:17:40Z</time>
      </trkpt>
      <trkpt lat="48.661633" lon="-1.515224">
        <ele>0.185</ele>
        <time>2026-08-21T19:17:41Z</time>
      </trkpt>
      <trkpt lat="48.661644" lon="-1.515226">
        <ele>0.118</ele>
        <time>2026-08-21T19:17:42Z</time>
      </trkpt>
      <trkpt lat="48.661654" lon="-1.515223">
        <ele>0.199</ele>
        <time>2026-08-21T19:17:43Z</time>
      </trkpt>
      <trkpt lat="48.661667" lon="-1.515220">
        <ele>0.142</ele>
        <time>2026-08-21T19:17:44Z</time>
      </trkpt>
      <trkpt lat="48.661682" lon="-1.515213">
        <ele>0.119</ele>
        <time>2026-08-21T19:17:45Z</time>
      </trkpt>
      <trkpt lat="48.661696" lon="-1.515215">
        <ele>0.120</ele>
        <time>2026-08-21T19:17:47Z</time>
      </trkpt>
      <trkpt lat="48.661716" lon="-1.515215">
        <ele>0.124</ele>
        <time>2026-08-21T19:17:49Z</time>
      </trkpt>
      <trkpt lat="48.661728" lon="-1.515210">
        <ele>0.211</ele>
        <time>2026-08-21T19:17:50Z</time>
      </trkpt>
      <trkpt lat="48.661740" lon="-1.515210">
        <ele>0.232</ele>
        <time>2026-08-21T19:17:51Z</time>
      </trkpt>
      <trkpt lat="48.661753" lon="-1.515212">
        <ele>0.492</ele>
        <time>2026-08-21T19:17:52Z</time>
      </trkpt>
      <trkpt lat="48.661763" lon="-1.515214">
        <ele>0.511</ele>
        <time>2026-08-21T19:17:53Z</time>
      </trkpt>
      <trkpt lat="48.661776" lon="-1.515213">
        <ele>0.609</ele>
        <time>2026-08-21T19:17:54Z</time>
      </trkpt>
      <trkpt lat="48.661788" lon="-1.515215">
        <ele>0.785</ele>
        <time>2026-08-21T19:17:55Z</time>
      </trkpt>
      <trkpt lat="48.661802" lon="-1.515217">
        <ele>0.781</ele>
        <time>2026-08-21T19:17:56Z</time>
      </trkpt>
      <trkpt lat="48.661811" lon="-1.515221">
        <ele>0.874</ele>
        <time>2026-08-21T19:17:57Z</time>
      </trkpt>
      <trkpt lat="48.661821" lon="-1.515220">
        <ele>0.835</ele>
        <time>2026-08-21T19:17:58Z</time>
      </trkpt>
      <trkpt lat="48.661832" lon="-1.515223">
        <ele>0.848</ele>
        <time>2026-08-21T19:17:59Z</time>
      </trkpt>
      <trkpt lat="48.661846" lon="-1.515226">
        <ele>0.855</ele>
        <time>2026-08-21T19:18:00Z</time>
      </trkpt>
      <trkpt lat="48.661859" lon="-1.515226">
        <ele>0.936</ele>
        <time>2026-08-21T19:18:01Z</time>
      </trkpt>
      <trkpt lat="48.661871" lon="-1.515227">
        <ele>0.930</ele>
        <time>2026-08-21T19:18:02Z</time>
      </trkpt>
      <trkpt lat="48.661879" lon="-1.515235">
        <ele>1.057</ele>
        <time>2026-08-21T19:18:03Z</time>
      </trkpt>
      <trkpt lat="48.661887" lon="-1.515241">
        <ele>1.111</ele>
        <time>2026-08-21T19:18:04Z</time>
      </trkpt>
      <trkpt lat="48.661897" lon="-1.515241">
        <ele>1.121</ele>
        <time>2026-08-21T19:18:06Z</time>
      </trkpt>
      <trkpt lat="48.661888" lon="-1.515248">
        <ele>1.103</ele>
        <time>2026-08-21T19:18:35Z</time>
      </trkpt>
      <trkpt lat="48.661879" lon="-1.515253">
        <ele>1.309</ele>
        <time>2026-08-21T19:18:48Z</time>
      </trkpt>
      <trkpt lat="48.661887" lon="-1.515258">
        <ele>1.423</ele>
        <time>2026-08-21T19:19:08Z</time>
      </trkpt>
      <trkpt lat="48.661895" lon="-1.515266">
        <ele>1.669</ele>
        <time>2026-08-21T19:19:28Z</time>
      </trkpt>
      <trkpt lat="48.661902" lon="-1.515277">
        <ele>1.682</ele>
        <time>2026-08-21T19:19:36Z</time>
      </trkpt>
      <trkpt lat="48.661907" lon="-1.515290">
        <ele>1.773</ele>
        <time>2026-08-21T19:19:47.999Z</time>
      </trkpt>
      <trkpt lat="48.661909" lon="-1.515274">
        <ele>1.916</ele>
        <time>2026-08-21T19:20:33.999Z</time>
      </trkpt>
      <trkpt lat="48.661913" lon="-1.515261">
        <ele>0.793</ele>
        <time>2026-08-21T19:21:12.999Z</time>
      </trkpt>
      <trkpt lat="48.661920" lon="-1.515249">
        <ele>0.744</ele>
        <time>2026-08-21T19:21:19.999Z</time>
      </trkpt>
      <trkpt lat="48.661931" lon="-1.515240">
        <ele>0.748</ele>
        <time>2026-08-21T19:21:27.999Z</time>
      </trkpt>
      <trkpt lat="48.661941" lon="-1.515238">
        <ele>0.465</ele>
        <time>2026-08-21T19:21:35.999Z</time>
      </trkpt>
      <trkpt lat="48.661957" lon="-1.515239">
        <ele>0.277</ele>
        <time>2026-08-21T19:21:37.999Z</time>
      </trkpt>
      <trkpt lat="48.661974" lon="-1.515243">
        <ele>0.161</ele>
        <time>2026-08-21T19:21:39.999Z</time>
      </trkpt>
      <trkpt lat="48.661985" lon="-1.515246">
        <ele>0.027</ele>
        <time>2026-08-21T19:21:40.999Z</time>
      </trkpt>
      <trkpt lat="48.661997" lon="-1.515248">
        <ele>0.009</ele>
        <time>2026-08-21T19:21:41.999Z</time>
      </trkpt>
      <trkpt lat="48.662007" lon="-1.515253">
        <ele>0.099</ele>
        <time>2026-08-21T19:21:42.999Z</time>
      </trkpt>
      <trkpt lat="48.662019" lon="-1.515254">
        <ele>0.085</ele>
        <time>2026-08-21T19:21:43.999Z</time>
      </trkpt>
      <trkpt lat="48.662029" lon="-1.515256">
        <ele>0.058</ele>
        <time>2026-08-21T19:21:44.999Z</time>
      </trkpt>
      <trkpt lat="48.662041" lon="-1.515257">
        <ele>0.059</ele>
        <time>2026-08-21T19:21:45.999Z</time>
      </trkpt>
      <trkpt lat="48.662053" lon="-1.515257">
        <ele>-0.112</ele>
        <time>2026-08-21T19:21:46.999Z</time>
      </trkpt>
      <trkpt lat="48.662063" lon="-1.515256">
        <ele>-0.149</ele>
        <time>2026-08-21T19:21:47.999Z</time>
      </trkpt>
      <trkpt lat="48.662073" lon="-1.515256">
        <ele>-0.130</ele>
        <time>2026-08-21T19:21:48.999Z</time>
      </trkpt>
      <trkpt lat="48.662086" lon="-1.515259">
        <ele>-0.234</ele>
        <time>2026-08-21T19:21:49.999Z</time>
      </trkpt>
      <trkpt lat="48.662099" lon="-1.515260">
        <ele>-0.271</ele>
        <time>2026-08-21T19:21:50.999Z</time>
      </trkpt>
      <trkpt lat="48.662111" lon="-1.515262">
        <ele>-0.244</ele>
        <time>2026-08-21T19:21:51.999Z</time>
      </trkpt>
      <trkpt lat="48.662124" lon="-1.515262">
        <ele>-0.205</ele>
        <time>2026-08-21T19:21:52.999Z</time>
      </trkpt>
      <trkpt lat="48.662135" lon="-1.515264">
        <ele>-0.215</ele>
        <time>2026-08-21T19:21:53.999Z</time>
      </trkpt>
      <trkpt lat="48.662146" lon="-1.515265">
        <ele>-0.109</ele>
        <time>2026-08-21T19:21:54.999Z</time>
      </trkpt>
      <trkpt lat="48.662159" lon="-1.515267">
        <ele>-0.196</ele>
        <time>2026-08-21T19:21:55.999Z</time>
      </trkpt>
      <trkpt lat="48.662170" lon="-1.515268">
        <ele>-0.152</ele>
        <time>2026-08-21T19:21:56.999Z</time>
      </trkpt>
      <trkpt lat="48.662185" lon="-1.515268">
        <ele>-0.115</ele>
        <time>2026-08-21T19:21:57.999Z</time>
      </trkpt>
      <trkpt lat="48.662201" lon="-1.515269">
        <ele>-0.116</ele>
        <time>2026-08-21T19:21:58.999Z</time>
      </trkpt>
      <trkpt lat="48.662214" lon="-1.515269">
        <ele>-0.159</ele>
        <time>2026-08-21T19:21:59.999Z</time>
      </trkpt>
      <trkpt lat="48.662226" lon="-1.515271">
        <ele>-0.176</ele>
        <time>2026-08-21T19:22:00.999Z</time>
      </trkpt>
      <trkpt lat="48.662238" lon="-1.515274">
        <ele>0.097</ele>
        <time>2026-08-21T19:22:01.999Z</time>
      </trkpt>
      <trkpt lat="48.662247" lon="-1.515279">
        <ele>0.091</ele>
        <time>2026-08-21T19:22:02.999Z</time>
      </trkpt>
      <trkpt lat="48.662260" lon="-1.515281">
        <ele>0.098</ele>
        <time>2026-08-21T19:22:03.999Z</time>
      </trkpt>
      <trkpt lat="48.662272" lon="-1.515281">
        <ele>0.068</ele>
        <time>2026-08-21T19:22:04.999Z</time>
      </trkpt>
      <trkpt lat="48.662285" lon="-1.515282">
        <ele>0.042</ele>
        <time>2026-08-21T19:22:05.999Z</time>
      </trkpt>
      <trkpt lat="48.662299" lon="-1.515277">
        <ele>0.026</ele>
        <time>2026-08-21T19:22:06.999Z</time>
      </trkpt>
      <trkpt lat="48.662309" lon="-1.515280">
        <ele>0.009</ele>
        <time>2026-08-21T19:22:07.999Z</time>
      </trkpt>
      <trkpt lat="48.662318" lon="-1.515286">
        <ele>0.058</ele>
        <time>2026-08-21T19:22:08.999Z</time>
      </trkpt>
      <trkpt lat="48.662337" lon="-1.515296">
        <ele>0.134</ele>
        <time>2026-08-21T19:22:10.999Z</time>
      </trkpt>
      <trkpt lat="48.662352" lon="-1.515296">
        <ele>0.317</ele>
        <time>2026-08-21T19:22:11.999Z</time>
      </trkpt>
      <trkpt lat="48.662368" lon="-1.515295">
        <ele>0.468</ele>
        <time>2026-08-21T19:22:12.999Z</time>
      </trkpt>
      <trkpt lat="48.662381" lon="-1.515295">
        <ele>0.471</ele>
        <time>2026-08-21T19:22:13.999Z</time>
      </trkpt>
      <trkpt lat="48.662394" lon="-1.515298">
        <ele>0.438</ele>
        <time>2026-08-21T19:22:14.999Z</time>
      </trkpt>
      <trkpt lat="48.662406" lon="-1.515304">
        <ele>0.489</ele>
        <time>2026-08-21T19:22:15.999Z</time>
      </trkpt>
      <trkpt lat="48.662416" lon="-1.515306">
        <ele>0.483</ele>
        <time>2026-08-21T19:22:16.999Z</time>
      </trkpt>
      <trkpt lat="48.662427" lon="-1.515309">
        <ele>0.470</ele>
        <time>2026-08-21T19:22:17.999Z</time>
      </trkpt>
      <trkpt lat="48.662441" lon="-1.515312">
        <ele>0.431</ele>
        <time>2026-08-21T19:22:18.999Z</time>
      </trkpt>
      <trkpt lat="48.662457" lon="-1.515305">
        <ele>0.461</ele>
        <time>2026-08-21T19:22:19.999Z</time>
      </trkpt>
      <trkpt lat="48.662470" lon="-1.515304">
        <ele>0.407</ele>
        <time>2026-08-21T19:22:20.999Z</time>
      </trkpt>
      <trkpt lat="48.662491" lon="-1.515313">
        <ele>0.409</ele>
        <time>2026-08-21T19:22:22.999Z</time>
      </trkpt>
      <trkpt lat="48.662500" lon="-1.515314">
        <ele>0.575</ele>
        <time>2026-08-21T19:22:23.999Z</time>
      </trkpt>
      <trkpt lat="48.662515" lon="-1.515318">
        <ele>0.511</ele>
        <time>2026-08-21T19:22:25.999Z</time>
      </trkpt>
      <trkpt lat="48.662529" lon="-1.515319">
        <ele>0.524</ele>
        <time>2026-08-21T19:22:26.999Z</time>
      </trkpt>
      <trkpt lat="48.662544" lon="-1.515317">
        <ele>0.595</ele>
        <time>2026-08-21T19:22:27.999Z</time>
      </trkpt>
      <trkpt lat="48.662557" lon="-1.515316">
        <ele>0.648</ele>
        <time>2026-08-21T19:22:28.999Z</time>
      </trkpt>
      <trkpt lat="48.662570" lon="-1.515317">
        <ele>0.625</ele>
        <time>2026-08-21T19:22:29.999Z</time>
      </trkpt>
      <trkpt lat="48.662579" lon="-1.515318">
        <ele>0.636</ele>
        <time>2026-08-21T19:22:30.999Z</time>
      </trkpt>
      <trkpt lat="48.662590" lon="-1.515319">
        <ele>0.710</ele>
        <time>2026-08-21T19:22:31.999Z</time>
      </trkpt>
      <trkpt lat="48.662601" lon="-1.515322">
        <ele>0.867</ele>
        <time>2026-08-21T19:22:32.999Z</time>
      </trkpt>
      <trkpt lat="48.662616" lon="-1.515319">
        <ele>0.841</ele>
        <time>2026-08-21T19:22:33.999Z</time>
      </trkpt>
      <trkpt lat="48.662630" lon="-1.515314">
        <ele>0.881</ele>
        <time>2026-08-21T19:22:34.999Z</time>
      </trkpt>
      <trkpt lat="48.662644" lon="-1.515317">
        <ele>0.909</ele>
        <time>2026-08-21T19:22:35.999Z</time>
      </trkpt>
      <trkpt lat="48.662655" lon="-1.515321">
        <ele>0.909</ele>
        <time>2026-08-21T19:22:36.999Z</time>
      </trkpt>
      <trkpt lat="48.662668" lon="-1.515326">
        <ele>0.986</ele>
        <time>2026-08-21T19:22:37.999Z</time>
      </trkpt>
      <trkpt lat="48.662678" lon="-1.515328">
        <ele>0.952</ele>
        <time>2026-08-21T19:22:38.999Z</time>
      </trkpt>
      <trkpt lat="48.662688" lon="-1.515331">
        <ele>1.065</ele>
        <time>2026-08-21T19:22:39.999Z</time>
      </trkpt>
      <trkpt lat="48.662699" lon="-1.515333">
        <ele>1.346</ele>
        <time>2026-08-21T19:22:40.999Z</time>
      </trkpt>
      <trkpt lat="48.662711" lon="-1.515336">
        <ele>1.539</ele>
        <time>2026-08-21T19:22:41.999Z</time>
      </trkpt>
      <trkpt lat="48.662722" lon="-1.515338">
        <ele>1.646</ele>
        <time>2026-08-21T19:22:42.999Z</time>
      </trkpt>
      <trkpt lat="48.662732" lon="-1.515341">
        <ele>1.767</ele>
        <time>2026-08-21T19:22:43.999Z</time>
      </trkpt>
      <trkpt lat="48.662746" lon="-1.515348">
        <ele>1.741</ele>
        <time>2026-08-21T19:22:44.999Z</time>
      </trkpt>
      <trkpt lat="48.662760" lon="-1.515354">
        <ele>1.778</ele>
        <time>2026-08-21T19:22:45.999Z</time>
      </trkpt>
      <trkpt lat="48.662772" lon="-1.515354">
        <ele>1.759</ele>
        <time>2026-08-21T19:22:46.999Z</time>
      </trkpt>
      <trkpt lat="48.662784" lon="-1.515359">
        <ele>1.703</ele>
        <time>2026-08-21T19:22:47.999Z</time>
      </trkpt>
      <trkpt lat="48.662794" lon="-1.515362">
        <ele>1.823</ele>
        <time>2026-08-21T19:22:48.999Z</time>
      </trkpt>
      <trkpt lat="48.662811" lon="-1.515363">
        <ele>1.809</ele>
        <time>2026-08-21T19:22:49.999Z</time>
      </trkpt>
      <trkpt lat="48.662824" lon="-1.515371">
        <ele>1.837</ele>
        <time>2026-08-21T19:22:50.999Z</time>
      </trkpt>
      <trkpt lat="48.662837" lon="-1.515379">
        <ele>1.883</ele>
        <time>2026-08-21T19:22:51.999Z</time>
      </trkpt>
      <trkpt lat="48.662847" lon="-1.515387">
        <ele>1.816</ele>
        <time>2026-08-21T19:22:52.999Z</time>
      </trkpt>
      <trkpt lat="48.662856" lon="-1.515392">
        <ele>1.897</ele>
        <time>2026-08-21T19:22:53.999Z</time>
      </trkpt>
      <trkpt lat="48.662877" lon="-1.515395">
        <ele>1.930</ele>
        <time>2026-08-21T19:22:55.999Z</time>
      </trkpt>
      <trkpt lat="48.662893" lon="-1.515394">
        <ele>1.987</ele>
        <time>2026-08-21T19:22:56.999Z</time>
      </trkpt>
      <trkpt lat="48.662908" lon="-1.515397">
        <ele>1.998</ele>
        <time>2026-08-21T19:22:57.999Z</time>
      </trkpt>
      <trkpt lat="48.662921" lon="-1.515404">
        <ele>2.012</ele>
        <time>2026-08-21T19:22:58.999Z</time>
      </trkpt>
      <trkpt lat="48.662931" lon="-1.515414">
        <ele>2.069</ele>
        <time>2026-08-21T19:22:59.999Z</time>
      </trkpt>
      <trkpt lat="48.662943" lon="-1.515425">
        <ele>2.068</ele>
        <time>2026-08-21T19:23:00.999Z</time>
      </trkpt>
      <trkpt lat="48.662955" lon="-1.515431">
        <ele>2.042</ele>
        <time>2026-08-21T19:23:01.999Z</time>
      </trkpt>
      <trkpt lat="48.662966" lon="-1.515434">
        <ele>2.026</ele>
        <time>2026-08-21T19:23:02.999Z</time>
      </trkpt>
      <trkpt lat="48.662979" lon="-1.515434">
        <ele>2.109</ele>
        <time>2026-08-21T19:23:03.999Z</time>
      </trkpt>
      <trkpt lat="48.662992" lon="-1.515436">
        <ele>2.188</ele>
        <time>2026-08-21T19:23:04.999Z</time>
      </trkpt>
      <trkpt lat="48.663003" lon="-1.515441">
        <ele>2.164</ele>
        <time>2026-08-21T19:23:05.999Z</time>
      </trkpt>
      <trkpt lat="48.663015" lon="-1.515447">
        <ele>2.247</ele>
        <time>2026-08-21T19:23:06.999Z</time>
      </trkpt>
      <trkpt lat="48.663029" lon="-1.515451">
        <ele>2.398</ele>
        <time>2026-08-21T19:23:07.999Z</time>
      </trkpt>
      <trkpt lat="48.663041" lon="-1.515455">
        <ele>2.371</ele>
        <time>2026-08-21T19:23:08.999Z</time>
      </trkpt>
      <trkpt lat="48.663052" lon="-1.515457">
        <ele>2.338</ele>
        <time>2026-08-21T19:23:09.999Z</time>
      </trkpt>
      <trkpt lat="48.663062" lon="-1.515465">
        <ele>2.419</ele>
        <time>2026-08-21T19:23:10.999Z</time>
      </trkpt>
      <trkpt lat="48.663073" lon="-1.515470">
        <ele>2.493</ele>
        <time>2026-08-21T19:23:11.999Z</time>
      </trkpt>
      <trkpt lat="48.663082" lon="-1.515477">
        <ele>2.480</ele>
        <time>2026-08-21T19:23:12.999Z</time>
      </trkpt>
      <trkpt lat="48.663092" lon="-1.515487">
        <ele>2.521</ele>
        <time>2026-08-21T19:23:13.999Z</time>
      </trkpt>
      <trkpt lat="48.663103" lon="-1.515493">
        <ele>2.541</ele>
        <time>2026-08-21T19:23:14.999Z</time>
      </trkpt>
      <trkpt lat="48.663115" lon="-1.515496">
        <ele>2.505</ele>
        <time>2026-08-21T19:23:15.999Z</time>
      </trkpt>
      <trkpt lat="48.663126" lon="-1.515498">
        <ele>2.509</ele>
        <time>2026-08-21T19:23:16.999Z</time>
      </trkpt>
      <trkpt lat="48.663137" lon="-1.515501">
        <ele>2.664</ele>
        <time>2026-08-21T19:23:17.999Z</time>
      </trkpt>
      <trkpt lat="48.663150" lon="-1.515509">
        <ele>2.620</ele>
        <time>2026-08-21T19:23:18.999Z</time>
      </trkpt>
      <trkpt lat="48.663161" lon="-1.515514">
        <ele>2.663</ele>
        <time>2026-08-21T19:23:19.999Z</time>
      </trkpt>
      <trkpt lat="48.663170" lon="-1.515519">
        <ele>2.654</ele>
        <time>2026-08-21T19:23:20.999Z</time>
      </trkpt>
      <trkpt lat="48.663181" lon="-1.515522">
        <ele>2.647</ele>
        <time>2026-08-21T19:23:21.999Z</time>
      </trkpt>
      <trkpt lat="48.663191" lon="-1.515524">
        <ele>2.654</ele>
        <time>2026-08-21T19:23:22.999Z</time>
      </trkpt>
      <trkpt lat="48.663202" lon="-1.515526">
        <ele>2.635</ele>
        <time>2026-08-21T19:23:23.999Z</time>
      </trkpt>
      <trkpt lat="48.663215" lon="-1.515529">
        <ele>2.619</ele>
        <time>2026-08-21T19:23:24.999Z</time>
      </trkpt>
      <trkpt lat="48.663228" lon="-1.515534">
        <ele>2.636</ele>
        <time>2026-08-21T19:23:25.999Z</time>
      </trkpt>
      <trkpt lat="48.663240" lon="-1.515541">
        <ele>2.683</ele>
        <time>2026-08-21T19:23:26.999Z</time>
      </trkpt>
      <trkpt lat="48.663256" lon="-1.515541">
        <ele>2.625</ele>
        <time>2026-08-21T19:23:27.999Z</time>
      </trkpt>
      <trkpt lat="48.663268" lon="-1.515542">
        <ele>2.617</ele>
        <time>2026-08-21T19:23:28.999Z</time>
      </trkpt>
      <trkpt lat="48.663278" lon="-1.515548">
        <ele>2.609</ele>
        <time>2026-08-21T19:23:29.999Z</time>
      </trkpt>
      <trkpt lat="48.663289" lon="-1.515553">
        <ele>2.660</ele>
        <time>2026-08-21T19:23:30.999Z</time>
      </trkpt>
      <trkpt lat="48.663301" lon="-1.515556">
        <ele>2.676</ele>
        <time>2026-08-21T19:23:31.999Z</time>
      </trkpt>
      <trkpt lat="48.663315" lon="-1.515556">
        <ele>2.639</ele>
        <time>2026-08-21T19:23:32.999Z</time>
      </trkpt>
      <trkpt lat="48.663327" lon="-1.515557">
        <ele>2.620</ele>
        <time>2026-08-21T19:23:33.999Z</time>
      </trkpt>
      <trkpt lat="48.663340" lon="-1.515561">
        <ele>2.633</ele>
        <time>2026-08-21T19:23:34.999Z</time>
      </trkpt>
      <trkpt lat="48.663350" lon="-1.515568">
        <ele>2.570</ele>
        <time>2026-08-21T19:23:35.999Z</time>
      </trkpt>
      <trkpt lat="48.663363" lon="-1.515574">
        <ele>2.571</ele>
        <time>2026-08-21T19:23:36.999Z</time>
      </trkpt>
      <trkpt lat="48.663374" lon="-1.515581">
        <ele>2.595</ele>
        <time>2026-08-21T19:23:37.999Z</time>
      </trkpt>
      <trkpt lat="48.663384" lon="-1.515581">
        <ele>2.562</ele>
        <time>2026-08-21T19:23:38.999Z</time>
      </trkpt>
      <trkpt lat="48.663397" lon="-1.515582">
        <ele>2.566</ele>
        <time>2026-08-21T19:23:39.999Z</time>
      </trkpt>
      <trkpt lat="48.663411" lon="-1.515578">
        <ele>2.529</ele>
        <time>2026-08-21T19:23:40.999Z</time>
      </trkpt>
      <trkpt lat="48.663425" lon="-1.515582">
        <ele>2.521</ele>
        <time>2026-08-21T19:23:41.999Z</time>
      </trkpt>
      <trkpt lat="48.663435" lon="-1.515585">
        <ele>2.509</ele>
        <time>2026-08-21T19:23:42.999Z</time>
      </trkpt>
      <trkpt lat="48.663452" lon="-1.515592">
        <ele>2.518</ele>
        <time>2026-08-21T19:23:44.999Z</time>
      </trkpt>
      <trkpt lat="48.663463" lon="-1.515594">
        <ele>2.554</ele>
        <time>2026-08-21T19:23:45.999Z</time>
      </trkpt>
      <trkpt lat="48.663476" lon="-1.515596">
        <ele>2.537</ele>
        <time>2026-08-21T19:23:46.999Z</time>
      </trkpt>
      <trkpt lat="48.663489" lon="-1.515596">
        <ele>2.538</ele>
        <time>2026-08-21T19:23:47.999Z</time>
      </trkpt>
      <trkpt lat="48.663503" lon="-1.515597">
        <ele>2.521</ele>
        <time>2026-08-21T19:23:48.999Z</time>
      </trkpt>
      <trkpt lat="48.663516" lon="-1.515594">
        <ele>2.588</ele>
        <time>2026-08-21T19:23:49.999Z</time>
      </trkpt>
      <trkpt lat="48.663527" lon="-1.515595">
        <ele>2.549</ele>
        <time>2026-08-21T19:23:50.999Z</time>
      </trkpt>
      <trkpt lat="48.663540" lon="-1.515596">
        <ele>2.523</ele>
        <time>2026-08-21T19:23:51.999Z</time>
      </trkpt>
      <trkpt lat="48.663551" lon="-1.515598">
        <ele>2.590</ele>
        <time>2026-08-21T19:23:52.999Z</time>
      </trkpt>
      <trkpt lat="48.663562" lon="-1.515598">
        <ele>2.656</ele>
        <time>2026-08-21T19:23:53.999Z</time>
      </trkpt>
      <trkpt lat="48.663578" lon="-1.515595">
        <ele>2.659</ele>
        <time>2026-08-21T19:23:54.999Z</time>
      </trkpt>
      <trkpt lat="48.663592" lon="-1.515594">
        <ele>2.714</ele>
        <time>2026-08-21T19:23:55.999Z</time>
      </trkpt>
      <trkpt lat="48.663606" lon="-1.515596">
        <ele>2.909</ele>
        <time>2026-08-21T19:23:56.999Z</time>
      </trkpt>
      <trkpt lat="48.663619" lon="-1.515596">
        <ele>2.987</ele>
        <time>2026-08-21T19:23:57.999Z</time>
      </trkpt>
      <trkpt lat="48.663632" lon="-1.515597">
        <ele>3.053</ele>
        <time>2026-08-21T19:23:58.999Z</time>
      </trkpt>
      <trkpt lat="48.663643" lon="-1.515599">
        <ele>3.066</ele>
        <time>2026-08-21T19:23:59.999Z</time>
      </trkpt>
      <trkpt lat="48.663655" lon="-1.515600">
        <ele>3.027</ele>
        <time>2026-08-21T19:24:00.999Z</time>
      </trkpt>
      <trkpt lat="48.663666" lon="-1.515597">
        <ele>3.180</ele>
        <time>2026-08-21T19:24:01.999Z</time>
      </trkpt>
      <trkpt lat="48.663679" lon="-1.515598">
        <ele>3.117</ele>
        <time>2026-08-21T19:24:02.999Z</time>
      </trkpt>
      <trkpt lat="48.663696" lon="-1.515598">
        <ele>3.148</ele>
        <time>2026-08-21T19:24:04.999Z</time>
      </trkpt>
      <trkpt lat="48.663709" lon="-1.515601">
        <ele>3.142</ele>
        <time>2026-08-21T19:24:05.999Z</time>
      </trkpt>
      <trkpt lat="48.663724" lon="-1.515602">
        <ele>3.129</ele>
        <time>2026-08-21T19:24:06.999Z</time>
      </trkpt>
      <trkpt lat="48.663740" lon="-1.515604">
        <ele>3.125</ele>
        <time>2026-08-21T19:24:07.999Z</time>
      </trkpt>
      <trkpt lat="48.663755" lon="-1.515603">
        <ele>3.126</ele>
        <time>2026-08-21T19:24:08.999Z</time>
      </trkpt>
      <trkpt lat="48.663766" lon="-1.515602">
        <ele>3.108</ele>
        <time>2026-08-21T19:24:09.999Z</time>
      </trkpt>
      <trkpt lat="48.663778" lon="-1.515605">
        <ele>3.109</ele>
        <time>2026-08-21T19:24:10.999Z</time>
      </trkpt>
      <trkpt lat="48.663788" lon="-1.515609">
        <ele>3.144</ele>
        <time>2026-08-21T19:24:11.999Z</time>
      </trkpt>
      <trkpt lat="48.663800" lon="-1.515611">
        <ele>3.160</ele>
        <time>2026-08-21T19:24:12.999Z</time>
      </trkpt>
      <trkpt lat="48.663812" lon="-1.515613">
        <ele>3.013</ele>
        <time>2026-08-21T19:24:13.999Z</time>
      </trkpt>
      <trkpt lat="48.663824" lon="-1.515611">
        <ele>3.024</ele>
        <time>2026-08-21T19:24:14.999Z</time>
      </trkpt>
      <trkpt lat="48.663836" lon="-1.515613">
        <ele>3.027</ele>
        <time>2026-08-21T19:24:15.999Z</time>
      </trkpt>
      <trkpt lat="48.663849" lon="-1.515614">
        <ele>3.054</ele>
        <time>2026-08-21T19:24:16.999Z</time>
      </trkpt>
      <trkpt lat="48.663862" lon="-1.515617">
        <ele>3.085</ele>
        <time>2026-08-21T19:24:17.999Z</time>
      </trkpt>
      <trkpt lat="48.663874" lon="-1.515618">
        <ele>3.019</ele>
        <time>2026-08-21T19:24:18.999Z</time>
      </trkpt>
      <trkpt lat="48.663887" lon="-1.515618">
        <ele>3.036</ele>
        <time>2026-08-21T19:24:19.999Z</time>
      </trkpt>
      <trkpt lat="48.663899" lon="-1.515614">
        <ele>3.063</ele>
        <time>2026-08-21T19:24:20.999Z</time>
      </trkpt>
      <trkpt lat="48.663911" lon="-1.515611">
        <ele>2.944</ele>
        <time>2026-08-21T19:24:21.999Z</time>
      </trkpt>
      <trkpt lat="48.663924" lon="-1.515612">
        <ele>2.918</ele>
        <time>2026-08-21T19:24:22.999Z</time>
      </trkpt>
      <trkpt lat="48.663938" lon="-1.515613">
        <ele>2.909</ele>
        <time>2026-08-21T19:24:23.999Z</time>
      </trkpt>
      <trkpt lat="48.663954" lon="-1.515614">
        <ele>2.998</ele>
        <time>2026-08-21T19:24:24.999Z</time>
      </trkpt>
      <trkpt lat="48.663969" lon="-1.515618">
        <ele>2.944</ele>
        <time>2026-08-21T19:24:25.999Z</time>
      </trkpt>
      <trkpt lat="48.663991" lon="-1.515615">
        <ele>2.957</ele>
        <time>2026-08-21T19:24:27.999Z</time>
      </trkpt>
      <trkpt lat="48.664004" lon="-1.515613">
        <ele>2.968</ele>
        <time>2026-08-21T19:24:28.999Z</time>
      </trkpt>
      <trkpt lat="48.664018" lon="-1.515612">
        <ele>2.991</ele>
        <time>2026-08-21T19:24:29.999Z</time>
      </trkpt>
      <trkpt lat="48.664031" lon="-1.515613">
        <ele>2.958</ele>
        <time>2026-08-21T19:24:30.999Z</time>
      </trkpt>
      <trkpt lat="48.664045" lon="-1.515614">
        <ele>2.929</ele>
        <time>2026-08-21T19:24:31.999Z</time>
      </trkpt>
      <trkpt lat="48.664057" lon="-1.515614">
        <ele>2.993</ele>
        <time>2026-08-21T19:24:32.999Z</time>
      </trkpt>
      <trkpt lat="48.664068" lon="-1.515616">
        <ele>2.960</ele>
        <time>2026-08-21T19:24:33.999Z</time>
      </trkpt>
      <trkpt lat="48.664078" lon="-1.515620">
        <ele>2.999</ele>
        <time>2026-08-21T19:24:34.999Z</time>
      </trkpt>
      <trkpt lat="48.664098" lon="-1.515611">
        <ele>2.907</ele>
        <time>2026-08-21T19:24:36.999Z</time>
      </trkpt>
      <trkpt lat="48.664110" lon="-1.515605">
        <ele>2.927</ele>
        <time>2026-08-21T19:24:37.999Z</time>
      </trkpt>
      <trkpt lat="48.664122" lon="-1.515602">
        <ele>2.909</ele>
        <time>2026-08-21T19:24:38.999Z</time>
      </trkpt>
      <trkpt lat="48.664136" lon="-1.515602">
        <ele>2.951</ele>
        <time>2026-08-21T19:24:39.999Z</time>
      </trkpt>
      <trkpt lat="48.664150" lon="-1.515602">
        <ele>2.957</ele>
        <time>2026-08-21T19:24:40.999Z</time>
      </trkpt>
      <trkpt lat="48.664161" lon="-1.515601">
        <ele>2.910</ele>
        <time>2026-08-21T19:24:41.999Z</time>
      </trkpt>
      <trkpt lat="48.664173" lon="-1.515602">
        <ele>2.981</ele>
        <time>2026-08-21T19:24:42.999Z</time>
      </trkpt>
      <trkpt lat="48.664184" lon="-1.515602">
        <ele>2.954</ele>
        <time>2026-08-21T19:24:43.999Z</time>
      </trkpt>
      <trkpt lat="48.664195" lon="-1.515600">
        <ele>2.921</ele>
        <time>2026-08-21T19:24:44.999Z</time>
      </trkpt>
      <trkpt lat="48.664210" lon="-1.515596">
        <ele>2.982</ele>
        <time>2026-08-21T19:24:45.999Z</time>
      </trkpt>
      <trkpt lat="48.664222" lon="-1.515596">
        <ele>3.086</ele>
        <time>2026-08-21T19:24:46.999Z</time>
      </trkpt>
      <trkpt lat="48.664235" lon="-1.515596">
        <ele>3.023</ele>
        <time>2026-08-21T19:24:47.999Z</time>
      </trkpt>
      <trkpt lat="48.664245" lon="-1.515593">
        <ele>3.163</ele>
        <time>2026-08-21T19:24:48.999Z</time>
      </trkpt>
      <trkpt lat="48.664259" lon="-1.515592">
        <ele>3.144</ele>
        <time>2026-08-21T19:24:49.999Z</time>
      </trkpt>
      <trkpt lat="48.664268" lon="-1.515594">
        <ele>3.118</ele>
        <time>2026-08-21T19:24:50.999Z</time>
      </trkpt>
      <trkpt lat="48.664279" lon="-1.515596">
        <ele>3.109</ele>
        <time>2026-08-21T19:24:51.999Z</time>
      </trkpt>
      <trkpt lat="48.664291" lon="-1.515601">
        <ele>3.148</ele>
        <time>2026-08-21T19:24:52.999Z</time>
      </trkpt>
      <trkpt lat="48.664306" lon="-1.515606">
        <ele>3.154</ele>
        <time>2026-08-21T19:24:53.999Z</time>
      </trkpt>
      <trkpt lat="48.664319" lon="-1.515607">
        <ele>3.157</ele>
        <time>2026-08-21T19:24:54.999Z</time>
      </trkpt>
      <trkpt lat="48.664332" lon="-1.515608">
        <ele>3.188</ele>
        <time>2026-08-21T19:24:55.999Z</time>
      </trkpt>
      <trkpt lat="48.664345" lon="-1.515604">
        <ele>3.161</ele>
        <time>2026-08-21T19:24:56.999Z</time>
      </trkpt>
      <trkpt lat="48.664360" lon="-1.515601">
        <ele>3.188</ele>
        <time>2026-08-21T19:24:57.999Z</time>
      </trkpt>
      <trkpt lat="48.664371" lon="-1.515605">
        <ele>3.149</ele>
        <time>2026-08-21T19:24:58.999Z</time>
      </trkpt>
      <trkpt lat="48.664390" lon="-1.515606">
        <ele>3.083</ele>
        <time>2026-08-21T19:25:00.999Z</time>
      </trkpt>
      <trkpt lat="48.664399" lon="-1.515607">
        <ele>2.940</ele>
        <time>2026-08-21T19:25:01.999Z</time>
      </trkpt>
      <trkpt lat="48.664412" lon="-1.515603">
        <ele>2.922</ele>
        <time>2026-08-21T19:25:02.999Z</time>
      </trkpt>
      <trkpt lat="48.664425" lon="-1.515598">
        <ele>2.962</ele>
        <time>2026-08-21T19:25:03.999Z</time>
      </trkpt>
      <trkpt lat="48.664438" lon="-1.515595">
        <ele>2.908</ele>
        <time>2026-08-21T19:25:04.999Z</time>
      </trkpt>
      <trkpt lat="48.664449" lon="-1.515594">
        <ele>2.909</ele>
        <time>2026-08-21T19:25:05.999Z</time>
      </trkpt>
      <trkpt lat="48.664461" lon="-1.515597">
        <ele>2.914</ele>
        <time>2026-08-21T19:25:06.999Z</time>
      </trkpt>
      <trkpt lat="48.664481" lon="-1.515602">
        <ele>2.940</ele>
        <time>2026-08-21T19:25:08.999Z</time>
      </trkpt>
      <trkpt lat="48.664497" lon="-1.515594">
        <ele>3.093</ele>
        <time>2026-08-21T19:25:09.999Z</time>
      </trkpt>
      <trkpt lat="48.664510" lon="-1.515593">
        <ele>3.074</ele>
        <time>2026-08-21T19:25:10.999Z</time>
      </trkpt>
      <trkpt lat="48.664522" lon="-1.515596">
        <ele>3.017</ele>
        <time>2026-08-21T19:25:11.999Z</time>
      </trkpt>
      <trkpt lat="48.664531" lon="-1.515598">
        <ele>3.134</ele>
        <time>2026-08-21T19:25:12.999Z</time>
      </trkpt>
      <trkpt lat="48.664541" lon="-1.515598">
        <ele>3.165</ele>
        <time>2026-08-21T19:25:13.999Z</time>
      </trkpt>
      <trkpt lat="48.664553" lon="-1.515593">
        <ele>3.189</ele>
        <time>2026-08-21T19:25:14.999Z</time>
      </trkpt>
      <trkpt lat="48.664564" lon="-1.515591">
        <ele>3.136</ele>
        <time>2026-08-21T19:25:15.999Z</time>
      </trkpt>
      <trkpt lat="48.664573" lon="-1.515591">
        <ele>3.094</ele>
        <time>2026-08-21T19:25:16.999Z</time>
      </trkpt>
      <trkpt lat="48.664582" lon="-1.515594">
        <ele>3.057</ele>
        <time>2026-08-21T19:25:17.999Z</time>
      </trkpt>
      <trkpt lat="48.664598" lon="-1.515600">
        <ele>3.022</ele>
        <time>2026-08-21T19:25:19.999Z</time>
      </trkpt>
      <trkpt lat="48.664614" lon="-1.515604">
        <ele>3.009</ele>
        <time>2026-08-21T19:25:21.999Z</time>
      </trkpt>
      <trkpt lat="48.664631" lon="-1.515609">
        <ele>2.991</ele>
        <time>2026-08-21T19:25:23.999Z</time>
      </trkpt>
      <trkpt lat="48.664642" lon="-1.515609">
        <ele>2.967</ele>
        <time>2026-08-21T19:25:24.999Z</time>
      </trkpt>
      <trkpt lat="48.664653" lon="-1.515610">
        <ele>2.830</ele>
        <time>2026-08-21T19:25:25.999Z</time>
      </trkpt>
      <trkpt lat="48.664666" lon="-1.515609">
        <ele>2.881</ele>
        <time>2026-08-21T19:25:26.999Z</time>
      </trkpt>
      <trkpt lat="48.664676" lon="-1.515611">
        <ele>2.864</ele>
        <time>2026-08-21T19:25:27.999Z</time>
      </trkpt>
      <trkpt lat="48.664691" lon="-1.515607">
        <ele>2.871</ele>
        <time>2026-08-21T19:25:29.999Z</time>
      </trkpt>
      <trkpt lat="48.664702" lon="-1.515604">
        <ele>2.872</ele>
        <time>2026-08-21T19:25:30.999Z</time>
      </trkpt>
      <trkpt lat="48.664712" lon="-1.515602">
        <ele>2.886</ele>
        <time>2026-08-21T19:25:31.999Z</time>
      </trkpt>
      <trkpt lat="48.664729" lon="-1.515602">
        <ele>2.823</ele>
        <time>2026-08-21T19:25:33.999Z</time>
      </trkpt>
      <trkpt lat="48.664738" lon="-1.515603">
        <ele>2.867</ele>
        <time>2026-08-21T19:25:34.999Z</time>
      </trkpt>
      <trkpt lat="48.664751" lon="-1.515613">
        <ele>2.881</ele>
        <time>2026-08-21T19:25:36.999Z</time>
      </trkpt>
      <trkpt lat="48.664765" lon="-1.515609">
        <ele>2.819</ele>
        <time>2026-08-21T19:25:38.999Z</time>
      </trkpt>
      <trkpt lat="48.664780" lon="-1.515610">
        <ele>2.809</ele>
        <time>2026-08-21T19:25:40.999Z</time>
      </trkpt>
      <trkpt lat="48.664789" lon="-1.515614">
        <ele>2.738</ele>
        <time>2026-08-21T19:25:42.999Z</time>
      </trkpt>
      <trkpt lat="48.664778" lon="-1.515606">
        <ele>2.734</ele>
        <time>2026-08-21T19:25:46.999Z</time>
      </trkpt>
      <trkpt lat="48.664767" lon="-1.515601">
        <ele>2.647</ele>
        <time>2026-08-21T19:25:47.999Z</time>
      </trkpt>
      <trkpt lat="48.664754" lon="-1.515592">
        <ele>2.578</ele>
        <time>2026-08-21T19:25:48.999Z</time>
      </trkpt>
      <trkpt lat="48.664740" lon="-1.515585">
        <ele>2.511</ele>
        <time>2026-08-21T19:25:49.999Z</time>
      </trkpt>
      <trkpt lat="48.664730" lon="-1.515581">
        <ele>2.598</ele>
        <time>2026-08-21T19:25:50.999Z</time>
      </trkpt>
      <trkpt lat="48.664719" lon="-1.515579">
        <ele>2.469</ele>
        <time>2026-08-21T19:25:51.999Z</time>
      </trkpt>
      <trkpt lat="48.664706" lon="-1.515584">
        <ele>2.473</ele>
        <time>2026-08-21T19:25:52.999Z</time>
      </trkpt>
      <trkpt lat="48.664695" lon="-1.515578">
        <ele>2.480</ele>
        <time>2026-08-21T19:25:53.999Z</time>
      </trkpt>
      <trkpt lat="48.664686" lon="-1.515576">
        <ele>2.477</ele>
        <time>2026-08-21T19:25:54.999Z</time>
      </trkpt>
      <trkpt lat="48.664678" lon="-1.515566">
        <ele>2.461</ele>
        <time>2026-08-21T19:25:55.999Z</time>
      </trkpt>
      <trkpt lat="48.664667" lon="-1.515555">
        <ele>2.427</ele>
        <time>2026-08-21T19:25:57.999Z</time>
      </trkpt>
      <trkpt lat="48.664656" lon="-1.515542">
        <ele>2.409</ele>
        <time>2026-08-21T19:25:59.999Z</time>
      </trkpt>
      <trkpt lat="48.664663" lon="-1.515549">
        <ele>3.179</ele>
        <time>2026-08-21T19:26:38.999Z</time>
      </trkpt>
      <trkpt lat="48.664673" lon="-1.515555">
        <ele>3.235</ele>
        <time>2026-08-21T19:26:41.999Z</time>
      </trkpt>
      <trkpt lat="48.664682" lon="-1.515547">
        <ele>3.338</ele>
        <time>2026-08-21T19:26:42.999Z</time>
      </trkpt>
      <trkpt lat="48.664696" lon="-1.515543">
        <ele>3.489</ele>
        <time>2026-08-21T19:26:43.999Z</time>
      </trkpt>
      <trkpt lat="48.664710" lon="-1.515538">
        <ele>3.682</ele>
        <time>2026-08-21T19:26:44.999Z</time>
      </trkpt>
      <trkpt lat="48.664723" lon="-1.515536">
        <ele>3.629</ele>
        <time>2026-08-21T19:26:45.999Z</time>
      </trkpt>
      <trkpt lat="48.664734" lon="-1.515542">
        <ele>3.640</ele>
        <time>2026-08-21T19:26:46.999Z</time>
      </trkpt>
      <trkpt lat="48.664745" lon="-1.515548">
        <ele>3.634</ele>
        <time>2026-08-21T19:26:47.999Z</time>
      </trkpt>
      <trkpt lat="48.664755" lon="-1.515552">
        <ele>3.691</ele>
        <time>2026-08-21T19:26:48.999Z</time>
      </trkpt>
      <trkpt lat="48.664767" lon="-1.515552">
        <ele>3.679</ele>
        <time>2026-08-21T19:26:49.999Z</time>
      </trkpt>
      <trkpt lat="48.664778" lon="-1.515554">
        <ele>3.605</ele>
        <time>2026-08-21T19:26:50.999Z</time>
      </trkpt>
      <trkpt lat="48.664790" lon="-1.515556">
        <ele>3.625</ele>
        <time>2026-08-21T19:26:51.999Z</time>
      </trkpt>
      <trkpt lat="48.664801" lon="-1.515559">
        <ele>3.609</ele>
        <time>2026-08-21T19:26:52.999Z</time>
      </trkpt>
      <trkpt lat="48.664812" lon="-1.515568">
        <ele>3.639</ele>
        <time>2026-08-21T19:26:53.999Z</time>
      </trkpt>
      <trkpt lat="48.664825" lon="-1.515572">
        <ele>3.675</ele>
        <time>2026-08-21T19:26:54.999Z</time>
      </trkpt>
      <trkpt lat="48.664834" lon="-1.515574">
        <ele>3.658</ele>
        <time>2026-08-21T19:26:55.999Z</time>
      </trkpt>
      <trkpt lat="48.664844" lon="-1.515576">
        <ele>3.649</ele>
        <time>2026-08-21T19:26:56.999Z</time>
      </trkpt>
      <trkpt lat="48.664856" lon="-1.515578">
        <ele>3.672</ele>
        <time>2026-08-21T19:26:57.999Z</time>
      </trkpt>
      <trkpt lat="48.664868" lon="-1.515577">
        <ele>3.659</ele>
        <time>2026-08-21T19:26:58.999Z</time>
      </trkpt>
      <trkpt lat="48.664882" lon="-1.515575">
        <ele>3.660</ele>
        <time>2026-08-21T19:26:59.999Z</time>
      </trkpt>
      <trkpt lat="48.664892" lon="-1.515576">
        <ele>3.674</ele>
        <time>2026-08-21T19:27:00.999Z</time>
      </trkpt>
      <trkpt lat="48.664906" lon="-1.515577">
        <ele>3.611</ele>
        <time>2026-08-21T19:27:01.999Z</time>
      </trkpt>
      <trkpt lat="48.664918" lon="-1.515577">
        <ele>3.626</ele>
        <time>2026-08-21T19:27:02.999Z</time>
      </trkpt>
      <trkpt lat="48.664929" lon="-1.515578">
        <ele>3.547</ele>
        <time>2026-08-21T19:27:03.999Z</time>
      </trkpt>
      <trkpt lat="48.664940" lon="-1.515580">
        <ele>3.411</ele>
        <time>2026-08-21T19:27:04.999Z</time>
      </trkpt>
      <trkpt lat="48.664953" lon="-1.515581">
        <ele>3.309</ele>
        <time>2026-08-21T19:27:05.999Z</time>
      </trkpt>
      <trkpt lat="48.664971" lon="-1.515581">
        <ele>3.384</ele>
        <time>2026-08-21T19:27:06.999Z</time>
      </trkpt>
      <trkpt lat="48.664987" lon="-1.515581">
        <ele>3.350</ele>
        <time>2026-08-21T19:27:07.999Z</time>
      </trkpt>
      <trkpt lat="48.665001" lon="-1.515584">
        <ele>3.343</ele>
        <time>2026-08-21T19:27:08.999Z</time>
      </trkpt>
      <trkpt lat="48.665013" lon="-1.515587">
        <ele>3.294</ele>
        <time>2026-08-21T19:27:09.999Z</time>
      </trkpt>
      <trkpt lat="48.665024" lon="-1.515587">
        <ele>3.227</ele>
        <time>2026-08-21T19:27:10.999Z</time>
      </trkpt>
      <trkpt lat="48.665035" lon="-1.515587">
        <ele>3.144</ele>
        <time>2026-08-21T19:27:11.999Z</time>
      </trkpt>
      <trkpt lat="48.665045" lon="-1.515590">
        <ele>3.075</ele>
        <time>2026-08-21T19:27:12.999Z</time>
      </trkpt>
      <trkpt lat="48.665056" lon="-1.515593">
        <ele>2.919</ele>
        <time>2026-08-21T19:27:13.999Z</time>
      </trkpt>
      <trkpt lat="48.665067" lon="-1.515592">
        <ele>2.996</ele>
        <time>2026-08-21T19:27:14.999Z</time>
      </trkpt>
      <trkpt lat="48.665078" lon="-1.515593">
        <ele>2.814</ele>
        <time>2026-08-21T19:27:15.999Z</time>
      </trkpt>
      <trkpt lat="48.665090" lon="-1.515594">
        <ele>2.854</ele>
        <time>2026-08-21T19:27:16.999Z</time>
      </trkpt>
      <trkpt lat="48.665104" lon="-1.515597">
        <ele>2.809</ele>
        <time>2026-08-21T19:27:17.999Z</time>
      </trkpt>
      <trkpt lat="48.665116" lon="-1.515599">
        <ele>2.809</ele>
        <time>2026-08-21T19:27:18.999Z</time>
      </trkpt>
      <trkpt lat="48.665129" lon="-1.515598">
        <ele>2.893</ele>
        <time>2026-08-21T19:27:19.999Z</time>
      </trkpt>
      <trkpt lat="48.665143" lon="-1.515596">
        <ele>2.829</ele>
        <time>2026-08-21T19:27:20.999Z</time>
      </trkpt>
      <trkpt lat="48.665156" lon="-1.515592">
        <ele>2.812</ele>
        <time>2026-08-21T19:27:21.999Z</time>
      </trkpt>
      <trkpt lat="48.665168" lon="-1.515593">
        <ele>2.813</ele>
        <time>2026-08-21T19:27:22.999Z</time>
      </trkpt>
      <trkpt lat="48.665186" lon="-1.515603">
        <ele>2.886</ele>
        <time>2026-08-21T19:27:24.999Z</time>
      </trkpt>
      <trkpt lat="48.665199" lon="-1.515607">
        <ele>2.823</ele>
        <time>2026-08-21T19:27:25.999Z</time>
      </trkpt>
      <trkpt lat="48.665211" lon="-1.515608">
        <ele>2.834</ele>
        <time>2026-08-21T19:27:26.999Z</time>
      </trkpt>
      <trkpt lat="48.665223" lon="-1.515605">
        <ele>2.888</ele>
        <time>2026-08-21T19:27:27.999Z</time>
      </trkpt>
      <trkpt lat="48.665236" lon="-1.515600">
        <ele>2.825</ele>
        <time>2026-08-21T19:27:28.999Z</time>
      </trkpt>
      <trkpt lat="48.665248" lon="-1.515594">
        <ele>2.822</ele>
        <time>2026-08-21T19:27:29.999Z</time>
      </trkpt>
      <trkpt lat="48.665259" lon="-1.515594">
        <ele>2.862</ele>
        <time>2026-08-21T19:27:30.999Z</time>
      </trkpt>
      <trkpt lat="48.665272" lon="-1.515600">
        <ele>2.908</ele>
        <time>2026-08-21T19:27:31.999Z</time>
      </trkpt>
      <trkpt lat="48.665284" lon="-1.515604">
        <ele>3.009</ele>
        <time>2026-08-21T19:27:32.999Z</time>
      </trkpt>
      <trkpt lat="48.665296" lon="-1.515608">
        <ele>3.074</ele>
        <time>2026-08-21T19:27:33.999Z</time>
      </trkpt>
      <trkpt lat="48.665309" lon="-1.515607">
        <ele>3.040</ele>
        <time>2026-08-21T19:27:34.999Z</time>
      </trkpt>
      <trkpt lat="48.665322" lon="-1.515609">
        <ele>3.093</ele>
        <time>2026-08-21T19:27:35.999Z</time>
      </trkpt>
      <trkpt lat="48.665334" lon="-1.515612">
        <ele>3.064</ele>
        <time>2026-08-21T19:27:36.999Z</time>
      </trkpt>
      <trkpt lat="48.665346" lon="-1.515616">
        <ele>3.067</ele>
        <time>2026-08-21T19:27:37.999Z</time>
      </trkpt>
      <trkpt lat="48.665357" lon="-1.515620">
        <ele>3.034</ele>
        <time>2026-08-21T19:27:38.999Z</time>
      </trkpt>
      <trkpt lat="48.665375" lon="-1.515625">
        <ele>3.015</ele>
        <time>2026-08-21T19:27:40.999Z</time>
      </trkpt>
      <trkpt lat="48.665387" lon="-1.515624">
        <ele>3.049</ele>
        <time>2026-08-21T19:27:41.999Z</time>
      </trkpt>
      <trkpt lat="48.665409" lon="-1.515619">
        <ele>3.056</ele>
        <time>2026-08-21T19:27:43.999Z</time>
      </trkpt>
      <trkpt lat="48.665422" lon="-1.515618">
        <ele>3.023</ele>
        <time>2026-08-21T19:27:44.999Z</time>
      </trkpt>
      <trkpt lat="48.665434" lon="-1.515623">
        <ele>3.083</ele>
        <time>2026-08-21T19:27:45.999Z</time>
      </trkpt>
      <trkpt lat="48.665446" lon="-1.515628">
        <ele>3.011</ele>
        <time>2026-08-21T19:27:46.999Z</time>
      </trkpt>
      <trkpt lat="48.665459" lon="-1.515634">
        <ele>3.009</ele>
        <time>2026-08-21T19:27:47.999Z</time>
      </trkpt>
      <trkpt lat="48.665474" lon="-1.515634">
        <ele>3.014</ele>
        <time>2026-08-21T19:27:48.999Z</time>
      </trkpt>
      <trkpt lat="48.665489" lon="-1.515631">
        <ele>3.030</ele>
        <time>2026-08-21T19:27:49.999Z</time>
      </trkpt>
      <trkpt lat="48.665503" lon="-1.515631">
        <ele>3.053</ele>
        <time>2026-08-21T19:27:50.999Z</time>
      </trkpt>
      <trkpt lat="48.665515" lon="-1.515635">
        <ele>3.054</ele>
        <time>2026-08-21T19:27:51.999Z</time>
      </trkpt>
      <trkpt lat="48.665527" lon="-1.515637">
        <ele>3.017</ele>
        <time>2026-08-21T19:27:52.999Z</time>
      </trkpt>
      <trkpt lat="48.665541" lon="-1.515635">
        <ele>3.064</ele>
        <time>2026-08-21T19:27:53.999Z</time>
      </trkpt>
      <trkpt lat="48.665553" lon="-1.515642">
        <ele>3.015</ele>
        <time>2026-08-21T19:27:54.999Z</time>
      </trkpt>
      <trkpt lat="48.665562" lon="-1.515645">
        <ele>3.119</ele>
        <time>2026-08-21T19:27:55.999Z</time>
      </trkpt>
      <trkpt lat="48.665573" lon="-1.515643">
        <ele>3.026</ele>
        <time>2026-08-21T19:27:56.999Z</time>
      </trkpt>
      <trkpt lat="48.665586" lon="-1.515643">
        <ele>3.032</ele>
        <time>2026-08-21T19:27:57.999Z</time>
      </trkpt>
      <trkpt lat="48.665597" lon="-1.515643">
        <ele>3.092</ele>
        <time>2026-08-21T19:27:58.999Z</time>
      </trkpt>
      <trkpt lat="48.665608" lon="-1.515644">
        <ele>3.011</ele>
        <time>2026-08-21T19:27:59.999Z</time>
      </trkpt>
      <trkpt lat="48.665619" lon="-1.515644">
        <ele>3.009</ele>
        <time>2026-08-21T19:28:00.999Z</time>
      </trkpt>
      <trkpt lat="48.665636" lon="-1.515645">
        <ele>3.075</ele>
        <time>2026-08-21T19:28:02.999Z</time>
      </trkpt>
      <trkpt lat="48.665649" lon="-1.515647">
        <ele>3.021</ele>
        <time>2026-08-21T19:28:03.999Z</time>
      </trkpt>
      <trkpt lat="48.665663" lon="-1.515650">
        <ele>3.024</ele>
        <time>2026-08-21T19:28:04.999Z</time>
      </trkpt>
      <trkpt lat="48.665677" lon="-1.515654">
        <ele>3.085</ele>
        <time>2026-08-21T19:28:05.999Z</time>
      </trkpt>
      <trkpt lat="48.665689" lon="-1.515657">
        <ele>3.028</ele>
        <time>2026-08-21T19:28:06.999Z</time>
      </trkpt>
      <trkpt lat="48.665701" lon="-1.515659">
        <ele>3.025</ele>
        <time>2026-08-21T19:28:07.999Z</time>
      </trkpt>
      <trkpt lat="48.665712" lon="-1.515661">
        <ele>3.056</ele>
        <time>2026-08-21T19:28:08.999Z</time>
      </trkpt>
      <trkpt lat="48.665724" lon="-1.515664">
        <ele>3.020</ele>
        <time>2026-08-21T19:28:09.999Z</time>
      </trkpt>
      <trkpt lat="48.665736" lon="-1.515673">
        <ele>3.027</ele>
        <time>2026-08-21T19:28:10.999Z</time>
      </trkpt>
      <trkpt lat="48.665748" lon="-1.515670">
        <ele>3.089</ele>
        <time>2026-08-21T19:28:11.999Z</time>
      </trkpt>
      <trkpt lat="48.665758" lon="-1.515671">
        <ele>3.006</ele>
        <time>2026-08-21T19:28:12.999Z</time>
      </trkpt>
      <trkpt lat="48.665769" lon="-1.515672">
        <ele>3.026</ele>
        <time>2026-08-21T19:28:13.999Z</time>
      </trkpt>
      <trkpt lat="48.665779" lon="-1.515677">
        <ele>3.009</ele>
        <time>2026-08-21T19:28:14.999Z</time>
      </trkpt>
      <trkpt lat="48.665792" lon="-1.515680">
        <ele>3.020</ele>
        <time>2026-08-21T19:28:15.999Z</time>
      </trkpt>
      <trkpt lat="48.665804" lon="-1.515684">
        <ele>3.066</ele>
        <time>2026-08-21T19:28:16.999Z</time>
      </trkpt>
      <trkpt lat="48.665818" lon="-1.515691">
        <ele>3.049</ele>
        <time>2026-08-21T19:28:17.999Z</time>
      </trkpt>
      <trkpt lat="48.665829" lon="-1.515689">
        <ele>3.020</ele>
        <time>2026-08-21T19:28:18.999Z</time>
      </trkpt>
      <trkpt lat="48.665841" lon="-1.515689">
        <ele>3.183</ele>
        <time>2026-08-21T19:28:19.999Z</time>
      </trkpt>
      <trkpt lat="48.665853" lon="-1.515689">
        <ele>3.130</ele>
        <time>2026-08-21T19:28:20.999Z</time>
      </trkpt>
      <trkpt lat="48.665867" lon="-1.515687">
        <ele>3.171</ele>
        <time>2026-08-21T19:28:21.999Z</time>
      </trkpt>
      <trkpt lat="48.665883" lon="-1.515690">
        <ele>3.125</ele>
        <time>2026-08-21T19:28:22.999Z</time>
      </trkpt>
      <trkpt lat="48.665898" lon="-1.515692">
        <ele>3.142</ele>
        <time>2026-08-21T19:28:23.999Z</time>
      </trkpt>
      <trkpt lat="48.665911" lon="-1.515695">
        <ele>3.081</ele>
        <time>2026-08-21T19:28:24.999Z</time>
      </trkpt>
      <trkpt lat="48.665923" lon="-1.515695">
        <ele>3.061</ele>
        <time>2026-08-21T19:28:25.999Z</time>
      </trkpt>
      <trkpt lat="48.665933" lon="-1.515701">
        <ele>3.017</ele>
        <time>2026-08-21T19:28:26.999Z</time>
      </trkpt>
      <trkpt lat="48.665942" lon="-1.515705">
        <ele>3.009</ele>
        <time>2026-08-21T19:28:27.999Z</time>
      </trkpt>
      <trkpt lat="48.665955" lon="-1.515705">
        <ele>3.050</ele>
        <time>2026-08-21T19:28:28.999Z</time>
      </trkpt>
      <trkpt lat="48.665965" lon="-1.515705">
        <ele>3.026</ele>
        <time>2026-08-21T19:28:29.999Z</time>
      </trkpt>
      <trkpt lat="48.665980" lon="-1.515704">
        <ele>2.939</ele>
        <time>2026-08-21T19:28:30.999Z</time>
      </trkpt>
      <trkpt lat="48.665997" lon="-1.515706">
        <ele>2.850</ele>
        <time>2026-08-21T19:28:31.999Z</time>
      </trkpt>
      <trkpt lat="48.666010" lon="-1.515706">
        <ele>2.833</ele>
        <time>2026-08-21T19:28:32.999Z</time>
      </trkpt>
      <trkpt lat="48.666023" lon="-1.515709">
        <ele>2.760</ele>
        <time>2026-08-21T19:28:33.999Z</time>
      </trkpt>
      <trkpt lat="48.666034" lon="-1.515712">
        <ele>2.751</ele>
        <time>2026-08-21T19:28:34.999Z</time>
      </trkpt>
      <trkpt lat="48.666046" lon="-1.515719">
        <ele>2.725</ele>
        <time>2026-08-21T19:28:35.999Z</time>
      </trkpt>
      <trkpt lat="48.666057" lon="-1.515720">
        <ele>2.772</ele>
        <time>2026-08-21T19:28:36.999Z</time>
      </trkpt>
      <trkpt lat="48.666071" lon="-1.515719">
        <ele>2.758</ele>
        <time>2026-08-21T19:28:37.999Z</time>
      </trkpt>
      <trkpt lat="48.666083" lon="-1.515717">
        <ele>2.752</ele>
        <time>2026-08-21T19:28:38.999Z</time>
      </trkpt>
      <trkpt lat="48.666096" lon="-1.515716">
        <ele>2.617</ele>
        <time>2026-08-21T19:28:39.999Z</time>
      </trkpt>
      <trkpt lat="48.666109" lon="-1.515719">
        <ele>2.609</ele>
        <time>2026-08-21T19:28:40.999Z</time>
      </trkpt>
      <trkpt lat="48.666121" lon="-1.515724">
        <ele>2.647</ele>
        <time>2026-08-21T19:28:41.999Z</time>
      </trkpt>
      <trkpt lat="48.666132" lon="-1.515731">
        <ele>2.573</ele>
        <time>2026-08-21T19:28:42.999Z</time>
      </trkpt>
      <trkpt lat="48.666143" lon="-1.515736">
        <ele>2.576</ele>
        <time>2026-08-21T19:28:43.999Z</time>
      </trkpt>
      <trkpt lat="48.666155" lon="-1.515742">
        <ele>2.517</ele>
        <time>2026-08-21T19:28:44.999Z</time>
      </trkpt>
      <trkpt lat="48.666167" lon="-1.515741">
        <ele>2.520</ele>
        <time>2026-08-21T19:28:45.999Z</time>
      </trkpt>
      <trkpt lat="48.666177" lon="-1.515740">
        <ele>2.587</ele>
        <time>2026-08-21T19:28:46.999Z</time>
      </trkpt>
      <trkpt lat="48.666188" lon="-1.515737">
        <ele>2.548</ele>
        <time>2026-08-21T19:28:47.999Z</time>
      </trkpt>
      <trkpt lat="48.666201" lon="-1.515737">
        <ele>2.542</ele>
        <time>2026-08-21T19:28:48.999Z</time>
      </trkpt>
      <trkpt lat="48.666214" lon="-1.515738">
        <ele>2.599</ele>
        <time>2026-08-21T19:28:49.999Z</time>
      </trkpt>
      <trkpt lat="48.666225" lon="-1.515741">
        <ele>2.583</ele>
        <time>2026-08-21T19:28:50.999Z</time>
      </trkpt>
      <trkpt lat="48.666236" lon="-1.515747">
        <ele>2.525</ele>
        <time>2026-08-21T19:28:51.999Z</time>
      </trkpt>
      <trkpt lat="48.666252" lon="-1.515747">
        <ele>2.517</ele>
        <time>2026-08-21T19:28:52.999Z</time>
      </trkpt>
      <trkpt lat="48.666265" lon="-1.515744">
        <ele>2.509</ele>
        <time>2026-08-21T19:28:53.999Z</time>
      </trkpt>
      <trkpt lat="48.666278" lon="-1.515741">
        <ele>2.590</ele>
        <time>2026-08-21T19:28:54.999Z</time>
      </trkpt>
      <trkpt lat="48.666290" lon="-1.515739">
        <ele>2.596</ele>
        <time>2026-08-21T19:28:55.999Z</time>
      </trkpt>
      <trkpt lat="48.666301" lon="-1.515739">
        <ele>2.539</ele>
        <time>2026-08-21T19:28:56.999Z</time>
      </trkpt>
      <trkpt lat="48.666313" lon="-1.515738">
        <ele>2.560</ele>
        <time>2026-08-21T19:28:57.999Z</time>
      </trkpt>
      <trkpt lat="48.666326" lon="-1.515742">
        <ele>2.513</ele>
        <time>2026-08-21T19:28:58.999Z</time>
      </trkpt>
      <trkpt lat="48.666338" lon="-1.515746">
        <ele>2.570</ele>
        <time>2026-08-21T19:28:59.999Z</time>
      </trkpt>
      <trkpt lat="48.666350" lon="-1.515750">
        <ele>2.681</ele>
        <time>2026-08-21T19:29:00.999Z</time>
      </trkpt>
      <trkpt lat="48.666360" lon="-1.515752">
        <ele>2.795</ele>
        <time>2026-08-21T19:29:01.999Z</time>
      </trkpt>
      <trkpt lat="48.666374" lon="-1.515751">
        <ele>2.782</ele>
        <time>2026-08-21T19:29:02.999Z</time>
      </trkpt>
      <trkpt lat="48.666384" lon="-1.515751">
        <ele>2.793</ele>
        <time>2026-08-21T19:29:03.999Z</time>
      </trkpt>
      <trkpt lat="48.666395" lon="-1.515751">
        <ele>2.765</ele>
        <time>2026-08-21T19:29:04.999Z</time>
      </trkpt>
      <trkpt lat="48.666409" lon="-1.515751">
        <ele>2.721</ele>
        <time>2026-08-21T19:29:05.999Z</time>
      </trkpt>
      <trkpt lat="48.666422" lon="-1.515749">
        <ele>2.709</ele>
        <time>2026-08-21T19:29:06.999Z</time>
      </trkpt>
      <trkpt lat="48.666434" lon="-1.515748">
        <ele>2.741</ele>
        <time>2026-08-21T19:29:07.999Z</time>
      </trkpt>
      <trkpt lat="48.666446" lon="-1.515750">
        <ele>2.787</ele>
        <time>2026-08-21T19:29:08.999Z</time>
      </trkpt>
      <trkpt lat="48.666456" lon="-1.515754">
        <ele>2.760</ele>
        <time>2026-08-21T19:29:09.999Z</time>
      </trkpt>
      <trkpt lat="48.666467" lon="-1.515753">
        <ele>2.751</ele>
        <time>2026-08-21T19:29:10.999Z</time>
      </trkpt>
      <trkpt lat="48.666478" lon="-1.515750">
        <ele>2.764</ele>
        <time>2026-08-21T19:29:11.999Z</time>
      </trkpt>
      <trkpt lat="48.666489" lon="-1.515751">
        <ele>2.741</ele>
        <time>2026-08-21T19:29:12.999Z</time>
      </trkpt>
      <trkpt lat="48.666503" lon="-1.515756">
        <ele>2.742</ele>
        <time>2026-08-21T19:29:13.999Z</time>
      </trkpt>
      <trkpt lat="48.666516" lon="-1.515758">
        <ele>2.726</ele>
        <time>2026-08-21T19:29:14.999Z</time>
      </trkpt>
      <trkpt lat="48.666530" lon="-1.515759">
        <ele>2.753</ele>
        <time>2026-08-21T19:29:15.999Z</time>
      </trkpt>
      <trkpt lat="48.666542" lon="-1.515762">
        <ele>2.731</ele>
        <time>2026-08-21T19:29:16.999Z</time>
      </trkpt>
      <trkpt lat="48.666556" lon="-1.515764">
        <ele>2.761</ele>
        <time>2026-08-21T19:29:17.999Z</time>
      </trkpt>
      <trkpt lat="48.666569" lon="-1.515761">
        <ele>2.707</ele>
        <time>2026-08-21T19:29:18.999Z</time>
      </trkpt>
      <trkpt lat="48.666579" lon="-1.515756">
        <ele>2.709</ele>
        <time>2026-08-21T19:29:19.999Z</time>
      </trkpt>
      <trkpt lat="48.666593" lon="-1.515753">
        <ele>2.735</ele>
        <time>2026-08-21T19:29:20.999Z</time>
      </trkpt>
      <trkpt lat="48.666606" lon="-1.515751">
        <ele>2.731</ele>
        <time>2026-08-21T19:29:21.999Z</time>
      </trkpt>
      <trkpt lat="48.666616" lon="-1.515754">
        <ele>2.744</ele>
        <time>2026-08-21T19:29:22.999Z</time>
      </trkpt>
      <trkpt lat="48.666630" lon="-1.515759">
        <ele>2.715</ele>
        <time>2026-08-21T19:29:23.999Z</time>
      </trkpt>
      <trkpt lat="48.666642" lon="-1.515764">
        <ele>2.838</ele>
        <time>2026-08-21T19:29:24.999Z</time>
      </trkpt>
      <trkpt lat="48.666654" lon="-1.515769">
        <ele>2.885</ele>
        <time>2026-08-21T19:29:25.999Z</time>
      </trkpt>
      <trkpt lat="48.666669" lon="-1.515774">
        <ele>2.846</ele>
        <time>2026-08-21T19:29:26.999Z</time>
      </trkpt>
      <trkpt lat="48.666679" lon="-1.515774">
        <ele>2.890</ele>
        <time>2026-08-21T19:29:27.999Z</time>
      </trkpt>
      <trkpt lat="48.666690" lon="-1.515771">
        <ele>2.857</ele>
        <time>2026-08-21T19:29:28.999Z</time>
      </trkpt>
      <trkpt lat="48.666702" lon="-1.515769">
        <ele>2.854</ele>
        <time>2026-08-21T19:29:29.999Z</time>
      </trkpt>
      <trkpt lat="48.666713" lon="-1.515768">
        <ele>3.056</ele>
        <time>2026-08-21T19:29:30.999Z</time>
      </trkpt>
      <trkpt lat="48.666725" lon="-1.515769">
        <ele>3.111</ele>
        <time>2026-08-21T19:29:31.999Z</time>
      </trkpt>
      <trkpt lat="48.666736" lon="-1.515769">
        <ele>3.209</ele>
        <time>2026-08-21T19:29:32.999Z</time>
      </trkpt>
      <trkpt lat="48.666747" lon="-1.515769">
        <ele>3.287</ele>
        <time>2026-08-21T19:29:33.999Z</time>
      </trkpt>
      <trkpt lat="48.666757" lon="-1.515771">
        <ele>3.263</ele>
        <time>2026-08-21T19:29:34.999Z</time>
      </trkpt>
      <trkpt lat="48.666769" lon="-1.515767">
        <ele>3.246</ele>
        <time>2026-08-21T19:29:35.999Z</time>
      </trkpt>
      <trkpt lat="48.666782" lon="-1.515764">
        <ele>3.297</ele>
        <time>2026-08-21T19:29:36.999Z</time>
      </trkpt>
      <trkpt lat="48.666795" lon="-1.515762">
        <ele>3.290</ele>
        <time>2026-08-21T19:29:37.999Z</time>
      </trkpt>
      <trkpt lat="48.666808" lon="-1.515761">
        <ele>3.317</ele>
        <time>2026-08-21T19:29:38.999Z</time>
      </trkpt>
      <trkpt lat="48.666819" lon="-1.515762">
        <ele>3.398</ele>
        <time>2026-08-21T19:29:39.999Z</time>
      </trkpt>
      <trkpt lat="48.666829" lon="-1.515766">
        <ele>3.392</ele>
        <time>2026-08-21T19:29:40.999Z</time>
      </trkpt>
      <trkpt lat="48.666840" lon="-1.515769">
        <ele>3.379</ele>
        <time>2026-08-21T19:29:41.999Z</time>
      </trkpt>
      <trkpt lat="48.666854" lon="-1.515771">
        <ele>3.367</ele>
        <time>2026-08-21T19:29:42.999Z</time>
      </trkpt>
      <trkpt lat="48.666868" lon="-1.515774">
        <ele>3.381</ele>
        <time>2026-08-21T19:29:43.999Z</time>
      </trkpt>
      <trkpt lat="48.666883" lon="-1.515774">
        <ele>3.419</ele>
        <time>2026-08-21T19:29:44.999Z</time>
      </trkpt>
      <trkpt lat="48.666898" lon="-1.515773">
        <ele>3.409</ele>
        <time>2026-08-21T19:29:45.999Z</time>
      </trkpt>
      <trkpt lat="48.666911" lon="-1.515772">
        <ele>3.478</ele>
        <time>2026-08-21T19:29:46.999Z</time>
      </trkpt>
      <trkpt lat="48.666923" lon="-1.515769">
        <ele>3.464</ele>
        <time>2026-08-21T19:29:47.999Z</time>
      </trkpt>
      <trkpt lat="48.666937" lon="-1.515767">
        <ele>3.427</ele>
        <time>2026-08-21T19:29:48.999Z</time>
      </trkpt>
      <trkpt lat="48.666948" lon="-1.515769">
        <ele>3.468</ele>
        <time>2026-08-21T19:29:49.999Z</time>
      </trkpt>
      <trkpt lat="48.666959" lon="-1.515773">
        <ele>3.411</ele>
        <time>2026-08-21T19:29:50.999Z</time>
      </trkpt>
      <trkpt lat="48.666970" lon="-1.515771">
        <ele>3.488</ele>
        <time>2026-08-21T19:29:51.999Z</time>
      </trkpt>
      <trkpt lat="48.666989" lon="-1.515777">
        <ele>3.449</ele>
        <time>2026-08-21T19:29:53.999Z</time>
      </trkpt>
      <trkpt lat="48.667001" lon="-1.515778">
        <ele>3.433</ele>
        <time>2026-08-21T19:29:54.999Z</time>
      </trkpt>
      <trkpt lat="48.667012" lon="-1.515773">
        <ele>3.440</ele>
        <time>2026-08-21T19:29:55.999Z</time>
      </trkpt>
      <trkpt lat="48.667028" lon="-1.515772">
        <ele>3.418</ele>
        <time>2026-08-21T19:29:56.999Z</time>
      </trkpt>
      <trkpt lat="48.667044" lon="-1.515774">
        <ele>3.498</ele>
        <time>2026-08-21T19:29:57.999Z</time>
      </trkpt>
      <trkpt lat="48.667057" lon="-1.515775">
        <ele>3.417</ele>
        <time>2026-08-21T19:29:58.999Z</time>
      </trkpt>
      <trkpt lat="48.667070" lon="-1.515777">
        <ele>3.409</ele>
        <time>2026-08-21T19:29:59.999Z</time>
      </trkpt>
      <trkpt lat="48.667079" lon="-1.515777">
        <ele>3.413</ele>
        <time>2026-08-21T19:30:00.999Z</time>
      </trkpt>
      <trkpt lat="48.667091" lon="-1.515773">
        <ele>3.459</ele>
        <time>2026-08-21T19:30:01.999Z</time>
      </trkpt>
      <trkpt lat="48.667104" lon="-1.515771">
        <ele>3.442</ele>
        <time>2026-08-21T19:30:02.999Z</time>
      </trkpt>
      <trkpt lat="48.667116" lon="-1.515774">
        <ele>3.443</ele>
        <time>2026-08-21T19:30:03.999Z</time>
      </trkpt>
      <trkpt lat="48.667130" lon="-1.515776">
        <ele>3.596</ele>
        <time>2026-08-21T19:30:04.999Z</time>
      </trkpt>
      <trkpt lat="48.667144" lon="-1.515779">
        <ele>3.523</ele>
        <time>2026-08-21T19:30:05.999Z</time>
      </trkpt>
      <trkpt lat="48.667156" lon="-1.515780">
        <ele>3.594</ele>
        <time>2026-08-21T19:30:06.999Z</time>
      </trkpt>
      <trkpt lat="48.667166" lon="-1.515782">
        <ele>3.568</ele>
        <time>2026-08-21T19:30:07.999Z</time>
      </trkpt>
      <trkpt lat="48.667177" lon="-1.515786">
        <ele>3.545</ele>
        <time>2026-08-21T19:30:08.999Z</time>
      </trkpt>
      <trkpt lat="48.667188" lon="-1.515791">
        <ele>3.538</ele>
        <time>2026-08-21T19:30:09.999Z</time>
      </trkpt>
      <trkpt lat="48.667200" lon="-1.515795">
        <ele>3.570</ele>
        <time>2026-08-21T19:30:10.999Z</time>
      </trkpt>
      <trkpt lat="48.667215" lon="-1.515797">
        <ele>3.517</ele>
        <time>2026-08-21T19:30:11.999Z</time>
      </trkpt>
      <trkpt lat="48.667229" lon="-1.515796">
        <ele>3.509</ele>
        <time>2026-08-21T19:30:12.999Z</time>
      </trkpt>
      <trkpt lat="48.667243" lon="-1.515792">
        <ele>3.585</ele>
        <time>2026-08-21T19:30:13.999Z</time>
      </trkpt>
      <trkpt lat="48.667254" lon="-1.515790">
        <ele>3.571</ele>
        <time>2026-08-21T19:30:14.999Z</time>
      </trkpt>
      <trkpt lat="48.667266" lon="-1.515788">
        <ele>3.524</ele>
        <time>2026-08-21T19:30:15.999Z</time>
      </trkpt>
      <trkpt lat="48.667276" lon="-1.515790">
        <ele>3.565</ele>
        <time>2026-08-21T19:30:16.999Z</time>
      </trkpt>
      <trkpt lat="48.667289" lon="-1.515791">
        <ele>3.598</ele>
        <time>2026-08-21T19:30:17.999Z</time>
      </trkpt>
      <trkpt lat="48.667302" lon="-1.515792">
        <ele>3.445</ele>
        <time>2026-08-21T19:30:18.999Z</time>
      </trkpt>
      <trkpt lat="48.667315" lon="-1.515788">
        <ele>3.486</ele>
        <time>2026-08-21T19:30:19.999Z</time>
      </trkpt>
      <trkpt lat="48.667328" lon="-1.515783">
        <ele>3.460</ele>
        <time>2026-08-21T19:30:20.999Z</time>
      </trkpt>
      <trkpt lat="48.667340" lon="-1.515782">
        <ele>3.487</ele>
        <time>2026-08-21T19:30:21.999Z</time>
      </trkpt>
      <trkpt lat="48.667354" lon="-1.515785">
        <ele>3.411</ele>
        <time>2026-08-21T19:30:22.999Z</time>
      </trkpt>
      <trkpt lat="48.667368" lon="-1.515788">
        <ele>3.421</ele>
        <time>2026-08-21T19:30:23.999Z</time>
      </trkpt>
      <trkpt lat="48.667378" lon="-1.515791">
        <ele>3.403</ele>
        <time>2026-08-21T19:30:24.999Z</time>
      </trkpt>
      <trkpt lat="48.667388" lon="-1.515792">
        <ele>3.309</ele>
        <time>2026-08-21T19:30:25.999Z</time>
      </trkpt>
      <trkpt lat="48.667398" lon="-1.515791">
        <ele>3.373</ele>
        <time>2026-08-21T19:30:26.999Z</time>
      </trkpt>
      <trkpt lat="48.667408" lon="-1.515790">
        <ele>3.229</ele>
        <time>2026-08-21T19:30:27.999Z</time>
      </trkpt>
      <trkpt lat="48.667421" lon="-1.515786">
        <ele>3.282</ele>
        <time>2026-08-21T19:30:28.999Z</time>
      </trkpt>
      <trkpt lat="48.667435" lon="-1.515782">
        <ele>3.213</ele>
        <time>2026-08-21T19:30:29.999Z</time>
      </trkpt>
      <trkpt lat="48.667446" lon="-1.515779">
        <ele>3.196</ele>
        <time>2026-08-21T19:30:30.999Z</time>
      </trkpt>
      <trkpt lat="48.667458" lon="-1.515779">
        <ele>3.143</ele>
        <time>2026-08-21T19:30:31.999Z</time>
      </trkpt>
      <trkpt lat="48.667470" lon="-1.515778">
        <ele>3.124</ele>
        <time>2026-08-21T19:30:32.999Z</time>
      </trkpt>
      <trkpt lat="48.667484" lon="-1.515776">
        <ele>3.098</ele>
        <time>2026-08-21T19:30:33.999Z</time>
      </trkpt>
      <trkpt lat="48.667497" lon="-1.515776">
        <ele>3.025</ele>
        <time>2026-08-21T19:30:34.999Z</time>
      </trkpt>
      <trkpt lat="48.667511" lon="-1.515775">
        <ele>3.089</ele>
        <time>2026-08-21T19:30:35.999Z</time>
      </trkpt>
      <trkpt lat="48.667522" lon="-1.515778">
        <ele>3.006</ele>
        <time>2026-08-21T19:30:36.999Z</time>
      </trkpt>
      <trkpt lat="48.667534" lon="-1.515777">
        <ele>3.026</ele>
        <time>2026-08-21T19:30:37.999Z</time>
      </trkpt>
      <trkpt lat="48.667548" lon="-1.515772">
        <ele>3.009</ele>
        <time>2026-08-21T19:30:38.999Z</time>
      </trkpt>
      <trkpt lat="48.667563" lon="-1.515772">
        <ele>3.080</ele>
        <time>2026-08-21T19:30:39.999Z</time>
      </trkpt>
      <trkpt lat="48.667577" lon="-1.515774">
        <ele>3.076</ele>
        <time>2026-08-21T19:30:40.999Z</time>
      </trkpt>
      <trkpt lat="48.667588" lon="-1.515778">
        <ele>2.929</ele>
        <time>2026-08-21T19:30:41.999Z</time>
      </trkpt>
      <trkpt lat="48.667599" lon="-1.515782">
        <ele>2.860</ele>
        <time>2026-08-21T19:30:42.999Z</time>
      </trkpt>
      <trkpt lat="48.667611" lon="-1.515786">
        <ele>2.833</ele>
        <time>2026-08-21T19:30:43.999Z</time>
      </trkpt>
      <trkpt lat="48.667621" lon="-1.515791">
        <ele>2.840</ele>
        <time>2026-08-21T19:30:44.999Z</time>
      </trkpt>
      <trkpt lat="48.667634" lon="-1.515791">
        <ele>2.831</ele>
        <time>2026-08-21T19:30:45.999Z</time>
      </trkpt>
      <trkpt lat="48.667648" lon="-1.515793">
        <ele>2.815</ele>
        <time>2026-08-21T19:30:46.999Z</time>
      </trkpt>
      <trkpt lat="48.667660" lon="-1.515786">
        <ele>2.882</ele>
        <time>2026-08-21T19:30:47.999Z</time>
      </trkpt>
      <trkpt lat="48.667673" lon="-1.515784">
        <ele>2.848</ele>
        <time>2026-08-21T19:30:48.999Z</time>
      </trkpt>
      <trkpt lat="48.667686" lon="-1.515784">
        <ele>2.861</ele>
        <time>2026-08-21T19:30:49.999Z</time>
      </trkpt>
      <trkpt lat="48.667697" lon="-1.515785">
        <ele>2.817</ele>
        <time>2026-08-21T19:30:50.999Z</time>
      </trkpt>
      <trkpt lat="48.667709" lon="-1.515790">
        <ele>2.809</ele>
        <time>2026-08-21T19:30:51.999Z</time>
      </trkpt>
      <trkpt lat="48.667721" lon="-1.515793">
        <ele>2.836</ele>
        <time>2026-08-21T19:30:52.999Z</time>
      </trkpt>
      <trkpt lat="48.667734" lon="-1.515791">
        <ele>2.842</ele>
        <time>2026-08-21T19:30:53.999Z</time>
      </trkpt>
      <trkpt lat="48.667747" lon="-1.515789">
        <ele>2.885</ele>
        <time>2026-08-21T19:30:54.999Z</time>
      </trkpt>
      <trkpt lat="48.667759" lon="-1.515788">
        <ele>2.856</ele>
        <time>2026-08-21T19:30:55.999Z</time>
      </trkpt>
      <trkpt lat="48.667774" lon="-1.515786">
        <ele>2.879</ele>
        <time>2026-08-21T19:30:56.999Z</time>
      </trkpt>
      <trkpt lat="48.667783" lon="-1.515782">
        <ele>2.826</ele>
        <time>2026-08-21T19:30:57.999Z</time>
      </trkpt>
      <trkpt lat="48.667794" lon="-1.515783">
        <ele>2.817</ele>
        <time>2026-08-21T19:30:58.999Z</time>
      </trkpt>
      <trkpt lat="48.667804" lon="-1.515788">
        <ele>2.861</ele>
        <time>2026-08-21T19:30:59.999Z</time>
      </trkpt>
      <trkpt lat="48.667814" lon="-1.515795">
        <ele>2.868</ele>
        <time>2026-08-21T19:31:00.999Z</time>
      </trkpt>
      <trkpt lat="48.667827" lon="-1.515799">
        <ele>2.851</ele>
        <time>2026-08-21T19:31:01.999Z</time>
      </trkpt>
      <trkpt lat="48.667840" lon="-1.515800">
        <ele>2.801</ele>
        <time>2026-08-21T19:31:02.999Z</time>
      </trkpt>
      <trkpt lat="48.667853" lon="-1.515799">
        <ele>2.811</ele>
        <time>2026-08-21T19:31:03.999Z</time>
      </trkpt>
      <trkpt lat="48.667867" lon="-1.515796">
        <ele>2.809</ele>
        <time>2026-08-21T19:31:04.999Z</time>
      </trkpt>
      <trkpt lat="48.667878" lon="-1.515795">
        <ele>2.837</ele>
        <time>2026-08-21T19:31:05.999Z</time>
      </trkpt>
      <trkpt lat="48.667889" lon="-1.515793">
        <ele>2.893</ele>
        <time>2026-08-21T19:31:06.999Z</time>
      </trkpt>
      <trkpt lat="48.667899" lon="-1.515796">
        <ele>2.866</ele>
        <time>2026-08-21T19:31:07.999Z</time>
      </trkpt>
      <trkpt lat="48.667911" lon="-1.515798">
        <ele>2.847</ele>
        <time>2026-08-21T19:31:08.999Z</time>
      </trkpt>
      <trkpt lat="48.667924" lon="-1.515801">
        <ele>2.850</ele>
        <time>2026-08-21T19:31:09.999Z</time>
      </trkpt>
      <trkpt lat="48.667938" lon="-1.515803">
        <ele>2.897</ele>
        <time>2026-08-21T19:31:10.999Z</time>
      </trkpt>
      <trkpt lat="48.667953" lon="-1.515802">
        <ele>2.878</ele>
        <time>2026-08-21T19:31:11.999Z</time>
      </trkpt>
      <trkpt lat="48.667969" lon="-1.515798">
        <ele>2.852</ele>
        <time>2026-08-21T19:31:12.999Z</time>
      </trkpt>
      <trkpt lat="48.667980" lon="-1.515798">
        <ele>2.859</ele>
        <time>2026-08-21T19:31:13.999Z</time>
      </trkpt>
      <trkpt lat="48.667990" lon="-1.515798">
        <ele>2.826</ele>
        <time>2026-08-21T19:31:14.999Z</time>
      </trkpt>
      <trkpt lat="48.668002" lon="-1.515801">
        <ele>2.847</ele>
        <time>2026-08-21T19:31:15.999Z</time>
      </trkpt>
      <trkpt lat="48.668015" lon="-1.515800">
        <ele>2.811</ele>
        <time>2026-08-21T19:31:16.999Z</time>
      </trkpt>
      <trkpt lat="48.668028" lon="-1.515801">
        <ele>2.709</ele>
        <time>2026-08-21T19:31:17.999Z</time>
      </trkpt>
      <trkpt lat="48.668039" lon="-1.515800">
        <ele>2.664</ele>
        <time>2026-08-21T19:31:18.999Z</time>
      </trkpt>
      <trkpt lat="48.668051" lon="-1.515799">
        <ele>2.660</ele>
        <time>2026-08-21T19:31:19.999Z</time>
      </trkpt>
      <trkpt lat="48.668066" lon="-1.515801">
        <ele>2.623</ele>
        <time>2026-08-21T19:31:20.999Z</time>
      </trkpt>
      <trkpt lat="48.668080" lon="-1.515800">
        <ele>2.644</ele>
        <time>2026-08-21T19:31:21.999Z</time>
      </trkpt>
      <trkpt lat="48.668092" lon="-1.515799">
        <ele>2.557</ele>
        <time>2026-08-21T19:31:22.999Z</time>
      </trkpt>
      <trkpt lat="48.668102" lon="-1.515800">
        <ele>2.584</ele>
        <time>2026-08-21T19:31:23.999Z</time>
      </trkpt>
      <trkpt lat="48.668110" lon="-1.515804">
        <ele>2.545</ele>
        <time>2026-08-21T19:31:24.999Z</time>
      </trkpt>
      <trkpt lat="48.668124" lon="-1.515807">
        <ele>2.559</ele>
        <time>2026-08-21T19:31:25.999Z</time>
      </trkpt>
      <trkpt lat="48.668138" lon="-1.515809">
        <ele>2.526</ele>
        <time>2026-08-21T19:31:26.999Z</time>
      </trkpt>
      <trkpt lat="48.668152" lon="-1.515808">
        <ele>2.547</ele>
        <time>2026-08-21T19:31:27.999Z</time>
      </trkpt>
      <trkpt lat="48.668165" lon="-1.515804">
        <ele>2.529</ele>
        <time>2026-08-21T19:31:28.999Z</time>
      </trkpt>
      <trkpt lat="48.668177" lon="-1.515802">
        <ele>2.521</ele>
        <time>2026-08-21T19:31:29.999Z</time>
      </trkpt>
      <trkpt lat="48.668190" lon="-1.515801">
        <ele>2.509</ele>
        <time>2026-08-21T19:31:30.999Z</time>
      </trkpt>
      <trkpt lat="48.668204" lon="-1.515801">
        <ele>2.576</ele>
        <time>2026-08-21T19:31:31.999Z</time>
      </trkpt>
      <trkpt lat="48.668218" lon="-1.515804">
        <ele>2.562</ele>
        <time>2026-08-21T19:31:32.999Z</time>
      </trkpt>
      <trkpt lat="48.668232" lon="-1.515804">
        <ele>2.525</ele>
        <time>2026-08-21T19:31:33.999Z</time>
      </trkpt>
      <trkpt lat="48.668243" lon="-1.515804">
        <ele>2.566</ele>
        <time>2026-08-21T19:31:34.999Z</time>
      </trkpt>
      <trkpt lat="48.668254" lon="-1.515804">
        <ele>2.579</ele>
        <time>2026-08-21T19:31:35.999Z</time>
      </trkpt>
      <trkpt lat="48.668265" lon="-1.515805">
        <ele>2.566</ele>
        <time>2026-08-21T19:31:36.999Z</time>
      </trkpt>
      <trkpt lat="48.668287" lon="-1.515804">
        <ele>2.537</ele>
        <time>2026-08-21T19:31:38.999Z</time>
      </trkpt>
      <trkpt lat="48.668297" lon="-1.515807">
        <ele>2.581</ele>
        <time>2026-08-21T19:31:39.999Z</time>
      </trkpt>
      <trkpt lat="48.668307" lon="-1.515813">
        <ele>2.588</ele>
        <time>2026-08-21T19:31:40.999Z</time>
      </trkpt>
      <trkpt lat="48.668318" lon="-1.515818">
        <ele>2.555</ele>
        <time>2026-08-21T19:31:41.999Z</time>
      </trkpt>
      <trkpt lat="48.668328" lon="-1.515818">
        <ele>2.507</ele>
        <time>2026-08-21T19:31:42.999Z</time>
      </trkpt>
      <trkpt lat="48.668343" lon="-1.515818">
        <ele>2.517</ele>
        <time>2026-08-21T19:31:43.999Z</time>
      </trkpt>
      <trkpt lat="48.668358" lon="-1.515819">
        <ele>2.509</ele>
        <time>2026-08-21T19:31:44.999Z</time>
      </trkpt>
      <trkpt lat="48.668370" lon="-1.515819">
        <ele>2.517</ele>
        <time>2026-08-21T19:31:45.999Z</time>
      </trkpt>
      <trkpt lat="48.668382" lon="-1.515819">
        <ele>2.513</ele>
        <time>2026-08-21T19:31:46.999Z</time>
      </trkpt>
      <trkpt lat="48.668393" lon="-1.515823">
        <ele>2.616</ele>
        <time>2026-08-21T19:31:47.999Z</time>
      </trkpt>
      <trkpt lat="48.668404" lon="-1.515823">
        <ele>2.617</ele>
        <time>2026-08-21T19:31:48.999Z</time>
      </trkpt>
      <trkpt lat="48.668416" lon="-1.515823">
        <ele>2.710</ele>
        <time>2026-08-21T19:31:49.999Z</time>
      </trkpt>
      <trkpt lat="48.668429" lon="-1.515826">
        <ele>2.877</ele>
        <time>2026-08-21T19:31:50.999Z</time>
      </trkpt>
      <trkpt lat="48.668440" lon="-1.515832">
        <ele>2.838</ele>
        <time>2026-08-21T19:31:51.999Z</time>
      </trkpt>
      <trkpt lat="48.668451" lon="-1.515838">
        <ele>2.832</ele>
        <time>2026-08-21T19:31:52.999Z</time>
      </trkpt>
      <trkpt lat="48.668463" lon="-1.515838">
        <ele>2.859</ele>
        <time>2026-08-21T19:31:53.999Z</time>
      </trkpt>
      <trkpt lat="48.668476" lon="-1.515837">
        <ele>2.884</ele>
        <time>2026-08-21T19:31:54.999Z</time>
      </trkpt>
      <trkpt lat="48.668487" lon="-1.515834">
        <ele>2.807</ele>
        <time>2026-08-21T19:31:55.999Z</time>
      </trkpt>
      <trkpt lat="48.668497" lon="-1.515837">
        <ele>2.817</ele>
        <time>2026-08-21T19:31:56.999Z</time>
      </trkpt>
      <trkpt lat="48.668506" lon="-1.515841">
        <ele>2.809</ele>
        <time>2026-08-21T19:31:57.999Z</time>
      </trkpt>
      <trkpt lat="48.668516" lon="-1.515846">
        <ele>2.860</ele>
        <time>2026-08-21T19:31:58.999Z</time>
      </trkpt>
      <trkpt lat="48.668526" lon="-1.515843">
        <ele>2.896</ele>
        <time>2026-08-21T19:31:59.999Z</time>
      </trkpt>
      <trkpt lat="48.668535" lon="-1.515841">
        <ele>2.879</ele>
        <time>2026-08-21T19:32:00.999Z</time>
      </trkpt>
      <trkpt lat="48.668546" lon="-1.515841">
        <ele>2.820</ele>
        <time>2026-08-21T19:32:01.999Z</time>
      </trkpt>
      <trkpt lat="48.668557" lon="-1.515842">
        <ele>2.863</ele>
        <time>2026-08-21T19:32:02.999Z</time>
      </trkpt>
      <trkpt lat="48.668567" lon="-1.515842">
        <ele>2.830</ele>
        <time>2026-08-21T19:32:03.999Z</time>
      </trkpt>
      <trkpt lat="48.668586" lon="-1.515838">
        <ele>2.821</ele>
        <time>2026-08-21T19:32:05.999Z</time>
      </trkpt>
      <trkpt lat="48.668597" lon="-1.515834">
        <ele>2.955</ele>
        <time>2026-08-21T19:32:06.999Z</time>
      </trkpt>
      <trkpt lat="48.668608" lon="-1.515833">
        <ele>2.912</ele>
        <time>2026-08-21T19:32:07.999Z</time>
      </trkpt>
      <trkpt lat="48.668618" lon="-1.515831">
        <ele>2.947</ele>
        <time>2026-08-21T19:32:08.999Z</time>
      </trkpt>
      <trkpt lat="48.668626" lon="-1.515835">
        <ele>2.929</ele>
        <time>2026-08-21T19:32:09.999Z</time>
      </trkpt>
      <trkpt lat="48.668644" lon="-1.515835">
        <ele>2.821</ele>
        <time>2026-08-21T19:32:11.999Z</time>
      </trkpt>
      <trkpt lat="48.668656" lon="-1.515838">
        <ele>2.809</ele>
        <time>2026-08-21T19:32:12.999Z</time>
      </trkpt>
      <trkpt lat="48.668665" lon="-1.515839">
        <ele>2.876</ele>
        <time>2026-08-21T19:32:13.999Z</time>
      </trkpt>
      <trkpt lat="48.668676" lon="-1.515841">
        <ele>2.852</ele>
        <time>2026-08-21T19:32:14.999Z</time>
      </trkpt>
      <trkpt lat="48.668687" lon="-1.515837">
        <ele>2.885</ele>
        <time>2026-08-21T19:32:15.999Z</time>
      </trkpt>
      <trkpt lat="48.668697" lon="-1.515839">
        <ele>2.876</ele>
        <time>2026-08-21T19:32:16.999Z</time>
      </trkpt>
      <trkpt lat="48.668708" lon="-1.515841">
        <ele>2.859</ele>
        <time>2026-08-21T19:32:17.999Z</time>
      </trkpt>
      <trkpt lat="48.668719" lon="-1.515841">
        <ele>2.816</ele>
        <time>2026-08-21T19:32:18.999Z</time>
      </trkpt>
      <trkpt lat="48.668729" lon="-1.515841">
        <ele>2.897</ele>
        <time>2026-08-21T19:32:19.999Z</time>
      </trkpt>
      <trkpt lat="48.668742" lon="-1.515843">
        <ele>2.891</ele>
        <time>2026-08-21T19:32:21.999Z</time>
      </trkpt>
      <trkpt lat="48.668761" lon="-1.515844">
        <ele>2.888</ele>
        <time>2026-08-21T19:32:23.999Z</time>
      </trkpt>
      <trkpt lat="48.668772" lon="-1.515846">
        <ele>2.915</ele>
        <time>2026-08-21T19:32:24.999Z</time>
      </trkpt>
      <trkpt lat="48.668784" lon="-1.515846">
        <ele>2.965</ele>
        <time>2026-08-21T19:32:25.999Z</time>
      </trkpt>
      <trkpt lat="48.668799" lon="-1.515848">
        <ele>2.911</ele>
        <time>2026-08-21T19:32:26.999Z</time>
      </trkpt>
      <trkpt lat="48.668811" lon="-1.515849">
        <ele>2.909</ele>
        <time>2026-08-21T19:32:27.999Z</time>
      </trkpt>
      <trkpt lat="48.668831" lon="-1.515851">
        <ele>3.093</ele>
        <time>2026-08-21T19:32:29.999Z</time>
      </trkpt>
      <trkpt lat="48.668843" lon="-1.515847">
        <ele>3.059</ele>
        <time>2026-08-21T19:32:30.999Z</time>
      </trkpt>
      <trkpt lat="48.668853" lon="-1.515851">
        <ele>3.092</ele>
        <time>2026-08-21T19:32:31.999Z</time>
      </trkpt>
      <trkpt lat="48.668871" lon="-1.515854">
        <ele>3.083</ele>
        <time>2026-08-21T19:32:33.999Z</time>
      </trkpt>
      <trkpt lat="48.668888" lon="-1.515862">
        <ele>3.066</ele>
        <time>2026-08-21T19:32:35.999Z</time>
      </trkpt>
      <trkpt lat="48.668900" lon="-1.515862">
        <ele>3.023</ele>
        <time>2026-08-21T19:32:36.999Z</time>
      </trkpt>
      <trkpt lat="48.668916" lon="-1.515861">
        <ele>3.034</ele>
        <time>2026-08-21T19:32:38.999Z</time>
      </trkpt>
      <trkpt lat="48.668937" lon="-1.515863">
        <ele>3.098</ele>
        <time>2026-08-21T19:32:40.999Z</time>
      </trkpt>
      <trkpt lat="48.668948" lon="-1.515863">
        <ele>3.025</ele>
        <time>2026-08-21T19:32:41.999Z</time>
      </trkpt>
      <trkpt lat="48.668957" lon="-1.515864">
        <ele>3.068</ele>
        <time>2026-08-21T19:32:42.999Z</time>
      </trkpt>
      <trkpt lat="48.668966" lon="-1.515870">
        <ele>3.042</ele>
        <time>2026-08-21T19:32:43.999Z</time>
      </trkpt>
      <trkpt lat="48.668975" lon="-1.515870">
        <ele>3.026</ele>
        <time>2026-08-21T19:32:44.999Z</time>
      </trkpt>
      <trkpt lat="48.668994" lon="-1.515868">
        <ele>3.009</ele>
        <time>2026-08-21T19:32:46.999Z</time>
      </trkpt>
      <trkpt lat="48.669008" lon="-1.515865">
        <ele>3.048</ele>
        <time>2026-08-21T19:32:47.999Z</time>
      </trkpt>
      <trkpt lat="48.669018" lon="-1.515865">
        <ele>3.014</ele>
        <time>2026-08-21T19:32:48.999Z</time>
      </trkpt>
      <trkpt lat="48.669033" lon="-1.515865">
        <ele>3.017</ele>
        <time>2026-08-21T19:32:49.999Z</time>
      </trkpt>
      <trkpt lat="48.669043" lon="-1.515869">
        <ele>3.058</ele>
        <time>2026-08-21T19:32:50.999Z</time>
      </trkpt>
      <trkpt lat="48.669054" lon="-1.515872">
        <ele>2.871</ele>
        <time>2026-08-21T19:32:51.999Z</time>
      </trkpt>
      <trkpt lat="48.669071" lon="-1.515873">
        <ele>2.798</ele>
        <time>2026-08-21T19:32:53.999Z</time>
      </trkpt>
      <trkpt lat="48.669086" lon="-1.515874">
        <ele>2.619</ele>
        <time>2026-08-21T19:32:55.999Z</time>
      </trkpt>
      <trkpt lat="48.669105" lon="-1.515873">
        <ele>2.573</ele>
        <time>2026-08-21T19:32:57.999Z</time>
      </trkpt>
      <trkpt lat="48.669117" lon="-1.515872">
        <ele>2.550</ele>
        <time>2026-08-21T19:32:58.999Z</time>
      </trkpt>
      <trkpt lat="48.669127" lon="-1.515873">
        <ele>2.453</ele>
        <time>2026-08-21T19:32:59.999Z</time>
      </trkpt>
      <trkpt lat="48.669139" lon="-1.515878">
        <ele>2.404</ele>
        <time>2026-08-21T19:33:00.999Z</time>
      </trkpt>
      <trkpt lat="48.669149" lon="-1.515879">
        <ele>2.414</ele>
        <time>2026-08-21T19:33:01.999Z</time>
      </trkpt>
      <trkpt lat="48.669166" lon="-1.515882">
        <ele>2.409</ele>
        <time>2026-08-21T19:33:03.999Z</time>
      </trkpt>
      <trkpt lat="48.669178" lon="-1.515886">
        <ele>2.447</ele>
        <time>2026-08-21T19:33:04.999Z</time>
      </trkpt>
      <trkpt lat="48.669194" lon="-1.515887">
        <ele>2.483</ele>
        <time>2026-08-21T19:33:06.999Z</time>
      </trkpt>
      <trkpt lat="48.669210" lon="-1.515884">
        <ele>2.426</ele>
        <time>2026-08-21T19:33:08.999Z</time>
      </trkpt>
      <trkpt lat="48.669219" lon="-1.515884">
        <ele>2.347</ele>
        <time>2026-08-21T19:33:09.999Z</time>
      </trkpt>
      <trkpt lat="48.669230" lon="-1.515885">
        <ele>2.350</ele>
        <time>2026-08-21T19:33:10.999Z</time>
      </trkpt>
      <trkpt lat="48.669247" lon="-1.515890">
        <ele>2.357</ele>
        <time>2026-08-21T19:33:12.999Z</time>
      </trkpt>
      <trkpt lat="48.669256" lon="-1.515891">
        <ele>2.398</ele>
        <time>2026-08-21T19:33:13.999Z</time>
      </trkpt>
      <trkpt lat="48.669276" lon="-1.515889">
        <ele>2.392</ele>
        <time>2026-08-21T19:33:15.999Z</time>
      </trkpt>
      <trkpt lat="48.669291" lon="-1.515890">
        <ele>2.389</ele>
        <time>2026-08-21T19:33:17.999Z</time>
      </trkpt>
      <trkpt lat="48.669301" lon="-1.515888">
        <ele>2.347</ele>
        <time>2026-08-21T19:33:18.999Z</time>
      </trkpt>
      <trkpt lat="48.669315" lon="-1.515889">
        <ele>2.329</ele>
        <time>2026-08-21T19:33:20.999Z</time>
      </trkpt>
      <trkpt lat="48.669325" lon="-1.515885">
        <ele>2.321</ele>
        <time>2026-08-21T19:33:21.999Z</time>
      </trkpt>
      <trkpt lat="48.669340" lon="-1.515876">
        <ele>2.209</ele>
        <time>2026-08-21T19:33:23.999Z</time>
      </trkpt>
      <trkpt lat="48.669349" lon="-1.515878">
        <ele>2.296</ele>
        <time>2026-08-21T19:33:25.999Z</time>
      </trkpt>
      <trkpt lat="48.669363" lon="-1.515881">
        <ele>2.232</ele>
        <time>2026-08-21T19:33:28.999Z</time>
      </trkpt>
      <trkpt lat="48.669375" lon="-1.515876">
        <ele>2.215</ele>
        <time>2026-08-21T19:33:29.999Z</time>
      </trkpt>
      <trkpt lat="48.669385" lon="-1.515878">
        <ele>2.336</ele>
        <time>2026-08-21T19:33:30.999Z</time>
      </trkpt>
      <trkpt lat="48.669395" lon="-1.515879">
        <ele>2.389</ele>
        <time>2026-08-21T19:33:31.999Z</time>
      </trkpt>
      <trkpt lat="48.669411" lon="-1.515882">
        <ele>2.386</ele>
        <time>2026-08-21T19:33:33.999Z</time>
      </trkpt>
      <trkpt lat="48.669425" lon="-1.515875">
        <ele>2.397</ele>
        <time>2026-08-21T19:33:35.999Z</time>
      </trkpt>
      <trkpt lat="48.669435" lon="-1.515880">
        <ele>2.471</ele>
        <time>2026-08-21T19:33:37.999Z</time>
      </trkpt>
      <trkpt lat="48.669441" lon="-1.515901">
        <ele>2.488</ele>
        <time>2026-08-21T19:33:50.999Z</time>
      </trkpt>
      <trkpt lat="48.669445" lon="-1.515915">
        <ele>2.437</ele>
        <time>2026-08-21T19:33:51.999Z</time>
      </trkpt>
      <trkpt lat="48.669450" lon="-1.515934">
        <ele>2.449</ele>
        <time>2026-08-21T19:33:52.999Z</time>
      </trkpt>
      <trkpt lat="48.669453" lon="-1.515948">
        <ele>2.413</ele>
        <time>2026-08-21T19:33:53.999Z</time>
      </trkpt>
      <trkpt lat="48.669454" lon="-1.515964">
        <ele>2.409</ele>
        <time>2026-08-21T19:33:54.999Z</time>
      </trkpt>
      <trkpt lat="48.669456" lon="-1.515981">
        <ele>2.415</ele>
        <time>2026-08-21T19:33:55.999Z</time>
      </trkpt>
      <trkpt lat="48.669456" lon="-1.516002">
        <ele>2.361</ele>
        <time>2026-08-21T19:33:56.999Z</time>
      </trkpt>
      <trkpt lat="48.669457" lon="-1.516027">
        <ele>2.374</ele>
        <time>2026-08-21T19:33:57.999Z</time>
      </trkpt>
      <trkpt lat="48.669458" lon="-1.516046">
        <ele>2.335</ele>
        <time>2026-08-21T19:33:58.999Z</time>
      </trkpt>
      <trkpt lat="48.669460" lon="-1.516063">
        <ele>2.268</ele>
        <time>2026-08-21T19:33:59.999Z</time>
      </trkpt>
      <trkpt lat="48.669462" lon="-1.516082">
        <ele>2.235</ele>
        <time>2026-08-21T19:34:00.999Z</time>
      </trkpt>
      <trkpt lat="48.669463" lon="-1.516096">
        <ele>2.256</ele>
        <time>2026-08-21T19:34:01.999Z</time>
      </trkpt>
      <trkpt lat="48.669463" lon="-1.516114">
        <ele>2.210</ele>
        <time>2026-08-21T19:34:02.999Z</time>
      </trkpt>
      <trkpt lat="48.669468" lon="-1.516136">
        <ele>2.237</ele>
        <time>2026-08-21T19:34:03.999Z</time>
      </trkpt>
      <trkpt lat="48.669472" lon="-1.516164">
        <ele>2.219</ele>
        <time>2026-08-21T19:34:05.999Z</time>
      </trkpt>
      <trkpt lat="48.669473" lon="-1.516179">
        <ele>2.209</ele>
        <time>2026-08-21T19:34:06.999Z</time>
      </trkpt>
      <trkpt lat="48.669477" lon="-1.516194">
        <ele>2.119</ele>
        <time>2026-08-21T19:34:07.999Z</time>
      </trkpt>
      <trkpt lat="48.669480" lon="-1.516211">
        <ele>2.109</ele>
        <time>2026-08-21T19:34:08.999Z</time>
      </trkpt>
      <trkpt lat="48.669481" lon="-1.516238">
        <ele>2.163</ele>
        <time>2026-08-21T19:34:10.999Z</time>
      </trkpt>
      <trkpt lat="48.669478" lon="-1.516252">
        <ele>2.199</ele>
        <time>2026-08-21T19:34:12.999Z</time>
      </trkpt>
      <trkpt lat="48.669473" lon="-1.516231">
        <ele>2.022</ele>
        <time>2026-08-21T19:34:15.999Z</time>
      </trkpt>
      <trkpt lat="48.669471" lon="-1.516214">
        <ele>2.073</ele>
        <time>2026-08-21T19:34:16.999Z</time>
      </trkpt>
      <trkpt lat="48.669467" lon="-1.516197">
        <ele>1.976</ele>
        <time>2026-08-21T19:34:17.999Z</time>
      </trkpt>
      <trkpt lat="48.669461" lon="-1.516171">
        <ele>1.833</ele>
        <time>2026-08-21T19:34:19.999Z</time>
      </trkpt>
      <trkpt lat="48.669457" lon="-1.516158">
        <ele>1.824</ele>
        <time>2026-08-21T19:34:20.999Z</time>
      </trkpt>
      <trkpt lat="48.669455" lon="-1.516144">
        <ele>1.868</ele>
        <time>2026-08-21T19:34:21.999Z</time>
      </trkpt>
      <trkpt lat="48.669452" lon="-1.516132">
        <ele>1.825</ele>
        <time>2026-08-21T19:34:22.999Z</time>
      </trkpt>
      <trkpt lat="48.669446" lon="-1.516118">
        <ele>1.846</ele>
        <time>2026-08-21T19:34:23.999Z</time>
      </trkpt>
      <trkpt lat="48.669442" lon="-1.516094">
        <ele>1.888</ele>
        <time>2026-08-21T19:34:25.999Z</time>
      </trkpt>
      <trkpt lat="48.669443" lon="-1.516071">
        <ele>1.816</ele>
        <time>2026-08-21T19:34:27.999Z</time>
      </trkpt>
      <trkpt lat="48.669445" lon="-1.516048">
        <ele>1.809</ele>
        <time>2026-08-21T19:34:29.999Z</time>
      </trkpt>
      <trkpt lat="48.669447" lon="-1.516033">
        <ele>1.956</ele>
        <time>2026-08-21T19:34:30.999Z</time>
      </trkpt>
      <trkpt lat="48.669447" lon="-1.516007">
        <ele>1.932</ele>
        <time>2026-08-21T19:34:32.999Z</time>
      </trkpt>
      <trkpt lat="48.669447" lon="-1.515985">
        <ele>1.945</ele>
        <time>2026-08-21T19:34:34.999Z</time>
      </trkpt>
      <trkpt lat="48.669453" lon="-1.515971">
        <ele>1.976</ele>
        <time>2026-08-21T19:34:37.999Z</time>
      </trkpt>
      <trkpt lat="48.669462" lon="-1.515959">
        <ele>2.099</ele>
        <time>2026-08-21T19:34:40.999Z</time>
      </trkpt>
      <trkpt lat="48.669467" lon="-1.515947">
        <ele>2.036</ele>
        <time>2026-08-21T19:34:54.999Z</time>
      </trkpt>
      <trkpt lat="48.669459" lon="-1.515942">
        <ele>3.237</ele>
        <time>2026-08-21T19:37:19.999Z</time>
      </trkpt>
      <trkpt lat="48.669470" lon="-1.515954">
        <ele>2.891</ele>
        <time>2026-08-21T19:37:31.999Z</time>
      </trkpt>
      <trkpt lat="48.669481" lon="-1.515952">
        <ele>2.498</ele>
        <time>2026-08-21T19:37:40.999Z</time>
      </trkpt>
      <trkpt lat="48.669498" lon="-1.515949">
        <ele>2.321</ele>
        <time>2026-08-21T19:37:42.999Z</time>
      </trkpt>
      <trkpt lat="48.669513" lon="-1.515949">
        <ele>2.341</ele>
        <time>2026-08-21T19:37:43.999Z</time>
      </trkpt>
      <trkpt lat="48.669529" lon="-1.515949">
        <ele>2.305</ele>
        <time>2026-08-21T19:37:44.999Z</time>
      </trkpt>
      <trkpt lat="48.669541" lon="-1.515945">
        <ele>2.409</ele>
        <time>2026-08-21T19:37:45.999Z</time>
      </trkpt>
      <trkpt lat="48.669554" lon="-1.515943">
        <ele>2.434</ele>
        <time>2026-08-21T19:37:46.999Z</time>
      </trkpt>
      <trkpt lat="48.669566" lon="-1.515945">
        <ele>2.480</ele>
        <time>2026-08-21T19:37:47.999Z</time>
      </trkpt>
      <trkpt lat="48.669577" lon="-1.515949">
        <ele>2.593</ele>
        <time>2026-08-21T19:37:48.999Z</time>
      </trkpt>
      <trkpt lat="48.669587" lon="-1.515949">
        <ele>2.574</ele>
        <time>2026-08-21T19:37:49.999Z</time>
      </trkpt>
      <trkpt lat="48.669597" lon="-1.515948">
        <ele>2.637</ele>
        <time>2026-08-21T19:37:50.999Z</time>
      </trkpt>
      <trkpt lat="48.669609" lon="-1.515943">
        <ele>2.644</ele>
        <time>2026-08-21T19:37:51.999Z</time>
      </trkpt>
      <trkpt lat="48.669622" lon="-1.515939">
        <ele>2.625</ele>
        <time>2026-08-21T19:37:52.999Z</time>
      </trkpt>
      <trkpt lat="48.669631" lon="-1.515937">
        <ele>2.689</ele>
        <time>2026-08-21T19:37:53.999Z</time>
      </trkpt>
      <trkpt lat="48.669642" lon="-1.515938">
        <ele>2.656</ele>
        <time>2026-08-21T19:37:54.999Z</time>
      </trkpt>
      <trkpt lat="48.669663" lon="-1.515940">
        <ele>2.616</ele>
        <time>2026-08-21T19:37:56.999Z</time>
      </trkpt>
      <trkpt lat="48.669674" lon="-1.515939">
        <ele>2.676</ele>
        <time>2026-08-21T19:37:57.999Z</time>
      </trkpt>
      <trkpt lat="48.669685" lon="-1.515937">
        <ele>2.613</ele>
        <time>2026-08-21T19:37:58.999Z</time>
      </trkpt>
      <trkpt lat="48.669699" lon="-1.515937">
        <ele>2.609</ele>
        <time>2026-08-21T19:37:59.999Z</time>
      </trkpt>
      <trkpt lat="48.669712" lon="-1.515941">
        <ele>2.653</ele>
        <time>2026-08-21T19:38:00.999Z</time>
      </trkpt>
      <trkpt lat="48.669730" lon="-1.515945">
        <ele>2.639</ele>
        <time>2026-08-21T19:38:02.999Z</time>
      </trkpt>
      <trkpt lat="48.669739" lon="-1.515945">
        <ele>2.672</ele>
        <time>2026-08-21T19:38:03.999Z</time>
      </trkpt>
      <trkpt lat="48.669759" lon="-1.515948">
        <ele>2.533</ele>
        <time>2026-08-21T19:38:05.999Z</time>
      </trkpt>
      <trkpt lat="48.669771" lon="-1.515952">
        <ele>2.646</ele>
        <time>2026-08-21T19:38:06.999Z</time>
      </trkpt>
      <trkpt lat="48.669780" lon="-1.515954">
        <ele>2.673</ele>
        <time>2026-08-21T19:38:07.999Z</time>
      </trkpt>
      <trkpt lat="48.669790" lon="-1.515954">
        <ele>2.694</ele>
        <time>2026-08-21T19:38:08.999Z</time>
      </trkpt>
      <trkpt lat="48.669806" lon="-1.515952">
        <ele>2.698</ele>
        <time>2026-08-21T19:38:09.999Z</time>
      </trkpt>
      <trkpt lat="48.669817" lon="-1.515956">
        <ele>2.645</ele>
        <time>2026-08-21T19:38:10.999Z</time>
      </trkpt>
      <trkpt lat="48.669826" lon="-1.515961">
        <ele>2.647</ele>
        <time>2026-08-21T19:38:11.999Z</time>
      </trkpt>
      <trkpt lat="48.669839" lon="-1.515963">
        <ele>2.629</ele>
        <time>2026-08-21T19:38:12.999Z</time>
      </trkpt>
      <trkpt lat="48.669849" lon="-1.515960">
        <ele>2.621</ele>
        <time>2026-08-21T19:38:13.999Z</time>
      </trkpt>
      <trkpt lat="48.669866" lon="-1.515952">
        <ele>2.609</ele>
        <time>2026-08-21T19:38:15.999Z</time>
      </trkpt>
      <trkpt lat="48.669876" lon="-1.515954">
        <ele>2.626</ele>
        <time>2026-08-21T19:38:16.999Z</time>
      </trkpt>
      <trkpt lat="48.669888" lon="-1.515956">
        <ele>2.682</ele>
        <time>2026-08-21T19:38:17.999Z</time>
      </trkpt>
      <trkpt lat="48.669904" lon="-1.515955">
        <ele>2.625</ele>
        <time>2026-08-21T19:38:19.999Z</time>
      </trkpt>
      <trkpt lat="48.669917" lon="-1.515964">
        <ele>2.686</ele>
        <time>2026-08-21T19:38:21.999Z</time>
      </trkpt>
      <trkpt lat="48.669929" lon="-1.515967">
        <ele>2.679</ele>
        <time>2026-08-21T19:38:22.999Z</time>
      </trkpt>
      <trkpt lat="48.669944" lon="-1.515967">
        <ele>2.646</ele>
        <time>2026-08-21T19:38:23.999Z</time>
      </trkpt>
      <trkpt lat="48.669954" lon="-1.515965">
        <ele>2.627</ele>
        <time>2026-08-21T19:38:24.999Z</time>
      </trkpt>
      <trkpt lat="48.669970" lon="-1.515964">
        <ele>2.671</ele>
        <time>2026-08-21T19:38:25.999Z</time>
      </trkpt>
      <trkpt lat="48.669981" lon="-1.515964">
        <ele>2.698</ele>
        <time>2026-08-21T19:38:26.999Z</time>
      </trkpt>
      <trkpt lat="48.669991" lon="-1.515967">
        <ele>2.677</ele>
        <time>2026-08-21T19:38:27.999Z</time>
      </trkpt>
      <trkpt lat="48.670010" lon="-1.515969">
        <ele>2.661</ele>
        <time>2026-08-21T19:38:29.999Z</time>
      </trkpt>
      <trkpt lat="48.670023" lon="-1.515968">
        <ele>2.627</ele>
        <time>2026-08-21T19:38:30.999Z</time>
      </trkpt>
      <trkpt lat="48.670032" lon="-1.515970">
        <ele>2.609</ele>
        <time>2026-08-21T19:38:31.999Z</time>
      </trkpt>
      <trkpt lat="48.670044" lon="-1.515970">
        <ele>2.659</ele>
        <time>2026-08-21T19:38:32.999Z</time>
      </trkpt>
      <trkpt lat="48.670055" lon="-1.515969">
        <ele>2.695</ele>
        <time>2026-08-21T19:38:33.999Z</time>
      </trkpt>
      <trkpt lat="48.670068" lon="-1.515968">
        <ele>2.658</ele>
        <time>2026-08-21T19:38:34.999Z</time>
      </trkpt>
      <trkpt lat="48.670080" lon="-1.515967">
        <ele>2.679</ele>
        <time>2026-08-21T19:38:35.999Z</time>
      </trkpt>
      <trkpt lat="48.670090" lon="-1.515963">
        <ele>2.632</ele>
        <time>2026-08-21T19:38:36.999Z</time>
      </trkpt>
      <trkpt lat="48.670111" lon="-1.515963">
        <ele>2.629</ele>
        <time>2026-08-21T19:38:38.999Z</time>
      </trkpt>
      <trkpt lat="48.670121" lon="-1.515963">
        <ele>2.650</ele>
        <time>2026-08-21T19:38:39.999Z</time>
      </trkpt>
      <trkpt lat="48.670134" lon="-1.515962">
        <ele>2.664</ele>
        <time>2026-08-21T19:38:40.999Z</time>
      </trkpt>
      <trkpt lat="48.670148" lon="-1.515961">
        <ele>2.651</ele>
        <time>2026-08-21T19:38:41.999Z</time>
      </trkpt>
      <trkpt lat="48.670162" lon="-1.515963">
        <ele>2.661</ele>
        <time>2026-08-21T19:38:42.999Z</time>
      </trkpt>
      <trkpt lat="48.670179" lon="-1.515963">
        <ele>2.621</ele>
        <time>2026-08-21T19:38:44.999Z</time>
      </trkpt>
      <trkpt lat="48.670190" lon="-1.515960">
        <ele>2.613</ele>
        <time>2026-08-21T19:38:45.999Z</time>
      </trkpt>
      <trkpt lat="48.670203" lon="-1.515956">
        <ele>2.609</ele>
        <time>2026-08-21T19:38:46.999Z</time>
      </trkpt>
      <trkpt lat="48.670216" lon="-1.515955">
        <ele>2.588</ele>
        <time>2026-08-21T19:38:47.999Z</time>
      </trkpt>
      <trkpt lat="48.670230" lon="-1.515956">
        <ele>2.564</ele>
        <time>2026-08-21T19:38:48.999Z</time>
      </trkpt>
      <trkpt lat="48.670241" lon="-1.515959">
        <ele>2.577</ele>
        <time>2026-08-21T19:38:49.999Z</time>
      </trkpt>
      <trkpt lat="48.670252" lon="-1.515958">
        <ele>2.558</ele>
        <time>2026-08-21T19:38:50.999Z</time>
      </trkpt>
      <trkpt lat="48.670262" lon="-1.515958">
        <ele>2.511</ele>
        <time>2026-08-21T19:38:51.999Z</time>
      </trkpt>
      <trkpt lat="48.670275" lon="-1.515961">
        <ele>2.548</ele>
        <time>2026-08-21T19:38:53.999Z</time>
      </trkpt>
      <trkpt lat="48.670286" lon="-1.515965">
        <ele>2.579</ele>
        <time>2026-08-21T19:38:54.999Z</time>
      </trkpt>
      <trkpt lat="48.670298" lon="-1.515966">
        <ele>2.593</ele>
        <time>2026-08-21T19:38:55.999Z</time>
      </trkpt>
      <trkpt lat="48.670312" lon="-1.515965">
        <ele>2.540</ele>
        <time>2026-08-21T19:38:56.999Z</time>
      </trkpt>
      <trkpt lat="48.670324" lon="-1.515965">
        <ele>2.416</ele>
        <time>2026-08-21T19:38:57.999Z</time>
      </trkpt>
      <trkpt lat="48.670337" lon="-1.515963">
        <ele>2.476</ele>
        <time>2026-08-21T19:38:58.999Z</time>
      </trkpt>
      <trkpt lat="48.670351" lon="-1.515970">
        <ele>2.413</ele>
        <time>2026-08-21T19:39:00.999Z</time>
      </trkpt>
      <trkpt lat="48.670363" lon="-1.515973">
        <ele>2.409</ele>
        <time>2026-08-21T19:39:01.999Z</time>
      </trkpt>
      <trkpt lat="48.670375" lon="-1.515976">
        <ele>2.423</ele>
        <time>2026-08-21T19:39:02.999Z</time>
      </trkpt>
      <trkpt lat="48.670388" lon="-1.515973">
        <ele>2.459</ele>
        <time>2026-08-21T19:39:03.999Z</time>
      </trkpt>
      <trkpt lat="48.670399" lon="-1.515970">
        <ele>2.342</ele>
        <time>2026-08-21T19:39:04.999Z</time>
      </trkpt>
      <trkpt lat="48.670413" lon="-1.515968">
        <ele>2.313</ele>
        <time>2026-08-21T19:39:05.999Z</time>
      </trkpt>
      <trkpt lat="48.670425" lon="-1.515968">
        <ele>2.336</ele>
        <time>2026-08-21T19:39:06.999Z</time>
      </trkpt>
      <trkpt lat="48.670437" lon="-1.515969">
        <ele>2.353</ele>
        <time>2026-08-21T19:39:07.999Z</time>
      </trkpt>
      <trkpt lat="48.670448" lon="-1.515967">
        <ele>2.154</ele>
        <time>2026-08-21T19:39:08.999Z</time>
      </trkpt>
      <trkpt lat="48.670458" lon="-1.515969">
        <ele>1.998</ele>
        <time>2026-08-21T19:39:09.999Z</time>
      </trkpt>
      <trkpt lat="48.670472" lon="-1.515970">
        <ele>1.975</ele>
        <time>2026-08-21T19:39:10.999Z</time>
      </trkpt>
      <trkpt lat="48.670484" lon="-1.515975">
        <ele>1.884</ele>
        <time>2026-08-21T19:39:11.999Z</time>
      </trkpt>
      <trkpt lat="48.670494" lon="-1.515978">
        <ele>1.807</ele>
        <time>2026-08-21T19:39:12.999Z</time>
      </trkpt>
      <trkpt lat="48.670506" lon="-1.515972">
        <ele>1.717</ele>
        <time>2026-08-21T19:39:13.999Z</time>
      </trkpt>
      <trkpt lat="48.670516" lon="-1.515972">
        <ele>1.709</ele>
        <time>2026-08-21T19:39:14.999Z</time>
      </trkpt>
      <trkpt lat="48.670528" lon="-1.515973">
        <ele>1.760</ele>
        <time>2026-08-21T19:39:15.999Z</time>
      </trkpt>
      <trkpt lat="48.670539" lon="-1.515981">
        <ele>1.676</ele>
        <time>2026-08-21T19:39:16.999Z</time>
      </trkpt>
      <trkpt lat="48.670550" lon="-1.515988">
        <ele>1.619</ele>
        <time>2026-08-21T19:39:17.999Z</time>
      </trkpt>
      <trkpt lat="48.670561" lon="-1.515987">
        <ele>1.680</ele>
        <time>2026-08-21T19:39:18.999Z</time>
      </trkpt>
      <trkpt lat="48.670573" lon="-1.515982">
        <ele>1.513</ele>
        <time>2026-08-21T19:39:19.999Z</time>
      </trkpt>
      <trkpt lat="48.670586" lon="-1.515979">
        <ele>1.590</ele>
        <time>2026-08-21T19:39:20.999Z</time>
      </trkpt>
      <trkpt lat="48.670598" lon="-1.515978">
        <ele>1.571</ele>
        <time>2026-08-21T19:39:21.999Z</time>
      </trkpt>
      <trkpt lat="48.670610" lon="-1.515979">
        <ele>1.545</ele>
        <time>2026-08-21T19:39:22.999Z</time>
      </trkpt>
      <trkpt lat="48.670621" lon="-1.515984">
        <ele>1.532</ele>
        <time>2026-08-21T19:39:23.999Z</time>
      </trkpt>
      <trkpt lat="48.670633" lon="-1.515993">
        <ele>1.592</ele>
        <time>2026-08-21T19:39:24.999Z</time>
      </trkpt>
      <trkpt lat="48.670645" lon="-1.515998">
        <ele>1.573</ele>
        <time>2026-08-21T19:39:25.999Z</time>
      </trkpt>
      <trkpt lat="48.670658" lon="-1.515997">
        <ele>1.520</ele>
        <time>2026-08-21T19:39:26.999Z</time>
      </trkpt>
      <trkpt lat="48.670672" lon="-1.515993">
        <ele>1.509</ele>
        <time>2026-08-21T19:39:27.999Z</time>
      </trkpt>
      <trkpt lat="48.670685" lon="-1.515990">
        <ele>1.561</ele>
        <time>2026-08-21T19:39:28.999Z</time>
      </trkpt>
      <trkpt lat="48.670697" lon="-1.515991">
        <ele>1.517</ele>
        <time>2026-08-21T19:39:29.999Z</time>
      </trkpt>
      <trkpt lat="48.670707" lon="-1.515997">
        <ele>1.590</ele>
        <time>2026-08-21T19:39:30.999Z</time>
      </trkpt>
      <trkpt lat="48.670718" lon="-1.516002">
        <ele>1.541</ele>
        <time>2026-08-21T19:39:31.999Z</time>
      </trkpt>
      <trkpt lat="48.670740" lon="-1.515999">
        <ele>1.594</ele>
        <time>2026-08-21T19:39:33.999Z</time>
      </trkpt>
      <trkpt lat="48.670749" lon="-1.515996">
        <ele>1.571</ele>
        <time>2026-08-21T19:39:34.999Z</time>
      </trkpt>
      <trkpt lat="48.670762" lon="-1.515996">
        <ele>1.582</ele>
        <time>2026-08-21T19:39:35.999Z</time>
      </trkpt>
      <trkpt lat="48.670774" lon="-1.515997">
        <ele>1.526</ele>
        <time>2026-08-21T19:39:36.999Z</time>
      </trkpt>
      <trkpt lat="48.670786" lon="-1.516000">
        <ele>1.783</ele>
        <time>2026-08-21T19:39:37.999Z</time>
      </trkpt>
      <trkpt lat="48.670802" lon="-1.516001">
        <ele>1.824</ele>
        <time>2026-08-21T19:39:38.999Z</time>
      </trkpt>
      <trkpt lat="48.670815" lon="-1.515999">
        <ele>1.804</ele>
        <time>2026-08-21T19:39:39.999Z</time>
      </trkpt>
      <trkpt lat="48.670825" lon="-1.516002">
        <ele>1.814</ele>
        <time>2026-08-21T19:39:40.999Z</time>
      </trkpt>
      <trkpt lat="48.670835" lon="-1.516008">
        <ele>1.809</ele>
        <time>2026-08-21T19:39:41.999Z</time>
      </trkpt>
      <trkpt lat="48.670845" lon="-1.516013">
        <ele>1.884</ele>
        <time>2026-08-21T19:39:42.999Z</time>
      </trkpt>
      <trkpt lat="48.670857" lon="-1.516018">
        <ele>1.880</ele>
        <time>2026-08-21T19:39:43.999Z</time>
      </trkpt>
      <trkpt lat="48.670867" lon="-1.516023">
        <ele>1.953</ele>
        <time>2026-08-21T19:39:44.999Z</time>
      </trkpt>
      <trkpt lat="48.670877" lon="-1.516023">
        <ele>1.944</ele>
        <time>2026-08-21T19:39:45.999Z</time>
      </trkpt>
      <trkpt lat="48.670885" lon="-1.516019">
        <ele>2.077</ele>
        <time>2026-08-21T19:39:46.999Z</time>
      </trkpt>
      <trkpt lat="48.670895" lon="-1.516014">
        <ele>2.164</ele>
        <time>2026-08-21T19:39:47.999Z</time>
      </trkpt>
      <trkpt lat="48.670910" lon="-1.516010">
        <ele>2.195</ele>
        <time>2026-08-21T19:39:48.999Z</time>
      </trkpt>
      <trkpt lat="48.670924" lon="-1.516009">
        <ele>2.299</ele>
        <time>2026-08-21T19:39:49.999Z</time>
      </trkpt>
      <trkpt lat="48.670943" lon="-1.516016">
        <ele>2.256</ele>
        <time>2026-08-21T19:39:51.999Z</time>
      </trkpt>
      <trkpt lat="48.670956" lon="-1.516016">
        <ele>2.244</ele>
        <time>2026-08-21T19:39:52.999Z</time>
      </trkpt>
      <trkpt lat="48.670968" lon="-1.516015">
        <ele>2.205</ele>
        <time>2026-08-21T19:39:53.999Z</time>
      </trkpt>
      <trkpt lat="48.670982" lon="-1.516009">
        <ele>2.215</ele>
        <time>2026-08-21T19:39:54.999Z</time>
      </trkpt>
      <trkpt lat="48.670993" lon="-1.516011">
        <ele>2.309</ele>
        <time>2026-08-21T19:39:55.999Z</time>
      </trkpt>
      <trkpt lat="48.671003" lon="-1.516010">
        <ele>2.376</ele>
        <time>2026-08-21T19:39:56.999Z</time>
      </trkpt>
      <trkpt lat="48.671021" lon="-1.516012">
        <ele>2.392</ele>
        <time>2026-08-21T19:39:58.999Z</time>
      </trkpt>
      <trkpt lat="48.671035" lon="-1.516009">
        <ele>2.355</ele>
        <time>2026-08-21T19:39:59.999Z</time>
      </trkpt>
      <trkpt lat="48.671049" lon="-1.516007">
        <ele>2.326</ele>
        <time>2026-08-21T19:40:00.999Z</time>
      </trkpt>
      <trkpt lat="48.671061" lon="-1.516007">
        <ele>2.339</ele>
        <time>2026-08-21T19:40:01.999Z</time>
      </trkpt>
      <trkpt lat="48.671073" lon="-1.516001">
        <ele>2.396</ele>
        <time>2026-08-21T19:40:02.999Z</time>
      </trkpt>
      <trkpt lat="48.671084" lon="-1.515994">
        <ele>2.317</ele>
        <time>2026-08-21T19:40:03.999Z</time>
      </trkpt>
      <trkpt lat="48.671094" lon="-1.515989">
        <ele>2.361</ele>
        <time>2026-08-21T19:40:04.999Z</time>
      </trkpt>
      <trkpt lat="48.671105" lon="-1.515988">
        <ele>2.358</ele>
        <time>2026-08-21T19:40:05.999Z</time>
      </trkpt>
      <trkpt lat="48.671119" lon="-1.515991">
        <ele>2.313</ele>
        <time>2026-08-21T19:40:07.999Z</time>
      </trkpt>
      <trkpt lat="48.671128" lon="-1.515985">
        <ele>2.343</ele>
        <time>2026-08-21T19:40:08.999Z</time>
      </trkpt>
      <trkpt lat="48.671141" lon="-1.515981">
        <ele>2.307</ele>
        <time>2026-08-21T19:40:09.999Z</time>
      </trkpt>
      <trkpt lat="48.671153" lon="-1.515978">
        <ele>2.309</ele>
        <time>2026-08-21T19:40:10.999Z</time>
      </trkpt>
      <trkpt lat="48.671166" lon="-1.515976">
        <ele>2.373</ele>
        <time>2026-08-21T19:40:11.999Z</time>
      </trkpt>
      <trkpt lat="48.671178" lon="-1.515975">
        <ele>2.389</ele>
        <time>2026-08-21T19:40:12.999Z</time>
      </trkpt>
      <trkpt lat="48.671188" lon="-1.515975">
        <ele>2.342</ele>
        <time>2026-08-21T19:40:13.999Z</time>
      </trkpt>
      <trkpt lat="48.671201" lon="-1.515973">
        <ele>2.233</ele>
        <time>2026-08-21T19:40:14.999Z</time>
      </trkpt>
      <trkpt lat="48.671214" lon="-1.515965">
        <ele>2.256</ele>
        <time>2026-08-21T19:40:15.999Z</time>
      </trkpt>
      <trkpt lat="48.671224" lon="-1.515964">
        <ele>2.233</ele>
        <time>2026-08-21T19:40:16.999Z</time>
      </trkpt>
      <trkpt lat="48.671238" lon="-1.515962">
        <ele>2.224</ele>
        <time>2026-08-21T19:40:17.999Z</time>
      </trkpt>
      <trkpt lat="48.671252" lon="-1.515961">
        <ele>2.158</ele>
        <time>2026-08-21T19:40:18.999Z</time>
      </trkpt>
      <trkpt lat="48.671265" lon="-1.515958">
        <ele>2.175</ele>
        <time>2026-08-21T19:40:19.999Z</time>
      </trkpt>
      <trkpt lat="48.671276" lon="-1.515960">
        <ele>2.143</ele>
        <time>2026-08-21T19:40:20.999Z</time>
      </trkpt>
      <trkpt lat="48.671285" lon="-1.515961">
        <ele>2.164</ele>
        <time>2026-08-21T19:40:21.999Z</time>
      </trkpt>
      <trkpt lat="48.671299" lon="-1.515958">
        <ele>2.010</ele>
        <time>2026-08-21T19:40:22.999Z</time>
      </trkpt>
      <trkpt lat="48.671313" lon="-1.515957">
        <ele>1.909</ele>
        <time>2026-08-21T19:40:23.999Z</time>
      </trkpt>
      <trkpt lat="48.671324" lon="-1.515955">
        <ele>1.936</ele>
        <time>2026-08-21T19:40:24.999Z</time>
      </trkpt>
      <trkpt lat="48.671336" lon="-1.515954">
        <ele>1.962</ele>
        <time>2026-08-21T19:40:25.999Z</time>
      </trkpt>
      <trkpt lat="48.671349" lon="-1.515952">
        <ele>1.835</ele>
        <time>2026-08-21T19:40:26.999Z</time>
      </trkpt>
      <trkpt lat="48.671359" lon="-1.515945">
        <ele>1.856</ele>
        <time>2026-08-21T19:40:27.999Z</time>
      </trkpt>
      <trkpt lat="48.671370" lon="-1.515939">
        <ele>1.819</ele>
        <time>2026-08-21T19:40:28.999Z</time>
      </trkpt>
      <trkpt lat="48.671382" lon="-1.515938">
        <ele>1.896</ele>
        <time>2026-08-21T19:40:29.999Z</time>
      </trkpt>
      <trkpt lat="48.671395" lon="-1.515938">
        <ele>1.837</ele>
        <time>2026-08-21T19:40:30.999Z</time>
      </trkpt>
      <trkpt lat="48.671410" lon="-1.515936">
        <ele>1.811</ele>
        <time>2026-08-21T19:40:31.999Z</time>
      </trkpt>
      <trkpt lat="48.671422" lon="-1.515934">
        <ele>1.828</ele>
        <time>2026-08-21T19:40:32.999Z</time>
      </trkpt>
      <trkpt lat="48.671432" lon="-1.515934">
        <ele>1.841</ele>
        <time>2026-08-21T19:40:33.999Z</time>
      </trkpt>
      <trkpt lat="48.671443" lon="-1.515931">
        <ele>1.881</ele>
        <time>2026-08-21T19:40:34.999Z</time>
      </trkpt>
      <trkpt lat="48.671463" lon="-1.515925">
        <ele>1.809</ele>
        <time>2026-08-21T19:40:36.999Z</time>
      </trkpt>
      <trkpt lat="48.671480" lon="-1.515923">
        <ele>1.809</ele>
        <time>2026-08-21T19:40:38.999Z</time>
      </trkpt>
      <trkpt lat="48.671492" lon="-1.515922">
        <ele>1.896</ele>
        <time>2026-08-21T19:40:39.999Z</time>
      </trkpt>
      <trkpt lat="48.671503" lon="-1.515922">
        <ele>1.882</ele>
        <time>2026-08-21T19:40:40.999Z</time>
      </trkpt>
      <trkpt lat="48.671515" lon="-1.515920">
        <ele>1.815</ele>
        <time>2026-08-21T19:40:41.999Z</time>
      </trkpt>
      <trkpt lat="48.671529" lon="-1.515917">
        <ele>1.886</ele>
        <time>2026-08-21T19:40:42.999Z</time>
      </trkpt>
      <trkpt lat="48.671542" lon="-1.515912">
        <ele>1.959</ele>
        <time>2026-08-21T19:40:43.999Z</time>
      </trkpt>
      <trkpt lat="48.671554" lon="-1.515916">
        <ele>1.966</ele>
        <time>2026-08-21T19:40:44.999Z</time>
      </trkpt>
      <trkpt lat="48.671565" lon="-1.515917">
        <ele>2.067</ele>
        <time>2026-08-21T19:40:45.999Z</time>
      </trkpt>
      <trkpt lat="48.671577" lon="-1.515917">
        <ele>2.161</ele>
        <time>2026-08-21T19:40:46.999Z</time>
      </trkpt>
      <trkpt lat="48.671589" lon="-1.515920">
        <ele>2.138</ele>
        <time>2026-08-21T19:40:47.999Z</time>
      </trkpt>
      <trkpt lat="48.671601" lon="-1.515920">
        <ele>2.186</ele>
        <time>2026-08-21T19:40:48.999Z</time>
      </trkpt>
      <trkpt lat="48.671612" lon="-1.515924">
        <ele>2.160</ele>
        <time>2026-08-21T19:40:49.999Z</time>
      </trkpt>
      <trkpt lat="48.671622" lon="-1.515925">
        <ele>2.126</ele>
        <time>2026-08-21T19:40:50.999Z</time>
      </trkpt>
      <trkpt lat="48.671633" lon="-1.515926">
        <ele>2.109</ele>
        <time>2026-08-21T19:40:51.999Z</time>
      </trkpt>
      <trkpt lat="48.671647" lon="-1.515921">
        <ele>2.170</ele>
        <time>2026-08-21T19:40:52.999Z</time>
      </trkpt>
      <trkpt lat="48.671658" lon="-1.515916">
        <ele>2.146</ele>
        <time>2026-08-21T19:40:53.999Z</time>
      </trkpt>
      <trkpt lat="48.671668" lon="-1.515915">
        <ele>2.199</ele>
        <time>2026-08-21T19:40:54.999Z</time>
      </trkpt>
      <trkpt lat="48.671680" lon="-1.515916">
        <ele>2.180</ele>
        <time>2026-08-21T19:40:55.999Z</time>
      </trkpt>
      <trkpt lat="48.671691" lon="-1.515916">
        <ele>2.173</ele>
        <time>2026-08-21T19:40:56.999Z</time>
      </trkpt>
      <trkpt lat="48.671703" lon="-1.515916">
        <ele>2.110</ele>
        <time>2026-08-21T19:40:57.999Z</time>
      </trkpt>
      <trkpt lat="48.671716" lon="-1.515918">
        <ele>2.191</ele>
        <time>2026-08-21T19:40:58.999Z</time>
      </trkpt>
      <trkpt lat="48.671728" lon="-1.515919">
        <ele>2.145</ele>
        <time>2026-08-21T19:40:59.999Z</time>
      </trkpt>
      <trkpt lat="48.671740" lon="-1.515920">
        <ele>2.132</ele>
        <time>2026-08-21T19:41:00.999Z</time>
      </trkpt>
      <trkpt lat="48.671752" lon="-1.515919">
        <ele>2.149</ele>
        <time>2026-08-21T19:41:01.999Z</time>
      </trkpt>
      <trkpt lat="48.671766" lon="-1.515923">
        <ele>2.102</ele>
        <time>2026-08-21T19:41:02.999Z</time>
      </trkpt>
      <trkpt lat="48.671779" lon="-1.515923">
        <ele>2.022</ele>
        <time>2026-08-21T19:41:03.999Z</time>
      </trkpt>
      <trkpt lat="48.671788" lon="-1.515927">
        <ele>2.009</ele>
        <time>2026-08-21T19:41:04.999Z</time>
      </trkpt>
      <trkpt lat="48.671798" lon="-1.515929">
        <ele>1.936</ele>
        <time>2026-08-21T19:41:05.999Z</time>
      </trkpt>
      <trkpt lat="48.671808" lon="-1.515933">
        <ele>1.912</ele>
        <time>2026-08-21T19:41:06.999Z</time>
      </trkpt>
      <trkpt lat="48.671818" lon="-1.515938">
        <ele>1.855</ele>
        <time>2026-08-21T19:41:07.999Z</time>
      </trkpt>
      <trkpt lat="48.671831" lon="-1.515936">
        <ele>1.876</ele>
        <time>2026-08-21T19:41:08.999Z</time>
      </trkpt>
      <trkpt lat="48.671847" lon="-1.515933">
        <ele>1.849</ele>
        <time>2026-08-21T19:41:09.999Z</time>
      </trkpt>
      <trkpt lat="48.671861" lon="-1.515928">
        <ele>1.856</ele>
        <time>2026-08-21T19:41:10.999Z</time>
      </trkpt>
      <trkpt lat="48.671873" lon="-1.515928">
        <ele>1.857</ele>
        <time>2026-08-21T19:41:11.999Z</time>
      </trkpt>
      <trkpt lat="48.671882" lon="-1.515928">
        <ele>1.881</ele>
        <time>2026-08-21T19:41:12.999Z</time>
      </trkpt>
      <trkpt lat="48.671892" lon="-1.515928">
        <ele>1.838</ele>
        <time>2026-08-21T19:41:13.999Z</time>
      </trkpt>
      <trkpt lat="48.671902" lon="-1.515924">
        <ele>1.839</ele>
        <time>2026-08-21T19:41:14.999Z</time>
      </trkpt>
      <trkpt lat="48.671911" lon="-1.515921">
        <ele>1.801</ele>
        <time>2026-08-21T19:41:15.999Z</time>
      </trkpt>
      <trkpt lat="48.671921" lon="-1.515925">
        <ele>1.821</ele>
        <time>2026-08-21T19:41:16.999Z</time>
      </trkpt>
      <trkpt lat="48.671930" lon="-1.515931">
        <ele>1.809</ele>
        <time>2026-08-21T19:41:17.999Z</time>
      </trkpt>
      <trkpt lat="48.671939" lon="-1.515935">
        <ele>1.835</ele>
        <time>2026-08-21T19:41:18.999Z</time>
      </trkpt>
      <trkpt lat="48.671958" lon="-1.515934">
        <ele>1.891</ele>
        <time>2026-08-21T19:41:20.999Z</time>
      </trkpt>
      <trkpt lat="48.671974" lon="-1.515935">
        <ele>1.844</ele>
        <time>2026-08-21T19:41:21.999Z</time>
      </trkpt>
      <trkpt lat="48.671987" lon="-1.515931">
        <ele>1.815</ele>
        <time>2026-08-21T19:41:22.999Z</time>
      </trkpt>
      <trkpt lat="48.672002" lon="-1.515928">
        <ele>1.928</ele>
        <time>2026-08-21T19:41:23.999Z</time>
      </trkpt>
      <trkpt lat="48.672013" lon="-1.515931">
        <ele>1.945</ele>
        <time>2026-08-21T19:41:24.999Z</time>
      </trkpt>
      <trkpt lat="48.672025" lon="-1.515933">
        <ele>2.096</ele>
        <time>2026-08-21T19:41:25.999Z</time>
      </trkpt>
      <trkpt lat="48.672042" lon="-1.515931">
        <ele>2.050</ele>
        <time>2026-08-21T19:41:27.999Z</time>
      </trkpt>
      <trkpt lat="48.672054" lon="-1.515928">
        <ele>2.077</ele>
        <time>2026-08-21T19:41:28.999Z</time>
      </trkpt>
      <trkpt lat="48.672073" lon="-1.515930">
        <ele>2.065</ele>
        <time>2026-08-21T19:41:30.999Z</time>
      </trkpt>
      <trkpt lat="48.672084" lon="-1.515932">
        <ele>2.068</ele>
        <time>2026-08-21T19:41:31.999Z</time>
      </trkpt>
      <trkpt lat="48.672098" lon="-1.515934">
        <ele>2.014</ele>
        <time>2026-08-21T19:41:32.999Z</time>
      </trkpt>
      <trkpt lat="48.672112" lon="-1.515935">
        <ele>2.009</ele>
        <time>2026-08-21T19:41:33.999Z</time>
      </trkpt>
      <trkpt lat="48.672123" lon="-1.515936">
        <ele>2.018</ele>
        <time>2026-08-21T19:41:34.999Z</time>
      </trkpt>
      <trkpt lat="48.672143" lon="-1.515939">
        <ele>2.024</ele>
        <time>2026-08-21T19:41:36.999Z</time>
      </trkpt>
      <trkpt lat="48.672155" lon="-1.515940">
        <ele>2.057</ele>
        <time>2026-08-21T19:41:37.999Z</time>
      </trkpt>
      <trkpt lat="48.672166" lon="-1.515940">
        <ele>2.088</ele>
        <time>2026-08-21T19:41:38.999Z</time>
      </trkpt>
      <trkpt lat="48.672178" lon="-1.515944">
        <ele>2.081</ele>
        <time>2026-08-21T19:41:39.999Z</time>
      </trkpt>
      <trkpt lat="48.672189" lon="-1.515945">
        <ele>2.018</ele>
        <time>2026-08-21T19:41:40.999Z</time>
      </trkpt>
      <trkpt lat="48.672208" lon="-1.515942">
        <ele>2.029</ele>
        <time>2026-08-21T19:41:42.999Z</time>
      </trkpt>
      <trkpt lat="48.672220" lon="-1.515933">
        <ele>2.173</ele>
        <time>2026-08-21T19:41:43.999Z</time>
      </trkpt>
      <trkpt lat="48.672229" lon="-1.515928">
        <ele>2.120</ele>
        <time>2026-08-21T19:41:44.999Z</time>
      </trkpt>
      <trkpt lat="48.672240" lon="-1.515927">
        <ele>2.077</ele>
        <time>2026-08-21T19:41:45.999Z</time>
      </trkpt>
      <trkpt lat="48.672250" lon="-1.515928">
        <ele>2.061</ele>
        <time>2026-08-21T19:41:46.999Z</time>
      </trkpt>
      <trkpt lat="48.672261" lon="-1.515929">
        <ele>2.027</ele>
        <time>2026-08-21T19:41:47.999Z</time>
      </trkpt>
      <trkpt lat="48.672275" lon="-1.515930">
        <ele>2.009</ele>
        <time>2026-08-21T19:41:48.999Z</time>
      </trkpt>
      <trkpt lat="48.672288" lon="-1.515929">
        <ele>1.929</ele>
        <time>2026-08-21T19:41:49.999Z</time>
      </trkpt>
      <trkpt lat="48.672299" lon="-1.515930">
        <ele>1.825</ele>
        <time>2026-08-21T19:41:50.999Z</time>
      </trkpt>
      <trkpt lat="48.672312" lon="-1.515929">
        <ele>1.818</ele>
        <time>2026-08-21T19:41:51.999Z</time>
      </trkpt>
      <trkpt lat="48.672324" lon="-1.515931">
        <ele>1.869</ele>
        <time>2026-08-21T19:41:52.999Z</time>
      </trkpt>
      <trkpt lat="48.672340" lon="-1.515935">
        <ele>1.812</ele>
        <time>2026-08-21T19:41:53.999Z</time>
      </trkpt>
      <trkpt lat="48.672352" lon="-1.515935">
        <ele>1.889</ele>
        <time>2026-08-21T19:41:54.999Z</time>
      </trkpt>
      <trkpt lat="48.672370" lon="-1.515932">
        <ele>1.820</ele>
        <time>2026-08-21T19:41:56.999Z</time>
      </trkpt>
      <trkpt lat="48.672386" lon="-1.515931">
        <ele>1.894</ele>
        <time>2026-08-21T19:41:58.999Z</time>
      </trkpt>
      <trkpt lat="48.672396" lon="-1.515931">
        <ele>1.881</ele>
        <time>2026-08-21T19:41:59.999Z</time>
      </trkpt>
      <trkpt lat="48.672411" lon="-1.515935">
        <ele>1.879</ele>
        <time>2026-08-21T19:42:00.999Z</time>
      </trkpt>
      <trkpt lat="48.672421" lon="-1.515937">
        <ele>1.805</ele>
        <time>2026-08-21T19:42:01.999Z</time>
      </trkpt>
      <trkpt lat="48.672432" lon="-1.515937">
        <ele>1.725</ele>
        <time>2026-08-21T19:42:02.999Z</time>
      </trkpt>
      <trkpt lat="48.672444" lon="-1.515934">
        <ele>1.709</ele>
        <time>2026-08-21T19:42:03.999Z</time>
      </trkpt>
      <trkpt lat="48.672460" lon="-1.515933">
        <ele>1.679</ele>
        <time>2026-08-21T19:42:04.999Z</time>
      </trkpt>
      <trkpt lat="48.672472" lon="-1.515935">
        <ele>1.675</ele>
        <time>2026-08-21T19:42:05.999Z</time>
      </trkpt>
      <trkpt lat="48.672484" lon="-1.515936">
        <ele>1.698</ele>
        <time>2026-08-21T19:42:06.999Z</time>
      </trkpt>
      <trkpt lat="48.672496" lon="-1.515937">
        <ele>1.799</ele>
        <time>2026-08-21T19:42:07.999Z</time>
      </trkpt>
      <trkpt lat="48.672506" lon="-1.515935">
        <ele>1.742</ele>
        <time>2026-08-21T19:42:08.999Z</time>
      </trkpt>
      <trkpt lat="48.672517" lon="-1.515934">
        <ele>1.719</ele>
        <time>2026-08-21T19:42:09.999Z</time>
      </trkpt>
      <trkpt lat="48.672527" lon="-1.515933">
        <ele>1.860</ele>
        <time>2026-08-21T19:42:10.999Z</time>
      </trkpt>
      <trkpt lat="48.672545" lon="-1.515938">
        <ele>1.864</ele>
        <time>2026-08-21T19:42:12.999Z</time>
      </trkpt>
      <trkpt lat="48.672558" lon="-1.515937">
        <ele>1.831</ele>
        <time>2026-08-21T19:42:13.999Z</time>
      </trkpt>
      <trkpt lat="48.672577" lon="-1.515941">
        <ele>1.823</ele>
        <time>2026-08-21T19:42:15.999Z</time>
      </trkpt>
      <trkpt lat="48.672589" lon="-1.515943">
        <ele>1.883</ele>
        <time>2026-08-21T19:42:16.999Z</time>
      </trkpt>
      <trkpt lat="48.672600" lon="-1.515944">
        <ele>1.711</ele>
        <time>2026-08-21T19:42:17.999Z</time>
      </trkpt>
      <trkpt lat="48.672611" lon="-1.515940">
        <ele>1.709</ele>
        <time>2026-08-21T19:42:18.999Z</time>
      </trkpt>
      <trkpt lat="48.672622" lon="-1.515938">
        <ele>1.754</ele>
        <time>2026-08-21T19:42:19.999Z</time>
      </trkpt>
      <trkpt lat="48.672632" lon="-1.515931">
        <ele>1.750</ele>
        <time>2026-08-21T19:42:20.999Z</time>
      </trkpt>
      <trkpt lat="48.672643" lon="-1.515931">
        <ele>1.613</ele>
        <time>2026-08-21T19:42:21.999Z</time>
      </trkpt>
      <trkpt lat="48.672654" lon="-1.515930">
        <ele>1.634</ele>
        <time>2026-08-21T19:42:22.999Z</time>
      </trkpt>
      <trkpt lat="48.672675" lon="-1.515930">
        <ele>1.627</ele>
        <time>2026-08-21T19:42:24.999Z</time>
      </trkpt>
      <trkpt lat="48.672686" lon="-1.515931">
        <ele>1.694</ele>
        <time>2026-08-21T19:42:25.999Z</time>
      </trkpt>
      <trkpt lat="48.672695" lon="-1.515928">
        <ele>1.635</ele>
        <time>2026-08-21T19:42:26.999Z</time>
      </trkpt>
      <trkpt lat="48.672708" lon="-1.515923">
        <ele>1.689</ele>
        <time>2026-08-21T19:42:27.999Z</time>
      </trkpt>
      <trkpt lat="48.672721" lon="-1.515919">
        <ele>1.666</ele>
        <time>2026-08-21T19:42:28.999Z</time>
      </trkpt>
      <trkpt lat="48.672732" lon="-1.515919">
        <ele>1.558</ele>
        <time>2026-08-21T19:42:29.999Z</time>
      </trkpt>
      <trkpt lat="48.672742" lon="-1.515920">
        <ele>1.552</ele>
        <time>2026-08-21T19:42:30.999Z</time>
      </trkpt>
      <trkpt lat="48.672754" lon="-1.515921">
        <ele>1.517</ele>
        <time>2026-08-21T19:42:31.999Z</time>
      </trkpt>
      <trkpt lat="48.672764" lon="-1.515920">
        <ele>1.509</ele>
        <time>2026-08-21T19:42:32.999Z</time>
      </trkpt>
      <trkpt lat="48.672775" lon="-1.515918">
        <ele>1.537</ele>
        <time>2026-08-21T19:42:33.999Z</time>
      </trkpt>
      <trkpt lat="48.672785" lon="-1.515915">
        <ele>1.543</ele>
        <time>2026-08-21T19:42:34.999Z</time>
      </trkpt>
      <trkpt lat="48.672798" lon="-1.515915">
        <ele>1.596</ele>
        <time>2026-08-21T19:42:35.999Z</time>
      </trkpt>
      <trkpt lat="48.672808" lon="-1.515916">
        <ele>1.577</ele>
        <time>2026-08-21T19:42:36.999Z</time>
      </trkpt>
      <trkpt lat="48.672817" lon="-1.515918">
        <ele>1.430</ele>
        <time>2026-08-21T19:42:37.999Z</time>
      </trkpt>
      <trkpt lat="48.672828" lon="-1.515915">
        <ele>1.467</ele>
        <time>2026-08-21T19:42:38.999Z</time>
      </trkpt>
      <trkpt lat="48.672840" lon="-1.515913">
        <ele>1.488</ele>
        <time>2026-08-21T19:42:39.999Z</time>
      </trkpt>
      <trkpt lat="48.672850" lon="-1.515910">
        <ele>1.312</ele>
        <time>2026-08-21T19:42:40.999Z</time>
      </trkpt>
      <trkpt lat="48.672860" lon="-1.515907">
        <ele>1.249</ele>
        <time>2026-08-21T19:42:41.999Z</time>
      </trkpt>
      <trkpt lat="48.672869" lon="-1.515901">
        <ele>1.194</ele>
        <time>2026-08-21T19:42:42.999Z</time>
      </trkpt>
      <trkpt lat="48.672878" lon="-1.515898">
        <ele>0.957</ele>
        <time>2026-08-21T19:42:43.999Z</time>
      </trkpt>
      <trkpt lat="48.672887" lon="-1.515899">
        <ele>0.922</ele>
        <time>2026-08-21T19:42:44.999Z</time>
      </trkpt>
      <trkpt lat="48.672896" lon="-1.515904">
        <ele>0.909</ele>
        <time>2026-08-21T19:42:45.999Z</time>
      </trkpt>
      <trkpt lat="48.672909" lon="-1.515905">
        <ele>0.931</ele>
        <time>2026-08-21T19:42:46.999Z</time>
      </trkpt>
      <trkpt lat="48.672922" lon="-1.515907">
        <ele>0.917</ele>
        <time>2026-08-21T19:42:47.999Z</time>
      </trkpt>
      <trkpt lat="48.672934" lon="-1.515900">
        <ele>0.950</ele>
        <time>2026-08-21T19:42:48.999Z</time>
      </trkpt>
      <trkpt lat="48.672946" lon="-1.515894">
        <ele>0.981</ele>
        <time>2026-08-21T19:42:49.999Z</time>
      </trkpt>
      <trkpt lat="48.672958" lon="-1.515891">
        <ele>0.934</ele>
        <time>2026-08-21T19:42:50.999Z</time>
      </trkpt>
      <trkpt lat="48.672969" lon="-1.515892">
        <ele>0.921</ele>
        <time>2026-08-21T19:42:51.999Z</time>
      </trkpt>
      <trkpt lat="48.672984" lon="-1.515887">
        <ele>0.952</ele>
        <time>2026-08-21T19:42:52.999Z</time>
      </trkpt>
      <trkpt lat="48.672995" lon="-1.515890">
        <ele>0.996</ele>
        <time>2026-08-21T19:42:53.999Z</time>
      </trkpt>
      <trkpt lat="48.673006" lon="-1.515892">
        <ele>0.953</ele>
        <time>2026-08-21T19:42:54.999Z</time>
      </trkpt>
      <trkpt lat="48.673016" lon="-1.515894">
        <ele>0.941</ele>
        <time>2026-08-21T19:42:55.999Z</time>
      </trkpt>
      <trkpt lat="48.673034" lon="-1.515890">
        <ele>0.981</ele>
        <time>2026-08-21T19:42:57.999Z</time>
      </trkpt>
      <trkpt lat="48.673045" lon="-1.515891">
        <ele>0.909</ele>
        <time>2026-08-21T19:42:58.999Z</time>
      </trkpt>
      <trkpt lat="48.673064" lon="-1.515891">
        <ele>0.909</ele>
        <time>2026-08-21T19:43:00.999Z</time>
      </trkpt>
      <trkpt lat="48.673075" lon="-1.515888">
        <ele>0.976</ele>
        <time>2026-08-21T19:43:01.999Z</time>
      </trkpt>
      <trkpt lat="48.673086" lon="-1.515884">
        <ele>0.982</ele>
        <time>2026-08-21T19:43:02.999Z</time>
      </trkpt>
      <trkpt lat="48.673098" lon="-1.515882">
        <ele>1.035</ele>
        <time>2026-08-21T19:43:03.999Z</time>
      </trkpt>
      <trkpt lat="48.673108" lon="-1.515880">
        <ele>1.286</ele>
        <time>2026-08-21T19:43:04.999Z</time>
      </trkpt>
      <trkpt lat="48.673121" lon="-1.515885">
        <ele>1.239</ele>
        <time>2026-08-21T19:43:06.999Z</time>
      </trkpt>
      <trkpt lat="48.673138" lon="-1.515891">
        <ele>1.256</ele>
        <time>2026-08-21T19:43:08.999Z</time>
      </trkpt>
      <trkpt lat="48.673151" lon="-1.515890">
        <ele>1.257</ele>
        <time>2026-08-21T19:43:09.999Z</time>
      </trkpt>
      <trkpt lat="48.673165" lon="-1.515891">
        <ele>1.251</ele>
        <time>2026-08-21T19:43:10.999Z</time>
      </trkpt>
      <trkpt lat="48.673177" lon="-1.515890">
        <ele>1.238</ele>
        <time>2026-08-21T19:43:11.999Z</time>
      </trkpt>
      <trkpt lat="48.673190" lon="-1.515888">
        <ele>1.266</ele>
        <time>2026-08-21T19:43:12.999Z</time>
      </trkpt>
      <trkpt lat="48.673203" lon="-1.515888">
        <ele>1.229</ele>
        <time>2026-08-21T19:43:13.999Z</time>
      </trkpt>
      <trkpt lat="48.673215" lon="-1.515886">
        <ele>1.221</ele>
        <time>2026-08-21T19:43:14.999Z</time>
      </trkpt>
      <trkpt lat="48.673227" lon="-1.515883">
        <ele>1.209</ele>
        <time>2026-08-21T19:43:15.999Z</time>
      </trkpt>
      <trkpt lat="48.673243" lon="-1.515886">
        <ele>1.238</ele>
        <time>2026-08-21T19:43:17.999Z</time>
      </trkpt>
      <trkpt lat="48.673255" lon="-1.515883">
        <ele>1.264</ele>
        <time>2026-08-21T19:43:18.999Z</time>
      </trkpt>
      <trkpt lat="48.673266" lon="-1.515880">
        <ele>1.247</ele>
        <time>2026-08-21T19:43:19.999Z</time>
      </trkpt>
      <trkpt lat="48.673285" lon="-1.515881">
        <ele>1.218</ele>
        <time>2026-08-21T19:43:21.999Z</time>
      </trkpt>
      <trkpt lat="48.673297" lon="-1.515878">
        <ele>1.371</ele>
        <time>2026-08-21T19:43:22.999Z</time>
      </trkpt>
      <trkpt lat="48.673307" lon="-1.515881">
        <ele>1.328</ele>
        <time>2026-08-21T19:43:23.999Z</time>
      </trkpt>
      <trkpt lat="48.673316" lon="-1.515887">
        <ele>1.269</ele>
        <time>2026-08-21T19:43:24.999Z</time>
      </trkpt>
      <trkpt lat="48.673326" lon="-1.515891">
        <ele>1.233</ele>
        <time>2026-08-21T19:43:25.999Z</time>
      </trkpt>
      <trkpt lat="48.673335" lon="-1.515896">
        <ele>1.170</ele>
        <time>2026-08-21T19:43:26.999Z</time>
      </trkpt>
      <trkpt lat="48.673347" lon="-1.515895">
        <ele>1.015</ele>
        <time>2026-08-21T19:43:27.999Z</time>
      </trkpt>
      <trkpt lat="48.673362" lon="-1.515892">
        <ele>1.065</ele>
        <time>2026-08-21T19:43:28.999Z</time>
      </trkpt>
      <trkpt lat="48.673375" lon="-1.515896">
        <ele>1.011</ele>
        <time>2026-08-21T19:43:29.999Z</time>
      </trkpt>
      <trkpt lat="48.673386" lon="-1.515901">
        <ele>1.009</ele>
        <time>2026-08-21T19:43:30.999Z</time>
      </trkpt>
      <trkpt lat="48.673399" lon="-1.515906">
        <ele>1.013</ele>
        <time>2026-08-21T19:43:32.999Z</time>
      </trkpt>
      <trkpt lat="48.673414" lon="-1.515908">
        <ele>1.029</ele>
        <time>2026-08-21T19:43:34.999Z</time>
      </trkpt>
      <trkpt lat="48.673425" lon="-1.515906">
        <ele>1.042</ele>
        <time>2026-08-21T19:43:35.999Z</time>
      </trkpt>
      <trkpt lat="48.673435" lon="-1.515907">
        <ele>1.053</ele>
        <time>2026-08-21T19:43:36.999Z</time>
      </trkpt>
      <trkpt lat="48.673450" lon="-1.515912">
        <ele>1.066</ele>
        <time>2026-08-21T19:43:38.999Z</time>
      </trkpt>
      <trkpt lat="48.673459" lon="-1.515916">
        <ele>1.053</ele>
        <time>2026-08-21T19:43:39.999Z</time>
      </trkpt>
      <trkpt lat="48.673472" lon="-1.515917">
        <ele>1.014</ele>
        <time>2026-08-21T19:43:40.999Z</time>
      </trkpt>
      <trkpt lat="48.673491" lon="-1.515911">
        <ele>1.018</ele>
        <time>2026-08-21T19:43:42.999Z</time>
      </trkpt>
      <trkpt lat="48.673505" lon="-1.515912">
        <ele>1.045</ele>
        <time>2026-08-21T19:43:43.999Z</time>
      </trkpt>
      <trkpt lat="48.673515" lon="-1.515919">
        <ele>1.064</ele>
        <time>2026-08-21T19:43:44.999Z</time>
      </trkpt>
      <trkpt lat="48.673524" lon="-1.515922">
        <ele>1.006</ele>
        <time>2026-08-21T19:43:45.999Z</time>
      </trkpt>
      <trkpt lat="48.673534" lon="-1.515920">
        <ele>1.016</ele>
        <time>2026-08-21T19:43:47.999Z</time>
      </trkpt>
      <trkpt lat="48.673549" lon="-1.515913">
        <ele>1.009</ele>
        <time>2026-08-21T19:43:49.999Z</time>
      </trkpt>
      <trkpt lat="48.673562" lon="-1.515909">
        <ele>1.098</ele>
        <time>2026-08-21T19:43:50.999Z</time>
      </trkpt>
      <trkpt lat="48.673572" lon="-1.515904">
        <ele>1.034</ele>
        <time>2026-08-21T19:43:51.999Z</time>
      </trkpt>
      <trkpt lat="48.673586" lon="-1.515899">
        <ele>1.087</ele>
        <time>2026-08-21T19:43:52.999Z</time>
      </trkpt>
      <trkpt lat="48.673598" lon="-1.515897">
        <ele>1.058</ele>
        <time>2026-08-21T19:43:53.999Z</time>
      </trkpt>
      <trkpt lat="48.673610" lon="-1.515898">
        <ele>1.061</ele>
        <time>2026-08-21T19:43:54.999Z</time>
      </trkpt>
      <trkpt lat="48.673621" lon="-1.515898">
        <ele>1.038</ele>
        <time>2026-08-21T19:43:55.999Z</time>
      </trkpt>
      <trkpt lat="48.673631" lon="-1.515896">
        <ele>1.049</ele>
        <time>2026-08-21T19:43:56.999Z</time>
      </trkpt>
      <trkpt lat="48.673646" lon="-1.515895">
        <ele>1.073</ele>
        <time>2026-08-21T19:43:58.999Z</time>
      </trkpt>
      <trkpt lat="48.673655" lon="-1.515895">
        <ele>0.820</ele>
        <time>2026-08-21T19:43:59.999Z</time>
      </trkpt>
      <trkpt lat="48.673666" lon="-1.515894">
        <ele>0.768</ele>
        <time>2026-08-21T19:44:00.999Z</time>
      </trkpt>
      <trkpt lat="48.673681" lon="-1.515895">
        <ele>0.742</ele>
        <time>2026-08-21T19:44:02.999Z</time>
      </trkpt>
      <trkpt lat="48.673695" lon="-1.515901">
        <ele>0.726</ele>
        <time>2026-08-21T19:44:04.999Z</time>
      </trkpt>
      <trkpt lat="48.673704" lon="-1.515898">
        <ele>0.609</ele>
        <time>2026-08-21T19:44:05.999Z</time>
      </trkpt>
      <trkpt lat="48.673715" lon="-1.515895">
        <ele>0.648</ele>
        <time>2026-08-21T19:44:06.999Z</time>
      </trkpt>
      <trkpt lat="48.673726" lon="-1.515897">
        <ele>0.634</ele>
        <time>2026-08-21T19:44:07.999Z</time>
      </trkpt>
      <trkpt lat="48.673737" lon="-1.515900">
        <ele>0.657</ele>
        <time>2026-08-21T19:44:08.999Z</time>
      </trkpt>
      <trkpt lat="48.673749" lon="-1.515896">
        <ele>0.568</ele>
        <time>2026-08-21T19:44:09.999Z</time>
      </trkpt>
      <trkpt lat="48.673768" lon="-1.515895">
        <ele>0.531</ele>
        <time>2026-08-21T19:44:11.999Z</time>
      </trkpt>
      <trkpt lat="48.673784" lon="-1.515902">
        <ele>0.598</ele>
        <time>2026-08-21T19:44:13.999Z</time>
      </trkpt>
      <trkpt lat="48.673796" lon="-1.515906">
        <ele>0.529</ele>
        <time>2026-08-21T19:44:14.999Z</time>
      </trkpt>
      <trkpt lat="48.673805" lon="-1.515905">
        <ele>0.553</ele>
        <time>2026-08-21T19:44:15.999Z</time>
      </trkpt>
      <trkpt lat="48.673823" lon="-1.515903">
        <ele>0.530</ele>
        <time>2026-08-21T19:44:17.999Z</time>
      </trkpt>
      <trkpt lat="48.673842" lon="-1.515904">
        <ele>0.512</ele>
        <time>2026-08-21T19:44:19.999Z</time>
      </trkpt>
      <trkpt lat="48.673857" lon="-1.515904">
        <ele>0.532</ele>
        <time>2026-08-21T19:44:20.999Z</time>
      </trkpt>
      <trkpt lat="48.673870" lon="-1.515903">
        <ele>0.505</ele>
        <time>2026-08-21T19:44:21.999Z</time>
      </trkpt>
      <trkpt lat="48.673879" lon="-1.515898">
        <ele>0.509</ele>
        <time>2026-08-21T19:44:22.999Z</time>
      </trkpt>
      <trkpt lat="48.673893" lon="-1.515894">
        <ele>0.553</ele>
        <time>2026-08-21T19:44:24.999Z</time>
      </trkpt>
      <trkpt lat="48.673913" lon="-1.515890">
        <ele>0.539</ele>
        <time>2026-08-21T19:44:26.999Z</time>
      </trkpt>
      <trkpt lat="48.673927" lon="-1.515890">
        <ele>0.672</ele>
        <time>2026-08-21T19:44:28.999Z</time>
      </trkpt>
      <trkpt lat="48.673942" lon="-1.515895">
        <ele>0.643</ele>
        <time>2026-08-21T19:44:30.999Z</time>
      </trkpt>
      <trkpt lat="48.673952" lon="-1.515895">
        <ele>0.666</ele>
        <time>2026-08-21T19:44:31.999Z</time>
      </trkpt>
      <trkpt lat="48.673961" lon="-1.515897">
        <ele>0.683</ele>
        <time>2026-08-21T19:44:32.999Z</time>
      </trkpt>
      <trkpt lat="48.673971" lon="-1.515890">
        <ele>0.624</ele>
        <time>2026-08-21T19:44:34.999Z</time>
      </trkpt>
      <trkpt lat="48.673973" lon="-1.515910">
        <ele>0.738</ele>
        <time>2026-08-21T19:44:52.999Z</time>
      </trkpt>
      <trkpt lat="48.673982" lon="-1.515905">
        <ele>0.745</ele>
        <time>2026-08-21T19:45:11.999Z</time>
      </trkpt>
      <trkpt lat="48.673995" lon="-1.515903">
        <ele>0.756</ele>
        <time>2026-08-21T19:45:13.999Z</time>
      </trkpt>
      <trkpt lat="48.674005" lon="-1.515900">
        <ele>0.759</ele>
        <time>2026-08-21T19:45:14.999Z</time>
      </trkpt>
      <trkpt lat="48.674015" lon="-1.515895">
        <ele>0.714</ele>
        <time>2026-08-21T19:45:16.999Z</time>
      </trkpt>
      <trkpt lat="48.674022" lon="-1.515874">
        <ele>0.609</ele>
        <time>2026-08-21T19:45:20.999Z</time>
      </trkpt>
      <trkpt lat="48.674034" lon="-1.515873">
        <ele>0.637</ele>
        <time>2026-08-21T19:45:22.999Z</time>
      </trkpt>
      <trkpt lat="48.674043" lon="-1.515863">
        <ele>0.663</ele>
        <time>2026-08-21T19:45:41.999Z</time>
      </trkpt>
      <trkpt lat="48.674053" lon="-1.515855">
        <ele>0.686</ele>
        <time>2026-08-21T19:45:43.999Z</time>
      </trkpt>
      <trkpt lat="48.674066" lon="-1.515854">
        <ele>0.677</ele>
        <time>2026-08-21T19:45:45.999Z</time>
      </trkpt>
      <trkpt lat="48.674082" lon="-1.515843">
        <ele>0.630</ele>
        <time>2026-08-21T19:45:47.999Z</time>
      </trkpt>
      <trkpt lat="48.674093" lon="-1.515840">
        <ele>0.687</ele>
        <time>2026-08-21T19:45:49.999Z</time>
      </trkpt>
      <trkpt lat="48.674107" lon="-1.515847">
        <ele>0.618</ele>
        <time>2026-08-21T19:45:51.999Z</time>
      </trkpt>
      <trkpt lat="48.674118" lon="-1.515847">
        <ele>0.612</ele>
        <time>2026-08-21T19:45:52.999Z</time>
      </trkpt>
      <trkpt lat="48.674127" lon="-1.515841">
        <ele>0.649</ele>
        <time>2026-08-21T19:45:53.999Z</time>
      </trkpt>
      <trkpt lat="48.674141" lon="-1.515835">
        <ele>0.671</ele>
        <time>2026-08-21T19:45:55.999Z</time>
      </trkpt>
      <trkpt lat="48.674151" lon="-1.515833">
        <ele>0.441</ele>
        <time>2026-08-21T19:45:56.999Z</time>
      </trkpt>
      <trkpt lat="48.674164" lon="-1.515830">
        <ele>0.115</ele>
        <time>2026-08-21T19:45:58.999Z</time>
      </trkpt>
      <trkpt lat="48.674176" lon="-1.515831">
        <ele>-0.209</ele>
        <time>2026-08-21T19:46:00.999Z</time>
      </trkpt>
      <trkpt lat="48.674189" lon="-1.515833">
        <ele>-0.419</ele>
        <time>2026-08-21T19:46:04.999Z</time>
      </trkpt>
      <trkpt lat="48.674198" lon="-1.515826">
        <ele>-0.525</ele>
        <time>2026-08-21T19:46:06.999Z</time>
      </trkpt>
      <trkpt lat="48.674208" lon="-1.515824">
        <ele>-0.568</ele>
        <time>2026-08-21T19:46:09.999Z</time>
      </trkpt>
      <trkpt lat="48.674223" lon="-1.515822">
        <ele>-0.679</ele>
        <time>2026-08-21T19:46:12.999Z</time>
      </trkpt>
      <trkpt lat="48.674232" lon="-1.515821">
        <ele>-0.742</ele>
        <time>2026-08-21T19:46:14.999Z</time>
      </trkpt>
      <trkpt lat="48.674245" lon="-1.515816">
        <ele>-0.779</ele>
        <time>2026-08-21T19:46:16.999Z</time>
      </trkpt>
      <trkpt lat="48.674260" lon="-1.515817">
        <ele>-0.740</ele>
        <time>2026-08-21T19:46:18.999Z</time>
      </trkpt>
      <trkpt lat="48.674275" lon="-1.515818">
        <ele>-0.774</ele>
        <time>2026-08-21T19:46:20.999Z</time>
      </trkpt>
      <trkpt lat="48.674283" lon="-1.515810">
        <ele>-0.771</ele>
        <time>2026-08-21T19:46:21.999Z</time>
      </trkpt>
      <trkpt lat="48.674297" lon="-1.515799">
        <ele>-0.782</ele>
        <time>2026-08-21T19:46:23.999Z</time>
      </trkpt>
      <trkpt lat="48.674313" lon="-1.515806">
        <ele>-0.743</ele>
        <time>2026-08-21T19:46:25.999Z</time>
      </trkpt>
      <trkpt lat="48.674326" lon="-1.515805">
        <ele>-0.717</ele>
        <time>2026-08-21T19:46:26.999Z</time>
      </trkpt>
      <trkpt lat="48.674336" lon="-1.515800">
        <ele>-0.709</ele>
        <time>2026-08-21T19:46:28.999Z</time>
      </trkpt>
      <trkpt lat="48.674351" lon="-1.515808">
        <ele>-0.760</ele>
        <time>2026-08-21T19:46:32.999Z</time>
      </trkpt>
      <trkpt lat="48.674364" lon="-1.515810">
        <ele>-0.716</ele>
        <time>2026-08-21T19:46:34.999Z</time>
      </trkpt>
      <trkpt lat="48.674379" lon="-1.515812">
        <ele>-0.719</ele>
        <time>2026-08-21T19:46:37.999Z</time>
      </trkpt>
      <trkpt lat="48.674392" lon="-1.515815">
        <ele>-0.770</ele>
        <time>2026-08-21T19:46:40.999Z</time>
      </trkpt>
      <trkpt lat="48.674402" lon="-1.515823">
        <ele>-0.733</ele>
        <time>2026-08-21T19:46:42.999Z</time>
      </trkpt>
      <trkpt lat="48.674411" lon="-1.515827">
        <ele>-0.780</ele>
        <time>2026-08-21T19:46:43.999Z</time>
      </trkpt>
      <trkpt lat="48.674421" lon="-1.515827">
        <ele>-0.751</ele>
        <time>2026-08-21T19:46:44.999Z</time>
      </trkpt>
      <trkpt lat="48.674430" lon="-1.515830">
        <ele>-0.735</ele>
        <time>2026-08-21T19:46:46.999Z</time>
      </trkpt>
      <trkpt lat="48.674440" lon="-1.515823">
        <ele>-0.752</ele>
        <time>2026-08-21T19:46:48.999Z</time>
      </trkpt>
      <trkpt lat="48.674448" lon="-1.515815">
        <ele>-0.725</ele>
        <time>2026-08-21T19:46:49.999Z</time>
      </trkpt>
      <trkpt lat="48.674455" lon="-1.515801">
        <ele>-0.726</ele>
        <time>2026-08-21T19:46:51.999Z</time>
      </trkpt>
      <trkpt lat="48.674464" lon="-1.515794">
        <ele>-0.708</ele>
        <time>2026-08-21T19:47:02.999Z</time>
      </trkpt>
      <trkpt lat="48.674481" lon="-1.515784">
        <ele>-0.709</ele>
        <time>2026-08-21T19:47:04.999Z</time>
      </trkpt>
      <trkpt lat="48.674495" lon="-1.515771">
        <ele>-0.764</ele>
        <time>2026-08-21T19:47:06.999Z</time>
      </trkpt>
      <trkpt lat="48.674504" lon="-1.515772">
        <ele>-0.710</ele>
        <time>2026-08-21T19:47:07.999Z</time>
      </trkpt>
      <trkpt lat="48.674515" lon="-1.515774">
        <ele>-0.743</ele>
        <time>2026-08-21T19:47:08.999Z</time>
      </trkpt>
      <trkpt lat="48.674527" lon="-1.515775">
        <ele>-0.714</ele>
        <time>2026-08-21T19:47:09.999Z</time>
      </trkpt>
      <trkpt lat="48.674541" lon="-1.515768">
        <ele>-0.757</ele>
        <time>2026-08-21T19:47:10.999Z</time>
      </trkpt>
      <trkpt lat="48.674552" lon="-1.515764">
        <ele>-0.764</ele>
        <time>2026-08-21T19:47:11.999Z</time>
      </trkpt>
      <trkpt lat="48.674567" lon="-1.515758">
        <ele>-0.755</ele>
        <time>2026-08-21T19:47:13.999Z</time>
      </trkpt>
      <trkpt lat="48.674582" lon="-1.515756">
        <ele>-0.739</ele>
        <time>2026-08-21T19:47:15.999Z</time>
      </trkpt>
      <trkpt lat="48.674596" lon="-1.515749">
        <ele>-0.796</ele>
        <time>2026-08-21T19:47:17.999Z</time>
      </trkpt>
      <trkpt lat="48.674607" lon="-1.515740">
        <ele>-0.771</ele>
        <time>2026-08-21T19:47:18.999Z</time>
      </trkpt>
      <trkpt lat="48.674615" lon="-1.515731">
        <ele>-0.841</ele>
        <time>2026-08-21T19:47:19.999Z</time>
      </trkpt>
      <trkpt lat="48.674627" lon="-1.515720">
        <ele>-1.115</ele>
        <time>2026-08-21T19:47:21.999Z</time>
      </trkpt>
      <trkpt lat="48.674635" lon="-1.515710">
        <ele>-1.409</ele>
        <time>2026-08-21T19:47:23.999Z</time>
      </trkpt>
      <trkpt lat="48.674639" lon="-1.515691">
        <ele>-1.569</ele>
        <time>2026-08-21T19:47:25.999Z</time>
      </trkpt>
      <trkpt lat="48.674646" lon="-1.515669">
        <ele>-1.665</ele>
        <time>2026-08-21T19:47:27.999Z</time>
      </trkpt>
      <trkpt lat="48.674650" lon="-1.515646">
        <ele>-1.718</ele>
        <time>2026-08-21T19:47:29.999Z</time>
      </trkpt>
      <trkpt lat="48.674655" lon="-1.515635">
        <ele>-1.859</ele>
        <time>2026-08-21T19:47:30.999Z</time>
      </trkpt>
      <trkpt lat="48.674663" lon="-1.515621">
        <ele>-1.822</ele>
        <time>2026-08-21T19:47:31.999Z</time>
      </trkpt>
      <trkpt lat="48.674669" lon="-1.515609">
        <ele>-1.869</ele>
        <time>2026-08-21T19:47:32.999Z</time>
      </trkpt>
      <trkpt lat="48.674681" lon="-1.515588">
        <ele>-1.840</ele>
        <time>2026-08-21T19:47:34.999Z</time>
      </trkpt>
      <trkpt lat="48.674689" lon="-1.515581">
        <ele>-1.884</ele>
        <time>2026-08-21T19:47:35.999Z</time>
      </trkpt>
      <trkpt lat="48.674697" lon="-1.515565">
        <ele>-1.841</ele>
        <time>2026-08-21T19:47:37.999Z</time>
      </trkpt>
      <trkpt lat="48.674705" lon="-1.515545">
        <ele>-1.836</ele>
        <time>2026-08-21T19:47:39.999Z</time>
      </trkpt>
      <trkpt lat="48.674713" lon="-1.515534">
        <ele>-1.817</ele>
        <time>2026-08-21T19:47:40.999Z</time>
      </trkpt>
      <trkpt lat="48.674718" lon="-1.515523">
        <ele>-1.818</ele>
        <time>2026-08-21T19:47:41.999Z</time>
      </trkpt>
      <trkpt lat="48.674725" lon="-1.515508">
        <ele>-1.809</ele>
        <time>2026-08-21T19:47:42.999Z</time>
      </trkpt>
      <trkpt lat="48.674731" lon="-1.515495">
        <ele>-1.815</ele>
        <time>2026-08-21T19:47:43.999Z</time>
      </trkpt>
      <trkpt lat="48.674736" lon="-1.515483">
        <ele>-1.881</ele>
        <time>2026-08-21T19:47:44.999Z</time>
      </trkpt>
      <trkpt lat="48.674748" lon="-1.515464">
        <ele>-1.754</ele>
        <time>2026-08-21T19:47:46.999Z</time>
      </trkpt>
      <trkpt lat="48.674753" lon="-1.515444">
        <ele>-1.695</ele>
        <time>2026-08-21T19:47:47.999Z</time>
      </trkpt>
      <trkpt lat="48.674756" lon="-1.515429">
        <ele>-1.588</ele>
        <time>2026-08-21T19:47:48.999Z</time>
      </trkpt>
      <trkpt lat="48.674764" lon="-1.515411">
        <ele>-1.565</ele>
        <time>2026-08-21T19:47:50.999Z</time>
      </trkpt>
      <trkpt lat="48.674774" lon="-1.515397">
        <ele>-1.596</ele>
        <time>2026-08-21T19:47:52.999Z</time>
      </trkpt>
      <trkpt lat="48.674784" lon="-1.515384">
        <ele>-1.480</ele>
        <time>2026-08-21T19:47:53.999Z</time>
      </trkpt>
      <trkpt lat="48.674793" lon="-1.515366">
        <ele>-1.387</ele>
        <time>2026-08-21T19:47:55.999Z</time>
      </trkpt>
      <trkpt lat="48.674799" lon="-1.515350">
        <ele>-1.164</ele>
        <time>2026-08-21T19:47:57.999Z</time>
      </trkpt>
      <trkpt lat="48.674815" lon="-1.515335">
        <ele>-1.106</ele>
        <time>2026-08-21T19:47:59.999Z</time>
      </trkpt>
      <trkpt lat="48.674823" lon="-1.515323">
        <ele>-1.116</ele>
        <time>2026-08-21T19:48:00.999Z</time>
      </trkpt>
      <trkpt lat="48.674831" lon="-1.515311">
        <ele>-1.109</ele>
        <time>2026-08-21T19:48:02.999Z</time>
      </trkpt>
      <trkpt lat="48.674838" lon="-1.515294">
        <ele>-1.068</ele>
        <time>2026-08-21T19:48:04.999Z</time>
      </trkpt>
      <trkpt lat="48.674846" lon="-1.515285">
        <ele>-1.054</ele>
        <time>2026-08-21T19:48:05.999Z</time>
      </trkpt>
      <trkpt lat="48.674856" lon="-1.515281">
        <ele>-1.047</ele>
        <time>2026-08-21T19:48:06.999Z</time>
      </trkpt>
      <trkpt lat="48.674866" lon="-1.515277">
        <ele>-1.098</ele>
        <time>2026-08-21T19:48:07.999Z</time>
      </trkpt>
      <trkpt lat="48.674876" lon="-1.515258">
        <ele>-1.041</ele>
        <time>2026-08-21T19:48:09.999Z</time>
      </trkpt>
      <trkpt lat="48.674888" lon="-1.515240">
        <ele>-1.038</ele>
        <time>2026-08-21T19:48:11.999Z</time>
      </trkpt>
      <trkpt lat="48.674898" lon="-1.515236">
        <ele>-0.939</ele>
        <time>2026-08-21T19:48:12.999Z</time>
      </trkpt>
      <trkpt lat="48.674908" lon="-1.515233">
        <ele>-0.913</ele>
        <time>2026-08-21T19:48:14.999Z</time>
      </trkpt>
      <trkpt lat="48.674916" lon="-1.515214">
        <ele>-0.840</ele>
        <time>2026-08-21T19:48:16.999Z</time>
      </trkpt>
      <trkpt lat="48.674925" lon="-1.515208">
        <ele>-0.885</ele>
        <time>2026-08-21T19:48:17.999Z</time>
      </trkpt>
      <trkpt lat="48.674934" lon="-1.515191">
        <ele>-0.889</ele>
        <time>2026-08-21T19:48:19.999Z</time>
      </trkpt>
      <trkpt lat="48.674946" lon="-1.515174">
        <ele>-0.617</ele>
        <time>2026-08-21T19:48:21.999Z</time>
      </trkpt>
      <trkpt lat="48.674959" lon="-1.515155">
        <ele>-0.509</ele>
        <time>2026-08-21T19:48:23.999Z</time>
      </trkpt>
      <trkpt lat="48.674967" lon="-1.515142">
        <ele>-0.530</ele>
        <time>2026-08-21T19:48:25.999Z</time>
      </trkpt>
      <trkpt lat="48.674975" lon="-1.515135">
        <ele>-0.586</ele>
        <time>2026-08-21T19:48:26.999Z</time>
      </trkpt>
      <trkpt lat="48.674987" lon="-1.515125">
        <ele>-0.439</ele>
        <time>2026-08-21T19:48:27.999Z</time>
      </trkpt>
      <trkpt lat="48.674998" lon="-1.515103">
        <ele>-0.410</ele>
        <time>2026-08-21T19:48:29.999Z</time>
      </trkpt>
      <trkpt lat="48.675003" lon="-1.515092">
        <ele>-0.433</ele>
        <time>2026-08-21T19:48:30.999Z</time>
      </trkpt>
      <trkpt lat="48.675002" lon="-1.515076">
        <ele>-0.430</ele>
        <time>2026-08-21T19:48:32.999Z</time>
      </trkpt>
      <trkpt lat="48.674997" lon="-1.515063">
        <ele>-0.461</ele>
        <time>2026-08-21T19:48:35.999Z</time>
      </trkpt>
      <trkpt lat="48.675005" lon="-1.515072">
        <ele>0.125</ele>
        <time>2026-08-21T19:49:26.999Z</time>
      </trkpt>
      <trkpt lat="48.675006" lon="-1.515058">
        <ele>-0.142</ele>
        <time>2026-08-21T19:49:34.999Z</time>
      </trkpt>
      <trkpt lat="48.675019" lon="-1.515051">
        <ele>-0.332</ele>
        <time>2026-08-21T19:49:37.999Z</time>
      </trkpt>
      <trkpt lat="48.675029" lon="-1.515044">
        <ele>-0.592</ele>
        <time>2026-08-21T19:49:40.999Z</time>
      </trkpt>
      <trkpt lat="48.675019" lon="-1.515042">
        <ele>-0.711</ele>
        <time>2026-08-21T19:49:43.999Z</time>
      </trkpt>
      <trkpt lat="48.675019" lon="-1.515057">
        <ele>0.109</ele>
        <time>2026-08-21T19:50:22.999Z</time>
      </trkpt>
      <trkpt lat="48.675022" lon="-1.515071">
        <ele>-0.165</ele>
        <time>2026-08-21T19:50:25.999Z</time>
      </trkpt>
      <trkpt lat="48.675019" lon="-1.515096">
        <ele>-0.331</ele>
        <time>2026-08-21T19:50:29.999Z</time>
      </trkpt>
      <trkpt lat="48.675012" lon="-1.515112">
        <ele>-0.244</ele>
        <time>2026-08-21T19:50:31.999Z</time>
      </trkpt>
      <trkpt lat="48.675018" lon="-1.515089">
        <ele>-0.395</ele>
        <time>2026-08-21T19:50:35.999Z</time>
      </trkpt>
      <trkpt lat="48.675020" lon="-1.515071">
        <ele>-0.478</ele>
        <time>2026-08-21T19:50:38.999Z</time>
      </trkpt>
      <trkpt lat="48.675022" lon="-1.515058">
        <ele>-0.515</ele>
        <time>2026-08-21T19:50:41.999Z</time>
      </trkpt>
      <trkpt lat="48.675021" lon="-1.515044">
        <ele>-0.446</ele>
        <time>2026-08-21T19:50:58.999Z</time>
      </trkpt>
      <trkpt lat="48.675014" lon="-1.515035">
        <ele>1.240</ele>
        <time>2026-08-21T19:52:03.999Z</time>
      </trkpt>
      <trkpt lat="48.675012" lon="-1.515049">
        <ele>0.737</ele>
        <time>2026-08-21T19:52:19.999Z</time>
      </trkpt>
      <trkpt lat="48.675017" lon="-1.515062">
        <ele>0.391</ele>
        <time>2026-08-21T19:52:35.999Z</time>
      </trkpt>
      <trkpt lat="48.675024" lon="-1.515052">
        <ele>0.381</ele>
        <time>2026-08-21T19:52:54.999Z</time>
      </trkpt>
      <trkpt lat="48.675035" lon="-1.515047">
        <ele>0.219</ele>
        <time>2026-08-21T19:52:55.999Z</time>
      </trkpt>
      <trkpt lat="48.675045" lon="-1.515040">
        <ele>0.109</ele>
        <time>2026-08-21T19:52:56.999Z</time>
      </trkpt>
      <trkpt lat="48.675054" lon="-1.515031">
        <ele>0.041</ele>
        <time>2026-08-21T19:52:57.999Z</time>
      </trkpt>
      <trkpt lat="48.675061" lon="-1.515020">
        <ele>0.077</ele>
        <time>2026-08-21T19:52:58.999Z</time>
      </trkpt>
      <trkpt lat="48.675070" lon="-1.515014">
        <ele>0.010</ele>
        <time>2026-08-21T19:52:59.999Z</time>
      </trkpt>
      <trkpt lat="48.675077" lon="-1.515005">
        <ele>0.081</ele>
        <time>2026-08-21T19:53:00.999Z</time>
      </trkpt>
      <trkpt lat="48.675089" lon="-1.514984">
        <ele>0.014</ele>
        <time>2026-08-21T19:53:02.999Z</time>
      </trkpt>
      <trkpt lat="48.675102" lon="-1.514961">
        <ele>0.041</ele>
        <time>2026-08-21T19:53:04.999Z</time>
      </trkpt>
      <trkpt lat="48.675109" lon="-1.514948">
        <ele>0.052</ele>
        <time>2026-08-21T19:53:05.999Z</time>
      </trkpt>
      <trkpt lat="48.675118" lon="-1.514939">
        <ele>0.066</ele>
        <time>2026-08-21T19:53:06.999Z</time>
      </trkpt>
      <trkpt lat="48.675128" lon="-1.514930">
        <ele>0.033</ele>
        <time>2026-08-21T19:53:07.999Z</time>
      </trkpt>
      <trkpt lat="48.675137" lon="-1.514921">
        <ele>0.021</ele>
        <time>2026-08-21T19:53:08.999Z</time>
      </trkpt>
      <trkpt lat="48.675147" lon="-1.514909">
        <ele>0.041</ele>
        <time>2026-08-21T19:53:09.999Z</time>
      </trkpt>
      <trkpt lat="48.675160" lon="-1.514895">
        <ele>0.005</ele>
        <time>2026-08-21T19:53:11.999Z</time>
      </trkpt>
      <trkpt lat="48.675172" lon="-1.514873">
        <ele>0.009</ele>
        <time>2026-08-21T19:53:13.999Z</time>
      </trkpt>
      <trkpt lat="48.675180" lon="-1.514864">
        <ele>0.044</ele>
        <time>2026-08-21T19:53:14.999Z</time>
      </trkpt>
      <trkpt lat="48.675190" lon="-1.514855">
        <ele>0.020</ele>
        <time>2026-08-21T19:53:15.999Z</time>
      </trkpt>
      <trkpt lat="48.675201" lon="-1.514844">
        <ele>-0.123</ele>
        <time>2026-08-21T19:53:16.999Z</time>
      </trkpt>
      <trkpt lat="48.675209" lon="-1.514833">
        <ele>0.034</ele>
        <time>2026-08-21T19:53:17.999Z</time>
      </trkpt>
      <trkpt lat="48.675217" lon="-1.514824">
        <ele>-0.127</ele>
        <time>2026-08-21T19:53:18.999Z</time>
      </trkpt>
      <trkpt lat="48.675228" lon="-1.514807">
        <ele>-0.174</ele>
        <time>2026-08-21T19:53:20.999Z</time>
      </trkpt>
      <trkpt lat="48.675243" lon="-1.514788">
        <ele>-0.155</ele>
        <time>2026-08-21T19:53:22.999Z</time>
      </trkpt>
      <trkpt lat="48.675252" lon="-1.514779">
        <ele>-0.189</ele>
        <time>2026-08-21T19:53:23.999Z</time>
      </trkpt>
      <trkpt lat="48.675260" lon="-1.514768">
        <ele>-0.136</ele>
        <time>2026-08-21T19:53:24.999Z</time>
      </trkpt>
      <trkpt lat="48.675269" lon="-1.514756">
        <ele>-0.173</ele>
        <time>2026-08-21T19:53:25.999Z</time>
      </trkpt>
      <trkpt lat="48.675277" lon="-1.514746">
        <ele>-0.185</ele>
        <time>2026-08-21T19:53:26.999Z</time>
      </trkpt>
      <trkpt lat="48.675286" lon="-1.514740">
        <ele>-0.213</ele>
        <time>2026-08-21T19:53:27.999Z</time>
      </trkpt>
      <trkpt lat="48.675293" lon="-1.514729">
        <ele>-0.209</ele>
        <time>2026-08-21T19:53:28.999Z</time>
      </trkpt>
      <trkpt lat="48.675298" lon="-1.514713">
        <ele>-0.279</ele>
        <time>2026-08-21T19:53:29.999Z</time>
      </trkpt>
      <trkpt lat="48.675313" lon="-1.514690">
        <ele>-0.245</ele>
        <time>2026-08-21T19:53:31.999Z</time>
      </trkpt>
      <trkpt lat="48.675322" lon="-1.514679">
        <ele>-0.248</ele>
        <time>2026-08-21T19:53:32.999Z</time>
      </trkpt>
      <trkpt lat="48.675328" lon="-1.514660">
        <ele>-0.249</ele>
        <time>2026-08-21T19:53:33.999Z</time>
      </trkpt>
      <trkpt lat="48.675336" lon="-1.514649">
        <ele>-0.352</ele>
        <time>2026-08-21T19:53:34.999Z</time>
      </trkpt>
      <trkpt lat="48.675343" lon="-1.514639">
        <ele>-0.379</ele>
        <time>2026-08-21T19:53:35.999Z</time>
      </trkpt>
      <trkpt lat="48.675352" lon="-1.514614">
        <ele>-0.320</ele>
        <time>2026-08-21T19:53:37.999Z</time>
      </trkpt>
      <trkpt lat="48.675359" lon="-1.514596">
        <ele>-0.344</ele>
        <time>2026-08-21T19:53:38.999Z</time>
      </trkpt>
      <trkpt lat="48.675369" lon="-1.514582">
        <ele>-0.441</ele>
        <time>2026-08-21T19:53:39.999Z</time>
      </trkpt>
      <trkpt lat="48.675377" lon="-1.514570">
        <ele>-0.438</ele>
        <time>2026-08-21T19:53:40.999Z</time>
      </trkpt>
      <trkpt lat="48.675384" lon="-1.514559">
        <ele>-0.470</ele>
        <time>2026-08-21T19:53:41.999Z</time>
      </trkpt>
      <trkpt lat="48.675391" lon="-1.514543">
        <ele>-0.417</ele>
        <time>2026-08-21T19:53:42.999Z</time>
      </trkpt>
      <trkpt lat="48.675400" lon="-1.514529">
        <ele>-0.409</ele>
        <time>2026-08-21T19:53:43.999Z</time>
      </trkpt>
      <trkpt lat="48.675406" lon="-1.514515">
        <ele>-0.445</ele>
        <time>2026-08-21T19:53:44.999Z</time>
      </trkpt>
      <trkpt lat="48.675413" lon="-1.514505">
        <ele>-0.481</ele>
        <time>2026-08-21T19:53:45.999Z</time>
      </trkpt>
      <trkpt lat="48.675423" lon="-1.514492">
        <ele>-0.464</ele>
        <time>2026-08-21T19:53:46.999Z</time>
      </trkpt>
      <trkpt lat="48.675434" lon="-1.514477">
        <ele>-0.485</ele>
        <time>2026-08-21T19:53:47.999Z</time>
      </trkpt>
      <trkpt lat="48.675443" lon="-1.514461">
        <ele>-0.478</ele>
        <time>2026-08-21T19:53:48.999Z</time>
      </trkpt>
      <trkpt lat="48.675450" lon="-1.514448">
        <ele>-0.445</ele>
        <time>2026-08-21T19:53:49.999Z</time>
      </trkpt>
      <trkpt lat="48.675456" lon="-1.514435">
        <ele>-0.476</ele>
        <time>2026-08-21T19:53:50.999Z</time>
      </trkpt>
      <trkpt lat="48.675461" lon="-1.514420">
        <ele>-0.480</ele>
        <time>2026-08-21T19:53:51.999Z</time>
      </trkpt>
      <trkpt lat="48.675469" lon="-1.514407">
        <ele>-0.447</ele>
        <time>2026-08-21T19:53:52.999Z</time>
      </trkpt>
      <trkpt lat="48.675474" lon="-1.514391">
        <ele>-0.391</ele>
        <time>2026-08-21T19:53:53.999Z</time>
      </trkpt>
      <trkpt lat="48.675481" lon="-1.514376">
        <ele>-0.381</ele>
        <time>2026-08-21T19:53:54.999Z</time>
      </trkpt>
      <trkpt lat="48.675486" lon="-1.514364">
        <ele>-0.319</ele>
        <time>2026-08-21T19:53:55.999Z</time>
      </trkpt>
      <trkpt lat="48.675490" lon="-1.514348">
        <ele>-0.309</ele>
        <time>2026-08-21T19:53:56.999Z</time>
      </trkpt>
      <trkpt lat="48.675496" lon="-1.514336">
        <ele>-0.331</ele>
        <time>2026-08-21T19:53:57.999Z</time>
      </trkpt>
      <trkpt lat="48.675503" lon="-1.514323">
        <ele>-0.227</ele>
        <time>2026-08-21T19:53:58.999Z</time>
      </trkpt>
      <trkpt lat="48.675509" lon="-1.514308">
        <ele>-0.250</ele>
        <time>2026-08-21T19:53:59.999Z</time>
      </trkpt>
      <trkpt lat="48.675514" lon="-1.514291">
        <ele>-0.291</ele>
        <time>2026-08-21T19:54:00.999Z</time>
      </trkpt>
      <trkpt lat="48.675522" lon="-1.514275">
        <ele>-0.234</ele>
        <time>2026-08-21T19:54:01.999Z</time>
      </trkpt>
      <trkpt lat="48.675530" lon="-1.514260">
        <ele>-0.231</ele>
        <time>2026-08-21T19:54:02.999Z</time>
      </trkpt>
      <trkpt lat="48.675537" lon="-1.514247">
        <ele>-0.222</ele>
        <time>2026-08-21T19:54:03.999Z</time>
      </trkpt>
      <trkpt lat="48.675542" lon="-1.514232">
        <ele>-0.226</ele>
        <time>2026-08-21T19:54:04.999Z</time>
      </trkpt>
      <trkpt lat="48.675547" lon="-1.514219">
        <ele>-0.293</ele>
        <time>2026-08-21T19:54:05.999Z</time>
      </trkpt>
      <trkpt lat="48.675551" lon="-1.514202">
        <ele>-0.281</ele>
        <time>2026-08-21T19:54:06.999Z</time>
      </trkpt>
      <trkpt lat="48.675557" lon="-1.514188">
        <ele>-0.261</ele>
        <time>2026-08-21T19:54:07.999Z</time>
      </trkpt>
      <trkpt lat="48.675566" lon="-1.514174">
        <ele>-0.217</ele>
        <time>2026-08-21T19:54:08.999Z</time>
      </trkpt>
      <trkpt lat="48.675576" lon="-1.514162">
        <ele>-0.209</ele>
        <time>2026-08-21T19:54:09.999Z</time>
      </trkpt>
      <trkpt lat="48.675584" lon="-1.514151">
        <ele>-0.120</ele>
        <time>2026-08-21T19:54:10.999Z</time>
      </trkpt>
      <trkpt lat="48.675593" lon="-1.514140">
        <ele>-0.136</ele>
        <time>2026-08-21T19:54:11.999Z</time>
      </trkpt>
      <trkpt lat="48.675602" lon="-1.514126">
        <ele>-0.129</ele>
        <time>2026-08-21T19:54:12.999Z</time>
      </trkpt>
      <trkpt lat="48.675610" lon="-1.514108">
        <ele>-0.180</ele>
        <time>2026-08-21T19:54:13.999Z</time>
      </trkpt>
      <trkpt lat="48.675617" lon="-1.514096">
        <ele>-0.113</ele>
        <time>2026-08-21T19:54:14.999Z</time>
      </trkpt>
      <trkpt lat="48.675623" lon="-1.514086">
        <ele>-0.170</ele>
        <time>2026-08-21T19:54:15.999Z</time>
      </trkpt>
      <trkpt lat="48.675631" lon="-1.514072">
        <ele>0.011</ele>
        <time>2026-08-21T19:54:16.999Z</time>
      </trkpt>
      <trkpt lat="48.675638" lon="-1.514059">
        <ele>0.035</ele>
        <time>2026-08-21T19:54:17.999Z</time>
      </trkpt>
      <trkpt lat="48.675645" lon="-1.514045">
        <ele>0.082</ele>
        <time>2026-08-21T19:54:18.999Z</time>
      </trkpt>
      <trkpt lat="48.675657" lon="-1.514027">
        <ele>0.021</ele>
        <time>2026-08-21T19:54:20.999Z</time>
      </trkpt>
      <trkpt lat="48.675664" lon="-1.514016">
        <ele>-0.141</ele>
        <time>2026-08-21T19:54:21.999Z</time>
      </trkpt>
      <trkpt lat="48.675673" lon="-1.513995">
        <ele>-0.105</ele>
        <time>2026-08-21T19:54:22.999Z</time>
      </trkpt>
      <trkpt lat="48.675685" lon="-1.513982">
        <ele>-0.109</ele>
        <time>2026-08-21T19:54:23.999Z</time>
      </trkpt>
      <trkpt lat="48.675692" lon="-1.513965">
        <ele>-0.294</ele>
        <time>2026-08-21T19:54:24.999Z</time>
      </trkpt>
      <trkpt lat="48.675699" lon="-1.513954">
        <ele>-0.270</ele>
        <time>2026-08-21T19:54:25.999Z</time>
      </trkpt>
      <trkpt lat="48.675713" lon="-1.513936">
        <ele>-0.283</ele>
        <time>2026-08-21T19:54:27.999Z</time>
      </trkpt>
      <trkpt lat="48.675724" lon="-1.513926">
        <ele>-0.234</ele>
        <time>2026-08-21T19:54:28.999Z</time>
      </trkpt>
      <trkpt lat="48.675735" lon="-1.513910">
        <ele>-0.217</ele>
        <time>2026-08-21T19:54:29.999Z</time>
      </trkpt>
      <trkpt lat="48.675742" lon="-1.513896">
        <ele>-0.244</ele>
        <time>2026-08-21T19:54:30.999Z</time>
      </trkpt>
      <trkpt lat="48.675750" lon="-1.513884">
        <ele>-0.175</ele>
        <time>2026-08-21T19:54:31.999Z</time>
      </trkpt>
      <trkpt lat="48.675760" lon="-1.513872">
        <ele>-0.179</ele>
        <time>2026-08-21T19:54:32.999Z</time>
      </trkpt>
      <trkpt lat="48.675768" lon="-1.513860">
        <ele>0.036</ele>
        <time>2026-08-21T19:54:33.999Z</time>
      </trkpt>
      <trkpt lat="48.675774" lon="-1.513847">
        <ele>0.078</ele>
        <time>2026-08-21T19:54:34.999Z</time>
      </trkpt>
      <trkpt lat="48.675780" lon="-1.513837">
        <ele>0.033</ele>
        <time>2026-08-21T19:54:35.999Z</time>
      </trkpt>
      <trkpt lat="48.675788" lon="-1.513826">
        <ele>0.126</ele>
        <time>2026-08-21T19:54:36.999Z</time>
      </trkpt>
      <trkpt lat="48.675796" lon="-1.513813">
        <ele>0.109</ele>
        <time>2026-08-21T19:54:37.999Z</time>
      </trkpt>
      <trkpt lat="48.675804" lon="-1.513804">
        <ele>0.129</ele>
        <time>2026-08-21T19:54:38.999Z</time>
      </trkpt>
      <trkpt lat="48.675814" lon="-1.513800">
        <ele>0.195</ele>
        <time>2026-08-21T19:54:39.999Z</time>
      </trkpt>
      <trkpt lat="48.675823" lon="-1.513788">
        <ele>0.158</ele>
        <time>2026-08-21T19:54:40.999Z</time>
      </trkpt>
      <trkpt lat="48.675831" lon="-1.513778">
        <ele>0.119</ele>
        <time>2026-08-21T19:54:41.999Z</time>
      </trkpt>
      <trkpt lat="48.675840" lon="-1.513765">
        <ele>0.272</ele>
        <time>2026-08-21T19:54:42.999Z</time>
      </trkpt>
      <trkpt lat="48.675850" lon="-1.513751">
        <ele>0.259</ele>
        <time>2026-08-21T19:54:43.999Z</time>
      </trkpt>
      <trkpt lat="48.675859" lon="-1.513738">
        <ele>0.270</ele>
        <time>2026-08-21T19:54:44.999Z</time>
      </trkpt>
      <trkpt lat="48.675869" lon="-1.513729">
        <ele>0.264</ele>
        <time>2026-08-21T19:54:45.999Z</time>
      </trkpt>
      <trkpt lat="48.675880" lon="-1.513723">
        <ele>0.291</ele>
        <time>2026-08-21T19:54:46.999Z</time>
      </trkpt>
      <trkpt lat="48.675893" lon="-1.513714">
        <ele>0.312</ele>
        <time>2026-08-21T19:54:47.999Z</time>
      </trkpt>
      <trkpt lat="48.675902" lon="-1.513702">
        <ele>0.332</ele>
        <time>2026-08-21T19:54:48.999Z</time>
      </trkpt>
      <trkpt lat="48.675910" lon="-1.513690">
        <ele>0.305</ele>
        <time>2026-08-21T19:54:49.999Z</time>
      </trkpt>
      <trkpt lat="48.675917" lon="-1.513678">
        <ele>0.309</ele>
        <time>2026-08-21T19:54:50.999Z</time>
      </trkpt>
      <trkpt lat="48.675924" lon="-1.513667">
        <ele>0.343</ele>
        <time>2026-08-21T19:54:51.999Z</time>
      </trkpt>
      <trkpt lat="48.675935" lon="-1.513657">
        <ele>0.329</ele>
        <time>2026-08-21T19:54:52.999Z</time>
      </trkpt>
      <trkpt lat="48.675944" lon="-1.513643">
        <ele>0.312</ele>
        <time>2026-08-21T19:54:53.999Z</time>
      </trkpt>
      <trkpt lat="48.675951" lon="-1.513632">
        <ele>0.483</ele>
        <time>2026-08-21T19:54:54.999Z</time>
      </trkpt>
      <trkpt lat="48.675960" lon="-1.513623">
        <ele>0.446</ele>
        <time>2026-08-21T19:54:55.999Z</time>
      </trkpt>
      <trkpt lat="48.675968" lon="-1.513614">
        <ele>0.443</ele>
        <time>2026-08-21T19:54:56.999Z</time>
      </trkpt>
      <trkpt lat="48.675979" lon="-1.513605">
        <ele>0.474</ele>
        <time>2026-08-21T19:54:57.999Z</time>
      </trkpt>
      <trkpt lat="48.675988" lon="-1.513593">
        <ele>0.468</ele>
        <time>2026-08-21T19:54:58.999Z</time>
      </trkpt>
      <trkpt lat="48.675998" lon="-1.513580">
        <ele>0.475</ele>
        <time>2026-08-21T19:54:59.999Z</time>
      </trkpt>
      <trkpt lat="48.676010" lon="-1.513566">
        <ele>0.442</ele>
        <time>2026-08-21T19:55:00.999Z</time>
      </trkpt>
      <trkpt lat="48.676020" lon="-1.513557">
        <ele>0.422</ele>
        <time>2026-08-21T19:55:01.999Z</time>
      </trkpt>
      <trkpt lat="48.676028" lon="-1.513549">
        <ele>0.414</ele>
        <time>2026-08-21T19:55:02.999Z</time>
      </trkpt>
      <trkpt lat="48.676036" lon="-1.513537">
        <ele>0.409</ele>
        <time>2026-08-21T19:55:03.999Z</time>
      </trkpt>
      <trkpt lat="48.676043" lon="-1.513522">
        <ele>0.446</ele>
        <time>2026-08-21T19:55:04.999Z</time>
      </trkpt>
      <trkpt lat="48.676053" lon="-1.513506">
        <ele>0.442</ele>
        <time>2026-08-21T19:55:05.999Z</time>
      </trkpt>
      <trkpt lat="48.676063" lon="-1.513494">
        <ele>0.495</ele>
        <time>2026-08-21T19:55:06.999Z</time>
      </trkpt>
      <trkpt lat="48.676073" lon="-1.513483">
        <ele>0.486</ele>
        <time>2026-08-21T19:55:07.999Z</time>
      </trkpt>
      <trkpt lat="48.676084" lon="-1.513471">
        <ele>0.469</ele>
        <time>2026-08-21T19:55:08.999Z</time>
      </trkpt>
      <trkpt lat="48.676092" lon="-1.513460">
        <ele>0.486</ele>
        <time>2026-08-21T19:55:09.999Z</time>
      </trkpt>
      <trkpt lat="48.676101" lon="-1.513448">
        <ele>0.567</ele>
        <time>2026-08-21T19:55:10.999Z</time>
      </trkpt>
      <trkpt lat="48.676110" lon="-1.513436">
        <ele>0.511</ele>
        <time>2026-08-21T19:55:11.999Z</time>
      </trkpt>
      <trkpt lat="48.676120" lon="-1.513420">
        <ele>0.558</ele>
        <time>2026-08-21T19:55:13.999Z</time>
      </trkpt>
      <trkpt lat="48.676133" lon="-1.513398">
        <ele>0.554</ele>
        <time>2026-08-21T19:55:15.999Z</time>
      </trkpt>
      <trkpt lat="48.676140" lon="-1.513386">
        <ele>0.556</ele>
        <time>2026-08-21T19:55:16.999Z</time>
      </trkpt>
      <trkpt lat="48.676146" lon="-1.513375">
        <ele>0.511</ele>
        <time>2026-08-21T19:55:17.999Z</time>
      </trkpt>
      <trkpt lat="48.676161" lon="-1.513362">
        <ele>0.509</ele>
        <time>2026-08-21T19:55:18.999Z</time>
      </trkpt>
      <trkpt lat="48.676170" lon="-1.513354">
        <ele>0.527</ele>
        <time>2026-08-21T19:55:19.999Z</time>
      </trkpt>
      <trkpt lat="48.676177" lon="-1.513340">
        <ele>0.533</ele>
        <time>2026-08-21T19:55:20.999Z</time>
      </trkpt>
      <trkpt lat="48.676188" lon="-1.513327">
        <ele>0.576</ele>
        <time>2026-08-21T19:55:21.999Z</time>
      </trkpt>
      <trkpt lat="48.676198" lon="-1.513314">
        <ele>0.557</ele>
        <time>2026-08-21T19:55:22.999Z</time>
      </trkpt>
      <trkpt lat="48.676206" lon="-1.513304">
        <ele>0.670</ele>
        <time>2026-08-21T19:55:23.999Z</time>
      </trkpt>
      <trkpt lat="48.676215" lon="-1.513294">
        <ele>0.687</ele>
        <time>2026-08-21T19:55:24.999Z</time>
      </trkpt>
      <trkpt lat="48.676223" lon="-1.513283">
        <ele>0.698</ele>
        <time>2026-08-21T19:55:25.999Z</time>
      </trkpt>
      <trkpt lat="48.676231" lon="-1.513269">
        <ele>0.632</ele>
        <time>2026-08-21T19:55:26.999Z</time>
      </trkpt>
      <trkpt lat="48.676240" lon="-1.513255">
        <ele>0.689</ele>
        <time>2026-08-21T19:55:27.999Z</time>
      </trkpt>
      <trkpt lat="48.676249" lon="-1.513245">
        <ele>0.568</ele>
        <time>2026-08-21T19:55:28.999Z</time>
      </trkpt>
      <trkpt lat="48.676255" lon="-1.513235">
        <ele>0.542</ele>
        <time>2026-08-21T19:55:29.999Z</time>
      </trkpt>
      <trkpt lat="48.676261" lon="-1.513222">
        <ele>0.526</ele>
        <time>2026-08-21T19:55:30.999Z</time>
      </trkpt>
      <trkpt lat="48.676268" lon="-1.513208">
        <ele>0.509</ele>
        <time>2026-08-21T19:55:31.999Z</time>
      </trkpt>
      <trkpt lat="48.676276" lon="-1.513192">
        <ele>0.578</ele>
        <time>2026-08-21T19:55:32.999Z</time>
      </trkpt>
      <trkpt lat="48.676285" lon="-1.513174">
        <ele>0.544</ele>
        <time>2026-08-21T19:55:33.999Z</time>
      </trkpt>
      <trkpt lat="48.676294" lon="-1.513163">
        <ele>0.517</ele>
        <time>2026-08-21T19:55:34.999Z</time>
      </trkpt>
      <trkpt lat="48.676303" lon="-1.513156">
        <ele>0.548</ele>
        <time>2026-08-21T19:55:35.999Z</time>
      </trkpt>
      <trkpt lat="48.676311" lon="-1.513143">
        <ele>0.581</ele>
        <time>2026-08-21T19:55:36.999Z</time>
      </trkpt>
      <trkpt lat="48.676325" lon="-1.513126">
        <ele>0.488</ele>
        <time>2026-08-21T19:55:37.999Z</time>
      </trkpt>
      <trkpt lat="48.676332" lon="-1.513115">
        <ele>0.499</ele>
        <time>2026-08-21T19:55:38.999Z</time>
      </trkpt>
      <trkpt lat="48.676339" lon="-1.513104">
        <ele>0.443</ele>
        <time>2026-08-21T19:55:39.999Z</time>
      </trkpt>
      <trkpt lat="48.676349" lon="-1.513095">
        <ele>0.480</ele>
        <time>2026-08-21T19:55:40.999Z</time>
      </trkpt>
      <trkpt lat="48.676357" lon="-1.513085">
        <ele>0.473</ele>
        <time>2026-08-21T19:55:41.999Z</time>
      </trkpt>
      <trkpt lat="48.676365" lon="-1.513072">
        <ele>0.385</ele>
        <time>2026-08-21T19:55:42.999Z</time>
      </trkpt>
      <trkpt lat="48.676372" lon="-1.513056">
        <ele>0.313</ele>
        <time>2026-08-21T19:55:43.999Z</time>
      </trkpt>
      <trkpt lat="48.676377" lon="-1.513038">
        <ele>0.309</ele>
        <time>2026-08-21T19:55:44.999Z</time>
      </trkpt>
      <trkpt lat="48.676383" lon="-1.513022">
        <ele>0.339</ele>
        <time>2026-08-21T19:55:45.999Z</time>
      </trkpt>
      <trkpt lat="48.676388" lon="-1.513009">
        <ele>0.355</ele>
        <time>2026-08-21T19:55:46.999Z</time>
      </trkpt>
      <trkpt lat="48.676395" lon="-1.512996">
        <ele>0.358</ele>
        <time>2026-08-21T19:55:47.999Z</time>
      </trkpt>
      <trkpt lat="48.676401" lon="-1.512981">
        <ele>0.379</ele>
        <time>2026-08-21T19:55:48.999Z</time>
      </trkpt>
      <trkpt lat="48.676409" lon="-1.512965">
        <ele>0.392</ele>
        <time>2026-08-21T19:55:49.999Z</time>
      </trkpt>
      <trkpt lat="48.676417" lon="-1.512949">
        <ele>0.369</ele>
        <time>2026-08-21T19:55:50.999Z</time>
      </trkpt>
      <trkpt lat="48.676427" lon="-1.512933">
        <ele>0.350</ele>
        <time>2026-08-21T19:55:51.999Z</time>
      </trkpt>
      <trkpt lat="48.676435" lon="-1.512922">
        <ele>0.374</ele>
        <time>2026-08-21T19:55:52.999Z</time>
      </trkpt>
      <trkpt lat="48.676449" lon="-1.512909">
        <ele>0.331</ele>
        <time>2026-08-21T19:55:54.999Z</time>
      </trkpt>
      <trkpt lat="48.676454" lon="-1.512891">
        <ele>0.386</ele>
        <time>2026-08-21T19:55:55.999Z</time>
      </trkpt>
      <trkpt lat="48.676460" lon="-1.512874">
        <ele>0.360</ele>
        <time>2026-08-21T19:55:56.999Z</time>
      </trkpt>
      <trkpt lat="48.676469" lon="-1.512861">
        <ele>0.326</ele>
        <time>2026-08-21T19:55:57.999Z</time>
      </trkpt>
      <trkpt lat="48.676481" lon="-1.512852">
        <ele>0.309</ele>
        <time>2026-08-21T19:55:58.999Z</time>
      </trkpt>
      <trkpt lat="48.676488" lon="-1.512841">
        <ele>0.330</ele>
        <time>2026-08-21T19:55:59.999Z</time>
      </trkpt>
      <trkpt lat="48.676494" lon="-1.512830">
        <ele>0.426</ele>
        <time>2026-08-21T19:56:00.999Z</time>
      </trkpt>
      <trkpt lat="48.676506" lon="-1.512810">
        <ele>0.419</ele>
        <time>2026-08-21T19:56:02.999Z</time>
      </trkpt>
      <trkpt lat="48.676512" lon="-1.512797">
        <ele>0.410</ele>
        <time>2026-08-21T19:56:03.999Z</time>
      </trkpt>
      <trkpt lat="48.676520" lon="-1.512779">
        <ele>0.483</ele>
        <time>2026-08-21T19:56:04.999Z</time>
      </trkpt>
      <trkpt lat="48.676527" lon="-1.512764">
        <ele>0.520</ele>
        <time>2026-08-21T19:56:05.999Z</time>
      </trkpt>
      <trkpt lat="48.676534" lon="-1.512749">
        <ele>0.591</ele>
        <time>2026-08-21T19:56:06.999Z</time>
      </trkpt>
      <trkpt lat="48.676540" lon="-1.512736">
        <ele>0.575</ele>
        <time>2026-08-21T19:56:07.999Z</time>
      </trkpt>
      <trkpt lat="48.676547" lon="-1.512723">
        <ele>0.592</ele>
        <time>2026-08-21T19:56:08.999Z</time>
      </trkpt>
      <trkpt lat="48.676556" lon="-1.512710">
        <ele>0.513</ele>
        <time>2026-08-21T19:56:09.999Z</time>
      </trkpt>
      <trkpt lat="48.676558" lon="-1.512695">
        <ele>0.543</ele>
        <time>2026-08-21T19:56:10.999Z</time>
      </trkpt>
      <trkpt lat="48.676565" lon="-1.512683">
        <ele>0.507</ele>
        <time>2026-08-21T19:56:11.999Z</time>
      </trkpt>
      <trkpt lat="48.676574" lon="-1.512665">
        <ele>0.509</ele>
        <time>2026-08-21T19:56:12.999Z</time>
      </trkpt>
      <trkpt lat="48.676583" lon="-1.512650">
        <ele>0.543</ele>
        <time>2026-08-21T19:56:13.999Z</time>
      </trkpt>
      <trkpt lat="48.676591" lon="-1.512634">
        <ele>0.529</ele>
        <time>2026-08-21T19:56:14.999Z</time>
      </trkpt>
      <trkpt lat="48.676598" lon="-1.512614">
        <ele>0.522</ele>
        <time>2026-08-21T19:56:15.999Z</time>
      </trkpt>
      <trkpt lat="48.676602" lon="-1.512598">
        <ele>0.563</ele>
        <time>2026-08-21T19:56:16.999Z</time>
      </trkpt>
      <trkpt lat="48.676608" lon="-1.512583">
        <ele>0.536</ele>
        <time>2026-08-21T19:56:17.999Z</time>
      </trkpt>
      <trkpt lat="48.676615" lon="-1.512569">
        <ele>0.583</ele>
        <time>2026-08-21T19:56:18.999Z</time>
      </trkpt>
      <trkpt lat="48.676621" lon="-1.512557">
        <ele>0.514</ele>
        <time>2026-08-21T19:56:19.999Z</time>
      </trkpt>
      <trkpt lat="48.676630" lon="-1.512544">
        <ele>0.548</ele>
        <time>2026-08-21T19:56:20.999Z</time>
      </trkpt>
      <trkpt lat="48.676646" lon="-1.512518">
        <ele>0.585</ele>
        <time>2026-08-21T19:56:22.999Z</time>
      </trkpt>
      <trkpt lat="48.676653" lon="-1.512505">
        <ele>0.547</ele>
        <time>2026-08-21T19:56:23.999Z</time>
      </trkpt>
      <trkpt lat="48.676662" lon="-1.512491">
        <ele>0.529</ele>
        <time>2026-08-21T19:56:24.999Z</time>
      </trkpt>
      <trkpt lat="48.676669" lon="-1.512476">
        <ele>0.521</ele>
        <time>2026-08-21T19:56:25.999Z</time>
      </trkpt>
      <trkpt lat="48.676675" lon="-1.512459">
        <ele>0.509</ele>
        <time>2026-08-21T19:56:26.999Z</time>
      </trkpt>
      <trkpt lat="48.676681" lon="-1.512445">
        <ele>0.526</ele>
        <time>2026-08-21T19:56:27.999Z</time>
      </trkpt>
      <trkpt lat="48.676689" lon="-1.512430">
        <ele>0.582</ele>
        <time>2026-08-21T19:56:28.999Z</time>
      </trkpt>
      <trkpt lat="48.676697" lon="-1.512415">
        <ele>0.535</ele>
        <time>2026-08-21T19:56:29.999Z</time>
      </trkpt>
      <trkpt lat="48.676706" lon="-1.512404">
        <ele>0.556</ele>
        <time>2026-08-21T19:56:30.999Z</time>
      </trkpt>
      <trkpt lat="48.676716" lon="-1.512392">
        <ele>0.469</ele>
        <time>2026-08-21T19:56:31.999Z</time>
      </trkpt>
      <trkpt lat="48.676725" lon="-1.512383">
        <ele>0.416</ele>
        <time>2026-08-21T19:56:32.999Z</time>
      </trkpt>
      <trkpt lat="48.676734" lon="-1.512371">
        <ele>0.467</ele>
        <time>2026-08-21T19:56:33.999Z</time>
      </trkpt>
      <trkpt lat="48.676742" lon="-1.512354">
        <ele>0.541</ele>
        <time>2026-08-21T19:56:34.999Z</time>
      </trkpt>
      <trkpt lat="48.676753" lon="-1.512339">
        <ele>0.538</ele>
        <time>2026-08-21T19:56:35.999Z</time>
      </trkpt>
      <trkpt lat="48.676765" lon="-1.512326">
        <ele>0.565</ele>
        <time>2026-08-21T19:56:36.999Z</time>
      </trkpt>
      <trkpt lat="48.676775" lon="-1.512313">
        <ele>0.568</ele>
        <time>2026-08-21T19:56:37.999Z</time>
      </trkpt>
      <trkpt lat="48.676783" lon="-1.512298">
        <ele>0.514</ele>
        <time>2026-08-21T19:56:38.999Z</time>
      </trkpt>
      <trkpt lat="48.676791" lon="-1.512287">
        <ele>0.509</ele>
        <time>2026-08-21T19:56:39.999Z</time>
      </trkpt>
      <trkpt lat="48.676799" lon="-1.512273">
        <ele>0.528</ele>
        <time>2026-08-21T19:56:40.999Z</time>
      </trkpt>
      <trkpt lat="48.676804" lon="-1.512260">
        <ele>0.594</ele>
        <time>2026-08-21T19:56:41.999Z</time>
      </trkpt>
      <trkpt lat="48.676809" lon="-1.512245">
        <ele>0.587</ele>
        <time>2026-08-21T19:56:42.999Z</time>
      </trkpt>
      <trkpt lat="48.676814" lon="-1.512229">
        <ele>0.658</ele>
        <time>2026-08-21T19:56:43.999Z</time>
      </trkpt>
      <trkpt lat="48.676823" lon="-1.512216">
        <ele>0.661</ele>
        <time>2026-08-21T19:56:44.999Z</time>
      </trkpt>
      <trkpt lat="48.676833" lon="-1.512204">
        <ele>0.698</ele>
        <time>2026-08-21T19:56:45.999Z</time>
      </trkpt>
      <trkpt lat="48.676842" lon="-1.512192">
        <ele>0.639</ele>
        <time>2026-08-21T19:56:46.999Z</time>
      </trkpt>
      <trkpt lat="48.676851" lon="-1.512179">
        <ele>0.633</ele>
        <time>2026-08-21T19:56:47.999Z</time>
      </trkpt>
      <trkpt lat="48.676857" lon="-1.512167">
        <ele>0.610</ele>
        <time>2026-08-21T19:56:48.999Z</time>
      </trkpt>
      <trkpt lat="48.676864" lon="-1.512158">
        <ele>0.653</ele>
        <time>2026-08-21T19:56:49.999Z</time>
      </trkpt>
      <trkpt lat="48.676872" lon="-1.512149">
        <ele>0.604</ele>
        <time>2026-08-21T19:56:50.999Z</time>
      </trkpt>
      <trkpt lat="48.676883" lon="-1.512137">
        <ele>0.714</ele>
        <time>2026-08-21T19:56:51.999Z</time>
      </trkpt>
      <trkpt lat="48.676891" lon="-1.512122">
        <ele>0.709</ele>
        <time>2026-08-21T19:56:52.999Z</time>
      </trkpt>
      <trkpt lat="48.676901" lon="-1.512110">
        <ele>0.737</ele>
        <time>2026-08-21T19:56:53.999Z</time>
      </trkpt>
      <trkpt lat="48.676910" lon="-1.512099">
        <ele>0.743</ele>
        <time>2026-08-21T19:56:54.999Z</time>
      </trkpt>
      <trkpt lat="48.676917" lon="-1.512085">
        <ele>0.736</ele>
        <time>2026-08-21T19:56:55.999Z</time>
      </trkpt>
      <trkpt lat="48.676923" lon="-1.512074">
        <ele>0.837</ele>
        <time>2026-08-21T19:56:56.999Z</time>
      </trkpt>
      <trkpt lat="48.676931" lon="-1.512062">
        <ele>0.860</ele>
        <time>2026-08-21T19:56:57.999Z</time>
      </trkpt>
      <trkpt lat="48.676939" lon="-1.512050">
        <ele>0.837</ele>
        <time>2026-08-21T19:56:58.999Z</time>
      </trkpt>
      <trkpt lat="48.676949" lon="-1.512037">
        <ele>0.848</ele>
        <time>2026-08-21T19:56:59.999Z</time>
      </trkpt>
      <trkpt lat="48.676960" lon="-1.512018">
        <ele>0.882</ele>
        <time>2026-08-21T19:57:01.999Z</time>
      </trkpt>
      <trkpt lat="48.676966" lon="-1.512006">
        <ele>0.879</ele>
        <time>2026-08-21T19:57:02.999Z</time>
      </trkpt>
      <trkpt lat="48.676973" lon="-1.511990">
        <ele>0.899</ele>
        <time>2026-08-21T19:57:03.999Z</time>
      </trkpt>
      <trkpt lat="48.676982" lon="-1.511978">
        <ele>0.807</ele>
        <time>2026-08-21T19:57:04.999Z</time>
      </trkpt>
      <trkpt lat="48.676989" lon="-1.511968">
        <ele>0.827</ele>
        <time>2026-08-21T19:57:05.999Z</time>
      </trkpt>
      <trkpt lat="48.676997" lon="-1.511961">
        <ele>0.809</ele>
        <time>2026-08-21T19:57:06.999Z</time>
      </trkpt>
      <trkpt lat="48.677006" lon="-1.511951">
        <ele>0.821</ele>
        <time>2026-08-21T19:57:07.999Z</time>
      </trkpt>
      <trkpt lat="48.677013" lon="-1.511937">
        <ele>0.857</ele>
        <time>2026-08-21T19:57:08.999Z</time>
      </trkpt>
      <trkpt lat="48.677022" lon="-1.511922">
        <ele>0.870</ele>
        <time>2026-08-21T19:57:09.999Z</time>
      </trkpt>
      <trkpt lat="48.677033" lon="-1.511909">
        <ele>0.871</ele>
        <time>2026-08-21T19:57:10.999Z</time>
      </trkpt>
      <trkpt lat="48.677042" lon="-1.511896">
        <ele>0.764</ele>
        <time>2026-08-21T19:57:11.999Z</time>
      </trkpt>
      <trkpt lat="48.677049" lon="-1.511882">
        <ele>0.781</ele>
        <time>2026-08-21T19:57:12.999Z</time>
      </trkpt>
      <trkpt lat="48.677056" lon="-1.511867">
        <ele>0.772</ele>
        <time>2026-08-21T19:57:13.999Z</time>
      </trkpt>
      <trkpt lat="48.677062" lon="-1.511856">
        <ele>0.726</ele>
        <time>2026-08-21T19:57:14.999Z</time>
      </trkpt>
      <trkpt lat="48.677070" lon="-1.511842">
        <ele>0.683</ele>
        <time>2026-08-21T19:57:15.999Z</time>
      </trkpt>
      <trkpt lat="48.677076" lon="-1.511829">
        <ele>0.682</ele>
        <time>2026-08-21T19:57:16.999Z</time>
      </trkpt>
      <trkpt lat="48.677083" lon="-1.511820">
        <ele>0.543</ele>
        <time>2026-08-21T19:57:17.999Z</time>
      </trkpt>
      <trkpt lat="48.677092" lon="-1.511809">
        <ele>0.317</ele>
        <time>2026-08-21T19:57:18.999Z</time>
      </trkpt>
      <trkpt lat="48.677100" lon="-1.511792">
        <ele>0.009</ele>
        <time>2026-08-21T19:57:19.999Z</time>
      </trkpt>
      <trkpt lat="48.677106" lon="-1.511775">
        <ele>-0.120</ele>
        <time>2026-08-21T19:57:20.999Z</time>
      </trkpt>
      <trkpt lat="48.677112" lon="-1.511762">
        <ele>-0.156</ele>
        <time>2026-08-21T19:57:21.999Z</time>
      </trkpt>
      <trkpt lat="48.677118" lon="-1.511751">
        <ele>-0.139</ele>
        <time>2026-08-21T19:57:22.999Z</time>
      </trkpt>
      <trkpt lat="48.677126" lon="-1.511742">
        <ele>-0.240</ele>
        <time>2026-08-21T19:57:23.999Z</time>
      </trkpt>
      <trkpt lat="48.677133" lon="-1.511727">
        <ele>-0.273</ele>
        <time>2026-08-21T19:57:24.999Z</time>
      </trkpt>
      <trkpt lat="48.677139" lon="-1.511711">
        <ele>-0.220</ele>
        <time>2026-08-21T19:57:25.999Z</time>
      </trkpt>
      <trkpt lat="48.677147" lon="-1.511697">
        <ele>-0.231</ele>
        <time>2026-08-21T19:57:26.999Z</time>
      </trkpt>
      <trkpt lat="48.677155" lon="-1.511685">
        <ele>-0.235</ele>
        <time>2026-08-21T19:57:27.999Z</time>
      </trkpt>
      <trkpt lat="48.677163" lon="-1.511674">
        <ele>-0.362</ele>
        <time>2026-08-21T19:57:28.999Z</time>
      </trkpt>
      <trkpt lat="48.677172" lon="-1.511662">
        <ele>-0.323</ele>
        <time>2026-08-21T19:57:29.999Z</time>
      </trkpt>
      <trkpt lat="48.677180" lon="-1.511649">
        <ele>-0.383</ele>
        <time>2026-08-21T19:57:30.999Z</time>
      </trkpt>
      <trkpt lat="48.677188" lon="-1.511634">
        <ele>-0.311</ele>
        <time>2026-08-21T19:57:31.999Z</time>
      </trkpt>
      <trkpt lat="48.677198" lon="-1.511623">
        <ele>-0.309</ele>
        <time>2026-08-21T19:57:32.999Z</time>
      </trkpt>
      <trkpt lat="48.677207" lon="-1.511610">
        <ele>-0.464</ele>
        <time>2026-08-21T19:57:33.999Z</time>
      </trkpt>
      <trkpt lat="48.677215" lon="-1.511599">
        <ele>-0.460</ele>
        <time>2026-08-21T19:57:34.999Z</time>
      </trkpt>
      <trkpt lat="48.677224" lon="-1.511587">
        <ele>-0.473</ele>
        <time>2026-08-21T19:57:35.999Z</time>
      </trkpt>
      <trkpt lat="48.677233" lon="-1.511571">
        <ele>-0.484</ele>
        <time>2026-08-21T19:57:36.999Z</time>
      </trkpt>
      <trkpt lat="48.677242" lon="-1.511551">
        <ele>-0.487</ele>
        <time>2026-08-21T19:57:37.999Z</time>
      </trkpt>
      <trkpt lat="48.677249" lon="-1.511538">
        <ele>-0.544</ele>
        <time>2026-08-21T19:57:38.999Z</time>
      </trkpt>
      <trkpt lat="48.677258" lon="-1.511527">
        <ele>-0.575</ele>
        <time>2026-08-21T19:57:39.999Z</time>
      </trkpt>
      <trkpt lat="48.677267" lon="-1.511513">
        <ele>-0.589</ele>
        <time>2026-08-21T19:57:40.999Z</time>
      </trkpt>
      <trkpt lat="48.677277" lon="-1.511505">
        <ele>-0.556</ele>
        <time>2026-08-21T19:57:41.999Z</time>
      </trkpt>
      <trkpt lat="48.677286" lon="-1.511491">
        <ele>-0.533</ele>
        <time>2026-08-21T19:57:42.999Z</time>
      </trkpt>
      <trkpt lat="48.677291" lon="-1.511471">
        <ele>-0.523</ele>
        <time>2026-08-21T19:57:43.999Z</time>
      </trkpt>
      <trkpt lat="48.677296" lon="-1.511456">
        <ele>-0.515</ele>
        <time>2026-08-21T19:57:44.999Z</time>
      </trkpt>
      <trkpt lat="48.677304" lon="-1.511443">
        <ele>-0.509</ele>
        <time>2026-08-21T19:57:45.999Z</time>
      </trkpt>
      <trkpt lat="48.677313" lon="-1.511429">
        <ele>-0.515</ele>
        <time>2026-08-21T19:57:46.999Z</time>
      </trkpt>
      <trkpt lat="48.677322" lon="-1.511414">
        <ele>-0.581</ele>
        <time>2026-08-21T19:57:47.999Z</time>
      </trkpt>
      <trkpt lat="48.677329" lon="-1.511399">
        <ele>-0.544</ele>
        <time>2026-08-21T19:57:48.999Z</time>
      </trkpt>
      <trkpt lat="48.677337" lon="-1.511383">
        <ele>-0.575</ele>
        <time>2026-08-21T19:57:49.999Z</time>
      </trkpt>
      <trkpt lat="48.677345" lon="-1.511369">
        <ele>-0.578</ele>
        <time>2026-08-21T19:57:50.999Z</time>
      </trkpt>
      <trkpt lat="48.677352" lon="-1.511357">
        <ele>-0.535</ele>
        <time>2026-08-21T19:57:51.999Z</time>
      </trkpt>
      <trkpt lat="48.677359" lon="-1.511341">
        <ele>-0.556</ele>
        <time>2026-08-21T19:57:52.999Z</time>
      </trkpt>
      <trkpt lat="48.677364" lon="-1.511329">
        <ele>-0.590</ele>
        <time>2026-08-21T19:57:53.999Z</time>
      </trkpt>
      <trkpt lat="48.677371" lon="-1.511312">
        <ele>-0.457</ele>
        <time>2026-08-21T19:57:54.999Z</time>
      </trkpt>
      <trkpt lat="48.677378" lon="-1.511297">
        <ele>-0.448</ele>
        <time>2026-08-21T19:57:55.999Z</time>
      </trkpt>
      <trkpt lat="48.677386" lon="-1.511284">
        <ele>-0.461</ele>
        <time>2026-08-21T19:57:56.999Z</time>
      </trkpt>
      <trkpt lat="48.677394" lon="-1.511268">
        <ele>-0.417</ele>
        <time>2026-08-21T19:57:57.999Z</time>
      </trkpt>
      <trkpt lat="48.677400" lon="-1.511248">
        <ele>-0.309</ele>
        <time>2026-08-21T19:57:58.999Z</time>
      </trkpt>
      <trkpt lat="48.677407" lon="-1.511231">
        <ele>-0.386</ele>
        <time>2026-08-21T19:57:59.999Z</time>
      </trkpt>
      <trkpt lat="48.677413" lon="-1.511216">
        <ele>-0.352</ele>
        <time>2026-08-21T19:58:00.999Z</time>
      </trkpt>
      <trkpt lat="48.677420" lon="-1.511204">
        <ele>-0.355</ele>
        <time>2026-08-21T19:58:01.999Z</time>
      </trkpt>
      <trkpt lat="48.677428" lon="-1.511192">
        <ele>-0.326</ele>
        <time>2026-08-21T19:58:02.999Z</time>
      </trkpt>
      <trkpt lat="48.677436" lon="-1.511179">
        <ele>-0.289</ele>
        <time>2026-08-21T19:58:03.999Z</time>
      </trkpt>
      <trkpt lat="48.677444" lon="-1.511164">
        <ele>-0.276</ele>
        <time>2026-08-21T19:58:04.999Z</time>
      </trkpt>
      <trkpt lat="48.677454" lon="-1.511149">
        <ele>-0.247</ele>
        <time>2026-08-21T19:58:05.999Z</time>
      </trkpt>
      <trkpt lat="48.677463" lon="-1.511136">
        <ele>-0.291</ele>
        <time>2026-08-21T19:58:06.999Z</time>
      </trkpt>
      <trkpt lat="48.677471" lon="-1.511122">
        <ele>-0.218</ele>
        <time>2026-08-21T19:58:07.999Z</time>
      </trkpt>
      <trkpt lat="48.677477" lon="-1.511112">
        <ele>-0.279</ele>
        <time>2026-08-21T19:58:08.999Z</time>
      </trkpt>
      <trkpt lat="48.677483" lon="-1.511101">
        <ele>-0.105</ele>
        <time>2026-08-21T19:58:09.999Z</time>
      </trkpt>
      <trkpt lat="48.677490" lon="-1.511089">
        <ele>0.025</ele>
        <time>2026-08-21T19:58:10.999Z</time>
      </trkpt>
      <trkpt lat="48.677498" lon="-1.511075">
        <ele>0.009</ele>
        <time>2026-08-21T19:58:11.999Z</time>
      </trkpt>
      <trkpt lat="48.677507" lon="-1.511061">
        <ele>0.049</ele>
        <time>2026-08-21T19:58:12.999Z</time>
      </trkpt>
      <trkpt lat="48.677514" lon="-1.511048">
        <ele>0.185</ele>
        <time>2026-08-21T19:58:13.999Z</time>
      </trkpt>
      <trkpt lat="48.677523" lon="-1.511036">
        <ele>0.138</ele>
        <time>2026-08-21T19:58:14.999Z</time>
      </trkpt>
      <trkpt lat="48.677532" lon="-1.511024">
        <ele>0.189</ele>
        <time>2026-08-21T19:58:15.999Z</time>
      </trkpt>
      <trkpt lat="48.677538" lon="-1.511010">
        <ele>0.172</ele>
        <time>2026-08-21T19:58:16.999Z</time>
      </trkpt>
      <trkpt lat="48.677545" lon="-1.510993">
        <ele>0.229</ele>
        <time>2026-08-21T19:58:17.999Z</time>
      </trkpt>
      <trkpt lat="48.677551" lon="-1.510978">
        <ele>0.250</ele>
        <time>2026-08-21T19:58:18.999Z</time>
      </trkpt>
      <trkpt lat="48.677563" lon="-1.510957">
        <ele>0.294</ele>
        <time>2026-08-21T19:58:20.999Z</time>
      </trkpt>
      <trkpt lat="48.677570" lon="-1.510947">
        <ele>0.231</ele>
        <time>2026-08-21T19:58:21.999Z</time>
      </trkpt>
      <trkpt lat="48.677577" lon="-1.510935">
        <ele>0.239</ele>
        <time>2026-08-21T19:58:22.999Z</time>
      </trkpt>
      <trkpt lat="48.677586" lon="-1.510917">
        <ele>0.201</ele>
        <time>2026-08-21T19:58:23.999Z</time>
      </trkpt>
      <trkpt lat="48.677592" lon="-1.510899">
        <ele>0.221</ele>
        <time>2026-08-21T19:58:24.999Z</time>
      </trkpt>
      <trkpt lat="48.677602" lon="-1.510888">
        <ele>0.209</ele>
        <time>2026-08-21T19:58:25.999Z</time>
      </trkpt>
      <trkpt lat="48.677610" lon="-1.510879">
        <ele>0.285</ele>
        <time>2026-08-21T19:58:26.999Z</time>
      </trkpt>
      <trkpt lat="48.677624" lon="-1.510858">
        <ele>0.231</ele>
        <time>2026-08-21T19:58:28.999Z</time>
      </trkpt>
      <trkpt lat="48.677632" lon="-1.510842">
        <ele>0.234</ele>
        <time>2026-08-21T19:58:29.999Z</time>
      </trkpt>
      <trkpt lat="48.677642" lon="-1.510829">
        <ele>0.195</ele>
        <time>2026-08-21T19:58:30.999Z</time>
      </trkpt>
      <trkpt lat="48.677650" lon="-1.510809">
        <ele>0.128</ele>
        <time>2026-08-21T19:58:31.999Z</time>
      </trkpt>
      <trkpt lat="48.677657" lon="-1.510792">
        <ele>0.115</ele>
        <time>2026-08-21T19:58:32.999Z</time>
      </trkpt>
      <trkpt lat="48.677666" lon="-1.510779">
        <ele>0.186</ele>
        <time>2026-08-21T19:58:34.999Z</time>
      </trkpt>
      <trkpt lat="48.677675" lon="-1.510766">
        <ele>0.110</ele>
        <time>2026-08-21T19:58:36.999Z</time>
      </trkpt>
      <trkpt lat="48.677682" lon="-1.510744">
        <ele>0.147</ele>
        <time>2026-08-21T19:58:38.999Z</time>
      </trkpt>
      <trkpt lat="48.677684" lon="-1.510730">
        <ele>0.186</ele>
        <time>2026-08-21T19:58:39.999Z</time>
      </trkpt>
      <trkpt lat="48.677692" lon="-1.510706">
        <ele>0.060</ele>
        <time>2026-08-21T19:58:41.999Z</time>
      </trkpt>
      <trkpt lat="48.677700" lon="-1.510695">
        <ele>-0.226</ele>
        <time>2026-08-21T19:58:42.999Z</time>
      </trkpt>
      <trkpt lat="48.677710" lon="-1.510681">
        <ele>-0.309</ele>
        <time>2026-08-21T19:58:44.999Z</time>
      </trkpt>
      <trkpt lat="48.677716" lon="-1.510658">
        <ele>-0.470</ele>
        <time>2026-08-21T19:58:46.999Z</time>
      </trkpt>
      <trkpt lat="48.677728" lon="-1.510642">
        <ele>-0.496</ele>
        <time>2026-08-21T19:58:48.999Z</time>
      </trkpt>
      <trkpt lat="48.677735" lon="-1.510626">
        <ele>-0.439</ele>
        <time>2026-08-21T19:58:50.999Z</time>
      </trkpt>
      <trkpt lat="48.677746" lon="-1.510607">
        <ele>-0.470</ele>
        <time>2026-08-21T19:58:52.999Z</time>
      </trkpt>
      <trkpt lat="48.677753" lon="-1.510594">
        <ele>-0.453</ele>
        <time>2026-08-21T19:58:53.999Z</time>
      </trkpt>
      <trkpt lat="48.677761" lon="-1.510582">
        <ele>-0.470</ele>
        <time>2026-08-21T19:58:54.999Z</time>
      </trkpt>
      <trkpt lat="48.677768" lon="-1.510570">
        <ele>-0.471</ele>
        <time>2026-08-21T19:58:55.999Z</time>
      </trkpt>
      <trkpt lat="48.677774" lon="-1.510557">
        <ele>-0.435</ele>
        <time>2026-08-21T19:58:56.999Z</time>
      </trkpt>
      <trkpt lat="48.677789" lon="-1.510535">
        <ele>-0.592</ele>
        <time>2026-08-21T19:58:58.999Z</time>
      </trkpt>
      <trkpt lat="48.677799" lon="-1.510523">
        <ele>-0.539</ele>
        <time>2026-08-21T19:58:59.999Z</time>
      </trkpt>
      <trkpt lat="48.677806" lon="-1.510511">
        <ele>-0.501</ele>
        <time>2026-08-21T19:59:00.999Z</time>
      </trkpt>
      <trkpt lat="48.677814" lon="-1.510497">
        <ele>-0.521</ele>
        <time>2026-08-21T19:59:01.999Z</time>
      </trkpt>
      <trkpt lat="48.677824" lon="-1.510487">
        <ele>-0.509</ele>
        <time>2026-08-21T19:59:02.999Z</time>
      </trkpt>
      <trkpt lat="48.677831" lon="-1.510476">
        <ele>-0.595</ele>
        <time>2026-08-21T19:59:03.999Z</time>
      </trkpt>
      <trkpt lat="48.677839" lon="-1.510465">
        <ele>-0.541</ele>
        <time>2026-08-21T19:59:04.999Z</time>
      </trkpt>
      <trkpt lat="48.677846" lon="-1.510456">
        <ele>-0.514</ele>
        <time>2026-08-21T19:59:05.999Z</time>
      </trkpt>
      <trkpt lat="48.677853" lon="-1.510444">
        <ele>-0.575</ele>
        <time>2026-08-21T19:59:06.999Z</time>
      </trkpt>
      <trkpt lat="48.677858" lon="-1.510428">
        <ele>-0.448</ele>
        <time>2026-08-21T19:59:07.999Z</time>
      </trkpt>
      <trkpt lat="48.677865" lon="-1.510415">
        <ele>-0.445</ele>
        <time>2026-08-21T19:59:08.999Z</time>
      </trkpt>
      <trkpt lat="48.677872" lon="-1.510402">
        <ele>-0.496</ele>
        <time>2026-08-21T19:59:09.999Z</time>
      </trkpt>
      <trkpt lat="48.677881" lon="-1.510390">
        <ele>-0.380</ele>
        <time>2026-08-21T19:59:10.999Z</time>
      </trkpt>
      <trkpt lat="48.677890" lon="-1.510380">
        <ele>-0.397</ele>
        <time>2026-08-21T19:59:11.999Z</time>
      </trkpt>
      <trkpt lat="48.677898" lon="-1.510372">
        <ele>-0.347</ele>
        <time>2026-08-21T19:59:12.999Z</time>
      </trkpt>
      <trkpt lat="48.677907" lon="-1.510361">
        <ele>-0.329</ele>
        <time>2026-08-21T19:59:13.999Z</time>
      </trkpt>
      <trkpt lat="48.677915" lon="-1.510346">
        <ele>-0.321</ele>
        <time>2026-08-21T19:59:14.999Z</time>
      </trkpt>
      <trkpt lat="48.677923" lon="-1.510330">
        <ele>-0.309</ele>
        <time>2026-08-21T19:59:15.999Z</time>
      </trkpt>
      <trkpt lat="48.677930" lon="-1.510321">
        <ele>-0.356</ele>
        <time>2026-08-21T19:59:16.999Z</time>
      </trkpt>
      <trkpt lat="48.677938" lon="-1.510310">
        <ele>-0.352</ele>
        <time>2026-08-21T19:59:17.999Z</time>
      </trkpt>
      <trkpt lat="48.677948" lon="-1.510297">
        <ele>-0.355</ele>
        <time>2026-08-21T19:59:18.999Z</time>
      </trkpt>
      <trkpt lat="48.677958" lon="-1.510284">
        <ele>-0.376</ele>
        <time>2026-08-21T19:59:19.999Z</time>
      </trkpt>
      <trkpt lat="48.677965" lon="-1.510273">
        <ele>-0.319</ele>
        <time>2026-08-21T19:59:20.999Z</time>
      </trkpt>
      <trkpt lat="48.677972" lon="-1.510260">
        <ele>-0.426</ele>
        <time>2026-08-21T19:59:21.999Z</time>
      </trkpt>
      <trkpt lat="48.677982" lon="-1.510248">
        <ele>-0.477</ele>
        <time>2026-08-21T19:59:22.999Z</time>
      </trkpt>
      <trkpt lat="48.677992" lon="-1.510238">
        <ele>-0.461</ele>
        <time>2026-08-21T19:59:23.999Z</time>
      </trkpt>
      <trkpt lat="48.677999" lon="-1.510229">
        <ele>-0.488</ele>
        <time>2026-08-21T19:59:24.999Z</time>
      </trkpt>
      <trkpt lat="48.678009" lon="-1.510217">
        <ele>-0.554</ele>
        <time>2026-08-21T19:59:25.999Z</time>
      </trkpt>
      <trkpt lat="48.678016" lon="-1.510206">
        <ele>-0.556</ele>
        <time>2026-08-21T19:59:26.999Z</time>
      </trkpt>
      <trkpt lat="48.678022" lon="-1.510192">
        <ele>-0.511</ele>
        <time>2026-08-21T19:59:27.999Z</time>
      </trkpt>
      <trkpt lat="48.678030" lon="-1.510182">
        <ele>-0.509</ele>
        <time>2026-08-21T19:59:28.999Z</time>
      </trkpt>
      <trkpt lat="48.678034" lon="-1.510169">
        <ele>-0.687</ele>
        <time>2026-08-21T19:59:29.999Z</time>
      </trkpt>
      <trkpt lat="48.678040" lon="-1.510156">
        <ele>-0.623</ele>
        <time>2026-08-21T19:59:30.999Z</time>
      </trkpt>
      <trkpt lat="48.678047" lon="-1.510145">
        <ele>-0.626</ele>
        <time>2026-08-21T19:59:31.999Z</time>
      </trkpt>
      <trkpt lat="48.678059" lon="-1.510125">
        <ele>-0.657</ele>
        <time>2026-08-21T19:59:33.999Z</time>
      </trkpt>
      <trkpt lat="48.678070" lon="-1.510121">
        <ele>-0.690</ele>
        <time>2026-08-21T19:59:35.999Z</time>
      </trkpt>
      <trkpt lat="48.678075" lon="-1.510136">
        <ele>-0.627</ele>
        <time>2026-08-21T19:59:37.999Z</time>
      </trkpt>
      <trkpt lat="48.678066" lon="-1.510144">
        <ele>-0.758</ele>
        <time>2026-08-21T19:59:47.999Z</time>
      </trkpt>
      <trkpt lat="48.678061" lon="-1.510128">
        <ele>-0.772</ele>
        <time>2026-08-21T19:59:50.999Z</time>
      </trkpt>
      <trkpt lat="48.678060" lon="-1.510142">
        <ele>0.979</ele>
        <time>2026-08-21T20:00:50.999Z</time>
      </trkpt>
      <trkpt lat="48.678065" lon="-1.510154">
        <ele>1.063</ele>
        <time>2026-08-21T20:01:33.999Z</time>
      </trkpt>
      <trkpt lat="48.678075" lon="-1.510152">
        <ele>1.844</ele>
        <time>2026-08-21T20:01:55.999Z</time>
      </trkpt>
      <trkpt lat="48.678083" lon="-1.510160">
        <ele>4.618</ele>
        <time>2026-08-21T20:04:04.999Z</time>
      </trkpt>
      <trkpt lat="48.678095" lon="-1.510139">
        <ele>4.609</ele>
        <time>2026-08-21T20:04:28.999Z</time>
      </trkpt>
      <trkpt lat="48.678103" lon="-1.510128">
        <ele>4.598</ele>
        <time>2026-08-21T20:04:29.999Z</time>
      </trkpt>
      <trkpt lat="48.678112" lon="-1.510118">
        <ele>4.594</ele>
        <time>2026-08-21T20:04:30.999Z</time>
      </trkpt>
      <trkpt lat="48.678122" lon="-1.510108">
        <ele>4.537</ele>
        <time>2026-08-21T20:04:31.999Z</time>
      </trkpt>
      <trkpt lat="48.678131" lon="-1.510100">
        <ele>4.568</ele>
        <time>2026-08-21T20:04:32.999Z</time>
      </trkpt>
      <trkpt lat="48.678138" lon="-1.510089">
        <ele>4.551</ele>
        <time>2026-08-21T20:04:33.999Z</time>
      </trkpt>
      <trkpt lat="48.678145" lon="-1.510079">
        <ele>4.538</ele>
        <time>2026-08-21T20:04:34.999Z</time>
      </trkpt>
      <trkpt lat="48.678153" lon="-1.510069">
        <ele>4.559</ele>
        <time>2026-08-21T20:04:35.999Z</time>
      </trkpt>
      <trkpt lat="48.678161" lon="-1.510059">
        <ele>4.373</ele>
        <time>2026-08-21T20:04:36.999Z</time>
      </trkpt>
      <trkpt lat="48.678173" lon="-1.510037">
        <ele>4.130</ele>
        <time>2026-08-21T20:04:38.999Z</time>
      </trkpt>
      <trkpt lat="48.678182" lon="-1.510025">
        <ele>4.035</ele>
        <time>2026-08-21T20:04:39.999Z</time>
      </trkpt>
      <trkpt lat="48.678194" lon="-1.510005">
        <ele>3.886</ele>
        <time>2026-08-21T20:04:41.999Z</time>
      </trkpt>
      <trkpt lat="48.678211" lon="-1.509992">
        <ele>3.814</ele>
        <time>2026-08-21T20:04:43.999Z</time>
      </trkpt>
      <trkpt lat="48.678222" lon="-1.509980">
        <ele>3.709</ele>
        <time>2026-08-21T20:04:44.999Z</time>
      </trkpt>
      <trkpt lat="48.678234" lon="-1.509973">
        <ele>3.785</ele>
        <time>2026-08-21T20:04:45.999Z</time>
      </trkpt>
      <trkpt lat="48.678246" lon="-1.509968">
        <ele>3.741</ele>
        <time>2026-08-21T20:04:46.999Z</time>
      </trkpt>
      <trkpt lat="48.678257" lon="-1.509961">
        <ele>3.674</ele>
        <time>2026-08-21T20:04:47.999Z</time>
      </trkpt>
      <trkpt lat="48.678266" lon="-1.509951">
        <ele>3.635</ele>
        <time>2026-08-21T20:04:48.999Z</time>
      </trkpt>
      <trkpt lat="48.678274" lon="-1.509939">
        <ele>3.638</ele>
        <time>2026-08-21T20:04:49.999Z</time>
      </trkpt>
      <trkpt lat="48.678279" lon="-1.509927">
        <ele>3.535</ele>
        <time>2026-08-21T20:04:50.999Z</time>
      </trkpt>
      <trkpt lat="48.678287" lon="-1.509917">
        <ele>3.486</ele>
        <time>2026-08-21T20:04:51.999Z</time>
      </trkpt>
      <trkpt lat="48.678303" lon="-1.509904">
        <ele>3.370</ele>
        <time>2026-08-21T20:04:53.999Z</time>
      </trkpt>
      <trkpt lat="48.678314" lon="-1.509894">
        <ele>3.317</ele>
        <time>2026-08-21T20:04:54.999Z</time>
      </trkpt>
      <trkpt lat="48.678325" lon="-1.509885">
        <ele>3.228</ele>
        <time>2026-08-21T20:04:55.999Z</time>
      </trkpt>
      <trkpt lat="48.678336" lon="-1.509872">
        <ele>3.089</ele>
        <time>2026-08-21T20:04:56.999Z</time>
      </trkpt>
      <trkpt lat="48.678347" lon="-1.509859">
        <ele>2.817</ele>
        <time>2026-08-21T20:04:57.999Z</time>
      </trkpt>
      <trkpt lat="48.678354" lon="-1.509847">
        <ele>2.709</ele>
        <time>2026-08-21T20:04:58.999Z</time>
      </trkpt>
      <trkpt lat="48.678361" lon="-1.509836">
        <ele>2.624</ele>
        <time>2026-08-21T20:04:59.999Z</time>
      </trkpt>
      <trkpt lat="48.678368" lon="-1.509817">
        <ele>2.630</ele>
        <time>2026-08-21T20:05:00.999Z</time>
      </trkpt>
      <trkpt lat="48.678377" lon="-1.509803">
        <ele>2.673</ele>
        <time>2026-08-21T20:05:01.999Z</time>
      </trkpt>
      <trkpt lat="48.678385" lon="-1.509791">
        <ele>2.594</ele>
        <time>2026-08-21T20:05:02.999Z</time>
      </trkpt>
      <trkpt lat="48.678392" lon="-1.509777">
        <ele>2.517</ele>
        <time>2026-08-21T20:05:03.999Z</time>
      </trkpt>
      <trkpt lat="48.678401" lon="-1.509762">
        <ele>2.534</ele>
        <time>2026-08-21T20:05:04.999Z</time>
      </trkpt>
      <trkpt lat="48.678413" lon="-1.509747">
        <ele>2.565</ele>
        <time>2026-08-21T20:05:05.999Z</time>
      </trkpt>
      <trkpt lat="48.678427" lon="-1.509734">
        <ele>2.569</ele>
        <time>2026-08-21T20:05:06.999Z</time>
      </trkpt>
      <trkpt lat="48.678436" lon="-1.509722">
        <ele>2.566</ele>
        <time>2026-08-21T20:05:07.999Z</time>
      </trkpt>
      <trkpt lat="48.678442" lon="-1.509711">
        <ele>2.512</ele>
        <time>2026-08-21T20:05:08.999Z</time>
      </trkpt>
      <trkpt lat="48.678450" lon="-1.509685">
        <ele>2.532</ele>
        <time>2026-08-21T20:05:10.999Z</time>
      </trkpt>
      <trkpt lat="48.678457" lon="-1.509671">
        <ele>2.505</ele>
        <time>2026-08-21T20:05:11.999Z</time>
      </trkpt>
      <trkpt lat="48.678465" lon="-1.509654">
        <ele>2.509</ele>
        <time>2026-08-21T20:05:12.999Z</time>
      </trkpt>
      <trkpt lat="48.678473" lon="-1.509644">
        <ele>2.553</ele>
        <time>2026-08-21T20:05:13.999Z</time>
      </trkpt>
      <trkpt lat="48.678486" lon="-1.509633">
        <ele>2.549</ele>
        <time>2026-08-21T20:05:14.999Z</time>
      </trkpt>
      <trkpt lat="48.678497" lon="-1.509622">
        <ele>2.592</ele>
        <time>2026-08-21T20:05:15.999Z</time>
      </trkpt>
      <trkpt lat="48.678507" lon="-1.509612">
        <ele>2.533</ele>
        <time>2026-08-21T20:05:16.999Z</time>
      </trkpt>
      <trkpt lat="48.678512" lon="-1.509599">
        <ele>2.466</ele>
        <time>2026-08-21T20:05:17.999Z</time>
      </trkpt>
      <trkpt lat="48.678517" lon="-1.509587">
        <ele>2.483</ele>
        <time>2026-08-21T20:05:18.999Z</time>
      </trkpt>
      <trkpt lat="48.678524" lon="-1.509575">
        <ele>2.484</ele>
        <time>2026-08-21T20:05:19.999Z</time>
      </trkpt>
      <trkpt lat="48.678538" lon="-1.509563">
        <ele>2.428</ele>
        <time>2026-08-21T20:05:20.999Z</time>
      </trkpt>
      <trkpt lat="48.678550" lon="-1.509549">
        <ele>2.415</ele>
        <time>2026-08-21T20:05:21.999Z</time>
      </trkpt>
      <trkpt lat="48.678561" lon="-1.509535">
        <ele>2.435</ele>
        <time>2026-08-21T20:05:22.999Z</time>
      </trkpt>
      <trkpt lat="48.678571" lon="-1.509522">
        <ele>2.486</ele>
        <time>2026-08-21T20:05:23.999Z</time>
      </trkpt>
      <trkpt lat="48.678580" lon="-1.509513">
        <ele>2.414</ele>
        <time>2026-08-21T20:05:24.999Z</time>
      </trkpt>
      <trkpt lat="48.678590" lon="-1.509503">
        <ele>2.409</ele>
        <time>2026-08-21T20:05:25.999Z</time>
      </trkpt>
      <trkpt lat="48.678594" lon="-1.509483">
        <ele>2.415</ele>
        <time>2026-08-21T20:05:26.999Z</time>
      </trkpt>
      <trkpt lat="48.678600" lon="-1.509471">
        <ele>2.421</ele>
        <time>2026-08-21T20:05:27.999Z</time>
      </trkpt>
      <trkpt lat="48.678610" lon="-1.509460">
        <ele>2.424</ele>
        <time>2026-08-21T20:05:28.999Z</time>
      </trkpt>
      <trkpt lat="48.678616" lon="-1.509444">
        <ele>2.455</ele>
        <time>2026-08-21T20:05:29.999Z</time>
      </trkpt>
      <trkpt lat="48.678623" lon="-1.509431">
        <ele>2.498</ele>
        <time>2026-08-21T20:05:30.999Z</time>
      </trkpt>
      <trkpt lat="48.678630" lon="-1.509412">
        <ele>2.455</ele>
        <time>2026-08-21T20:05:32.999Z</time>
      </trkpt>
      <trkpt lat="48.678638" lon="-1.509396">
        <ele>2.456</ele>
        <time>2026-08-21T20:05:33.999Z</time>
      </trkpt>
      <trkpt lat="48.678650" lon="-1.509380">
        <ele>2.470</ele>
        <time>2026-08-21T20:05:34.999Z</time>
      </trkpt>
      <trkpt lat="48.678661" lon="-1.509369">
        <ele>2.447</ele>
        <time>2026-08-21T20:05:35.999Z</time>
      </trkpt>
      <trkpt lat="48.678670" lon="-1.509360">
        <ele>2.485</ele>
        <time>2026-08-21T20:05:36.999Z</time>
      </trkpt>
      <trkpt lat="48.678682" lon="-1.509352">
        <ele>2.389</ele>
        <time>2026-08-21T20:05:37.999Z</time>
      </trkpt>
      <trkpt lat="48.678691" lon="-1.509344">
        <ele>2.317</ele>
        <time>2026-08-21T20:05:38.999Z</time>
      </trkpt>
      <trkpt lat="48.678699" lon="-1.509329">
        <ele>2.309</ele>
        <time>2026-08-21T20:05:39.999Z</time>
      </trkpt>
      <trkpt lat="48.678708" lon="-1.509315">
        <ele>2.380</ele>
        <time>2026-08-21T20:05:40.999Z</time>
      </trkpt>
      <trkpt lat="48.678718" lon="-1.509306">
        <ele>2.376</ele>
        <time>2026-08-21T20:05:41.999Z</time>
      </trkpt>
      <trkpt lat="48.678728" lon="-1.509299">
        <ele>2.329</ele>
        <time>2026-08-21T20:05:42.999Z</time>
      </trkpt>
      <trkpt lat="48.678740" lon="-1.509291">
        <ele>2.320</ele>
        <time>2026-08-21T20:05:43.999Z</time>
      </trkpt>
      <trkpt lat="48.678749" lon="-1.509281">
        <ele>2.333</ele>
        <time>2026-08-21T20:05:44.999Z</time>
      </trkpt>
      <trkpt lat="48.678758" lon="-1.509269">
        <ele>2.330</ele>
        <time>2026-08-21T20:05:45.999Z</time>
      </trkpt>
      <trkpt lat="48.678768" lon="-1.509259">
        <ele>2.341</ele>
        <time>2026-08-21T20:05:46.999Z</time>
      </trkpt>
      <trkpt lat="48.678777" lon="-1.509244">
        <ele>2.335</ele>
        <time>2026-08-21T20:05:47.999Z</time>
      </trkpt>
      <trkpt lat="48.678786" lon="-1.509232">
        <ele>2.392</ele>
        <time>2026-08-21T20:05:48.999Z</time>
      </trkpt>
      <trkpt lat="48.678797" lon="-1.509219">
        <ele>2.318</ele>
        <time>2026-08-21T20:05:49.999Z</time>
      </trkpt>
      <trkpt lat="48.678806" lon="-1.509208">
        <ele>2.398</ele>
        <time>2026-08-21T20:05:50.999Z</time>
      </trkpt>
      <trkpt lat="48.678820" lon="-1.509195">
        <ele>2.317</ele>
        <time>2026-08-21T20:05:52.999Z</time>
      </trkpt>
      <trkpt lat="48.678825" lon="-1.509180">
        <ele>2.309</ele>
        <time>2026-08-21T20:05:53.999Z</time>
      </trkpt>
      <trkpt lat="48.678831" lon="-1.509169">
        <ele>2.253</ele>
        <time>2026-08-21T20:05:54.999Z</time>
      </trkpt>
      <trkpt lat="48.678842" lon="-1.509162">
        <ele>2.229</ele>
        <time>2026-08-21T20:05:55.999Z</time>
      </trkpt>
      <trkpt lat="48.678851" lon="-1.509156">
        <ele>2.122</ele>
        <time>2026-08-21T20:05:56.999Z</time>
      </trkpt>
      <trkpt lat="48.678861" lon="-1.509144">
        <ele>2.153</ele>
        <time>2026-08-21T20:05:57.999Z</time>
      </trkpt>
      <trkpt lat="48.678869" lon="-1.509130">
        <ele>2.146</ele>
        <time>2026-08-21T20:05:58.999Z</time>
      </trkpt>
      <trkpt lat="48.678879" lon="-1.509114">
        <ele>2.183</ele>
        <time>2026-08-21T20:05:59.999Z</time>
      </trkpt>
      <trkpt lat="48.678892" lon="-1.509102">
        <ele>2.124</ele>
        <time>2026-08-21T20:06:00.999Z</time>
      </trkpt>
      <trkpt lat="48.678904" lon="-1.509090">
        <ele>2.168</ele>
        <time>2026-08-21T20:06:01.999Z</time>
      </trkpt>
      <trkpt lat="48.678913" lon="-1.509078">
        <ele>2.145</ele>
        <time>2026-08-21T20:06:02.999Z</time>
      </trkpt>
      <trkpt lat="48.678921" lon="-1.509065">
        <ele>2.146</ele>
        <time>2026-08-21T20:06:03.999Z</time>
      </trkpt>
      <trkpt lat="48.678929" lon="-1.509058">
        <ele>2.188</ele>
        <time>2026-08-21T20:06:04.999Z</time>
      </trkpt>
      <trkpt lat="48.678937" lon="-1.509045">
        <ele>2.116</ele>
        <time>2026-08-21T20:06:05.999Z</time>
      </trkpt>
      <trkpt lat="48.678943" lon="-1.509031">
        <ele>2.209</ele>
        <time>2026-08-21T20:06:06.999Z</time>
      </trkpt>
      <trkpt lat="48.678951" lon="-1.509018">
        <ele>2.266</ele>
        <time>2026-08-21T20:06:07.999Z</time>
      </trkpt>
      <trkpt lat="48.678958" lon="-1.509008">
        <ele>2.392</ele>
        <time>2026-08-21T20:06:08.999Z</time>
      </trkpt>
      <trkpt lat="48.678964" lon="-1.508997">
        <ele>2.315</ele>
        <time>2026-08-21T20:06:09.999Z</time>
      </trkpt>
      <trkpt lat="48.678973" lon="-1.508983">
        <ele>2.336</ele>
        <time>2026-08-21T20:06:10.999Z</time>
      </trkpt>
      <trkpt lat="48.678985" lon="-1.508972">
        <ele>2.479</ele>
        <time>2026-08-21T20:06:11.999Z</time>
      </trkpt>
      <trkpt lat="48.678995" lon="-1.508960">
        <ele>2.486</ele>
        <time>2026-08-21T20:06:12.999Z</time>
      </trkpt>
      <trkpt lat="48.679005" lon="-1.508948">
        <ele>2.417</ele>
        <time>2026-08-21T20:06:13.999Z</time>
      </trkpt>
      <trkpt lat="48.679012" lon="-1.508936">
        <ele>2.431</ele>
        <time>2026-08-21T20:06:14.999Z</time>
      </trkpt>
      <trkpt lat="48.679021" lon="-1.508927">
        <ele>2.458</ele>
        <time>2026-08-21T20:06:15.999Z</time>
      </trkpt>
      <trkpt lat="48.679030" lon="-1.508916">
        <ele>2.489</ele>
        <time>2026-08-21T20:06:16.999Z</time>
      </trkpt>
      <trkpt lat="48.679038" lon="-1.508903">
        <ele>2.506</ele>
        <time>2026-08-21T20:06:17.999Z</time>
      </trkpt>
      <trkpt lat="48.679048" lon="-1.508893">
        <ele>2.526</ele>
        <time>2026-08-21T20:06:18.999Z</time>
      </trkpt>
      <trkpt lat="48.679058" lon="-1.508885">
        <ele>2.509</ele>
        <time>2026-08-21T20:06:19.999Z</time>
      </trkpt>
      <trkpt lat="48.679069" lon="-1.508874">
        <ele>2.520</ele>
        <time>2026-08-21T20:06:20.999Z</time>
      </trkpt>
      <trkpt lat="48.679080" lon="-1.508863">
        <ele>2.596</ele>
        <time>2026-08-21T20:06:21.999Z</time>
      </trkpt>
      <trkpt lat="48.679089" lon="-1.508852">
        <ele>2.529</ele>
        <time>2026-08-21T20:06:22.999Z</time>
      </trkpt>
      <trkpt lat="48.679099" lon="-1.508838">
        <ele>2.580</ele>
        <time>2026-08-21T20:06:23.999Z</time>
      </trkpt>
      <trkpt lat="48.679108" lon="-1.508828">
        <ele>2.683</ele>
        <time>2026-08-21T20:06:24.999Z</time>
      </trkpt>
      <trkpt lat="48.679119" lon="-1.508818">
        <ele>2.690</ele>
        <time>2026-08-21T20:06:25.999Z</time>
      </trkpt>
      <trkpt lat="48.679128" lon="-1.508809">
        <ele>2.691</ele>
        <time>2026-08-21T20:06:26.999Z</time>
      </trkpt>
      <trkpt lat="48.679137" lon="-1.508800">
        <ele>2.635</ele>
        <time>2026-08-21T20:06:27.999Z</time>
      </trkpt>
      <trkpt lat="48.679145" lon="-1.508791">
        <ele>2.692</ele>
        <time>2026-08-21T20:06:28.999Z</time>
      </trkpt>
      <trkpt lat="48.679157" lon="-1.508782">
        <ele>2.611</ele>
        <time>2026-08-21T20:06:29.999Z</time>
      </trkpt>
      <trkpt lat="48.679168" lon="-1.508773">
        <ele>2.621</ele>
        <time>2026-08-21T20:06:30.999Z</time>
      </trkpt>
      <trkpt lat="48.679181" lon="-1.508763">
        <ele>2.703</ele>
        <time>2026-08-21T20:06:31.999Z</time>
      </trkpt>
      <trkpt lat="48.679191" lon="-1.508752">
        <ele>2.709</ele>
        <time>2026-08-21T20:06:32.999Z</time>
      </trkpt>
      <trkpt lat="48.679199" lon="-1.508738">
        <ele>2.763</ele>
        <time>2026-08-21T20:06:33.999Z</time>
      </trkpt>
      <trkpt lat="48.679207" lon="-1.508726">
        <ele>2.789</ele>
        <time>2026-08-21T20:06:34.999Z</time>
      </trkpt>
      <trkpt lat="48.679216" lon="-1.508715">
        <ele>2.712</ele>
        <time>2026-08-21T20:06:35.999Z</time>
      </trkpt>
      <trkpt lat="48.679226" lon="-1.508705">
        <ele>2.753</ele>
        <time>2026-08-21T20:06:36.999Z</time>
      </trkpt>
      <trkpt lat="48.679236" lon="-1.508692">
        <ele>2.946</ele>
        <time>2026-08-21T20:06:37.999Z</time>
      </trkpt>
      <trkpt lat="48.679249" lon="-1.508681">
        <ele>3.163</ele>
        <time>2026-08-21T20:06:38.999Z</time>
      </trkpt>
      <trkpt lat="48.679259" lon="-1.508670">
        <ele>3.114</ele>
        <time>2026-08-21T20:06:39.999Z</time>
      </trkpt>
      <trkpt lat="48.679267" lon="-1.508661">
        <ele>3.168</ele>
        <time>2026-08-21T20:06:40.999Z</time>
      </trkpt>
      <trkpt lat="48.679275" lon="-1.508652">
        <ele>3.185</ele>
        <time>2026-08-21T20:06:41.999Z</time>
      </trkpt>
      <trkpt lat="48.679284" lon="-1.508640">
        <ele>3.144</ele>
        <time>2026-08-21T20:06:42.999Z</time>
      </trkpt>
      <trkpt lat="48.679293" lon="-1.508624">
        <ele>3.105</ele>
        <time>2026-08-21T20:06:43.999Z</time>
      </trkpt>
      <trkpt lat="48.679307" lon="-1.508607">
        <ele>3.115</ele>
        <time>2026-08-21T20:06:45.999Z</time>
      </trkpt>
      <trkpt lat="48.679319" lon="-1.508596">
        <ele>3.109</ele>
        <time>2026-08-21T20:06:46.999Z</time>
      </trkpt>
      <trkpt lat="48.679331" lon="-1.508586">
        <ele>3.296</ele>
        <time>2026-08-21T20:06:47.999Z</time>
      </trkpt>
      <trkpt lat="48.679344" lon="-1.508572">
        <ele>3.242</ele>
        <time>2026-08-21T20:06:48.999Z</time>
      </trkpt>
      <trkpt lat="48.679354" lon="-1.508561">
        <ele>3.215</ele>
        <time>2026-08-21T20:06:49.999Z</time>
      </trkpt>
      <trkpt lat="48.679363" lon="-1.508552">
        <ele>3.296</ele>
        <time>2026-08-21T20:06:50.999Z</time>
      </trkpt>
      <trkpt lat="48.679377" lon="-1.508532">
        <ele>3.299</ele>
        <time>2026-08-21T20:06:52.999Z</time>
      </trkpt>
      <trkpt lat="48.679385" lon="-1.508519">
        <ele>3.216</ele>
        <time>2026-08-21T20:06:53.999Z</time>
      </trkpt>
      <trkpt lat="48.679394" lon="-1.508510">
        <ele>3.217</ele>
        <time>2026-08-21T20:06:54.999Z</time>
      </trkpt>
      <trkpt lat="48.679402" lon="-1.508499">
        <ele>3.281</ele>
        <time>2026-08-21T20:06:55.999Z</time>
      </trkpt>
      <trkpt lat="48.679412" lon="-1.508490">
        <ele>3.288</ele>
        <time>2026-08-21T20:06:56.999Z</time>
      </trkpt>
      <trkpt lat="48.679423" lon="-1.508478">
        <ele>3.139</ele>
        <time>2026-08-21T20:06:57.999Z</time>
      </trkpt>
      <trkpt lat="48.679434" lon="-1.508463">
        <ele>3.101</ele>
        <time>2026-08-21T20:06:58.999Z</time>
      </trkpt>
      <trkpt lat="48.679446" lon="-1.508455">
        <ele>3.121</ele>
        <time>2026-08-21T20:06:59.999Z</time>
      </trkpt>
      <trkpt lat="48.679455" lon="-1.508443">
        <ele>3.109</ele>
        <time>2026-08-21T20:07:00.999Z</time>
      </trkpt>
      <trkpt lat="48.679467" lon="-1.508435">
        <ele>3.175</ele>
        <time>2026-08-21T20:07:01.999Z</time>
      </trkpt>
      <trkpt lat="48.679474" lon="-1.508423">
        <ele>3.081</ele>
        <time>2026-08-21T20:07:02.999Z</time>
      </trkpt>
      <trkpt lat="48.679480" lon="-1.508411">
        <ele>2.944</ele>
        <time>2026-08-21T20:07:03.999Z</time>
      </trkpt>
      <trkpt lat="48.679489" lon="-1.508402">
        <ele>2.835</ele>
        <time>2026-08-21T20:07:04.999Z</time>
      </trkpt>
      <trkpt lat="48.679497" lon="-1.508392">
        <ele>2.678</ele>
        <time>2026-08-21T20:07:05.999Z</time>
      </trkpt>
      <trkpt lat="48.679505" lon="-1.508378">
        <ele>2.615</ele>
        <time>2026-08-21T20:07:06.999Z</time>
      </trkpt>
      <trkpt lat="48.679516" lon="-1.508371">
        <ele>2.696</ele>
        <time>2026-08-21T20:07:07.999Z</time>
      </trkpt>
      <trkpt lat="48.679527" lon="-1.508362">
        <ele>2.630</ele>
        <time>2026-08-21T20:07:08.999Z</time>
      </trkpt>
      <trkpt lat="48.679536" lon="-1.508349">
        <ele>2.637</ele>
        <time>2026-08-21T20:07:09.999Z</time>
      </trkpt>
      <trkpt lat="48.679547" lon="-1.508336">
        <ele>2.623</ele>
        <time>2026-08-21T20:07:10.999Z</time>
      </trkpt>
      <trkpt lat="48.679557" lon="-1.508326">
        <ele>2.683</ele>
        <time>2026-08-21T20:07:11.999Z</time>
      </trkpt>
      <trkpt lat="48.679568" lon="-1.508310">
        <ele>2.611</ele>
        <time>2026-08-21T20:07:12.999Z</time>
      </trkpt>
      <trkpt lat="48.679577" lon="-1.508297">
        <ele>2.609</ele>
        <time>2026-08-21T20:07:13.999Z</time>
      </trkpt>
      <trkpt lat="48.679587" lon="-1.508285">
        <ele>2.694</ele>
        <time>2026-08-21T20:07:14.999Z</time>
      </trkpt>
      <trkpt lat="48.679594" lon="-1.508273">
        <ele>2.680</ele>
        <time>2026-08-21T20:07:15.999Z</time>
      </trkpt>
      <trkpt lat="48.679610" lon="-1.508256">
        <ele>2.513</ele>
        <time>2026-08-21T20:07:17.999Z</time>
      </trkpt>
      <trkpt lat="48.679620" lon="-1.508243">
        <ele>2.574</ele>
        <time>2026-08-21T20:07:18.999Z</time>
      </trkpt>
      <trkpt lat="48.679630" lon="-1.508231">
        <ele>2.587</ele>
        <time>2026-08-21T20:07:19.999Z</time>
      </trkpt>
      <trkpt lat="48.679640" lon="-1.508219">
        <ele>2.574</ele>
        <time>2026-08-21T20:07:20.999Z</time>
      </trkpt>
      <trkpt lat="48.679649" lon="-1.508207">
        <ele>2.565</ele>
        <time>2026-08-21T20:07:21.999Z</time>
      </trkpt>
      <trkpt lat="48.679658" lon="-1.508194">
        <ele>2.689</ele>
        <time>2026-08-21T20:07:22.999Z</time>
      </trkpt>
      <trkpt lat="48.679668" lon="-1.508180">
        <ele>2.626</ele>
        <time>2026-08-21T20:07:23.999Z</time>
      </trkpt>
      <trkpt lat="48.679677" lon="-1.508168">
        <ele>2.654</ele>
        <time>2026-08-21T20:07:24.999Z</time>
      </trkpt>
      <trkpt lat="48.679686" lon="-1.508156">
        <ele>2.656</ele>
        <time>2026-08-21T20:07:25.999Z</time>
      </trkpt>
      <trkpt lat="48.679701" lon="-1.508145">
        <ele>2.611</ele>
        <time>2026-08-21T20:07:26.999Z</time>
      </trkpt>
      <trkpt lat="48.679711" lon="-1.508133">
        <ele>2.609</ele>
        <time>2026-08-21T20:07:27.999Z</time>
      </trkpt>
      <trkpt lat="48.679718" lon="-1.508120">
        <ele>2.787</ele>
        <time>2026-08-21T20:07:28.999Z</time>
      </trkpt>
      <trkpt lat="48.679726" lon="-1.508110">
        <ele>2.713</ele>
        <time>2026-08-21T20:07:29.999Z</time>
      </trkpt>
      <trkpt lat="48.679735" lon="-1.508097">
        <ele>2.836</ele>
        <time>2026-08-21T20:07:30.999Z</time>
      </trkpt>
      <trkpt lat="48.679745" lon="-1.508082">
        <ele>2.817</ele>
        <time>2026-08-21T20:07:31.999Z</time>
      </trkpt>
      <trkpt lat="48.679752" lon="-1.508069">
        <ele>2.880</ele>
        <time>2026-08-21T20:07:32.999Z</time>
      </trkpt>
      <trkpt lat="48.679765" lon="-1.508045">
        <ele>2.887</ele>
        <time>2026-08-21T20:07:34.999Z</time>
      </trkpt>
      <trkpt lat="48.679773" lon="-1.508031">
        <ele>2.828</ele>
        <time>2026-08-21T20:07:35.999Z</time>
      </trkpt>
      <trkpt lat="48.679781" lon="-1.508019">
        <ele>2.832</ele>
        <time>2026-08-21T20:07:36.999Z</time>
      </trkpt>
      <trkpt lat="48.679791" lon="-1.508011">
        <ele>2.849</ele>
        <time>2026-08-21T20:07:37.999Z</time>
      </trkpt>
      <trkpt lat="48.679800" lon="-1.508001">
        <ele>2.833</ele>
        <time>2026-08-21T20:07:38.999Z</time>
      </trkpt>
      <trkpt lat="48.679808" lon="-1.507990">
        <ele>2.823</ele>
        <time>2026-08-21T20:07:39.999Z</time>
      </trkpt>
      <trkpt lat="48.679815" lon="-1.507981">
        <ele>2.815</ele>
        <time>2026-08-21T20:07:40.999Z</time>
      </trkpt>
      <trkpt lat="48.679829" lon="-1.507962">
        <ele>2.809</ele>
        <time>2026-08-21T20:07:42.999Z</time>
      </trkpt>
      <trkpt lat="48.679839" lon="-1.507942">
        <ele>2.835</ele>
        <time>2026-08-21T20:07:44.999Z</time>
      </trkpt>
      <trkpt lat="48.679847" lon="-1.507928">
        <ele>2.941</ele>
        <time>2026-08-21T20:07:45.999Z</time>
      </trkpt>
      <trkpt lat="48.679853" lon="-1.507916">
        <ele>2.824</ele>
        <time>2026-08-21T20:07:46.999Z</time>
      </trkpt>
      <trkpt lat="48.679865" lon="-1.507896">
        <ele>2.865</ele>
        <time>2026-08-21T20:07:48.999Z</time>
      </trkpt>
      <trkpt lat="48.679875" lon="-1.507872">
        <ele>2.898</ele>
        <time>2026-08-21T20:07:50.999Z</time>
      </trkpt>
      <trkpt lat="48.679881" lon="-1.507862">
        <ele>2.895</ele>
        <time>2026-08-21T20:07:51.999Z</time>
      </trkpt>
      <trkpt lat="48.679894" lon="-1.507839">
        <ele>2.826</ele>
        <time>2026-08-21T20:07:53.999Z</time>
      </trkpt>
      <trkpt lat="48.679900" lon="-1.507827">
        <ele>2.890</ele>
        <time>2026-08-21T20:07:54.999Z</time>
      </trkpt>
      <trkpt lat="48.679907" lon="-1.507816">
        <ele>2.797</ele>
        <time>2026-08-21T20:07:55.999Z</time>
      </trkpt>
      <trkpt lat="48.679918" lon="-1.507805">
        <ele>2.614</ele>
        <time>2026-08-21T20:07:57.999Z</time>
      </trkpt>
      <trkpt lat="48.679926" lon="-1.507796">
        <ele>2.754</ele>
        <time>2026-08-21T20:07:58.999Z</time>
      </trkpt>
      <trkpt lat="48.679936" lon="-1.507782">
        <ele>2.709</ele>
        <time>2026-08-21T20:08:00.999Z</time>
      </trkpt>
      <trkpt lat="48.679947" lon="-1.507760">
        <ele>2.609</ele>
        <time>2026-08-21T20:08:02.999Z</time>
      </trkpt>
      <trkpt lat="48.679957" lon="-1.507740">
        <ele>2.663</ele>
        <time>2026-08-21T20:08:04.999Z</time>
      </trkpt>
      <trkpt lat="48.679966" lon="-1.507719">
        <ele>2.699</ele>
        <time>2026-08-21T20:08:06.999Z</time>
      </trkpt>
      <trkpt lat="48.679972" lon="-1.507699">
        <ele>2.512</ele>
        <time>2026-08-21T20:08:09.999Z</time>
      </trkpt>
      <trkpt lat="48.679982" lon="-1.507693">
        <ele>2.513</ele>
        <time>2026-08-21T20:08:11.999Z</time>
      </trkpt>
      <trkpt lat="48.679990" lon="-1.507682">
        <ele>2.516</ele>
        <time>2026-08-21T20:08:12.999Z</time>
      </trkpt>
      <trkpt lat="48.679993" lon="-1.507663">
        <ele>2.583</ele>
        <time>2026-08-21T20:08:14.999Z</time>
      </trkpt>
      <trkpt lat="48.680004" lon="-1.507652">
        <ele>2.424</ele>
        <time>2026-08-21T20:08:16.999Z</time>
      </trkpt>
      <trkpt lat="48.680020" lon="-1.507644">
        <ele>2.438</ele>
        <time>2026-08-21T20:08:18.999Z</time>
      </trkpt>
      <trkpt lat="48.680027" lon="-1.507636">
        <ele>2.315</ele>
        <time>2026-08-21T20:08:19.999Z</time>
      </trkpt>
      <trkpt lat="48.680036" lon="-1.507625">
        <ele>2.344</ele>
        <time>2026-08-21T20:08:20.999Z</time>
      </trkpt>
      <trkpt lat="48.680049" lon="-1.507615">
        <ele>2.305</ele>
        <time>2026-08-21T20:08:22.999Z</time>
      </trkpt>
      <trkpt lat="48.680064" lon="-1.507603">
        <ele>2.315</ele>
        <time>2026-08-21T20:08:24.999Z</time>
      </trkpt>
      <trkpt lat="48.680072" lon="-1.507592">
        <ele>2.309</ele>
        <time>2026-08-21T20:08:25.999Z</time>
      </trkpt>
      <trkpt lat="48.680079" lon="-1.507582">
        <ele>2.246</ele>
        <time>2026-08-21T20:08:26.999Z</time>
      </trkpt>
      <trkpt lat="48.680085" lon="-1.507565">
        <ele>2.282</ele>
        <time>2026-08-21T20:08:28.999Z</time>
      </trkpt>
      <trkpt lat="48.680096" lon="-1.507556">
        <ele>2.225</ele>
        <time>2026-08-21T20:08:30.999Z</time>
      </trkpt>
      <trkpt lat="48.680105" lon="-1.507548">
        <ele>2.236</ele>
        <time>2026-08-21T20:08:31.999Z</time>
      </trkpt>
      <trkpt lat="48.680112" lon="-1.507535">
        <ele>2.229</ele>
        <time>2026-08-21T20:08:33.999Z</time>
      </trkpt>
      <trkpt lat="48.680120" lon="-1.507522">
        <ele>2.216</ele>
        <time>2026-08-21T20:08:35.999Z</time>
      </trkpt>
      <trkpt lat="48.680131" lon="-1.507509">
        <ele>2.137</ele>
        <time>2026-08-21T20:08:37.999Z</time>
      </trkpt>
      <trkpt lat="48.680140" lon="-1.507496">
        <ele>2.131</ele>
        <time>2026-08-21T20:08:39.999Z</time>
      </trkpt>
      <trkpt lat="48.680156" lon="-1.507485">
        <ele>2.188</ele>
        <time>2026-08-21T20:08:41.999Z</time>
      </trkpt>
      <trkpt lat="48.680164" lon="-1.507476">
        <ele>2.034</ele>
        <time>2026-08-21T20:08:42.999Z</time>
      </trkpt>
      <trkpt lat="48.680177" lon="-1.507458">
        <ele>2.055</ele>
        <time>2026-08-21T20:08:44.999Z</time>
      </trkpt>
      <trkpt lat="48.680186" lon="-1.507449">
        <ele>2.010</ele>
        <time>2026-08-21T20:08:46.999Z</time>
      </trkpt>
      <trkpt lat="48.680194" lon="-1.507438">
        <ele>1.909</ele>
        <time>2026-08-21T20:08:48.999Z</time>
      </trkpt>
      <trkpt lat="48.680209" lon="-1.507424">
        <ele>1.955</ele>
        <time>2026-08-21T20:08:50.999Z</time>
      </trkpt>
      <trkpt lat="48.680226" lon="-1.507415">
        <ele>1.981</ele>
        <time>2026-08-21T20:08:52.999Z</time>
      </trkpt>
      <trkpt lat="48.680236" lon="-1.507405">
        <ele>1.924</ele>
        <time>2026-08-21T20:08:53.999Z</time>
      </trkpt>
      <trkpt lat="48.680245" lon="-1.507396">
        <ele>1.895</ele>
        <time>2026-08-21T20:08:54.999Z</time>
      </trkpt>
      <trkpt lat="48.680252" lon="-1.507385">
        <ele>1.878</ele>
        <time>2026-08-21T20:08:55.999Z</time>
      </trkpt>
      <trkpt lat="48.680259" lon="-1.507374">
        <ele>1.845</ele>
        <time>2026-08-21T20:08:56.999Z</time>
      </trkpt>
      <trkpt lat="48.680268" lon="-1.507363">
        <ele>1.846</ele>
        <time>2026-08-21T20:08:57.999Z</time>
      </trkpt>
      <trkpt lat="48.680277" lon="-1.507352">
        <ele>1.860</ele>
        <time>2026-08-21T20:08:58.999Z</time>
      </trkpt>
      <trkpt lat="48.680285" lon="-1.507343">
        <ele>1.847</ele>
        <time>2026-08-21T20:08:59.999Z</time>
      </trkpt>
      <trkpt lat="48.680296" lon="-1.507323">
        <ele>1.643</ele>
        <time>2026-08-21T20:09:01.999Z</time>
      </trkpt>
      <trkpt lat="48.680312" lon="-1.507311">
        <ele>1.664</ele>
        <time>2026-08-21T20:09:04Z</time>
      </trkpt>
      <trkpt lat="48.680322" lon="-1.507303">
        <ele>1.610</ele>
        <time>2026-08-21T20:09:05Z</time>
      </trkpt>
      <trkpt lat="48.680330" lon="-1.507295">
        <ele>1.509</ele>
        <time>2026-08-21T20:09:06Z</time>
      </trkpt>
      <trkpt lat="48.680343" lon="-1.507281">
        <ele>1.546</ele>
        <time>2026-08-21T20:09:08Z</time>
      </trkpt>
      <trkpt lat="48.680359" lon="-1.507263">
        <ele>1.552</ele>
        <time>2026-08-21T20:09:10Z</time>
      </trkpt>
      <trkpt lat="48.680368" lon="-1.507256">
        <ele>1.415</ele>
        <time>2026-08-21T20:09:11Z</time>
      </trkpt>
      <trkpt lat="48.680378" lon="-1.507247">
        <ele>1.456</ele>
        <time>2026-08-21T20:09:12Z</time>
      </trkpt>
      <trkpt lat="48.680387" lon="-1.507242">
        <ele>1.459</ele>
        <time>2026-08-21T20:09:13Z</time>
      </trkpt>
      <trkpt lat="48.680404" lon="-1.507227">
        <ele>1.456</ele>
        <time>2026-08-21T20:09:15Z</time>
      </trkpt>
      <trkpt lat="48.680414" lon="-1.507218">
        <ele>1.497</ele>
        <time>2026-08-21T20:09:16Z</time>
      </trkpt>
      <trkpt lat="48.680425" lon="-1.507208">
        <ele>1.411</ele>
        <time>2026-08-21T20:09:17Z</time>
      </trkpt>
      <trkpt lat="48.680438" lon="-1.507202">
        <ele>1.478</ele>
        <time>2026-08-21T20:09:18Z</time>
      </trkpt>
      <trkpt lat="48.680456" lon="-1.507185">
        <ele>1.473</ele>
        <time>2026-08-21T20:09:20Z</time>
      </trkpt>
      <trkpt lat="48.680466" lon="-1.507179">
        <ele>1.485</ele>
        <time>2026-08-21T20:09:21Z</time>
      </trkpt>
      <trkpt lat="48.680475" lon="-1.507169">
        <ele>1.413</ele>
        <time>2026-08-21T20:09:22Z</time>
      </trkpt>
      <trkpt lat="48.680482" lon="-1.507160">
        <ele>1.409</ele>
        <time>2026-08-21T20:09:23Z</time>
      </trkpt>
      <trkpt lat="48.680481" lon="-1.507146">
        <ele>1.499</ele>
        <time>2026-08-21T20:09:25Z</time>
      </trkpt>
      <trkpt lat="48.680472" lon="-1.507148">
        <ele>1.495</ele>
        <time>2026-08-21T20:09:46Z</time>
      </trkpt>
      <trkpt lat="48.680483" lon="-1.507146">
        <ele>1.438</ele>
        <time>2026-08-21T20:10:03Z</time>
      </trkpt>
      <trkpt lat="48.680486" lon="-1.507134">
        <ele>1.529</ele>
        <time>2026-08-21T20:10:05Z</time>
      </trkpt>
      <trkpt lat="48.680495" lon="-1.507115">
        <ele>1.582</ele>
        <time>2026-08-21T20:10:08Z</time>
      </trkpt>
      <trkpt lat="48.680509" lon="-1.507106">
        <ele>1.579</ele>
        <time>2026-08-21T20:10:09Z</time>
      </trkpt>
      <trkpt lat="48.680517" lon="-1.507099">
        <ele>1.560</ele>
        <time>2026-08-21T20:10:10Z</time>
      </trkpt>
      <trkpt lat="48.680528" lon="-1.507088">
        <ele>1.514</ele>
        <time>2026-08-21T20:10:11Z</time>
      </trkpt>
      <trkpt lat="48.680539" lon="-1.507079">
        <ele>1.621</ele>
        <time>2026-08-21T20:10:12Z</time>
      </trkpt>
      <trkpt lat="48.680546" lon="-1.507070">
        <ele>1.763</ele>
        <time>2026-08-21T20:10:13Z</time>
      </trkpt>
      <trkpt lat="48.680557" lon="-1.507060">
        <ele>1.944</ele>
        <time>2026-08-21T20:10:14Z</time>
      </trkpt>
      <trkpt lat="48.680566" lon="-1.507046">
        <ele>2.018</ele>
        <time>2026-08-21T20:10:15Z</time>
      </trkpt>
      <trkpt lat="48.680574" lon="-1.507035">
        <ele>2.109</ele>
        <time>2026-08-21T20:10:16Z</time>
      </trkpt>
      <trkpt lat="48.680591" lon="-1.507020">
        <ele>2.148</ele>
        <time>2026-08-21T20:10:18Z</time>
      </trkpt>
      <trkpt lat="48.680601" lon="-1.507009">
        <ele>2.154</ele>
        <time>2026-08-21T20:10:19Z</time>
      </trkpt>
      <trkpt lat="48.680610" lon="-1.506998">
        <ele>2.357</ele>
        <time>2026-08-21T20:10:20Z</time>
      </trkpt>
      <trkpt lat="48.680619" lon="-1.506990">
        <ele>2.538</ele>
        <time>2026-08-21T20:10:21Z</time>
      </trkpt>
      <trkpt lat="48.680630" lon="-1.506979">
        <ele>2.641</ele>
        <time>2026-08-21T20:10:22Z</time>
      </trkpt>
      <trkpt lat="48.680646" lon="-1.506961">
        <ele>2.648</ele>
        <time>2026-08-21T20:10:24Z</time>
      </trkpt>
      <trkpt lat="48.680654" lon="-1.506950">
        <ele>2.639</ele>
        <time>2026-08-21T20:10:25Z</time>
      </trkpt>
      <trkpt lat="48.680662" lon="-1.506940">
        <ele>2.693</ele>
        <time>2026-08-21T20:10:26Z</time>
      </trkpt>
      <trkpt lat="48.680668" lon="-1.506930">
        <ele>2.610</ele>
        <time>2026-08-21T20:10:27Z</time>
      </trkpt>
      <trkpt lat="48.680676" lon="-1.506921">
        <ele>2.635</ele>
        <time>2026-08-21T20:10:28Z</time>
      </trkpt>
      <trkpt lat="48.680685" lon="-1.506911">
        <ele>2.686</ele>
        <time>2026-08-21T20:10:29Z</time>
      </trkpt>
      <trkpt lat="48.680694" lon="-1.506901">
        <ele>2.614</ele>
        <time>2026-08-21T20:10:30Z</time>
      </trkpt>
      <trkpt lat="48.680713" lon="-1.506880">
        <ele>2.609</ele>
        <time>2026-08-21T20:10:32Z</time>
      </trkpt>
      <trkpt lat="48.680718" lon="-1.506866">
        <ele>2.765</ele>
        <time>2026-08-21T20:10:33Z</time>
      </trkpt>
      <trkpt lat="48.680724" lon="-1.506851">
        <ele>2.761</ele>
        <time>2026-08-21T20:10:34Z</time>
      </trkpt>
      <trkpt lat="48.680733" lon="-1.506841">
        <ele>2.734</ele>
        <time>2026-08-21T20:10:35Z</time>
      </trkpt>
      <trkpt lat="48.680742" lon="-1.506833">
        <ele>2.755</ele>
        <time>2026-08-21T20:10:36Z</time>
      </trkpt>
      <trkpt lat="48.680755" lon="-1.506813">
        <ele>2.778</ele>
        <time>2026-08-21T20:10:38Z</time>
      </trkpt>
      <trkpt lat="48.680761" lon="-1.506802">
        <ele>2.725</ele>
        <time>2026-08-21T20:10:39Z</time>
      </trkpt>
      <trkpt lat="48.680770" lon="-1.506794">
        <ele>2.716</ele>
        <time>2026-08-21T20:10:40Z</time>
      </trkpt>
      <trkpt lat="48.680781" lon="-1.506783">
        <ele>2.760</ele>
        <time>2026-08-21T20:10:41Z</time>
      </trkpt>
      <trkpt lat="48.680788" lon="-1.506772">
        <ele>2.747</ele>
        <time>2026-08-21T20:10:42Z</time>
      </trkpt>
      <trkpt lat="48.680797" lon="-1.506759">
        <ele>2.744</ele>
        <time>2026-08-21T20:10:43Z</time>
      </trkpt>
      <trkpt lat="48.680805" lon="-1.506748">
        <ele>2.705</ele>
        <time>2026-08-21T20:10:44Z</time>
      </trkpt>
      <trkpt lat="48.680814" lon="-1.506740">
        <ele>2.615</ele>
        <time>2026-08-21T20:10:45Z</time>
      </trkpt>
      <trkpt lat="48.680823" lon="-1.506722">
        <ele>2.609</ele>
        <time>2026-08-21T20:10:47Z</time>
      </trkpt>
      <trkpt lat="48.680831" lon="-1.506712">
        <ele>2.666</ele>
        <time>2026-08-21T20:10:48Z</time>
      </trkpt>
      <trkpt lat="48.680841" lon="-1.506702">
        <ele>2.512</ele>
        <time>2026-08-21T20:10:49Z</time>
      </trkpt>
      <trkpt lat="48.680852" lon="-1.506691">
        <ele>2.525</ele>
        <time>2026-08-21T20:10:50Z</time>
      </trkpt>
      <trkpt lat="48.680866" lon="-1.506677">
        <ele>2.516</ele>
        <time>2026-08-21T20:10:51Z</time>
      </trkpt>
      <trkpt lat="48.680875" lon="-1.506666">
        <ele>2.599</ele>
        <time>2026-08-21T20:10:52Z</time>
      </trkpt>
      <trkpt lat="48.680886" lon="-1.506656">
        <ele>2.536</ele>
        <time>2026-08-21T20:10:53Z</time>
      </trkpt>
      <trkpt lat="48.680899" lon="-1.506648">
        <ele>2.567</ele>
        <time>2026-08-21T20:10:54Z</time>
      </trkpt>
      <trkpt lat="48.680910" lon="-1.506636">
        <ele>2.521</ele>
        <time>2026-08-21T20:10:55Z</time>
      </trkpt>
      <trkpt lat="48.680920" lon="-1.506627">
        <ele>2.558</ele>
        <time>2026-08-21T20:10:56Z</time>
      </trkpt>
      <trkpt lat="48.680930" lon="-1.506620">
        <ele>2.685</ele>
        <time>2026-08-21T20:10:57Z</time>
      </trkpt>
      <trkpt lat="48.680939" lon="-1.506609">
        <ele>2.689</ele>
        <time>2026-08-21T20:10:58Z</time>
      </trkpt>
      <trkpt lat="48.680945" lon="-1.506598">
        <ele>2.717</ele>
        <time>2026-08-21T20:10:59Z</time>
      </trkpt>
      <trkpt lat="48.680953" lon="-1.506588">
        <ele>2.709</ele>
        <time>2026-08-21T20:11:00Z</time>
      </trkpt>
      <trkpt lat="48.680962" lon="-1.506576">
        <ele>2.880</ele>
        <time>2026-08-21T20:11:01Z</time>
      </trkpt>
      <trkpt lat="48.680969" lon="-1.506569">
        <ele>2.886</ele>
        <time>2026-08-21T20:11:02Z</time>
      </trkpt>
      <trkpt lat="48.680977" lon="-1.506560">
        <ele>2.869</ele>
        <time>2026-08-21T20:11:03Z</time>
      </trkpt>
      <trkpt lat="48.680985" lon="-1.506552">
        <ele>2.850</ele>
        <time>2026-08-21T20:11:04Z</time>
      </trkpt>
      <trkpt lat="48.680993" lon="-1.506544">
        <ele>2.823</ele>
        <time>2026-08-21T20:11:05Z</time>
      </trkpt>
      <trkpt lat="48.681007" lon="-1.506537">
        <ele>2.890</ele>
        <time>2026-08-21T20:11:06Z</time>
      </trkpt>
      <trkpt lat="48.681017" lon="-1.506529">
        <ele>2.881</ele>
        <time>2026-08-21T20:11:07Z</time>
      </trkpt>
      <trkpt lat="48.681027" lon="-1.506511">
        <ele>2.885</ele>
        <time>2026-08-21T20:11:09Z</time>
      </trkpt>
      <trkpt lat="48.681037" lon="-1.506500">
        <ele>2.842</ele>
        <time>2026-08-21T20:11:10Z</time>
      </trkpt>
      <trkpt lat="48.681045" lon="-1.506491">
        <ele>2.838</ele>
        <time>2026-08-21T20:11:11Z</time>
      </trkpt>
      <trkpt lat="48.681058" lon="-1.506474">
        <ele>2.870</ele>
        <time>2026-08-21T20:11:13Z</time>
      </trkpt>
      <trkpt lat="48.681071" lon="-1.506465">
        <ele>2.817</ele>
        <time>2026-08-21T20:11:14Z</time>
      </trkpt>
      <trkpt lat="48.681081" lon="-1.506457">
        <ele>2.809</ele>
        <time>2026-08-21T20:11:15Z</time>
      </trkpt>
      <trkpt lat="48.681091" lon="-1.506449">
        <ele>2.875</ele>
        <time>2026-08-21T20:11:16Z</time>
      </trkpt>
      <trkpt lat="48.681102" lon="-1.506442">
        <ele>2.871</ele>
        <time>2026-08-21T20:11:17Z</time>
      </trkpt>
      <trkpt lat="48.681111" lon="-1.506436">
        <ele>2.874</ele>
        <time>2026-08-21T20:11:18Z</time>
      </trkpt>
      <trkpt lat="48.681120" lon="-1.506426">
        <ele>2.895</ele>
        <time>2026-08-21T20:11:19Z</time>
      </trkpt>
      <trkpt lat="48.681134" lon="-1.506409">
        <ele>2.898</ele>
        <time>2026-08-21T20:11:21Z</time>
      </trkpt>
      <trkpt lat="48.681142" lon="-1.506400">
        <ele>2.855</ele>
        <time>2026-08-21T20:11:22Z</time>
      </trkpt>
      <trkpt lat="48.681149" lon="-1.506390">
        <ele>2.886</ele>
        <time>2026-08-21T20:11:23Z</time>
      </trkpt>
      <trkpt lat="48.681158" lon="-1.506385">
        <ele>2.860</ele>
        <time>2026-08-21T20:11:24Z</time>
      </trkpt>
      <trkpt lat="48.681168" lon="-1.506382">
        <ele>2.717</ele>
        <time>2026-08-21T20:11:25Z</time>
      </trkpt>
      <trkpt lat="48.681179" lon="-1.506373">
        <ele>2.731</ele>
        <time>2026-08-21T20:11:26Z</time>
      </trkpt>
      <trkpt lat="48.681188" lon="-1.506365">
        <ele>2.761</ele>
        <time>2026-08-21T20:11:27Z</time>
      </trkpt>
      <trkpt lat="48.681198" lon="-1.506358">
        <ele>2.607</ele>
        <time>2026-08-21T20:11:28Z</time>
      </trkpt>
      <trkpt lat="48.681208" lon="-1.506348">
        <ele>2.609</ele>
        <time>2026-08-21T20:11:30Z</time>
      </trkpt>
      <trkpt lat="48.681226" lon="-1.506336">
        <ele>2.635</ele>
        <time>2026-08-21T20:11:32Z</time>
      </trkpt>
      <trkpt lat="48.681236" lon="-1.506335">
        <ele>2.641</ele>
        <time>2026-08-21T20:11:33Z</time>
      </trkpt>
      <trkpt lat="48.681249" lon="-1.506324">
        <ele>2.554</ele>
        <time>2026-08-21T20:11:35Z</time>
      </trkpt>
      <trkpt lat="48.681255" lon="-1.506306">
        <ele>2.575</ele>
        <time>2026-08-21T20:11:37Z</time>
      </trkpt>
      <trkpt lat="48.681263" lon="-1.506297">
        <ele>2.458</ele>
        <time>2026-08-21T20:11:41Z</time>
      </trkpt>
      <trkpt lat="48.681276" lon="-1.506297">
        <ele>2.485</ele>
        <time>2026-08-21T20:11:44Z</time>
      </trkpt>
      <trkpt lat="48.681287" lon="-1.506290">
        <ele>2.496</ele>
        <time>2026-08-21T20:11:47Z</time>
      </trkpt>
      <trkpt lat="48.681292" lon="-1.506279">
        <ele>2.490</ele>
        <time>2026-08-21T20:11:54Z</time>
      </trkpt>
      <trkpt lat="48.681303" lon="-1.506270">
        <ele>2.437</ele>
        <time>2026-08-21T20:11:58Z</time>
      </trkpt>
      <trkpt lat="48.681317" lon="-1.506265">
        <ele>2.454</ele>
        <time>2026-08-21T20:12:02Z</time>
      </trkpt>
      <trkpt lat="48.681327" lon="-1.506262">
        <ele>2.356</ele>
        <time>2026-08-21T20:12:04Z</time>
      </trkpt>
      <trkpt lat="48.681335" lon="-1.506250">
        <ele>2.211</ele>
        <time>2026-08-21T20:12:06Z</time>
      </trkpt>
      <trkpt lat="48.681347" lon="-1.506243">
        <ele>2.209</ele>
        <time>2026-08-21T20:12:08Z</time>
      </trkpt>
      <trkpt lat="48.681356" lon="-1.506240">
        <ele>2.147</ele>
        <time>2026-08-21T20:12:11Z</time>
      </trkpt>
      <trkpt lat="48.681365" lon="-1.506233">
        <ele>2.183</ele>
        <time>2026-08-21T20:12:13Z</time>
      </trkpt>
      <trkpt lat="48.681385" lon="-1.506231">
        <ele>2.066</ele>
        <time>2026-08-21T20:12:15Z</time>
      </trkpt>
      <trkpt lat="48.681401" lon="-1.506226">
        <ele>2.097</ele>
        <time>2026-08-21T20:12:17Z</time>
      </trkpt>
      <trkpt lat="48.681410" lon="-1.506220">
        <ele>2.040</ele>
        <time>2026-08-21T20:12:19Z</time>
      </trkpt>
      <trkpt lat="48.681421" lon="-1.506215">
        <ele>2.077</ele>
        <time>2026-08-21T20:12:21Z</time>
      </trkpt>
      <trkpt lat="48.681433" lon="-1.506209">
        <ele>2.078</ele>
        <time>2026-08-21T20:12:23Z</time>
      </trkpt>
      <trkpt lat="48.681444" lon="-1.506206">
        <ele>2.042</ele>
        <time>2026-08-21T20:12:25Z</time>
      </trkpt>
      <trkpt lat="48.681453" lon="-1.506203">
        <ele>2.029</ele>
        <time>2026-08-21T20:12:28Z</time>
      </trkpt>
      <trkpt lat="48.681463" lon="-1.506203">
        <ele>2.026</ele>
        <time>2026-08-21T20:12:31Z</time>
      </trkpt>
      <trkpt lat="48.681472" lon="-1.506203">
        <ele>2.047</ele>
        <time>2026-08-21T20:12:44Z</time>
      </trkpt>
      <trkpt lat="48.681481" lon="-1.506201">
        <ele>2.011</ele>
        <time>2026-08-21T20:13:08Z</time>
      </trkpt>
      <trkpt lat="48.681492" lon="-1.506209">
        <ele>2.109</ele>
        <time>2026-08-21T20:13:34Z</time>
      </trkpt>
      <trkpt lat="48.681501" lon="-1.506208">
        <ele>2.154</ele>
        <time>2026-08-21T20:13:37Z</time>
      </trkpt>
      <trkpt lat="48.681510" lon="-1.506208">
        <ele>2.290</ele>
        <time>2026-08-21T20:13:42Z</time>
      </trkpt>
      <trkpt lat="48.681523" lon="-1.506207">
        <ele>2.293</ele>
        <time>2026-08-21T20:13:44Z</time>
      </trkpt>
      <trkpt lat="48.681537" lon="-1.506202">
        <ele>2.224</ele>
        <time>2026-08-21T20:13:46Z</time>
      </trkpt>
      <trkpt lat="48.681552" lon="-1.506201">
        <ele>2.237</ele>
        <time>2026-08-21T20:13:48Z</time>
      </trkpt>
      <trkpt lat="48.681563" lon="-1.506199">
        <ele>2.244</ele>
        <time>2026-08-21T20:13:49Z</time>
      </trkpt>
      <trkpt lat="48.681581" lon="-1.506189">
        <ele>2.285</ele>
        <time>2026-08-21T20:13:51Z</time>
      </trkpt>
      <trkpt lat="48.681596" lon="-1.506186">
        <ele>2.239</ele>
        <time>2026-08-21T20:13:53Z</time>
      </trkpt>
      <trkpt lat="48.681608" lon="-1.506176">
        <ele>2.276</ele>
        <time>2026-08-21T20:13:55Z</time>
      </trkpt>
      <trkpt lat="48.681606" lon="-1.506163">
        <ele>2.387</ele>
        <time>2026-08-21T20:14:00Z</time>
      </trkpt>
      <trkpt lat="48.681610" lon="-1.506151">
        <ele>2.342</ele>
        <time>2026-08-21T20:14:04Z</time>
      </trkpt>
      <trkpt lat="48.681617" lon="-1.506137">
        <ele>2.326</ele>
        <time>2026-08-21T20:14:06Z</time>
      </trkpt>
      <trkpt lat="48.681626" lon="-1.506126">
        <ele>2.309</ele>
        <time>2026-08-21T20:14:07Z</time>
      </trkpt>
      <trkpt lat="48.681638" lon="-1.506108">
        <ele>2.350</ele>
        <time>2026-08-21T20:14:09Z</time>
      </trkpt>
      <trkpt lat="48.681646" lon="-1.506096">
        <ele>2.356</ele>
        <time>2026-08-21T20:14:10Z</time>
      </trkpt>
      <trkpt lat="48.681656" lon="-1.506088">
        <ele>2.339</ele>
        <time>2026-08-21T20:14:11Z</time>
      </trkpt>
      <trkpt lat="48.681666" lon="-1.506080">
        <ele>2.360</ele>
        <time>2026-08-21T20:14:12Z</time>
      </trkpt>
      <trkpt lat="48.681677" lon="-1.506063">
        <ele>2.353</ele>
        <time>2026-08-21T20:14:14Z</time>
      </trkpt>
      <trkpt lat="48.681690" lon="-1.506048">
        <ele>2.370</ele>
        <time>2026-08-21T20:14:16Z</time>
      </trkpt>
      <trkpt lat="48.681702" lon="-1.506032">
        <ele>2.351</ele>
        <time>2026-08-21T20:14:18Z</time>
      </trkpt>
      <trkpt lat="48.681713" lon="-1.506020">
        <ele>2.375</ele>
        <time>2026-08-21T20:14:20Z</time>
      </trkpt>
      <trkpt lat="48.681722" lon="-1.506008">
        <ele>2.322</ele>
        <time>2026-08-21T20:14:22Z</time>
      </trkpt>
      <trkpt lat="48.681728" lon="-1.505997">
        <ele>2.355</ele>
        <time>2026-08-21T20:14:23Z</time>
      </trkpt>
      <trkpt lat="48.681733" lon="-1.505983">
        <ele>2.307</ele>
        <time>2026-08-21T20:14:25Z</time>
      </trkpt>
      <trkpt lat="48.681739" lon="-1.505965">
        <ele>2.217</ele>
        <time>2026-08-21T20:14:27Z</time>
      </trkpt>
      <trkpt lat="48.681747" lon="-1.505957">
        <ele>2.109</ele>
        <time>2026-08-21T20:14:29Z</time>
      </trkpt>
      <trkpt lat="48.681753" lon="-1.505943">
        <ele>2.177</ele>
        <time>2026-08-21T20:14:31Z</time>
      </trkpt>
      <trkpt lat="48.681763" lon="-1.505926">
        <ele>2.253</ele>
        <time>2026-08-21T20:14:33Z</time>
      </trkpt>
      <trkpt lat="48.681771" lon="-1.505909">
        <ele>2.136</ele>
        <time>2026-08-21T20:14:35Z</time>
      </trkpt>
      <trkpt lat="48.681777" lon="-1.505898">
        <ele>2.097</ele>
        <time>2026-08-21T20:14:37Z</time>
      </trkpt>
      <trkpt lat="48.681785" lon="-1.505885">
        <ele>2.010</ele>
        <time>2026-08-21T20:14:39Z</time>
      </trkpt>
      <trkpt lat="48.681796" lon="-1.505868">
        <ele>1.977</ele>
        <time>2026-08-21T20:14:41Z</time>
      </trkpt>
      <trkpt lat="48.681801" lon="-1.505850">
        <ele>1.968</ele>
        <time>2026-08-21T20:14:43Z</time>
      </trkpt>
      <trkpt lat="48.681809" lon="-1.505828">
        <ele>1.912</ele>
        <time>2026-08-21T20:14:45Z</time>
      </trkpt>
      <trkpt lat="48.681816" lon="-1.505807">
        <ele>1.949</ele>
        <time>2026-08-21T20:14:47Z</time>
      </trkpt>
      <trkpt lat="48.681818" lon="-1.505784">
        <ele>1.845</ele>
        <time>2026-08-21T20:14:49Z</time>
      </trkpt>
      <trkpt lat="48.681823" lon="-1.505771">
        <ele>1.847</ele>
        <time>2026-08-21T20:14:50Z</time>
      </trkpt>
      <trkpt lat="48.681830" lon="-1.505762">
        <ele>1.811</ele>
        <time>2026-08-21T20:14:51Z</time>
      </trkpt>
      <trkpt lat="48.681840" lon="-1.505746">
        <ele>1.709</ele>
        <time>2026-08-21T20:14:53Z</time>
      </trkpt>
      <trkpt lat="48.681845" lon="-1.505728">
        <ele>1.796</ele>
        <time>2026-08-21T20:14:55Z</time>
      </trkpt>
      <trkpt lat="48.681848" lon="-1.505715">
        <ele>1.722</ele>
        <time>2026-08-21T20:14:56Z</time>
      </trkpt>
      <trkpt lat="48.681855" lon="-1.505703">
        <ele>1.835</ele>
        <time>2026-08-21T20:14:57Z</time>
      </trkpt>
      <trkpt lat="48.681860" lon="-1.505690">
        <ele>1.836</ele>
        <time>2026-08-21T20:14:58Z</time>
      </trkpt>
      <trkpt lat="48.681866" lon="-1.505680">
        <ele>1.899</ele>
        <time>2026-08-21T20:14:59Z</time>
      </trkpt>
      <trkpt lat="48.681873" lon="-1.505669">
        <ele>1.866</ele>
        <time>2026-08-21T20:15:00Z</time>
      </trkpt>
      <trkpt lat="48.681879" lon="-1.505655">
        <ele>1.817</ele>
        <time>2026-08-21T20:15:01Z</time>
      </trkpt>
      <trkpt lat="48.681885" lon="-1.505644">
        <ele>1.851</ele>
        <time>2026-08-21T20:15:02Z</time>
      </trkpt>
      <trkpt lat="48.681893" lon="-1.505629">
        <ele>1.898</ele>
        <time>2026-08-21T20:15:03Z</time>
      </trkpt>
      <trkpt lat="48.681902" lon="-1.505608">
        <ele>1.789</ele>
        <time>2026-08-21T20:15:05Z</time>
      </trkpt>
      <trkpt lat="48.681912" lon="-1.505584">
        <ele>1.706</ele>
        <time>2026-08-21T20:15:07Z</time>
      </trkpt>
      <trkpt lat="48.681923" lon="-1.505562">
        <ele>1.726</ele>
        <time>2026-08-21T20:15:09Z</time>
      </trkpt>
      <trkpt lat="48.681935" lon="-1.505551">
        <ele>1.709</ele>
        <time>2026-08-21T20:15:10Z</time>
      </trkpt>
      <trkpt lat="48.681942" lon="-1.505542">
        <ele>1.730</ele>
        <time>2026-08-21T20:15:11Z</time>
      </trkpt>
      <trkpt lat="48.681953" lon="-1.505519">
        <ele>1.756</ele>
        <time>2026-08-21T20:15:13Z</time>
      </trkpt>
      <trkpt lat="48.681959" lon="-1.505504">
        <ele>1.769</ele>
        <time>2026-08-21T20:15:14Z</time>
      </trkpt>
      <trkpt lat="48.681963" lon="-1.505489">
        <ele>1.750</ele>
        <time>2026-08-21T20:15:15Z</time>
      </trkpt>
      <trkpt lat="48.681972" lon="-1.505474">
        <ele>1.773</ele>
        <time>2026-08-21T20:15:17Z</time>
      </trkpt>
      <trkpt lat="48.681984" lon="-1.505464">
        <ele>1.770</ele>
        <time>2026-08-21T20:15:18Z</time>
      </trkpt>
      <trkpt lat="48.681996" lon="-1.505451">
        <ele>1.771</ele>
        <time>2026-08-21T20:15:19Z</time>
      </trkpt>
      <trkpt lat="48.682006" lon="-1.505441">
        <ele>1.765</ele>
        <time>2026-08-21T20:15:20Z</time>
      </trkpt>
      <trkpt lat="48.682014" lon="-1.505433">
        <ele>1.762</ele>
        <time>2026-08-21T20:15:21Z</time>
      </trkpt>
      <trkpt lat="48.682023" lon="-1.505423">
        <ele>1.753</ele>
        <time>2026-08-21T20:15:22Z</time>
      </trkpt>
      <trkpt lat="48.682030" lon="-1.505413">
        <ele>1.804</ele>
        <time>2026-08-21T20:15:23Z</time>
      </trkpt>
      <trkpt lat="48.682038" lon="-1.505403">
        <ele>1.814</ele>
        <time>2026-08-21T20:15:24Z</time>
      </trkpt>
      <trkpt lat="48.682051" lon="-1.505385">
        <ele>1.909</ele>
        <time>2026-08-21T20:15:26Z</time>
      </trkpt>
      <trkpt lat="48.682057" lon="-1.505359">
        <ele>1.927</ele>
        <time>2026-08-21T20:15:28Z</time>
      </trkpt>
      <trkpt lat="48.682064" lon="-1.505346">
        <ele>1.913</ele>
        <time>2026-08-21T20:15:29Z</time>
      </trkpt>
      <trkpt lat="48.682071" lon="-1.505335">
        <ele>1.956</ele>
        <time>2026-08-21T20:15:30Z</time>
      </trkpt>
      <trkpt lat="48.682087" lon="-1.505320">
        <ele>1.917</ele>
        <time>2026-08-21T20:15:32Z</time>
      </trkpt>
      <trkpt lat="48.682100" lon="-1.505301">
        <ele>2.010</ele>
        <time>2026-08-21T20:15:34Z</time>
      </trkpt>
      <trkpt lat="48.682108" lon="-1.505290">
        <ele>2.037</ele>
        <time>2026-08-21T20:15:35Z</time>
      </trkpt>
      <trkpt lat="48.682115" lon="-1.505281">
        <ele>2.028</ele>
        <time>2026-08-21T20:15:36Z</time>
      </trkpt>
      <trkpt lat="48.682123" lon="-1.505273">
        <ele>2.122</ele>
        <time>2026-08-21T20:15:37Z</time>
      </trkpt>
      <trkpt lat="48.682133" lon="-1.505264">
        <ele>2.179</ele>
        <time>2026-08-21T20:15:38Z</time>
      </trkpt>
      <trkpt lat="48.682140" lon="-1.505254">
        <ele>2.154</ele>
        <time>2026-08-21T20:15:39Z</time>
      </trkpt>
      <trkpt lat="48.682149" lon="-1.505241">
        <ele>2.256</ele>
        <time>2026-08-21T20:15:40Z</time>
      </trkpt>
      <trkpt lat="48.682157" lon="-1.505222">
        <ele>2.211</ele>
        <time>2026-08-21T20:15:42Z</time>
      </trkpt>
      <trkpt lat="48.682171" lon="-1.505205">
        <ele>2.209</ele>
        <time>2026-08-21T20:15:44Z</time>
      </trkpt>
      <trkpt lat="48.682179" lon="-1.505196">
        <ele>2.217</ele>
        <time>2026-08-21T20:15:45Z</time>
      </trkpt>
      <trkpt lat="48.682189" lon="-1.505182">
        <ele>2.213</ele>
        <time>2026-08-21T20:15:46Z</time>
      </trkpt>
      <trkpt lat="48.682200" lon="-1.505171">
        <ele>2.276</ele>
        <time>2026-08-21T20:15:47Z</time>
      </trkpt>
      <trkpt lat="48.682214" lon="-1.505151">
        <ele>2.277</ele>
        <time>2026-08-21T20:15:49Z</time>
      </trkpt>
      <trkpt lat="48.682224" lon="-1.505142">
        <ele>2.260</ele>
        <time>2026-08-21T20:15:50Z</time>
      </trkpt>
      <trkpt lat="48.682232" lon="-1.505130">
        <ele>2.287</ele>
        <time>2026-08-21T20:15:51Z</time>
      </trkpt>
      <trkpt lat="48.682239" lon="-1.505119">
        <ele>2.258</ele>
        <time>2026-08-21T20:15:52Z</time>
      </trkpt>
      <trkpt lat="48.682247" lon="-1.505107">
        <ele>2.282</ele>
        <time>2026-08-21T20:15:53Z</time>
      </trkpt>
      <trkpt lat="48.682255" lon="-1.505097">
        <ele>2.239</ele>
        <time>2026-08-21T20:15:54Z</time>
      </trkpt>
      <trkpt lat="48.682264" lon="-1.505087">
        <ele>2.321</ele>
        <time>2026-08-21T20:15:55Z</time>
      </trkpt>
      <trkpt lat="48.682273" lon="-1.505078">
        <ele>2.341</ele>
        <time>2026-08-21T20:15:56Z</time>
      </trkpt>
      <trkpt lat="48.682288" lon="-1.505066">
        <ele>2.305</ele>
        <time>2026-08-21T20:15:58Z</time>
      </trkpt>
      <trkpt lat="48.682297" lon="-1.505055">
        <ele>2.309</ele>
        <time>2026-08-21T20:15:59Z</time>
      </trkpt>
      <trkpt lat="48.682305" lon="-1.505043">
        <ele>2.394</ele>
        <time>2026-08-21T20:16:00Z</time>
      </trkpt>
      <trkpt lat="48.682312" lon="-1.505033">
        <ele>2.320</ele>
        <time>2026-08-21T20:16:01Z</time>
      </trkpt>
      <trkpt lat="48.682324" lon="-1.505020">
        <ele>2.313</ele>
        <time>2026-08-21T20:16:02Z</time>
      </trkpt>
      <trkpt lat="48.682333" lon="-1.505008">
        <ele>2.394</ele>
        <time>2026-08-21T20:16:03Z</time>
      </trkpt>
      <trkpt lat="48.682346" lon="-1.504995">
        <ele>2.377</ele>
        <time>2026-08-21T20:16:05Z</time>
      </trkpt>
      <trkpt lat="48.682356" lon="-1.504981">
        <ele>2.374</ele>
        <time>2026-08-21T20:16:06Z</time>
      </trkpt>
      <trkpt lat="48.682368" lon="-1.504973">
        <ele>2.375</ele>
        <time>2026-08-21T20:16:07Z</time>
      </trkpt>
      <trkpt lat="48.682378" lon="-1.504965">
        <ele>2.439</ele>
        <time>2026-08-21T20:16:08Z</time>
      </trkpt>
      <trkpt lat="48.682388" lon="-1.504956">
        <ele>2.466</ele>
        <time>2026-08-21T20:16:09Z</time>
      </trkpt>
      <trkpt lat="48.682395" lon="-1.504948">
        <ele>2.466</ele>
        <time>2026-08-21T20:16:10Z</time>
      </trkpt>
      <trkpt lat="48.682404" lon="-1.504939">
        <ele>2.429</ele>
        <time>2026-08-21T20:16:11Z</time>
      </trkpt>
      <trkpt lat="48.682415" lon="-1.504929">
        <ele>2.421</ele>
        <time>2026-08-21T20:16:12Z</time>
      </trkpt>
      <trkpt lat="48.682427" lon="-1.504918">
        <ele>2.509</ele>
        <time>2026-08-21T20:16:13Z</time>
      </trkpt>
      <trkpt lat="48.682435" lon="-1.504903">
        <ele>2.668</ele>
        <time>2026-08-21T20:16:14Z</time>
      </trkpt>
      <trkpt lat="48.682442" lon="-1.504893">
        <ele>2.754</ele>
        <time>2026-08-21T20:16:15Z</time>
      </trkpt>
      <trkpt lat="48.682458" lon="-1.504875">
        <ele>2.857</ele>
        <time>2026-08-21T20:16:17Z</time>
      </trkpt>
      <trkpt lat="48.682467" lon="-1.504868">
        <ele>2.898</ele>
        <time>2026-08-21T20:16:18Z</time>
      </trkpt>
      <trkpt lat="48.682478" lon="-1.504858">
        <ele>2.881</ele>
        <time>2026-08-21T20:16:19Z</time>
      </trkpt>
      <trkpt lat="48.682487" lon="-1.504844">
        <ele>2.848</ele>
        <time>2026-08-21T20:16:20Z</time>
      </trkpt>
      <trkpt lat="48.682496" lon="-1.504831">
        <ele>2.819</ele>
        <time>2026-08-21T20:16:21Z</time>
      </trkpt>
      <trkpt lat="48.682504" lon="-1.504820">
        <ele>2.813</ele>
        <time>2026-08-21T20:16:22Z</time>
      </trkpt>
      <trkpt lat="48.682512" lon="-1.504809">
        <ele>2.880</ele>
        <time>2026-08-21T20:16:23Z</time>
      </trkpt>
      <trkpt lat="48.682520" lon="-1.504800">
        <ele>2.946</ele>
        <time>2026-08-21T20:16:24Z</time>
      </trkpt>
      <trkpt lat="48.682532" lon="-1.504791">
        <ele>2.988</ele>
        <time>2026-08-21T20:16:25Z</time>
      </trkpt>
      <trkpt lat="48.682543" lon="-1.504782">
        <ele>2.916</ele>
        <time>2026-08-21T20:16:26Z</time>
      </trkpt>
      <trkpt lat="48.682555" lon="-1.504772">
        <ele>2.909</ele>
        <time>2026-08-21T20:16:27Z</time>
      </trkpt>
      <trkpt lat="48.682564" lon="-1.504757">
        <ele>2.926</ele>
        <time>2026-08-21T20:16:28Z</time>
      </trkpt>
      <trkpt lat="48.682574" lon="-1.504746">
        <ele>3.072</ele>
        <time>2026-08-21T20:16:29Z</time>
      </trkpt>
      <trkpt lat="48.682586" lon="-1.504734">
        <ele>3.035</ele>
        <time>2026-08-21T20:16:31Z</time>
      </trkpt>
      <trkpt lat="48.682604" lon="-1.504718">
        <ele>3.046</ele>
        <time>2026-08-21T20:16:33Z</time>
      </trkpt>
      <trkpt lat="48.682617" lon="-1.504704">
        <ele>3.029</ele>
        <time>2026-08-21T20:16:34Z</time>
      </trkpt>
      <trkpt lat="48.682627" lon="-1.504692">
        <ele>3.046</ele>
        <time>2026-08-21T20:16:35Z</time>
      </trkpt>
      <trkpt lat="48.682635" lon="-1.504681">
        <ele>3.097</ele>
        <time>2026-08-21T20:16:36Z</time>
      </trkpt>
      <trkpt lat="48.682644" lon="-1.504674">
        <ele>3.031</ele>
        <time>2026-08-21T20:16:37Z</time>
      </trkpt>
      <trkpt lat="48.682652" lon="-1.504667">
        <ele>3.048</ele>
        <time>2026-08-21T20:16:38Z</time>
      </trkpt>
      <trkpt lat="48.682660" lon="-1.504656">
        <ele>3.096</ele>
        <time>2026-08-21T20:16:39Z</time>
      </trkpt>
      <trkpt lat="48.682671" lon="-1.504641">
        <ele>3.031</ele>
        <time>2026-08-21T20:16:40Z</time>
      </trkpt>
      <trkpt lat="48.682681" lon="-1.504625">
        <ele>3.024</ele>
        <time>2026-08-21T20:16:41Z</time>
      </trkpt>
      <trkpt lat="48.682691" lon="-1.504615">
        <ele>3.009</ele>
        <time>2026-08-21T20:16:42Z</time>
      </trkpt>
      <trkpt lat="48.682698" lon="-1.504605">
        <ele>3.011</ele>
        <time>2026-08-21T20:16:43Z</time>
      </trkpt>
      <trkpt lat="48.682713" lon="-1.504590">
        <ele>3.037</ele>
        <time>2026-08-21T20:16:45Z</time>
      </trkpt>
      <trkpt lat="48.682722" lon="-1.504581">
        <ele>3.030</ele>
        <time>2026-08-21T20:16:46Z</time>
      </trkpt>
      <trkpt lat="48.682731" lon="-1.504573">
        <ele>3.041</ele>
        <time>2026-08-21T20:16:47Z</time>
      </trkpt>
      <trkpt lat="48.682739" lon="-1.504567">
        <ele>3.074</ele>
        <time>2026-08-21T20:16:48Z</time>
      </trkpt>
      <trkpt lat="48.682750" lon="-1.504560">
        <ele>3.011</ele>
        <time>2026-08-21T20:16:49Z</time>
      </trkpt>
      <trkpt lat="48.682760" lon="-1.504550">
        <ele>3.172</ele>
        <time>2026-08-21T20:16:50Z</time>
      </trkpt>
      <trkpt lat="48.682767" lon="-1.504541">
        <ele>3.166</ele>
        <time>2026-08-21T20:16:51Z</time>
      </trkpt>
      <trkpt lat="48.682775" lon="-1.504533">
        <ele>3.153</ele>
        <time>2026-08-21T20:16:52Z</time>
      </trkpt>
      <trkpt lat="48.682783" lon="-1.504525">
        <ele>3.164</ele>
        <time>2026-08-21T20:16:53Z</time>
      </trkpt>
      <trkpt lat="48.682793" lon="-1.504510">
        <ele>3.106</ele>
        <time>2026-08-21T20:16:55Z</time>
      </trkpt>
      <trkpt lat="48.682806" lon="-1.504503">
        <ele>3.116</ele>
        <time>2026-08-21T20:16:57Z</time>
      </trkpt>
      <trkpt lat="48.682822" lon="-1.504490">
        <ele>3.109</ele>
        <time>2026-08-21T20:16:59Z</time>
      </trkpt>
      <trkpt lat="48.682832" lon="-1.504473">
        <ele>3.168</ele>
        <time>2026-08-21T20:17:01Z</time>
      </trkpt>
      <trkpt lat="48.682840" lon="-1.504465">
        <ele>3.154</ele>
        <time>2026-08-21T20:17:02Z</time>
      </trkpt>
      <trkpt lat="48.682849" lon="-1.504460">
        <ele>3.157</ele>
        <time>2026-08-21T20:17:03Z</time>
      </trkpt>
      <trkpt lat="48.682857" lon="-1.504451">
        <ele>3.138</ele>
        <time>2026-08-21T20:17:04Z</time>
      </trkpt>
      <trkpt lat="48.682863" lon="-1.504439">
        <ele>3.121</ele>
        <time>2026-08-21T20:17:05Z</time>
      </trkpt>
      <trkpt lat="48.682873" lon="-1.504432">
        <ele>3.138</ele>
        <time>2026-08-21T20:17:06Z</time>
      </trkpt>
      <trkpt lat="48.682881" lon="-1.504425">
        <ele>3.159</ele>
        <time>2026-08-21T20:17:07Z</time>
      </trkpt>
      <trkpt lat="48.682891" lon="-1.504417">
        <ele>3.153</ele>
        <time>2026-08-21T20:17:08Z</time>
      </trkpt>
      <trkpt lat="48.682905" lon="-1.504403">
        <ele>3.130</ele>
        <time>2026-08-21T20:17:10Z</time>
      </trkpt>
      <trkpt lat="48.682914" lon="-1.504390">
        <ele>3.196</ele>
        <time>2026-08-21T20:17:12Z</time>
      </trkpt>
      <trkpt lat="48.682922" lon="-1.504382">
        <ele>3.131</ele>
        <time>2026-08-21T20:17:14Z</time>
      </trkpt>
      <trkpt lat="48.682934" lon="-1.504365">
        <ele>3.024</ele>
        <time>2026-08-21T20:17:16Z</time>
      </trkpt>
      <trkpt lat="48.682942" lon="-1.504352">
        <ele>3.009</ele>
        <time>2026-08-21T20:17:17Z</time>
      </trkpt>
      <trkpt lat="48.682959" lon="-1.504337">
        <ele>3.151</ele>
        <time>2026-08-21T20:17:19Z</time>
      </trkpt>
      <trkpt lat="48.682970" lon="-1.504319">
        <ele>3.167</ele>
        <time>2026-08-21T20:17:21Z</time>
      </trkpt>
      <trkpt lat="48.682980" lon="-1.504301">
        <ele>3.110</ele>
        <time>2026-08-21T20:17:23Z</time>
      </trkpt>
      <trkpt lat="48.682989" lon="-1.504291">
        <ele>3.131</ele>
        <time>2026-08-21T20:17:24Z</time>
      </trkpt>
      <trkpt lat="48.683002" lon="-1.504281">
        <ele>3.224</ele>
        <time>2026-08-21T20:17:26Z</time>
      </trkpt>
      <trkpt lat="48.683014" lon="-1.504271">
        <ele>3.211</ele>
        <time>2026-08-21T20:17:28Z</time>
      </trkpt>
      <trkpt lat="48.683024" lon="-1.504258">
        <ele>3.292</ele>
        <time>2026-08-21T20:17:30Z</time>
      </trkpt>
      <trkpt lat="48.683040" lon="-1.504253">
        <ele>3.356</ele>
        <time>2026-08-21T20:17:32Z</time>
      </trkpt>
      <trkpt lat="48.683047" lon="-1.504240">
        <ele>3.313</ele>
        <time>2026-08-21T20:17:34Z</time>
      </trkpt>
      <trkpt lat="48.683059" lon="-1.504225">
        <ele>3.353</ele>
        <time>2026-08-21T20:17:36Z</time>
      </trkpt>
      <trkpt lat="48.683075" lon="-1.504217">
        <ele>3.304</ele>
        <time>2026-08-21T20:17:38Z</time>
      </trkpt>
      <trkpt lat="48.683088" lon="-1.504203">
        <ele>3.314</ele>
        <time>2026-08-21T20:17:40Z</time>
      </trkpt>
      <trkpt lat="48.683100" lon="-1.504191">
        <ele>3.309</ele>
        <time>2026-08-21T20:17:42Z</time>
      </trkpt>
      <trkpt lat="48.683112" lon="-1.504171">
        <ele>3.357</ele>
        <time>2026-08-21T20:17:44Z</time>
      </trkpt>
      <trkpt lat="48.683118" lon="-1.504160">
        <ele>3.323</ele>
        <time>2026-08-21T20:17:45Z</time>
      </trkpt>
      <trkpt lat="48.683125" lon="-1.504150">
        <ele>3.356</ele>
        <time>2026-08-21T20:17:46Z</time>
      </trkpt>
      <trkpt lat="48.683133" lon="-1.504141">
        <ele>3.357</ele>
        <time>2026-08-21T20:17:47Z</time>
      </trkpt>
      <trkpt lat="48.683140" lon="-1.504130">
        <ele>3.370</ele>
        <time>2026-08-21T20:17:48Z</time>
      </trkpt>
      <trkpt lat="48.683147" lon="-1.504120">
        <ele>3.267</ele>
        <time>2026-08-21T20:17:49Z</time>
      </trkpt>
      <trkpt lat="48.683158" lon="-1.504114">
        <ele>3.148</ele>
        <time>2026-08-21T20:17:50Z</time>
      </trkpt>
      <trkpt lat="48.683170" lon="-1.504106">
        <ele>3.162</ele>
        <time>2026-08-21T20:17:51Z</time>
      </trkpt>
      <trkpt lat="48.683180" lon="-1.504096">
        <ele>3.179</ele>
        <time>2026-08-21T20:17:52Z</time>
      </trkpt>
      <trkpt lat="48.683187" lon="-1.504084">
        <ele>3.135</ele>
        <time>2026-08-21T20:17:53Z</time>
      </trkpt>
      <trkpt lat="48.683202" lon="-1.504070">
        <ele>3.186</ele>
        <time>2026-08-21T20:17:55Z</time>
      </trkpt>
      <trkpt lat="48.683210" lon="-1.504060">
        <ele>3.114</ele>
        <time>2026-08-21T20:17:56Z</time>
      </trkpt>
      <trkpt lat="48.683221" lon="-1.504052">
        <ele>3.009</ele>
        <time>2026-08-21T20:17:57Z</time>
      </trkpt>
      <trkpt lat="48.683233" lon="-1.504044">
        <ele>3.095</ele>
        <time>2026-08-21T20:17:58Z</time>
      </trkpt>
      <trkpt lat="48.683245" lon="-1.504034">
        <ele>3.091</ele>
        <time>2026-08-21T20:17:59Z</time>
      </trkpt>
      <trkpt lat="48.683256" lon="-1.504027">
        <ele>3.174</ele>
        <time>2026-08-21T20:18:00Z</time>
      </trkpt>
      <trkpt lat="48.683266" lon="-1.504020">
        <ele>3.165</ele>
        <time>2026-08-21T20:18:01Z</time>
      </trkpt>
      <trkpt lat="48.683274" lon="-1.504013">
        <ele>3.198</ele>
        <time>2026-08-21T20:18:02Z</time>
      </trkpt>
      <trkpt lat="48.683282" lon="-1.504002">
        <ele>3.165</ele>
        <time>2026-08-21T20:18:03Z</time>
      </trkpt>
      <trkpt lat="48.683298" lon="-1.503985">
        <ele>3.146</ele>
        <time>2026-08-21T20:18:05Z</time>
      </trkpt>
      <trkpt lat="48.683306" lon="-1.503975">
        <ele>3.160</ele>
        <time>2026-08-21T20:18:06Z</time>
      </trkpt>
      <trkpt lat="48.683315" lon="-1.503965">
        <ele>3.067</ele>
        <time>2026-08-21T20:18:07Z</time>
      </trkpt>
      <trkpt lat="48.683325" lon="-1.503955">
        <ele>3.018</ele>
        <time>2026-08-21T20:18:08Z</time>
      </trkpt>
      <trkpt lat="48.683335" lon="-1.503946">
        <ele>3.098</ele>
        <time>2026-08-21T20:18:09Z</time>
      </trkpt>
      <trkpt lat="48.683345" lon="-1.503939">
        <ele>3.017</ele>
        <time>2026-08-21T20:18:10Z</time>
      </trkpt>
      <trkpt lat="48.683353" lon="-1.503932">
        <ele>3.009</ele>
        <time>2026-08-21T20:18:11Z</time>
      </trkpt>
      <trkpt lat="48.683367" lon="-1.503925">
        <ele>3.023</ele>
        <time>2026-08-21T20:18:12Z</time>
      </trkpt>
      <trkpt lat="48.683379" lon="-1.503919">
        <ele>2.929</ele>
        <time>2026-08-21T20:18:13Z</time>
      </trkpt>
      <trkpt lat="48.683389" lon="-1.503908">
        <ele>2.942</ele>
        <time>2026-08-21T20:18:14Z</time>
      </trkpt>
      <trkpt lat="48.683398" lon="-1.503896">
        <ele>2.933</ele>
        <time>2026-08-21T20:18:15Z</time>
      </trkpt>
      <trkpt lat="48.683408" lon="-1.503886">
        <ele>2.926</ele>
        <time>2026-08-21T20:18:16Z</time>
      </trkpt>
      <trkpt lat="48.683417" lon="-1.503877">
        <ele>2.913</ele>
        <time>2026-08-21T20:18:17Z</time>
      </trkpt>
      <trkpt lat="48.683425" lon="-1.503867">
        <ele>3.084</ele>
        <time>2026-08-21T20:18:18Z</time>
      </trkpt>
      <trkpt lat="48.683433" lon="-1.503858">
        <ele>3.018</ele>
        <time>2026-08-21T20:18:19Z</time>
      </trkpt>
      <trkpt lat="48.683441" lon="-1.503849">
        <ele>3.055</ele>
        <time>2026-08-21T20:18:20Z</time>
      </trkpt>
      <trkpt lat="48.683452" lon="-1.503841">
        <ele>3.081</ele>
        <time>2026-08-21T20:18:21Z</time>
      </trkpt>
      <trkpt lat="48.683461" lon="-1.503830">
        <ele>3.061</ele>
        <time>2026-08-21T20:18:22Z</time>
      </trkpt>
      <trkpt lat="48.683469" lon="-1.503820">
        <ele>3.017</ele>
        <time>2026-08-21T20:18:23Z</time>
      </trkpt>
      <trkpt lat="48.683477" lon="-1.503809">
        <ele>3.009</ele>
        <time>2026-08-21T20:18:24Z</time>
      </trkpt>
      <trkpt lat="48.683486" lon="-1.503800">
        <ele>3.040</ele>
        <time>2026-08-21T20:18:25Z</time>
      </trkpt>
      <trkpt lat="48.683499" lon="-1.503792">
        <ele>3.196</ele>
        <time>2026-08-21T20:18:26Z</time>
      </trkpt>
      <trkpt lat="48.683509" lon="-1.503786">
        <ele>3.179</ele>
        <time>2026-08-21T20:18:27Z</time>
      </trkpt>
      <trkpt lat="48.683520" lon="-1.503779">
        <ele>3.240</ele>
        <time>2026-08-21T20:18:28Z</time>
      </trkpt>
      <trkpt lat="48.683529" lon="-1.503770">
        <ele>3.313</ele>
        <time>2026-08-21T20:18:29Z</time>
      </trkpt>
      <trkpt lat="48.683537" lon="-1.503759">
        <ele>3.350</ele>
        <time>2026-08-21T20:18:30Z</time>
      </trkpt>
      <trkpt lat="48.683545" lon="-1.503747">
        <ele>3.321</ele>
        <time>2026-08-21T20:18:31Z</time>
      </trkpt>
      <trkpt lat="48.683554" lon="-1.503739">
        <ele>3.345</ele>
        <time>2026-08-21T20:18:32Z</time>
      </trkpt>
      <trkpt lat="48.683563" lon="-1.503734">
        <ele>3.372</ele>
        <time>2026-08-21T20:18:33Z</time>
      </trkpt>
      <trkpt lat="48.683572" lon="-1.503722">
        <ele>3.377</ele>
        <time>2026-08-21T20:18:35Z</time>
      </trkpt>
      <trkpt lat="48.683588" lon="-1.503701">
        <ele>3.361</ele>
        <time>2026-08-21T20:18:37Z</time>
      </trkpt>
      <trkpt lat="48.683600" lon="-1.503689">
        <ele>3.327</ele>
        <time>2026-08-21T20:18:38Z</time>
      </trkpt>
      <trkpt lat="48.683608" lon="-1.503677">
        <ele>3.309</ele>
        <time>2026-08-21T20:18:39Z</time>
      </trkpt>
      <trkpt lat="48.683618" lon="-1.503669">
        <ele>3.399</ele>
        <time>2026-08-21T20:18:40Z</time>
      </trkpt>
      <trkpt lat="48.683633" lon="-1.503656">
        <ele>3.325</ele>
        <time>2026-08-21T20:18:42Z</time>
      </trkpt>
      <trkpt lat="48.683641" lon="-1.503645">
        <ele>3.378</ele>
        <time>2026-08-21T20:18:43Z</time>
      </trkpt>
      <trkpt lat="48.683652" lon="-1.503634">
        <ele>3.399</ele>
        <time>2026-08-21T20:18:44Z</time>
      </trkpt>
      <trkpt lat="48.683663" lon="-1.503622">
        <ele>3.432</ele>
        <time>2026-08-21T20:18:45Z</time>
      </trkpt>
      <trkpt lat="48.683672" lon="-1.503610">
        <ele>3.499</ele>
        <time>2026-08-21T20:18:46Z</time>
      </trkpt>
      <trkpt lat="48.683689" lon="-1.503596">
        <ele>3.420</ele>
        <time>2026-08-21T20:18:48Z</time>
      </trkpt>
      <trkpt lat="48.683700" lon="-1.503590">
        <ele>3.434</ele>
        <time>2026-08-21T20:18:49Z</time>
      </trkpt>
      <trkpt lat="48.683711" lon="-1.503585">
        <ele>3.421</ele>
        <time>2026-08-21T20:18:50Z</time>
      </trkpt>
      <trkpt lat="48.683718" lon="-1.503574">
        <ele>3.483</ele>
        <time>2026-08-21T20:18:51Z</time>
      </trkpt>
      <trkpt lat="48.683727" lon="-1.503565">
        <ele>3.525</ele>
        <time>2026-08-21T20:18:52Z</time>
      </trkpt>
      <trkpt lat="48.683737" lon="-1.503557">
        <ele>3.617</ele>
        <time>2026-08-21T20:18:53Z</time>
      </trkpt>
      <trkpt lat="48.683743" lon="-1.503547">
        <ele>3.709</ele>
        <time>2026-08-21T20:18:54Z</time>
      </trkpt>
      <trkpt lat="48.683751" lon="-1.503539">
        <ele>3.760</ele>
        <time>2026-08-21T20:18:55Z</time>
      </trkpt>
      <trkpt lat="48.683757" lon="-1.503528">
        <ele>3.716</ele>
        <time>2026-08-21T20:18:56Z</time>
      </trkpt>
      <trkpt lat="48.683764" lon="-1.503519">
        <ele>3.819</ele>
        <time>2026-08-21T20:18:57Z</time>
      </trkpt>
      <trkpt lat="48.683774" lon="-1.503506">
        <ele>4.010</ele>
        <time>2026-08-21T20:18:58Z</time>
      </trkpt>
      <trkpt lat="48.683787" lon="-1.503498">
        <ele>4.183</ele>
        <time>2026-08-21T20:18:59Z</time>
      </trkpt>
      <trkpt lat="48.683793" lon="-1.503484">
        <ele>4.290</ele>
        <time>2026-08-21T20:19:00Z</time>
      </trkpt>
      <trkpt lat="48.683800" lon="-1.503474">
        <ele>4.291</ele>
        <time>2026-08-21T20:19:01Z</time>
      </trkpt>
      <trkpt lat="48.683809" lon="-1.503464">
        <ele>4.475</ele>
        <time>2026-08-21T20:19:02Z</time>
      </trkpt>
      <trkpt lat="48.683819" lon="-1.503456">
        <ele>4.662</ele>
        <time>2026-08-21T20:19:03Z</time>
      </trkpt>
      <trkpt lat="48.683830" lon="-1.503447">
        <ele>4.734</ele>
        <time>2026-08-21T20:19:04Z</time>
      </trkpt>
      <trkpt lat="48.683840" lon="-1.503438">
        <ele>4.755</ele>
        <time>2026-08-21T20:19:05Z</time>
      </trkpt>
      <trkpt lat="48.683850" lon="-1.503425">
        <ele>4.810</ele>
        <time>2026-08-21T20:19:06Z</time>
      </trkpt>
      <trkpt lat="48.683857" lon="-1.503414">
        <ele>4.809</ele>
        <time>2026-08-21T20:19:07Z</time>
      </trkpt>
      <trkpt lat="48.683864" lon="-1.503404">
        <ele>4.875</ele>
        <time>2026-08-21T20:19:08Z</time>
      </trkpt>
      <trkpt lat="48.683884" lon="-1.503391">
        <ele>4.811</ele>
        <time>2026-08-21T20:19:10Z</time>
      </trkpt>
      <trkpt lat="48.683896" lon="-1.503386">
        <ele>4.874</ele>
        <time>2026-08-21T20:19:11Z</time>
      </trkpt>
      <trkpt lat="48.683908" lon="-1.503380">
        <ele>4.835</ele>
        <time>2026-08-21T20:19:12Z</time>
      </trkpt>
      <trkpt lat="48.683919" lon="-1.503371">
        <ele>4.818</ele>
        <time>2026-08-21T20:19:13Z</time>
      </trkpt>
      <trkpt lat="48.683928" lon="-1.503362">
        <ele>4.895</ele>
        <time>2026-08-21T20:19:14Z</time>
      </trkpt>
      <trkpt lat="48.683937" lon="-1.503350">
        <ele>4.886</ele>
        <time>2026-08-21T20:19:15Z</time>
      </trkpt>
      <trkpt lat="48.683947" lon="-1.503335">
        <ele>4.850</ele>
        <time>2026-08-21T20:19:16Z</time>
      </trkpt>
      <trkpt lat="48.683954" lon="-1.503324">
        <ele>4.827</ele>
        <time>2026-08-21T20:19:17Z</time>
      </trkpt>
      <trkpt lat="48.683961" lon="-1.503314">
        <ele>4.827</ele>
        <time>2026-08-21T20:19:18Z</time>
      </trkpt>
      <trkpt lat="48.683968" lon="-1.503305">
        <ele>4.868</ele>
        <time>2026-08-21T20:19:19Z</time>
      </trkpt>
      <trkpt lat="48.683976" lon="-1.503296">
        <ele>4.814</ele>
        <time>2026-08-21T20:19:20Z</time>
      </trkpt>
      <trkpt lat="48.683986" lon="-1.503282">
        <ele>4.809</ele>
        <time>2026-08-21T20:19:21Z</time>
      </trkpt>
      <trkpt lat="48.683995" lon="-1.503269">
        <ele>4.734</ele>
        <time>2026-08-21T20:19:22Z</time>
      </trkpt>
      <trkpt lat="48.684006" lon="-1.503259">
        <ele>4.790</ele>
        <time>2026-08-21T20:19:23Z</time>
      </trkpt>
      <trkpt lat="48.684016" lon="-1.503248">
        <ele>4.793</ele>
        <time>2026-08-21T20:19:24Z</time>
      </trkpt>
      <trkpt lat="48.684025" lon="-1.503234">
        <ele>4.764</ele>
        <time>2026-08-21T20:19:25Z</time>
      </trkpt>
      <trkpt lat="48.684034" lon="-1.503223">
        <ele>4.677</ele>
        <time>2026-08-21T20:19:26Z</time>
      </trkpt>
      <trkpt lat="48.684044" lon="-1.503216">
        <ele>4.674</ele>
        <time>2026-08-21T20:19:27Z</time>
      </trkpt>
      <trkpt lat="48.684054" lon="-1.503207">
        <ele>4.695</ele>
        <time>2026-08-21T20:19:28Z</time>
      </trkpt>
      <trkpt lat="48.684063" lon="-1.503202">
        <ele>4.699</ele>
        <time>2026-08-21T20:19:29Z</time>
      </trkpt>
      <trkpt lat="48.684080" lon="-1.503184">
        <ele>4.636</ele>
        <time>2026-08-21T20:19:31Z</time>
      </trkpt>
      <trkpt lat="48.684092" lon="-1.503171">
        <ele>4.613</ele>
        <time>2026-08-21T20:19:32Z</time>
      </trkpt>
      <trkpt lat="48.684100" lon="-1.503155">
        <ele>4.643</ele>
        <time>2026-08-21T20:19:33Z</time>
      </trkpt>
      <trkpt lat="48.684110" lon="-1.503142">
        <ele>4.507</ele>
        <time>2026-08-21T20:19:34Z</time>
      </trkpt>
      <trkpt lat="48.684122" lon="-1.503129">
        <ele>4.509</ele>
        <time>2026-08-21T20:19:35Z</time>
      </trkpt>
      <trkpt lat="48.684133" lon="-1.503119">
        <ele>4.553</ele>
        <time>2026-08-21T20:19:36Z</time>
      </trkpt>
      <trkpt lat="48.684140" lon="-1.503109">
        <ele>4.569</ele>
        <time>2026-08-21T20:19:37Z</time>
      </trkpt>
      <trkpt lat="48.684148" lon="-1.503100">
        <ele>4.572</ele>
        <time>2026-08-21T20:19:38Z</time>
      </trkpt>
      <trkpt lat="48.684157" lon="-1.503090">
        <ele>4.553</ele>
        <time>2026-08-21T20:19:39Z</time>
      </trkpt>
      <trkpt lat="48.684167" lon="-1.503078">
        <ele>4.586</ele>
        <time>2026-08-21T20:19:40Z</time>
      </trkpt>
      <trkpt lat="48.684175" lon="-1.503067">
        <ele>4.593</ele>
        <time>2026-08-21T20:19:41Z</time>
      </trkpt>
      <trkpt lat="48.684184" lon="-1.503055">
        <ele>4.484</ele>
        <time>2026-08-21T20:19:42Z</time>
      </trkpt>
      <trkpt lat="48.684194" lon="-1.503036">
        <ele>4.418</ele>
        <time>2026-08-21T20:19:44Z</time>
      </trkpt>
      <trkpt lat="48.684211" lon="-1.503017">
        <ele>4.425</ele>
        <time>2026-08-21T20:19:46Z</time>
      </trkpt>
      <trkpt lat="48.684222" lon="-1.503005">
        <ele>4.467</ele>
        <time>2026-08-21T20:19:47Z</time>
      </trkpt>
      <trkpt lat="48.684232" lon="-1.502993">
        <ele>4.481</ele>
        <time>2026-08-21T20:19:48Z</time>
      </trkpt>
      <trkpt lat="48.684237" lon="-1.502981">
        <ele>4.419</ele>
        <time>2026-08-21T20:19:49Z</time>
      </trkpt>
      <trkpt lat="48.684244" lon="-1.502972">
        <ele>4.509</ele>
        <time>2026-08-21T20:19:50Z</time>
      </trkpt>
      <trkpt lat="48.684253" lon="-1.502963">
        <ele>4.548</ele>
        <time>2026-08-21T20:19:51Z</time>
      </trkpt>
      <trkpt lat="48.684261" lon="-1.502952">
        <ele>4.574</ele>
        <time>2026-08-21T20:19:52Z</time>
      </trkpt>
      <trkpt lat="48.684269" lon="-1.502939">
        <ele>4.587</ele>
        <time>2026-08-21T20:19:53Z</time>
      </trkpt>
      <trkpt lat="48.684277" lon="-1.502931">
        <ele>4.578</ele>
        <time>2026-08-21T20:19:54Z</time>
      </trkpt>
      <trkpt lat="48.684285" lon="-1.502923">
        <ele>4.591</ele>
        <time>2026-08-21T20:19:55Z</time>
      </trkpt>
      <trkpt lat="48.684295" lon="-1.502906">
        <ele>4.488</ele>
        <time>2026-08-21T20:19:57Z</time>
      </trkpt>
      <trkpt lat="48.684300" lon="-1.502894">
        <ele>4.469</ele>
        <time>2026-08-21T20:19:58Z</time>
      </trkpt>
      <trkpt lat="48.684307" lon="-1.502884">
        <ele>4.483</ele>
        <time>2026-08-21T20:19:59Z</time>
      </trkpt>
      <trkpt lat="48.684316" lon="-1.502873">
        <ele>4.460</ele>
        <time>2026-08-21T20:20:00Z</time>
      </trkpt>
      <trkpt lat="48.684325" lon="-1.502861">
        <ele>4.419</ele>
        <time>2026-08-21T20:20:01Z</time>
      </trkpt>
      <trkpt lat="48.684333" lon="-1.502847">
        <ele>4.309</ele>
        <time>2026-08-21T20:20:02Z</time>
      </trkpt>
      <trkpt lat="48.684340" lon="-1.502836">
        <ele>4.319</ele>
        <time>2026-08-21T20:20:03Z</time>
      </trkpt>
      <trkpt lat="48.684352" lon="-1.502830">
        <ele>4.309</ele>
        <time>2026-08-21T20:20:04Z</time>
      </trkpt>
      <trkpt lat="48.684367" lon="-1.502810">
        <ele>4.263</ele>
        <time>2026-08-21T20:20:06Z</time>
      </trkpt>
      <trkpt lat="48.684375" lon="-1.502800">
        <ele>4.279</ele>
        <time>2026-08-21T20:20:07Z</time>
      </trkpt>
      <trkpt lat="48.684383" lon="-1.502786">
        <ele>4.222</ele>
        <time>2026-08-21T20:20:08Z</time>
      </trkpt>
      <trkpt lat="48.684388" lon="-1.502772">
        <ele>4.283</ele>
        <time>2026-08-21T20:20:09Z</time>
      </trkpt>
      <trkpt lat="48.684392" lon="-1.502758">
        <ele>4.276</ele>
        <time>2026-08-21T20:20:10Z</time>
      </trkpt>
      <trkpt lat="48.684398" lon="-1.502746">
        <ele>4.253</ele>
        <time>2026-08-21T20:20:11Z</time>
      </trkpt>
      <trkpt lat="48.684410" lon="-1.502728">
        <ele>4.294</ele>
        <time>2026-08-21T20:20:13Z</time>
      </trkpt>
      <trkpt lat="48.684415" lon="-1.502715">
        <ele>4.178</ele>
        <time>2026-08-21T20:20:14Z</time>
      </trkpt>
      <trkpt lat="48.684425" lon="-1.502691">
        <ele>4.185</ele>
        <time>2026-08-21T20:20:16Z</time>
      </trkpt>
      <trkpt lat="48.684435" lon="-1.502673">
        <ele>4.198</ele>
        <time>2026-08-21T20:20:18Z</time>
      </trkpt>
      <trkpt lat="48.684443" lon="-1.502659">
        <ele>4.115</ele>
        <time>2026-08-21T20:20:20Z</time>
      </trkpt>
      <trkpt lat="48.684453" lon="-1.502643">
        <ele>4.126</ele>
        <time>2026-08-21T20:20:22Z</time>
      </trkpt>
      <trkpt lat="48.684456" lon="-1.502629">
        <ele>4.109</ele>
        <time>2026-08-21T20:20:23Z</time>
      </trkpt>
      <trkpt lat="48.684469" lon="-1.502609">
        <ele>4.171</ele>
        <time>2026-08-21T20:20:25Z</time>
      </trkpt>
      <trkpt lat="48.684478" lon="-1.502601">
        <ele>4.057</ele>
        <time>2026-08-21T20:20:26Z</time>
      </trkpt>
      <trkpt lat="48.684486" lon="-1.502593">
        <ele>4.030</ele>
        <time>2026-08-21T20:20:27Z</time>
      </trkpt>
      <trkpt lat="48.684489" lon="-1.502580">
        <ele>4.071</ele>
        <time>2026-08-21T20:20:28Z</time>
      </trkpt>
      <trkpt lat="48.684495" lon="-1.502556">
        <ele>3.964</ele>
        <time>2026-08-21T20:20:30Z</time>
      </trkpt>
      <trkpt lat="48.684500" lon="-1.502544">
        <ele>3.951</ele>
        <time>2026-08-21T20:20:31Z</time>
      </trkpt>
      <trkpt lat="48.684507" lon="-1.502532">
        <ele>3.992</ele>
        <time>2026-08-21T20:20:32Z</time>
      </trkpt>
      <trkpt lat="48.684510" lon="-1.502516">
        <ele>3.956</ele>
        <time>2026-08-21T20:20:33Z</time>
      </trkpt>
      <trkpt lat="48.684513" lon="-1.502492">
        <ele>3.913</ele>
        <time>2026-08-21T20:20:35Z</time>
      </trkpt>
      <trkpt lat="48.684518" lon="-1.502470">
        <ele>3.939</ele>
        <time>2026-08-21T20:20:37Z</time>
      </trkpt>
      <trkpt lat="48.684524" lon="-1.502450">
        <ele>3.901</ele>
        <time>2026-08-21T20:20:39Z</time>
      </trkpt>
      <trkpt lat="48.684528" lon="-1.502437">
        <ele>3.821</ele>
        <time>2026-08-21T20:20:40Z</time>
      </trkpt>
      <trkpt lat="48.684539" lon="-1.502415">
        <ele>3.809</ele>
        <time>2026-08-21T20:20:42Z</time>
      </trkpt>
      <trkpt lat="48.684547" lon="-1.502402">
        <ele>3.845</ele>
        <time>2026-08-21T20:20:43Z</time>
      </trkpt>
      <trkpt lat="48.684555" lon="-1.502380">
        <ele>3.731</ele>
        <time>2026-08-21T20:20:45Z</time>
      </trkpt>
      <trkpt lat="48.684561" lon="-1.502367">
        <ele>3.784</ele>
        <time>2026-08-21T20:20:46Z</time>
      </trkpt>
      <trkpt lat="48.684568" lon="-1.502355">
        <ele>3.755</ele>
        <time>2026-08-21T20:20:47Z</time>
      </trkpt>
      <trkpt lat="48.684573" lon="-1.502341">
        <ele>3.768</ele>
        <time>2026-08-21T20:20:48Z</time>
      </trkpt>
      <trkpt lat="48.684580" lon="-1.502316">
        <ele>3.625</ele>
        <time>2026-08-21T20:20:50Z</time>
      </trkpt>
      <trkpt lat="48.684594" lon="-1.502298">
        <ele>3.646</ele>
        <time>2026-08-21T20:20:52Z</time>
      </trkpt>
      <trkpt lat="48.684603" lon="-1.502293">
        <ele>3.630</ele>
        <time>2026-08-21T20:20:53Z</time>
      </trkpt>
      <trkpt lat="48.684608" lon="-1.502274">
        <ele>3.527</ele>
        <time>2026-08-21T20:20:55Z</time>
      </trkpt>
      <trkpt lat="48.684611" lon="-1.502249">
        <ele>3.582</ele>
        <time>2026-08-21T20:20:57Z</time>
      </trkpt>
      <trkpt lat="48.684619" lon="-1.502229">
        <ele>3.543</ele>
        <time>2026-08-21T20:20:59Z</time>
      </trkpt>
      <trkpt lat="48.684629" lon="-1.502208">
        <ele>3.517</ele>
        <time>2026-08-21T20:21:01Z</time>
      </trkpt>
      <trkpt lat="48.684636" lon="-1.502195">
        <ele>3.509</ele>
        <time>2026-08-21T20:21:02Z</time>
      </trkpt>
      <trkpt lat="48.684640" lon="-1.502180">
        <ele>3.550</ele>
        <time>2026-08-21T20:21:04Z</time>
      </trkpt>
      <trkpt lat="48.684650" lon="-1.502162">
        <ele>3.556</ele>
        <time>2026-08-21T20:21:06Z</time>
      </trkpt>
      <trkpt lat="48.684656" lon="-1.502143">
        <ele>3.539</ele>
        <time>2026-08-21T20:21:08Z</time>
      </trkpt>
      <trkpt lat="48.684663" lon="-1.502122">
        <ele>3.530</ele>
        <time>2026-08-21T20:21:10Z</time>
      </trkpt>
      <trkpt lat="48.684666" lon="-1.502098">
        <ele>3.573</ele>
        <time>2026-08-21T20:21:12Z</time>
      </trkpt>
      <trkpt lat="48.684673" lon="-1.502076">
        <ele>3.560</ele>
        <time>2026-08-21T20:21:14Z</time>
      </trkpt>
      <trkpt lat="48.684675" lon="-1.502062">
        <ele>3.591</ele>
        <time>2026-08-21T20:21:15Z</time>
      </trkpt>
      <trkpt lat="48.684680" lon="-1.502039">
        <ele>3.585</ele>
        <time>2026-08-21T20:21:17Z</time>
      </trkpt>
      <trkpt lat="48.684685" lon="-1.502015">
        <ele>3.462</ele>
        <time>2026-08-21T20:21:19Z</time>
      </trkpt>
      <trkpt lat="48.684689" lon="-1.501993">
        <ele>3.421</ele>
        <time>2026-08-21T20:21:21Z</time>
      </trkpt>
      <trkpt lat="48.684693" lon="-1.501974">
        <ele>3.441</ele>
        <time>2026-08-21T20:21:23Z</time>
      </trkpt>
      <trkpt lat="48.684701" lon="-1.501959">
        <ele>3.405</ele>
        <time>2026-08-21T20:21:25Z</time>
      </trkpt>
      <trkpt lat="48.684703" lon="-1.501945">
        <ele>3.409</ele>
        <time>2026-08-21T20:21:29Z</time>
      </trkpt>
      <trkpt lat="48.684699" lon="-1.501930">
        <ele>3.564</ele>
        <time>2026-08-21T20:21:52Z</time>
      </trkpt>
      <trkpt lat="48.684698" lon="-1.501915">
        <ele>5.160</ele>
        <time>2026-08-21T20:22:46Z</time>
      </trkpt>
      <trkpt lat="48.684691" lon="-1.501907">
        <ele>5.713</ele>
        <time>2026-08-21T20:24:00Z</time>
      </trkpt>
      <trkpt lat="48.684681" lon="-1.501890">
        <ele>5.784</ele>
        <time>2026-08-21T20:24:02Z</time>
      </trkpt>
      <trkpt lat="48.684680" lon="-1.501867">
        <ele>5.857</ele>
        <time>2026-08-21T20:24:04Z</time>
      </trkpt>
      <trkpt lat="48.684677" lon="-1.501852">
        <ele>5.754</ele>
        <time>2026-08-21T20:24:05Z</time>
      </trkpt>
      <trkpt lat="48.684671" lon="-1.501840">
        <ele>5.735</ele>
        <time>2026-08-21T20:24:06Z</time>
      </trkpt>
      <trkpt lat="48.684664" lon="-1.501830">
        <ele>5.789</ele>
        <time>2026-08-21T20:24:07Z</time>
      </trkpt>
      <trkpt lat="48.684654" lon="-1.501814">
        <ele>5.716</ele>
        <time>2026-08-21T20:24:09Z</time>
      </trkpt>
      <trkpt lat="48.684647" lon="-1.501804">
        <ele>5.778</ele>
        <time>2026-08-21T20:24:10Z</time>
      </trkpt>
      <trkpt lat="48.684641" lon="-1.501793">
        <ele>5.733</ele>
        <time>2026-08-21T20:24:11Z</time>
      </trkpt>
      <trkpt lat="48.684636" lon="-1.501779">
        <ele>5.726</ele>
        <time>2026-08-21T20:24:13Z</time>
      </trkpt>
      <trkpt lat="48.684630" lon="-1.501766">
        <ele>5.809</ele>
        <time>2026-08-21T20:24:15Z</time>
      </trkpt>
      <trkpt lat="48.684625" lon="-1.501745">
        <ele>5.859</ele>
        <time>2026-08-21T20:24:17Z</time>
      </trkpt>
      <trkpt lat="48.684625" lon="-1.501730">
        <ele>5.815</ele>
        <time>2026-08-21T20:24:18Z</time>
      </trkpt>
      <trkpt lat="48.684619" lon="-1.501717">
        <ele>5.868</ele>
        <time>2026-08-21T20:24:20Z</time>
      </trkpt>
      <trkpt lat="48.684620" lon="-1.501695">
        <ele>5.839</ele>
        <time>2026-08-21T20:24:22Z</time>
      </trkpt>
      <trkpt lat="48.684620" lon="-1.501681">
        <ele>5.872</ele>
        <time>2026-08-21T20:24:24Z</time>
      </trkpt>
      <trkpt lat="48.684629" lon="-1.501659">
        <ele>5.929</ele>
        <time>2026-08-21T20:24:27Z</time>
      </trkpt>
      <trkpt lat="48.684633" lon="-1.501644">
        <ele>6.140</ele>
        <time>2026-08-21T20:24:28Z</time>
      </trkpt>
      <trkpt lat="48.684639" lon="-1.501632">
        <ele>6.294</ele>
        <time>2026-08-21T20:24:29Z</time>
      </trkpt>
      <trkpt lat="48.684645" lon="-1.501618">
        <ele>6.341</ele>
        <time>2026-08-21T20:24:30Z</time>
      </trkpt>
      <trkpt lat="48.684657" lon="-1.501604">
        <ele>6.345</ele>
        <time>2026-08-21T20:24:32Z</time>
      </trkpt>
      <trkpt lat="48.684671" lon="-1.501599">
        <ele>6.347</ele>
        <time>2026-08-21T20:24:34Z</time>
      </trkpt>
      <trkpt lat="48.684681" lon="-1.501590">
        <ele>6.311</ele>
        <time>2026-08-21T20:24:36Z</time>
      </trkpt>
      <trkpt lat="48.684693" lon="-1.501582">
        <ele>6.309</ele>
        <time>2026-08-21T20:24:38Z</time>
      </trkpt>
      <trkpt lat="48.684708" lon="-1.501569">
        <ele>6.486</ele>
        <time>2026-08-21T20:24:40Z</time>
      </trkpt>
      <trkpt lat="48.684719" lon="-1.501562">
        <ele>6.452</ele>
        <time>2026-08-21T20:24:41Z</time>
      </trkpt>
      <trkpt lat="48.684731" lon="-1.501555">
        <ele>6.535</ele>
        <time>2026-08-21T20:24:42Z</time>
      </trkpt>
      <trkpt lat="48.684743" lon="-1.501552">
        <ele>6.566</ele>
        <time>2026-08-21T20:24:43Z</time>
      </trkpt>
      <trkpt lat="48.684754" lon="-1.501549">
        <ele>6.559</ele>
        <time>2026-08-21T20:24:44Z</time>
      </trkpt>
      <trkpt lat="48.684768" lon="-1.501547">
        <ele>6.616</ele>
        <time>2026-08-21T20:24:46Z</time>
      </trkpt>
      <trkpt lat="48.684778" lon="-1.501542">
        <ele>6.767</ele>
        <time>2026-08-21T20:24:47Z</time>
      </trkpt>
      <trkpt lat="48.684795" lon="-1.501535">
        <ele>6.761</ele>
        <time>2026-08-21T20:24:49Z</time>
      </trkpt>
      <trkpt lat="48.684805" lon="-1.501534">
        <ele>6.738</ele>
        <time>2026-08-21T20:24:50Z</time>
      </trkpt>
      <trkpt lat="48.684825" lon="-1.501527">
        <ele>6.759</ele>
        <time>2026-08-21T20:24:52Z</time>
      </trkpt>
      <trkpt lat="48.684834" lon="-1.501524">
        <ele>6.803</ele>
        <time>2026-08-21T20:24:53Z</time>
      </trkpt>
      <trkpt lat="48.684850" lon="-1.501513">
        <ele>6.823</ele>
        <time>2026-08-21T20:24:55Z</time>
      </trkpt>
      <trkpt lat="48.684860" lon="-1.501511">
        <ele>6.909</ele>
        <time>2026-08-21T20:24:56Z</time>
      </trkpt>
      <trkpt lat="48.684873" lon="-1.501511">
        <ele>6.977</ele>
        <time>2026-08-21T20:24:57Z</time>
      </trkpt>
      <trkpt lat="48.684892" lon="-1.501505">
        <ele>7.093</ele>
        <time>2026-08-21T20:24:59Z</time>
      </trkpt>
      <trkpt lat="48.684904" lon="-1.501501">
        <ele>7.036</ele>
        <time>2026-08-21T20:25:00Z</time>
      </trkpt>
      <trkpt lat="48.684918" lon="-1.501499">
        <ele>7.047</ele>
        <time>2026-08-21T20:25:01Z</time>
      </trkpt>
      <trkpt lat="48.684929" lon="-1.501495">
        <ele>7.060</ele>
        <time>2026-08-21T20:25:02Z</time>
      </trkpt>
      <trkpt lat="48.684948" lon="-1.501487">
        <ele>7.087</ele>
        <time>2026-08-21T20:25:04Z</time>
      </trkpt>
      <trkpt lat="48.684960" lon="-1.501485">
        <ele>7.078</ele>
        <time>2026-08-21T20:25:05Z</time>
      </trkpt>
      <trkpt lat="48.684972" lon="-1.501482">
        <ele>7.172</ele>
        <time>2026-08-21T20:25:06Z</time>
      </trkpt>
      <trkpt lat="48.684981" lon="-1.501480">
        <ele>7.169</ele>
        <time>2026-08-21T20:25:07Z</time>
      </trkpt>
      <trkpt lat="48.684992" lon="-1.501481">
        <ele>7.295</ele>
        <time>2026-08-21T20:25:08Z</time>
      </trkpt>
      <trkpt lat="48.685003" lon="-1.501482">
        <ele>7.249</ele>
        <time>2026-08-21T20:25:09Z</time>
      </trkpt>
      <trkpt lat="48.685015" lon="-1.501479">
        <ele>7.323</ele>
        <time>2026-08-21T20:25:10Z</time>
      </trkpt>
      <trkpt lat="48.685027" lon="-1.501472">
        <ele>7.409</ele>
        <time>2026-08-21T20:25:11Z</time>
      </trkpt>
      <trkpt lat="48.685038" lon="-1.501469">
        <ele>7.441</ele>
        <time>2026-08-21T20:25:12Z</time>
      </trkpt>
      <trkpt lat="48.685049" lon="-1.501465">
        <ele>7.457</ele>
        <time>2026-08-21T20:25:13Z</time>
      </trkpt>
      <trkpt lat="48.685066" lon="-1.501457">
        <ele>7.490</ele>
        <time>2026-08-21T20:25:15Z</time>
      </trkpt>
      <trkpt lat="48.685075" lon="-1.501450">
        <ele>7.441</ele>
        <time>2026-08-21T20:25:16Z</time>
      </trkpt>
      <trkpt lat="48.685085" lon="-1.501441">
        <ele>7.414</ele>
        <time>2026-08-21T20:25:17Z</time>
      </trkpt>
      <trkpt lat="48.685099" lon="-1.501428">
        <ele>7.411</ele>
        <time>2026-08-21T20:25:19Z</time>
      </trkpt>
      <trkpt lat="48.685114" lon="-1.501419">
        <ele>7.482</ele>
        <time>2026-08-21T20:25:21Z</time>
      </trkpt>
      <trkpt lat="48.685124" lon="-1.501413">
        <ele>7.486</ele>
        <time>2026-08-21T20:25:22Z</time>
      </trkpt>
      <trkpt lat="48.685132" lon="-1.501406">
        <ele>7.473</ele>
        <time>2026-08-21T20:25:23Z</time>
      </trkpt>
      <trkpt lat="48.685142" lon="-1.501401">
        <ele>7.442</ele>
        <time>2026-08-21T20:25:24Z</time>
      </trkpt>
      <trkpt lat="48.685154" lon="-1.501393">
        <ele>7.422</ele>
        <time>2026-08-21T20:25:25Z</time>
      </trkpt>
      <trkpt lat="48.685161" lon="-1.501384">
        <ele>7.414</ele>
        <time>2026-08-21T20:25:26Z</time>
      </trkpt>
      <trkpt lat="48.685172" lon="-1.501381">
        <ele>7.509</ele>
        <time>2026-08-21T20:25:27Z</time>
      </trkpt>
      <trkpt lat="48.685181" lon="-1.501377">
        <ele>7.586</ele>
        <time>2026-08-21T20:25:28Z</time>
      </trkpt>
      <trkpt lat="48.685191" lon="-1.501371">
        <ele>7.512</ele>
        <time>2026-08-21T20:25:29Z</time>
      </trkpt>
      <trkpt lat="48.685203" lon="-1.501371">
        <ele>7.595</ele>
        <time>2026-08-21T20:25:30Z</time>
      </trkpt>
      <trkpt lat="48.685213" lon="-1.501364">
        <ele>7.616</ele>
        <time>2026-08-21T20:25:31Z</time>
      </trkpt>
      <trkpt lat="48.685221" lon="-1.501356">
        <ele>7.639</ele>
        <time>2026-08-21T20:25:32Z</time>
      </trkpt>
      <trkpt lat="48.685229" lon="-1.501346">
        <ele>7.646</ele>
        <time>2026-08-21T20:25:33Z</time>
      </trkpt>
      <trkpt lat="48.685238" lon="-1.501339">
        <ele>7.767</ele>
        <time>2026-08-21T20:25:34Z</time>
      </trkpt>
      <trkpt lat="48.685249" lon="-1.501336">
        <ele>7.781</ele>
        <time>2026-08-21T20:25:35Z</time>
      </trkpt>
      <trkpt lat="48.685261" lon="-1.501333">
        <ele>7.778</ele>
        <time>2026-08-21T20:25:36Z</time>
      </trkpt>
      <trkpt lat="48.685271" lon="-1.501326">
        <ele>7.739</ele>
        <time>2026-08-21T20:25:37Z</time>
      </trkpt>
      <trkpt lat="48.685287" lon="-1.501322">
        <ele>7.801</ele>
        <time>2026-08-21T20:25:38Z</time>
      </trkpt>
      <trkpt lat="48.685301" lon="-1.501313">
        <ele>7.821</ele>
        <time>2026-08-21T20:25:40Z</time>
      </trkpt>
      <trkpt lat="48.685317" lon="-1.501301">
        <ele>7.909</ele>
        <time>2026-08-21T20:25:42Z</time>
      </trkpt>
      <trkpt lat="48.685331" lon="-1.501297">
        <ele>8.075</ele>
        <time>2026-08-21T20:25:43Z</time>
      </trkpt>
      <trkpt lat="48.685340" lon="-1.501292">
        <ele>8.091</ele>
        <time>2026-08-21T20:25:44Z</time>
      </trkpt>
      <trkpt lat="48.685351" lon="-1.501285">
        <ele>8.084</ele>
        <time>2026-08-21T20:25:45Z</time>
      </trkpt>
      <trkpt lat="48.685367" lon="-1.501274">
        <ele>8.115</ele>
        <time>2026-08-21T20:25:47Z</time>
      </trkpt>
      <trkpt lat="48.685377" lon="-1.501267">
        <ele>8.118</ele>
        <time>2026-08-21T20:25:48Z</time>
      </trkpt>
      <trkpt lat="48.685388" lon="-1.501257">
        <ele>8.155</ele>
        <time>2026-08-21T20:25:49Z</time>
      </trkpt>
      <trkpt lat="48.685398" lon="-1.501255">
        <ele>8.196</ele>
        <time>2026-08-21T20:25:50Z</time>
      </trkpt>
      <trkpt lat="48.685408" lon="-1.501247">
        <ele>8.170</ele>
        <time>2026-08-21T20:25:51Z</time>
      </trkpt>
      <trkpt lat="48.685424" lon="-1.501240">
        <ele>8.117</ele>
        <time>2026-08-21T20:25:53Z</time>
      </trkpt>
      <trkpt lat="48.685436" lon="-1.501228">
        <ele>8.184</ele>
        <time>2026-08-21T20:25:55Z</time>
      </trkpt>
      <trkpt lat="48.685446" lon="-1.501223">
        <ele>8.207</ele>
        <time>2026-08-21T20:25:56Z</time>
      </trkpt>
      <trkpt lat="48.685455" lon="-1.501216">
        <ele>8.217</ele>
        <time>2026-08-21T20:25:57Z</time>
      </trkpt>
      <trkpt lat="48.685467" lon="-1.501210">
        <ele>8.209</ele>
        <time>2026-08-21T20:25:58Z</time>
      </trkpt>
      <trkpt lat="48.685478" lon="-1.501204">
        <ele>8.250</ele>
        <time>2026-08-21T20:25:59Z</time>
      </trkpt>
      <trkpt lat="48.685493" lon="-1.501201">
        <ele>8.276</ele>
        <time>2026-08-21T20:26:00Z</time>
      </trkpt>
      <trkpt lat="48.685505" lon="-1.501194">
        <ele>8.249</ele>
        <time>2026-08-21T20:26:01Z</time>
      </trkpt>
      <trkpt lat="48.685519" lon="-1.501180">
        <ele>8.210</ele>
        <time>2026-08-21T20:26:03Z</time>
      </trkpt>
      <trkpt lat="48.685532" lon="-1.501173">
        <ele>8.363</ele>
        <time>2026-08-21T20:26:04Z</time>
      </trkpt>
      <trkpt lat="48.685546" lon="-1.501164">
        <ele>8.350</ele>
        <time>2026-08-21T20:26:05Z</time>
      </trkpt>
      <trkpt lat="48.685556" lon="-1.501160">
        <ele>8.261</ele>
        <time>2026-08-21T20:26:06Z</time>
      </trkpt>
      <trkpt lat="48.685572" lon="-1.501151">
        <ele>8.215</ele>
        <time>2026-08-21T20:26:07Z</time>
      </trkpt>
      <trkpt lat="48.685582" lon="-1.501145">
        <ele>8.292</ele>
        <time>2026-08-21T20:26:08Z</time>
      </trkpt>
      <trkpt lat="48.685593" lon="-1.501134">
        <ele>8.295</ele>
        <time>2026-08-21T20:26:10Z</time>
      </trkpt>
      <trkpt lat="48.685601" lon="-1.501129">
        <ele>8.249</ele>
        <time>2026-08-21T20:26:11Z</time>
      </trkpt>
      <trkpt lat="48.685613" lon="-1.501123">
        <ele>8.223</ele>
        <time>2026-08-21T20:26:12Z</time>
      </trkpt>
      <trkpt lat="48.685623" lon="-1.501121">
        <ele>8.209</ele>
        <time>2026-08-21T20:26:13Z</time>
      </trkpt>
      <trkpt lat="48.685639" lon="-1.501115">
        <ele>8.281</ele>
        <time>2026-08-21T20:26:15Z</time>
      </trkpt>
      <trkpt lat="48.685647" lon="-1.501109">
        <ele>8.157</ele>
        <time>2026-08-21T20:26:16Z</time>
      </trkpt>
      <trkpt lat="48.685664" lon="-1.501098">
        <ele>8.170</ele>
        <time>2026-08-21T20:26:18Z</time>
      </trkpt>
      <trkpt lat="48.685674" lon="-1.501092">
        <ele>8.161</ele>
        <time>2026-08-21T20:26:19Z</time>
      </trkpt>
      <trkpt lat="48.685682" lon="-1.501088">
        <ele>8.184</ele>
        <time>2026-08-21T20:26:20Z</time>
      </trkpt>
      <trkpt lat="48.685700" lon="-1.501079">
        <ele>8.051</ele>
        <time>2026-08-21T20:26:22Z</time>
      </trkpt>
      <trkpt lat="48.685710" lon="-1.501071">
        <ele>8.012</ele>
        <time>2026-08-21T20:26:23Z</time>
      </trkpt>
      <trkpt lat="48.685724" lon="-1.501068">
        <ele>8.026</ele>
        <time>2026-08-21T20:26:24Z</time>
      </trkpt>
      <trkpt lat="48.685735" lon="-1.501063">
        <ele>8.013</ele>
        <time>2026-08-21T20:26:25Z</time>
      </trkpt>
      <trkpt lat="48.685746" lon="-1.501056">
        <ele>8.081</ele>
        <time>2026-08-21T20:26:26Z</time>
      </trkpt>
      <trkpt lat="48.685758" lon="-1.501053">
        <ele>7.761</ele>
        <time>2026-08-21T20:26:27Z</time>
      </trkpt>
      <trkpt lat="48.685769" lon="-1.501040">
        <ele>7.417</ele>
        <time>2026-08-21T20:26:29Z</time>
      </trkpt>
      <trkpt lat="48.685776" lon="-1.501030">
        <ele>7.409</ele>
        <time>2026-08-21T20:26:30Z</time>
      </trkpt>
      <trkpt lat="48.685786" lon="-1.501025">
        <ele>7.490</ele>
        <time>2026-08-21T20:26:31Z</time>
      </trkpt>
      <trkpt lat="48.685798" lon="-1.501022">
        <ele>7.486</ele>
        <time>2026-08-21T20:26:32Z</time>
      </trkpt>
      <trkpt lat="48.685812" lon="-1.501010">
        <ele>7.429</ele>
        <time>2026-08-21T20:26:34Z</time>
      </trkpt>
      <trkpt lat="48.685825" lon="-1.500997">
        <ele>7.440</ele>
        <time>2026-08-21T20:26:36Z</time>
      </trkpt>
      <trkpt lat="48.685833" lon="-1.500985">
        <ele>7.473</ele>
        <time>2026-08-21T20:26:37Z</time>
      </trkpt>
      <trkpt lat="48.685842" lon="-1.500968">
        <ele>7.470</ele>
        <time>2026-08-21T20:26:39Z</time>
      </trkpt>
      <trkpt lat="48.685859" lon="-1.500967">
        <ele>7.431</ele>
        <time>2026-08-21T20:26:41Z</time>
      </trkpt>
      <trkpt lat="48.685868" lon="-1.500956">
        <ele>7.475</ele>
        <time>2026-08-21T20:26:42Z</time>
      </trkpt>
      <trkpt lat="48.685877" lon="-1.500948">
        <ele>7.492</ele>
        <time>2026-08-21T20:26:44Z</time>
      </trkpt>
      <trkpt lat="48.685885" lon="-1.500940">
        <ele>7.468</ele>
        <time>2026-08-21T20:26:45Z</time>
      </trkpt>
      <trkpt lat="48.685896" lon="-1.500928">
        <ele>7.442</ele>
        <time>2026-08-21T20:26:46Z</time>
      </trkpt>
      <trkpt lat="48.685904" lon="-1.500918">
        <ele>7.426</ele>
        <time>2026-08-21T20:26:47Z</time>
      </trkpt>
      <trkpt lat="48.685913" lon="-1.500909">
        <ele>7.409</ele>
        <time>2026-08-21T20:26:48Z</time>
      </trkpt>
      <trkpt lat="48.685921" lon="-1.500887">
        <ele>7.648</ele>
        <time>2026-08-21T20:26:50Z</time>
      </trkpt>
      <trkpt lat="48.685928" lon="-1.500877">
        <ele>7.944</ele>
        <time>2026-08-21T20:26:51Z</time>
      </trkpt>
      <trkpt lat="48.685936" lon="-1.500850">
        <ele>8.067</ele>
        <time>2026-08-21T20:26:53Z</time>
      </trkpt>
      <trkpt lat="48.685948" lon="-1.500838">
        <ele>8.148</ele>
        <time>2026-08-21T20:26:55Z</time>
      </trkpt>
      <trkpt lat="48.685956" lon="-1.500830">
        <ele>8.191</ele>
        <time>2026-08-21T20:26:56Z</time>
      </trkpt>
      <trkpt lat="48.685963" lon="-1.500812">
        <ele>8.128</ele>
        <time>2026-08-21T20:26:57Z</time>
      </trkpt>
      <trkpt lat="48.685971" lon="-1.500801">
        <ele>8.279</ele>
        <time>2026-08-21T20:26:58Z</time>
      </trkpt>
      <trkpt lat="48.685973" lon="-1.500775">
        <ele>8.273</ele>
        <time>2026-08-21T20:27:00Z</time>
      </trkpt>
      <trkpt lat="48.685984" lon="-1.500752">
        <ele>8.230</ele>
        <time>2026-08-21T20:27:02Z</time>
      </trkpt>
      <trkpt lat="48.685994" lon="-1.500740">
        <ele>8.376</ele>
        <time>2026-08-21T20:27:03Z</time>
      </trkpt>
      <trkpt lat="48.686001" lon="-1.500725">
        <ele>8.490</ele>
        <time>2026-08-21T20:27:04Z</time>
      </trkpt>
      <trkpt lat="48.686010" lon="-1.500722">
        <ele>8.419</ele>
        <time>2026-08-21T20:27:05Z</time>
      </trkpt>
      <trkpt lat="48.686015" lon="-1.500705">
        <ele>8.409</ele>
        <time>2026-08-21T20:27:06Z</time>
      </trkpt>
      <trkpt lat="48.686020" lon="-1.500685">
        <ele>8.559</ele>
        <time>2026-08-21T20:27:07Z</time>
      </trkpt>
      <trkpt lat="48.686024" lon="-1.500671">
        <ele>8.575</ele>
        <time>2026-08-21T20:27:08Z</time>
      </trkpt>
      <trkpt lat="48.686028" lon="-1.500658">
        <ele>8.548</ele>
        <time>2026-08-21T20:27:09Z</time>
      </trkpt>
      <trkpt lat="48.686036" lon="-1.500644">
        <ele>8.779</ele>
        <time>2026-08-21T20:27:10Z</time>
      </trkpt>
      <trkpt lat="48.686042" lon="-1.500631">
        <ele>8.972</ele>
        <time>2026-08-21T20:27:11Z</time>
      </trkpt>
      <trkpt lat="48.686051" lon="-1.500626">
        <ele>8.969</ele>
        <time>2026-08-21T20:27:12Z</time>
      </trkpt>
      <trkpt lat="48.686058" lon="-1.500612">
        <ele>9.060</ele>
        <time>2026-08-21T20:27:13Z</time>
      </trkpt>
      <trkpt lat="48.686064" lon="-1.500595">
        <ele>9.024</ele>
        <time>2026-08-21T20:27:14Z</time>
      </trkpt>
      <trkpt lat="48.686070" lon="-1.500577">
        <ele>9.151</ele>
        <time>2026-08-21T20:27:15Z</time>
      </trkpt>
      <trkpt lat="48.686075" lon="-1.500560">
        <ele>9.117</ele>
        <time>2026-08-21T20:27:16Z</time>
      </trkpt>
      <trkpt lat="48.686080" lon="-1.500542">
        <ele>9.187</ele>
        <time>2026-08-21T20:27:17Z</time>
      </trkpt>
      <trkpt lat="48.686088" lon="-1.500530">
        <ele>9.115</ele>
        <time>2026-08-21T20:27:18Z</time>
      </trkpt>
      <trkpt lat="48.686093" lon="-1.500510">
        <ele>9.109</ele>
        <time>2026-08-21T20:27:19Z</time>
      </trkpt>
      <trkpt lat="48.686097" lon="-1.500497">
        <ele>9.193</ele>
        <time>2026-08-21T20:27:20Z</time>
      </trkpt>
      <trkpt lat="48.686104" lon="-1.500483">
        <ele>9.189</ele>
        <time>2026-08-21T20:27:21Z</time>
      </trkpt>
      <trkpt lat="48.686119" lon="-1.500462">
        <ele>9.162</ele>
        <time>2026-08-21T20:27:23Z</time>
      </trkpt>
      <trkpt lat="48.686127" lon="-1.500453">
        <ele>9.273</ele>
        <time>2026-08-21T20:27:24Z</time>
      </trkpt>
      <trkpt lat="48.686136" lon="-1.500438">
        <ele>9.236</ele>
        <time>2026-08-21T20:27:25Z</time>
      </trkpt>
      <trkpt lat="48.686144" lon="-1.500421">
        <ele>9.263</ele>
        <time>2026-08-21T20:27:26Z</time>
      </trkpt>
      <trkpt lat="48.686149" lon="-1.500398">
        <ele>9.274</ele>
        <time>2026-08-21T20:27:27Z</time>
      </trkpt>
      <trkpt lat="48.686153" lon="-1.500381">
        <ele>9.278</ele>
        <time>2026-08-21T20:27:28Z</time>
      </trkpt>
      <trkpt lat="48.686157" lon="-1.500363">
        <ele>9.245</ele>
        <time>2026-08-21T20:27:29Z</time>
      </trkpt>
      <trkpt lat="48.686158" lon="-1.500346">
        <ele>9.298</ele>
        <time>2026-08-21T20:27:30Z</time>
      </trkpt>
      <trkpt lat="48.686164" lon="-1.500331">
        <ele>9.215</ele>
        <time>2026-08-21T20:27:31Z</time>
      </trkpt>
      <trkpt lat="48.686168" lon="-1.500315">
        <ele>9.226</ele>
        <time>2026-08-21T20:27:32Z</time>
      </trkpt>
      <trkpt lat="48.686174" lon="-1.500290">
        <ele>9.209</ele>
        <time>2026-08-21T20:27:34Z</time>
      </trkpt>
      <trkpt lat="48.686179" lon="-1.500276">
        <ele>9.231</ele>
        <time>2026-08-21T20:27:35Z</time>
      </trkpt>
      <trkpt lat="48.686184" lon="-1.500263">
        <ele>9.127</ele>
        <time>2026-08-21T20:27:36Z</time>
      </trkpt>
      <trkpt lat="48.686189" lon="-1.500246">
        <ele>9.110</ele>
        <time>2026-08-21T20:27:37Z</time>
      </trkpt>
      <trkpt lat="48.686197" lon="-1.500231">
        <ele>9.171</ele>
        <time>2026-08-21T20:27:38Z</time>
      </trkpt>
      <trkpt lat="48.686206" lon="-1.500217">
        <ele>9.154</ele>
        <time>2026-08-21T20:27:39Z</time>
      </trkpt>
      <trkpt lat="48.686214" lon="-1.500201">
        <ele>9.131</ele>
        <time>2026-08-21T20:27:40Z</time>
      </trkpt>
      <trkpt lat="48.686221" lon="-1.500188">
        <ele>9.142</ele>
        <time>2026-08-21T20:27:41Z</time>
      </trkpt>
      <trkpt lat="48.686226" lon="-1.500168">
        <ele>9.016</ele>
        <time>2026-08-21T20:27:42Z</time>
      </trkpt>
      <trkpt lat="48.686231" lon="-1.500151">
        <ele>9.073</ele>
        <time>2026-08-21T20:27:43Z</time>
      </trkpt>
      <trkpt lat="48.686237" lon="-1.500135">
        <ele>9.092</ele>
        <time>2026-08-21T20:27:44Z</time>
      </trkpt>
      <trkpt lat="48.686239" lon="-1.500121">
        <ele>9.073</ele>
        <time>2026-08-21T20:27:45Z</time>
      </trkpt>
      <trkpt lat="48.686246" lon="-1.500095">
        <ele>9.020</ele>
        <time>2026-08-21T20:27:47Z</time>
      </trkpt>
      <trkpt lat="48.686254" lon="-1.500084">
        <ele>9.009</ele>
        <time>2026-08-21T20:27:48Z</time>
      </trkpt>
      <trkpt lat="48.686261" lon="-1.500067">
        <ele>8.981</ele>
        <time>2026-08-21T20:27:49Z</time>
      </trkpt>
      <trkpt lat="48.686266" lon="-1.500048">
        <ele>8.927</ele>
        <time>2026-08-21T20:27:50Z</time>
      </trkpt>
      <trkpt lat="48.686269" lon="-1.500034">
        <ele>8.970</ele>
        <time>2026-08-21T20:27:51Z</time>
      </trkpt>
      <trkpt lat="48.686272" lon="-1.500018">
        <ele>8.811</ele>
        <time>2026-08-21T20:27:52Z</time>
      </trkpt>
      <trkpt lat="48.686274" lon="-1.500004">
        <ele>8.824</ele>
        <time>2026-08-21T20:27:53Z</time>
      </trkpt>
      <trkpt lat="48.686281" lon="-1.499987">
        <ele>8.841</ele>
        <time>2026-08-21T20:27:54Z</time>
      </trkpt>
      <trkpt lat="48.686282" lon="-1.499972">
        <ele>8.822</ele>
        <time>2026-08-21T20:27:55Z</time>
      </trkpt>
      <trkpt lat="48.686289" lon="-1.499958">
        <ele>8.846</ele>
        <time>2026-08-21T20:27:56Z</time>
      </trkpt>
      <trkpt lat="48.686294" lon="-1.499945">
        <ele>8.813</ele>
        <time>2026-08-21T20:27:57Z</time>
      </trkpt>
      <trkpt lat="48.686302" lon="-1.499933">
        <ele>8.878</ele>
        <time>2026-08-21T20:27:58Z</time>
      </trkpt>
      <trkpt lat="48.686309" lon="-1.499919">
        <ele>8.733</ele>
        <time>2026-08-21T20:27:59Z</time>
      </trkpt>
      <trkpt lat="48.686315" lon="-1.499903">
        <ele>8.726</ele>
        <time>2026-08-21T20:28:00Z</time>
      </trkpt>
      <trkpt lat="48.686325" lon="-1.499887">
        <ele>8.709</ele>
        <time>2026-08-21T20:28:01Z</time>
      </trkpt>
      <trkpt lat="48.686333" lon="-1.499868">
        <ele>8.679</ele>
        <time>2026-08-21T20:28:02Z</time>
      </trkpt>
      <trkpt lat="48.686340" lon="-1.499853">
        <ele>8.685</ele>
        <time>2026-08-21T20:28:03Z</time>
      </trkpt>
      <trkpt lat="48.686346" lon="-1.499841">
        <ele>8.678</ele>
        <time>2026-08-21T20:28:04Z</time>
      </trkpt>
      <trkpt lat="48.686353" lon="-1.499825">
        <ele>8.569</ele>
        <time>2026-08-21T20:28:06Z</time>
      </trkpt>
      <trkpt lat="48.686356" lon="-1.499812">
        <ele>8.222</ele>
        <time>2026-08-21T20:28:07Z</time>
      </trkpt>
      <trkpt lat="48.686362" lon="-1.499792">
        <ele>7.939</ele>
        <time>2026-08-21T20:28:08Z</time>
      </trkpt>
      <trkpt lat="48.686370" lon="-1.499776">
        <ele>7.680</ele>
        <time>2026-08-21T20:28:09Z</time>
      </trkpt>
      <trkpt lat="48.686375" lon="-1.499762">
        <ele>7.444</ele>
        <time>2026-08-21T20:28:10Z</time>
      </trkpt>
      <trkpt lat="48.686383" lon="-1.499749">
        <ele>7.131</ele>
        <time>2026-08-21T20:28:11Z</time>
      </trkpt>
      <trkpt lat="48.686392" lon="-1.499735">
        <ele>7.046</ele>
        <time>2026-08-21T20:28:12Z</time>
      </trkpt>
      <trkpt lat="48.686398" lon="-1.499717">
        <ele>7.088</ele>
        <time>2026-08-21T20:28:13Z</time>
      </trkpt>
      <trkpt lat="48.686404" lon="-1.499702">
        <ele>7.016</ele>
        <time>2026-08-21T20:28:14Z</time>
      </trkpt>
      <trkpt lat="48.686405" lon="-1.499688">
        <ele>7.009</ele>
        <time>2026-08-21T20:28:15Z</time>
      </trkpt>
      <trkpt lat="48.686408" lon="-1.499674">
        <ele>7.096</ele>
        <time>2026-08-21T20:28:16Z</time>
      </trkpt>
      <trkpt lat="48.686414" lon="-1.499662">
        <ele>7.052</ele>
        <time>2026-08-21T20:28:17Z</time>
      </trkpt>
      <trkpt lat="48.686421" lon="-1.499646">
        <ele>7.045</ele>
        <time>2026-08-21T20:28:18Z</time>
      </trkpt>
      <trkpt lat="48.686432" lon="-1.499623">
        <ele>6.936</ele>
        <time>2026-08-21T20:28:20Z</time>
      </trkpt>
      <trkpt lat="48.686440" lon="-1.499611">
        <ele>6.969</ele>
        <time>2026-08-21T20:28:21Z</time>
      </trkpt>
      <trkpt lat="48.686445" lon="-1.499596">
        <ele>6.936</ele>
        <time>2026-08-21T20:28:22Z</time>
      </trkpt>
      <trkpt lat="48.686451" lon="-1.499582">
        <ele>6.987</ele>
        <time>2026-08-21T20:28:23Z</time>
      </trkpt>
      <trkpt lat="48.686460" lon="-1.499571">
        <ele>6.981</ele>
        <time>2026-08-21T20:28:24Z</time>
      </trkpt>
      <trkpt lat="48.686469" lon="-1.499554">
        <ele>6.938</ele>
        <time>2026-08-21T20:28:26Z</time>
      </trkpt>
      <trkpt lat="48.686483" lon="-1.499536">
        <ele>6.831</ele>
        <time>2026-08-21T20:28:28Z</time>
      </trkpt>
      <trkpt lat="48.686491" lon="-1.499514">
        <ele>6.861</ele>
        <time>2026-08-21T20:28:30Z</time>
      </trkpt>
      <trkpt lat="48.686499" lon="-1.499498">
        <ele>6.807</ele>
        <time>2026-08-21T20:28:31Z</time>
      </trkpt>
      <trkpt lat="48.686508" lon="-1.499483">
        <ele>6.809</ele>
        <time>2026-08-21T20:28:32Z</time>
      </trkpt>
      <trkpt lat="48.686517" lon="-1.499467">
        <ele>6.895</ele>
        <time>2026-08-21T20:28:33Z</time>
      </trkpt>
      <trkpt lat="48.686526" lon="-1.499455">
        <ele>6.831</ele>
        <time>2026-08-21T20:28:34Z</time>
      </trkpt>
      <trkpt lat="48.686534" lon="-1.499444">
        <ele>6.894</ele>
        <time>2026-08-21T20:28:35Z</time>
      </trkpt>
      <trkpt lat="48.686541" lon="-1.499430">
        <ele>6.875</ele>
        <time>2026-08-21T20:28:36Z</time>
      </trkpt>
      <trkpt lat="48.686546" lon="-1.499418">
        <ele>6.848</ele>
        <time>2026-08-21T20:28:37Z</time>
      </trkpt>
      <trkpt lat="48.686557" lon="-1.499398">
        <ele>6.825</ele>
        <time>2026-08-21T20:28:39Z</time>
      </trkpt>
      <trkpt lat="48.686565" lon="-1.499384">
        <ele>6.836</ele>
        <time>2026-08-21T20:28:40Z</time>
      </trkpt>
      <trkpt lat="48.686568" lon="-1.499369">
        <ele>6.810</ele>
        <time>2026-08-21T20:28:41Z</time>
      </trkpt>
      <trkpt lat="48.686579" lon="-1.499345">
        <ele>6.817</ele>
        <time>2026-08-21T20:28:43Z</time>
      </trkpt>
      <trkpt lat="48.686589" lon="-1.499331">
        <ele>6.853</ele>
        <time>2026-08-21T20:28:44Z</time>
      </trkpt>
      <trkpt lat="48.686595" lon="-1.499316">
        <ele>6.804</ele>
        <time>2026-08-21T20:28:45Z</time>
      </trkpt>
      <trkpt lat="48.686604" lon="-1.499300">
        <ele>6.814</ele>
        <time>2026-08-21T20:28:46Z</time>
      </trkpt>
      <trkpt lat="48.686600" lon="-1.499281">
        <ele>6.909</ele>
        <time>2026-08-21T20:28:47Z</time>
      </trkpt>
      <trkpt lat="48.686607" lon="-1.499262">
        <ele>6.927</ele>
        <time>2026-08-21T20:28:49Z</time>
      </trkpt>
      <trkpt lat="48.686616" lon="-1.499249">
        <ele>6.923</ele>
        <time>2026-08-21T20:28:50Z</time>
      </trkpt>
      <trkpt lat="48.686622" lon="-1.499234">
        <ele>6.986</ele>
        <time>2026-08-21T20:28:51Z</time>
      </trkpt>
      <trkpt lat="48.686627" lon="-1.499221">
        <ele>6.987</ele>
        <time>2026-08-21T20:28:52Z</time>
      </trkpt>
      <trkpt lat="48.686630" lon="-1.499206">
        <ele>6.930</ele>
        <time>2026-08-21T20:28:53Z</time>
      </trkpt>
      <trkpt lat="48.686632" lon="-1.499192">
        <ele>6.997</ele>
        <time>2026-08-21T20:29:01Z</time>
      </trkpt>
      <trkpt lat="48.686636" lon="-1.499172">
        <ele>6.928</ele>
        <time>2026-08-21T20:29:03Z</time>
      </trkpt>
      <trkpt lat="48.686638" lon="-1.499155">
        <ele>6.922</ele>
        <time>2026-08-21T20:29:04Z</time>
      </trkpt>
      <trkpt lat="48.686642" lon="-1.499139">
        <ele>6.999</ele>
        <time>2026-08-21T20:29:05Z</time>
      </trkpt>
      <trkpt lat="48.686648" lon="-1.499126">
        <ele>6.916</ele>
        <time>2026-08-21T20:29:06Z</time>
      </trkpt>
      <trkpt lat="48.686659" lon="-1.499115">
        <ele>6.976</ele>
        <time>2026-08-21T20:29:07Z</time>
      </trkpt>
      <trkpt lat="48.686670" lon="-1.499100">
        <ele>6.913</ele>
        <time>2026-08-21T20:29:08Z</time>
      </trkpt>
      <trkpt lat="48.686677" lon="-1.499090">
        <ele>7.009</ele>
        <time>2026-08-21T20:29:09Z</time>
      </trkpt>
      <trkpt lat="48.686685" lon="-1.499079">
        <ele>7.143</ele>
        <time>2026-08-21T20:29:10Z</time>
      </trkpt>
      <trkpt lat="48.686693" lon="-1.499058">
        <ele>7.329</ele>
        <time>2026-08-21T20:29:12Z</time>
      </trkpt>
      <trkpt lat="48.686701" lon="-1.499049">
        <ele>7.442</ele>
        <time>2026-08-21T20:29:13Z</time>
      </trkpt>
      <trkpt lat="48.686710" lon="-1.499032">
        <ele>7.573</ele>
        <time>2026-08-21T20:29:14Z</time>
      </trkpt>
      <trkpt lat="48.686711" lon="-1.499010">
        <ele>7.576</ele>
        <time>2026-08-21T20:29:15Z</time>
      </trkpt>
      <trkpt lat="48.686708" lon="-1.498993">
        <ele>7.623</ele>
        <time>2026-08-21T20:29:16Z</time>
      </trkpt>
      <trkpt lat="48.686713" lon="-1.498980">
        <ele>7.714</ele>
        <time>2026-08-21T20:29:17Z</time>
      </trkpt>
      <trkpt lat="48.686718" lon="-1.498968">
        <ele>7.728</ele>
        <time>2026-08-21T20:29:18Z</time>
      </trkpt>
      <trkpt lat="48.686729" lon="-1.498953">
        <ele>7.785</ele>
        <time>2026-08-21T20:29:19Z</time>
      </trkpt>
      <trkpt lat="48.686742" lon="-1.498939">
        <ele>7.772</ele>
        <time>2026-08-21T20:29:20Z</time>
      </trkpt>
      <trkpt lat="48.686746" lon="-1.498924">
        <ele>7.813</ele>
        <time>2026-08-21T20:29:21Z</time>
      </trkpt>
      <trkpt lat="48.686751" lon="-1.498910">
        <ele>7.814</ele>
        <time>2026-08-21T20:29:22Z</time>
      </trkpt>
      <trkpt lat="48.686764" lon="-1.498884">
        <ele>8.009</ele>
        <time>2026-08-21T20:29:24Z</time>
      </trkpt>
      <trkpt lat="48.686766" lon="-1.498868">
        <ele>8.269</ele>
        <time>2026-08-21T20:29:25Z</time>
      </trkpt>
      <trkpt lat="48.686774" lon="-1.498854">
        <ele>8.345</ele>
        <time>2026-08-21T20:29:26Z</time>
      </trkpt>
      <trkpt lat="48.686782" lon="-1.498842">
        <ele>8.548</ele>
        <time>2026-08-21T20:29:27Z</time>
      </trkpt>
      <trkpt lat="48.686789" lon="-1.498824">
        <ele>8.679</ele>
        <time>2026-08-21T20:29:28Z</time>
      </trkpt>
      <trkpt lat="48.686793" lon="-1.498811">
        <ele>8.872</ele>
        <time>2026-08-21T20:29:29Z</time>
      </trkpt>
      <trkpt lat="48.686800" lon="-1.498798">
        <ele>9.099</ele>
        <time>2026-08-21T20:29:30Z</time>
      </trkpt>
      <trkpt lat="48.686807" lon="-1.498783">
        <ele>9.060</ele>
        <time>2026-08-21T20:29:31Z</time>
      </trkpt>
      <trkpt lat="48.686818" lon="-1.498768">
        <ele>9.164</ele>
        <time>2026-08-21T20:29:32Z</time>
      </trkpt>
      <trkpt lat="48.686827" lon="-1.498758">
        <ele>9.131</ele>
        <time>2026-08-21T20:29:33Z</time>
      </trkpt>
      <trkpt lat="48.686836" lon="-1.498734">
        <ele>9.158</ele>
        <time>2026-08-21T20:29:35Z</time>
      </trkpt>
      <trkpt lat="48.686849" lon="-1.498721">
        <ele>9.252</ele>
        <time>2026-08-21T20:29:36Z</time>
      </trkpt>
      <trkpt lat="48.686857" lon="-1.498709">
        <ele>9.417</ele>
        <time>2026-08-21T20:29:37Z</time>
      </trkpt>
      <trkpt lat="48.686859" lon="-1.498696">
        <ele>9.609</ele>
        <time>2026-08-21T20:29:38Z</time>
      </trkpt>
      <trkpt lat="48.686864" lon="-1.498681">
        <ele>9.947</ele>
        <time>2026-08-21T20:29:39Z</time>
      </trkpt>
      <trkpt lat="48.686867" lon="-1.498666">
        <ele>10.133</ele>
        <time>2026-08-21T20:29:40Z</time>
      </trkpt>
      <trkpt lat="48.686875" lon="-1.498652">
        <ele>10.346</ele>
        <time>2026-08-21T20:29:41Z</time>
      </trkpt>
      <trkpt lat="48.686881" lon="-1.498639">
        <ele>10.777</ele>
        <time>2026-08-21T20:29:42Z</time>
      </trkpt>
      <trkpt lat="48.686891" lon="-1.498618">
        <ele>11.040</ele>
        <time>2026-08-21T20:29:44Z</time>
      </trkpt>
      <trkpt lat="48.686897" lon="-1.498602">
        <ele>11.137</ele>
        <time>2026-08-21T20:29:45Z</time>
      </trkpt>
      <trkpt lat="48.686901" lon="-1.498590">
        <ele>11.148</ele>
        <time>2026-08-21T20:29:46Z</time>
      </trkpt>
      <trkpt lat="48.686912" lon="-1.498582">
        <ele>11.212</ele>
        <time>2026-08-21T20:29:47Z</time>
      </trkpt>
      <trkpt lat="48.686922" lon="-1.498560">
        <ele>11.239</ele>
        <time>2026-08-21T20:29:49Z</time>
      </trkpt>
      <trkpt lat="48.686927" lon="-1.498546">
        <ele>11.293</ele>
        <time>2026-08-21T20:29:50Z</time>
      </trkpt>
      <trkpt lat="48.686933" lon="-1.498533">
        <ele>11.265</ele>
        <time>2026-08-21T20:29:51Z</time>
      </trkpt>
      <trkpt lat="48.686942" lon="-1.498522">
        <ele>11.321</ele>
        <time>2026-08-21T20:29:52Z</time>
      </trkpt>
      <trkpt lat="48.686949" lon="-1.498509">
        <ele>11.409</ele>
        <time>2026-08-21T20:29:53Z</time>
      </trkpt>
      <trkpt lat="48.686957" lon="-1.498483">
        <ele>11.561</ele>
        <time>2026-08-21T20:29:55Z</time>
      </trkpt>
      <trkpt lat="48.686963" lon="-1.498465">
        <ele>11.587</ele>
        <time>2026-08-21T20:29:56Z</time>
      </trkpt>
      <trkpt lat="48.686968" lon="-1.498452">
        <ele>11.520</ele>
        <time>2026-08-21T20:29:57Z</time>
      </trkpt>
      <trkpt lat="48.686974" lon="-1.498441">
        <ele>11.521</ele>
        <time>2026-08-21T20:29:58Z</time>
      </trkpt>
      <trkpt lat="48.686979" lon="-1.498430">
        <ele>11.584</ele>
        <time>2026-08-21T20:29:59Z</time>
      </trkpt>
      <trkpt lat="48.686982" lon="-1.498414">
        <ele>11.511</ele>
        <time>2026-08-21T20:30:00Z</time>
      </trkpt>
      <trkpt lat="48.686990" lon="-1.498399">
        <ele>11.622</ele>
        <time>2026-08-21T20:30:01Z</time>
      </trkpt>
      <trkpt lat="48.686998" lon="-1.498389">
        <ele>11.616</ele>
        <time>2026-08-21T20:30:02Z</time>
      </trkpt>
      <trkpt lat="48.687005" lon="-1.498379">
        <ele>11.693</ele>
        <time>2026-08-21T20:30:03Z</time>
      </trkpt>
      <trkpt lat="48.687010" lon="-1.498368">
        <ele>11.697</ele>
        <time>2026-08-21T20:30:04Z</time>
      </trkpt>
      <trkpt lat="48.687014" lon="-1.498341">
        <ele>11.623</ele>
        <time>2026-08-21T20:30:06Z</time>
      </trkpt>
      <trkpt lat="48.687018" lon="-1.498328">
        <ele>11.625</ele>
        <time>2026-08-21T20:30:07Z</time>
      </trkpt>
      <trkpt lat="48.687027" lon="-1.498307">
        <ele>11.609</ele>
        <time>2026-08-21T20:30:09Z</time>
      </trkpt>
      <trkpt lat="48.687034" lon="-1.498295">
        <ele>11.671</ele>
        <time>2026-08-21T20:30:10Z</time>
      </trkpt>
      <trkpt lat="48.687041" lon="-1.498284">
        <ele>11.697</ele>
        <time>2026-08-21T20:30:11Z</time>
      </trkpt>
      <trkpt lat="48.687048" lon="-1.498270">
        <ele>11.650</ele>
        <time>2026-08-21T20:30:12Z</time>
      </trkpt>
      <trkpt lat="48.687054" lon="-1.498259">
        <ele>11.651</ele>
        <time>2026-08-21T20:30:13Z</time>
      </trkpt>
      <trkpt lat="48.687059" lon="-1.498247">
        <ele>11.584</ele>
        <time>2026-08-21T20:30:14Z</time>
      </trkpt>
      <trkpt lat="48.687062" lon="-1.498234">
        <ele>11.581</ele>
        <time>2026-08-21T20:30:15Z</time>
      </trkpt>
      <trkpt lat="48.687076" lon="-1.498212">
        <ele>11.542</ele>
        <time>2026-08-21T20:30:17Z</time>
      </trkpt>
      <trkpt lat="48.687086" lon="-1.498204">
        <ele>11.526</ele>
        <time>2026-08-21T20:30:18Z</time>
      </trkpt>
      <trkpt lat="48.687096" lon="-1.498183">
        <ele>11.463</ele>
        <time>2026-08-21T20:30:20Z</time>
      </trkpt>
      <trkpt lat="48.687103" lon="-1.498172">
        <ele>11.474</ele>
        <time>2026-08-21T20:30:21Z</time>
      </trkpt>
      <trkpt lat="48.687109" lon="-1.498161">
        <ele>11.456</ele>
        <time>2026-08-21T20:30:22Z</time>
      </trkpt>
      <trkpt lat="48.687117" lon="-1.498153">
        <ele>11.421</ele>
        <time>2026-08-21T20:30:23Z</time>
      </trkpt>
      <trkpt lat="48.687123" lon="-1.498142">
        <ele>11.409</ele>
        <time>2026-08-21T20:30:24Z</time>
      </trkpt>
      <trkpt lat="48.687129" lon="-1.498130">
        <ele>11.449</ele>
        <time>2026-08-21T20:30:25Z</time>
      </trkpt>
      <trkpt lat="48.687134" lon="-1.498117">
        <ele>11.445</ele>
        <time>2026-08-21T20:30:26Z</time>
      </trkpt>
      <trkpt lat="48.687139" lon="-1.498092">
        <ele>11.438</ele>
        <time>2026-08-21T20:30:28Z</time>
      </trkpt>
      <trkpt lat="48.687147" lon="-1.498067">
        <ele>11.499</ele>
        <time>2026-08-21T20:30:30Z</time>
      </trkpt>
      <trkpt lat="48.687152" lon="-1.498041">
        <ele>11.432</ele>
        <time>2026-08-21T20:30:32Z</time>
      </trkpt>
      <trkpt lat="48.687159" lon="-1.498031">
        <ele>11.469</ele>
        <time>2026-08-21T20:30:33Z</time>
      </trkpt>
      <trkpt lat="48.687170" lon="-1.498012">
        <ele>11.450</ele>
        <time>2026-08-21T20:30:35Z</time>
      </trkpt>
      <trkpt lat="48.687182" lon="-1.497991">
        <ele>11.454</ele>
        <time>2026-08-21T20:30:37Z</time>
      </trkpt>
      <trkpt lat="48.687191" lon="-1.497973">
        <ele>11.381</ele>
        <time>2026-08-21T20:30:39Z</time>
      </trkpt>
      <trkpt lat="48.687199" lon="-1.497962">
        <ele>11.367</ele>
        <time>2026-08-21T20:30:40Z</time>
      </trkpt>
      <trkpt lat="48.687209" lon="-1.497942">
        <ele>11.381</ele>
        <time>2026-08-21T20:30:42Z</time>
      </trkpt>
      <trkpt lat="48.687215" lon="-1.497922">
        <ele>11.319</ele>
        <time>2026-08-21T20:30:44Z</time>
      </trkpt>
      <trkpt lat="48.687219" lon="-1.497907">
        <ele>11.309</ele>
        <time>2026-08-21T20:30:45Z</time>
      </trkpt>
      <trkpt lat="48.687227" lon="-1.497880">
        <ele>11.318</ele>
        <time>2026-08-21T20:30:47Z</time>
      </trkpt>
      <trkpt lat="48.687233" lon="-1.497865">
        <ele>11.364</ele>
        <time>2026-08-21T20:30:48Z</time>
      </trkpt>
      <trkpt lat="48.687240" lon="-1.497853">
        <ele>11.397</ele>
        <time>2026-08-21T20:30:49Z</time>
      </trkpt>
      <trkpt lat="48.687247" lon="-1.497839">
        <ele>11.338</ele>
        <time>2026-08-21T20:30:50Z</time>
      </trkpt>
      <trkpt lat="48.687251" lon="-1.497825">
        <ele>11.341</ele>
        <time>2026-08-21T20:30:51Z</time>
      </trkpt>
      <trkpt lat="48.687256" lon="-1.497811">
        <ele>11.348</ele>
        <time>2026-08-21T20:30:52Z</time>
      </trkpt>
      <trkpt lat="48.687260" lon="-1.497796">
        <ele>11.329</ele>
        <time>2026-08-21T20:30:53Z</time>
      </trkpt>
      <trkpt lat="48.687269" lon="-1.497776">
        <ele>11.253</ele>
        <time>2026-08-21T20:30:55Z</time>
      </trkpt>
      <trkpt lat="48.687273" lon="-1.497762">
        <ele>11.260</ele>
        <time>2026-08-21T20:30:56Z</time>
      </trkpt>
      <trkpt lat="48.687277" lon="-1.497748">
        <ele>11.129</ele>
        <time>2026-08-21T20:30:57Z</time>
      </trkpt>
      <trkpt lat="48.687281" lon="-1.497734">
        <ele>11.000</ele>
        <time>2026-08-21T20:30:58Z</time>
      </trkpt>
      <trkpt lat="48.687294" lon="-1.497713">
        <ele>11.020</ele>
        <time>2026-08-21T20:31:00Z</time>
      </trkpt>
      <trkpt lat="48.687300" lon="-1.497701">
        <ele>11.009</ele>
        <time>2026-08-21T20:31:01Z</time>
      </trkpt>
      <trkpt lat="48.687306" lon="-1.497685">
        <ele>11.064</ele>
        <time>2026-08-21T20:31:02Z</time>
      </trkpt>
      <trkpt lat="48.687317" lon="-1.497669">
        <ele>11.030</ele>
        <time>2026-08-21T20:31:04Z</time>
      </trkpt>
      <trkpt lat="48.687332" lon="-1.497658">
        <ele>11.043</ele>
        <time>2026-08-21T20:31:06Z</time>
      </trkpt>
      <trkpt lat="48.687347" lon="-1.497645">
        <ele>11.024</ele>
        <time>2026-08-21T20:31:08Z</time>
      </trkpt>
      <trkpt lat="48.687364" lon="-1.497637">
        <ele>11.037</ele>
        <time>2026-08-21T20:31:10Z</time>
      </trkpt>
      <trkpt lat="48.687372" lon="-1.497627">
        <ele>11.044</ele>
        <time>2026-08-21T20:31:11Z</time>
      </trkpt>
      <trkpt lat="48.687380" lon="-1.497610">
        <ele>11.065</ele>
        <time>2026-08-21T20:31:13Z</time>
      </trkpt>
      <trkpt lat="48.687380" lon="-1.497585">
        <ele>11.079</ele>
        <time>2026-08-21T20:31:15Z</time>
      </trkpt>
      <trkpt lat="48.687379" lon="-1.497571">
        <ele>11.056</ele>
        <time>2026-08-21T20:31:16Z</time>
      </trkpt>
      <trkpt lat="48.687381" lon="-1.497549">
        <ele>10.918</ele>
        <time>2026-08-21T20:31:18Z</time>
      </trkpt>
      <trkpt lat="48.687389" lon="-1.497529">
        <ele>10.998</ele>
        <time>2026-08-21T20:31:20Z</time>
      </trkpt>
      <trkpt lat="48.687392" lon="-1.497515">
        <ele>10.917</ele>
        <time>2026-08-21T20:31:21Z</time>
      </trkpt>
      <trkpt lat="48.687399" lon="-1.497504">
        <ele>10.909</ele>
        <time>2026-08-21T20:31:22Z</time>
      </trkpt>
      <trkpt lat="48.687408" lon="-1.497494">
        <ele>10.953</ele>
        <time>2026-08-21T20:31:23Z</time>
      </trkpt>
      <trkpt lat="48.687416" lon="-1.497485">
        <ele>10.989</ele>
        <time>2026-08-21T20:31:24Z</time>
      </trkpt>
      <trkpt lat="48.687424" lon="-1.497475">
        <ele>10.832</ele>
        <time>2026-08-21T20:31:25Z</time>
      </trkpt>
      <trkpt lat="48.687430" lon="-1.497450">
        <ele>10.893</ele>
        <time>2026-08-21T20:31:27Z</time>
      </trkpt>
      <trkpt lat="48.687436" lon="-1.497426">
        <ele>10.826</ele>
        <time>2026-08-21T20:31:29Z</time>
      </trkpt>
      <trkpt lat="48.687439" lon="-1.497412">
        <ele>10.883</ele>
        <time>2026-08-21T20:31:30Z</time>
      </trkpt>
      <trkpt lat="48.687444" lon="-1.497399">
        <ele>10.864</ele>
        <time>2026-08-21T20:31:31Z</time>
      </trkpt>
      <trkpt lat="48.687447" lon="-1.497385">
        <ele>10.878</ele>
        <time>2026-08-21T20:31:32Z</time>
      </trkpt>
      <trkpt lat="48.687449" lon="-1.497372">
        <ele>10.895</ele>
        <time>2026-08-21T20:31:33Z</time>
      </trkpt>
      <trkpt lat="48.687452" lon="-1.497358">
        <ele>10.866</ele>
        <time>2026-08-21T20:31:34Z</time>
      </trkpt>
      <trkpt lat="48.687458" lon="-1.497346">
        <ele>10.729</ele>
        <time>2026-08-21T20:31:35Z</time>
      </trkpt>
      <trkpt lat="48.687469" lon="-1.497324">
        <ele>10.421</ele>
        <time>2026-08-21T20:31:37Z</time>
      </trkpt>
      <trkpt lat="48.687475" lon="-1.497312">
        <ele>10.209</ele>
        <time>2026-08-21T20:31:38Z</time>
      </trkpt>
      <trkpt lat="48.687488" lon="-1.497294">
        <ele>10.218</ele>
        <time>2026-08-21T20:31:40Z</time>
      </trkpt>
      <trkpt lat="48.687498" lon="-1.497281">
        <ele>10.134</ele>
        <time>2026-08-21T20:31:42Z</time>
      </trkpt>
      <trkpt lat="48.687504" lon="-1.497266">
        <ele>10.117</ele>
        <time>2026-08-21T20:31:44Z</time>
      </trkpt>
      <trkpt lat="48.687514" lon="-1.497251">
        <ele>10.148</ele>
        <time>2026-08-21T20:31:46Z</time>
      </trkpt>
      <trkpt lat="48.687522" lon="-1.497241">
        <ele>10.111</ele>
        <time>2026-08-21T20:31:48Z</time>
      </trkpt>
      <trkpt lat="48.687513" lon="-1.497248">
        <ele>10.118</ele>
        <time>2026-08-21T20:31:50Z</time>
      </trkpt>
      <trkpt lat="48.687529" lon="-1.497247">
        <ele>9.169</ele>
        <time>2026-08-21T20:32:25Z</time>
      </trkpt>
      <trkpt lat="48.687544" lon="-1.497239">
        <ele>9.133</ele>
        <time>2026-08-21T20:32:27Z</time>
      </trkpt>
      <trkpt lat="48.687556" lon="-1.497226">
        <ele>9.120</ele>
        <time>2026-08-21T20:32:29Z</time>
      </trkpt>
      <trkpt lat="48.687557" lon="-1.497212">
        <ele>9.211</ele>
        <time>2026-08-21T20:32:32Z</time>
      </trkpt>
      <trkpt lat="48.687566" lon="-1.497193">
        <ele>9.121</ele>
        <time>2026-08-21T20:32:34Z</time>
      </trkpt>
      <trkpt lat="48.687573" lon="-1.497184">
        <ele>9.103</ele>
        <time>2026-08-21T20:32:35Z</time>
      </trkpt>
      <trkpt lat="48.687585" lon="-1.497176">
        <ele>9.109</ele>
        <time>2026-08-21T20:32:37Z</time>
      </trkpt>
      <trkpt lat="48.687596" lon="-1.497180">
        <ele>9.113</ele>
        <time>2026-08-21T20:32:38Z</time>
      </trkpt>
      <trkpt lat="48.687610" lon="-1.497190">
        <ele>9.199</ele>
        <time>2026-08-21T20:32:40Z</time>
      </trkpt>
      <trkpt lat="48.687620" lon="-1.497193">
        <ele>9.122</ele>
        <time>2026-08-21T20:32:44Z</time>
      </trkpt>
      <trkpt lat="48.687635" lon="-1.497192">
        <ele>9.133</ele>
        <time>2026-08-21T20:32:46Z</time>
      </trkpt>
      <trkpt lat="48.687643" lon="-1.497196">
        <ele>9.176</ele>
        <time>2026-08-21T20:32:47Z</time>
      </trkpt>
      <trkpt lat="48.687653" lon="-1.497205">
        <ele>9.183</ele>
        <time>2026-08-21T20:32:49Z</time>
      </trkpt>
      <trkpt lat="48.687663" lon="-1.497208">
        <ele>9.064</ele>
        <time>2026-08-21T20:32:50Z</time>
      </trkpt>
      <trkpt lat="48.687675" lon="-1.497216">
        <ele>9.038</ele>
        <time>2026-08-21T20:32:52Z</time>
      </trkpt>
      <trkpt lat="48.687683" lon="-1.497231">
        <ele>9.185</ele>
        <time>2026-08-21T20:32:55Z</time>
      </trkpt>
      <trkpt lat="48.687694" lon="-1.497236">
        <ele>9.118</ele>
        <time>2026-08-21T20:32:57Z</time>
      </trkpt>
      <trkpt lat="48.687698" lon="-1.497253">
        <ele>9.198</ele>
        <time>2026-08-21T20:32:59Z</time>
      </trkpt>
      <trkpt lat="48.687697" lon="-1.497267">
        <ele>9.117</ele>
        <time>2026-08-21T20:33:01Z</time>
      </trkpt>
      <trkpt lat="48.687689" lon="-1.497266">
        <ele>9.109</ele>
        <time>2026-08-21T20:33:07Z</time>
      </trkpt>
      <trkpt lat="48.687682" lon="-1.497247">
        <ele>9.083</ele>
        <time>2026-08-21T20:33:15Z</time>
      </trkpt>
      <trkpt lat="48.687678" lon="-1.497235">
        <ele>6.179</ele>
        <time>2026-08-21T20:34:41Z</time>
      </trkpt>
      <trkpt lat="48.687671" lon="-1.497247">
        <ele>6.862</ele>
        <time>2026-08-21T20:35:44Z</time>
      </trkpt>
      <trkpt lat="48.687680" lon="-1.497248">
        <ele>8.433</ele>
        <time>2026-08-21T20:36:31Z</time>
      </trkpt>
      <trkpt lat="48.687671" lon="-1.497236">
        <ele>7.976</ele>
        <time>2026-08-21T20:37:02Z</time>
      </trkpt>
      <trkpt lat="48.687679" lon="-1.497243">
        <ele>8.153</ele>
        <time>2026-08-21T20:37:08Z</time>
      </trkpt>
      <trkpt lat="48.687675" lon="-1.497255">
        <ele>6.624</ele>
        <time>2026-08-21T20:38:08Z</time>
      </trkpt>
      <trkpt lat="48.687665" lon="-1.497241">
        <ele>5.868</ele>
        <time>2026-08-21T20:38:34Z</time>
      </trkpt>
      <trkpt lat="48.687670" lon="-1.497229">
        <ele>5.255</ele>
        <time>2026-08-21T20:39:47Z</time>
      </trkpt>
      <trkpt lat="48.687680" lon="-1.497237">
        <ele>5.592</ele>
        <time>2026-08-21T20:39:52Z</time>
      </trkpt>
      <trkpt lat="48.687689" lon="-1.497241">
        <ele>5.773</ele>
        <time>2026-08-21T20:39:54Z</time>
      </trkpt>
      <trkpt lat="48.687699" lon="-1.497248">
        <ele>5.720</ele>
        <time>2026-08-21T20:39:56Z</time>
      </trkpt>
      <trkpt lat="48.687708" lon="-1.497257">
        <ele>5.709</ele>
        <time>2026-08-21T20:39:58Z</time>
      </trkpt>
      <trkpt lat="48.687716" lon="-1.497266">
        <ele>5.681</ele>
        <time>2026-08-21T20:40:00Z</time>
      </trkpt>
      <trkpt lat="48.687722" lon="-1.497280">
        <ele>5.597</ele>
        <time>2026-08-21T20:40:02Z</time>
      </trkpt>
      <trkpt lat="48.687727" lon="-1.497294">
        <ele>5.460</ele>
        <time>2026-08-21T20:40:04Z</time>
      </trkpt>
      <trkpt lat="48.687733" lon="-1.497313">
        <ele>5.481</ele>
        <time>2026-08-21T20:40:06Z</time>
      </trkpt>
      <trkpt lat="48.687740" lon="-1.497328">
        <ele>5.334</ele>
        <time>2026-08-21T20:40:08Z</time>
      </trkpt>
      <trkpt lat="48.687747" lon="-1.497344">
        <ele>5.341</ele>
        <time>2026-08-21T20:40:11Z</time>
      </trkpt>
      <trkpt lat="48.687749" lon="-1.497358">
        <ele>5.372</ele>
        <time>2026-08-21T20:40:14Z</time>
      </trkpt>
      <trkpt lat="48.687755" lon="-1.497344">
        <ele>3.966</ele>
        <time>2026-08-21T20:41:04Z</time>
      </trkpt>
      <trkpt lat="48.687763" lon="-1.497338">
        <ele>3.883</ele>
        <time>2026-08-21T20:41:05Z</time>
      </trkpt>
      <trkpt lat="48.687774" lon="-1.497329">
        <ele>3.989</ele>
        <time>2026-08-21T20:41:06Z</time>
      </trkpt>
      <trkpt lat="48.687785" lon="-1.497323">
        <ele>3.906</ele>
        <time>2026-08-21T20:41:07Z</time>
      </trkpt>
      <trkpt lat="48.687796" lon="-1.497321">
        <ele>3.926</ele>
        <time>2026-08-21T20:41:08Z</time>
      </trkpt>
      <trkpt lat="48.687817" lon="-1.497318">
        <ele>3.809</ele>
        <time>2026-08-21T20:41:10Z</time>
      </trkpt>
      <trkpt lat="48.687828" lon="-1.497316">
        <ele>3.870</ele>
        <time>2026-08-21T20:41:11Z</time>
      </trkpt>
      <trkpt lat="48.687839" lon="-1.497315">
        <ele>3.826</ele>
        <time>2026-08-21T20:41:12Z</time>
      </trkpt>
      <trkpt lat="48.687849" lon="-1.497314">
        <ele>3.849</ele>
        <time>2026-08-21T20:41:13Z</time>
      </trkpt>
      <trkpt lat="48.687860" lon="-1.497313">
        <ele>3.880</ele>
        <time>2026-08-21T20:41:14Z</time>
      </trkpt>
      <trkpt lat="48.687870" lon="-1.497314">
        <ele>3.853</ele>
        <time>2026-08-21T20:41:15Z</time>
      </trkpt>
      <trkpt lat="48.687880" lon="-1.497317">
        <ele>3.870</ele>
        <time>2026-08-21T20:41:16Z</time>
      </trkpt>
      <trkpt lat="48.687891" lon="-1.497320">
        <ele>3.861</ele>
        <time>2026-08-21T20:41:17Z</time>
      </trkpt>
      <trkpt lat="48.687901" lon="-1.497324">
        <ele>3.865</ele>
        <time>2026-08-21T20:41:18Z</time>
      </trkpt>
      <trkpt lat="48.687910" lon="-1.497327">
        <ele>3.822</ele>
        <time>2026-08-21T20:41:19Z</time>
      </trkpt>
      <trkpt lat="48.687920" lon="-1.497331">
        <ele>3.823</ele>
        <time>2026-08-21T20:41:20Z</time>
      </trkpt>
      <trkpt lat="48.687938" lon="-1.497336">
        <ele>3.883</ele>
        <time>2026-08-21T20:41:22Z</time>
      </trkpt>
      <trkpt lat="48.687947" lon="-1.497340">
        <ele>3.811</ele>
        <time>2026-08-21T20:41:23Z</time>
      </trkpt>
      <trkpt lat="48.687956" lon="-1.497343">
        <ele>3.709</ele>
        <time>2026-08-21T20:41:24Z</time>
      </trkpt>
      <trkpt lat="48.687966" lon="-1.497347">
        <ele>3.764</ele>
        <time>2026-08-21T20:41:25Z</time>
      </trkpt>
      <trkpt lat="48.687981" lon="-1.497353">
        <ele>3.790</ele>
        <time>2026-08-21T20:41:27Z</time>
      </trkpt>
      <trkpt lat="48.687997" lon="-1.497354">
        <ele>3.713</ele>
        <time>2026-08-21T20:41:29Z</time>
      </trkpt>
      <trkpt lat="48.688007" lon="-1.497352">
        <ele>3.754</ele>
        <time>2026-08-21T20:41:32Z</time>
      </trkpt>
      <trkpt lat="48.687999" lon="-1.497358">
        <ele>4.327</ele>
        <time>2026-08-21T20:42:18Z</time>
      </trkpt>
      <trkpt lat="48.688009" lon="-1.497382">
        <ele>4.594</ele>
        <time>2026-08-21T20:42:24Z</time>
      </trkpt>
      <trkpt lat="48.688017" lon="-1.497395">
        <ele>4.885</ele>
        <time>2026-08-21T20:42:26Z</time>
      </trkpt>
      <trkpt lat="48.688005" lon="-1.497381">
        <ele>5.029</ele>
        <time>2026-08-21T20:42:36Z</time>
      </trkpt>
      <trkpt lat="48.687996" lon="-1.497377">
        <ele>5.396</ele>
        <time>2026-08-21T20:42:39Z</time>
      </trkpt>
      <trkpt lat="48.687983" lon="-1.497372">
        <ele>4.586</ele>
        <time>2026-08-21T20:43:20Z</time>
      </trkpt>
      <trkpt lat="48.687974" lon="-1.497368">
        <ele>4.660</ele>
        <time>2026-08-21T20:43:22Z</time>
      </trkpt>
      <trkpt lat="48.687983" lon="-1.497364">
        <ele>4.526</ele>
        <time>2026-08-21T20:43:33Z</time>
      </trkpt>
      <trkpt lat="48.687990" lon="-1.497356">
        <ele>4.309</ele>
        <time>2026-08-21T20:43:37Z</time>
      </trkpt>
      <trkpt lat="48.687981" lon="-1.497363">
        <ele>4.120</ele>
        <time>2026-08-21T20:43:56Z</time>
      </trkpt>
      <trkpt lat="48.687972" lon="-1.497360">
        <ele>5.566</ele>
        <time>2026-08-21T20:44:32Z</time>
      </trkpt>
      <trkpt lat="48.687962" lon="-1.497355">
        <ele>5.679</ele>
        <time>2026-08-21T20:44:33Z</time>
      </trkpt>
      <trkpt lat="48.687949" lon="-1.497348">
        <ele>5.550</ele>
        <time>2026-08-21T20:44:35Z</time>
      </trkpt>
      <trkpt lat="48.687931" lon="-1.497341">
        <ele>5.693</ele>
        <time>2026-08-21T20:44:37Z</time>
      </trkpt>
      <trkpt lat="48.687916" lon="-1.497339">
        <ele>5.630</ele>
        <time>2026-08-21T20:44:39Z</time>
      </trkpt>
      <trkpt lat="48.687902" lon="-1.497337">
        <ele>5.631</ele>
        <time>2026-08-21T20:44:41Z</time>
      </trkpt>
      <trkpt lat="48.687891" lon="-1.497339">
        <ele>5.645</ele>
        <time>2026-08-21T20:44:42Z</time>
      </trkpt>
      <trkpt lat="48.687871" lon="-1.497344">
        <ele>5.512</ele>
        <time>2026-08-21T20:44:44Z</time>
      </trkpt>
      <trkpt lat="48.687862" lon="-1.497344">
        <ele>5.523</ele>
        <time>2026-08-21T20:44:45Z</time>
      </trkpt>
      <trkpt lat="48.687851" lon="-1.497348">
        <ele>5.583</ele>
        <time>2026-08-21T20:44:46Z</time>
      </trkpt>
      <trkpt lat="48.687836" lon="-1.497348">
        <ele>5.511</ele>
        <time>2026-08-21T20:44:48Z</time>
      </trkpt>
      <trkpt lat="48.687821" lon="-1.497350">
        <ele>5.509</ele>
        <time>2026-08-21T20:44:50Z</time>
      </trkpt>
      <trkpt lat="48.687811" lon="-1.497358">
        <ele>5.544</ele>
        <time>2026-08-21T20:44:51Z</time>
      </trkpt>
      <trkpt lat="48.687800" lon="-1.497368">
        <ele>5.590</ele>
        <time>2026-08-21T20:44:52Z</time>
      </trkpt>
      <trkpt lat="48.687792" lon="-1.497377">
        <ele>5.423</ele>
        <time>2026-08-21T20:44:53Z</time>
      </trkpt>
      <trkpt lat="48.687785" lon="-1.497389">
        <ele>5.444</ele>
        <time>2026-08-21T20:44:54Z</time>
      </trkpt>
      <trkpt lat="48.687779" lon="-1.497399">
        <ele>5.497</ele>
        <time>2026-08-21T20:44:55Z</time>
      </trkpt>
      <trkpt lat="48.687772" lon="-1.497414">
        <ele>5.314</ele>
        <time>2026-08-21T20:44:57Z</time>
      </trkpt>
      <trkpt lat="48.687770" lon="-1.497399">
        <ele>4.715</ele>
        <time>2026-08-21T20:45:41Z</time>
      </trkpt>
      <trkpt lat="48.687778" lon="-1.497377">
        <ele>4.799</ele>
        <time>2026-08-21T20:45:43Z</time>
      </trkpt>
      <trkpt lat="48.687788" lon="-1.497368">
        <ele>4.756</ele>
        <time>2026-08-21T20:45:44Z</time>
      </trkpt>
      <trkpt lat="48.687797" lon="-1.497360">
        <ele>4.726</ele>
        <time>2026-08-21T20:45:45Z</time>
      </trkpt>
      <trkpt lat="48.687805" lon="-1.497349">
        <ele>4.647</ele>
        <time>2026-08-21T20:45:46Z</time>
      </trkpt>
      <trkpt lat="48.687815" lon="-1.497344">
        <ele>4.611</ele>
        <time>2026-08-21T20:45:47Z</time>
      </trkpt>
      <trkpt lat="48.687832" lon="-1.497336">
        <ele>4.609</ele>
        <time>2026-08-21T20:45:49Z</time>
      </trkpt>
      <trkpt lat="48.687843" lon="-1.497334">
        <ele>4.684</ele>
        <time>2026-08-21T20:45:50Z</time>
      </trkpt>
      <trkpt lat="48.687861" lon="-1.497330">
        <ele>4.550</ele>
        <time>2026-08-21T20:45:52Z</time>
      </trkpt>
      <trkpt lat="48.687870" lon="-1.497331">
        <ele>4.563</ele>
        <time>2026-08-21T20:45:53Z</time>
      </trkpt>
      <trkpt lat="48.687887" lon="-1.497333">
        <ele>4.524</ele>
        <time>2026-08-21T20:45:55Z</time>
      </trkpt>
      <trkpt lat="48.687902" lon="-1.497335">
        <ele>4.467</ele>
        <time>2026-08-21T20:45:57Z</time>
      </trkpt>
      <trkpt lat="48.687916" lon="-1.497337">
        <ele>4.444</ele>
        <time>2026-08-21T20:45:59Z</time>
      </trkpt>
      <trkpt lat="48.687926" lon="-1.497344">
        <ele>4.445</ele>
        <time>2026-08-21T20:46:00Z</time>
      </trkpt>
      <trkpt lat="48.687934" lon="-1.497351">
        <ele>4.499</ele>
        <time>2026-08-21T20:46:01Z</time>
      </trkpt>
      <trkpt lat="48.687952" lon="-1.497360">
        <ele>4.216</ele>
        <time>2026-08-21T20:46:03Z</time>
      </trkpt>
      <trkpt lat="48.687965" lon="-1.497370">
        <ele>4.468</ele>
        <time>2026-08-21T20:46:05Z</time>
      </trkpt>
      <trkpt lat="48.687977" lon="-1.497371">
        <ele>4.442</ele>
        <time>2026-08-21T20:46:07Z</time>
      </trkpt>
      <trkpt lat="48.687987" lon="-1.497375">
        <ele>4.426</ele>
        <time>2026-08-21T20:46:11Z</time>
      </trkpt>
      <trkpt lat="48.687993" lon="-1.497385">
        <ele>4.409</ele>
        <time>2026-08-21T20:46:30Z</time>
      </trkpt>
      <trkpt lat="48.687995" lon="-1.497400">
        <ele>4.448</ele>
        <time>2026-08-21T20:46:37Z</time>
      </trkpt>
      <trkpt lat="48.687999" lon="-1.497417">
        <ele>4.414</ele>
        <time>2026-08-21T20:46:40Z</time>
      </trkpt>
      <trkpt lat="48.688011" lon="-1.497437">
        <ele>4.447</ele>
        <time>2026-08-21T20:46:44Z</time>
      </trkpt>
      <trkpt lat="48.688026" lon="-1.497447">
        <ele>4.218</ele>
        <time>2026-08-21T20:46:45Z</time>
      </trkpt>
      <trkpt lat="48.688035" lon="-1.497457">
        <ele>4.041</ele>
        <time>2026-08-21T20:46:46Z</time>
      </trkpt>
      <trkpt lat="48.688042" lon="-1.497465">
        <ele>3.988</ele>
        <time>2026-08-21T20:46:47Z</time>
      </trkpt>
      <trkpt lat="48.688062" lon="-1.497463">
        <ele>3.769</ele>
        <time>2026-08-21T20:46:49Z</time>
      </trkpt>
      <trkpt lat="48.688074" lon="-1.497458">
        <ele>3.793</ele>
        <time>2026-08-21T20:46:50Z</time>
      </trkpt>
      <trkpt lat="48.688091" lon="-1.497452">
        <ele>3.720</ele>
        <time>2026-08-21T20:46:51Z</time>
      </trkpt>
      <trkpt lat="48.688107" lon="-1.497445">
        <ele>3.752</ele>
        <time>2026-08-21T20:46:52Z</time>
      </trkpt>
      <trkpt lat="48.688118" lon="-1.497438">
        <ele>3.753</ele>
        <time>2026-08-21T20:46:53Z</time>
      </trkpt>
      <trkpt lat="48.688129" lon="-1.497432">
        <ele>3.708</ele>
        <time>2026-08-21T20:46:55Z</time>
      </trkpt>
      <trkpt lat="48.688138" lon="-1.497436">
        <ele>3.609</ele>
        <time>2026-08-21T20:47:02Z</time>
      </trkpt>
      <trkpt lat="48.688137" lon="-1.497450">
        <ele>1.697</ele>
        <time>2026-08-21T20:47:44Z</time>
      </trkpt>
      <trkpt lat="48.688133" lon="-1.497464">
        <ele>1.673</ele>
        <time>2026-08-21T20:47:46Z</time>
      </trkpt>
      <trkpt lat="48.688144" lon="-1.497465">
        <ele>1.686</ele>
        <time>2026-08-21T20:47:55Z</time>
      </trkpt>
    </trkseg>
  </trk></gpx>